<?xml version="1.0" encoding="UTF-8" standalone="no" ?>
<gpx xmlns="http://www.topografix.com/GPX/1/1" xmlns:xsi="http://www.w3.org/2001/XMLSchema-instance" xsi:schemaLocation="http://www.topografix.com/GPX/1/1 http://www.topografix.com/GPX/1/1/gpx.xsd" version="1.1" creator="VisuGPX - https://www.visugpx.com">
  <metadata>
    <name>Rumigny </name>
    <desc><![CDATA[Cœur et santé
47 pax
Belle rando variée]]></desc>
  </metadata>
  <trk>
    <name><![CDATA[Rumigny _1]]></name>
    <trkseg>
      <trkpt lat="49.81146" lon="2.27425">
        <ele>116.7</ele>
        <time>2023-04-05T11:58:35Z</time>
      </trkpt>
      <trkpt lat="49.81143" lon="2.27428">
        <ele>116.7</ele>
        <time>2023-04-05T11:58:36Z</time>
      </trkpt>
      <trkpt lat="49.81142" lon="2.2743">
        <ele>116.7</ele>
        <time>2023-04-05T11:58:37Z</time>
      </trkpt>
      <trkpt lat="49.81142" lon="2.2743">
        <ele>116.7</ele>
        <time>2023-04-05T11:58:39Z</time>
      </trkpt>
      <trkpt lat="49.81142" lon="2.27431">
        <ele>116.7</ele>
        <time>2023-04-05T11:58:40Z</time>
      </trkpt>
      <trkpt lat="49.81142" lon="2.27431">
        <ele>116.7</ele>
        <time>2023-04-05T11:58:41Z</time>
      </trkpt>
      <trkpt lat="49.81142" lon="2.27431">
        <ele>116.7</ele>
        <time>2023-04-05T11:58:42Z</time>
      </trkpt>
      <trkpt lat="49.81142" lon="2.27431">
        <ele>116.7</ele>
        <time>2023-04-05T11:58:43Z</time>
      </trkpt>
      <trkpt lat="49.81142" lon="2.27431">
        <ele>116.7</ele>
        <time>2023-04-05T11:58:44Z</time>
      </trkpt>
      <trkpt lat="49.81142" lon="2.27431">
        <ele>116.7</ele>
        <time>2023-04-05T11:58:45Z</time>
      </trkpt>
      <trkpt lat="49.81142" lon="2.27431">
        <ele>116.7</ele>
        <time>2023-04-05T11:58:46Z</time>
      </trkpt>
      <trkpt lat="49.81142" lon="2.27431">
        <ele>116.7</ele>
        <time>2023-04-05T11:58:47Z</time>
      </trkpt>
      <trkpt lat="49.81142" lon="2.27431">
        <ele>116.7</ele>
        <time>2023-04-05T11:58:48Z</time>
      </trkpt>
      <trkpt lat="49.81142" lon="2.27431">
        <ele>116.7</ele>
        <time>2023-04-05T11:58:49Z</time>
      </trkpt>
      <trkpt lat="49.81142" lon="2.27431">
        <ele>116.7</ele>
        <time>2023-04-05T11:58:51Z</time>
      </trkpt>
      <trkpt lat="49.81142" lon="2.27431">
        <ele>116.7</ele>
        <time>2023-04-05T11:58:52Z</time>
      </trkpt>
      <trkpt lat="49.81142" lon="2.27431">
        <ele>116.7</ele>
        <time>2023-04-05T11:58:53Z</time>
      </trkpt>
      <trkpt lat="49.81142" lon="2.27431">
        <ele>116.7</ele>
        <time>2023-04-05T11:58:54Z</time>
      </trkpt>
      <trkpt lat="49.81143" lon="2.27431">
        <ele>116.7</ele>
        <time>2023-04-05T11:58:55Z</time>
      </trkpt>
      <trkpt lat="49.81143" lon="2.27431">
        <ele>116.7</ele>
        <time>2023-04-05T11:58:56Z</time>
      </trkpt>
      <trkpt lat="49.81143" lon="2.27431">
        <ele>116.7</ele>
        <time>2023-04-05T11:58:57Z</time>
      </trkpt>
      <trkpt lat="49.81143" lon="2.27431">
        <ele>116.7</ele>
        <time>2023-04-05T11:58:58Z</time>
      </trkpt>
      <trkpt lat="49.81143" lon="2.27431">
        <ele>116.7</ele>
        <time>2023-04-05T11:58:59Z</time>
      </trkpt>
      <trkpt lat="49.81143" lon="2.27431">
        <ele>116.7</ele>
        <time>2023-04-05T11:59:00Z</time>
      </trkpt>
      <trkpt lat="49.81143" lon="2.27431">
        <ele>116.7</ele>
        <time>2023-04-05T11:59:01Z</time>
      </trkpt>
      <trkpt lat="49.81143" lon="2.27431">
        <ele>116.7</ele>
        <time>2023-04-05T11:59:02Z</time>
      </trkpt>
      <trkpt lat="49.81143" lon="2.27431">
        <ele>116.7</ele>
        <time>2023-04-05T11:59:03Z</time>
      </trkpt>
      <trkpt lat="49.81143" lon="2.27431">
        <ele>116.7</ele>
        <time>2023-04-05T11:59:04Z</time>
      </trkpt>
      <trkpt lat="49.81143" lon="2.27431">
        <ele>116.7</ele>
        <time>2023-04-05T11:59:05Z</time>
      </trkpt>
      <trkpt lat="49.81143" lon="2.27431">
        <ele>116.7</ele>
        <time>2023-04-05T11:59:06Z</time>
      </trkpt>
      <trkpt lat="49.81143" lon="2.27432">
        <ele>116.7</ele>
        <time>2023-04-05T11:59:07Z</time>
      </trkpt>
      <trkpt lat="49.81143" lon="2.27432">
        <ele>116.7</ele>
        <time>2023-04-05T11:59:08Z</time>
      </trkpt>
      <trkpt lat="49.81143" lon="2.27432">
        <ele>116.7</ele>
        <time>2023-04-05T11:59:09Z</time>
      </trkpt>
      <trkpt lat="49.81143" lon="2.27432">
        <ele>116.7</ele>
        <time>2023-04-05T11:59:10Z</time>
      </trkpt>
      <trkpt lat="49.81143" lon="2.27432">
        <ele>116.7</ele>
        <time>2023-04-05T11:59:11Z</time>
      </trkpt>
      <trkpt lat="49.81143" lon="2.27432">
        <ele>116.7</ele>
        <time>2023-04-05T11:59:12Z</time>
      </trkpt>
      <trkpt lat="49.81143" lon="2.27432">
        <ele>116.7</ele>
        <time>2023-04-05T11:59:13Z</time>
      </trkpt>
      <trkpt lat="49.81143" lon="2.27432">
        <ele>116.7</ele>
        <time>2023-04-05T11:59:14Z</time>
      </trkpt>
      <trkpt lat="49.81143" lon="2.27432">
        <ele>116.7</ele>
        <time>2023-04-05T11:59:15Z</time>
      </trkpt>
      <trkpt lat="49.81143" lon="2.27432">
        <ele>116.7</ele>
        <time>2023-04-05T11:59:16Z</time>
      </trkpt>
      <trkpt lat="49.81143" lon="2.27432">
        <ele>116.7</ele>
        <time>2023-04-05T11:59:17Z</time>
      </trkpt>
      <trkpt lat="49.81143" lon="2.27432">
        <ele>116.7</ele>
        <time>2023-04-05T11:59:18Z</time>
      </trkpt>
      <trkpt lat="49.81144" lon="2.27432">
        <ele>116.7</ele>
        <time>2023-04-05T11:59:19Z</time>
      </trkpt>
      <trkpt lat="49.81144" lon="2.27432">
        <ele>116.7</ele>
        <time>2023-04-05T11:59:20Z</time>
      </trkpt>
      <trkpt lat="49.81144" lon="2.27432">
        <ele>116.7</ele>
        <time>2023-04-05T11:59:21Z</time>
      </trkpt>
      <trkpt lat="49.81144" lon="2.27432">
        <ele>116.7</ele>
        <time>2023-04-05T11:59:22Z</time>
      </trkpt>
      <trkpt lat="49.81144" lon="2.27432">
        <ele>116.7</ele>
        <time>2023-04-05T11:59:23Z</time>
      </trkpt>
      <trkpt lat="49.81144" lon="2.27432">
        <ele>116.7</ele>
        <time>2023-04-05T11:59:24Z</time>
      </trkpt>
      <trkpt lat="49.81144" lon="2.27432">
        <ele>116.7</ele>
        <time>2023-04-05T11:59:25Z</time>
      </trkpt>
      <trkpt lat="49.81144" lon="2.27432">
        <ele>116.7</ele>
        <time>2023-04-05T11:59:26Z</time>
      </trkpt>
      <trkpt lat="49.81144" lon="2.27432">
        <ele>116.7</ele>
        <time>2023-04-05T11:59:27Z</time>
      </trkpt>
      <trkpt lat="49.81144" lon="2.27432">
        <ele>116.7</ele>
        <time>2023-04-05T11:59:28Z</time>
      </trkpt>
      <trkpt lat="49.81144" lon="2.27432">
        <ele>116.7</ele>
        <time>2023-04-05T11:59:29Z</time>
      </trkpt>
      <trkpt lat="49.81144" lon="2.27432">
        <ele>116.7</ele>
        <time>2023-04-05T11:59:30Z</time>
      </trkpt>
      <trkpt lat="49.81144" lon="2.27432">
        <ele>116.7</ele>
        <time>2023-04-05T11:59:31Z</time>
      </trkpt>
      <trkpt lat="49.81144" lon="2.27432">
        <ele>116.7</ele>
        <time>2023-04-05T11:59:32Z</time>
      </trkpt>
      <trkpt lat="49.81144" lon="2.27433">
        <ele>116.7</ele>
        <time>2023-04-05T11:59:33Z</time>
      </trkpt>
      <trkpt lat="49.81144" lon="2.27433">
        <ele>116.7</ele>
        <time>2023-04-05T11:59:34Z</time>
      </trkpt>
      <trkpt lat="49.81144" lon="2.27433">
        <ele>116.7</ele>
        <time>2023-04-05T11:59:35Z</time>
      </trkpt>
      <trkpt lat="49.81144" lon="2.27433">
        <ele>116.8</ele>
        <time>2023-04-05T11:59:36Z</time>
      </trkpt>
      <trkpt lat="49.81144" lon="2.27433">
        <ele>116.8</ele>
        <time>2023-04-05T11:59:37Z</time>
      </trkpt>
      <trkpt lat="49.81144" lon="2.27433">
        <ele>116.8</ele>
        <time>2023-04-05T11:59:38Z</time>
      </trkpt>
      <trkpt lat="49.81144" lon="2.27433">
        <ele>116.8</ele>
        <time>2023-04-05T11:59:39Z</time>
      </trkpt>
      <trkpt lat="49.81144" lon="2.27433">
        <ele>116.8</ele>
        <time>2023-04-05T11:59:40Z</time>
      </trkpt>
      <trkpt lat="49.81144" lon="2.27433">
        <ele>116.8</ele>
        <time>2023-04-05T11:59:41Z</time>
      </trkpt>
      <trkpt lat="49.81144" lon="2.27433">
        <ele>116.8</ele>
        <time>2023-04-05T11:59:42Z</time>
      </trkpt>
      <trkpt lat="49.81144" lon="2.27433">
        <ele>116.8</ele>
        <time>2023-04-05T11:59:43Z</time>
      </trkpt>
      <trkpt lat="49.81145" lon="2.27433">
        <ele>116.8</ele>
        <time>2023-04-05T11:59:44Z</time>
      </trkpt>
      <trkpt lat="49.81145" lon="2.27433">
        <ele>116.8</ele>
        <time>2023-04-05T11:59:45Z</time>
      </trkpt>
      <trkpt lat="49.81145" lon="2.27433">
        <ele>116.8</ele>
        <time>2023-04-05T11:59:46Z</time>
      </trkpt>
      <trkpt lat="49.81145" lon="2.27433">
        <ele>116.8</ele>
        <time>2023-04-05T11:59:47Z</time>
      </trkpt>
      <trkpt lat="49.81145" lon="2.27433">
        <ele>116.8</ele>
        <time>2023-04-05T11:59:48Z</time>
      </trkpt>
      <trkpt lat="49.81145" lon="2.27433">
        <ele>116.8</ele>
        <time>2023-04-05T11:59:49Z</time>
      </trkpt>
      <trkpt lat="49.81145" lon="2.27433">
        <ele>116.8</ele>
        <time>2023-04-05T11:59:50Z</time>
      </trkpt>
      <trkpt lat="49.81145" lon="2.27433">
        <ele>116.8</ele>
        <time>2023-04-05T11:59:51Z</time>
      </trkpt>
      <trkpt lat="49.81145" lon="2.27433">
        <ele>116.8</ele>
        <time>2023-04-05T11:59:52Z</time>
      </trkpt>
      <trkpt lat="49.81145" lon="2.27433">
        <ele>116.8</ele>
        <time>2023-04-05T11:59:53Z</time>
      </trkpt>
      <trkpt lat="49.81145" lon="2.27433">
        <ele>116.8</ele>
        <time>2023-04-05T11:59:54Z</time>
      </trkpt>
      <trkpt lat="49.81145" lon="2.27433">
        <ele>116.8</ele>
        <time>2023-04-05T11:59:55Z</time>
      </trkpt>
      <trkpt lat="49.81145" lon="2.27433">
        <ele>116.8</ele>
        <time>2023-04-05T11:59:56Z</time>
      </trkpt>
      <trkpt lat="49.81145" lon="2.27433">
        <ele>116.8</ele>
        <time>2023-04-05T11:59:57Z</time>
      </trkpt>
      <trkpt lat="49.81145" lon="2.27433">
        <ele>116.8</ele>
        <time>2023-04-05T11:59:58Z</time>
      </trkpt>
      <trkpt lat="49.81145" lon="2.27433">
        <ele>116.8</ele>
        <time>2023-04-05T11:59:59Z</time>
      </trkpt>
      <trkpt lat="49.81145" lon="2.27434">
        <ele>116.8</ele>
        <time>2023-04-05T12:00:00Z</time>
      </trkpt>
      <trkpt lat="49.81145" lon="2.27434">
        <ele>116.8</ele>
        <time>2023-04-05T12:00:01Z</time>
      </trkpt>
      <trkpt lat="49.81145" lon="2.27434">
        <ele>116.8</ele>
        <time>2023-04-05T12:00:02Z</time>
      </trkpt>
      <trkpt lat="49.81145" lon="2.27434">
        <ele>116.8</ele>
        <time>2023-04-05T12:00:03Z</time>
      </trkpt>
      <trkpt lat="49.81145" lon="2.27434">
        <ele>116.8</ele>
        <time>2023-04-05T12:00:04Z</time>
      </trkpt>
      <trkpt lat="49.81145" lon="2.27434">
        <ele>116.8</ele>
        <time>2023-04-05T12:00:05Z</time>
      </trkpt>
      <trkpt lat="49.81145" lon="2.27434">
        <ele>116.8</ele>
        <time>2023-04-05T12:00:06Z</time>
      </trkpt>
      <trkpt lat="49.81145" lon="2.27434">
        <ele>116.8</ele>
        <time>2023-04-05T12:00:07Z</time>
      </trkpt>
      <trkpt lat="49.81146" lon="2.27434">
        <ele>116.8</ele>
        <time>2023-04-05T12:00:08Z</time>
      </trkpt>
      <trkpt lat="49.81146" lon="2.27434">
        <ele>116.8</ele>
        <time>2023-04-05T12:00:09Z</time>
      </trkpt>
      <trkpt lat="49.81146" lon="2.27434">
        <ele>116.8</ele>
        <time>2023-04-05T12:00:10Z</time>
      </trkpt>
      <trkpt lat="49.81146" lon="2.27434">
        <ele>116.8</ele>
        <time>2023-04-05T12:00:11Z</time>
      </trkpt>
      <trkpt lat="49.81146" lon="2.27434">
        <ele>116.8</ele>
        <time>2023-04-05T12:00:12Z</time>
      </trkpt>
      <trkpt lat="49.81146" lon="2.27434">
        <ele>116.8</ele>
        <time>2023-04-05T12:00:13Z</time>
      </trkpt>
      <trkpt lat="49.81146" lon="2.27434">
        <ele>116.8</ele>
        <time>2023-04-05T12:00:14Z</time>
      </trkpt>
      <trkpt lat="49.81146" lon="2.27434">
        <ele>116.8</ele>
        <time>2023-04-05T12:00:15Z</time>
      </trkpt>
      <trkpt lat="49.81146" lon="2.27434">
        <ele>116.8</ele>
        <time>2023-04-05T12:00:16Z</time>
      </trkpt>
      <trkpt lat="49.81146" lon="2.27434">
        <ele>116.8</ele>
        <time>2023-04-05T12:00:17Z</time>
      </trkpt>
      <trkpt lat="49.81146" lon="2.27434">
        <ele>116.8</ele>
        <time>2023-04-05T12:00:18Z</time>
      </trkpt>
      <trkpt lat="49.81146" lon="2.27434">
        <ele>116.8</ele>
        <time>2023-04-05T12:00:19Z</time>
      </trkpt>
      <trkpt lat="49.81146" lon="2.27434">
        <ele>116.8</ele>
        <time>2023-04-05T12:00:20Z</time>
      </trkpt>
      <trkpt lat="49.81146" lon="2.27434">
        <ele>116.8</ele>
        <time>2023-04-05T12:00:21Z</time>
      </trkpt>
      <trkpt lat="49.81146" lon="2.27434">
        <ele>116.8</ele>
        <time>2023-04-05T12:00:22Z</time>
      </trkpt>
      <trkpt lat="49.81146" lon="2.27434">
        <ele>116.8</ele>
        <time>2023-04-05T12:00:23Z</time>
      </trkpt>
      <trkpt lat="49.81146" lon="2.27434">
        <ele>116.8</ele>
        <time>2023-04-05T12:00:24Z</time>
      </trkpt>
      <trkpt lat="49.81146" lon="2.27434">
        <ele>116.8</ele>
        <time>2023-04-05T12:00:25Z</time>
      </trkpt>
      <trkpt lat="49.81146" lon="2.27435">
        <ele>116.8</ele>
        <time>2023-04-05T12:00:26Z</time>
      </trkpt>
      <trkpt lat="49.81146" lon="2.27435">
        <ele>116.8</ele>
        <time>2023-04-05T12:00:27Z</time>
      </trkpt>
      <trkpt lat="49.81146" lon="2.27435">
        <ele>116.8</ele>
        <time>2023-04-05T12:00:28Z</time>
      </trkpt>
      <trkpt lat="49.81146" lon="2.27435">
        <ele>116.8</ele>
        <time>2023-04-05T12:00:29Z</time>
      </trkpt>
      <trkpt lat="49.81146" lon="2.27435">
        <ele>116.8</ele>
        <time>2023-04-05T12:00:30Z</time>
      </trkpt>
      <trkpt lat="49.81146" lon="2.27435">
        <ele>116.8</ele>
        <time>2023-04-05T12:00:31Z</time>
      </trkpt>
      <trkpt lat="49.81146" lon="2.27435">
        <ele>116.8</ele>
        <time>2023-04-05T12:00:32Z</time>
      </trkpt>
      <trkpt lat="49.81147" lon="2.27435">
        <ele>116.8</ele>
        <time>2023-04-05T12:00:33Z</time>
      </trkpt>
      <trkpt lat="49.81147" lon="2.27435">
        <ele>116.8</ele>
        <time>2023-04-05T12:00:34Z</time>
      </trkpt>
      <trkpt lat="49.81147" lon="2.27435">
        <ele>116.8</ele>
        <time>2023-04-05T12:00:35Z</time>
      </trkpt>
      <trkpt lat="49.81147" lon="2.27435">
        <ele>116.8</ele>
        <time>2023-04-05T12:00:36Z</time>
      </trkpt>
      <trkpt lat="49.81147" lon="2.27435">
        <ele>116.8</ele>
        <time>2023-04-05T12:00:37Z</time>
      </trkpt>
      <trkpt lat="49.81147" lon="2.27435">
        <ele>116.8</ele>
        <time>2023-04-05T12:00:38Z</time>
      </trkpt>
      <trkpt lat="49.81147" lon="2.27435">
        <ele>116.8</ele>
        <time>2023-04-05T12:00:39Z</time>
      </trkpt>
      <trkpt lat="49.81147" lon="2.27435">
        <ele>116.8</ele>
        <time>2023-04-05T12:00:40Z</time>
      </trkpt>
      <trkpt lat="49.81147" lon="2.27435">
        <ele>116.8</ele>
        <time>2023-04-05T12:00:41Z</time>
      </trkpt>
      <trkpt lat="49.81147" lon="2.27435">
        <ele>116.8</ele>
        <time>2023-04-05T12:00:42Z</time>
      </trkpt>
      <trkpt lat="49.81147" lon="2.27435">
        <ele>116.8</ele>
        <time>2023-04-05T12:00:43Z</time>
      </trkpt>
      <trkpt lat="49.81147" lon="2.27435">
        <ele>116.8</ele>
        <time>2023-04-05T12:00:44Z</time>
      </trkpt>
      <trkpt lat="49.81147" lon="2.27435">
        <ele>116.8</ele>
        <time>2023-04-05T12:00:45Z</time>
      </trkpt>
      <trkpt lat="49.81147" lon="2.27435">
        <ele>116.8</ele>
        <time>2023-04-05T12:00:46Z</time>
      </trkpt>
      <trkpt lat="49.81147" lon="2.27435">
        <ele>116.8</ele>
        <time>2023-04-05T12:00:47Z</time>
      </trkpt>
      <trkpt lat="49.81147" lon="2.27435">
        <ele>116.8</ele>
        <time>2023-04-05T12:00:48Z</time>
      </trkpt>
      <trkpt lat="49.81149" lon="2.27436">
        <ele>116.8</ele>
        <time>2023-04-05T12:00:49Z</time>
      </trkpt>
      <trkpt lat="49.8115" lon="2.27436">
        <ele>116.8</ele>
        <time>2023-04-05T12:00:50Z</time>
      </trkpt>
      <trkpt lat="49.81151" lon="2.27436">
        <ele>116.8</ele>
        <time>2023-04-05T12:00:51Z</time>
      </trkpt>
      <trkpt lat="49.81151" lon="2.27436">
        <ele>116.8</ele>
        <time>2023-04-05T12:00:52Z</time>
      </trkpt>
      <trkpt lat="49.81152" lon="2.27436">
        <ele>116.8</ele>
        <time>2023-04-05T12:00:53Z</time>
      </trkpt>
      <trkpt lat="49.81153" lon="2.27437">
        <ele>116.8</ele>
        <time>2023-04-05T12:00:54Z</time>
      </trkpt>
      <trkpt lat="49.81155" lon="2.27437">
        <ele>116.9</ele>
        <time>2023-04-05T12:00:55Z</time>
      </trkpt>
      <trkpt lat="49.81156" lon="2.27437">
        <ele>116.9</ele>
        <time>2023-04-05T12:00:56Z</time>
      </trkpt>
      <trkpt lat="49.81157" lon="2.27438">
        <ele>116.9</ele>
        <time>2023-04-05T12:00:57Z</time>
      </trkpt>
      <trkpt lat="49.81159" lon="2.27438">
        <ele>116.9</ele>
        <time>2023-04-05T12:00:59Z</time>
      </trkpt>
      <trkpt lat="49.81159" lon="2.27438">
        <ele>116.9</ele>
        <time>2023-04-05T12:01:00Z</time>
      </trkpt>
      <trkpt lat="49.81161" lon="2.27438">
        <ele>116.9</ele>
        <time>2023-04-05T12:01:01Z</time>
      </trkpt>
      <trkpt lat="49.81162" lon="2.27439">
        <ele>116.9</ele>
        <time>2023-04-05T12:01:02Z</time>
      </trkpt>
      <trkpt lat="49.81162" lon="2.27439">
        <ele>116.9</ele>
        <time>2023-04-05T12:01:03Z</time>
      </trkpt>
      <trkpt lat="49.81163" lon="2.2744">
        <ele>116.9</ele>
        <time>2023-04-05T12:01:04Z</time>
      </trkpt>
      <trkpt lat="49.81163" lon="2.27441">
        <ele>116.9</ele>
        <time>2023-04-05T12:01:06Z</time>
      </trkpt>
      <trkpt lat="49.81164" lon="2.27442">
        <ele>117</ele>
        <time>2023-04-05T12:01:07Z</time>
      </trkpt>
      <trkpt lat="49.81165" lon="2.27442">
        <ele>117</ele>
        <time>2023-04-05T12:01:08Z</time>
      </trkpt>
      <trkpt lat="49.81166" lon="2.27443">
        <ele>117</ele>
        <time>2023-04-05T12:01:09Z</time>
      </trkpt>
      <trkpt lat="49.81167" lon="2.27444">
        <ele>117</ele>
        <time>2023-04-05T12:01:10Z</time>
      </trkpt>
      <trkpt lat="49.81169" lon="2.27445">
        <ele>117</ele>
        <time>2023-04-05T12:01:11Z</time>
      </trkpt>
      <trkpt lat="49.8117" lon="2.27446">
        <ele>117</ele>
        <time>2023-04-05T12:01:12Z</time>
      </trkpt>
      <trkpt lat="49.81171" lon="2.27446">
        <ele>117</ele>
        <time>2023-04-05T12:01:13Z</time>
      </trkpt>
      <trkpt lat="49.81172" lon="2.27447">
        <ele>117</ele>
        <time>2023-04-05T12:01:15Z</time>
      </trkpt>
      <trkpt lat="49.81173" lon="2.27447">
        <ele>117</ele>
        <time>2023-04-05T12:01:16Z</time>
      </trkpt>
      <trkpt lat="49.81174" lon="2.27448">
        <ele>117</ele>
        <time>2023-04-05T12:01:17Z</time>
      </trkpt>
      <trkpt lat="49.81175" lon="2.27448">
        <ele>117</ele>
        <time>2023-04-05T12:01:18Z</time>
      </trkpt>
      <trkpt lat="49.81176" lon="2.27448">
        <ele>117.1</ele>
        <time>2023-04-05T12:01:19Z</time>
      </trkpt>
      <trkpt lat="49.81177" lon="2.27449">
        <ele>117.1</ele>
        <time>2023-04-05T12:01:20Z</time>
      </trkpt>
      <trkpt lat="49.81179" lon="2.2745">
        <ele>117.1</ele>
        <time>2023-04-05T12:01:21Z</time>
      </trkpt>
      <trkpt lat="49.8118" lon="2.27451">
        <ele>117.1</ele>
        <time>2023-04-05T12:01:22Z</time>
      </trkpt>
      <trkpt lat="49.81183" lon="2.27453">
        <ele>117.1</ele>
        <time>2023-04-05T12:01:24Z</time>
      </trkpt>
      <trkpt lat="49.81184" lon="2.27453">
        <ele>117.1</ele>
        <time>2023-04-05T12:01:25Z</time>
      </trkpt>
      <trkpt lat="49.81185" lon="2.27454">
        <ele>117.1</ele>
        <time>2023-04-05T12:01:26Z</time>
      </trkpt>
      <trkpt lat="49.81186" lon="2.27454">
        <ele>117.1</ele>
        <time>2023-04-05T12:01:27Z</time>
      </trkpt>
      <trkpt lat="49.81187" lon="2.27453">
        <ele>117.1</ele>
        <time>2023-04-05T12:01:28Z</time>
      </trkpt>
      <trkpt lat="49.81188" lon="2.27454">
        <ele>117.1</ele>
        <time>2023-04-05T12:01:29Z</time>
      </trkpt>
      <trkpt lat="49.81189" lon="2.27454">
        <ele>117.2</ele>
        <time>2023-04-05T12:01:31Z</time>
      </trkpt>
      <trkpt lat="49.8119" lon="2.27455">
        <ele>117.2</ele>
        <time>2023-04-05T12:01:32Z</time>
      </trkpt>
      <trkpt lat="49.8119" lon="2.27455">
        <ele>117.2</ele>
        <time>2023-04-05T12:01:33Z</time>
      </trkpt>
      <trkpt lat="49.81191" lon="2.27455">
        <ele>117.2</ele>
        <time>2023-04-05T12:01:34Z</time>
      </trkpt>
      <trkpt lat="49.81192" lon="2.27456">
        <ele>117.2</ele>
        <time>2023-04-05T12:01:36Z</time>
      </trkpt>
      <trkpt lat="49.81192" lon="2.27456">
        <ele>117.2</ele>
        <time>2023-04-05T12:01:37Z</time>
      </trkpt>
      <trkpt lat="49.81193" lon="2.27456">
        <ele>117.2</ele>
        <time>2023-04-05T12:01:38Z</time>
      </trkpt>
      <trkpt lat="49.81193" lon="2.27456">
        <ele>117.2</ele>
        <time>2023-04-05T12:01:39Z</time>
      </trkpt>
      <trkpt lat="49.81194" lon="2.27457">
        <ele>117.2</ele>
        <time>2023-04-05T12:01:40Z</time>
      </trkpt>
      <trkpt lat="49.81196" lon="2.27457">
        <ele>117.2</ele>
        <time>2023-04-05T12:01:42Z</time>
      </trkpt>
      <trkpt lat="49.81196" lon="2.27457">
        <ele>117.2</ele>
        <time>2023-04-05T12:01:43Z</time>
      </trkpt>
      <trkpt lat="49.81197" lon="2.27457">
        <ele>117.2</ele>
        <time>2023-04-05T12:01:44Z</time>
      </trkpt>
      <trkpt lat="49.81198" lon="2.27456">
        <ele>117.2</ele>
        <time>2023-04-05T12:01:45Z</time>
      </trkpt>
      <trkpt lat="49.812" lon="2.27456">
        <ele>117.2</ele>
        <time>2023-04-05T12:01:46Z</time>
      </trkpt>
      <trkpt lat="49.81202" lon="2.27456">
        <ele>117.2</ele>
        <time>2023-04-05T12:01:48Z</time>
      </trkpt>
      <trkpt lat="49.81205" lon="2.27455">
        <ele>117.2</ele>
        <time>2023-04-05T12:01:49Z</time>
      </trkpt>
      <trkpt lat="49.81206" lon="2.27455">
        <ele>117.3</ele>
        <time>2023-04-05T12:01:50Z</time>
      </trkpt>
      <trkpt lat="49.81208" lon="2.27455">
        <ele>117.3</ele>
        <time>2023-04-05T12:01:51Z</time>
      </trkpt>
      <trkpt lat="49.81209" lon="2.27454">
        <ele>117.3</ele>
        <time>2023-04-05T12:01:52Z</time>
      </trkpt>
      <trkpt lat="49.81211" lon="2.27454">
        <ele>117.3</ele>
        <time>2023-04-05T12:01:54Z</time>
      </trkpt>
      <trkpt lat="49.81213" lon="2.27454">
        <ele>117.3</ele>
        <time>2023-04-05T12:01:55Z</time>
      </trkpt>
      <trkpt lat="49.81214" lon="2.27454">
        <ele>117.3</ele>
        <time>2023-04-05T12:01:56Z</time>
      </trkpt>
      <trkpt lat="49.81216" lon="2.27454">
        <ele>117.3</ele>
        <time>2023-04-05T12:01:57Z</time>
      </trkpt>
      <trkpt lat="49.81217" lon="2.27454">
        <ele>117.3</ele>
        <time>2023-04-05T12:01:58Z</time>
      </trkpt>
      <trkpt lat="49.81219" lon="2.27455">
        <ele>117.3</ele>
        <time>2023-04-05T12:01:59Z</time>
      </trkpt>
      <trkpt lat="49.8122" lon="2.27455">
        <ele>117.3</ele>
        <time>2023-04-05T12:02:00Z</time>
      </trkpt>
      <trkpt lat="49.81221" lon="2.27454">
        <ele>117.4</ele>
        <time>2023-04-05T12:02:01Z</time>
      </trkpt>
      <trkpt lat="49.81222" lon="2.27454">
        <ele>117.4</ele>
        <time>2023-04-05T12:02:02Z</time>
      </trkpt>
      <trkpt lat="49.81223" lon="2.27454">
        <ele>117.4</ele>
        <time>2023-04-05T12:02:04Z</time>
      </trkpt>
      <trkpt lat="49.81225" lon="2.27453">
        <ele>117.4</ele>
        <time>2023-04-05T12:02:05Z</time>
      </trkpt>
      <trkpt lat="49.81226" lon="2.27452">
        <ele>117.4</ele>
        <time>2023-04-05T12:02:06Z</time>
      </trkpt>
      <trkpt lat="49.81227" lon="2.27451">
        <ele>117.4</ele>
        <time>2023-04-05T12:02:07Z</time>
      </trkpt>
      <trkpt lat="49.81229" lon="2.2745">
        <ele>117.4</ele>
        <time>2023-04-05T12:02:08Z</time>
      </trkpt>
      <trkpt lat="49.8123" lon="2.2745">
        <ele>117.4</ele>
        <time>2023-04-05T12:02:10Z</time>
      </trkpt>
      <trkpt lat="49.81231" lon="2.27449">
        <ele>117.4</ele>
        <time>2023-04-05T12:02:11Z</time>
      </trkpt>
      <trkpt lat="49.81232" lon="2.27449">
        <ele>117.4</ele>
        <time>2023-04-05T12:02:12Z</time>
      </trkpt>
      <trkpt lat="49.81234" lon="2.27447">
        <ele>117.4</ele>
        <time>2023-04-05T12:02:13Z</time>
      </trkpt>
      <trkpt lat="49.81234" lon="2.27447">
        <ele>117.4</ele>
        <time>2023-04-05T12:02:14Z</time>
      </trkpt>
      <trkpt lat="49.81235" lon="2.27446">
        <ele>117.4</ele>
        <time>2023-04-05T12:02:15Z</time>
      </trkpt>
      <trkpt lat="49.81237" lon="2.27444">
        <ele>117.4</ele>
        <time>2023-04-05T12:02:17Z</time>
      </trkpt>
      <trkpt lat="49.81238" lon="2.27443">
        <ele>117.4</ele>
        <time>2023-04-05T12:02:18Z</time>
      </trkpt>
      <trkpt lat="49.81239" lon="2.27441">
        <ele>117.4</ele>
        <time>2023-04-05T12:02:19Z</time>
      </trkpt>
      <trkpt lat="49.81239" lon="2.2744">
        <ele>117.4</ele>
        <time>2023-04-05T12:02:20Z</time>
      </trkpt>
      <trkpt lat="49.8124" lon="2.27439">
        <ele>117.5</ele>
        <time>2023-04-05T12:02:21Z</time>
      </trkpt>
      <trkpt lat="49.81241" lon="2.27438">
        <ele>117.5</ele>
        <time>2023-04-05T12:02:22Z</time>
      </trkpt>
      <trkpt lat="49.81242" lon="2.27436">
        <ele>117.5</ele>
        <time>2023-04-05T12:02:24Z</time>
      </trkpt>
      <trkpt lat="49.81243" lon="2.27435">
        <ele>117.5</ele>
        <time>2023-04-05T12:02:25Z</time>
      </trkpt>
      <trkpt lat="49.81244" lon="2.27434">
        <ele>117.5</ele>
        <time>2023-04-05T12:02:26Z</time>
      </trkpt>
      <trkpt lat="49.81245" lon="2.27432">
        <ele>117.5</ele>
        <time>2023-04-05T12:02:27Z</time>
      </trkpt>
      <trkpt lat="49.81246" lon="2.27431">
        <ele>117.5</ele>
        <time>2023-04-05T12:02:28Z</time>
      </trkpt>
      <trkpt lat="49.81247" lon="2.2743">
        <ele>117.5</ele>
        <time>2023-04-05T12:02:29Z</time>
      </trkpt>
      <trkpt lat="49.81248" lon="2.27429">
        <ele>117.5</ele>
        <time>2023-04-05T12:02:30Z</time>
      </trkpt>
      <trkpt lat="49.81249" lon="2.27427">
        <ele>117.5</ele>
        <time>2023-04-05T12:02:32Z</time>
      </trkpt>
      <trkpt lat="49.81251" lon="2.27426">
        <ele>117.5</ele>
        <time>2023-04-05T12:02:33Z</time>
      </trkpt>
      <trkpt lat="49.81252" lon="2.27424">
        <ele>117.5</ele>
        <time>2023-04-05T12:02:34Z</time>
      </trkpt>
      <trkpt lat="49.81253" lon="2.27423">
        <ele>117.5</ele>
        <time>2023-04-05T12:02:35Z</time>
      </trkpt>
      <trkpt lat="49.81254" lon="2.27421">
        <ele>117.5</ele>
        <time>2023-04-05T12:02:36Z</time>
      </trkpt>
      <trkpt lat="49.81255" lon="2.2742">
        <ele>117.5</ele>
        <time>2023-04-05T12:02:37Z</time>
      </trkpt>
      <trkpt lat="49.81257" lon="2.27419">
        <ele>117.5</ele>
        <time>2023-04-05T12:02:39Z</time>
      </trkpt>
      <trkpt lat="49.81258" lon="2.27418">
        <ele>117.5</ele>
        <time>2023-04-05T12:02:40Z</time>
      </trkpt>
      <trkpt lat="49.81259" lon="2.27417">
        <ele>117.5</ele>
        <time>2023-04-05T12:02:41Z</time>
      </trkpt>
      <trkpt lat="49.81261" lon="2.27415">
        <ele>117.5</ele>
        <time>2023-04-05T12:02:42Z</time>
      </trkpt>
      <trkpt lat="49.81262" lon="2.27414">
        <ele>117.5</ele>
        <time>2023-04-05T12:02:43Z</time>
      </trkpt>
      <trkpt lat="49.81262" lon="2.27413">
        <ele>117.5</ele>
        <time>2023-04-05T12:02:44Z</time>
      </trkpt>
      <trkpt lat="49.81265" lon="2.2741">
        <ele>117.6</ele>
        <time>2023-04-05T12:02:45Z</time>
      </trkpt>
      <trkpt lat="49.81265" lon="2.27409">
        <ele>117.6</ele>
        <time>2023-04-05T12:02:47Z</time>
      </trkpt>
      <trkpt lat="49.81266" lon="2.27408">
        <ele>117.6</ele>
        <time>2023-04-05T12:02:48Z</time>
      </trkpt>
      <trkpt lat="49.81267" lon="2.27407">
        <ele>117.6</ele>
        <time>2023-04-05T12:02:49Z</time>
      </trkpt>
      <trkpt lat="49.81267" lon="2.27406">
        <ele>117.6</ele>
        <time>2023-04-05T12:02:50Z</time>
      </trkpt>
      <trkpt lat="49.81269" lon="2.27404">
        <ele>117.6</ele>
        <time>2023-04-05T12:02:51Z</time>
      </trkpt>
      <trkpt lat="49.81269" lon="2.27403">
        <ele>117.6</ele>
        <time>2023-04-05T12:02:52Z</time>
      </trkpt>
      <trkpt lat="49.8127" lon="2.27402">
        <ele>117.6</ele>
        <time>2023-04-05T12:02:53Z</time>
      </trkpt>
      <trkpt lat="49.81272" lon="2.274">
        <ele>117.6</ele>
        <time>2023-04-05T12:02:55Z</time>
      </trkpt>
      <trkpt lat="49.81272" lon="2.27399">
        <ele>117.6</ele>
        <time>2023-04-05T12:02:56Z</time>
      </trkpt>
      <trkpt lat="49.81273" lon="2.27398">
        <ele>117.6</ele>
        <time>2023-04-05T12:02:57Z</time>
      </trkpt>
      <trkpt lat="49.81274" lon="2.27396">
        <ele>117.6</ele>
        <time>2023-04-05T12:02:58Z</time>
      </trkpt>
      <trkpt lat="49.81275" lon="2.27395">
        <ele>117.6</ele>
        <time>2023-04-05T12:03:00Z</time>
      </trkpt>
      <trkpt lat="49.81276" lon="2.27394">
        <ele>117.6</ele>
        <time>2023-04-05T12:03:01Z</time>
      </trkpt>
      <trkpt lat="49.81277" lon="2.27392">
        <ele>117.6</ele>
        <time>2023-04-05T12:03:02Z</time>
      </trkpt>
      <trkpt lat="49.81278" lon="2.27391">
        <ele>117.6</ele>
        <time>2023-04-05T12:03:03Z</time>
      </trkpt>
      <trkpt lat="49.8128" lon="2.27389">
        <ele>117.6</ele>
        <time>2023-04-05T12:03:04Z</time>
      </trkpt>
      <trkpt lat="49.8128" lon="2.27388">
        <ele>117.6</ele>
        <time>2023-04-05T12:03:05Z</time>
      </trkpt>
      <trkpt lat="49.81281" lon="2.27387">
        <ele>117.6</ele>
        <time>2023-04-05T12:03:06Z</time>
      </trkpt>
      <trkpt lat="49.81283" lon="2.27385">
        <ele>117.6</ele>
        <time>2023-04-05T12:03:07Z</time>
      </trkpt>
      <trkpt lat="49.81283" lon="2.27384">
        <ele>117.5</ele>
        <time>2023-04-05T12:03:08Z</time>
      </trkpt>
      <trkpt lat="49.81284" lon="2.27384">
        <ele>117.5</ele>
        <time>2023-04-05T12:03:09Z</time>
      </trkpt>
      <trkpt lat="49.81285" lon="2.27382">
        <ele>117.5</ele>
        <time>2023-04-05T12:03:11Z</time>
      </trkpt>
      <trkpt lat="49.81286" lon="2.27381">
        <ele>117.5</ele>
        <time>2023-04-05T12:03:12Z</time>
      </trkpt>
      <trkpt lat="49.81286" lon="2.2738">
        <ele>117.5</ele>
        <time>2023-04-05T12:03:13Z</time>
      </trkpt>
      <trkpt lat="49.81288" lon="2.27378">
        <ele>117.5</ele>
        <time>2023-04-05T12:03:14Z</time>
      </trkpt>
      <trkpt lat="49.81289" lon="2.27377">
        <ele>117.5</ele>
        <time>2023-04-05T12:03:15Z</time>
      </trkpt>
      <trkpt lat="49.81289" lon="2.27376">
        <ele>117.5</ele>
        <time>2023-04-05T12:03:16Z</time>
      </trkpt>
      <trkpt lat="49.8129" lon="2.27375">
        <ele>117.5</ele>
        <time>2023-04-05T12:03:17Z</time>
      </trkpt>
      <trkpt lat="49.81291" lon="2.27374">
        <ele>117.5</ele>
        <time>2023-04-05T12:03:18Z</time>
      </trkpt>
      <trkpt lat="49.81292" lon="2.27373">
        <ele>117.5</ele>
        <time>2023-04-05T12:03:19Z</time>
      </trkpt>
      <trkpt lat="49.81293" lon="2.27371">
        <ele>117.4</ele>
        <time>2023-04-05T12:03:21Z</time>
      </trkpt>
      <trkpt lat="49.81294" lon="2.27369">
        <ele>117.4</ele>
        <time>2023-04-05T12:03:22Z</time>
      </trkpt>
      <trkpt lat="49.81295" lon="2.27367">
        <ele>117.4</ele>
        <time>2023-04-05T12:03:23Z</time>
      </trkpt>
      <trkpt lat="49.81296" lon="2.27366">
        <ele>117.4</ele>
        <time>2023-04-05T12:03:24Z</time>
      </trkpt>
      <trkpt lat="49.81297" lon="2.27364">
        <ele>117.4</ele>
        <time>2023-04-05T12:03:25Z</time>
      </trkpt>
      <trkpt lat="49.81298" lon="2.27362">
        <ele>117.4</ele>
        <time>2023-04-05T12:03:27Z</time>
      </trkpt>
      <trkpt lat="49.81299" lon="2.27362">
        <ele>117.4</ele>
        <time>2023-04-05T12:03:28Z</time>
      </trkpt>
      <trkpt lat="49.813" lon="2.2736">
        <ele>117.3</ele>
        <time>2023-04-05T12:03:29Z</time>
      </trkpt>
      <trkpt lat="49.81301" lon="2.27359">
        <ele>117.3</ele>
        <time>2023-04-05T12:03:30Z</time>
      </trkpt>
      <trkpt lat="49.81303" lon="2.27356">
        <ele>117.3</ele>
        <time>2023-04-05T12:03:31Z</time>
      </trkpt>
      <trkpt lat="49.81303" lon="2.27356">
        <ele>117.3</ele>
        <time>2023-04-05T12:03:32Z</time>
      </trkpt>
      <trkpt lat="49.81304" lon="2.27355">
        <ele>117.3</ele>
        <time>2023-04-05T12:03:33Z</time>
      </trkpt>
      <trkpt lat="49.81304" lon="2.27353">
        <ele>117.3</ele>
        <time>2023-04-05T12:03:34Z</time>
      </trkpt>
      <trkpt lat="49.81305" lon="2.27352">
        <ele>117.3</ele>
        <time>2023-04-05T12:03:36Z</time>
      </trkpt>
      <trkpt lat="49.81306" lon="2.27351">
        <ele>117.3</ele>
        <time>2023-04-05T12:03:37Z</time>
      </trkpt>
      <trkpt lat="49.81306" lon="2.2735">
        <ele>117.2</ele>
        <time>2023-04-05T12:03:38Z</time>
      </trkpt>
      <trkpt lat="49.81307" lon="2.27348">
        <ele>117.2</ele>
        <time>2023-04-05T12:03:39Z</time>
      </trkpt>
      <trkpt lat="49.81308" lon="2.27347">
        <ele>117.2</ele>
        <time>2023-04-05T12:03:40Z</time>
      </trkpt>
      <trkpt lat="49.81309" lon="2.27345">
        <ele>117.2</ele>
        <time>2023-04-05T12:03:41Z</time>
      </trkpt>
      <trkpt lat="49.8131" lon="2.27344">
        <ele>117.2</ele>
        <time>2023-04-05T12:03:42Z</time>
      </trkpt>
      <trkpt lat="49.81311" lon="2.27342">
        <ele>117.2</ele>
        <time>2023-04-05T12:03:44Z</time>
      </trkpt>
      <trkpt lat="49.81312" lon="2.2734">
        <ele>117.2</ele>
        <time>2023-04-05T12:03:45Z</time>
      </trkpt>
      <trkpt lat="49.81313" lon="2.27339">
        <ele>117.2</ele>
        <time>2023-04-05T12:03:46Z</time>
      </trkpt>
      <trkpt lat="49.81314" lon="2.27338">
        <ele>117.2</ele>
        <time>2023-04-05T12:03:47Z</time>
      </trkpt>
      <trkpt lat="49.81315" lon="2.27337">
        <ele>117.2</ele>
        <time>2023-04-05T12:03:48Z</time>
      </trkpt>
      <trkpt lat="49.81316" lon="2.27336">
        <ele>117.2</ele>
        <time>2023-04-05T12:03:49Z</time>
      </trkpt>
      <trkpt lat="49.81316" lon="2.27335">
        <ele>117.1</ele>
        <time>2023-04-05T12:03:51Z</time>
      </trkpt>
      <trkpt lat="49.81317" lon="2.27333">
        <ele>117.1</ele>
        <time>2023-04-05T12:03:52Z</time>
      </trkpt>
      <trkpt lat="49.81318" lon="2.27332">
        <ele>117.1</ele>
        <time>2023-04-05T12:03:53Z</time>
      </trkpt>
      <trkpt lat="49.81319" lon="2.2733">
        <ele>117.1</ele>
        <time>2023-04-05T12:03:54Z</time>
      </trkpt>
      <trkpt lat="49.8132" lon="2.27329">
        <ele>117.1</ele>
        <time>2023-04-05T12:03:55Z</time>
      </trkpt>
      <trkpt lat="49.81321" lon="2.27328">
        <ele>117.1</ele>
        <time>2023-04-05T12:03:56Z</time>
      </trkpt>
      <trkpt lat="49.81321" lon="2.27327">
        <ele>117.1</ele>
        <time>2023-04-05T12:03:57Z</time>
      </trkpt>
      <trkpt lat="49.81322" lon="2.27325">
        <ele>117.1</ele>
        <time>2023-04-05T12:03:58Z</time>
      </trkpt>
      <trkpt lat="49.81323" lon="2.27324">
        <ele>117.1</ele>
        <time>2023-04-05T12:03:59Z</time>
      </trkpt>
      <trkpt lat="49.81324" lon="2.27323">
        <ele>117.1</ele>
        <time>2023-04-05T12:04:00Z</time>
      </trkpt>
      <trkpt lat="49.81325" lon="2.27322">
        <ele>117</ele>
        <time>2023-04-05T12:04:01Z</time>
      </trkpt>
      <trkpt lat="49.81328" lon="2.27319">
        <ele>117</ele>
        <time>2023-04-05T12:04:03Z</time>
      </trkpt>
      <trkpt lat="49.81329" lon="2.27318">
        <ele>117</ele>
        <time>2023-04-05T12:04:05Z</time>
      </trkpt>
      <trkpt lat="49.81329" lon="2.27317">
        <ele>117</ele>
        <time>2023-04-05T12:04:06Z</time>
      </trkpt>
      <trkpt lat="49.81331" lon="2.27315">
        <ele>117</ele>
        <time>2023-04-05T12:04:07Z</time>
      </trkpt>
      <trkpt lat="49.81332" lon="2.27314">
        <ele>116.9</ele>
        <time>2023-04-05T12:04:08Z</time>
      </trkpt>
      <trkpt lat="49.81333" lon="2.27312">
        <ele>116.9</ele>
        <time>2023-04-05T12:04:09Z</time>
      </trkpt>
      <trkpt lat="49.81334" lon="2.2731">
        <ele>116.9</ele>
        <time>2023-04-05T12:04:10Z</time>
      </trkpt>
      <trkpt lat="49.81335" lon="2.27309">
        <ele>116.9</ele>
        <time>2023-04-05T12:04:11Z</time>
      </trkpt>
      <trkpt lat="49.81336" lon="2.27308">
        <ele>116.9</ele>
        <time>2023-04-05T12:04:13Z</time>
      </trkpt>
      <trkpt lat="49.81337" lon="2.27307">
        <ele>116.9</ele>
        <time>2023-04-05T12:04:14Z</time>
      </trkpt>
      <trkpt lat="49.81338" lon="2.27306">
        <ele>116.8</ele>
        <time>2023-04-05T12:04:15Z</time>
      </trkpt>
      <trkpt lat="49.81339" lon="2.27305">
        <ele>116.8</ele>
        <time>2023-04-05T12:04:16Z</time>
      </trkpt>
      <trkpt lat="49.81341" lon="2.27302">
        <ele>116.8</ele>
        <time>2023-04-05T12:04:17Z</time>
      </trkpt>
      <trkpt lat="49.81342" lon="2.27301">
        <ele>116.8</ele>
        <time>2023-04-05T12:04:18Z</time>
      </trkpt>
      <trkpt lat="49.81342" lon="2.273">
        <ele>116.8</ele>
        <time>2023-04-05T12:04:19Z</time>
      </trkpt>
      <trkpt lat="49.81343" lon="2.27299">
        <ele>116.8</ele>
        <time>2023-04-05T12:04:21Z</time>
      </trkpt>
      <trkpt lat="49.81344" lon="2.27298">
        <ele>116.8</ele>
        <time>2023-04-05T12:04:22Z</time>
      </trkpt>
      <trkpt lat="49.81345" lon="2.27297">
        <ele>116.7</ele>
        <time>2023-04-05T12:04:23Z</time>
      </trkpt>
      <trkpt lat="49.81347" lon="2.27295">
        <ele>116.7</ele>
        <time>2023-04-05T12:04:24Z</time>
      </trkpt>
      <trkpt lat="49.81347" lon="2.27294">
        <ele>116.7</ele>
        <time>2023-04-05T12:04:25Z</time>
      </trkpt>
      <trkpt lat="49.81348" lon="2.27293">
        <ele>116.7</ele>
        <time>2023-04-05T12:04:26Z</time>
      </trkpt>
      <trkpt lat="49.81349" lon="2.27291">
        <ele>116.7</ele>
        <time>2023-04-05T12:04:28Z</time>
      </trkpt>
      <trkpt lat="49.8135" lon="2.2729">
        <ele>116.7</ele>
        <time>2023-04-05T12:04:29Z</time>
      </trkpt>
      <trkpt lat="49.81351" lon="2.27289">
        <ele>116.7</ele>
        <time>2023-04-05T12:04:30Z</time>
      </trkpt>
      <trkpt lat="49.81352" lon="2.27288">
        <ele>116.6</ele>
        <time>2023-04-05T12:04:31Z</time>
      </trkpt>
      <trkpt lat="49.81353" lon="2.27287">
        <ele>116.6</ele>
        <time>2023-04-05T12:04:32Z</time>
      </trkpt>
      <trkpt lat="49.81354" lon="2.27284">
        <ele>116.6</ele>
        <time>2023-04-05T12:04:33Z</time>
      </trkpt>
      <trkpt lat="49.81356" lon="2.27282">
        <ele>116.6</ele>
        <time>2023-04-05T12:04:34Z</time>
      </trkpt>
      <trkpt lat="49.81356" lon="2.27281">
        <ele>116.6</ele>
        <time>2023-04-05T12:04:35Z</time>
      </trkpt>
      <trkpt lat="49.81357" lon="2.2728">
        <ele>116.6</ele>
        <time>2023-04-05T12:04:36Z</time>
      </trkpt>
      <trkpt lat="49.81358" lon="2.27279">
        <ele>116.6</ele>
        <time>2023-04-05T12:04:37Z</time>
      </trkpt>
      <trkpt lat="49.81359" lon="2.27277">
        <ele>116.5</ele>
        <time>2023-04-05T12:04:38Z</time>
      </trkpt>
      <trkpt lat="49.8136" lon="2.27276">
        <ele>116.5</ele>
        <time>2023-04-05T12:04:39Z</time>
      </trkpt>
      <trkpt lat="49.81362" lon="2.27273">
        <ele>116.5</ele>
        <time>2023-04-05T12:04:41Z</time>
      </trkpt>
      <trkpt lat="49.81363" lon="2.2727">
        <ele>116.5</ele>
        <time>2023-04-05T12:04:43Z</time>
      </trkpt>
      <trkpt lat="49.81364" lon="2.27269">
        <ele>116.5</ele>
        <time>2023-04-05T12:04:44Z</time>
      </trkpt>
      <trkpt lat="49.81364" lon="2.27268">
        <ele>116.5</ele>
        <time>2023-04-05T12:04:45Z</time>
      </trkpt>
      <trkpt lat="49.81365" lon="2.27266">
        <ele>116.5</ele>
        <time>2023-04-05T12:04:46Z</time>
      </trkpt>
      <trkpt lat="49.81366" lon="2.27265">
        <ele>116.5</ele>
        <time>2023-04-05T12:04:47Z</time>
      </trkpt>
      <trkpt lat="49.81367" lon="2.27263">
        <ele>116.5</ele>
        <time>2023-04-05T12:04:48Z</time>
      </trkpt>
      <trkpt lat="49.81368" lon="2.27261">
        <ele>116.5</ele>
        <time>2023-04-05T12:04:49Z</time>
      </trkpt>
      <trkpt lat="49.8137" lon="2.27259">
        <ele>116.5</ele>
        <time>2023-04-05T12:04:50Z</time>
      </trkpt>
      <trkpt lat="49.8137" lon="2.27258">
        <ele>116.5</ele>
        <time>2023-04-05T12:04:52Z</time>
      </trkpt>
      <trkpt lat="49.81371" lon="2.27257">
        <ele>116.5</ele>
        <time>2023-04-05T12:04:53Z</time>
      </trkpt>
      <trkpt lat="49.81373" lon="2.27255">
        <ele>116.5</ele>
        <time>2023-04-05T12:04:54Z</time>
      </trkpt>
      <trkpt lat="49.81373" lon="2.27254">
        <ele>116.4</ele>
        <time>2023-04-05T12:04:55Z</time>
      </trkpt>
      <trkpt lat="49.81375" lon="2.27253">
        <ele>116.4</ele>
        <time>2023-04-05T12:04:56Z</time>
      </trkpt>
      <trkpt lat="49.81375" lon="2.27251">
        <ele>116.4</ele>
        <time>2023-04-05T12:04:57Z</time>
      </trkpt>
      <trkpt lat="49.81377" lon="2.27249">
        <ele>116.4</ele>
        <time>2023-04-05T12:04:59Z</time>
      </trkpt>
      <trkpt lat="49.81377" lon="2.27248">
        <ele>116.4</ele>
        <time>2023-04-05T12:05:00Z</time>
      </trkpt>
      <trkpt lat="49.81379" lon="2.27246">
        <ele>116.4</ele>
        <time>2023-04-05T12:05:01Z</time>
      </trkpt>
      <trkpt lat="49.81379" lon="2.27245">
        <ele>116.4</ele>
        <time>2023-04-05T12:05:02Z</time>
      </trkpt>
      <trkpt lat="49.8138" lon="2.27243">
        <ele>116.4</ele>
        <time>2023-04-05T12:05:03Z</time>
      </trkpt>
      <trkpt lat="49.81381" lon="2.27242">
        <ele>116.4</ele>
        <time>2023-04-05T12:05:04Z</time>
      </trkpt>
      <trkpt lat="49.81382" lon="2.27241">
        <ele>116.4</ele>
        <time>2023-04-05T12:05:05Z</time>
      </trkpt>
      <trkpt lat="49.81383" lon="2.27239">
        <ele>116.4</ele>
        <time>2023-04-05T12:05:07Z</time>
      </trkpt>
      <trkpt lat="49.81384" lon="2.27238">
        <ele>116.4</ele>
        <time>2023-04-05T12:05:08Z</time>
      </trkpt>
      <trkpt lat="49.81385" lon="2.27236">
        <ele>116.4</ele>
        <time>2023-04-05T12:05:09Z</time>
      </trkpt>
      <trkpt lat="49.81386" lon="2.27233">
        <ele>116.4</ele>
        <time>2023-04-05T12:05:10Z</time>
      </trkpt>
      <trkpt lat="49.81387" lon="2.27232">
        <ele>116.4</ele>
        <time>2023-04-05T12:05:11Z</time>
      </trkpt>
      <trkpt lat="49.81387" lon="2.27231">
        <ele>116.4</ele>
        <time>2023-04-05T12:05:12Z</time>
      </trkpt>
      <trkpt lat="49.81388" lon="2.27229">
        <ele>116.4</ele>
        <time>2023-04-05T12:05:13Z</time>
      </trkpt>
      <trkpt lat="49.81388" lon="2.27228">
        <ele>116.4</ele>
        <time>2023-04-05T12:05:14Z</time>
      </trkpt>
      <trkpt lat="49.81388" lon="2.27226">
        <ele>116.4</ele>
        <time>2023-04-05T12:05:15Z</time>
      </trkpt>
      <trkpt lat="49.8139" lon="2.27222">
        <ele>116.3</ele>
        <time>2023-04-05T12:05:17Z</time>
      </trkpt>
      <trkpt lat="49.8139" lon="2.2722">
        <ele>116.3</ele>
        <time>2023-04-05T12:05:18Z</time>
      </trkpt>
      <trkpt lat="49.81391" lon="2.27217">
        <ele>116.3</ele>
        <time>2023-04-05T12:05:19Z</time>
      </trkpt>
      <trkpt lat="49.81391" lon="2.27216">
        <ele>116.3</ele>
        <time>2023-04-05T12:05:21Z</time>
      </trkpt>
      <trkpt lat="49.81392" lon="2.27214">
        <ele>116.3</ele>
        <time>2023-04-05T12:05:22Z</time>
      </trkpt>
      <trkpt lat="49.81393" lon="2.27211">
        <ele>116.3</ele>
        <time>2023-04-05T12:05:23Z</time>
      </trkpt>
      <trkpt lat="49.81394" lon="2.2721">
        <ele>116.3</ele>
        <time>2023-04-05T12:05:25Z</time>
      </trkpt>
      <trkpt lat="49.81394" lon="2.2721">
        <ele>116.3</ele>
        <time>2023-04-05T12:05:26Z</time>
      </trkpt>
      <trkpt lat="49.81394" lon="2.27208">
        <ele>116.3</ele>
        <time>2023-04-05T12:05:27Z</time>
      </trkpt>
      <trkpt lat="49.81395" lon="2.27205">
        <ele>116.3</ele>
        <time>2023-04-05T12:05:28Z</time>
      </trkpt>
      <trkpt lat="49.81395" lon="2.27204">
        <ele>116.3</ele>
        <time>2023-04-05T12:05:29Z</time>
      </trkpt>
      <trkpt lat="49.81395" lon="2.27202">
        <ele>116.3</ele>
        <time>2023-04-05T12:05:30Z</time>
      </trkpt>
      <trkpt lat="49.81396" lon="2.272">
        <ele>116.3</ele>
        <time>2023-04-05T12:05:32Z</time>
      </trkpt>
      <trkpt lat="49.81397" lon="2.27199">
        <ele>116.3</ele>
        <time>2023-04-05T12:05:33Z</time>
      </trkpt>
      <trkpt lat="49.81398" lon="2.27197">
        <ele>116.3</ele>
        <time>2023-04-05T12:05:34Z</time>
      </trkpt>
      <trkpt lat="49.81399" lon="2.27194">
        <ele>116.3</ele>
        <time>2023-04-05T12:05:35Z</time>
      </trkpt>
      <trkpt lat="49.81399" lon="2.27193">
        <ele>116.2</ele>
        <time>2023-04-05T12:05:36Z</time>
      </trkpt>
      <trkpt lat="49.814" lon="2.27192">
        <ele>116.2</ele>
        <time>2023-04-05T12:05:37Z</time>
      </trkpt>
      <trkpt lat="49.81401" lon="2.27189">
        <ele>116.2</ele>
        <time>2023-04-05T12:05:38Z</time>
      </trkpt>
      <trkpt lat="49.81401" lon="2.27188">
        <ele>116.2</ele>
        <time>2023-04-05T12:05:39Z</time>
      </trkpt>
      <trkpt lat="49.81402" lon="2.27186">
        <ele>116.2</ele>
        <time>2023-04-05T12:05:40Z</time>
      </trkpt>
      <trkpt lat="49.81403" lon="2.27184">
        <ele>116.2</ele>
        <time>2023-04-05T12:05:41Z</time>
      </trkpt>
      <trkpt lat="49.81404" lon="2.27181">
        <ele>116.2</ele>
        <time>2023-04-05T12:05:42Z</time>
      </trkpt>
      <trkpt lat="49.81404" lon="2.2718">
        <ele>116.2</ele>
        <time>2023-04-05T12:05:44Z</time>
      </trkpt>
      <trkpt lat="49.81405" lon="2.27179">
        <ele>116.2</ele>
        <time>2023-04-05T12:05:45Z</time>
      </trkpt>
      <trkpt lat="49.81406" lon="2.27176">
        <ele>116.2</ele>
        <time>2023-04-05T12:05:46Z</time>
      </trkpt>
      <trkpt lat="49.81407" lon="2.27175">
        <ele>116.2</ele>
        <time>2023-04-05T12:05:47Z</time>
      </trkpt>
      <trkpt lat="49.81407" lon="2.27173">
        <ele>116.2</ele>
        <time>2023-04-05T12:05:48Z</time>
      </trkpt>
      <trkpt lat="49.81408" lon="2.27172">
        <ele>116.2</ele>
        <time>2023-04-05T12:05:50Z</time>
      </trkpt>
      <trkpt lat="49.81408" lon="2.27171">
        <ele>116.2</ele>
        <time>2023-04-05T12:05:51Z</time>
      </trkpt>
      <trkpt lat="49.81409" lon="2.27169">
        <ele>116.2</ele>
        <time>2023-04-05T12:05:52Z</time>
      </trkpt>
      <trkpt lat="49.8141" lon="2.27167">
        <ele>116.2</ele>
        <time>2023-04-05T12:05:53Z</time>
      </trkpt>
      <trkpt lat="49.8141" lon="2.27166">
        <ele>116.2</ele>
        <time>2023-04-05T12:05:54Z</time>
      </trkpt>
      <trkpt lat="49.81411" lon="2.27165">
        <ele>116.2</ele>
        <time>2023-04-05T12:05:55Z</time>
      </trkpt>
      <trkpt lat="49.81412" lon="2.27162">
        <ele>116.2</ele>
        <time>2023-04-05T12:05:56Z</time>
      </trkpt>
      <trkpt lat="49.81412" lon="2.2716">
        <ele>116.2</ele>
        <time>2023-04-05T12:05:57Z</time>
      </trkpt>
      <trkpt lat="49.81414" lon="2.27157">
        <ele>116.2</ele>
        <time>2023-04-05T12:05:59Z</time>
      </trkpt>
      <trkpt lat="49.81414" lon="2.27156">
        <ele>116.2</ele>
        <time>2023-04-05T12:06:00Z</time>
      </trkpt>
      <trkpt lat="49.81415" lon="2.27155">
        <ele>116.2</ele>
        <time>2023-04-05T12:06:01Z</time>
      </trkpt>
      <trkpt lat="49.81415" lon="2.27153">
        <ele>116.2</ele>
        <time>2023-04-05T12:06:02Z</time>
      </trkpt>
      <trkpt lat="49.81416" lon="2.27152">
        <ele>116.2</ele>
        <time>2023-04-05T12:06:03Z</time>
      </trkpt>
      <trkpt lat="49.81416" lon="2.2715">
        <ele>116.2</ele>
        <time>2023-04-05T12:06:04Z</time>
      </trkpt>
      <trkpt lat="49.81417" lon="2.27148">
        <ele>116.1</ele>
        <time>2023-04-05T12:06:05Z</time>
      </trkpt>
      <trkpt lat="49.81417" lon="2.27146">
        <ele>116.1</ele>
        <time>2023-04-05T12:06:06Z</time>
      </trkpt>
      <trkpt lat="49.81418" lon="2.27145">
        <ele>116.1</ele>
        <time>2023-04-05T12:06:07Z</time>
      </trkpt>
      <trkpt lat="49.81418" lon="2.27144">
        <ele>116.1</ele>
        <time>2023-04-05T12:06:08Z</time>
      </trkpt>
      <trkpt lat="49.81418" lon="2.27142">
        <ele>116.1</ele>
        <time>2023-04-05T12:06:09Z</time>
      </trkpt>
      <trkpt lat="49.81419" lon="2.2714">
        <ele>116.1</ele>
        <time>2023-04-05T12:06:10Z</time>
      </trkpt>
      <trkpt lat="49.81419" lon="2.27138">
        <ele>116.1</ele>
        <time>2023-04-05T12:06:11Z</time>
      </trkpt>
      <trkpt lat="49.8142" lon="2.27137">
        <ele>116.1</ele>
        <time>2023-04-05T12:06:13Z</time>
      </trkpt>
      <trkpt lat="49.8142" lon="2.27136">
        <ele>116.1</ele>
        <time>2023-04-05T12:06:14Z</time>
      </trkpt>
      <trkpt lat="49.8142" lon="2.27135">
        <ele>116.1</ele>
        <time>2023-04-05T12:06:15Z</time>
      </trkpt>
      <trkpt lat="49.81421" lon="2.27133">
        <ele>116.1</ele>
        <time>2023-04-05T12:06:16Z</time>
      </trkpt>
      <trkpt lat="49.81422" lon="2.27131">
        <ele>116.1</ele>
        <time>2023-04-05T12:06:17Z</time>
      </trkpt>
      <trkpt lat="49.81423" lon="2.27129">
        <ele>116.1</ele>
        <time>2023-04-05T12:06:18Z</time>
      </trkpt>
      <trkpt lat="49.81423" lon="2.27127">
        <ele>116.1</ele>
        <time>2023-04-05T12:06:19Z</time>
      </trkpt>
      <trkpt lat="49.81425" lon="2.27124">
        <ele>116.1</ele>
        <time>2023-04-05T12:06:21Z</time>
      </trkpt>
      <trkpt lat="49.81425" lon="2.27123">
        <ele>116</ele>
        <time>2023-04-05T12:06:22Z</time>
      </trkpt>
      <trkpt lat="49.81426" lon="2.27121">
        <ele>116</ele>
        <time>2023-04-05T12:06:23Z</time>
      </trkpt>
      <trkpt lat="49.81427" lon="2.27118">
        <ele>116</ele>
        <time>2023-04-05T12:06:24Z</time>
      </trkpt>
      <trkpt lat="49.81427" lon="2.27117">
        <ele>116</ele>
        <time>2023-04-05T12:06:25Z</time>
      </trkpt>
      <trkpt lat="49.81428" lon="2.27116">
        <ele>116</ele>
        <time>2023-04-05T12:06:26Z</time>
      </trkpt>
      <trkpt lat="49.81428" lon="2.27114">
        <ele>116</ele>
        <time>2023-04-05T12:06:28Z</time>
      </trkpt>
      <trkpt lat="49.81429" lon="2.27113">
        <ele>116</ele>
        <time>2023-04-05T12:06:29Z</time>
      </trkpt>
      <trkpt lat="49.81429" lon="2.27111">
        <ele>116</ele>
        <time>2023-04-05T12:06:30Z</time>
      </trkpt>
      <trkpt lat="49.8143" lon="2.27109">
        <ele>116</ele>
        <time>2023-04-05T12:06:31Z</time>
      </trkpt>
      <trkpt lat="49.81431" lon="2.27108">
        <ele>116</ele>
        <time>2023-04-05T12:06:32Z</time>
      </trkpt>
      <trkpt lat="49.81431" lon="2.27107">
        <ele>116</ele>
        <time>2023-04-05T12:06:33Z</time>
      </trkpt>
      <trkpt lat="49.81433" lon="2.27103">
        <ele>116</ele>
        <time>2023-04-05T12:06:34Z</time>
      </trkpt>
      <trkpt lat="49.81434" lon="2.27102">
        <ele>116</ele>
        <time>2023-04-05T12:06:36Z</time>
      </trkpt>
      <trkpt lat="49.81435" lon="2.271">
        <ele>115.9</ele>
        <time>2023-04-05T12:06:37Z</time>
      </trkpt>
      <trkpt lat="49.81435" lon="2.27099">
        <ele>115.9</ele>
        <time>2023-04-05T12:06:38Z</time>
      </trkpt>
      <trkpt lat="49.81437" lon="2.27096">
        <ele>115.9</ele>
        <time>2023-04-05T12:06:39Z</time>
      </trkpt>
      <trkpt lat="49.81437" lon="2.27095">
        <ele>115.9</ele>
        <time>2023-04-05T12:06:40Z</time>
      </trkpt>
      <trkpt lat="49.81437" lon="2.27094">
        <ele>115.9</ele>
        <time>2023-04-05T12:06:41Z</time>
      </trkpt>
      <trkpt lat="49.81438" lon="2.27092">
        <ele>115.9</ele>
        <time>2023-04-05T12:06:43Z</time>
      </trkpt>
      <trkpt lat="49.81439" lon="2.27091">
        <ele>115.9</ele>
        <time>2023-04-05T12:06:44Z</time>
      </trkpt>
      <trkpt lat="49.81439" lon="2.27089">
        <ele>115.9</ele>
        <time>2023-04-05T12:06:46Z</time>
      </trkpt>
      <trkpt lat="49.8144" lon="2.27087">
        <ele>115.9</ele>
        <time>2023-04-05T12:06:47Z</time>
      </trkpt>
      <trkpt lat="49.81441" lon="2.27085">
        <ele>115.9</ele>
        <time>2023-04-05T12:06:48Z</time>
      </trkpt>
      <trkpt lat="49.81442" lon="2.27083">
        <ele>115.9</ele>
        <time>2023-04-05T12:06:49Z</time>
      </trkpt>
      <trkpt lat="49.81443" lon="2.27081">
        <ele>115.9</ele>
        <time>2023-04-05T12:06:50Z</time>
      </trkpt>
      <trkpt lat="49.81444" lon="2.27078">
        <ele>115.8</ele>
        <time>2023-04-05T12:06:51Z</time>
      </trkpt>
      <trkpt lat="49.81445" lon="2.27077">
        <ele>115.8</ele>
        <time>2023-04-05T12:06:53Z</time>
      </trkpt>
      <trkpt lat="49.81445" lon="2.27076">
        <ele>115.8</ele>
        <time>2023-04-05T12:06:54Z</time>
      </trkpt>
      <trkpt lat="49.81446" lon="2.27075">
        <ele>115.8</ele>
        <time>2023-04-05T12:06:55Z</time>
      </trkpt>
      <trkpt lat="49.81447" lon="2.27073">
        <ele>115.8</ele>
        <time>2023-04-05T12:06:56Z</time>
      </trkpt>
      <trkpt lat="49.81448" lon="2.27072">
        <ele>115.8</ele>
        <time>2023-04-05T12:06:57Z</time>
      </trkpt>
      <trkpt lat="49.81449" lon="2.2707">
        <ele>115.8</ele>
        <time>2023-04-05T12:06:59Z</time>
      </trkpt>
      <trkpt lat="49.81449" lon="2.27069">
        <ele>115.8</ele>
        <time>2023-04-05T12:07:00Z</time>
      </trkpt>
      <trkpt lat="49.81451" lon="2.27066">
        <ele>115.8</ele>
        <time>2023-04-05T12:07:01Z</time>
      </trkpt>
      <trkpt lat="49.81452" lon="2.27065">
        <ele>115.8</ele>
        <time>2023-04-05T12:07:02Z</time>
      </trkpt>
      <trkpt lat="49.81452" lon="2.27065">
        <ele>115.8</ele>
        <time>2023-04-05T12:07:03Z</time>
      </trkpt>
      <trkpt lat="49.81453" lon="2.27063">
        <ele>115.7</ele>
        <time>2023-04-05T12:07:04Z</time>
      </trkpt>
      <trkpt lat="49.81455" lon="2.27061">
        <ele>115.7</ele>
        <time>2023-04-05T12:07:05Z</time>
      </trkpt>
      <trkpt lat="49.81457" lon="2.27059">
        <ele>115.7</ele>
        <time>2023-04-05T12:07:06Z</time>
      </trkpt>
      <trkpt lat="49.81457" lon="2.27059">
        <ele>115.7</ele>
        <time>2023-04-05T12:07:08Z</time>
      </trkpt>
      <trkpt lat="49.81458" lon="2.27058">
        <ele>115.7</ele>
        <time>2023-04-05T12:07:09Z</time>
      </trkpt>
      <trkpt lat="49.81459" lon="2.27056">
        <ele>115.7</ele>
        <time>2023-04-05T12:07:10Z</time>
      </trkpt>
      <trkpt lat="49.8146" lon="2.27055">
        <ele>115.7</ele>
        <time>2023-04-05T12:07:11Z</time>
      </trkpt>
      <trkpt lat="49.81461" lon="2.27053">
        <ele>115.7</ele>
        <time>2023-04-05T12:07:12Z</time>
      </trkpt>
      <trkpt lat="49.81462" lon="2.27052">
        <ele>115.7</ele>
        <time>2023-04-05T12:07:13Z</time>
      </trkpt>
      <trkpt lat="49.81464" lon="2.2705">
        <ele>115.6</ele>
        <time>2023-04-05T12:07:15Z</time>
      </trkpt>
      <trkpt lat="49.81465" lon="2.27049">
        <ele>115.6</ele>
        <time>2023-04-05T12:07:16Z</time>
      </trkpt>
      <trkpt lat="49.81465" lon="2.27048">
        <ele>115.6</ele>
        <time>2023-04-05T12:07:17Z</time>
      </trkpt>
      <trkpt lat="49.81466" lon="2.27047">
        <ele>115.6</ele>
        <time>2023-04-05T12:07:18Z</time>
      </trkpt>
      <trkpt lat="49.81468" lon="2.27045">
        <ele>115.6</ele>
        <time>2023-04-05T12:07:19Z</time>
      </trkpt>
      <trkpt lat="49.81469" lon="2.27044">
        <ele>115.6</ele>
        <time>2023-04-05T12:07:21Z</time>
      </trkpt>
      <trkpt lat="49.8147" lon="2.27042">
        <ele>115.6</ele>
        <time>2023-04-05T12:07:22Z</time>
      </trkpt>
      <trkpt lat="49.81472" lon="2.2704">
        <ele>115.6</ele>
        <time>2023-04-05T12:07:23Z</time>
      </trkpt>
      <trkpt lat="49.81472" lon="2.27039">
        <ele>115.6</ele>
        <time>2023-04-05T12:07:24Z</time>
      </trkpt>
      <trkpt lat="49.81473" lon="2.27038">
        <ele>115.6</ele>
        <time>2023-04-05T12:07:25Z</time>
      </trkpt>
      <trkpt lat="49.81474" lon="2.27037">
        <ele>115.6</ele>
        <time>2023-04-05T12:07:27Z</time>
      </trkpt>
      <trkpt lat="49.81474" lon="2.27036">
        <ele>115.6</ele>
        <time>2023-04-05T12:07:28Z</time>
      </trkpt>
      <trkpt lat="49.81475" lon="2.27035">
        <ele>115.6</ele>
        <time>2023-04-05T12:07:29Z</time>
      </trkpt>
      <trkpt lat="49.81476" lon="2.27034">
        <ele>115.5</ele>
        <time>2023-04-05T12:07:30Z</time>
      </trkpt>
      <trkpt lat="49.81477" lon="2.27032">
        <ele>115.5</ele>
        <time>2023-04-05T12:07:31Z</time>
      </trkpt>
      <trkpt lat="49.81478" lon="2.27031">
        <ele>115.5</ele>
        <time>2023-04-05T12:07:32Z</time>
      </trkpt>
      <trkpt lat="49.81479" lon="2.27029">
        <ele>115.5</ele>
        <time>2023-04-05T12:07:33Z</time>
      </trkpt>
      <trkpt lat="49.8148" lon="2.27028">
        <ele>115.5</ele>
        <time>2023-04-05T12:07:35Z</time>
      </trkpt>
      <trkpt lat="49.81482" lon="2.27026">
        <ele>115.5</ele>
        <time>2023-04-05T12:07:36Z</time>
      </trkpt>
      <trkpt lat="49.81483" lon="2.27026">
        <ele>115.5</ele>
        <time>2023-04-05T12:07:37Z</time>
      </trkpt>
      <trkpt lat="49.81483" lon="2.27025">
        <ele>115.5</ele>
        <time>2023-04-05T12:07:38Z</time>
      </trkpt>
      <trkpt lat="49.81484" lon="2.27024">
        <ele>115.5</ele>
        <time>2023-04-05T12:07:39Z</time>
      </trkpt>
      <trkpt lat="49.81486" lon="2.27023">
        <ele>115.5</ele>
        <time>2023-04-05T12:07:40Z</time>
      </trkpt>
      <trkpt lat="49.81487" lon="2.27022">
        <ele>115.5</ele>
        <time>2023-04-05T12:07:41Z</time>
      </trkpt>
      <trkpt lat="49.81489" lon="2.2702">
        <ele>115.5</ele>
        <time>2023-04-05T12:07:43Z</time>
      </trkpt>
      <trkpt lat="49.81491" lon="2.27018">
        <ele>115.5</ele>
        <time>2023-04-05T12:07:45Z</time>
      </trkpt>
      <trkpt lat="49.81492" lon="2.27017">
        <ele>115.5</ele>
        <time>2023-04-05T12:07:46Z</time>
      </trkpt>
      <trkpt lat="49.81493" lon="2.27016">
        <ele>115.5</ele>
        <time>2023-04-05T12:07:47Z</time>
      </trkpt>
      <trkpt lat="49.81495" lon="2.27015">
        <ele>115.5</ele>
        <time>2023-04-05T12:07:48Z</time>
      </trkpt>
      <trkpt lat="49.81496" lon="2.27015">
        <ele>115.5</ele>
        <time>2023-04-05T12:07:49Z</time>
      </trkpt>
      <trkpt lat="49.81498" lon="2.27014">
        <ele>115.5</ele>
        <time>2023-04-05T12:07:50Z</time>
      </trkpt>
      <trkpt lat="49.81499" lon="2.27013">
        <ele>115.5</ele>
        <time>2023-04-05T12:07:51Z</time>
      </trkpt>
      <trkpt lat="49.81501" lon="2.27012">
        <ele>115.5</ele>
        <time>2023-04-05T12:07:52Z</time>
      </trkpt>
      <trkpt lat="49.81502" lon="2.27012">
        <ele>115.5</ele>
        <time>2023-04-05T12:07:54Z</time>
      </trkpt>
      <trkpt lat="49.81503" lon="2.27011">
        <ele>115.5</ele>
        <time>2023-04-05T12:07:55Z</time>
      </trkpt>
      <trkpt lat="49.81504" lon="2.27011">
        <ele>115.5</ele>
        <time>2023-04-05T12:07:56Z</time>
      </trkpt>
      <trkpt lat="49.81505" lon="2.2701">
        <ele>115.5</ele>
        <time>2023-04-05T12:07:57Z</time>
      </trkpt>
      <trkpt lat="49.81508" lon="2.27009">
        <ele>115.5</ele>
        <time>2023-04-05T12:07:58Z</time>
      </trkpt>
      <trkpt lat="49.81508" lon="2.27009">
        <ele>115.5</ele>
        <time>2023-04-05T12:07:59Z</time>
      </trkpt>
      <trkpt lat="49.81509" lon="2.27008">
        <ele>115.5</ele>
        <time>2023-04-05T12:08:00Z</time>
      </trkpt>
      <trkpt lat="49.8151" lon="2.27008">
        <ele>115.5</ele>
        <time>2023-04-05T12:08:02Z</time>
      </trkpt>
      <trkpt lat="49.81512" lon="2.27007">
        <ele>115.5</ele>
        <time>2023-04-05T12:08:03Z</time>
      </trkpt>
      <trkpt lat="49.81513" lon="2.27006">
        <ele>115.5</ele>
        <time>2023-04-05T12:08:04Z</time>
      </trkpt>
      <trkpt lat="49.81514" lon="2.27005">
        <ele>115.5</ele>
        <time>2023-04-05T12:08:05Z</time>
      </trkpt>
      <trkpt lat="49.81515" lon="2.27004">
        <ele>115.5</ele>
        <time>2023-04-05T12:08:06Z</time>
      </trkpt>
      <trkpt lat="49.81516" lon="2.27004">
        <ele>115.5</ele>
        <time>2023-04-05T12:08:07Z</time>
      </trkpt>
      <trkpt lat="49.81517" lon="2.27003">
        <ele>115.5</ele>
        <time>2023-04-05T12:08:09Z</time>
      </trkpt>
      <trkpt lat="49.81519" lon="2.27002">
        <ele>115.5</ele>
        <time>2023-04-05T12:08:10Z</time>
      </trkpt>
      <trkpt lat="49.8152" lon="2.27001">
        <ele>115.4</ele>
        <time>2023-04-05T12:08:11Z</time>
      </trkpt>
      <trkpt lat="49.81521" lon="2.27001">
        <ele>115.4</ele>
        <time>2023-04-05T12:08:12Z</time>
      </trkpt>
      <trkpt lat="49.81522" lon="2.27">
        <ele>115.4</ele>
        <time>2023-04-05T12:08:13Z</time>
      </trkpt>
      <trkpt lat="49.81523" lon="2.26999">
        <ele>115.4</ele>
        <time>2023-04-05T12:08:14Z</time>
      </trkpt>
      <trkpt lat="49.81524" lon="2.26998">
        <ele>115.4</ele>
        <time>2023-04-05T12:08:16Z</time>
      </trkpt>
      <trkpt lat="49.81525" lon="2.26998">
        <ele>115.4</ele>
        <time>2023-04-05T12:08:17Z</time>
      </trkpt>
      <trkpt lat="49.81527" lon="2.26998">
        <ele>115.4</ele>
        <time>2023-04-05T12:08:18Z</time>
      </trkpt>
      <trkpt lat="49.81528" lon="2.26997">
        <ele>115.4</ele>
        <time>2023-04-05T12:08:19Z</time>
      </trkpt>
      <trkpt lat="49.81529" lon="2.26997">
        <ele>115.4</ele>
        <time>2023-04-05T12:08:20Z</time>
      </trkpt>
      <trkpt lat="49.8153" lon="2.26997">
        <ele>115.4</ele>
        <time>2023-04-05T12:08:21Z</time>
      </trkpt>
      <trkpt lat="49.81531" lon="2.26996">
        <ele>115.4</ele>
        <time>2023-04-05T12:08:22Z</time>
      </trkpt>
      <trkpt lat="49.81532" lon="2.26995">
        <ele>115.4</ele>
        <time>2023-04-05T12:08:24Z</time>
      </trkpt>
      <trkpt lat="49.81533" lon="2.26995">
        <ele>115.4</ele>
        <time>2023-04-05T12:08:25Z</time>
      </trkpt>
      <trkpt lat="49.81535" lon="2.26994">
        <ele>115.4</ele>
        <time>2023-04-05T12:08:26Z</time>
      </trkpt>
      <trkpt lat="49.81536" lon="2.26994">
        <ele>115.4</ele>
        <time>2023-04-05T12:08:27Z</time>
      </trkpt>
      <trkpt lat="49.81537" lon="2.26993">
        <ele>115.4</ele>
        <time>2023-04-05T12:08:28Z</time>
      </trkpt>
      <trkpt lat="49.81538" lon="2.26993">
        <ele>115.4</ele>
        <time>2023-04-05T12:08:29Z</time>
      </trkpt>
      <trkpt lat="49.81539" lon="2.26992">
        <ele>115.4</ele>
        <time>2023-04-05T12:08:30Z</time>
      </trkpt>
      <trkpt lat="49.8154" lon="2.26991">
        <ele>115.4</ele>
        <time>2023-04-05T12:08:31Z</time>
      </trkpt>
      <trkpt lat="49.8154" lon="2.26989">
        <ele>115.4</ele>
        <time>2023-04-05T12:08:33Z</time>
      </trkpt>
      <trkpt lat="49.8154" lon="2.26987">
        <ele>115.4</ele>
        <time>2023-04-05T12:08:34Z</time>
      </trkpt>
      <trkpt lat="49.81541" lon="2.26986">
        <ele>115.4</ele>
        <time>2023-04-05T12:08:35Z</time>
      </trkpt>
      <trkpt lat="49.81542" lon="2.26984">
        <ele>115.4</ele>
        <time>2023-04-05T12:08:36Z</time>
      </trkpt>
      <trkpt lat="49.81543" lon="2.26984">
        <ele>115.4</ele>
        <time>2023-04-05T12:08:37Z</time>
      </trkpt>
      <trkpt lat="49.81544" lon="2.26984">
        <ele>115.4</ele>
        <time>2023-04-05T12:08:38Z</time>
      </trkpt>
      <trkpt lat="49.81545" lon="2.26984">
        <ele>115.4</ele>
        <time>2023-04-05T12:08:40Z</time>
      </trkpt>
      <trkpt lat="49.81546" lon="2.26985">
        <ele>115.4</ele>
        <time>2023-04-05T12:08:41Z</time>
      </trkpt>
      <trkpt lat="49.81548" lon="2.26984">
        <ele>115.4</ele>
        <time>2023-04-05T12:08:42Z</time>
      </trkpt>
      <trkpt lat="49.81549" lon="2.26984">
        <ele>115.4</ele>
        <time>2023-04-05T12:08:43Z</time>
      </trkpt>
      <trkpt lat="49.8155" lon="2.26984">
        <ele>115.4</ele>
        <time>2023-04-05T12:08:44Z</time>
      </trkpt>
      <trkpt lat="49.81551" lon="2.26984">
        <ele>115.4</ele>
        <time>2023-04-05T12:08:45Z</time>
      </trkpt>
      <trkpt lat="49.81552" lon="2.26984">
        <ele>115.4</ele>
        <time>2023-04-05T12:08:46Z</time>
      </trkpt>
      <trkpt lat="49.81553" lon="2.26983">
        <ele>115.4</ele>
        <time>2023-04-05T12:08:48Z</time>
      </trkpt>
      <trkpt lat="49.81554" lon="2.26983">
        <ele>115.4</ele>
        <time>2023-04-05T12:08:49Z</time>
      </trkpt>
      <trkpt lat="49.81555" lon="2.26982">
        <ele>115.4</ele>
        <time>2023-04-05T12:08:50Z</time>
      </trkpt>
      <trkpt lat="49.81556" lon="2.26981">
        <ele>115.4</ele>
        <time>2023-04-05T12:08:51Z</time>
      </trkpt>
      <trkpt lat="49.81558" lon="2.26979">
        <ele>115.4</ele>
        <time>2023-04-05T12:08:52Z</time>
      </trkpt>
      <trkpt lat="49.81559" lon="2.26979">
        <ele>115.4</ele>
        <time>2023-04-05T12:08:54Z</time>
      </trkpt>
      <trkpt lat="49.81559" lon="2.26978">
        <ele>115.4</ele>
        <time>2023-04-05T12:08:55Z</time>
      </trkpt>
      <trkpt lat="49.81561" lon="2.26976">
        <ele>115.4</ele>
        <time>2023-04-05T12:08:56Z</time>
      </trkpt>
      <trkpt lat="49.81562" lon="2.26976">
        <ele>115.4</ele>
        <time>2023-04-05T12:08:57Z</time>
      </trkpt>
      <trkpt lat="49.81563" lon="2.26975">
        <ele>115.4</ele>
        <time>2023-04-05T12:08:58Z</time>
      </trkpt>
      <trkpt lat="49.81564" lon="2.26975">
        <ele>115.4</ele>
        <time>2023-04-05T12:08:59Z</time>
      </trkpt>
      <trkpt lat="49.81565" lon="2.26974">
        <ele>115.4</ele>
        <time>2023-04-05T12:09:00Z</time>
      </trkpt>
      <trkpt lat="49.81566" lon="2.26973">
        <ele>115.4</ele>
        <time>2023-04-05T12:09:01Z</time>
      </trkpt>
      <trkpt lat="49.81568" lon="2.26972">
        <ele>115.4</ele>
        <time>2023-04-05T12:09:02Z</time>
      </trkpt>
      <trkpt lat="49.81569" lon="2.26971">
        <ele>115.4</ele>
        <time>2023-04-05T12:09:04Z</time>
      </trkpt>
      <trkpt lat="49.81569" lon="2.26971">
        <ele>115.4</ele>
        <time>2023-04-05T12:09:05Z</time>
      </trkpt>
      <trkpt lat="49.81571" lon="2.2697">
        <ele>115.4</ele>
        <time>2023-04-05T12:09:06Z</time>
      </trkpt>
      <trkpt lat="49.81572" lon="2.26969">
        <ele>115.4</ele>
        <time>2023-04-05T12:09:07Z</time>
      </trkpt>
      <trkpt lat="49.81573" lon="2.26969">
        <ele>115.4</ele>
        <time>2023-04-05T12:09:08Z</time>
      </trkpt>
      <trkpt lat="49.81575" lon="2.26968">
        <ele>115.4</ele>
        <time>2023-04-05T12:09:10Z</time>
      </trkpt>
      <trkpt lat="49.81576" lon="2.26967">
        <ele>115.4</ele>
        <time>2023-04-05T12:09:11Z</time>
      </trkpt>
      <trkpt lat="49.81577" lon="2.26966">
        <ele>115.4</ele>
        <time>2023-04-05T12:09:13Z</time>
      </trkpt>
      <trkpt lat="49.81579" lon="2.26966">
        <ele>115.4</ele>
        <time>2023-04-05T12:09:14Z</time>
      </trkpt>
      <trkpt lat="49.8158" lon="2.26965">
        <ele>115.4</ele>
        <time>2023-04-05T12:09:15Z</time>
      </trkpt>
      <trkpt lat="49.81582" lon="2.26964">
        <ele>115.4</ele>
        <time>2023-04-05T12:09:16Z</time>
      </trkpt>
      <trkpt lat="49.81583" lon="2.26964">
        <ele>115.4</ele>
        <time>2023-04-05T12:09:17Z</time>
      </trkpt>
      <trkpt lat="49.81584" lon="2.26964">
        <ele>115.3</ele>
        <time>2023-04-05T12:09:18Z</time>
      </trkpt>
      <trkpt lat="49.81585" lon="2.26963">
        <ele>115.3</ele>
        <time>2023-04-05T12:09:20Z</time>
      </trkpt>
      <trkpt lat="49.81586" lon="2.26963">
        <ele>115.3</ele>
        <time>2023-04-05T12:09:21Z</time>
      </trkpt>
      <trkpt lat="49.81587" lon="2.26962">
        <ele>115.3</ele>
        <time>2023-04-05T12:09:22Z</time>
      </trkpt>
      <trkpt lat="49.81588" lon="2.26961">
        <ele>115.3</ele>
        <time>2023-04-05T12:09:23Z</time>
      </trkpt>
      <trkpt lat="49.8159" lon="2.2696">
        <ele>115.3</ele>
        <time>2023-04-05T12:09:24Z</time>
      </trkpt>
      <trkpt lat="49.81591" lon="2.2696">
        <ele>115.3</ele>
        <time>2023-04-05T12:09:25Z</time>
      </trkpt>
      <trkpt lat="49.81593" lon="2.26958">
        <ele>115.3</ele>
        <time>2023-04-05T12:09:26Z</time>
      </trkpt>
      <trkpt lat="49.81593" lon="2.26958">
        <ele>115.3</ele>
        <time>2023-04-05T12:09:27Z</time>
      </trkpt>
      <trkpt lat="49.81594" lon="2.26957">
        <ele>115.3</ele>
        <time>2023-04-05T12:09:28Z</time>
      </trkpt>
      <trkpt lat="49.81595" lon="2.26957">
        <ele>115.3</ele>
        <time>2023-04-05T12:09:30Z</time>
      </trkpt>
      <trkpt lat="49.81596" lon="2.26956">
        <ele>115.3</ele>
        <time>2023-04-05T12:09:31Z</time>
      </trkpt>
      <trkpt lat="49.81597" lon="2.26956">
        <ele>115.3</ele>
        <time>2023-04-05T12:09:32Z</time>
      </trkpt>
      <trkpt lat="49.81598" lon="2.26955">
        <ele>115.3</ele>
        <time>2023-04-05T12:09:33Z</time>
      </trkpt>
      <trkpt lat="49.81599" lon="2.26954">
        <ele>115.3</ele>
        <time>2023-04-05T12:09:34Z</time>
      </trkpt>
      <trkpt lat="49.816" lon="2.26954">
        <ele>115.3</ele>
        <time>2023-04-05T12:09:35Z</time>
      </trkpt>
      <trkpt lat="49.81602" lon="2.26952">
        <ele>115.3</ele>
        <time>2023-04-05T12:09:36Z</time>
      </trkpt>
      <trkpt lat="49.81603" lon="2.26952">
        <ele>115.3</ele>
        <time>2023-04-05T12:09:37Z</time>
      </trkpt>
      <trkpt lat="49.81603" lon="2.26951">
        <ele>115.3</ele>
        <time>2023-04-05T12:09:38Z</time>
      </trkpt>
      <trkpt lat="49.81605" lon="2.2695">
        <ele>115.3</ele>
        <time>2023-04-05T12:09:39Z</time>
      </trkpt>
      <trkpt lat="49.81606" lon="2.2695">
        <ele>115.3</ele>
        <time>2023-04-05T12:09:41Z</time>
      </trkpt>
      <trkpt lat="49.81606" lon="2.2695">
        <ele>115.2</ele>
        <time>2023-04-05T12:09:42Z</time>
      </trkpt>
      <trkpt lat="49.81607" lon="2.2695">
        <ele>115.2</ele>
        <time>2023-04-05T12:09:43Z</time>
      </trkpt>
      <trkpt lat="49.81608" lon="2.2695">
        <ele>115.2</ele>
        <time>2023-04-05T12:09:44Z</time>
      </trkpt>
      <trkpt lat="49.81609" lon="2.26949">
        <ele>115.2</ele>
        <time>2023-04-05T12:09:45Z</time>
      </trkpt>
      <trkpt lat="49.8161" lon="2.26948">
        <ele>115.2</ele>
        <time>2023-04-05T12:09:46Z</time>
      </trkpt>
      <trkpt lat="49.81611" lon="2.26947">
        <ele>115.2</ele>
        <time>2023-04-05T12:09:47Z</time>
      </trkpt>
      <trkpt lat="49.81612" lon="2.26947">
        <ele>115.2</ele>
        <time>2023-04-05T12:09:48Z</time>
      </trkpt>
      <trkpt lat="49.81613" lon="2.26946">
        <ele>115.2</ele>
        <time>2023-04-05T12:09:49Z</time>
      </trkpt>
      <trkpt lat="49.81614" lon="2.26945">
        <ele>115.2</ele>
        <time>2023-04-05T12:09:51Z</time>
      </trkpt>
      <trkpt lat="49.81615" lon="2.26944">
        <ele>115.2</ele>
        <time>2023-04-05T12:09:52Z</time>
      </trkpt>
      <trkpt lat="49.81616" lon="2.26943">
        <ele>115.2</ele>
        <time>2023-04-05T12:09:53Z</time>
      </trkpt>
      <trkpt lat="49.81618" lon="2.26941">
        <ele>115.2</ele>
        <time>2023-04-05T12:09:54Z</time>
      </trkpt>
      <trkpt lat="49.81618" lon="2.2694">
        <ele>115.2</ele>
        <time>2023-04-05T12:09:55Z</time>
      </trkpt>
      <trkpt lat="49.81619" lon="2.26939">
        <ele>115.2</ele>
        <time>2023-04-05T12:09:56Z</time>
      </trkpt>
      <trkpt lat="49.8162" lon="2.26938">
        <ele>115.2</ele>
        <time>2023-04-05T12:09:58Z</time>
      </trkpt>
      <trkpt lat="49.81621" lon="2.26936">
        <ele>115.2</ele>
        <time>2023-04-05T12:09:59Z</time>
      </trkpt>
      <trkpt lat="49.81621" lon="2.26935">
        <ele>115.2</ele>
        <time>2023-04-05T12:10:00Z</time>
      </trkpt>
      <trkpt lat="49.81622" lon="2.26934">
        <ele>115.2</ele>
        <time>2023-04-05T12:10:01Z</time>
      </trkpt>
      <trkpt lat="49.81623" lon="2.26934">
        <ele>115.2</ele>
        <time>2023-04-05T12:10:02Z</time>
      </trkpt>
      <trkpt lat="49.81623" lon="2.26933">
        <ele>115.2</ele>
        <time>2023-04-05T12:10:03Z</time>
      </trkpt>
      <trkpt lat="49.81625" lon="2.26931">
        <ele>115.2</ele>
        <time>2023-04-05T12:10:05Z</time>
      </trkpt>
      <trkpt lat="49.81626" lon="2.2693">
        <ele>115.2</ele>
        <time>2023-04-05T12:10:06Z</time>
      </trkpt>
      <trkpt lat="49.81627" lon="2.26929">
        <ele>115.2</ele>
        <time>2023-04-05T12:10:08Z</time>
      </trkpt>
      <trkpt lat="49.81628" lon="2.26928">
        <ele>115.1</ele>
        <time>2023-04-05T12:10:09Z</time>
      </trkpt>
      <trkpt lat="49.81629" lon="2.26927">
        <ele>115.1</ele>
        <time>2023-04-05T12:10:10Z</time>
      </trkpt>
      <trkpt lat="49.81629" lon="2.26926">
        <ele>115.1</ele>
        <time>2023-04-05T12:10:11Z</time>
      </trkpt>
      <trkpt lat="49.8163" lon="2.26925">
        <ele>115.1</ele>
        <time>2023-04-05T12:10:12Z</time>
      </trkpt>
      <trkpt lat="49.81631" lon="2.26924">
        <ele>115.1</ele>
        <time>2023-04-05T12:10:13Z</time>
      </trkpt>
      <trkpt lat="49.81632" lon="2.26923">
        <ele>115.1</ele>
        <time>2023-04-05T12:10:14Z</time>
      </trkpt>
      <trkpt lat="49.81633" lon="2.26922">
        <ele>115.1</ele>
        <time>2023-04-05T12:10:16Z</time>
      </trkpt>
      <trkpt lat="49.81634" lon="2.26922">
        <ele>115.1</ele>
        <time>2023-04-05T12:10:17Z</time>
      </trkpt>
      <trkpt lat="49.81636" lon="2.2692">
        <ele>115.1</ele>
        <time>2023-04-05T12:10:18Z</time>
      </trkpt>
      <trkpt lat="49.81636" lon="2.2692">
        <ele>115.1</ele>
        <time>2023-04-05T12:10:19Z</time>
      </trkpt>
      <trkpt lat="49.81637" lon="2.26919">
        <ele>115.1</ele>
        <time>2023-04-05T12:10:20Z</time>
      </trkpt>
      <trkpt lat="49.81638" lon="2.26918">
        <ele>115.1</ele>
        <time>2023-04-05T12:10:21Z</time>
      </trkpt>
      <trkpt lat="49.81639" lon="2.26917">
        <ele>115.1</ele>
        <time>2023-04-05T12:10:22Z</time>
      </trkpt>
      <trkpt lat="49.8164" lon="2.26916">
        <ele>115.1</ele>
        <time>2023-04-05T12:10:23Z</time>
      </trkpt>
      <trkpt lat="49.81641" lon="2.26915">
        <ele>115.1</ele>
        <time>2023-04-05T12:10:25Z</time>
      </trkpt>
      <trkpt lat="49.81642" lon="2.26914">
        <ele>115.1</ele>
        <time>2023-04-05T12:10:26Z</time>
      </trkpt>
      <trkpt lat="49.81643" lon="2.26913">
        <ele>115.1</ele>
        <time>2023-04-05T12:10:27Z</time>
      </trkpt>
      <trkpt lat="49.81644" lon="2.26912">
        <ele>115</ele>
        <time>2023-04-05T12:10:28Z</time>
      </trkpt>
      <trkpt lat="49.81645" lon="2.2691">
        <ele>115</ele>
        <time>2023-04-05T12:10:29Z</time>
      </trkpt>
      <trkpt lat="49.81646" lon="2.26909">
        <ele>115</ele>
        <time>2023-04-05T12:10:30Z</time>
      </trkpt>
      <trkpt lat="49.81647" lon="2.26908">
        <ele>115</ele>
        <time>2023-04-05T12:10:31Z</time>
      </trkpt>
      <trkpt lat="49.81648" lon="2.26907">
        <ele>115</ele>
        <time>2023-04-05T12:10:32Z</time>
      </trkpt>
      <trkpt lat="49.8165" lon="2.26905">
        <ele>115</ele>
        <time>2023-04-05T12:10:33Z</time>
      </trkpt>
      <trkpt lat="49.81651" lon="2.26904">
        <ele>115</ele>
        <time>2023-04-05T12:10:35Z</time>
      </trkpt>
      <trkpt lat="49.81653" lon="2.26903">
        <ele>114.9</ele>
        <time>2023-04-05T12:10:36Z</time>
      </trkpt>
      <trkpt lat="49.81653" lon="2.26902">
        <ele>114.9</ele>
        <time>2023-04-05T12:10:37Z</time>
      </trkpt>
      <trkpt lat="49.81654" lon="2.26901">
        <ele>114.9</ele>
        <time>2023-04-05T12:10:38Z</time>
      </trkpt>
      <trkpt lat="49.81656" lon="2.26899">
        <ele>114.9</ele>
        <time>2023-04-05T12:10:39Z</time>
      </trkpt>
      <trkpt lat="49.81657" lon="2.26899">
        <ele>114.9</ele>
        <time>2023-04-05T12:10:40Z</time>
      </trkpt>
      <trkpt lat="49.81657" lon="2.26898">
        <ele>114.9</ele>
        <time>2023-04-05T12:10:41Z</time>
      </trkpt>
      <trkpt lat="49.81658" lon="2.26897">
        <ele>114.9</ele>
        <time>2023-04-05T12:10:42Z</time>
      </trkpt>
      <trkpt lat="49.81659" lon="2.26896">
        <ele>114.9</ele>
        <time>2023-04-05T12:10:43Z</time>
      </trkpt>
      <trkpt lat="49.8166" lon="2.26895">
        <ele>114.8</ele>
        <time>2023-04-05T12:10:45Z</time>
      </trkpt>
      <trkpt lat="49.81661" lon="2.26894">
        <ele>114.8</ele>
        <time>2023-04-05T12:10:46Z</time>
      </trkpt>
      <trkpt lat="49.81663" lon="2.26892">
        <ele>114.8</ele>
        <time>2023-04-05T12:10:47Z</time>
      </trkpt>
      <trkpt lat="49.81664" lon="2.2689">
        <ele>114.8</ele>
        <time>2023-04-05T12:10:48Z</time>
      </trkpt>
      <trkpt lat="49.81665" lon="2.26889">
        <ele>114.8</ele>
        <time>2023-04-05T12:10:49Z</time>
      </trkpt>
      <trkpt lat="49.81665" lon="2.26888">
        <ele>114.8</ele>
        <time>2023-04-05T12:10:50Z</time>
      </trkpt>
      <trkpt lat="49.81667" lon="2.26886">
        <ele>114.7</ele>
        <time>2023-04-05T12:10:52Z</time>
      </trkpt>
      <trkpt lat="49.81667" lon="2.26885">
        <ele>114.7</ele>
        <time>2023-04-05T12:10:53Z</time>
      </trkpt>
      <trkpt lat="49.81668" lon="2.26884">
        <ele>114.7</ele>
        <time>2023-04-05T12:10:54Z</time>
      </trkpt>
      <trkpt lat="49.8167" lon="2.26881">
        <ele>114.7</ele>
        <time>2023-04-05T12:10:55Z</time>
      </trkpt>
      <trkpt lat="49.8167" lon="2.26879">
        <ele>114.7</ele>
        <time>2023-04-05T12:10:56Z</time>
      </trkpt>
      <trkpt lat="49.81671" lon="2.26878">
        <ele>114.7</ele>
        <time>2023-04-05T12:10:57Z</time>
      </trkpt>
      <trkpt lat="49.81672" lon="2.26877">
        <ele>114.7</ele>
        <time>2023-04-05T12:10:58Z</time>
      </trkpt>
      <trkpt lat="49.81672" lon="2.26876">
        <ele>114.7</ele>
        <time>2023-04-05T12:11:00Z</time>
      </trkpt>
      <trkpt lat="49.81673" lon="2.26876">
        <ele>114.6</ele>
        <time>2023-04-05T12:11:01Z</time>
      </trkpt>
      <trkpt lat="49.81674" lon="2.26875">
        <ele>114.6</ele>
        <time>2023-04-05T12:11:02Z</time>
      </trkpt>
      <trkpt lat="49.81674" lon="2.26874">
        <ele>114.6</ele>
        <time>2023-04-05T12:11:03Z</time>
      </trkpt>
      <trkpt lat="49.81676" lon="2.26872">
        <ele>114.6</ele>
        <time>2023-04-05T12:11:04Z</time>
      </trkpt>
      <trkpt lat="49.81676" lon="2.26871">
        <ele>114.6</ele>
        <time>2023-04-05T12:11:05Z</time>
      </trkpt>
      <trkpt lat="49.81677" lon="2.2687">
        <ele>114.6</ele>
        <time>2023-04-05T12:11:06Z</time>
      </trkpt>
      <trkpt lat="49.81679" lon="2.26867">
        <ele>114.5</ele>
        <time>2023-04-05T12:11:07Z</time>
      </trkpt>
      <trkpt lat="49.81679" lon="2.26866">
        <ele>114.5</ele>
        <time>2023-04-05T12:11:09Z</time>
      </trkpt>
      <trkpt lat="49.8168" lon="2.26865">
        <ele>114.5</ele>
        <time>2023-04-05T12:11:10Z</time>
      </trkpt>
      <trkpt lat="49.81681" lon="2.26864">
        <ele>114.5</ele>
        <time>2023-04-05T12:11:11Z</time>
      </trkpt>
      <trkpt lat="49.81682" lon="2.26863">
        <ele>114.5</ele>
        <time>2023-04-05T12:11:12Z</time>
      </trkpt>
      <trkpt lat="49.81683" lon="2.26861">
        <ele>114.5</ele>
        <time>2023-04-05T12:11:13Z</time>
      </trkpt>
      <trkpt lat="49.81684" lon="2.2686">
        <ele>114.4</ele>
        <time>2023-04-05T12:11:14Z</time>
      </trkpt>
      <trkpt lat="49.81686" lon="2.26858">
        <ele>114.4</ele>
        <time>2023-04-05T12:11:16Z</time>
      </trkpt>
      <trkpt lat="49.81687" lon="2.26857">
        <ele>114.4</ele>
        <time>2023-04-05T12:11:17Z</time>
      </trkpt>
      <trkpt lat="49.81688" lon="2.26856">
        <ele>114.4</ele>
        <time>2023-04-05T12:11:18Z</time>
      </trkpt>
      <trkpt lat="49.81689" lon="2.26855">
        <ele>114.4</ele>
        <time>2023-04-05T12:11:19Z</time>
      </trkpt>
      <trkpt lat="49.8169" lon="2.26854">
        <ele>114.4</ele>
        <time>2023-04-05T12:11:20Z</time>
      </trkpt>
      <trkpt lat="49.81691" lon="2.26852">
        <ele>114.3</ele>
        <time>2023-04-05T12:11:21Z</time>
      </trkpt>
      <trkpt lat="49.81692" lon="2.26851">
        <ele>114.3</ele>
        <time>2023-04-05T12:11:22Z</time>
      </trkpt>
      <trkpt lat="49.81693" lon="2.2685">
        <ele>114.3</ele>
        <time>2023-04-05T12:11:23Z</time>
      </trkpt>
      <trkpt lat="49.81694" lon="2.26849">
        <ele>114.3</ele>
        <time>2023-04-05T12:11:24Z</time>
      </trkpt>
      <trkpt lat="49.81695" lon="2.26848">
        <ele>114.3</ele>
        <time>2023-04-05T12:11:26Z</time>
      </trkpt>
      <trkpt lat="49.81696" lon="2.26846">
        <ele>114.3</ele>
        <time>2023-04-05T12:11:27Z</time>
      </trkpt>
      <trkpt lat="49.81698" lon="2.26845">
        <ele>114.3</ele>
        <time>2023-04-05T12:11:28Z</time>
      </trkpt>
      <trkpt lat="49.81699" lon="2.26843">
        <ele>114.2</ele>
        <time>2023-04-05T12:11:29Z</time>
      </trkpt>
      <trkpt lat="49.817" lon="2.26842">
        <ele>114.2</ele>
        <time>2023-04-05T12:11:30Z</time>
      </trkpt>
      <trkpt lat="49.81701" lon="2.26841">
        <ele>114.2</ele>
        <time>2023-04-05T12:11:31Z</time>
      </trkpt>
      <trkpt lat="49.81702" lon="2.2684">
        <ele>114.2</ele>
        <time>2023-04-05T12:11:33Z</time>
      </trkpt>
      <trkpt lat="49.81703" lon="2.26839">
        <ele>114.2</ele>
        <time>2023-04-05T12:11:34Z</time>
      </trkpt>
      <trkpt lat="49.81705" lon="2.26836">
        <ele>114.2</ele>
        <time>2023-04-05T12:11:35Z</time>
      </trkpt>
      <trkpt lat="49.81705" lon="2.26835">
        <ele>114.2</ele>
        <time>2023-04-05T12:11:36Z</time>
      </trkpt>
      <trkpt lat="49.81707" lon="2.26833">
        <ele>114.2</ele>
        <time>2023-04-05T12:11:37Z</time>
      </trkpt>
      <trkpt lat="49.81708" lon="2.26831">
        <ele>114.1</ele>
        <time>2023-04-05T12:11:38Z</time>
      </trkpt>
      <trkpt lat="49.8171" lon="2.26828">
        <ele>114.1</ele>
        <time>2023-04-05T12:11:40Z</time>
      </trkpt>
      <trkpt lat="49.8171" lon="2.26828">
        <ele>114.1</ele>
        <time>2023-04-05T12:11:41Z</time>
      </trkpt>
      <trkpt lat="49.81711" lon="2.26827">
        <ele>114.1</ele>
        <time>2023-04-05T12:11:42Z</time>
      </trkpt>
      <trkpt lat="49.81712" lon="2.26825">
        <ele>114.1</ele>
        <time>2023-04-05T12:11:43Z</time>
      </trkpt>
      <trkpt lat="49.81713" lon="2.26824">
        <ele>114.1</ele>
        <time>2023-04-05T12:11:44Z</time>
      </trkpt>
      <trkpt lat="49.81713" lon="2.26823">
        <ele>114.1</ele>
        <time>2023-04-05T12:11:45Z</time>
      </trkpt>
      <trkpt lat="49.81714" lon="2.26822">
        <ele>114.1</ele>
        <time>2023-04-05T12:11:46Z</time>
      </trkpt>
      <trkpt lat="49.81715" lon="2.2682">
        <ele>114.1</ele>
        <time>2023-04-05T12:11:47Z</time>
      </trkpt>
      <trkpt lat="49.81716" lon="2.26819">
        <ele>114.1</ele>
        <time>2023-04-05T12:11:49Z</time>
      </trkpt>
      <trkpt lat="49.81717" lon="2.26818">
        <ele>114</ele>
        <time>2023-04-05T12:11:50Z</time>
      </trkpt>
      <trkpt lat="49.81718" lon="2.26817">
        <ele>114</ele>
        <time>2023-04-05T12:11:51Z</time>
      </trkpt>
      <trkpt lat="49.81718" lon="2.26817">
        <ele>114</ele>
        <time>2023-04-05T12:11:52Z</time>
      </trkpt>
      <trkpt lat="49.81719" lon="2.26816">
        <ele>114</ele>
        <time>2023-04-05T12:11:53Z</time>
      </trkpt>
      <trkpt lat="49.8172" lon="2.26814">
        <ele>114</ele>
        <time>2023-04-05T12:11:54Z</time>
      </trkpt>
      <trkpt lat="49.81721" lon="2.26813">
        <ele>114</ele>
        <time>2023-04-05T12:11:55Z</time>
      </trkpt>
      <trkpt lat="49.81722" lon="2.26811">
        <ele>114</ele>
        <time>2023-04-05T12:11:57Z</time>
      </trkpt>
      <trkpt lat="49.81722" lon="2.2681">
        <ele>114</ele>
        <time>2023-04-05T12:11:58Z</time>
      </trkpt>
      <trkpt lat="49.81723" lon="2.26809">
        <ele>114</ele>
        <time>2023-04-05T12:11:59Z</time>
      </trkpt>
      <trkpt lat="49.81724" lon="2.26807">
        <ele>114</ele>
        <time>2023-04-05T12:12:00Z</time>
      </trkpt>
      <trkpt lat="49.81724" lon="2.26806">
        <ele>114</ele>
        <time>2023-04-05T12:12:01Z</time>
      </trkpt>
      <trkpt lat="49.81725" lon="2.26805">
        <ele>114</ele>
        <time>2023-04-05T12:12:02Z</time>
      </trkpt>
      <trkpt lat="49.81726" lon="2.26804">
        <ele>114</ele>
        <time>2023-04-05T12:12:03Z</time>
      </trkpt>
      <trkpt lat="49.81727" lon="2.26803">
        <ele>113.9</ele>
        <time>2023-04-05T12:12:04Z</time>
      </trkpt>
      <trkpt lat="49.81728" lon="2.26802">
        <ele>113.9</ele>
        <time>2023-04-05T12:12:06Z</time>
      </trkpt>
      <trkpt lat="49.81729" lon="2.26801">
        <ele>113.9</ele>
        <time>2023-04-05T12:12:07Z</time>
      </trkpt>
      <trkpt lat="49.81729" lon="2.268">
        <ele>113.9</ele>
        <time>2023-04-05T12:12:08Z</time>
      </trkpt>
      <trkpt lat="49.8173" lon="2.26799">
        <ele>113.9</ele>
        <time>2023-04-05T12:12:09Z</time>
      </trkpt>
      <trkpt lat="49.81732" lon="2.26797">
        <ele>113.9</ele>
        <time>2023-04-05T12:12:10Z</time>
      </trkpt>
      <trkpt lat="49.81733" lon="2.26796">
        <ele>113.9</ele>
        <time>2023-04-05T12:12:11Z</time>
      </trkpt>
      <trkpt lat="49.81734" lon="2.26795">
        <ele>113.9</ele>
        <time>2023-04-05T12:12:12Z</time>
      </trkpt>
      <trkpt lat="49.81735" lon="2.26793">
        <ele>113.9</ele>
        <time>2023-04-05T12:12:13Z</time>
      </trkpt>
      <trkpt lat="49.81736" lon="2.26793">
        <ele>113.9</ele>
        <time>2023-04-05T12:12:14Z</time>
      </trkpt>
      <trkpt lat="49.81737" lon="2.26792">
        <ele>113.9</ele>
        <time>2023-04-05T12:12:15Z</time>
      </trkpt>
      <trkpt lat="49.81738" lon="2.26791">
        <ele>113.8</ele>
        <time>2023-04-05T12:12:16Z</time>
      </trkpt>
      <trkpt lat="49.81739" lon="2.2679">
        <ele>113.8</ele>
        <time>2023-04-05T12:12:18Z</time>
      </trkpt>
      <trkpt lat="49.81739" lon="2.26789">
        <ele>113.8</ele>
        <time>2023-04-05T12:12:19Z</time>
      </trkpt>
      <trkpt lat="49.81741" lon="2.26787">
        <ele>113.8</ele>
        <time>2023-04-05T12:12:20Z</time>
      </trkpt>
      <trkpt lat="49.81742" lon="2.26785">
        <ele>113.8</ele>
        <time>2023-04-05T12:12:21Z</time>
      </trkpt>
      <trkpt lat="49.81743" lon="2.26784">
        <ele>113.8</ele>
        <time>2023-04-05T12:12:22Z</time>
      </trkpt>
      <trkpt lat="49.81744" lon="2.26783">
        <ele>113.8</ele>
        <time>2023-04-05T12:12:24Z</time>
      </trkpt>
      <trkpt lat="49.81745" lon="2.26781">
        <ele>113.8</ele>
        <time>2023-04-05T12:12:25Z</time>
      </trkpt>
      <trkpt lat="49.81746" lon="2.2678">
        <ele>113.8</ele>
        <time>2023-04-05T12:12:26Z</time>
      </trkpt>
      <trkpt lat="49.81747" lon="2.26778">
        <ele>113.8</ele>
        <time>2023-04-05T12:12:28Z</time>
      </trkpt>
      <trkpt lat="49.81748" lon="2.26777">
        <ele>113.7</ele>
        <time>2023-04-05T12:12:29Z</time>
      </trkpt>
      <trkpt lat="49.81749" lon="2.26776">
        <ele>113.7</ele>
        <time>2023-04-05T12:12:30Z</time>
      </trkpt>
      <trkpt lat="49.81751" lon="2.26774">
        <ele>113.7</ele>
        <time>2023-04-05T12:12:31Z</time>
      </trkpt>
      <trkpt lat="49.81752" lon="2.26773">
        <ele>113.7</ele>
        <time>2023-04-05T12:12:32Z</time>
      </trkpt>
      <trkpt lat="49.81753" lon="2.26772">
        <ele>113.7</ele>
        <time>2023-04-05T12:12:33Z</time>
      </trkpt>
      <trkpt lat="49.81755" lon="2.26769">
        <ele>113.7</ele>
        <time>2023-04-05T12:12:35Z</time>
      </trkpt>
      <trkpt lat="49.81756" lon="2.26768">
        <ele>113.7</ele>
        <time>2023-04-05T12:12:37Z</time>
      </trkpt>
      <trkpt lat="49.81757" lon="2.26767">
        <ele>113.7</ele>
        <time>2023-04-05T12:12:38Z</time>
      </trkpt>
      <trkpt lat="49.81758" lon="2.26766">
        <ele>113.7</ele>
        <time>2023-04-05T12:12:39Z</time>
      </trkpt>
      <trkpt lat="49.81758" lon="2.26765">
        <ele>113.6</ele>
        <time>2023-04-05T12:12:40Z</time>
      </trkpt>
      <trkpt lat="49.8176" lon="2.26763">
        <ele>113.6</ele>
        <time>2023-04-05T12:12:41Z</time>
      </trkpt>
      <trkpt lat="49.8176" lon="2.26762">
        <ele>113.6</ele>
        <time>2023-04-05T12:12:43Z</time>
      </trkpt>
      <trkpt lat="49.81761" lon="2.26761">
        <ele>113.6</ele>
        <time>2023-04-05T12:12:44Z</time>
      </trkpt>
      <trkpt lat="49.81762" lon="2.2676">
        <ele>113.6</ele>
        <time>2023-04-05T12:12:45Z</time>
      </trkpt>
      <trkpt lat="49.81763" lon="2.26758">
        <ele>113.6</ele>
        <time>2023-04-05T12:12:46Z</time>
      </trkpt>
      <trkpt lat="49.81765" lon="2.26757">
        <ele>113.6</ele>
        <time>2023-04-05T12:12:47Z</time>
      </trkpt>
      <trkpt lat="49.81766" lon="2.26756">
        <ele>113.6</ele>
        <time>2023-04-05T12:12:48Z</time>
      </trkpt>
      <trkpt lat="49.81767" lon="2.26756">
        <ele>113.6</ele>
        <time>2023-04-05T12:12:49Z</time>
      </trkpt>
      <trkpt lat="49.81768" lon="2.26755">
        <ele>113.6</ele>
        <time>2023-04-05T12:12:50Z</time>
      </trkpt>
      <trkpt lat="49.81769" lon="2.26754">
        <ele>113.5</ele>
        <time>2023-04-05T12:12:51Z</time>
      </trkpt>
      <trkpt lat="49.8177" lon="2.26753">
        <ele>113.5</ele>
        <time>2023-04-05T12:12:52Z</time>
      </trkpt>
      <trkpt lat="49.81771" lon="2.26752">
        <ele>113.5</ele>
        <time>2023-04-05T12:12:53Z</time>
      </trkpt>
      <trkpt lat="49.81772" lon="2.26751">
        <ele>113.5</ele>
        <time>2023-04-05T12:12:55Z</time>
      </trkpt>
      <trkpt lat="49.81772" lon="2.2675">
        <ele>113.5</ele>
        <time>2023-04-05T12:12:56Z</time>
      </trkpt>
      <trkpt lat="49.81774" lon="2.26747">
        <ele>113.5</ele>
        <time>2023-04-05T12:12:57Z</time>
      </trkpt>
      <trkpt lat="49.81774" lon="2.26746">
        <ele>113.5</ele>
        <time>2023-04-05T12:12:58Z</time>
      </trkpt>
      <trkpt lat="49.81775" lon="2.26745">
        <ele>113.5</ele>
        <time>2023-04-05T12:12:59Z</time>
      </trkpt>
      <trkpt lat="49.81775" lon="2.26744">
        <ele>113.5</ele>
        <time>2023-04-05T12:13:00Z</time>
      </trkpt>
      <trkpt lat="49.81776" lon="2.26743">
        <ele>113.5</ele>
        <time>2023-04-05T12:13:02Z</time>
      </trkpt>
      <trkpt lat="49.81777" lon="2.26741">
        <ele>113.5</ele>
        <time>2023-04-05T12:13:03Z</time>
      </trkpt>
      <trkpt lat="49.81778" lon="2.2674">
        <ele>113.4</ele>
        <time>2023-04-05T12:13:04Z</time>
      </trkpt>
      <trkpt lat="49.81779" lon="2.26739">
        <ele>113.4</ele>
        <time>2023-04-05T12:13:05Z</time>
      </trkpt>
      <trkpt lat="49.8178" lon="2.26738">
        <ele>113.4</ele>
        <time>2023-04-05T12:13:06Z</time>
      </trkpt>
      <trkpt lat="49.81781" lon="2.26737">
        <ele>113.4</ele>
        <time>2023-04-05T12:13:07Z</time>
      </trkpt>
      <trkpt lat="49.81782" lon="2.26736">
        <ele>113.4</ele>
        <time>2023-04-05T12:13:08Z</time>
      </trkpt>
      <trkpt lat="49.81783" lon="2.26735">
        <ele>113.4</ele>
        <time>2023-04-05T12:13:10Z</time>
      </trkpt>
      <trkpt lat="49.81785" lon="2.26733">
        <ele>113.4</ele>
        <time>2023-04-05T12:13:11Z</time>
      </trkpt>
      <trkpt lat="49.81785" lon="2.26732">
        <ele>113.4</ele>
        <time>2023-04-05T12:13:12Z</time>
      </trkpt>
      <trkpt lat="49.81786" lon="2.26731">
        <ele>113.4</ele>
        <time>2023-04-05T12:13:13Z</time>
      </trkpt>
      <trkpt lat="49.81787" lon="2.26729">
        <ele>113.3</ele>
        <time>2023-04-05T12:13:14Z</time>
      </trkpt>
      <trkpt lat="49.81789" lon="2.26728">
        <ele>113.3</ele>
        <time>2023-04-05T12:13:15Z</time>
      </trkpt>
      <trkpt lat="49.8179" lon="2.26726">
        <ele>113.3</ele>
        <time>2023-04-05T12:13:17Z</time>
      </trkpt>
      <trkpt lat="49.81791" lon="2.26725">
        <ele>113.3</ele>
        <time>2023-04-05T12:13:18Z</time>
      </trkpt>
      <trkpt lat="49.81792" lon="2.26723">
        <ele>113.3</ele>
        <time>2023-04-05T12:13:19Z</time>
      </trkpt>
      <trkpt lat="49.81793" lon="2.26722">
        <ele>113.2</ele>
        <time>2023-04-05T12:13:20Z</time>
      </trkpt>
      <trkpt lat="49.81794" lon="2.26721">
        <ele>113.2</ele>
        <time>2023-04-05T12:13:21Z</time>
      </trkpt>
      <trkpt lat="49.81795" lon="2.26719">
        <ele>113.2</ele>
        <time>2023-04-05T12:13:22Z</time>
      </trkpt>
      <trkpt lat="49.81796" lon="2.26718">
        <ele>113.2</ele>
        <time>2023-04-05T12:13:23Z</time>
      </trkpt>
      <trkpt lat="49.81797" lon="2.26717">
        <ele>113.2</ele>
        <time>2023-04-05T12:13:24Z</time>
      </trkpt>
      <trkpt lat="49.81798" lon="2.26716">
        <ele>113.2</ele>
        <time>2023-04-05T12:13:25Z</time>
      </trkpt>
      <trkpt lat="49.818" lon="2.26715">
        <ele>113.1</ele>
        <time>2023-04-05T12:13:26Z</time>
      </trkpt>
      <trkpt lat="49.818" lon="2.26714">
        <ele>113.1</ele>
        <time>2023-04-05T12:13:28Z</time>
      </trkpt>
      <trkpt lat="49.81801" lon="2.26713">
        <ele>113.1</ele>
        <time>2023-04-05T12:13:29Z</time>
      </trkpt>
      <trkpt lat="49.81802" lon="2.26712">
        <ele>113.1</ele>
        <time>2023-04-05T12:13:30Z</time>
      </trkpt>
      <trkpt lat="49.81803" lon="2.26711">
        <ele>113.1</ele>
        <time>2023-04-05T12:13:31Z</time>
      </trkpt>
      <trkpt lat="49.81804" lon="2.2671">
        <ele>113.1</ele>
        <time>2023-04-05T12:13:32Z</time>
      </trkpt>
      <trkpt lat="49.81804" lon="2.26709">
        <ele>113.1</ele>
        <time>2023-04-05T12:13:33Z</time>
      </trkpt>
      <trkpt lat="49.81805" lon="2.26707">
        <ele>113.1</ele>
        <time>2023-04-05T12:13:34Z</time>
      </trkpt>
      <trkpt lat="49.81806" lon="2.26706">
        <ele>113.1</ele>
        <time>2023-04-05T12:13:36Z</time>
      </trkpt>
      <trkpt lat="49.81806" lon="2.26705">
        <ele>113</ele>
        <time>2023-04-05T12:13:37Z</time>
      </trkpt>
      <trkpt lat="49.81808" lon="2.26703">
        <ele>113</ele>
        <time>2023-04-05T12:13:38Z</time>
      </trkpt>
      <trkpt lat="49.81809" lon="2.26701">
        <ele>113</ele>
        <time>2023-04-05T12:13:39Z</time>
      </trkpt>
      <trkpt lat="49.8181" lon="2.267">
        <ele>113</ele>
        <time>2023-04-05T12:13:40Z</time>
      </trkpt>
      <trkpt lat="49.8181" lon="2.26699">
        <ele>113</ele>
        <time>2023-04-05T12:13:41Z</time>
      </trkpt>
      <trkpt lat="49.81811" lon="2.26698">
        <ele>113</ele>
        <time>2023-04-05T12:13:43Z</time>
      </trkpt>
      <trkpt lat="49.81812" lon="2.26697">
        <ele>113</ele>
        <time>2023-04-05T12:13:44Z</time>
      </trkpt>
      <trkpt lat="49.81813" lon="2.26696">
        <ele>113</ele>
        <time>2023-04-05T12:13:45Z</time>
      </trkpt>
      <trkpt lat="49.81815" lon="2.26694">
        <ele>112.9</ele>
        <time>2023-04-05T12:13:46Z</time>
      </trkpt>
      <trkpt lat="49.81815" lon="2.26693">
        <ele>112.9</ele>
        <time>2023-04-05T12:13:47Z</time>
      </trkpt>
      <trkpt lat="49.81816" lon="2.26692">
        <ele>112.9</ele>
        <time>2023-04-05T12:13:48Z</time>
      </trkpt>
      <trkpt lat="49.81817" lon="2.2669">
        <ele>112.9</ele>
        <time>2023-04-05T12:13:49Z</time>
      </trkpt>
      <trkpt lat="49.81818" lon="2.26689">
        <ele>112.9</ele>
        <time>2023-04-05T12:13:50Z</time>
      </trkpt>
      <trkpt lat="49.81819" lon="2.26688">
        <ele>112.9</ele>
        <time>2023-04-05T12:13:51Z</time>
      </trkpt>
      <trkpt lat="49.81821" lon="2.26686">
        <ele>112.9</ele>
        <time>2023-04-05T12:13:52Z</time>
      </trkpt>
      <trkpt lat="49.81822" lon="2.26686">
        <ele>112.9</ele>
        <time>2023-04-05T12:13:53Z</time>
      </trkpt>
      <trkpt lat="49.81823" lon="2.26685">
        <ele>112.9</ele>
        <time>2023-04-05T12:13:55Z</time>
      </trkpt>
      <trkpt lat="49.81824" lon="2.26684">
        <ele>112.9</ele>
        <time>2023-04-05T12:13:56Z</time>
      </trkpt>
      <trkpt lat="49.81826" lon="2.26683">
        <ele>112.8</ele>
        <time>2023-04-05T12:13:57Z</time>
      </trkpt>
      <trkpt lat="49.81826" lon="2.26682">
        <ele>112.8</ele>
        <time>2023-04-05T12:13:58Z</time>
      </trkpt>
      <trkpt lat="49.81827" lon="2.26681">
        <ele>112.8</ele>
        <time>2023-04-05T12:13:59Z</time>
      </trkpt>
      <trkpt lat="49.81829" lon="2.26678">
        <ele>112.8</ele>
        <time>2023-04-05T12:14:00Z</time>
      </trkpt>
      <trkpt lat="49.8183" lon="2.26677">
        <ele>112.8</ele>
        <time>2023-04-05T12:14:02Z</time>
      </trkpt>
      <trkpt lat="49.81831" lon="2.26675">
        <ele>112.8</ele>
        <time>2023-04-05T12:14:03Z</time>
      </trkpt>
      <trkpt lat="49.81831" lon="2.26674">
        <ele>112.8</ele>
        <time>2023-04-05T12:14:04Z</time>
      </trkpt>
      <trkpt lat="49.81832" lon="2.26673">
        <ele>112.8</ele>
        <time>2023-04-05T12:14:05Z</time>
      </trkpt>
      <trkpt lat="49.81833" lon="2.26672">
        <ele>112.8</ele>
        <time>2023-04-05T12:14:06Z</time>
      </trkpt>
      <trkpt lat="49.81834" lon="2.26671">
        <ele>112.8</ele>
        <time>2023-04-05T12:14:07Z</time>
      </trkpt>
      <trkpt lat="49.81835" lon="2.26669">
        <ele>112.8</ele>
        <time>2023-04-05T12:14:08Z</time>
      </trkpt>
      <trkpt lat="49.81836" lon="2.26669">
        <ele>112.7</ele>
        <time>2023-04-05T12:14:09Z</time>
      </trkpt>
      <trkpt lat="49.81836" lon="2.26668">
        <ele>112.7</ele>
        <time>2023-04-05T12:14:10Z</time>
      </trkpt>
      <trkpt lat="49.81838" lon="2.26666">
        <ele>112.7</ele>
        <time>2023-04-05T12:14:11Z</time>
      </trkpt>
      <trkpt lat="49.81839" lon="2.26665">
        <ele>112.7</ele>
        <time>2023-04-05T12:14:12Z</time>
      </trkpt>
      <trkpt lat="49.8184" lon="2.26664">
        <ele>112.7</ele>
        <time>2023-04-05T12:14:14Z</time>
      </trkpt>
      <trkpt lat="49.81841" lon="2.26663">
        <ele>112.7</ele>
        <time>2023-04-05T12:14:15Z</time>
      </trkpt>
      <trkpt lat="49.81843" lon="2.26662">
        <ele>112.7</ele>
        <time>2023-04-05T12:14:16Z</time>
      </trkpt>
      <trkpt lat="49.81843" lon="2.26661">
        <ele>112.7</ele>
        <time>2023-04-05T12:14:17Z</time>
      </trkpt>
      <trkpt lat="49.81844" lon="2.2666">
        <ele>112.7</ele>
        <time>2023-04-05T12:14:18Z</time>
      </trkpt>
      <trkpt lat="49.81846" lon="2.26658">
        <ele>112.7</ele>
        <time>2023-04-05T12:14:20Z</time>
      </trkpt>
      <trkpt lat="49.81847" lon="2.26657">
        <ele>112.7</ele>
        <time>2023-04-05T12:14:21Z</time>
      </trkpt>
      <trkpt lat="49.81848" lon="2.26656">
        <ele>112.6</ele>
        <time>2023-04-05T12:14:22Z</time>
      </trkpt>
      <trkpt lat="49.81849" lon="2.26655">
        <ele>112.6</ele>
        <time>2023-04-05T12:14:24Z</time>
      </trkpt>
      <trkpt lat="49.8185" lon="2.26655">
        <ele>112.6</ele>
        <time>2023-04-05T12:14:25Z</time>
      </trkpt>
      <trkpt lat="49.81851" lon="2.26654">
        <ele>112.6</ele>
        <time>2023-04-05T12:14:26Z</time>
      </trkpt>
      <trkpt lat="49.81852" lon="2.26653">
        <ele>112.6</ele>
        <time>2023-04-05T12:14:27Z</time>
      </trkpt>
      <trkpt lat="49.81853" lon="2.26652">
        <ele>112.6</ele>
        <time>2023-04-05T12:14:29Z</time>
      </trkpt>
      <trkpt lat="49.81854" lon="2.26651">
        <ele>112.6</ele>
        <time>2023-04-05T12:14:30Z</time>
      </trkpt>
      <trkpt lat="49.81855" lon="2.26651">
        <ele>112.6</ele>
        <time>2023-04-05T12:14:31Z</time>
      </trkpt>
      <trkpt lat="49.81856" lon="2.2665">
        <ele>112.6</ele>
        <time>2023-04-05T12:14:32Z</time>
      </trkpt>
      <trkpt lat="49.81858" lon="2.26649">
        <ele>112.6</ele>
        <time>2023-04-05T12:14:33Z</time>
      </trkpt>
      <trkpt lat="49.81858" lon="2.26648">
        <ele>112.6</ele>
        <time>2023-04-05T12:14:34Z</time>
      </trkpt>
      <trkpt lat="49.81859" lon="2.26647">
        <ele>112.6</ele>
        <time>2023-04-05T12:14:35Z</time>
      </trkpt>
      <trkpt lat="49.81861" lon="2.26646">
        <ele>112.6</ele>
        <time>2023-04-05T12:14:36Z</time>
      </trkpt>
      <trkpt lat="49.81862" lon="2.26645">
        <ele>112.6</ele>
        <time>2023-04-05T12:14:37Z</time>
      </trkpt>
      <trkpt lat="49.81863" lon="2.26644">
        <ele>112.6</ele>
        <time>2023-04-05T12:14:39Z</time>
      </trkpt>
      <trkpt lat="49.81863" lon="2.26643">
        <ele>112.6</ele>
        <time>2023-04-05T12:14:40Z</time>
      </trkpt>
      <trkpt lat="49.81864" lon="2.26642">
        <ele>112.6</ele>
        <time>2023-04-05T12:14:41Z</time>
      </trkpt>
      <trkpt lat="49.81865" lon="2.26641">
        <ele>112.6</ele>
        <time>2023-04-05T12:14:42Z</time>
      </trkpt>
      <trkpt lat="49.81866" lon="2.26639">
        <ele>112.6</ele>
        <time>2023-04-05T12:14:43Z</time>
      </trkpt>
      <trkpt lat="49.81867" lon="2.26638">
        <ele>112.6</ele>
        <time>2023-04-05T12:14:44Z</time>
      </trkpt>
      <trkpt lat="49.8187" lon="2.26636">
        <ele>112.6</ele>
        <time>2023-04-05T12:14:45Z</time>
      </trkpt>
      <trkpt lat="49.81871" lon="2.26635">
        <ele>112.6</ele>
        <time>2023-04-05T12:14:46Z</time>
      </trkpt>
      <trkpt lat="49.81872" lon="2.26634">
        <ele>112.6</ele>
        <time>2023-04-05T12:14:47Z</time>
      </trkpt>
      <trkpt lat="49.81872" lon="2.26634">
        <ele>112.6</ele>
        <time>2023-04-05T12:14:49Z</time>
      </trkpt>
      <trkpt lat="49.81873" lon="2.26633">
        <ele>112.5</ele>
        <time>2023-04-05T12:14:50Z</time>
      </trkpt>
      <trkpt lat="49.81874" lon="2.26632">
        <ele>112.5</ele>
        <time>2023-04-05T12:14:51Z</time>
      </trkpt>
      <trkpt lat="49.81876" lon="2.26631">
        <ele>112.5</ele>
        <time>2023-04-05T12:14:52Z</time>
      </trkpt>
      <trkpt lat="49.81877" lon="2.26632">
        <ele>112.5</ele>
        <time>2023-04-05T12:14:53Z</time>
      </trkpt>
      <trkpt lat="49.81877" lon="2.26632">
        <ele>112.5</ele>
        <time>2023-04-05T12:14:54Z</time>
      </trkpt>
      <trkpt lat="49.81879" lon="2.26633">
        <ele>112.5</ele>
        <time>2023-04-05T12:14:55Z</time>
      </trkpt>
      <trkpt lat="49.8188" lon="2.26634">
        <ele>112.5</ele>
        <time>2023-04-05T12:14:57Z</time>
      </trkpt>
      <trkpt lat="49.81881" lon="2.26634">
        <ele>112.5</ele>
        <time>2023-04-05T12:14:58Z</time>
      </trkpt>
      <trkpt lat="49.81882" lon="2.26635">
        <ele>112.5</ele>
        <time>2023-04-05T12:15:00Z</time>
      </trkpt>
      <trkpt lat="49.81883" lon="2.26636">
        <ele>112.5</ele>
        <time>2023-04-05T12:15:01Z</time>
      </trkpt>
      <trkpt lat="49.81884" lon="2.26637">
        <ele>112.5</ele>
        <time>2023-04-05T12:15:03Z</time>
      </trkpt>
      <trkpt lat="49.81884" lon="2.26638">
        <ele>112.5</ele>
        <time>2023-04-05T12:15:04Z</time>
      </trkpt>
      <trkpt lat="49.81885" lon="2.26639">
        <ele>112.5</ele>
        <time>2023-04-05T12:15:05Z</time>
      </trkpt>
      <trkpt lat="49.81885" lon="2.26638">
        <ele>112.5</ele>
        <time>2023-04-05T12:15:06Z</time>
      </trkpt>
      <trkpt lat="49.81885" lon="2.26637">
        <ele>112.5</ele>
        <time>2023-04-05T12:15:08Z</time>
      </trkpt>
      <trkpt lat="49.81884" lon="2.26635">
        <ele>112.5</ele>
        <time>2023-04-05T12:15:09Z</time>
      </trkpt>
      <trkpt lat="49.81884" lon="2.26634">
        <ele>112.5</ele>
        <time>2023-04-05T12:15:10Z</time>
      </trkpt>
      <trkpt lat="49.81882" lon="2.26633">
        <ele>112.5</ele>
        <time>2023-04-05T12:15:12Z</time>
      </trkpt>
      <trkpt lat="49.81881" lon="2.26632">
        <ele>112.5</ele>
        <time>2023-04-05T12:15:13Z</time>
      </trkpt>
      <trkpt lat="49.81881" lon="2.26632">
        <ele>112.5</ele>
        <time>2023-04-05T12:15:15Z</time>
      </trkpt>
      <trkpt lat="49.8188" lon="2.26632">
        <ele>112.5</ele>
        <time>2023-04-05T12:15:16Z</time>
      </trkpt>
      <trkpt lat="49.8188" lon="2.26632">
        <ele>112.5</ele>
        <time>2023-04-05T12:15:18Z</time>
      </trkpt>
      <trkpt lat="49.8188" lon="2.26632">
        <ele>112.5</ele>
        <time>2023-04-05T12:15:20Z</time>
      </trkpt>
      <trkpt lat="49.8188" lon="2.26631">
        <ele>112.5</ele>
        <time>2023-04-05T12:15:21Z</time>
      </trkpt>
      <trkpt lat="49.8188" lon="2.26631">
        <ele>112.5</ele>
        <time>2023-04-05T12:15:23Z</time>
      </trkpt>
      <trkpt lat="49.8188" lon="2.26631">
        <ele>112.5</ele>
        <time>2023-04-05T12:15:24Z</time>
      </trkpt>
      <trkpt lat="49.81881" lon="2.26631">
        <ele>112.5</ele>
        <time>2023-04-05T12:15:25Z</time>
      </trkpt>
      <trkpt lat="49.81881" lon="2.26631">
        <ele>112.5</ele>
        <time>2023-04-05T12:15:27Z</time>
      </trkpt>
      <trkpt lat="49.8188" lon="2.26632">
        <ele>112.5</ele>
        <time>2023-04-05T12:15:29Z</time>
      </trkpt>
      <trkpt lat="49.8188" lon="2.26633">
        <ele>112.5</ele>
        <time>2023-04-05T12:15:30Z</time>
      </trkpt>
      <trkpt lat="49.81879" lon="2.26634">
        <ele>112.5</ele>
        <time>2023-04-05T12:15:31Z</time>
      </trkpt>
      <trkpt lat="49.81878" lon="2.26634">
        <ele>112.5</ele>
        <time>2023-04-05T12:15:33Z</time>
      </trkpt>
      <trkpt lat="49.81878" lon="2.26634">
        <ele>112.5</ele>
        <time>2023-04-05T12:15:34Z</time>
      </trkpt>
      <trkpt lat="49.81878" lon="2.26633">
        <ele>112.5</ele>
        <time>2023-04-05T12:15:36Z</time>
      </trkpt>
      <trkpt lat="49.81878" lon="2.26633">
        <ele>112.5</ele>
        <time>2023-04-05T12:15:37Z</time>
      </trkpt>
      <trkpt lat="49.81878" lon="2.26633">
        <ele>112.5</ele>
        <time>2023-04-05T12:15:38Z</time>
      </trkpt>
      <trkpt lat="49.81878" lon="2.26634">
        <ele>112.5</ele>
        <time>2023-04-05T12:15:40Z</time>
      </trkpt>
      <trkpt lat="49.81879" lon="2.26634">
        <ele>112.5</ele>
        <time>2023-04-05T12:15:41Z</time>
      </trkpt>
      <trkpt lat="49.81879" lon="2.26634">
        <ele>112.5</ele>
        <time>2023-04-05T12:15:43Z</time>
      </trkpt>
      <trkpt lat="49.81879" lon="2.26634">
        <ele>112.5</ele>
        <time>2023-04-05T12:15:44Z</time>
      </trkpt>
      <trkpt lat="49.81879" lon="2.26634">
        <ele>112.5</ele>
        <time>2023-04-05T12:15:45Z</time>
      </trkpt>
      <trkpt lat="49.81879" lon="2.26634">
        <ele>112.5</ele>
        <time>2023-04-05T12:15:47Z</time>
      </trkpt>
      <trkpt lat="49.8188" lon="2.26634">
        <ele>112.5</ele>
        <time>2023-04-05T12:15:48Z</time>
      </trkpt>
      <trkpt lat="49.8188" lon="2.26634">
        <ele>112.5</ele>
        <time>2023-04-05T12:15:49Z</time>
      </trkpt>
      <trkpt lat="49.8188" lon="2.26634">
        <ele>112.5</ele>
        <time>2023-04-05T12:15:50Z</time>
      </trkpt>
      <trkpt lat="49.8188" lon="2.26634">
        <ele>112.5</ele>
        <time>2023-04-05T12:15:51Z</time>
      </trkpt>
      <trkpt lat="49.8188" lon="2.26634">
        <ele>112.5</ele>
        <time>2023-04-05T12:15:52Z</time>
      </trkpt>
      <trkpt lat="49.8188" lon="2.26634">
        <ele>112.5</ele>
        <time>2023-04-05T12:15:53Z</time>
      </trkpt>
      <trkpt lat="49.8188" lon="2.26634">
        <ele>112.5</ele>
        <time>2023-04-05T12:15:54Z</time>
      </trkpt>
      <trkpt lat="49.8188" lon="2.26634">
        <ele>112.5</ele>
        <time>2023-04-05T12:15:55Z</time>
      </trkpt>
      <trkpt lat="49.8188" lon="2.26634">
        <ele>112.5</ele>
        <time>2023-04-05T12:15:56Z</time>
      </trkpt>
      <trkpt lat="49.8188" lon="2.26634">
        <ele>112.5</ele>
        <time>2023-04-05T12:15:57Z</time>
      </trkpt>
      <trkpt lat="49.8188" lon="2.26634">
        <ele>112.5</ele>
        <time>2023-04-05T12:15:58Z</time>
      </trkpt>
      <trkpt lat="49.8188" lon="2.26634">
        <ele>112.5</ele>
        <time>2023-04-05T12:15:59Z</time>
      </trkpt>
      <trkpt lat="49.8188" lon="2.26634">
        <ele>112.5</ele>
        <time>2023-04-05T12:16:00Z</time>
      </trkpt>
      <trkpt lat="49.8188" lon="2.26634">
        <ele>112.5</ele>
        <time>2023-04-05T12:16:01Z</time>
      </trkpt>
      <trkpt lat="49.8188" lon="2.26634">
        <ele>112.5</ele>
        <time>2023-04-05T12:16:02Z</time>
      </trkpt>
      <trkpt lat="49.8188" lon="2.26634">
        <ele>112.5</ele>
        <time>2023-04-05T12:16:03Z</time>
      </trkpt>
      <trkpt lat="49.8188" lon="2.26634">
        <ele>112.5</ele>
        <time>2023-04-05T12:16:04Z</time>
      </trkpt>
      <trkpt lat="49.8188" lon="2.26634">
        <ele>112.5</ele>
        <time>2023-04-05T12:16:05Z</time>
      </trkpt>
      <trkpt lat="49.8188" lon="2.26634">
        <ele>112.5</ele>
        <time>2023-04-05T12:16:06Z</time>
      </trkpt>
      <trkpt lat="49.8188" lon="2.26634">
        <ele>112.5</ele>
        <time>2023-04-05T12:16:07Z</time>
      </trkpt>
      <trkpt lat="49.8188" lon="2.26634">
        <ele>112.5</ele>
        <time>2023-04-05T12:16:08Z</time>
      </trkpt>
      <trkpt lat="49.8188" lon="2.26634">
        <ele>112.5</ele>
        <time>2023-04-05T12:16:09Z</time>
      </trkpt>
      <trkpt lat="49.8188" lon="2.26634">
        <ele>112.5</ele>
        <time>2023-04-05T12:16:10Z</time>
      </trkpt>
      <trkpt lat="49.81879" lon="2.26637">
        <ele>112.5</ele>
        <time>2023-04-05T12:16:11Z</time>
      </trkpt>
      <trkpt lat="49.81879" lon="2.26637">
        <ele>112.5</ele>
        <time>2023-04-05T12:16:12Z</time>
      </trkpt>
      <trkpt lat="49.81879" lon="2.26638">
        <ele>112.5</ele>
        <time>2023-04-05T12:16:13Z</time>
      </trkpt>
      <trkpt lat="49.81879" lon="2.26638">
        <ele>112.5</ele>
        <time>2023-04-05T12:16:14Z</time>
      </trkpt>
      <trkpt lat="49.81879" lon="2.26637">
        <ele>112.5</ele>
        <time>2023-04-05T12:16:15Z</time>
      </trkpt>
      <trkpt lat="49.81878" lon="2.26637">
        <ele>112.5</ele>
        <time>2023-04-05T12:16:16Z</time>
      </trkpt>
      <trkpt lat="49.81878" lon="2.26637">
        <ele>112.5</ele>
        <time>2023-04-05T12:16:17Z</time>
      </trkpt>
      <trkpt lat="49.81878" lon="2.26637">
        <ele>112.5</ele>
        <time>2023-04-05T12:16:18Z</time>
      </trkpt>
      <trkpt lat="49.81878" lon="2.26638">
        <ele>112.5</ele>
        <time>2023-04-05T12:16:19Z</time>
      </trkpt>
      <trkpt lat="49.81878" lon="2.26638">
        <ele>112.5</ele>
        <time>2023-04-05T12:16:21Z</time>
      </trkpt>
      <trkpt lat="49.81879" lon="2.26637">
        <ele>112.5</ele>
        <time>2023-04-05T12:16:22Z</time>
      </trkpt>
      <trkpt lat="49.81879" lon="2.26637">
        <ele>112.5</ele>
        <time>2023-04-05T12:16:23Z</time>
      </trkpt>
      <trkpt lat="49.81879" lon="2.26636">
        <ele>112.5</ele>
        <time>2023-04-05T12:16:24Z</time>
      </trkpt>
      <trkpt lat="49.81879" lon="2.26636">
        <ele>112.5</ele>
        <time>2023-04-05T12:16:25Z</time>
      </trkpt>
      <trkpt lat="49.81879" lon="2.26636">
        <ele>112.5</ele>
        <time>2023-04-05T12:16:27Z</time>
      </trkpt>
      <trkpt lat="49.81879" lon="2.26635">
        <ele>112.5</ele>
        <time>2023-04-05T12:16:28Z</time>
      </trkpt>
      <trkpt lat="49.81879" lon="2.26635">
        <ele>112.5</ele>
        <time>2023-04-05T12:16:29Z</time>
      </trkpt>
      <trkpt lat="49.81879" lon="2.26634">
        <ele>112.5</ele>
        <time>2023-04-05T12:16:30Z</time>
      </trkpt>
      <trkpt lat="49.81879" lon="2.26632">
        <ele>112.5</ele>
        <time>2023-04-05T12:16:32Z</time>
      </trkpt>
      <trkpt lat="49.8188" lon="2.26629">
        <ele>112.5</ele>
        <time>2023-04-05T12:16:33Z</time>
      </trkpt>
      <trkpt lat="49.81881" lon="2.26628">
        <ele>112.5</ele>
        <time>2023-04-05T12:16:34Z</time>
      </trkpt>
      <trkpt lat="49.81881" lon="2.26626">
        <ele>112.5</ele>
        <time>2023-04-05T12:16:36Z</time>
      </trkpt>
      <trkpt lat="49.81881" lon="2.26625">
        <ele>112.5</ele>
        <time>2023-04-05T12:16:37Z</time>
      </trkpt>
      <trkpt lat="49.81882" lon="2.26624">
        <ele>112.5</ele>
        <time>2023-04-05T12:16:38Z</time>
      </trkpt>
      <trkpt lat="49.81882" lon="2.26622">
        <ele>112.5</ele>
        <time>2023-04-05T12:16:39Z</time>
      </trkpt>
      <trkpt lat="49.81883" lon="2.2662">
        <ele>112.5</ele>
        <time>2023-04-05T12:16:40Z</time>
      </trkpt>
      <trkpt lat="49.81884" lon="2.26619">
        <ele>112.5</ele>
        <time>2023-04-05T12:16:41Z</time>
      </trkpt>
      <trkpt lat="49.81884" lon="2.26618">
        <ele>112.5</ele>
        <time>2023-04-05T12:16:43Z</time>
      </trkpt>
      <trkpt lat="49.81885" lon="2.26617">
        <ele>112.5</ele>
        <time>2023-04-05T12:16:44Z</time>
      </trkpt>
      <trkpt lat="49.81886" lon="2.26615">
        <ele>112.5</ele>
        <time>2023-04-05T12:16:45Z</time>
      </trkpt>
      <trkpt lat="49.81887" lon="2.26614">
        <ele>112.5</ele>
        <time>2023-04-05T12:16:46Z</time>
      </trkpt>
      <trkpt lat="49.81887" lon="2.26613">
        <ele>112.5</ele>
        <time>2023-04-05T12:16:47Z</time>
      </trkpt>
      <trkpt lat="49.81888" lon="2.26612">
        <ele>112.5</ele>
        <time>2023-04-05T12:16:49Z</time>
      </trkpt>
      <trkpt lat="49.81889" lon="2.26612">
        <ele>112.5</ele>
        <time>2023-04-05T12:16:50Z</time>
      </trkpt>
      <trkpt lat="49.8189" lon="2.26611">
        <ele>112.5</ele>
        <time>2023-04-05T12:16:51Z</time>
      </trkpt>
      <trkpt lat="49.81892" lon="2.2661">
        <ele>112.5</ele>
        <time>2023-04-05T12:16:52Z</time>
      </trkpt>
      <trkpt lat="49.81894" lon="2.26607">
        <ele>112.5</ele>
        <time>2023-04-05T12:16:53Z</time>
      </trkpt>
      <trkpt lat="49.81895" lon="2.26606">
        <ele>112.5</ele>
        <time>2023-04-05T12:16:54Z</time>
      </trkpt>
      <trkpt lat="49.81898" lon="2.26604">
        <ele>112.5</ele>
        <time>2023-04-05T12:16:55Z</time>
      </trkpt>
      <trkpt lat="49.81898" lon="2.26603">
        <ele>112.5</ele>
        <time>2023-04-05T12:16:56Z</time>
      </trkpt>
      <trkpt lat="49.819" lon="2.26602">
        <ele>112.5</ele>
        <time>2023-04-05T12:16:57Z</time>
      </trkpt>
      <trkpt lat="49.81901" lon="2.266">
        <ele>112.5</ele>
        <time>2023-04-05T12:16:58Z</time>
      </trkpt>
      <trkpt lat="49.81902" lon="2.26598">
        <ele>112.6</ele>
        <time>2023-04-05T12:17:00Z</time>
      </trkpt>
      <trkpt lat="49.81903" lon="2.26597">
        <ele>112.6</ele>
        <time>2023-04-05T12:17:01Z</time>
      </trkpt>
      <trkpt lat="49.81903" lon="2.26596">
        <ele>112.6</ele>
        <time>2023-04-05T12:17:02Z</time>
      </trkpt>
      <trkpt lat="49.81904" lon="2.26593">
        <ele>112.6</ele>
        <time>2023-04-05T12:17:03Z</time>
      </trkpt>
      <trkpt lat="49.81905" lon="2.26591">
        <ele>112.6</ele>
        <time>2023-04-05T12:17:04Z</time>
      </trkpt>
      <trkpt lat="49.81906" lon="2.26589">
        <ele>112.6</ele>
        <time>2023-04-05T12:17:05Z</time>
      </trkpt>
      <trkpt lat="49.81907" lon="2.26587">
        <ele>112.6</ele>
        <time>2023-04-05T12:17:06Z</time>
      </trkpt>
      <trkpt lat="49.81908" lon="2.26586">
        <ele>112.6</ele>
        <time>2023-04-05T12:17:08Z</time>
      </trkpt>
      <trkpt lat="49.81909" lon="2.26585">
        <ele>112.6</ele>
        <time>2023-04-05T12:17:09Z</time>
      </trkpt>
      <trkpt lat="49.8191" lon="2.26583">
        <ele>112.6</ele>
        <time>2023-04-05T12:17:10Z</time>
      </trkpt>
      <trkpt lat="49.81911" lon="2.26582">
        <ele>112.7</ele>
        <time>2023-04-05T12:17:11Z</time>
      </trkpt>
      <trkpt lat="49.81912" lon="2.2658">
        <ele>112.7</ele>
        <time>2023-04-05T12:17:13Z</time>
      </trkpt>
      <trkpt lat="49.81913" lon="2.26579">
        <ele>112.7</ele>
        <time>2023-04-05T12:17:14Z</time>
      </trkpt>
      <trkpt lat="49.81914" lon="2.26577">
        <ele>112.7</ele>
        <time>2023-04-05T12:17:15Z</time>
      </trkpt>
      <trkpt lat="49.81915" lon="2.26576">
        <ele>112.7</ele>
        <time>2023-04-05T12:17:16Z</time>
      </trkpt>
      <trkpt lat="49.81916" lon="2.26574">
        <ele>112.7</ele>
        <time>2023-04-05T12:17:17Z</time>
      </trkpt>
      <trkpt lat="49.81917" lon="2.26572">
        <ele>112.7</ele>
        <time>2023-04-05T12:17:18Z</time>
      </trkpt>
      <trkpt lat="49.81919" lon="2.26571">
        <ele>112.7</ele>
        <time>2023-04-05T12:17:19Z</time>
      </trkpt>
      <trkpt lat="49.8192" lon="2.26569">
        <ele>112.7</ele>
        <time>2023-04-05T12:17:20Z</time>
      </trkpt>
      <trkpt lat="49.8192" lon="2.26567">
        <ele>112.8</ele>
        <time>2023-04-05T12:17:21Z</time>
      </trkpt>
      <trkpt lat="49.81921" lon="2.26566">
        <ele>112.8</ele>
        <time>2023-04-05T12:17:22Z</time>
      </trkpt>
      <trkpt lat="49.81922" lon="2.26564">
        <ele>112.8</ele>
        <time>2023-04-05T12:17:24Z</time>
      </trkpt>
      <trkpt lat="49.81923" lon="2.26562">
        <ele>112.8</ele>
        <time>2023-04-05T12:17:25Z</time>
      </trkpt>
      <trkpt lat="49.81924" lon="2.2656">
        <ele>112.8</ele>
        <time>2023-04-05T12:17:26Z</time>
      </trkpt>
      <trkpt lat="49.81925" lon="2.26559">
        <ele>112.8</ele>
        <time>2023-04-05T12:17:27Z</time>
      </trkpt>
      <trkpt lat="49.81926" lon="2.26557">
        <ele>112.8</ele>
        <time>2023-04-05T12:17:28Z</time>
      </trkpt>
      <trkpt lat="49.81927" lon="2.26555">
        <ele>112.9</ele>
        <time>2023-04-05T12:17:29Z</time>
      </trkpt>
      <trkpt lat="49.81928" lon="2.26553">
        <ele>112.9</ele>
        <time>2023-04-05T12:17:30Z</time>
      </trkpt>
      <trkpt lat="49.81929" lon="2.26551">
        <ele>112.9</ele>
        <time>2023-04-05T12:17:31Z</time>
      </trkpt>
      <trkpt lat="49.8193" lon="2.26549">
        <ele>112.9</ele>
        <time>2023-04-05T12:17:33Z</time>
      </trkpt>
      <trkpt lat="49.81931" lon="2.26547">
        <ele>112.9</ele>
        <time>2023-04-05T12:17:34Z</time>
      </trkpt>
      <trkpt lat="49.81932" lon="2.26546">
        <ele>112.9</ele>
        <time>2023-04-05T12:17:35Z</time>
      </trkpt>
      <trkpt lat="49.81933" lon="2.26543">
        <ele>113</ele>
        <time>2023-04-05T12:17:36Z</time>
      </trkpt>
      <trkpt lat="49.81934" lon="2.26541">
        <ele>113</ele>
        <time>2023-04-05T12:17:37Z</time>
      </trkpt>
      <trkpt lat="49.81935" lon="2.26539">
        <ele>113</ele>
        <time>2023-04-05T12:17:38Z</time>
      </trkpt>
      <trkpt lat="49.81935" lon="2.26537">
        <ele>113</ele>
        <time>2023-04-05T12:17:39Z</time>
      </trkpt>
      <trkpt lat="49.81936" lon="2.26535">
        <ele>113</ele>
        <time>2023-04-05T12:17:41Z</time>
      </trkpt>
      <trkpt lat="49.81937" lon="2.26533">
        <ele>113</ele>
        <time>2023-04-05T12:17:42Z</time>
      </trkpt>
      <trkpt lat="49.81938" lon="2.26531">
        <ele>113.1</ele>
        <time>2023-04-05T12:17:43Z</time>
      </trkpt>
      <trkpt lat="49.81938" lon="2.26529">
        <ele>113.1</ele>
        <time>2023-04-05T12:17:44Z</time>
      </trkpt>
      <trkpt lat="49.81939" lon="2.26526">
        <ele>113.1</ele>
        <time>2023-04-05T12:17:45Z</time>
      </trkpt>
      <trkpt lat="49.8194" lon="2.26525">
        <ele>113.1</ele>
        <time>2023-04-05T12:17:46Z</time>
      </trkpt>
      <trkpt lat="49.8194" lon="2.26524">
        <ele>113.1</ele>
        <time>2023-04-05T12:17:47Z</time>
      </trkpt>
      <trkpt lat="49.81941" lon="2.26522">
        <ele>113.1</ele>
        <time>2023-04-05T12:17:48Z</time>
      </trkpt>
      <trkpt lat="49.81942" lon="2.2652">
        <ele>113.1</ele>
        <time>2023-04-05T12:17:50Z</time>
      </trkpt>
      <trkpt lat="49.81943" lon="2.26519">
        <ele>113.2</ele>
        <time>2023-04-05T12:17:51Z</time>
      </trkpt>
      <trkpt lat="49.81944" lon="2.26516">
        <ele>113.2</ele>
        <time>2023-04-05T12:17:52Z</time>
      </trkpt>
      <trkpt lat="49.81944" lon="2.26515">
        <ele>113.2</ele>
        <time>2023-04-05T12:17:53Z</time>
      </trkpt>
      <trkpt lat="49.81945" lon="2.26513">
        <ele>113.2</ele>
        <time>2023-04-05T12:17:54Z</time>
      </trkpt>
      <trkpt lat="49.81946" lon="2.26511">
        <ele>113.2</ele>
        <time>2023-04-05T12:17:55Z</time>
      </trkpt>
      <trkpt lat="49.81947" lon="2.26509">
        <ele>113.2</ele>
        <time>2023-04-05T12:17:56Z</time>
      </trkpt>
      <trkpt lat="49.81948" lon="2.26507">
        <ele>113.2</ele>
        <time>2023-04-05T12:17:57Z</time>
      </trkpt>
      <trkpt lat="49.81949" lon="2.26505">
        <ele>113.2</ele>
        <time>2023-04-05T12:17:58Z</time>
      </trkpt>
      <trkpt lat="49.8195" lon="2.26503">
        <ele>113.2</ele>
        <time>2023-04-05T12:17:59Z</time>
      </trkpt>
      <trkpt lat="49.81951" lon="2.26502">
        <ele>113.2</ele>
        <time>2023-04-05T12:18:01Z</time>
      </trkpt>
      <trkpt lat="49.81951" lon="2.26501">
        <ele>113.3</ele>
        <time>2023-04-05T12:18:02Z</time>
      </trkpt>
      <trkpt lat="49.81952" lon="2.26499">
        <ele>113.3</ele>
        <time>2023-04-05T12:18:03Z</time>
      </trkpt>
      <trkpt lat="49.81953" lon="2.26497">
        <ele>113.3</ele>
        <time>2023-04-05T12:18:04Z</time>
      </trkpt>
      <trkpt lat="49.81954" lon="2.26496">
        <ele>113.3</ele>
        <time>2023-04-05T12:18:05Z</time>
      </trkpt>
      <trkpt lat="49.81955" lon="2.26494">
        <ele>113.3</ele>
        <time>2023-04-05T12:18:07Z</time>
      </trkpt>
      <trkpt lat="49.81956" lon="2.26492">
        <ele>113.3</ele>
        <time>2023-04-05T12:18:08Z</time>
      </trkpt>
      <trkpt lat="49.81957" lon="2.2649">
        <ele>113.3</ele>
        <time>2023-04-05T12:18:09Z</time>
      </trkpt>
      <trkpt lat="49.81958" lon="2.26488">
        <ele>113.3</ele>
        <time>2023-04-05T12:18:10Z</time>
      </trkpt>
      <trkpt lat="49.81959" lon="2.26485">
        <ele>113.3</ele>
        <time>2023-04-05T12:18:11Z</time>
      </trkpt>
      <trkpt lat="49.8196" lon="2.26484">
        <ele>113.3</ele>
        <time>2023-04-05T12:18:12Z</time>
      </trkpt>
      <trkpt lat="49.81961" lon="2.26482">
        <ele>113.4</ele>
        <time>2023-04-05T12:18:13Z</time>
      </trkpt>
      <trkpt lat="49.81962" lon="2.26479">
        <ele>113.4</ele>
        <time>2023-04-05T12:18:14Z</time>
      </trkpt>
      <trkpt lat="49.81963" lon="2.26478">
        <ele>113.4</ele>
        <time>2023-04-05T12:18:16Z</time>
      </trkpt>
      <trkpt lat="49.81964" lon="2.26477">
        <ele>113.4</ele>
        <time>2023-04-05T12:18:17Z</time>
      </trkpt>
      <trkpt lat="49.81964" lon="2.26476">
        <ele>113.4</ele>
        <time>2023-04-05T12:18:18Z</time>
      </trkpt>
      <trkpt lat="49.81966" lon="2.26473">
        <ele>113.4</ele>
        <time>2023-04-05T12:18:19Z</time>
      </trkpt>
      <trkpt lat="49.81966" lon="2.26472">
        <ele>113.4</ele>
        <time>2023-04-05T12:18:20Z</time>
      </trkpt>
      <trkpt lat="49.81967" lon="2.26471">
        <ele>113.4</ele>
        <time>2023-04-05T12:18:21Z</time>
      </trkpt>
      <trkpt lat="49.81968" lon="2.26469">
        <ele>113.4</ele>
        <time>2023-04-05T12:18:23Z</time>
      </trkpt>
      <trkpt lat="49.8197" lon="2.26466">
        <ele>113.5</ele>
        <time>2023-04-05T12:18:24Z</time>
      </trkpt>
      <trkpt lat="49.81971" lon="2.26464">
        <ele>113.5</ele>
        <time>2023-04-05T12:18:26Z</time>
      </trkpt>
      <trkpt lat="49.81972" lon="2.26463">
        <ele>113.5</ele>
        <time>2023-04-05T12:18:27Z</time>
      </trkpt>
      <trkpt lat="49.81972" lon="2.26461">
        <ele>113.5</ele>
        <time>2023-04-05T12:18:28Z</time>
      </trkpt>
      <trkpt lat="49.81972" lon="2.26459">
        <ele>113.5</ele>
        <time>2023-04-05T12:18:29Z</time>
      </trkpt>
      <trkpt lat="49.81973" lon="2.26456">
        <ele>113.5</ele>
        <time>2023-04-05T12:18:30Z</time>
      </trkpt>
      <trkpt lat="49.81974" lon="2.26455">
        <ele>113.5</ele>
        <time>2023-04-05T12:18:31Z</time>
      </trkpt>
      <trkpt lat="49.81975" lon="2.26453">
        <ele>113.5</ele>
        <time>2023-04-05T12:18:32Z</time>
      </trkpt>
      <trkpt lat="49.81976" lon="2.26451">
        <ele>113.6</ele>
        <time>2023-04-05T12:18:34Z</time>
      </trkpt>
      <trkpt lat="49.81976" lon="2.26448">
        <ele>113.6</ele>
        <time>2023-04-05T12:18:35Z</time>
      </trkpt>
      <trkpt lat="49.81977" lon="2.26446">
        <ele>113.6</ele>
        <time>2023-04-05T12:18:36Z</time>
      </trkpt>
      <trkpt lat="49.81978" lon="2.26444">
        <ele>113.6</ele>
        <time>2023-04-05T12:18:37Z</time>
      </trkpt>
      <trkpt lat="49.81979" lon="2.26442">
        <ele>113.6</ele>
        <time>2023-04-05T12:18:39Z</time>
      </trkpt>
      <trkpt lat="49.81979" lon="2.2644">
        <ele>113.6</ele>
        <time>2023-04-05T12:18:40Z</time>
      </trkpt>
      <trkpt lat="49.8198" lon="2.26438">
        <ele>113.6</ele>
        <time>2023-04-05T12:18:41Z</time>
      </trkpt>
      <trkpt lat="49.81981" lon="2.26436">
        <ele>113.6</ele>
        <time>2023-04-05T12:18:42Z</time>
      </trkpt>
      <trkpt lat="49.81982" lon="2.26434">
        <ele>113.7</ele>
        <time>2023-04-05T12:18:43Z</time>
      </trkpt>
      <trkpt lat="49.81983" lon="2.26432">
        <ele>113.7</ele>
        <time>2023-04-05T12:18:44Z</time>
      </trkpt>
      <trkpt lat="49.81983" lon="2.26431">
        <ele>113.7</ele>
        <time>2023-04-05T12:18:45Z</time>
      </trkpt>
      <trkpt lat="49.81984" lon="2.26429">
        <ele>113.7</ele>
        <time>2023-04-05T12:18:46Z</time>
      </trkpt>
      <trkpt lat="49.81984" lon="2.26426">
        <ele>113.7</ele>
        <time>2023-04-05T12:18:48Z</time>
      </trkpt>
      <trkpt lat="49.81985" lon="2.26423">
        <ele>113.7</ele>
        <time>2023-04-05T12:18:49Z</time>
      </trkpt>
      <trkpt lat="49.81986" lon="2.26422">
        <ele>113.7</ele>
        <time>2023-04-05T12:18:50Z</time>
      </trkpt>
      <trkpt lat="49.81986" lon="2.26421">
        <ele>113.7</ele>
        <time>2023-04-05T12:18:51Z</time>
      </trkpt>
      <trkpt lat="49.81987" lon="2.26418">
        <ele>113.7</ele>
        <time>2023-04-05T12:18:52Z</time>
      </trkpt>
      <trkpt lat="49.81988" lon="2.26416">
        <ele>113.7</ele>
        <time>2023-04-05T12:18:53Z</time>
      </trkpt>
      <trkpt lat="49.81989" lon="2.26414">
        <ele>113.7</ele>
        <time>2023-04-05T12:18:55Z</time>
      </trkpt>
      <trkpt lat="49.8199" lon="2.26412">
        <ele>113.6</ele>
        <time>2023-04-05T12:18:56Z</time>
      </trkpt>
      <trkpt lat="49.81991" lon="2.2641">
        <ele>113.6</ele>
        <time>2023-04-05T12:18:57Z</time>
      </trkpt>
      <trkpt lat="49.81991" lon="2.26408">
        <ele>113.6</ele>
        <time>2023-04-05T12:18:58Z</time>
      </trkpt>
      <trkpt lat="49.81992" lon="2.26406">
        <ele>113.6</ele>
        <time>2023-04-05T12:18:59Z</time>
      </trkpt>
      <trkpt lat="49.81992" lon="2.26404">
        <ele>113.5</ele>
        <time>2023-04-05T12:19:00Z</time>
      </trkpt>
      <trkpt lat="49.81993" lon="2.26402">
        <ele>113.5</ele>
        <time>2023-04-05T12:19:02Z</time>
      </trkpt>
      <trkpt lat="49.81993" lon="2.264">
        <ele>113.5</ele>
        <time>2023-04-05T12:19:03Z</time>
      </trkpt>
      <trkpt lat="49.81993" lon="2.26399">
        <ele>113.5</ele>
        <time>2023-04-05T12:19:04Z</time>
      </trkpt>
      <trkpt lat="49.81994" lon="2.26398">
        <ele>113.5</ele>
        <time>2023-04-05T12:19:05Z</time>
      </trkpt>
      <trkpt lat="49.81995" lon="2.26398">
        <ele>113.4</ele>
        <time>2023-04-05T12:19:06Z</time>
      </trkpt>
      <trkpt lat="49.81996" lon="2.26397">
        <ele>113.4</ele>
        <time>2023-04-05T12:19:07Z</time>
      </trkpt>
      <trkpt lat="49.81997" lon="2.26396">
        <ele>113.4</ele>
        <time>2023-04-05T12:19:09Z</time>
      </trkpt>
      <trkpt lat="49.81997" lon="2.26396">
        <ele>113.4</ele>
        <time>2023-04-05T12:19:10Z</time>
      </trkpt>
      <trkpt lat="49.81996" lon="2.26395">
        <ele>113.4</ele>
        <time>2023-04-05T12:19:11Z</time>
      </trkpt>
      <trkpt lat="49.81996" lon="2.26394">
        <ele>113.4</ele>
        <time>2023-04-05T12:19:12Z</time>
      </trkpt>
      <trkpt lat="49.81996" lon="2.26393">
        <ele>113.4</ele>
        <time>2023-04-05T12:19:13Z</time>
      </trkpt>
      <trkpt lat="49.81997" lon="2.26392">
        <ele>113.4</ele>
        <time>2023-04-05T12:19:14Z</time>
      </trkpt>
      <trkpt lat="49.81997" lon="2.2639">
        <ele>113.3</ele>
        <time>2023-04-05T12:19:15Z</time>
      </trkpt>
      <trkpt lat="49.81997" lon="2.26388">
        <ele>113.3</ele>
        <time>2023-04-05T12:19:17Z</time>
      </trkpt>
      <trkpt lat="49.81998" lon="2.26388">
        <ele>113.3</ele>
        <time>2023-04-05T12:19:18Z</time>
      </trkpt>
      <trkpt lat="49.82" lon="2.26386">
        <ele>113.3</ele>
        <time>2023-04-05T12:19:19Z</time>
      </trkpt>
      <trkpt lat="49.82001" lon="2.26385">
        <ele>113.3</ele>
        <time>2023-04-05T12:19:20Z</time>
      </trkpt>
      <trkpt lat="49.82002" lon="2.26384">
        <ele>113.3</ele>
        <time>2023-04-05T12:19:21Z</time>
      </trkpt>
      <trkpt lat="49.82002" lon="2.26383">
        <ele>113.3</ele>
        <time>2023-04-05T12:19:22Z</time>
      </trkpt>
      <trkpt lat="49.82003" lon="2.26382">
        <ele>113.2</ele>
        <time>2023-04-05T12:19:23Z</time>
      </trkpt>
      <trkpt lat="49.82005" lon="2.26379">
        <ele>113.2</ele>
        <time>2023-04-05T12:19:25Z</time>
      </trkpt>
      <trkpt lat="49.82006" lon="2.26378">
        <ele>113.2</ele>
        <time>2023-04-05T12:19:26Z</time>
      </trkpt>
      <trkpt lat="49.82006" lon="2.26376">
        <ele>113.2</ele>
        <time>2023-04-05T12:19:27Z</time>
      </trkpt>
      <trkpt lat="49.82007" lon="2.26375">
        <ele>113.2</ele>
        <time>2023-04-05T12:19:28Z</time>
      </trkpt>
      <trkpt lat="49.82007" lon="2.26373">
        <ele>113.2</ele>
        <time>2023-04-05T12:19:30Z</time>
      </trkpt>
      <trkpt lat="49.82008" lon="2.26372">
        <ele>113.2</ele>
        <time>2023-04-05T12:19:31Z</time>
      </trkpt>
      <trkpt lat="49.82009" lon="2.26371">
        <ele>113.2</ele>
        <time>2023-04-05T12:19:32Z</time>
      </trkpt>
      <trkpt lat="49.8201" lon="2.26369">
        <ele>113.2</ele>
        <time>2023-04-05T12:19:33Z</time>
      </trkpt>
      <trkpt lat="49.82011" lon="2.26368">
        <ele>113.1</ele>
        <time>2023-04-05T12:19:34Z</time>
      </trkpt>
      <trkpt lat="49.82013" lon="2.26367">
        <ele>113.1</ele>
        <time>2023-04-05T12:19:36Z</time>
      </trkpt>
      <trkpt lat="49.82014" lon="2.26366">
        <ele>113.1</ele>
        <time>2023-04-05T12:19:37Z</time>
      </trkpt>
      <trkpt lat="49.82015" lon="2.26364">
        <ele>113.1</ele>
        <time>2023-04-05T12:19:38Z</time>
      </trkpt>
      <trkpt lat="49.82016" lon="2.26363">
        <ele>113.1</ele>
        <time>2023-04-05T12:19:39Z</time>
      </trkpt>
      <trkpt lat="49.82017" lon="2.26362">
        <ele>113.1</ele>
        <time>2023-04-05T12:19:40Z</time>
      </trkpt>
      <trkpt lat="49.82018" lon="2.2636">
        <ele>113.1</ele>
        <time>2023-04-05T12:19:41Z</time>
      </trkpt>
      <trkpt lat="49.82019" lon="2.26358">
        <ele>113.1</ele>
        <time>2023-04-05T12:19:42Z</time>
      </trkpt>
      <trkpt lat="49.8202" lon="2.26357">
        <ele>113.1</ele>
        <time>2023-04-05T12:19:43Z</time>
      </trkpt>
      <trkpt lat="49.82021" lon="2.26355">
        <ele>113.1</ele>
        <time>2023-04-05T12:19:44Z</time>
      </trkpt>
      <trkpt lat="49.82022" lon="2.26353">
        <ele>113</ele>
        <time>2023-04-05T12:19:46Z</time>
      </trkpt>
      <trkpt lat="49.82023" lon="2.26352">
        <ele>113</ele>
        <time>2023-04-05T12:19:47Z</time>
      </trkpt>
      <trkpt lat="49.82024" lon="2.2635">
        <ele>113</ele>
        <time>2023-04-05T12:19:48Z</time>
      </trkpt>
      <trkpt lat="49.82025" lon="2.26348">
        <ele>113</ele>
        <time>2023-04-05T12:19:49Z</time>
      </trkpt>
      <trkpt lat="49.82026" lon="2.26347">
        <ele>113</ele>
        <time>2023-04-05T12:19:50Z</time>
      </trkpt>
      <trkpt lat="49.82027" lon="2.26344">
        <ele>113</ele>
        <time>2023-04-05T12:19:51Z</time>
      </trkpt>
      <trkpt lat="49.82027" lon="2.26343">
        <ele>113</ele>
        <time>2023-04-05T12:19:52Z</time>
      </trkpt>
      <trkpt lat="49.82028" lon="2.26341">
        <ele>113</ele>
        <time>2023-04-05T12:19:53Z</time>
      </trkpt>
      <trkpt lat="49.82029" lon="2.2634">
        <ele>113</ele>
        <time>2023-04-05T12:19:54Z</time>
      </trkpt>
      <trkpt lat="49.8203" lon="2.26337">
        <ele>112.9</ele>
        <time>2023-04-05T12:19:56Z</time>
      </trkpt>
      <trkpt lat="49.8203" lon="2.26336">
        <ele>112.9</ele>
        <time>2023-04-05T12:19:57Z</time>
      </trkpt>
      <trkpt lat="49.82031" lon="2.26335">
        <ele>112.9</ele>
        <time>2023-04-05T12:19:58Z</time>
      </trkpt>
      <trkpt lat="49.82032" lon="2.26332">
        <ele>112.9</ele>
        <time>2023-04-05T12:19:59Z</time>
      </trkpt>
      <trkpt lat="49.82033" lon="2.26331">
        <ele>112.9</ele>
        <time>2023-04-05T12:20:00Z</time>
      </trkpt>
      <trkpt lat="49.82033" lon="2.2633">
        <ele>112.9</ele>
        <time>2023-04-05T12:20:01Z</time>
      </trkpt>
      <trkpt lat="49.82034" lon="2.26327">
        <ele>112.9</ele>
        <time>2023-04-05T12:20:02Z</time>
      </trkpt>
      <trkpt lat="49.82035" lon="2.26326">
        <ele>112.9</ele>
        <time>2023-04-05T12:20:04Z</time>
      </trkpt>
      <trkpt lat="49.82035" lon="2.26325">
        <ele>112.9</ele>
        <time>2023-04-05T12:20:05Z</time>
      </trkpt>
      <trkpt lat="49.82036" lon="2.26323">
        <ele>112.9</ele>
        <time>2023-04-05T12:20:06Z</time>
      </trkpt>
      <trkpt lat="49.82036" lon="2.26321">
        <ele>112.8</ele>
        <time>2023-04-05T12:20:07Z</time>
      </trkpt>
      <trkpt lat="49.82038" lon="2.26319">
        <ele>112.8</ele>
        <time>2023-04-05T12:20:08Z</time>
      </trkpt>
      <trkpt lat="49.82038" lon="2.26318">
        <ele>112.8</ele>
        <time>2023-04-05T12:20:09Z</time>
      </trkpt>
      <trkpt lat="49.82039" lon="2.26317">
        <ele>112.8</ele>
        <time>2023-04-05T12:20:10Z</time>
      </trkpt>
      <trkpt lat="49.8204" lon="2.26314">
        <ele>112.8</ele>
        <time>2023-04-05T12:20:11Z</time>
      </trkpt>
      <trkpt lat="49.8204" lon="2.26313">
        <ele>112.8</ele>
        <time>2023-04-05T12:20:13Z</time>
      </trkpt>
      <trkpt lat="49.82041" lon="2.26312">
        <ele>112.8</ele>
        <time>2023-04-05T12:20:14Z</time>
      </trkpt>
      <trkpt lat="49.82042" lon="2.26309">
        <ele>112.8</ele>
        <time>2023-04-05T12:20:15Z</time>
      </trkpt>
      <trkpt lat="49.82042" lon="2.26308">
        <ele>112.8</ele>
        <time>2023-04-05T12:20:16Z</time>
      </trkpt>
      <trkpt lat="49.82043" lon="2.26307">
        <ele>112.8</ele>
        <time>2023-04-05T12:20:17Z</time>
      </trkpt>
      <trkpt lat="49.82043" lon="2.26306">
        <ele>112.8</ele>
        <time>2023-04-05T12:20:18Z</time>
      </trkpt>
      <trkpt lat="49.82044" lon="2.26304">
        <ele>112.8</ele>
        <time>2023-04-05T12:20:19Z</time>
      </trkpt>
      <trkpt lat="49.82045" lon="2.26303">
        <ele>112.7</ele>
        <time>2023-04-05T12:20:21Z</time>
      </trkpt>
      <trkpt lat="49.82046" lon="2.26301">
        <ele>112.7</ele>
        <time>2023-04-05T12:20:22Z</time>
      </trkpt>
      <trkpt lat="49.82047" lon="2.26299">
        <ele>112.7</ele>
        <time>2023-04-05T12:20:23Z</time>
      </trkpt>
      <trkpt lat="49.82048" lon="2.26297">
        <ele>112.7</ele>
        <time>2023-04-05T12:20:24Z</time>
      </trkpt>
      <trkpt lat="49.82049" lon="2.26296">
        <ele>112.7</ele>
        <time>2023-04-05T12:20:25Z</time>
      </trkpt>
      <trkpt lat="49.8205" lon="2.26293">
        <ele>112.7</ele>
        <time>2023-04-05T12:20:26Z</time>
      </trkpt>
      <trkpt lat="49.82051" lon="2.26292">
        <ele>112.7</ele>
        <time>2023-04-05T12:20:27Z</time>
      </trkpt>
      <trkpt lat="49.82052" lon="2.26291">
        <ele>112.7</ele>
        <time>2023-04-05T12:20:28Z</time>
      </trkpt>
      <trkpt lat="49.82053" lon="2.26288">
        <ele>112.7</ele>
        <time>2023-04-05T12:20:29Z</time>
      </trkpt>
      <trkpt lat="49.82054" lon="2.26287">
        <ele>112.6</ele>
        <time>2023-04-05T12:20:31Z</time>
      </trkpt>
      <trkpt lat="49.82055" lon="2.26286">
        <ele>112.6</ele>
        <time>2023-04-05T12:20:32Z</time>
      </trkpt>
      <trkpt lat="49.82056" lon="2.26285">
        <ele>112.6</ele>
        <time>2023-04-05T12:20:33Z</time>
      </trkpt>
      <trkpt lat="49.82057" lon="2.26284">
        <ele>112.6</ele>
        <time>2023-04-05T12:20:34Z</time>
      </trkpt>
      <trkpt lat="49.82058" lon="2.26282">
        <ele>112.6</ele>
        <time>2023-04-05T12:20:35Z</time>
      </trkpt>
      <trkpt lat="49.82058" lon="2.26281">
        <ele>112.6</ele>
        <time>2023-04-05T12:20:36Z</time>
      </trkpt>
      <trkpt lat="49.82059" lon="2.2628">
        <ele>112.6</ele>
        <time>2023-04-05T12:20:37Z</time>
      </trkpt>
      <trkpt lat="49.82061" lon="2.26278">
        <ele>112.5</ele>
        <time>2023-04-05T12:20:38Z</time>
      </trkpt>
      <trkpt lat="49.82062" lon="2.26277">
        <ele>112.5</ele>
        <time>2023-04-05T12:20:40Z</time>
      </trkpt>
      <trkpt lat="49.82063" lon="2.26276">
        <ele>112.5</ele>
        <time>2023-04-05T12:20:41Z</time>
      </trkpt>
      <trkpt lat="49.82064" lon="2.26275">
        <ele>112.5</ele>
        <time>2023-04-05T12:20:43Z</time>
      </trkpt>
      <trkpt lat="49.82066" lon="2.26273">
        <ele>112.5</ele>
        <time>2023-04-05T12:20:44Z</time>
      </trkpt>
      <trkpt lat="49.82067" lon="2.26271">
        <ele>112.4</ele>
        <time>2023-04-05T12:20:46Z</time>
      </trkpt>
      <trkpt lat="49.82068" lon="2.2627">
        <ele>112.4</ele>
        <time>2023-04-05T12:20:47Z</time>
      </trkpt>
      <trkpt lat="49.8207" lon="2.26268">
        <ele>112.4</ele>
        <time>2023-04-05T12:20:48Z</time>
      </trkpt>
      <trkpt lat="49.8207" lon="2.26267">
        <ele>112.4</ele>
        <time>2023-04-05T12:20:49Z</time>
      </trkpt>
      <trkpt lat="49.82071" lon="2.26266">
        <ele>112.4</ele>
        <time>2023-04-05T12:20:50Z</time>
      </trkpt>
      <trkpt lat="49.82073" lon="2.26264">
        <ele>112.3</ele>
        <time>2023-04-05T12:20:51Z</time>
      </trkpt>
      <trkpt lat="49.82073" lon="2.26263">
        <ele>112.3</ele>
        <time>2023-04-05T12:20:52Z</time>
      </trkpt>
      <trkpt lat="49.82074" lon="2.26262">
        <ele>112.3</ele>
        <time>2023-04-05T12:20:53Z</time>
      </trkpt>
      <trkpt lat="49.82075" lon="2.26261">
        <ele>112.3</ele>
        <time>2023-04-05T12:20:55Z</time>
      </trkpt>
      <trkpt lat="49.82076" lon="2.26259">
        <ele>112.3</ele>
        <time>2023-04-05T12:20:56Z</time>
      </trkpt>
      <trkpt lat="49.82078" lon="2.26257">
        <ele>112.2</ele>
        <time>2023-04-05T12:20:57Z</time>
      </trkpt>
      <trkpt lat="49.82078" lon="2.26256">
        <ele>112.1</ele>
        <time>2023-04-05T12:20:58Z</time>
      </trkpt>
      <trkpt lat="49.82079" lon="2.26255">
        <ele>112.1</ele>
        <time>2023-04-05T12:20:59Z</time>
      </trkpt>
      <trkpt lat="49.82081" lon="2.26253">
        <ele>112</ele>
        <time>2023-04-05T12:21:01Z</time>
      </trkpt>
      <trkpt lat="49.82082" lon="2.26253">
        <ele>112</ele>
        <time>2023-04-05T12:21:02Z</time>
      </trkpt>
      <trkpt lat="49.82082" lon="2.26252">
        <ele>112</ele>
        <time>2023-04-05T12:21:03Z</time>
      </trkpt>
      <trkpt lat="49.82084" lon="2.26251">
        <ele>111.9</ele>
        <time>2023-04-05T12:21:04Z</time>
      </trkpt>
      <trkpt lat="49.82085" lon="2.2625">
        <ele>111.9</ele>
        <time>2023-04-05T12:21:05Z</time>
      </trkpt>
      <trkpt lat="49.82087" lon="2.26249">
        <ele>111.8</ele>
        <time>2023-04-05T12:21:06Z</time>
      </trkpt>
      <trkpt lat="49.82088" lon="2.26248">
        <ele>111.8</ele>
        <time>2023-04-05T12:21:07Z</time>
      </trkpt>
      <trkpt lat="49.82089" lon="2.26247">
        <ele>111.8</ele>
        <time>2023-04-05T12:21:08Z</time>
      </trkpt>
      <trkpt lat="49.82091" lon="2.26246">
        <ele>111.7</ele>
        <time>2023-04-05T12:21:09Z</time>
      </trkpt>
      <trkpt lat="49.82091" lon="2.26245">
        <ele>111.7</ele>
        <time>2023-04-05T12:21:10Z</time>
      </trkpt>
      <trkpt lat="49.82092" lon="2.26245">
        <ele>111.6</ele>
        <time>2023-04-05T12:21:11Z</time>
      </trkpt>
      <trkpt lat="49.82094" lon="2.26243">
        <ele>111.6</ele>
        <time>2023-04-05T12:21:12Z</time>
      </trkpt>
      <trkpt lat="49.82095" lon="2.26243">
        <ele>111.5</ele>
        <time>2023-04-05T12:21:13Z</time>
      </trkpt>
      <trkpt lat="49.82096" lon="2.26242">
        <ele>111.5</ele>
        <time>2023-04-05T12:21:15Z</time>
      </trkpt>
      <trkpt lat="49.82097" lon="2.26242">
        <ele>111.5</ele>
        <time>2023-04-05T12:21:16Z</time>
      </trkpt>
      <trkpt lat="49.82098" lon="2.26242">
        <ele>111.4</ele>
        <time>2023-04-05T12:21:17Z</time>
      </trkpt>
      <trkpt lat="49.82099" lon="2.26241">
        <ele>111.4</ele>
        <time>2023-04-05T12:21:18Z</time>
      </trkpt>
      <trkpt lat="49.821" lon="2.26241">
        <ele>111.4</ele>
        <time>2023-04-05T12:21:19Z</time>
      </trkpt>
      <trkpt lat="49.82101" lon="2.2624">
        <ele>111.3</ele>
        <time>2023-04-05T12:21:20Z</time>
      </trkpt>
      <trkpt lat="49.82103" lon="2.26239">
        <ele>111.3</ele>
        <time>2023-04-05T12:21:21Z</time>
      </trkpt>
      <trkpt lat="49.82104" lon="2.26238">
        <ele>111.2</ele>
        <time>2023-04-05T12:21:22Z</time>
      </trkpt>
      <trkpt lat="49.82105" lon="2.26237">
        <ele>111.2</ele>
        <time>2023-04-05T12:21:23Z</time>
      </trkpt>
      <trkpt lat="49.82106" lon="2.26236">
        <ele>111.1</ele>
        <time>2023-04-05T12:21:24Z</time>
      </trkpt>
      <trkpt lat="49.82107" lon="2.26234">
        <ele>111.1</ele>
        <time>2023-04-05T12:21:26Z</time>
      </trkpt>
      <trkpt lat="49.82109" lon="2.26233">
        <ele>111</ele>
        <time>2023-04-05T12:21:27Z</time>
      </trkpt>
      <trkpt lat="49.8211" lon="2.26232">
        <ele>111</ele>
        <time>2023-04-05T12:21:28Z</time>
      </trkpt>
      <trkpt lat="49.82111" lon="2.26231">
        <ele>111</ele>
        <time>2023-04-05T12:21:29Z</time>
      </trkpt>
      <trkpt lat="49.82112" lon="2.2623">
        <ele>110.9</ele>
        <time>2023-04-05T12:21:30Z</time>
      </trkpt>
      <trkpt lat="49.82113" lon="2.26229">
        <ele>110.9</ele>
        <time>2023-04-05T12:21:31Z</time>
      </trkpt>
      <trkpt lat="49.82115" lon="2.26227">
        <ele>110.8</ele>
        <time>2023-04-05T12:21:32Z</time>
      </trkpt>
      <trkpt lat="49.82116" lon="2.26226">
        <ele>110.7</ele>
        <time>2023-04-05T12:21:33Z</time>
      </trkpt>
      <trkpt lat="49.82117" lon="2.26226">
        <ele>110.7</ele>
        <time>2023-04-05T12:21:34Z</time>
      </trkpt>
      <trkpt lat="49.82118" lon="2.26225">
        <ele>110.7</ele>
        <time>2023-04-05T12:21:35Z</time>
      </trkpt>
      <trkpt lat="49.8212" lon="2.26224">
        <ele>110.6</ele>
        <time>2023-04-05T12:21:36Z</time>
      </trkpt>
      <trkpt lat="49.82121" lon="2.26224">
        <ele>110.5</ele>
        <time>2023-04-05T12:21:37Z</time>
      </trkpt>
      <trkpt lat="49.82123" lon="2.26223">
        <ele>110.5</ele>
        <time>2023-04-05T12:21:39Z</time>
      </trkpt>
      <trkpt lat="49.82124" lon="2.26222">
        <ele>110.4</ele>
        <time>2023-04-05T12:21:40Z</time>
      </trkpt>
      <trkpt lat="49.82126" lon="2.26222">
        <ele>110.3</ele>
        <time>2023-04-05T12:21:41Z</time>
      </trkpt>
      <trkpt lat="49.82127" lon="2.2622">
        <ele>110.3</ele>
        <time>2023-04-05T12:21:42Z</time>
      </trkpt>
      <trkpt lat="49.82128" lon="2.26219">
        <ele>110.2</ele>
        <time>2023-04-05T12:21:43Z</time>
      </trkpt>
      <trkpt lat="49.8213" lon="2.26218">
        <ele>110.1</ele>
        <time>2023-04-05T12:21:44Z</time>
      </trkpt>
      <trkpt lat="49.82131" lon="2.26217">
        <ele>110.1</ele>
        <time>2023-04-05T12:21:45Z</time>
      </trkpt>
      <trkpt lat="49.82132" lon="2.26216">
        <ele>110</ele>
        <time>2023-04-05T12:21:47Z</time>
      </trkpt>
      <trkpt lat="49.82133" lon="2.26216">
        <ele>110</ele>
        <time>2023-04-05T12:21:48Z</time>
      </trkpt>
      <trkpt lat="49.82134" lon="2.26215">
        <ele>109.9</ele>
        <time>2023-04-05T12:21:49Z</time>
      </trkpt>
      <trkpt lat="49.82135" lon="2.26213">
        <ele>109.9</ele>
        <time>2023-04-05T12:21:50Z</time>
      </trkpt>
      <trkpt lat="49.82136" lon="2.26212">
        <ele>109.8</ele>
        <time>2023-04-05T12:21:51Z</time>
      </trkpt>
      <trkpt lat="49.82137" lon="2.26211">
        <ele>109.8</ele>
        <time>2023-04-05T12:21:52Z</time>
      </trkpt>
      <trkpt lat="49.82139" lon="2.2621">
        <ele>109.7</ele>
        <time>2023-04-05T12:21:53Z</time>
      </trkpt>
      <trkpt lat="49.8214" lon="2.26209">
        <ele>109.6</ele>
        <time>2023-04-05T12:21:55Z</time>
      </trkpt>
      <trkpt lat="49.82141" lon="2.26208">
        <ele>109.6</ele>
        <time>2023-04-05T12:21:56Z</time>
      </trkpt>
      <trkpt lat="49.82142" lon="2.26207">
        <ele>109.5</ele>
        <time>2023-04-05T12:21:57Z</time>
      </trkpt>
      <trkpt lat="49.82143" lon="2.26206">
        <ele>109.5</ele>
        <time>2023-04-05T12:21:58Z</time>
      </trkpt>
      <trkpt lat="49.82145" lon="2.26205">
        <ele>109.4</ele>
        <time>2023-04-05T12:21:59Z</time>
      </trkpt>
      <trkpt lat="49.82146" lon="2.26204">
        <ele>109.3</ele>
        <time>2023-04-05T12:22:00Z</time>
      </trkpt>
      <trkpt lat="49.82147" lon="2.26203">
        <ele>109.3</ele>
        <time>2023-04-05T12:22:01Z</time>
      </trkpt>
      <trkpt lat="49.82148" lon="2.26202">
        <ele>109.3</ele>
        <time>2023-04-05T12:22:03Z</time>
      </trkpt>
      <trkpt lat="49.82149" lon="2.26202">
        <ele>109.2</ele>
        <time>2023-04-05T12:22:04Z</time>
      </trkpt>
      <trkpt lat="49.82151" lon="2.26201">
        <ele>109.1</ele>
        <time>2023-04-05T12:22:05Z</time>
      </trkpt>
      <trkpt lat="49.82152" lon="2.26201">
        <ele>109.1</ele>
        <time>2023-04-05T12:22:06Z</time>
      </trkpt>
      <trkpt lat="49.82153" lon="2.26201">
        <ele>108.8</ele>
        <time>2023-04-05T12:22:07Z</time>
      </trkpt>
      <trkpt lat="49.82155" lon="2.262">
        <ele>108.7</ele>
        <time>2023-04-05T12:22:08Z</time>
      </trkpt>
      <trkpt lat="49.82156" lon="2.26199">
        <ele>108.7</ele>
        <time>2023-04-05T12:22:09Z</time>
      </trkpt>
      <trkpt lat="49.82156" lon="2.26199">
        <ele>108.7</ele>
        <time>2023-04-05T12:22:10Z</time>
      </trkpt>
      <trkpt lat="49.82158" lon="2.26198">
        <ele>108.7</ele>
        <time>2023-04-05T12:22:11Z</time>
      </trkpt>
      <trkpt lat="49.82159" lon="2.26198">
        <ele>108.6</ele>
        <time>2023-04-05T12:22:12Z</time>
      </trkpt>
      <trkpt lat="49.8216" lon="2.26197">
        <ele>108.6</ele>
        <time>2023-04-05T12:22:14Z</time>
      </trkpt>
      <trkpt lat="49.82161" lon="2.26197">
        <ele>108.6</ele>
        <time>2023-04-05T12:22:15Z</time>
      </trkpt>
      <trkpt lat="49.82162" lon="2.26196">
        <ele>108.6</ele>
        <time>2023-04-05T12:22:16Z</time>
      </trkpt>
      <trkpt lat="49.82164" lon="2.26194">
        <ele>108.5</ele>
        <time>2023-04-05T12:22:17Z</time>
      </trkpt>
      <trkpt lat="49.82165" lon="2.26194">
        <ele>108.5</ele>
        <time>2023-04-05T12:22:18Z</time>
      </trkpt>
      <trkpt lat="49.82166" lon="2.26193">
        <ele>108.5</ele>
        <time>2023-04-05T12:22:19Z</time>
      </trkpt>
      <trkpt lat="49.82168" lon="2.26192">
        <ele>108.4</ele>
        <time>2023-04-05T12:22:21Z</time>
      </trkpt>
      <trkpt lat="49.82169" lon="2.26191">
        <ele>108.4</ele>
        <time>2023-04-05T12:22:22Z</time>
      </trkpt>
      <trkpt lat="49.82169" lon="2.2619">
        <ele>108.4</ele>
        <time>2023-04-05T12:22:23Z</time>
      </trkpt>
      <trkpt lat="49.82171" lon="2.26188">
        <ele>108.4</ele>
        <time>2023-04-05T12:22:24Z</time>
      </trkpt>
      <trkpt lat="49.82172" lon="2.26187">
        <ele>108.3</ele>
        <time>2023-04-05T12:22:25Z</time>
      </trkpt>
      <trkpt lat="49.82173" lon="2.26185">
        <ele>108.3</ele>
        <time>2023-04-05T12:22:26Z</time>
      </trkpt>
      <trkpt lat="49.82174" lon="2.26184">
        <ele>108.3</ele>
        <time>2023-04-05T12:22:27Z</time>
      </trkpt>
      <trkpt lat="49.82176" lon="2.26182">
        <ele>108.2</ele>
        <time>2023-04-05T12:22:28Z</time>
      </trkpt>
      <trkpt lat="49.82177" lon="2.26181">
        <ele>108.2</ele>
        <time>2023-04-05T12:22:29Z</time>
      </trkpt>
      <trkpt lat="49.82178" lon="2.26181">
        <ele>108.2</ele>
        <time>2023-04-05T12:22:31Z</time>
      </trkpt>
      <trkpt lat="49.82179" lon="2.2618">
        <ele>108.1</ele>
        <time>2023-04-05T12:22:33Z</time>
      </trkpt>
      <trkpt lat="49.8218" lon="2.26179">
        <ele>108.1</ele>
        <time>2023-04-05T12:22:34Z</time>
      </trkpt>
      <trkpt lat="49.82182" lon="2.26178">
        <ele>108.1</ele>
        <time>2023-04-05T12:22:35Z</time>
      </trkpt>
      <trkpt lat="49.82183" lon="2.26177">
        <ele>108.1</ele>
        <time>2023-04-05T12:22:36Z</time>
      </trkpt>
      <trkpt lat="49.82184" lon="2.26177">
        <ele>108</ele>
        <time>2023-04-05T12:22:37Z</time>
      </trkpt>
      <trkpt lat="49.82185" lon="2.26176">
        <ele>108</ele>
        <time>2023-04-05T12:22:38Z</time>
      </trkpt>
      <trkpt lat="49.82186" lon="2.26176">
        <ele>108</ele>
        <time>2023-04-05T12:22:40Z</time>
      </trkpt>
      <trkpt lat="49.82187" lon="2.26175">
        <ele>108</ele>
        <time>2023-04-05T12:22:41Z</time>
      </trkpt>
      <trkpt lat="49.82188" lon="2.26175">
        <ele>108</ele>
        <time>2023-04-05T12:22:42Z</time>
      </trkpt>
      <trkpt lat="49.82189" lon="2.26174">
        <ele>107.9</ele>
        <time>2023-04-05T12:22:43Z</time>
      </trkpt>
      <trkpt lat="49.8219" lon="2.26174">
        <ele>107.9</ele>
        <time>2023-04-05T12:22:44Z</time>
      </trkpt>
      <trkpt lat="49.82191" lon="2.26173">
        <ele>107.9</ele>
        <time>2023-04-05T12:22:45Z</time>
      </trkpt>
      <trkpt lat="49.82192" lon="2.26172">
        <ele>107.9</ele>
        <time>2023-04-05T12:22:46Z</time>
      </trkpt>
      <trkpt lat="49.82193" lon="2.26171">
        <ele>107.9</ele>
        <time>2023-04-05T12:22:47Z</time>
      </trkpt>
      <trkpt lat="49.82194" lon="2.2617">
        <ele>107.9</ele>
        <time>2023-04-05T12:22:48Z</time>
      </trkpt>
      <trkpt lat="49.82196" lon="2.26169">
        <ele>107.8</ele>
        <time>2023-04-05T12:22:50Z</time>
      </trkpt>
      <trkpt lat="49.82197" lon="2.26168">
        <ele>107.8</ele>
        <time>2023-04-05T12:22:51Z</time>
      </trkpt>
      <trkpt lat="49.82198" lon="2.26168">
        <ele>107.8</ele>
        <time>2023-04-05T12:22:52Z</time>
      </trkpt>
      <trkpt lat="49.822" lon="2.26167">
        <ele>107.8</ele>
        <time>2023-04-05T12:22:53Z</time>
      </trkpt>
      <trkpt lat="49.82201" lon="2.26167">
        <ele>107.8</ele>
        <time>2023-04-05T12:22:54Z</time>
      </trkpt>
      <trkpt lat="49.82203" lon="2.26166">
        <ele>107.8</ele>
        <time>2023-04-05T12:22:56Z</time>
      </trkpt>
      <trkpt lat="49.82205" lon="2.26165">
        <ele>107.7</ele>
        <time>2023-04-05T12:22:57Z</time>
      </trkpt>
      <trkpt lat="49.82205" lon="2.26165">
        <ele>107.7</ele>
        <time>2023-04-05T12:22:58Z</time>
      </trkpt>
      <trkpt lat="49.82206" lon="2.26164">
        <ele>107.7</ele>
        <time>2023-04-05T12:22:59Z</time>
      </trkpt>
      <trkpt lat="49.82207" lon="2.26163">
        <ele>107.7</ele>
        <time>2023-04-05T12:23:00Z</time>
      </trkpt>
      <trkpt lat="49.82209" lon="2.26162">
        <ele>107.7</ele>
        <time>2023-04-05T12:23:01Z</time>
      </trkpt>
      <trkpt lat="49.8221" lon="2.26162">
        <ele>107.7</ele>
        <time>2023-04-05T12:23:02Z</time>
      </trkpt>
      <trkpt lat="49.82211" lon="2.26161">
        <ele>107.7</ele>
        <time>2023-04-05T12:23:03Z</time>
      </trkpt>
      <trkpt lat="49.82212" lon="2.2616">
        <ele>107.6</ele>
        <time>2023-04-05T12:23:04Z</time>
      </trkpt>
      <trkpt lat="49.82213" lon="2.26159">
        <ele>107.6</ele>
        <time>2023-04-05T12:23:05Z</time>
      </trkpt>
      <trkpt lat="49.82214" lon="2.26158">
        <ele>107.6</ele>
        <time>2023-04-05T12:23:07Z</time>
      </trkpt>
      <trkpt lat="49.82216" lon="2.26158">
        <ele>107.6</ele>
        <time>2023-04-05T12:23:08Z</time>
      </trkpt>
      <trkpt lat="49.82217" lon="2.26157">
        <ele>107.6</ele>
        <time>2023-04-05T12:23:09Z</time>
      </trkpt>
      <trkpt lat="49.82218" lon="2.26156">
        <ele>107.6</ele>
        <time>2023-04-05T12:23:10Z</time>
      </trkpt>
      <trkpt lat="49.82219" lon="2.26155">
        <ele>107.6</ele>
        <time>2023-04-05T12:23:11Z</time>
      </trkpt>
      <trkpt lat="49.8222" lon="2.26154">
        <ele>107.6</ele>
        <time>2023-04-05T12:23:13Z</time>
      </trkpt>
      <trkpt lat="49.82222" lon="2.26153">
        <ele>107.6</ele>
        <time>2023-04-05T12:23:14Z</time>
      </trkpt>
      <trkpt lat="49.82223" lon="2.26153">
        <ele>107.5</ele>
        <time>2023-04-05T12:23:15Z</time>
      </trkpt>
      <trkpt lat="49.82224" lon="2.26152">
        <ele>107.5</ele>
        <time>2023-04-05T12:23:16Z</time>
      </trkpt>
      <trkpt lat="49.82225" lon="2.26151">
        <ele>107.5</ele>
        <time>2023-04-05T12:23:17Z</time>
      </trkpt>
      <trkpt lat="49.82226" lon="2.26151">
        <ele>107.5</ele>
        <time>2023-04-05T12:23:18Z</time>
      </trkpt>
      <trkpt lat="49.82228" lon="2.2615">
        <ele>107.5</ele>
        <time>2023-04-05T12:23:20Z</time>
      </trkpt>
      <trkpt lat="49.82229" lon="2.2615">
        <ele>107.5</ele>
        <time>2023-04-05T12:23:21Z</time>
      </trkpt>
      <trkpt lat="49.8223" lon="2.26149">
        <ele>107.5</ele>
        <time>2023-04-05T12:23:22Z</time>
      </trkpt>
      <trkpt lat="49.82231" lon="2.26149">
        <ele>107.5</ele>
        <time>2023-04-05T12:23:23Z</time>
      </trkpt>
      <trkpt lat="49.82232" lon="2.26148">
        <ele>107.5</ele>
        <time>2023-04-05T12:23:24Z</time>
      </trkpt>
      <trkpt lat="49.82233" lon="2.26148">
        <ele>107.5</ele>
        <time>2023-04-05T12:23:25Z</time>
      </trkpt>
      <trkpt lat="49.82234" lon="2.26148">
        <ele>107.5</ele>
        <time>2023-04-05T12:23:26Z</time>
      </trkpt>
      <trkpt lat="49.82236" lon="2.26147">
        <ele>107.5</ele>
        <time>2023-04-05T12:23:28Z</time>
      </trkpt>
      <trkpt lat="49.82237" lon="2.26146">
        <ele>107.4</ele>
        <time>2023-04-05T12:23:30Z</time>
      </trkpt>
      <trkpt lat="49.82238" lon="2.26146">
        <ele>107.4</ele>
        <time>2023-04-05T12:23:31Z</time>
      </trkpt>
      <trkpt lat="49.8224" lon="2.26145">
        <ele>107.4</ele>
        <time>2023-04-05T12:23:32Z</time>
      </trkpt>
      <trkpt lat="49.82241" lon="2.26144">
        <ele>107.4</ele>
        <time>2023-04-05T12:23:33Z</time>
      </trkpt>
      <trkpt lat="49.82242" lon="2.26143">
        <ele>107.4</ele>
        <time>2023-04-05T12:23:34Z</time>
      </trkpt>
      <trkpt lat="49.82244" lon="2.26142">
        <ele>107.4</ele>
        <time>2023-04-05T12:23:36Z</time>
      </trkpt>
      <trkpt lat="49.82245" lon="2.26142">
        <ele>107.4</ele>
        <time>2023-04-05T12:23:37Z</time>
      </trkpt>
      <trkpt lat="49.82246" lon="2.26141">
        <ele>107.4</ele>
        <time>2023-04-05T12:23:38Z</time>
      </trkpt>
      <trkpt lat="49.82248" lon="2.2614">
        <ele>107.3</ele>
        <time>2023-04-05T12:23:39Z</time>
      </trkpt>
      <trkpt lat="49.82249" lon="2.26139">
        <ele>107.3</ele>
        <time>2023-04-05T12:23:40Z</time>
      </trkpt>
      <trkpt lat="49.82249" lon="2.26139">
        <ele>107.3</ele>
        <time>2023-04-05T12:23:41Z</time>
      </trkpt>
      <trkpt lat="49.82251" lon="2.26138">
        <ele>107.3</ele>
        <time>2023-04-05T12:23:42Z</time>
      </trkpt>
      <trkpt lat="49.82252" lon="2.26137">
        <ele>107.3</ele>
        <time>2023-04-05T12:23:43Z</time>
      </trkpt>
      <trkpt lat="49.82253" lon="2.26137">
        <ele>107.3</ele>
        <time>2023-04-05T12:23:44Z</time>
      </trkpt>
      <trkpt lat="49.82254" lon="2.26136">
        <ele>107.2</ele>
        <time>2023-04-05T12:23:45Z</time>
      </trkpt>
      <trkpt lat="49.82255" lon="2.26135">
        <ele>107.2</ele>
        <time>2023-04-05T12:23:46Z</time>
      </trkpt>
      <trkpt lat="49.82256" lon="2.26135">
        <ele>107.2</ele>
        <time>2023-04-05T12:23:48Z</time>
      </trkpt>
      <trkpt lat="49.82258" lon="2.26134">
        <ele>107.2</ele>
        <time>2023-04-05T12:23:49Z</time>
      </trkpt>
      <trkpt lat="49.82259" lon="2.26133">
        <ele>107.2</ele>
        <time>2023-04-05T12:23:50Z</time>
      </trkpt>
      <trkpt lat="49.8226" lon="2.26133">
        <ele>107.1</ele>
        <time>2023-04-05T12:23:51Z</time>
      </trkpt>
      <trkpt lat="49.82262" lon="2.26132">
        <ele>107.1</ele>
        <time>2023-04-05T12:23:52Z</time>
      </trkpt>
      <trkpt lat="49.82263" lon="2.26132">
        <ele>107.1</ele>
        <time>2023-04-05T12:23:54Z</time>
      </trkpt>
      <trkpt lat="49.82264" lon="2.26132">
        <ele>107.1</ele>
        <time>2023-04-05T12:23:55Z</time>
      </trkpt>
      <trkpt lat="49.82266" lon="2.26131">
        <ele>107</ele>
        <time>2023-04-05T12:23:56Z</time>
      </trkpt>
      <trkpt lat="49.82267" lon="2.26131">
        <ele>107</ele>
        <time>2023-04-05T12:23:57Z</time>
      </trkpt>
      <trkpt lat="49.82269" lon="2.2613">
        <ele>107</ele>
        <time>2023-04-05T12:23:58Z</time>
      </trkpt>
      <trkpt lat="49.8227" lon="2.2613">
        <ele>106.9</ele>
        <time>2023-04-05T12:23:59Z</time>
      </trkpt>
      <trkpt lat="49.82272" lon="2.26129">
        <ele>106.9</ele>
        <time>2023-04-05T12:24:00Z</time>
      </trkpt>
      <trkpt lat="49.82273" lon="2.26129">
        <ele>106.9</ele>
        <time>2023-04-05T12:24:01Z</time>
      </trkpt>
      <trkpt lat="49.82274" lon="2.26128">
        <ele>106.9</ele>
        <time>2023-04-05T12:24:02Z</time>
      </trkpt>
      <trkpt lat="49.82275" lon="2.26128">
        <ele>106.8</ele>
        <time>2023-04-05T12:24:03Z</time>
      </trkpt>
      <trkpt lat="49.82278" lon="2.26127">
        <ele>106.8</ele>
        <time>2023-04-05T12:24:04Z</time>
      </trkpt>
      <trkpt lat="49.82279" lon="2.26126">
        <ele>106.8</ele>
        <time>2023-04-05T12:24:06Z</time>
      </trkpt>
      <trkpt lat="49.8228" lon="2.26126">
        <ele>106.7</ele>
        <time>2023-04-05T12:24:07Z</time>
      </trkpt>
      <trkpt lat="49.82281" lon="2.26126">
        <ele>106.7</ele>
        <time>2023-04-05T12:24:08Z</time>
      </trkpt>
      <trkpt lat="49.82282" lon="2.26125">
        <ele>106.7</ele>
        <time>2023-04-05T12:24:09Z</time>
      </trkpt>
      <trkpt lat="49.82284" lon="2.26124">
        <ele>106.6</ele>
        <time>2023-04-05T12:24:10Z</time>
      </trkpt>
      <trkpt lat="49.82285" lon="2.26124">
        <ele>106.6</ele>
        <time>2023-04-05T12:24:11Z</time>
      </trkpt>
      <trkpt lat="49.82285" lon="2.26124">
        <ele>106.6</ele>
        <time>2023-04-05T12:24:12Z</time>
      </trkpt>
      <trkpt lat="49.82287" lon="2.26123">
        <ele>106.6</ele>
        <time>2023-04-05T12:24:13Z</time>
      </trkpt>
      <trkpt lat="49.82288" lon="2.26123">
        <ele>106.5</ele>
        <time>2023-04-05T12:24:14Z</time>
      </trkpt>
      <trkpt lat="49.82289" lon="2.26122">
        <ele>106.5</ele>
        <time>2023-04-05T12:24:16Z</time>
      </trkpt>
      <trkpt lat="49.82291" lon="2.26122">
        <ele>106.4</ele>
        <time>2023-04-05T12:24:17Z</time>
      </trkpt>
      <trkpt lat="49.82292" lon="2.26121">
        <ele>106.4</ele>
        <time>2023-04-05T12:24:18Z</time>
      </trkpt>
      <trkpt lat="49.82293" lon="2.26121">
        <ele>106.4</ele>
        <time>2023-04-05T12:24:19Z</time>
      </trkpt>
      <trkpt lat="49.82295" lon="2.26121">
        <ele>106.3</ele>
        <time>2023-04-05T12:24:20Z</time>
      </trkpt>
      <trkpt lat="49.82296" lon="2.26121">
        <ele>106.3</ele>
        <time>2023-04-05T12:24:21Z</time>
      </trkpt>
      <trkpt lat="49.82296" lon="2.26121">
        <ele>106.3</ele>
        <time>2023-04-05T12:24:22Z</time>
      </trkpt>
      <trkpt lat="49.82298" lon="2.26121">
        <ele>106.2</ele>
        <time>2023-04-05T12:24:24Z</time>
      </trkpt>
      <trkpt lat="49.823" lon="2.26121">
        <ele>106.2</ele>
        <time>2023-04-05T12:24:25Z</time>
      </trkpt>
      <trkpt lat="49.82301" lon="2.26121">
        <ele>106.1</ele>
        <time>2023-04-05T12:24:26Z</time>
      </trkpt>
      <trkpt lat="49.82302" lon="2.26121">
        <ele>106.1</ele>
        <time>2023-04-05T12:24:27Z</time>
      </trkpt>
      <trkpt lat="49.82304" lon="2.26121">
        <ele>106</ele>
        <time>2023-04-05T12:24:28Z</time>
      </trkpt>
      <trkpt lat="49.82305" lon="2.26121">
        <ele>106</ele>
        <time>2023-04-05T12:24:30Z</time>
      </trkpt>
      <trkpt lat="49.82306" lon="2.26121">
        <ele>105.9</ele>
        <time>2023-04-05T12:24:31Z</time>
      </trkpt>
      <trkpt lat="49.82308" lon="2.26121">
        <ele>105.9</ele>
        <time>2023-04-05T12:24:32Z</time>
      </trkpt>
      <trkpt lat="49.82309" lon="2.26121">
        <ele>105.8</ele>
        <time>2023-04-05T12:24:33Z</time>
      </trkpt>
      <trkpt lat="49.82311" lon="2.26121">
        <ele>105.8</ele>
        <time>2023-04-05T12:24:34Z</time>
      </trkpt>
      <trkpt lat="49.82312" lon="2.26121">
        <ele>105.7</ele>
        <time>2023-04-05T12:24:35Z</time>
      </trkpt>
      <trkpt lat="49.82314" lon="2.26121">
        <ele>105.7</ele>
        <time>2023-04-05T12:24:36Z</time>
      </trkpt>
      <trkpt lat="49.82315" lon="2.26121">
        <ele>105.6</ele>
        <time>2023-04-05T12:24:37Z</time>
      </trkpt>
      <trkpt lat="49.82317" lon="2.26121">
        <ele>105.6</ele>
        <time>2023-04-05T12:24:38Z</time>
      </trkpt>
      <trkpt lat="49.82318" lon="2.26121">
        <ele>105.5</ele>
        <time>2023-04-05T12:24:39Z</time>
      </trkpt>
      <trkpt lat="49.8232" lon="2.2612">
        <ele>105.4</ele>
        <time>2023-04-05T12:24:41Z</time>
      </trkpt>
      <trkpt lat="49.82321" lon="2.2612">
        <ele>105.4</ele>
        <time>2023-04-05T12:24:42Z</time>
      </trkpt>
      <trkpt lat="49.82323" lon="2.2612">
        <ele>105.3</ele>
        <time>2023-04-05T12:24:43Z</time>
      </trkpt>
      <trkpt lat="49.82324" lon="2.2612">
        <ele>105.3</ele>
        <time>2023-04-05T12:24:44Z</time>
      </trkpt>
      <trkpt lat="49.82326" lon="2.2612">
        <ele>105.2</ele>
        <time>2023-04-05T12:24:45Z</time>
      </trkpt>
      <trkpt lat="49.82326" lon="2.2612">
        <ele>105.2</ele>
        <time>2023-04-05T12:24:46Z</time>
      </trkpt>
      <trkpt lat="49.82327" lon="2.2612">
        <ele>105.2</ele>
        <time>2023-04-05T12:24:47Z</time>
      </trkpt>
      <trkpt lat="49.82329" lon="2.26121">
        <ele>105.2</ele>
        <time>2023-04-05T12:24:48Z</time>
      </trkpt>
      <trkpt lat="49.8233" lon="2.26121">
        <ele>105.1</ele>
        <time>2023-04-05T12:24:50Z</time>
      </trkpt>
      <trkpt lat="49.82331" lon="2.26121">
        <ele>105.1</ele>
        <time>2023-04-05T12:24:51Z</time>
      </trkpt>
      <trkpt lat="49.82332" lon="2.26121">
        <ele>105</ele>
        <time>2023-04-05T12:24:52Z</time>
      </trkpt>
      <trkpt lat="49.82333" lon="2.26121">
        <ele>105</ele>
        <time>2023-04-05T12:24:53Z</time>
      </trkpt>
      <trkpt lat="49.82334" lon="2.26121">
        <ele>105</ele>
        <time>2023-04-05T12:24:54Z</time>
      </trkpt>
      <trkpt lat="49.82335" lon="2.26121">
        <ele>105</ele>
        <time>2023-04-05T12:24:55Z</time>
      </trkpt>
      <trkpt lat="49.82337" lon="2.26121">
        <ele>104.9</ele>
        <time>2023-04-05T12:24:56Z</time>
      </trkpt>
      <trkpt lat="49.82338" lon="2.26121">
        <ele>104.9</ele>
        <time>2023-04-05T12:24:57Z</time>
      </trkpt>
      <trkpt lat="49.8234" lon="2.26122">
        <ele>104.9</ele>
        <time>2023-04-05T12:24:59Z</time>
      </trkpt>
      <trkpt lat="49.8234" lon="2.26122">
        <ele>104.9</ele>
        <time>2023-04-05T12:25:00Z</time>
      </trkpt>
      <trkpt lat="49.82341" lon="2.26122">
        <ele>104.9</ele>
        <time>2023-04-05T12:25:01Z</time>
      </trkpt>
      <trkpt lat="49.82342" lon="2.26122">
        <ele>104.8</ele>
        <time>2023-04-05T12:25:02Z</time>
      </trkpt>
      <trkpt lat="49.82343" lon="2.26123">
        <ele>104.8</ele>
        <time>2023-04-05T12:25:03Z</time>
      </trkpt>
      <trkpt lat="49.82344" lon="2.26123">
        <ele>104.8</ele>
        <time>2023-04-05T12:25:04Z</time>
      </trkpt>
      <trkpt lat="49.82344" lon="2.26123">
        <ele>104.8</ele>
        <time>2023-04-05T12:25:05Z</time>
      </trkpt>
      <trkpt lat="49.82346" lon="2.26123">
        <ele>104.8</ele>
        <time>2023-04-05T12:25:06Z</time>
      </trkpt>
      <trkpt lat="49.82347" lon="2.26124">
        <ele>104.7</ele>
        <time>2023-04-05T12:25:07Z</time>
      </trkpt>
      <trkpt lat="49.8235" lon="2.26125">
        <ele>104.7</ele>
        <time>2023-04-05T12:25:09Z</time>
      </trkpt>
      <trkpt lat="49.8235" lon="2.26125">
        <ele>104.7</ele>
        <time>2023-04-05T12:25:10Z</time>
      </trkpt>
      <trkpt lat="49.82351" lon="2.26125">
        <ele>104.7</ele>
        <time>2023-04-05T12:25:11Z</time>
      </trkpt>
      <trkpt lat="49.82352" lon="2.26126">
        <ele>104.7</ele>
        <time>2023-04-05T12:25:12Z</time>
      </trkpt>
      <trkpt lat="49.82353" lon="2.26126">
        <ele>104.6</ele>
        <time>2023-04-05T12:25:13Z</time>
      </trkpt>
      <trkpt lat="49.82354" lon="2.26126">
        <ele>104.6</ele>
        <time>2023-04-05T12:25:14Z</time>
      </trkpt>
      <trkpt lat="49.82356" lon="2.26126">
        <ele>104.6</ele>
        <time>2023-04-05T12:25:15Z</time>
      </trkpt>
      <trkpt lat="49.82357" lon="2.26126">
        <ele>104.6</ele>
        <time>2023-04-05T12:25:16Z</time>
      </trkpt>
      <trkpt lat="49.82358" lon="2.26126">
        <ele>104.6</ele>
        <time>2023-04-05T12:25:17Z</time>
      </trkpt>
      <trkpt lat="49.8236" lon="2.26127">
        <ele>104.6</ele>
        <time>2023-04-05T12:25:19Z</time>
      </trkpt>
      <trkpt lat="49.82361" lon="2.26127">
        <ele>104.5</ele>
        <time>2023-04-05T12:25:20Z</time>
      </trkpt>
      <trkpt lat="49.82362" lon="2.26127">
        <ele>104.5</ele>
        <time>2023-04-05T12:25:21Z</time>
      </trkpt>
      <trkpt lat="49.82363" lon="2.26127">
        <ele>104.5</ele>
        <time>2023-04-05T12:25:22Z</time>
      </trkpt>
      <trkpt lat="49.82364" lon="2.26127">
        <ele>104.5</ele>
        <time>2023-04-05T12:25:23Z</time>
      </trkpt>
      <trkpt lat="49.82364" lon="2.26128">
        <ele>104.5</ele>
        <time>2023-04-05T12:25:24Z</time>
      </trkpt>
      <trkpt lat="49.82366" lon="2.26128">
        <ele>104.5</ele>
        <time>2023-04-05T12:25:25Z</time>
      </trkpt>
      <trkpt lat="49.82367" lon="2.26128">
        <ele>104.5</ele>
        <time>2023-04-05T12:25:26Z</time>
      </trkpt>
      <trkpt lat="49.82368" lon="2.26128">
        <ele>104.5</ele>
        <time>2023-04-05T12:25:27Z</time>
      </trkpt>
      <trkpt lat="49.82369" lon="2.26128">
        <ele>104.5</ele>
        <time>2023-04-05T12:25:29Z</time>
      </trkpt>
      <trkpt lat="49.8237" lon="2.26129">
        <ele>104.4</ele>
        <time>2023-04-05T12:25:30Z</time>
      </trkpt>
      <trkpt lat="49.82372" lon="2.26129">
        <ele>104.4</ele>
        <time>2023-04-05T12:25:31Z</time>
      </trkpt>
      <trkpt lat="49.82374" lon="2.26129">
        <ele>104.4</ele>
        <time>2023-04-05T12:25:32Z</time>
      </trkpt>
      <trkpt lat="49.82375" lon="2.2613">
        <ele>104.4</ele>
        <time>2023-04-05T12:25:33Z</time>
      </trkpt>
      <trkpt lat="49.82375" lon="2.2613">
        <ele>104.4</ele>
        <time>2023-04-05T12:25:34Z</time>
      </trkpt>
      <trkpt lat="49.82377" lon="2.26131">
        <ele>104.4</ele>
        <time>2023-04-05T12:25:35Z</time>
      </trkpt>
      <trkpt lat="49.82379" lon="2.26131">
        <ele>104.4</ele>
        <time>2023-04-05T12:25:37Z</time>
      </trkpt>
      <trkpt lat="49.8238" lon="2.26132">
        <ele>104.4</ele>
        <time>2023-04-05T12:25:39Z</time>
      </trkpt>
      <trkpt lat="49.82381" lon="2.26132">
        <ele>104.4</ele>
        <time>2023-04-05T12:25:41Z</time>
      </trkpt>
      <trkpt lat="49.82383" lon="2.26133">
        <ele>104.3</ele>
        <time>2023-04-05T12:25:42Z</time>
      </trkpt>
      <trkpt lat="49.82384" lon="2.26133">
        <ele>104.3</ele>
        <time>2023-04-05T12:25:43Z</time>
      </trkpt>
      <trkpt lat="49.82385" lon="2.26134">
        <ele>104.3</ele>
        <time>2023-04-05T12:25:44Z</time>
      </trkpt>
      <trkpt lat="49.82387" lon="2.26134">
        <ele>104.3</ele>
        <time>2023-04-05T12:25:45Z</time>
      </trkpt>
      <trkpt lat="49.82388" lon="2.26135">
        <ele>104.3</ele>
        <time>2023-04-05T12:25:47Z</time>
      </trkpt>
      <trkpt lat="49.82388" lon="2.26135">
        <ele>104.3</ele>
        <time>2023-04-05T12:25:48Z</time>
      </trkpt>
      <trkpt lat="49.8239" lon="2.26135">
        <ele>104.3</ele>
        <time>2023-04-05T12:25:49Z</time>
      </trkpt>
      <trkpt lat="49.82391" lon="2.26136">
        <ele>104.3</ele>
        <time>2023-04-05T12:25:50Z</time>
      </trkpt>
      <trkpt lat="49.82392" lon="2.26136">
        <ele>104.3</ele>
        <time>2023-04-05T12:25:51Z</time>
      </trkpt>
      <trkpt lat="49.82394" lon="2.26136">
        <ele>104.3</ele>
        <time>2023-04-05T12:25:52Z</time>
      </trkpt>
      <trkpt lat="49.82395" lon="2.26136">
        <ele>104.3</ele>
        <time>2023-04-05T12:25:53Z</time>
      </trkpt>
      <trkpt lat="49.82396" lon="2.26137">
        <ele>104.3</ele>
        <time>2023-04-05T12:25:54Z</time>
      </trkpt>
      <trkpt lat="49.82397" lon="2.26137">
        <ele>104.3</ele>
        <time>2023-04-05T12:25:55Z</time>
      </trkpt>
      <trkpt lat="49.82398" lon="2.26138">
        <ele>104.2</ele>
        <time>2023-04-05T12:25:56Z</time>
      </trkpt>
      <trkpt lat="49.824" lon="2.26138">
        <ele>104.2</ele>
        <time>2023-04-05T12:25:58Z</time>
      </trkpt>
      <trkpt lat="49.82401" lon="2.26138">
        <ele>104.2</ele>
        <time>2023-04-05T12:25:59Z</time>
      </trkpt>
      <trkpt lat="49.82401" lon="2.26139">
        <ele>104.2</ele>
        <time>2023-04-05T12:26:00Z</time>
      </trkpt>
      <trkpt lat="49.82402" lon="2.26139">
        <ele>104.2</ele>
        <time>2023-04-05T12:26:01Z</time>
      </trkpt>
      <trkpt lat="49.82404" lon="2.2614">
        <ele>104.2</ele>
        <time>2023-04-05T12:26:02Z</time>
      </trkpt>
      <trkpt lat="49.82405" lon="2.26141">
        <ele>104.2</ele>
        <time>2023-04-05T12:26:03Z</time>
      </trkpt>
      <trkpt lat="49.82406" lon="2.26141">
        <ele>104.2</ele>
        <time>2023-04-05T12:26:04Z</time>
      </trkpt>
      <trkpt lat="49.82407" lon="2.26142">
        <ele>104.2</ele>
        <time>2023-04-05T12:26:05Z</time>
      </trkpt>
      <trkpt lat="49.82408" lon="2.26143">
        <ele>104.2</ele>
        <time>2023-04-05T12:26:06Z</time>
      </trkpt>
      <trkpt lat="49.82409" lon="2.26144">
        <ele>104.2</ele>
        <time>2023-04-05T12:26:07Z</time>
      </trkpt>
      <trkpt lat="49.8241" lon="2.26145">
        <ele>104.1</ele>
        <time>2023-04-05T12:26:09Z</time>
      </trkpt>
      <trkpt lat="49.82411" lon="2.26145">
        <ele>104.1</ele>
        <time>2023-04-05T12:26:10Z</time>
      </trkpt>
      <trkpt lat="49.82413" lon="2.26146">
        <ele>104.1</ele>
        <time>2023-04-05T12:26:11Z</time>
      </trkpt>
      <trkpt lat="49.82414" lon="2.26147">
        <ele>104.1</ele>
        <time>2023-04-05T12:26:12Z</time>
      </trkpt>
      <trkpt lat="49.82415" lon="2.26147">
        <ele>104.1</ele>
        <time>2023-04-05T12:26:13Z</time>
      </trkpt>
      <trkpt lat="49.82416" lon="2.26148">
        <ele>104.1</ele>
        <time>2023-04-05T12:26:15Z</time>
      </trkpt>
      <trkpt lat="49.82417" lon="2.26148">
        <ele>104.1</ele>
        <time>2023-04-05T12:26:16Z</time>
      </trkpt>
      <trkpt lat="49.82419" lon="2.26149">
        <ele>104.1</ele>
        <time>2023-04-05T12:26:17Z</time>
      </trkpt>
      <trkpt lat="49.8242" lon="2.26149">
        <ele>104.1</ele>
        <time>2023-04-05T12:26:18Z</time>
      </trkpt>
      <trkpt lat="49.82422" lon="2.2615">
        <ele>104</ele>
        <time>2023-04-05T12:26:19Z</time>
      </trkpt>
      <trkpt lat="49.82423" lon="2.26151">
        <ele>104</ele>
        <time>2023-04-05T12:26:20Z</time>
      </trkpt>
      <trkpt lat="49.82424" lon="2.26152">
        <ele>104</ele>
        <time>2023-04-05T12:26:21Z</time>
      </trkpt>
      <trkpt lat="49.82425" lon="2.26152">
        <ele>104</ele>
        <time>2023-04-05T12:26:22Z</time>
      </trkpt>
      <trkpt lat="49.82426" lon="2.26152">
        <ele>104</ele>
        <time>2023-04-05T12:26:24Z</time>
      </trkpt>
      <trkpt lat="49.82427" lon="2.26152">
        <ele>104</ele>
        <time>2023-04-05T12:26:25Z</time>
      </trkpt>
      <trkpt lat="49.82429" lon="2.26152">
        <ele>104</ele>
        <time>2023-04-05T12:26:26Z</time>
      </trkpt>
      <trkpt lat="49.8243" lon="2.26152">
        <ele>104</ele>
        <time>2023-04-05T12:26:27Z</time>
      </trkpt>
      <trkpt lat="49.82431" lon="2.26152">
        <ele>104</ele>
        <time>2023-04-05T12:26:28Z</time>
      </trkpt>
      <trkpt lat="49.82433" lon="2.26152">
        <ele>104</ele>
        <time>2023-04-05T12:26:30Z</time>
      </trkpt>
      <trkpt lat="49.82435" lon="2.26153">
        <ele>104</ele>
        <time>2023-04-05T12:26:32Z</time>
      </trkpt>
      <trkpt lat="49.82435" lon="2.26153">
        <ele>103.9</ele>
        <time>2023-04-05T12:26:33Z</time>
      </trkpt>
      <trkpt lat="49.82436" lon="2.26154">
        <ele>103.9</ele>
        <time>2023-04-05T12:26:34Z</time>
      </trkpt>
      <trkpt lat="49.82437" lon="2.26154">
        <ele>103.9</ele>
        <time>2023-04-05T12:26:35Z</time>
      </trkpt>
      <trkpt lat="49.82438" lon="2.26155">
        <ele>103.9</ele>
        <time>2023-04-05T12:26:36Z</time>
      </trkpt>
      <trkpt lat="49.8244" lon="2.26155">
        <ele>103.9</ele>
        <time>2023-04-05T12:26:37Z</time>
      </trkpt>
      <trkpt lat="49.82441" lon="2.26156">
        <ele>103.9</ele>
        <time>2023-04-05T12:26:38Z</time>
      </trkpt>
      <trkpt lat="49.82443" lon="2.26156">
        <ele>103.9</ele>
        <time>2023-04-05T12:26:39Z</time>
      </trkpt>
      <trkpt lat="49.82444" lon="2.26156">
        <ele>103.9</ele>
        <time>2023-04-05T12:26:40Z</time>
      </trkpt>
      <trkpt lat="49.82445" lon="2.26156">
        <ele>103.9</ele>
        <time>2023-04-05T12:26:41Z</time>
      </trkpt>
      <trkpt lat="49.82448" lon="2.26157">
        <ele>103.9</ele>
        <time>2023-04-05T12:26:42Z</time>
      </trkpt>
      <trkpt lat="49.8245" lon="2.26157">
        <ele>103.9</ele>
        <time>2023-04-05T12:26:44Z</time>
      </trkpt>
      <trkpt lat="49.82451" lon="2.26157">
        <ele>103.9</ele>
        <time>2023-04-05T12:26:45Z</time>
      </trkpt>
      <trkpt lat="49.82452" lon="2.26157">
        <ele>103.9</ele>
        <time>2023-04-05T12:26:46Z</time>
      </trkpt>
      <trkpt lat="49.82454" lon="2.26158">
        <ele>103.9</ele>
        <time>2023-04-05T12:26:47Z</time>
      </trkpt>
      <trkpt lat="49.82455" lon="2.26158">
        <ele>103.9</ele>
        <time>2023-04-05T12:26:48Z</time>
      </trkpt>
      <trkpt lat="49.82456" lon="2.26158">
        <ele>103.9</ele>
        <time>2023-04-05T12:26:49Z</time>
      </trkpt>
      <trkpt lat="49.82457" lon="2.26159">
        <ele>103.9</ele>
        <time>2023-04-05T12:26:51Z</time>
      </trkpt>
      <trkpt lat="49.82458" lon="2.26159">
        <ele>103.9</ele>
        <time>2023-04-05T12:26:52Z</time>
      </trkpt>
      <trkpt lat="49.8246" lon="2.2616">
        <ele>103.9</ele>
        <time>2023-04-05T12:26:53Z</time>
      </trkpt>
      <trkpt lat="49.82461" lon="2.2616">
        <ele>103.9</ele>
        <time>2023-04-05T12:26:54Z</time>
      </trkpt>
      <trkpt lat="49.82463" lon="2.26161">
        <ele>103.9</ele>
        <time>2023-04-05T12:26:55Z</time>
      </trkpt>
      <trkpt lat="49.82464" lon="2.26161">
        <ele>103.9</ele>
        <time>2023-04-05T12:26:56Z</time>
      </trkpt>
      <trkpt lat="49.82466" lon="2.26161">
        <ele>103.9</ele>
        <time>2023-04-05T12:26:57Z</time>
      </trkpt>
      <trkpt lat="49.82467" lon="2.26162">
        <ele>103.9</ele>
        <time>2023-04-05T12:26:59Z</time>
      </trkpt>
      <trkpt lat="49.82468" lon="2.26162">
        <ele>103.9</ele>
        <time>2023-04-05T12:27:00Z</time>
      </trkpt>
      <trkpt lat="49.82469" lon="2.26162">
        <ele>103.9</ele>
        <time>2023-04-05T12:27:01Z</time>
      </trkpt>
      <trkpt lat="49.8247" lon="2.26162">
        <ele>103.9</ele>
        <time>2023-04-05T12:27:02Z</time>
      </trkpt>
      <trkpt lat="49.82471" lon="2.26162">
        <ele>103.9</ele>
        <time>2023-04-05T12:27:03Z</time>
      </trkpt>
      <trkpt lat="49.82472" lon="2.26163">
        <ele>103.9</ele>
        <time>2023-04-05T12:27:04Z</time>
      </trkpt>
      <trkpt lat="49.82474" lon="2.26164">
        <ele>103.9</ele>
        <time>2023-04-05T12:27:05Z</time>
      </trkpt>
      <trkpt lat="49.82475" lon="2.26164">
        <ele>103.9</ele>
        <time>2023-04-05T12:27:06Z</time>
      </trkpt>
      <trkpt lat="49.82477" lon="2.26165">
        <ele>103.9</ele>
        <time>2023-04-05T12:27:07Z</time>
      </trkpt>
      <trkpt lat="49.82477" lon="2.26166">
        <ele>103.9</ele>
        <time>2023-04-05T12:27:08Z</time>
      </trkpt>
      <trkpt lat="49.82478" lon="2.26166">
        <ele>103.9</ele>
        <time>2023-04-05T12:27:09Z</time>
      </trkpt>
      <trkpt lat="49.82479" lon="2.26167">
        <ele>103.9</ele>
        <time>2023-04-05T12:27:11Z</time>
      </trkpt>
      <trkpt lat="49.82481" lon="2.26168">
        <ele>103.9</ele>
        <time>2023-04-05T12:27:12Z</time>
      </trkpt>
      <trkpt lat="49.82483" lon="2.26169">
        <ele>103.9</ele>
        <time>2023-04-05T12:27:13Z</time>
      </trkpt>
      <trkpt lat="49.82484" lon="2.26169">
        <ele>103.9</ele>
        <time>2023-04-05T12:27:14Z</time>
      </trkpt>
      <trkpt lat="49.82484" lon="2.26169">
        <ele>103.9</ele>
        <time>2023-04-05T12:27:15Z</time>
      </trkpt>
      <trkpt lat="49.82485" lon="2.2617">
        <ele>103.9</ele>
        <time>2023-04-05T12:27:17Z</time>
      </trkpt>
      <trkpt lat="49.82487" lon="2.26169">
        <ele>103.9</ele>
        <time>2023-04-05T12:27:18Z</time>
      </trkpt>
      <trkpt lat="49.82488" lon="2.26169">
        <ele>103.9</ele>
        <time>2023-04-05T12:27:19Z</time>
      </trkpt>
      <trkpt lat="49.8249" lon="2.26169">
        <ele>103.9</ele>
        <time>2023-04-05T12:27:20Z</time>
      </trkpt>
      <trkpt lat="49.82491" lon="2.26169">
        <ele>103.9</ele>
        <time>2023-04-05T12:27:21Z</time>
      </trkpt>
      <trkpt lat="49.82492" lon="2.26169">
        <ele>103.9</ele>
        <time>2023-04-05T12:27:22Z</time>
      </trkpt>
      <trkpt lat="49.82493" lon="2.26168">
        <ele>103.9</ele>
        <time>2023-04-05T12:27:24Z</time>
      </trkpt>
      <trkpt lat="49.82494" lon="2.26168">
        <ele>103.9</ele>
        <time>2023-04-05T12:27:25Z</time>
      </trkpt>
      <trkpt lat="49.82495" lon="2.26168">
        <ele>103.9</ele>
        <time>2023-04-05T12:27:26Z</time>
      </trkpt>
      <trkpt lat="49.82496" lon="2.26168">
        <ele>103.9</ele>
        <time>2023-04-05T12:27:27Z</time>
      </trkpt>
      <trkpt lat="49.82497" lon="2.26168">
        <ele>103.9</ele>
        <time>2023-04-05T12:27:28Z</time>
      </trkpt>
      <trkpt lat="49.82499" lon="2.26168">
        <ele>103.9</ele>
        <time>2023-04-05T12:27:29Z</time>
      </trkpt>
      <trkpt lat="49.825" lon="2.26169">
        <ele>103.9</ele>
        <time>2023-04-05T12:27:31Z</time>
      </trkpt>
      <trkpt lat="49.82501" lon="2.26169">
        <ele>103.9</ele>
        <time>2023-04-05T12:27:32Z</time>
      </trkpt>
      <trkpt lat="49.82502" lon="2.2617">
        <ele>103.9</ele>
        <time>2023-04-05T12:27:33Z</time>
      </trkpt>
      <trkpt lat="49.82503" lon="2.2617">
        <ele>103.9</ele>
        <time>2023-04-05T12:27:34Z</time>
      </trkpt>
      <trkpt lat="49.82504" lon="2.2617">
        <ele>103.9</ele>
        <time>2023-04-05T12:27:35Z</time>
      </trkpt>
      <trkpt lat="49.82505" lon="2.2617">
        <ele>103.9</ele>
        <time>2023-04-05T12:27:36Z</time>
      </trkpt>
      <trkpt lat="49.82506" lon="2.26171">
        <ele>103.9</ele>
        <time>2023-04-05T12:27:37Z</time>
      </trkpt>
      <trkpt lat="49.82507" lon="2.26171">
        <ele>103.9</ele>
        <time>2023-04-05T12:27:38Z</time>
      </trkpt>
      <trkpt lat="49.82508" lon="2.26171">
        <ele>103.9</ele>
        <time>2023-04-05T12:27:39Z</time>
      </trkpt>
      <trkpt lat="49.82509" lon="2.26172">
        <ele>104</ele>
        <time>2023-04-05T12:27:40Z</time>
      </trkpt>
      <trkpt lat="49.8251" lon="2.26172">
        <ele>104</ele>
        <time>2023-04-05T12:27:42Z</time>
      </trkpt>
      <trkpt lat="49.8251" lon="2.26173">
        <ele>104</ele>
        <time>2023-04-05T12:27:43Z</time>
      </trkpt>
      <trkpt lat="49.82511" lon="2.26173">
        <ele>104</ele>
        <time>2023-04-05T12:27:44Z</time>
      </trkpt>
      <trkpt lat="49.82513" lon="2.26173">
        <ele>104</ele>
        <time>2023-04-05T12:27:45Z</time>
      </trkpt>
      <trkpt lat="49.82514" lon="2.26174">
        <ele>104</ele>
        <time>2023-04-05T12:27:46Z</time>
      </trkpt>
      <trkpt lat="49.82515" lon="2.26174">
        <ele>104</ele>
        <time>2023-04-05T12:27:47Z</time>
      </trkpt>
      <trkpt lat="49.82516" lon="2.26175">
        <ele>104</ele>
        <time>2023-04-05T12:27:48Z</time>
      </trkpt>
      <trkpt lat="49.82516" lon="2.26175">
        <ele>104</ele>
        <time>2023-04-05T12:27:49Z</time>
      </trkpt>
      <trkpt lat="49.82518" lon="2.26176">
        <ele>104</ele>
        <time>2023-04-05T12:27:50Z</time>
      </trkpt>
      <trkpt lat="49.82519" lon="2.26176">
        <ele>104</ele>
        <time>2023-04-05T12:27:51Z</time>
      </trkpt>
      <trkpt lat="49.8252" lon="2.26177">
        <ele>104</ele>
        <time>2023-04-05T12:27:53Z</time>
      </trkpt>
      <trkpt lat="49.82521" lon="2.26177">
        <ele>104</ele>
        <time>2023-04-05T12:27:54Z</time>
      </trkpt>
      <trkpt lat="49.82522" lon="2.26178">
        <ele>104</ele>
        <time>2023-04-05T12:27:55Z</time>
      </trkpt>
      <trkpt lat="49.82524" lon="2.26179">
        <ele>104</ele>
        <time>2023-04-05T12:27:56Z</time>
      </trkpt>
      <trkpt lat="49.82525" lon="2.26179">
        <ele>104</ele>
        <time>2023-04-05T12:27:57Z</time>
      </trkpt>
      <trkpt lat="49.82526" lon="2.26179">
        <ele>104</ele>
        <time>2023-04-05T12:27:59Z</time>
      </trkpt>
      <trkpt lat="49.82527" lon="2.26179">
        <ele>104</ele>
        <time>2023-04-05T12:28:00Z</time>
      </trkpt>
      <trkpt lat="49.82529" lon="2.2618">
        <ele>104</ele>
        <time>2023-04-05T12:28:01Z</time>
      </trkpt>
      <trkpt lat="49.8253" lon="2.2618">
        <ele>104</ele>
        <time>2023-04-05T12:28:02Z</time>
      </trkpt>
      <trkpt lat="49.8253" lon="2.2618">
        <ele>104</ele>
        <time>2023-04-05T12:28:03Z</time>
      </trkpt>
      <trkpt lat="49.82531" lon="2.26181">
        <ele>104.1</ele>
        <time>2023-04-05T12:28:04Z</time>
      </trkpt>
      <trkpt lat="49.82533" lon="2.26182">
        <ele>104.1</ele>
        <time>2023-04-05T12:28:06Z</time>
      </trkpt>
      <trkpt lat="49.82534" lon="2.26182">
        <ele>104.1</ele>
        <time>2023-04-05T12:28:07Z</time>
      </trkpt>
      <trkpt lat="49.82536" lon="2.26183">
        <ele>104.1</ele>
        <time>2023-04-05T12:28:08Z</time>
      </trkpt>
      <trkpt lat="49.82539" lon="2.26184">
        <ele>104</ele>
        <time>2023-04-05T12:28:09Z</time>
      </trkpt>
      <trkpt lat="49.8254" lon="2.26185">
        <ele>104</ele>
        <time>2023-04-05T12:28:10Z</time>
      </trkpt>
      <trkpt lat="49.82542" lon="2.26185">
        <ele>104</ele>
        <time>2023-04-05T12:28:11Z</time>
      </trkpt>
      <trkpt lat="49.82543" lon="2.26186">
        <ele>104</ele>
        <time>2023-04-05T12:28:12Z</time>
      </trkpt>
      <trkpt lat="49.82544" lon="2.26186">
        <ele>104</ele>
        <time>2023-04-05T12:28:13Z</time>
      </trkpt>
      <trkpt lat="49.82545" lon="2.26187">
        <ele>104</ele>
        <time>2023-04-05T12:28:14Z</time>
      </trkpt>
      <trkpt lat="49.82547" lon="2.26188">
        <ele>104</ele>
        <time>2023-04-05T12:28:16Z</time>
      </trkpt>
      <trkpt lat="49.82548" lon="2.26188">
        <ele>104</ele>
        <time>2023-04-05T12:28:17Z</time>
      </trkpt>
      <trkpt lat="49.8255" lon="2.26189">
        <ele>104</ele>
        <time>2023-04-05T12:28:18Z</time>
      </trkpt>
      <trkpt lat="49.82552" lon="2.2619">
        <ele>104</ele>
        <time>2023-04-05T12:28:19Z</time>
      </trkpt>
      <trkpt lat="49.82553" lon="2.26191">
        <ele>104</ele>
        <time>2023-04-05T12:28:20Z</time>
      </trkpt>
      <trkpt lat="49.82555" lon="2.26191">
        <ele>104</ele>
        <time>2023-04-05T12:28:21Z</time>
      </trkpt>
      <trkpt lat="49.82556" lon="2.26192">
        <ele>104</ele>
        <time>2023-04-05T12:28:22Z</time>
      </trkpt>
      <trkpt lat="49.82557" lon="2.26192">
        <ele>104</ele>
        <time>2023-04-05T12:28:23Z</time>
      </trkpt>
      <trkpt lat="49.82558" lon="2.26193">
        <ele>104</ele>
        <time>2023-04-05T12:28:24Z</time>
      </trkpt>
      <trkpt lat="49.8256" lon="2.26194">
        <ele>104</ele>
        <time>2023-04-05T12:28:26Z</time>
      </trkpt>
      <trkpt lat="49.82561" lon="2.26194">
        <ele>104</ele>
        <time>2023-04-05T12:28:27Z</time>
      </trkpt>
      <trkpt lat="49.82562" lon="2.26195">
        <ele>104</ele>
        <time>2023-04-05T12:28:28Z</time>
      </trkpt>
      <trkpt lat="49.82564" lon="2.26197">
        <ele>104</ele>
        <time>2023-04-05T12:28:29Z</time>
      </trkpt>
      <trkpt lat="49.82566" lon="2.26198">
        <ele>104</ele>
        <time>2023-04-05T12:28:31Z</time>
      </trkpt>
      <trkpt lat="49.82566" lon="2.26199">
        <ele>104</ele>
        <time>2023-04-05T12:28:32Z</time>
      </trkpt>
      <trkpt lat="49.82567" lon="2.26201">
        <ele>104</ele>
        <time>2023-04-05T12:28:33Z</time>
      </trkpt>
      <trkpt lat="49.82568" lon="2.26202">
        <ele>104</ele>
        <time>2023-04-05T12:28:34Z</time>
      </trkpt>
      <trkpt lat="49.82569" lon="2.26205">
        <ele>104</ele>
        <time>2023-04-05T12:28:36Z</time>
      </trkpt>
      <trkpt lat="49.8257" lon="2.26206">
        <ele>104</ele>
        <time>2023-04-05T12:28:37Z</time>
      </trkpt>
      <trkpt lat="49.8257" lon="2.26207">
        <ele>104</ele>
        <time>2023-04-05T12:28:38Z</time>
      </trkpt>
      <trkpt lat="49.82571" lon="2.26208">
        <ele>104</ele>
        <time>2023-04-05T12:28:39Z</time>
      </trkpt>
      <trkpt lat="49.82572" lon="2.2621">
        <ele>103.9</ele>
        <time>2023-04-05T12:28:40Z</time>
      </trkpt>
      <trkpt lat="49.82574" lon="2.26212">
        <ele>103.9</ele>
        <time>2023-04-05T12:28:41Z</time>
      </trkpt>
      <trkpt lat="49.82574" lon="2.26213">
        <ele>103.9</ele>
        <time>2023-04-05T12:28:42Z</time>
      </trkpt>
      <trkpt lat="49.82576" lon="2.26215">
        <ele>103.9</ele>
        <time>2023-04-05T12:28:43Z</time>
      </trkpt>
      <trkpt lat="49.82576" lon="2.26216">
        <ele>103.9</ele>
        <time>2023-04-05T12:28:44Z</time>
      </trkpt>
      <trkpt lat="49.82578" lon="2.26218">
        <ele>103.9</ele>
        <time>2023-04-05T12:28:46Z</time>
      </trkpt>
      <trkpt lat="49.82579" lon="2.26219">
        <ele>103.9</ele>
        <time>2023-04-05T12:28:47Z</time>
      </trkpt>
      <trkpt lat="49.82579" lon="2.2622">
        <ele>103.9</ele>
        <time>2023-04-05T12:28:48Z</time>
      </trkpt>
      <trkpt lat="49.8258" lon="2.26221">
        <ele>103.9</ele>
        <time>2023-04-05T12:28:50Z</time>
      </trkpt>
      <trkpt lat="49.82581" lon="2.26222">
        <ele>103.8</ele>
        <time>2023-04-05T12:28:51Z</time>
      </trkpt>
      <trkpt lat="49.82582" lon="2.26223">
        <ele>103.8</ele>
        <time>2023-04-05T12:28:52Z</time>
      </trkpt>
      <trkpt lat="49.82583" lon="2.26224">
        <ele>103.8</ele>
        <time>2023-04-05T12:28:53Z</time>
      </trkpt>
      <trkpt lat="49.82584" lon="2.26225">
        <ele>103.8</ele>
        <time>2023-04-05T12:28:54Z</time>
      </trkpt>
      <trkpt lat="49.82586" lon="2.26227">
        <ele>103.7</ele>
        <time>2023-04-05T12:28:56Z</time>
      </trkpt>
      <trkpt lat="49.82587" lon="2.26228">
        <ele>103.7</ele>
        <time>2023-04-05T12:28:57Z</time>
      </trkpt>
      <trkpt lat="49.82589" lon="2.2623">
        <ele>103.7</ele>
        <time>2023-04-05T12:28:59Z</time>
      </trkpt>
      <trkpt lat="49.8259" lon="2.26231">
        <ele>103.6</ele>
        <time>2023-04-05T12:29:01Z</time>
      </trkpt>
      <trkpt lat="49.82591" lon="2.26232">
        <ele>103.6</ele>
        <time>2023-04-05T12:29:02Z</time>
      </trkpt>
      <trkpt lat="49.82592" lon="2.26233">
        <ele>103.5</ele>
        <time>2023-04-05T12:29:03Z</time>
      </trkpt>
      <trkpt lat="49.82593" lon="2.26234">
        <ele>103.5</ele>
        <time>2023-04-05T12:29:04Z</time>
      </trkpt>
      <trkpt lat="49.82594" lon="2.26236">
        <ele>103.4</ele>
        <time>2023-04-05T12:29:05Z</time>
      </trkpt>
      <trkpt lat="49.82595" lon="2.26237">
        <ele>103.4</ele>
        <time>2023-04-05T12:29:07Z</time>
      </trkpt>
      <trkpt lat="49.82595" lon="2.26238">
        <ele>103.4</ele>
        <time>2023-04-05T12:29:08Z</time>
      </trkpt>
      <trkpt lat="49.82596" lon="2.26239">
        <ele>103.3</ele>
        <time>2023-04-05T12:29:09Z</time>
      </trkpt>
      <trkpt lat="49.82597" lon="2.26241">
        <ele>103.3</ele>
        <time>2023-04-05T12:29:10Z</time>
      </trkpt>
      <trkpt lat="49.82598" lon="2.26242">
        <ele>103.2</ele>
        <time>2023-04-05T12:29:11Z</time>
      </trkpt>
      <trkpt lat="49.82598" lon="2.26244">
        <ele>103.2</ele>
        <time>2023-04-05T12:29:12Z</time>
      </trkpt>
      <trkpt lat="49.826" lon="2.26246">
        <ele>103.1</ele>
        <time>2023-04-05T12:29:14Z</time>
      </trkpt>
      <trkpt lat="49.82601" lon="2.26248">
        <ele>103</ele>
        <time>2023-04-05T12:29:15Z</time>
      </trkpt>
      <trkpt lat="49.82602" lon="2.26249">
        <ele>102.9</ele>
        <time>2023-04-05T12:29:16Z</time>
      </trkpt>
      <trkpt lat="49.82603" lon="2.26249">
        <ele>102.9</ele>
        <time>2023-04-05T12:29:17Z</time>
      </trkpt>
      <trkpt lat="49.82604" lon="2.26251">
        <ele>102.8</ele>
        <time>2023-04-05T12:29:18Z</time>
      </trkpt>
      <trkpt lat="49.82605" lon="2.26252">
        <ele>102.7</ele>
        <time>2023-04-05T12:29:19Z</time>
      </trkpt>
      <trkpt lat="49.82606" lon="2.26252">
        <ele>102.7</ele>
        <time>2023-04-05T12:29:20Z</time>
      </trkpt>
      <trkpt lat="49.82608" lon="2.26252">
        <ele>102.6</ele>
        <time>2023-04-05T12:29:21Z</time>
      </trkpt>
      <trkpt lat="49.82609" lon="2.26253">
        <ele>102.5</ele>
        <time>2023-04-05T12:29:23Z</time>
      </trkpt>
      <trkpt lat="49.8261" lon="2.26253">
        <ele>102.5</ele>
        <time>2023-04-05T12:29:24Z</time>
      </trkpt>
      <trkpt lat="49.82611" lon="2.26254">
        <ele>102.4</ele>
        <time>2023-04-05T12:29:25Z</time>
      </trkpt>
      <trkpt lat="49.82612" lon="2.26254">
        <ele>102.3</ele>
        <time>2023-04-05T12:29:26Z</time>
      </trkpt>
      <trkpt lat="49.82613" lon="2.26255">
        <ele>102.2</ele>
        <time>2023-04-05T12:29:27Z</time>
      </trkpt>
      <trkpt lat="49.82614" lon="2.26255">
        <ele>102.2</ele>
        <time>2023-04-05T12:29:28Z</time>
      </trkpt>
      <trkpt lat="49.82615" lon="2.26255">
        <ele>102.2</ele>
        <time>2023-04-05T12:29:29Z</time>
      </trkpt>
      <trkpt lat="49.82616" lon="2.26255">
        <ele>102.1</ele>
        <time>2023-04-05T12:29:31Z</time>
      </trkpt>
      <trkpt lat="49.82617" lon="2.26255">
        <ele>102</ele>
        <time>2023-04-05T12:29:32Z</time>
      </trkpt>
      <trkpt lat="49.82618" lon="2.26255">
        <ele>102</ele>
        <time>2023-04-05T12:29:33Z</time>
      </trkpt>
      <trkpt lat="49.82619" lon="2.26255">
        <ele>101.9</ele>
        <time>2023-04-05T12:29:34Z</time>
      </trkpt>
      <trkpt lat="49.82619" lon="2.26256">
        <ele>101.9</ele>
        <time>2023-04-05T12:29:35Z</time>
      </trkpt>
      <trkpt lat="49.8262" lon="2.26256">
        <ele>101.8</ele>
        <time>2023-04-05T12:29:36Z</time>
      </trkpt>
      <trkpt lat="49.82621" lon="2.26256">
        <ele>101.7</ele>
        <time>2023-04-05T12:29:37Z</time>
      </trkpt>
      <trkpt lat="49.82622" lon="2.26256">
        <ele>101.7</ele>
        <time>2023-04-05T12:29:38Z</time>
      </trkpt>
      <trkpt lat="49.82623" lon="2.26256">
        <ele>101.6</ele>
        <time>2023-04-05T12:29:39Z</time>
      </trkpt>
      <trkpt lat="49.82623" lon="2.26256">
        <ele>101.6</ele>
        <time>2023-04-05T12:29:40Z</time>
      </trkpt>
      <trkpt lat="49.82623" lon="2.26255">
        <ele>101.6</ele>
        <time>2023-04-05T12:29:42Z</time>
      </trkpt>
      <trkpt lat="49.82623" lon="2.26255">
        <ele>101.5</ele>
        <time>2023-04-05T12:29:43Z</time>
      </trkpt>
      <trkpt lat="49.82624" lon="2.26254">
        <ele>101.5</ele>
        <time>2023-04-05T12:29:44Z</time>
      </trkpt>
      <trkpt lat="49.82625" lon="2.26254">
        <ele>101.4</ele>
        <time>2023-04-05T12:29:45Z</time>
      </trkpt>
      <trkpt lat="49.82626" lon="2.26253">
        <ele>101.3</ele>
        <time>2023-04-05T12:29:46Z</time>
      </trkpt>
      <trkpt lat="49.82626" lon="2.26253">
        <ele>101.3</ele>
        <time>2023-04-05T12:29:47Z</time>
      </trkpt>
      <trkpt lat="49.82626" lon="2.26252">
        <ele>101.3</ele>
        <time>2023-04-05T12:29:49Z</time>
      </trkpt>
      <trkpt lat="49.82626" lon="2.26251">
        <ele>101.2</ele>
        <time>2023-04-05T12:29:50Z</time>
      </trkpt>
      <trkpt lat="49.82626" lon="2.26251">
        <ele>101.2</ele>
        <time>2023-04-05T12:29:51Z</time>
      </trkpt>
      <trkpt lat="49.82626" lon="2.2625">
        <ele>101.2</ele>
        <time>2023-04-05T12:29:52Z</time>
      </trkpt>
      <trkpt lat="49.82627" lon="2.26249">
        <ele>101.1</ele>
        <time>2023-04-05T12:29:53Z</time>
      </trkpt>
      <trkpt lat="49.82627" lon="2.26248">
        <ele>101.1</ele>
        <time>2023-04-05T12:29:54Z</time>
      </trkpt>
      <trkpt lat="49.82626" lon="2.26247">
        <ele>101</ele>
        <time>2023-04-05T12:29:55Z</time>
      </trkpt>
      <trkpt lat="49.82626" lon="2.26246">
        <ele>100.9</ele>
        <time>2023-04-05T12:29:57Z</time>
      </trkpt>
      <trkpt lat="49.82626" lon="2.26244">
        <ele>100.9</ele>
        <time>2023-04-05T12:29:58Z</time>
      </trkpt>
      <trkpt lat="49.82625" lon="2.26242">
        <ele>100.7</ele>
        <time>2023-04-05T12:29:59Z</time>
      </trkpt>
      <trkpt lat="49.82623" lon="2.26239">
        <ele>100.6</ele>
        <time>2023-04-05T12:30:00Z</time>
      </trkpt>
      <trkpt lat="49.82622" lon="2.26238">
        <ele>100.5</ele>
        <time>2023-04-05T12:30:01Z</time>
      </trkpt>
      <trkpt lat="49.82622" lon="2.26237">
        <ele>100.4</ele>
        <time>2023-04-05T12:30:02Z</time>
      </trkpt>
      <trkpt lat="49.82622" lon="2.26237">
        <ele>100.4</ele>
        <time>2023-04-05T12:30:03Z</time>
      </trkpt>
      <trkpt lat="49.82621" lon="2.26236">
        <ele>100.4</ele>
        <time>2023-04-05T12:30:04Z</time>
      </trkpt>
      <trkpt lat="49.8262" lon="2.26236">
        <ele>100.3</ele>
        <time>2023-04-05T12:30:06Z</time>
      </trkpt>
      <trkpt lat="49.8262" lon="2.26236">
        <ele>100.3</ele>
        <time>2023-04-05T12:30:07Z</time>
      </trkpt>
      <trkpt lat="49.8262" lon="2.26236">
        <ele>100.3</ele>
        <time>2023-04-05T12:30:08Z</time>
      </trkpt>
      <trkpt lat="49.82621" lon="2.26236">
        <ele>100.3</ele>
        <time>2023-04-05T12:30:09Z</time>
      </trkpt>
      <trkpt lat="49.82621" lon="2.26236">
        <ele>100.2</ele>
        <time>2023-04-05T12:30:10Z</time>
      </trkpt>
      <trkpt lat="49.82622" lon="2.26236">
        <ele>100.2</ele>
        <time>2023-04-05T12:30:11Z</time>
      </trkpt>
      <trkpt lat="49.82622" lon="2.26236">
        <ele>100.2</ele>
        <time>2023-04-05T12:30:12Z</time>
      </trkpt>
      <trkpt lat="49.82623" lon="2.26236">
        <ele>100.1</ele>
        <time>2023-04-05T12:30:13Z</time>
      </trkpt>
      <trkpt lat="49.82623" lon="2.26236">
        <ele>100.1</ele>
        <time>2023-04-05T12:30:15Z</time>
      </trkpt>
      <trkpt lat="49.82624" lon="2.26236">
        <ele>100.1</ele>
        <time>2023-04-05T12:30:16Z</time>
      </trkpt>
      <trkpt lat="49.82624" lon="2.26236">
        <ele>100.1</ele>
        <time>2023-04-05T12:30:17Z</time>
      </trkpt>
      <trkpt lat="49.82625" lon="2.26236">
        <ele>100</ele>
        <time>2023-04-05T12:30:18Z</time>
      </trkpt>
      <trkpt lat="49.82626" lon="2.26237">
        <ele>99.9</ele>
        <time>2023-04-05T12:30:19Z</time>
      </trkpt>
      <trkpt lat="49.82627" lon="2.26237">
        <ele>99.9</ele>
        <time>2023-04-05T12:30:20Z</time>
      </trkpt>
      <trkpt lat="49.82629" lon="2.26238">
        <ele>99.8</ele>
        <time>2023-04-05T12:30:21Z</time>
      </trkpt>
      <trkpt lat="49.8263" lon="2.2624">
        <ele>99.6</ele>
        <time>2023-04-05T12:30:22Z</time>
      </trkpt>
      <trkpt lat="49.82633" lon="2.26241">
        <ele>99.5</ele>
        <time>2023-04-05T12:30:23Z</time>
      </trkpt>
      <trkpt lat="49.82636" lon="2.26243">
        <ele>99.3</ele>
        <time>2023-04-05T12:30:24Z</time>
      </trkpt>
      <trkpt lat="49.82639" lon="2.26244">
        <ele>99.1</ele>
        <time>2023-04-05T12:30:25Z</time>
      </trkpt>
      <trkpt lat="49.82642" lon="2.26245">
        <ele>99</ele>
        <time>2023-04-05T12:30:27Z</time>
      </trkpt>
      <trkpt lat="49.82643" lon="2.26246">
        <ele>98.9</ele>
        <time>2023-04-05T12:30:28Z</time>
      </trkpt>
      <trkpt lat="49.82645" lon="2.26246">
        <ele>98.8</ele>
        <time>2023-04-05T12:30:29Z</time>
      </trkpt>
      <trkpt lat="49.82646" lon="2.26246">
        <ele>98.8</ele>
        <time>2023-04-05T12:30:30Z</time>
      </trkpt>
      <trkpt lat="49.82648" lon="2.26246">
        <ele>98.7</ele>
        <time>2023-04-05T12:30:31Z</time>
      </trkpt>
      <trkpt lat="49.82649" lon="2.26246">
        <ele>98.6</ele>
        <time>2023-04-05T12:30:32Z</time>
      </trkpt>
      <trkpt lat="49.82651" lon="2.26247">
        <ele>98.6</ele>
        <time>2023-04-05T12:30:33Z</time>
      </trkpt>
      <trkpt lat="49.82652" lon="2.26247">
        <ele>98.5</ele>
        <time>2023-04-05T12:30:34Z</time>
      </trkpt>
      <trkpt lat="49.82654" lon="2.26247">
        <ele>98.4</ele>
        <time>2023-04-05T12:30:36Z</time>
      </trkpt>
      <trkpt lat="49.82655" lon="2.26248">
        <ele>98.4</ele>
        <time>2023-04-05T12:30:37Z</time>
      </trkpt>
      <trkpt lat="49.82656" lon="2.26248">
        <ele>98.3</ele>
        <time>2023-04-05T12:30:39Z</time>
      </trkpt>
      <trkpt lat="49.82656" lon="2.26248">
        <ele>98.3</ele>
        <time>2023-04-05T12:30:40Z</time>
      </trkpt>
      <trkpt lat="49.82657" lon="2.26248">
        <ele>98.3</ele>
        <time>2023-04-05T12:30:41Z</time>
      </trkpt>
      <trkpt lat="49.82658" lon="2.26249">
        <ele>98.3</ele>
        <time>2023-04-05T12:30:42Z</time>
      </trkpt>
      <trkpt lat="49.82659" lon="2.26249">
        <ele>98.2</ele>
        <time>2023-04-05T12:30:43Z</time>
      </trkpt>
      <trkpt lat="49.8266" lon="2.26249">
        <ele>98.2</ele>
        <time>2023-04-05T12:30:44Z</time>
      </trkpt>
      <trkpt lat="49.8266" lon="2.26249">
        <ele>98.2</ele>
        <time>2023-04-05T12:30:45Z</time>
      </trkpt>
      <trkpt lat="49.82661" lon="2.26248">
        <ele>98.2</ele>
        <time>2023-04-05T12:30:46Z</time>
      </trkpt>
      <trkpt lat="49.82661" lon="2.26248">
        <ele>98.1</ele>
        <time>2023-04-05T12:30:47Z</time>
      </trkpt>
      <trkpt lat="49.82662" lon="2.26248">
        <ele>98.1</ele>
        <time>2023-04-05T12:30:48Z</time>
      </trkpt>
      <trkpt lat="49.82662" lon="2.26247">
        <ele>98.1</ele>
        <time>2023-04-05T12:30:50Z</time>
      </trkpt>
      <trkpt lat="49.82662" lon="2.26247">
        <ele>98.1</ele>
        <time>2023-04-05T12:30:51Z</time>
      </trkpt>
      <trkpt lat="49.82662" lon="2.26247">
        <ele>98.1</ele>
        <time>2023-04-05T12:30:52Z</time>
      </trkpt>
      <trkpt lat="49.82662" lon="2.26248">
        <ele>98.1</ele>
        <time>2023-04-05T12:30:53Z</time>
      </trkpt>
      <trkpt lat="49.82661" lon="2.26248">
        <ele>98.1</ele>
        <time>2023-04-05T12:30:54Z</time>
      </trkpt>
      <trkpt lat="49.82661" lon="2.26248">
        <ele>98</ele>
        <time>2023-04-05T12:30:55Z</time>
      </trkpt>
      <trkpt lat="49.82661" lon="2.26248">
        <ele>98</ele>
        <time>2023-04-05T12:30:57Z</time>
      </trkpt>
      <trkpt lat="49.82662" lon="2.26248">
        <ele>98</ele>
        <time>2023-04-05T12:30:58Z</time>
      </trkpt>
      <trkpt lat="49.82662" lon="2.26247">
        <ele>98</ele>
        <time>2023-04-05T12:30:59Z</time>
      </trkpt>
      <trkpt lat="49.82662" lon="2.26247">
        <ele>98</ele>
        <time>2023-04-05T12:31:00Z</time>
      </trkpt>
      <trkpt lat="49.82663" lon="2.26247">
        <ele>98</ele>
        <time>2023-04-05T12:31:01Z</time>
      </trkpt>
      <trkpt lat="49.82664" lon="2.26247">
        <ele>97.9</ele>
        <time>2023-04-05T12:31:02Z</time>
      </trkpt>
      <trkpt lat="49.82665" lon="2.26247">
        <ele>97.9</ele>
        <time>2023-04-05T12:31:03Z</time>
      </trkpt>
      <trkpt lat="49.82665" lon="2.26247">
        <ele>97.9</ele>
        <time>2023-04-05T12:31:04Z</time>
      </trkpt>
      <trkpt lat="49.82666" lon="2.26247">
        <ele>97.9</ele>
        <time>2023-04-05T12:31:05Z</time>
      </trkpt>
      <trkpt lat="49.82667" lon="2.26247">
        <ele>97.8</ele>
        <time>2023-04-05T12:31:06Z</time>
      </trkpt>
      <trkpt lat="49.82668" lon="2.26247">
        <ele>97.8</ele>
        <time>2023-04-05T12:31:07Z</time>
      </trkpt>
      <trkpt lat="49.82669" lon="2.26247">
        <ele>97.8</ele>
        <time>2023-04-05T12:31:09Z</time>
      </trkpt>
      <trkpt lat="49.82671" lon="2.26246">
        <ele>97.7</ele>
        <time>2023-04-05T12:31:10Z</time>
      </trkpt>
      <trkpt lat="49.82672" lon="2.26246">
        <ele>97.7</ele>
        <time>2023-04-05T12:31:11Z</time>
      </trkpt>
      <trkpt lat="49.82674" lon="2.26246">
        <ele>97.6</ele>
        <time>2023-04-05T12:31:12Z</time>
      </trkpt>
      <trkpt lat="49.82676" lon="2.26245">
        <ele>97.6</ele>
        <time>2023-04-05T12:31:14Z</time>
      </trkpt>
      <trkpt lat="49.82677" lon="2.26245">
        <ele>97.5</ele>
        <time>2023-04-05T12:31:15Z</time>
      </trkpt>
      <trkpt lat="49.82679" lon="2.26245">
        <ele>97.4</ele>
        <time>2023-04-05T12:31:16Z</time>
      </trkpt>
      <trkpt lat="49.8268" lon="2.26244">
        <ele>97.4</ele>
        <time>2023-04-05T12:31:17Z</time>
      </trkpt>
      <trkpt lat="49.82683" lon="2.26244">
        <ele>97.3</ele>
        <time>2023-04-05T12:31:18Z</time>
      </trkpt>
      <trkpt lat="49.82688" lon="2.26245">
        <ele>97.2</ele>
        <time>2023-04-05T12:31:19Z</time>
      </trkpt>
      <trkpt lat="49.82692" lon="2.26245">
        <ele>97.2</ele>
        <time>2023-04-05T12:31:20Z</time>
      </trkpt>
      <trkpt lat="49.82695" lon="2.26245">
        <ele>97.1</ele>
        <time>2023-04-05T12:31:21Z</time>
      </trkpt>
      <trkpt lat="49.82698" lon="2.26246">
        <ele>97.1</ele>
        <time>2023-04-05T12:31:22Z</time>
      </trkpt>
      <trkpt lat="49.82702" lon="2.26247">
        <ele>97</ele>
        <time>2023-04-05T12:31:24Z</time>
      </trkpt>
      <trkpt lat="49.82703" lon="2.26247">
        <ele>97</ele>
        <time>2023-04-05T12:31:25Z</time>
      </trkpt>
      <trkpt lat="49.82705" lon="2.26248">
        <ele>97</ele>
        <time>2023-04-05T12:31:26Z</time>
      </trkpt>
      <trkpt lat="49.82706" lon="2.26248">
        <ele>96.9</ele>
        <time>2023-04-05T12:31:27Z</time>
      </trkpt>
      <trkpt lat="49.82708" lon="2.26248">
        <ele>96.9</ele>
        <time>2023-04-05T12:31:28Z</time>
      </trkpt>
      <trkpt lat="49.8271" lon="2.26248">
        <ele>96.9</ele>
        <time>2023-04-05T12:31:29Z</time>
      </trkpt>
      <trkpt lat="49.82712" lon="2.26249">
        <ele>96.9</ele>
        <time>2023-04-05T12:31:30Z</time>
      </trkpt>
      <trkpt lat="49.82713" lon="2.26249">
        <ele>96.9</ele>
        <time>2023-04-05T12:31:32Z</time>
      </trkpt>
      <trkpt lat="49.82713" lon="2.26249">
        <ele>96.8</ele>
        <time>2023-04-05T12:31:33Z</time>
      </trkpt>
      <trkpt lat="49.82715" lon="2.2625">
        <ele>96.8</ele>
        <time>2023-04-05T12:31:34Z</time>
      </trkpt>
      <trkpt lat="49.82716" lon="2.2625">
        <ele>96.8</ele>
        <time>2023-04-05T12:31:35Z</time>
      </trkpt>
      <trkpt lat="49.82717" lon="2.26251">
        <ele>96.8</ele>
        <time>2023-04-05T12:31:36Z</time>
      </trkpt>
      <trkpt lat="49.82718" lon="2.26251">
        <ele>96.8</ele>
        <time>2023-04-05T12:31:37Z</time>
      </trkpt>
      <trkpt lat="49.82718" lon="2.26252">
        <ele>96.8</ele>
        <time>2023-04-05T12:31:38Z</time>
      </trkpt>
      <trkpt lat="49.82719" lon="2.26252">
        <ele>96.7</ele>
        <time>2023-04-05T12:31:39Z</time>
      </trkpt>
      <trkpt lat="49.8272" lon="2.26253">
        <ele>96.7</ele>
        <time>2023-04-05T12:31:41Z</time>
      </trkpt>
      <trkpt lat="49.82721" lon="2.26253">
        <ele>96.7</ele>
        <time>2023-04-05T12:31:42Z</time>
      </trkpt>
      <trkpt lat="49.82721" lon="2.26253">
        <ele>96.7</ele>
        <time>2023-04-05T12:31:43Z</time>
      </trkpt>
      <trkpt lat="49.82722" lon="2.26253">
        <ele>96.7</ele>
        <time>2023-04-05T12:31:44Z</time>
      </trkpt>
      <trkpt lat="49.82723" lon="2.26253">
        <ele>96.7</ele>
        <time>2023-04-05T12:31:45Z</time>
      </trkpt>
      <trkpt lat="49.82723" lon="2.26254">
        <ele>96.7</ele>
        <time>2023-04-05T12:31:47Z</time>
      </trkpt>
      <trkpt lat="49.82723" lon="2.26255">
        <ele>96.7</ele>
        <time>2023-04-05T12:31:48Z</time>
      </trkpt>
      <trkpt lat="49.82724" lon="2.26256">
        <ele>96.7</ele>
        <time>2023-04-05T12:31:50Z</time>
      </trkpt>
      <trkpt lat="49.82723" lon="2.26256">
        <ele>96.6</ele>
        <time>2023-04-05T12:31:51Z</time>
      </trkpt>
      <trkpt lat="49.82723" lon="2.26257">
        <ele>96.6</ele>
        <time>2023-04-05T12:31:52Z</time>
      </trkpt>
      <trkpt lat="49.82723" lon="2.26258">
        <ele>96.6</ele>
        <time>2023-04-05T12:31:53Z</time>
      </trkpt>
      <trkpt lat="49.82724" lon="2.26258">
        <ele>96.6</ele>
        <time>2023-04-05T12:31:54Z</time>
      </trkpt>
      <trkpt lat="49.82725" lon="2.26259">
        <ele>96.6</ele>
        <time>2023-04-05T12:31:55Z</time>
      </trkpt>
      <trkpt lat="49.82725" lon="2.2626">
        <ele>96.6</ele>
        <time>2023-04-05T12:31:56Z</time>
      </trkpt>
      <trkpt lat="49.82725" lon="2.2626">
        <ele>96.6</ele>
        <time>2023-04-05T12:31:58Z</time>
      </trkpt>
      <trkpt lat="49.82726" lon="2.2626">
        <ele>96.6</ele>
        <time>2023-04-05T12:31:59Z</time>
      </trkpt>
      <trkpt lat="49.82727" lon="2.26261">
        <ele>96.6</ele>
        <time>2023-04-05T12:32:00Z</time>
      </trkpt>
      <trkpt lat="49.82727" lon="2.26261">
        <ele>96.6</ele>
        <time>2023-04-05T12:32:01Z</time>
      </trkpt>
      <trkpt lat="49.82729" lon="2.2626">
        <ele>96.5</ele>
        <time>2023-04-05T12:32:02Z</time>
      </trkpt>
      <trkpt lat="49.8273" lon="2.2626">
        <ele>96.5</ele>
        <time>2023-04-05T12:32:03Z</time>
      </trkpt>
      <trkpt lat="49.82731" lon="2.2626">
        <ele>96.5</ele>
        <time>2023-04-05T12:32:04Z</time>
      </trkpt>
      <trkpt lat="49.82733" lon="2.2626">
        <ele>96.5</ele>
        <time>2023-04-05T12:32:06Z</time>
      </trkpt>
      <trkpt lat="49.82735" lon="2.2626">
        <ele>96.5</ele>
        <time>2023-04-05T12:32:07Z</time>
      </trkpt>
      <trkpt lat="49.82736" lon="2.2626">
        <ele>96.4</ele>
        <time>2023-04-05T12:32:08Z</time>
      </trkpt>
      <trkpt lat="49.82738" lon="2.2626">
        <ele>96.4</ele>
        <time>2023-04-05T12:32:09Z</time>
      </trkpt>
      <trkpt lat="49.82739" lon="2.2626">
        <ele>96.4</ele>
        <time>2023-04-05T12:32:10Z</time>
      </trkpt>
      <trkpt lat="49.82741" lon="2.26261">
        <ele>96.4</ele>
        <time>2023-04-05T12:32:11Z</time>
      </trkpt>
      <trkpt lat="49.82742" lon="2.26262">
        <ele>96.4</ele>
        <time>2023-04-05T12:32:12Z</time>
      </trkpt>
      <trkpt lat="49.82744" lon="2.26262">
        <ele>96.3</ele>
        <time>2023-04-05T12:32:14Z</time>
      </trkpt>
      <trkpt lat="49.82745" lon="2.26263">
        <ele>96.3</ele>
        <time>2023-04-05T12:32:15Z</time>
      </trkpt>
      <trkpt lat="49.82747" lon="2.26263">
        <ele>96.3</ele>
        <time>2023-04-05T12:32:16Z</time>
      </trkpt>
      <trkpt lat="49.82748" lon="2.26263">
        <ele>96.3</ele>
        <time>2023-04-05T12:32:18Z</time>
      </trkpt>
      <trkpt lat="49.82749" lon="2.26262">
        <ele>96.3</ele>
        <time>2023-04-05T12:32:20Z</time>
      </trkpt>
      <trkpt lat="49.82749" lon="2.26261">
        <ele>96.3</ele>
        <time>2023-04-05T12:32:21Z</time>
      </trkpt>
      <trkpt lat="49.82749" lon="2.2626">
        <ele>96.3</ele>
        <time>2023-04-05T12:32:22Z</time>
      </trkpt>
      <trkpt lat="49.8275" lon="2.2626">
        <ele>96.2</ele>
        <time>2023-04-05T12:32:24Z</time>
      </trkpt>
      <trkpt lat="49.8275" lon="2.26259">
        <ele>96.2</ele>
        <time>2023-04-05T12:32:25Z</time>
      </trkpt>
      <trkpt lat="49.8275" lon="2.26259">
        <ele>96.2</ele>
        <time>2023-04-05T12:32:27Z</time>
      </trkpt>
      <trkpt lat="49.82749" lon="2.26259">
        <ele>96.2</ele>
        <time>2023-04-05T12:32:28Z</time>
      </trkpt>
      <trkpt lat="49.8275" lon="2.26259">
        <ele>96.2</ele>
        <time>2023-04-05T12:32:29Z</time>
      </trkpt>
      <trkpt lat="49.8275" lon="2.26259">
        <ele>96.2</ele>
        <time>2023-04-05T12:32:30Z</time>
      </trkpt>
      <trkpt lat="49.8275" lon="2.26259">
        <ele>96.2</ele>
        <time>2023-04-05T12:32:31Z</time>
      </trkpt>
      <trkpt lat="49.8275" lon="2.26259">
        <ele>96.2</ele>
        <time>2023-04-05T12:32:33Z</time>
      </trkpt>
      <trkpt lat="49.82751" lon="2.26259">
        <ele>96.2</ele>
        <time>2023-04-05T12:32:34Z</time>
      </trkpt>
      <trkpt lat="49.82752" lon="2.2626">
        <ele>96.2</ele>
        <time>2023-04-05T12:32:35Z</time>
      </trkpt>
      <trkpt lat="49.82754" lon="2.26261">
        <ele>96.2</ele>
        <time>2023-04-05T12:32:36Z</time>
      </trkpt>
      <trkpt lat="49.82755" lon="2.26261">
        <ele>96.1</ele>
        <time>2023-04-05T12:32:37Z</time>
      </trkpt>
      <trkpt lat="49.82756" lon="2.26262">
        <ele>96.1</ele>
        <time>2023-04-05T12:32:39Z</time>
      </trkpt>
      <trkpt lat="49.82757" lon="2.26263">
        <ele>96.1</ele>
        <time>2023-04-05T12:32:40Z</time>
      </trkpt>
      <trkpt lat="49.82759" lon="2.26265">
        <ele>96</ele>
        <time>2023-04-05T12:32:41Z</time>
      </trkpt>
      <trkpt lat="49.8276" lon="2.26265">
        <ele>96</ele>
        <time>2023-04-05T12:32:43Z</time>
      </trkpt>
      <trkpt lat="49.82761" lon="2.26266">
        <ele>96</ele>
        <time>2023-04-05T12:32:44Z</time>
      </trkpt>
      <trkpt lat="49.82762" lon="2.26267">
        <ele>95.9</ele>
        <time>2023-04-05T12:32:46Z</time>
      </trkpt>
      <trkpt lat="49.82763" lon="2.26268">
        <ele>95.9</ele>
        <time>2023-04-05T12:32:47Z</time>
      </trkpt>
      <trkpt lat="49.82764" lon="2.26268">
        <ele>95.9</ele>
        <time>2023-04-05T12:32:48Z</time>
      </trkpt>
      <trkpt lat="49.82764" lon="2.26269">
        <ele>95.9</ele>
        <time>2023-04-05T12:32:50Z</time>
      </trkpt>
      <trkpt lat="49.82765" lon="2.26269">
        <ele>95.9</ele>
        <time>2023-04-05T12:32:51Z</time>
      </trkpt>
      <trkpt lat="49.82765" lon="2.26269">
        <ele>95.8</ele>
        <time>2023-04-05T12:32:53Z</time>
      </trkpt>
      <trkpt lat="49.82766" lon="2.2627">
        <ele>95.8</ele>
        <time>2023-04-05T12:32:54Z</time>
      </trkpt>
      <trkpt lat="49.82768" lon="2.26271">
        <ele>95.8</ele>
        <time>2023-04-05T12:32:56Z</time>
      </trkpt>
      <trkpt lat="49.82769" lon="2.26272">
        <ele>95.7</ele>
        <time>2023-04-05T12:32:57Z</time>
      </trkpt>
      <trkpt lat="49.8277" lon="2.26273">
        <ele>95.7</ele>
        <time>2023-04-05T12:32:58Z</time>
      </trkpt>
      <trkpt lat="49.82773" lon="2.26276">
        <ele>95.6</ele>
        <time>2023-04-05T12:32:59Z</time>
      </trkpt>
      <trkpt lat="49.82774" lon="2.26277">
        <ele>95.6</ele>
        <time>2023-04-05T12:33:00Z</time>
      </trkpt>
      <trkpt lat="49.82777" lon="2.26279">
        <ele>95.5</ele>
        <time>2023-04-05T12:33:01Z</time>
      </trkpt>
      <trkpt lat="49.82779" lon="2.26281">
        <ele>95.4</ele>
        <time>2023-04-05T12:33:02Z</time>
      </trkpt>
      <trkpt lat="49.82782" lon="2.26284">
        <ele>95.3</ele>
        <time>2023-04-05T12:33:03Z</time>
      </trkpt>
      <trkpt lat="49.82785" lon="2.26287">
        <ele>95.2</ele>
        <time>2023-04-05T12:33:05Z</time>
      </trkpt>
      <trkpt lat="49.82789" lon="2.2629">
        <ele>95.1</ele>
        <time>2023-04-05T12:33:06Z</time>
      </trkpt>
      <trkpt lat="49.82791" lon="2.26292">
        <ele>95.1</ele>
        <time>2023-04-05T12:33:07Z</time>
      </trkpt>
      <trkpt lat="49.82794" lon="2.26294">
        <ele>95</ele>
        <time>2023-04-05T12:33:08Z</time>
      </trkpt>
      <trkpt lat="49.82797" lon="2.26296">
        <ele>94.9</ele>
        <time>2023-04-05T12:33:09Z</time>
      </trkpt>
      <trkpt lat="49.828" lon="2.26297">
        <ele>94.9</ele>
        <time>2023-04-05T12:33:10Z</time>
      </trkpt>
      <trkpt lat="49.82804" lon="2.26301">
        <ele>94.9</ele>
        <time>2023-04-05T12:33:12Z</time>
      </trkpt>
      <trkpt lat="49.82805" lon="2.26302">
        <ele>94.8</ele>
        <time>2023-04-05T12:33:13Z</time>
      </trkpt>
      <trkpt lat="49.82806" lon="2.26303">
        <ele>94.8</ele>
        <time>2023-04-05T12:33:14Z</time>
      </trkpt>
      <trkpt lat="49.82808" lon="2.26305">
        <ele>94.8</ele>
        <time>2023-04-05T12:33:15Z</time>
      </trkpt>
      <trkpt lat="49.82811" lon="2.26308">
        <ele>94.8</ele>
        <time>2023-04-05T12:33:17Z</time>
      </trkpt>
      <trkpt lat="49.82812" lon="2.26309">
        <ele>94.8</ele>
        <time>2023-04-05T12:33:18Z</time>
      </trkpt>
      <trkpt lat="49.82814" lon="2.26311">
        <ele>94.8</ele>
        <time>2023-04-05T12:33:19Z</time>
      </trkpt>
      <trkpt lat="49.82815" lon="2.26312">
        <ele>94.8</ele>
        <time>2023-04-05T12:33:21Z</time>
      </trkpt>
      <trkpt lat="49.82817" lon="2.26315">
        <ele>94.8</ele>
        <time>2023-04-05T12:33:22Z</time>
      </trkpt>
      <trkpt lat="49.82818" lon="2.26316">
        <ele>94.8</ele>
        <time>2023-04-05T12:33:23Z</time>
      </trkpt>
      <trkpt lat="49.82819" lon="2.26318">
        <ele>94.9</ele>
        <time>2023-04-05T12:33:24Z</time>
      </trkpt>
      <trkpt lat="49.82821" lon="2.26321">
        <ele>94.9</ele>
        <time>2023-04-05T12:33:26Z</time>
      </trkpt>
      <trkpt lat="49.82822" lon="2.26322">
        <ele>94.9</ele>
        <time>2023-04-05T12:33:27Z</time>
      </trkpt>
      <trkpt lat="49.82824" lon="2.26326">
        <ele>94.9</ele>
        <time>2023-04-05T12:33:28Z</time>
      </trkpt>
      <trkpt lat="49.82825" lon="2.26327">
        <ele>94.9</ele>
        <time>2023-04-05T12:33:30Z</time>
      </trkpt>
      <trkpt lat="49.82826" lon="2.26329">
        <ele>95</ele>
        <time>2023-04-05T12:33:31Z</time>
      </trkpt>
      <trkpt lat="49.82827" lon="2.26331">
        <ele>95</ele>
        <time>2023-04-05T12:33:32Z</time>
      </trkpt>
      <trkpt lat="49.82828" lon="2.26332">
        <ele>95</ele>
        <time>2023-04-05T12:33:33Z</time>
      </trkpt>
      <trkpt lat="49.8283" lon="2.26334">
        <ele>95.1</ele>
        <time>2023-04-05T12:33:34Z</time>
      </trkpt>
      <trkpt lat="49.82832" lon="2.26338">
        <ele>95.1</ele>
        <time>2023-04-05T12:33:35Z</time>
      </trkpt>
      <trkpt lat="49.82834" lon="2.26339">
        <ele>95.1</ele>
        <time>2023-04-05T12:33:36Z</time>
      </trkpt>
      <trkpt lat="49.82834" lon="2.26341">
        <ele>95.2</ele>
        <time>2023-04-05T12:33:38Z</time>
      </trkpt>
      <trkpt lat="49.82836" lon="2.26343">
        <ele>95.2</ele>
        <time>2023-04-05T12:33:39Z</time>
      </trkpt>
      <trkpt lat="49.82837" lon="2.26345">
        <ele>95.2</ele>
        <time>2023-04-05T12:33:40Z</time>
      </trkpt>
      <trkpt lat="49.82837" lon="2.26347">
        <ele>95.2</ele>
        <time>2023-04-05T12:33:41Z</time>
      </trkpt>
      <trkpt lat="49.82839" lon="2.26351">
        <ele>95.3</ele>
        <time>2023-04-05T12:33:42Z</time>
      </trkpt>
      <trkpt lat="49.8284" lon="2.26352">
        <ele>95.3</ele>
        <time>2023-04-05T12:33:43Z</time>
      </trkpt>
      <trkpt lat="49.82841" lon="2.26355">
        <ele>95.3</ele>
        <time>2023-04-05T12:33:45Z</time>
      </trkpt>
      <trkpt lat="49.82841" lon="2.26356">
        <ele>95.4</ele>
        <time>2023-04-05T12:33:46Z</time>
      </trkpt>
      <trkpt lat="49.82842" lon="2.26357">
        <ele>95.4</ele>
        <time>2023-04-05T12:33:47Z</time>
      </trkpt>
      <trkpt lat="49.82843" lon="2.26359">
        <ele>95.4</ele>
        <time>2023-04-05T12:33:48Z</time>
      </trkpt>
      <trkpt lat="49.82843" lon="2.26361">
        <ele>95.4</ele>
        <time>2023-04-05T12:33:49Z</time>
      </trkpt>
      <trkpt lat="49.82844" lon="2.26362">
        <ele>95.4</ele>
        <time>2023-04-05T12:33:51Z</time>
      </trkpt>
      <trkpt lat="49.82846" lon="2.26364">
        <ele>95.5</ele>
        <time>2023-04-05T12:33:52Z</time>
      </trkpt>
      <trkpt lat="49.82846" lon="2.26365">
        <ele>95.5</ele>
        <time>2023-04-05T12:33:53Z</time>
      </trkpt>
      <trkpt lat="49.82847" lon="2.26366">
        <ele>95.5</ele>
        <time>2023-04-05T12:33:54Z</time>
      </trkpt>
      <trkpt lat="49.82848" lon="2.26367">
        <ele>95.5</ele>
        <time>2023-04-05T12:33:55Z</time>
      </trkpt>
      <trkpt lat="49.8285" lon="2.26369">
        <ele>95.6</ele>
        <time>2023-04-05T12:33:56Z</time>
      </trkpt>
      <trkpt lat="49.8285" lon="2.2637">
        <ele>95.6</ele>
        <time>2023-04-05T12:33:57Z</time>
      </trkpt>
      <trkpt lat="49.82851" lon="2.2637">
        <ele>95.6</ele>
        <time>2023-04-05T12:33:59Z</time>
      </trkpt>
      <trkpt lat="49.82852" lon="2.26371">
        <ele>95.6</ele>
        <time>2023-04-05T12:34:00Z</time>
      </trkpt>
      <trkpt lat="49.82854" lon="2.26373">
        <ele>95.7</ele>
        <time>2023-04-05T12:34:01Z</time>
      </trkpt>
      <trkpt lat="49.82854" lon="2.26375">
        <ele>95.7</ele>
        <time>2023-04-05T12:34:02Z</time>
      </trkpt>
      <trkpt lat="49.82855" lon="2.26376">
        <ele>95.7</ele>
        <time>2023-04-05T12:34:03Z</time>
      </trkpt>
      <trkpt lat="49.82856" lon="2.26379">
        <ele>95.8</ele>
        <time>2023-04-05T12:34:05Z</time>
      </trkpt>
      <trkpt lat="49.82856" lon="2.2638">
        <ele>95.8</ele>
        <time>2023-04-05T12:34:06Z</time>
      </trkpt>
      <trkpt lat="49.82857" lon="2.26381">
        <ele>95.8</ele>
        <time>2023-04-05T12:34:07Z</time>
      </trkpt>
      <trkpt lat="49.82858" lon="2.26383">
        <ele>95.9</ele>
        <time>2023-04-05T12:34:08Z</time>
      </trkpt>
      <trkpt lat="49.82858" lon="2.26384">
        <ele>95.9</ele>
        <time>2023-04-05T12:34:09Z</time>
      </trkpt>
      <trkpt lat="49.82859" lon="2.26386">
        <ele>95.9</ele>
        <time>2023-04-05T12:34:10Z</time>
      </trkpt>
      <trkpt lat="49.8286" lon="2.26389">
        <ele>96</ele>
        <time>2023-04-05T12:34:11Z</time>
      </trkpt>
      <trkpt lat="49.8286" lon="2.2639">
        <ele>96</ele>
        <time>2023-04-05T12:34:13Z</time>
      </trkpt>
      <trkpt lat="49.82861" lon="2.26391">
        <ele>96</ele>
        <time>2023-04-05T12:34:14Z</time>
      </trkpt>
      <trkpt lat="49.82861" lon="2.26392">
        <ele>96.1</ele>
        <time>2023-04-05T12:34:15Z</time>
      </trkpt>
      <trkpt lat="49.82862" lon="2.26394">
        <ele>96.1</ele>
        <time>2023-04-05T12:34:16Z</time>
      </trkpt>
      <trkpt lat="49.82863" lon="2.26396">
        <ele>96.1</ele>
        <time>2023-04-05T12:34:17Z</time>
      </trkpt>
      <trkpt lat="49.82863" lon="2.26397">
        <ele>96.2</ele>
        <time>2023-04-05T12:34:18Z</time>
      </trkpt>
      <trkpt lat="49.82864" lon="2.26399">
        <ele>96.2</ele>
        <time>2023-04-05T12:34:20Z</time>
      </trkpt>
      <trkpt lat="49.82864" lon="2.264">
        <ele>96.3</ele>
        <time>2023-04-05T12:34:21Z</time>
      </trkpt>
      <trkpt lat="49.82865" lon="2.26401">
        <ele>96.3</ele>
        <time>2023-04-05T12:34:22Z</time>
      </trkpt>
      <trkpt lat="49.82866" lon="2.26402">
        <ele>96.3</ele>
        <time>2023-04-05T12:34:23Z</time>
      </trkpt>
      <trkpt lat="49.82866" lon="2.26403">
        <ele>96.3</ele>
        <time>2023-04-05T12:34:24Z</time>
      </trkpt>
      <trkpt lat="49.82867" lon="2.26405">
        <ele>96.4</ele>
        <time>2023-04-05T12:34:25Z</time>
      </trkpt>
      <trkpt lat="49.82868" lon="2.26406">
        <ele>96.4</ele>
        <time>2023-04-05T12:34:27Z</time>
      </trkpt>
      <trkpt lat="49.82868" lon="2.26408">
        <ele>96.5</ele>
        <time>2023-04-05T12:34:28Z</time>
      </trkpt>
      <trkpt lat="49.82869" lon="2.2641">
        <ele>96.5</ele>
        <time>2023-04-05T12:34:29Z</time>
      </trkpt>
      <trkpt lat="49.82869" lon="2.26411">
        <ele>96.6</ele>
        <time>2023-04-05T12:34:30Z</time>
      </trkpt>
      <trkpt lat="49.8287" lon="2.26412">
        <ele>96.6</ele>
        <time>2023-04-05T12:34:31Z</time>
      </trkpt>
      <trkpt lat="49.82871" lon="2.26415">
        <ele>96.7</ele>
        <time>2023-04-05T12:34:32Z</time>
      </trkpt>
      <trkpt lat="49.82872" lon="2.26416">
        <ele>96.7</ele>
        <time>2023-04-05T12:34:34Z</time>
      </trkpt>
      <trkpt lat="49.82872" lon="2.26417">
        <ele>96.7</ele>
        <time>2023-04-05T12:34:35Z</time>
      </trkpt>
      <trkpt lat="49.82873" lon="2.26419">
        <ele>96.8</ele>
        <time>2023-04-05T12:34:36Z</time>
      </trkpt>
      <trkpt lat="49.82874" lon="2.2642">
        <ele>96.8</ele>
        <time>2023-04-05T12:34:37Z</time>
      </trkpt>
      <trkpt lat="49.82874" lon="2.26422">
        <ele>96.9</ele>
        <time>2023-04-05T12:34:39Z</time>
      </trkpt>
      <trkpt lat="49.82875" lon="2.26424">
        <ele>96.9</ele>
        <time>2023-04-05T12:34:40Z</time>
      </trkpt>
      <trkpt lat="49.82875" lon="2.26425">
        <ele>96.9</ele>
        <time>2023-04-05T12:34:41Z</time>
      </trkpt>
      <trkpt lat="49.82875" lon="2.26427">
        <ele>97</ele>
        <time>2023-04-05T12:34:42Z</time>
      </trkpt>
      <trkpt lat="49.82876" lon="2.26428">
        <ele>97</ele>
        <time>2023-04-05T12:34:43Z</time>
      </trkpt>
      <trkpt lat="49.82876" lon="2.26431">
        <ele>97.1</ele>
        <time>2023-04-05T12:34:44Z</time>
      </trkpt>
      <trkpt lat="49.82877" lon="2.26432">
        <ele>97.1</ele>
        <time>2023-04-05T12:34:45Z</time>
      </trkpt>
      <trkpt lat="49.82877" lon="2.26433">
        <ele>97.1</ele>
        <time>2023-04-05T12:34:47Z</time>
      </trkpt>
      <trkpt lat="49.82878" lon="2.26435">
        <ele>97.2</ele>
        <time>2023-04-05T12:34:48Z</time>
      </trkpt>
      <trkpt lat="49.82879" lon="2.26437">
        <ele>97.2</ele>
        <time>2023-04-05T12:34:49Z</time>
      </trkpt>
      <trkpt lat="49.82879" lon="2.26438">
        <ele>97.2</ele>
        <time>2023-04-05T12:34:50Z</time>
      </trkpt>
      <trkpt lat="49.8288" lon="2.26439">
        <ele>97.3</ele>
        <time>2023-04-05T12:34:51Z</time>
      </trkpt>
      <trkpt lat="49.82881" lon="2.26441">
        <ele>97.3</ele>
        <time>2023-04-05T12:34:52Z</time>
      </trkpt>
      <trkpt lat="49.82881" lon="2.26443">
        <ele>97.4</ele>
        <time>2023-04-05T12:34:53Z</time>
      </trkpt>
      <trkpt lat="49.82882" lon="2.26444">
        <ele>97.4</ele>
        <time>2023-04-05T12:34:55Z</time>
      </trkpt>
      <trkpt lat="49.82883" lon="2.26445">
        <ele>97.4</ele>
        <time>2023-04-05T12:34:56Z</time>
      </trkpt>
      <trkpt lat="49.82884" lon="2.26446">
        <ele>97.5</ele>
        <time>2023-04-05T12:34:57Z</time>
      </trkpt>
      <trkpt lat="49.82884" lon="2.26447">
        <ele>97.5</ele>
        <time>2023-04-05T12:34:58Z</time>
      </trkpt>
      <trkpt lat="49.82885" lon="2.26449">
        <ele>97.5</ele>
        <time>2023-04-05T12:34:59Z</time>
      </trkpt>
      <trkpt lat="49.82886" lon="2.26451">
        <ele>97.6</ele>
        <time>2023-04-05T12:35:00Z</time>
      </trkpt>
      <trkpt lat="49.82887" lon="2.26452">
        <ele>97.6</ele>
        <time>2023-04-05T12:35:02Z</time>
      </trkpt>
      <trkpt lat="49.82888" lon="2.26456">
        <ele>97.7</ele>
        <time>2023-04-05T12:35:03Z</time>
      </trkpt>
      <trkpt lat="49.82888" lon="2.26457">
        <ele>97.7</ele>
        <time>2023-04-05T12:35:04Z</time>
      </trkpt>
      <trkpt lat="49.82888" lon="2.26461">
        <ele>97.8</ele>
        <time>2023-04-05T12:35:06Z</time>
      </trkpt>
      <trkpt lat="49.82888" lon="2.26462">
        <ele>97.9</ele>
        <time>2023-04-05T12:35:07Z</time>
      </trkpt>
      <trkpt lat="49.82888" lon="2.26464">
        <ele>97.9</ele>
        <time>2023-04-05T12:35:08Z</time>
      </trkpt>
      <trkpt lat="49.82888" lon="2.26465">
        <ele>97.9</ele>
        <time>2023-04-05T12:35:09Z</time>
      </trkpt>
      <trkpt lat="49.82888" lon="2.26467">
        <ele>98</ele>
        <time>2023-04-05T12:35:10Z</time>
      </trkpt>
      <trkpt lat="49.82888" lon="2.26468">
        <ele>98</ele>
        <time>2023-04-05T12:35:11Z</time>
      </trkpt>
      <trkpt lat="49.82888" lon="2.2647">
        <ele>98.1</ele>
        <time>2023-04-05T12:35:12Z</time>
      </trkpt>
      <trkpt lat="49.82889" lon="2.26473">
        <ele>98.1</ele>
        <time>2023-04-05T12:35:13Z</time>
      </trkpt>
      <trkpt lat="49.82889" lon="2.26475">
        <ele>98.2</ele>
        <time>2023-04-05T12:35:15Z</time>
      </trkpt>
      <trkpt lat="49.82889" lon="2.26477">
        <ele>98.2</ele>
        <time>2023-04-05T12:35:16Z</time>
      </trkpt>
      <trkpt lat="49.82889" lon="2.26479">
        <ele>98.3</ele>
        <time>2023-04-05T12:35:17Z</time>
      </trkpt>
      <trkpt lat="49.8289" lon="2.26482">
        <ele>98.4</ele>
        <time>2023-04-05T12:35:18Z</time>
      </trkpt>
      <trkpt lat="49.8289" lon="2.26484">
        <ele>98.4</ele>
        <time>2023-04-05T12:35:19Z</time>
      </trkpt>
      <trkpt lat="49.8289" lon="2.26485">
        <ele>98.4</ele>
        <time>2023-04-05T12:35:20Z</time>
      </trkpt>
      <trkpt lat="49.82891" lon="2.26486">
        <ele>98.5</ele>
        <time>2023-04-05T12:35:21Z</time>
      </trkpt>
      <trkpt lat="49.82891" lon="2.26488">
        <ele>98.5</ele>
        <time>2023-04-05T12:35:22Z</time>
      </trkpt>
      <trkpt lat="49.82892" lon="2.2649">
        <ele>98.6</ele>
        <time>2023-04-05T12:35:24Z</time>
      </trkpt>
      <trkpt lat="49.82892" lon="2.26491">
        <ele>98.6</ele>
        <time>2023-04-05T12:35:25Z</time>
      </trkpt>
      <trkpt lat="49.82893" lon="2.26493">
        <ele>98.7</ele>
        <time>2023-04-05T12:35:26Z</time>
      </trkpt>
      <trkpt lat="49.82893" lon="2.26495">
        <ele>98.7</ele>
        <time>2023-04-05T12:35:27Z</time>
      </trkpt>
      <trkpt lat="49.82894" lon="2.26498">
        <ele>98.8</ele>
        <time>2023-04-05T12:35:28Z</time>
      </trkpt>
      <trkpt lat="49.82895" lon="2.265">
        <ele>98.9</ele>
        <time>2023-04-05T12:35:29Z</time>
      </trkpt>
      <trkpt lat="49.82895" lon="2.26501">
        <ele>98.9</ele>
        <time>2023-04-05T12:35:31Z</time>
      </trkpt>
      <trkpt lat="49.82896" lon="2.26502">
        <ele>98.9</ele>
        <time>2023-04-05T12:35:32Z</time>
      </trkpt>
      <trkpt lat="49.82896" lon="2.26504">
        <ele>99</ele>
        <time>2023-04-05T12:35:33Z</time>
      </trkpt>
      <trkpt lat="49.82896" lon="2.26505">
        <ele>99</ele>
        <time>2023-04-05T12:35:34Z</time>
      </trkpt>
      <trkpt lat="49.82897" lon="2.26508">
        <ele>99.1</ele>
        <time>2023-04-05T12:35:36Z</time>
      </trkpt>
      <trkpt lat="49.82897" lon="2.26509">
        <ele>99.2</ele>
        <time>2023-04-05T12:35:37Z</time>
      </trkpt>
      <trkpt lat="49.82898" lon="2.26511">
        <ele>99.2</ele>
        <time>2023-04-05T12:35:38Z</time>
      </trkpt>
      <trkpt lat="49.82898" lon="2.26512">
        <ele>99.3</ele>
        <time>2023-04-05T12:35:39Z</time>
      </trkpt>
      <trkpt lat="49.82898" lon="2.26514">
        <ele>99.3</ele>
        <time>2023-04-05T12:35:40Z</time>
      </trkpt>
      <trkpt lat="49.82899" lon="2.26516">
        <ele>99.4</ele>
        <time>2023-04-05T12:35:41Z</time>
      </trkpt>
      <trkpt lat="49.82899" lon="2.26517">
        <ele>99.4</ele>
        <time>2023-04-05T12:35:43Z</time>
      </trkpt>
      <trkpt lat="49.829" lon="2.2652">
        <ele>99.5</ele>
        <time>2023-04-05T12:35:44Z</time>
      </trkpt>
      <trkpt lat="49.82901" lon="2.26522">
        <ele>99.6</ele>
        <time>2023-04-05T12:35:45Z</time>
      </trkpt>
      <trkpt lat="49.82901" lon="2.26524">
        <ele>99.6</ele>
        <time>2023-04-05T12:35:46Z</time>
      </trkpt>
      <trkpt lat="49.82902" lon="2.26525">
        <ele>99.7</ele>
        <time>2023-04-05T12:35:47Z</time>
      </trkpt>
      <trkpt lat="49.82902" lon="2.26528">
        <ele>99.8</ele>
        <time>2023-04-05T12:35:48Z</time>
      </trkpt>
      <trkpt lat="49.82903" lon="2.26531">
        <ele>99.9</ele>
        <time>2023-04-05T12:35:50Z</time>
      </trkpt>
      <trkpt lat="49.82903" lon="2.26533">
        <ele>99.9</ele>
        <time>2023-04-05T12:35:51Z</time>
      </trkpt>
      <trkpt lat="49.82904" lon="2.26534">
        <ele>100</ele>
        <time>2023-04-05T12:35:52Z</time>
      </trkpt>
      <trkpt lat="49.82904" lon="2.26537">
        <ele>100.1</ele>
        <time>2023-04-05T12:35:53Z</time>
      </trkpt>
      <trkpt lat="49.82905" lon="2.26538">
        <ele>100.1</ele>
        <time>2023-04-05T12:35:54Z</time>
      </trkpt>
      <trkpt lat="49.82905" lon="2.26542">
        <ele>100.2</ele>
        <time>2023-04-05T12:35:56Z</time>
      </trkpt>
      <trkpt lat="49.82905" lon="2.26543">
        <ele>100.3</ele>
        <time>2023-04-05T12:35:57Z</time>
      </trkpt>
      <trkpt lat="49.82906" lon="2.26544">
        <ele>100.3</ele>
        <time>2023-04-05T12:35:58Z</time>
      </trkpt>
      <trkpt lat="49.82906" lon="2.26547">
        <ele>100.4</ele>
        <time>2023-04-05T12:35:59Z</time>
      </trkpt>
      <trkpt lat="49.82906" lon="2.26549">
        <ele>100.5</ele>
        <time>2023-04-05T12:36:00Z</time>
      </trkpt>
      <trkpt lat="49.82907" lon="2.26553">
        <ele>100.6</ele>
        <time>2023-04-05T12:36:02Z</time>
      </trkpt>
      <trkpt lat="49.82907" lon="2.26555">
        <ele>100.7</ele>
        <time>2023-04-05T12:36:03Z</time>
      </trkpt>
      <trkpt lat="49.82907" lon="2.26557">
        <ele>100.8</ele>
        <time>2023-04-05T12:36:04Z</time>
      </trkpt>
      <trkpt lat="49.82907" lon="2.26559">
        <ele>100.8</ele>
        <time>2023-04-05T12:36:06Z</time>
      </trkpt>
      <trkpt lat="49.82907" lon="2.2656">
        <ele>100.9</ele>
        <time>2023-04-05T12:36:07Z</time>
      </trkpt>
      <trkpt lat="49.82908" lon="2.26561">
        <ele>100.9</ele>
        <time>2023-04-05T12:36:08Z</time>
      </trkpt>
      <trkpt lat="49.82908" lon="2.26563">
        <ele>101</ele>
        <time>2023-04-05T12:36:09Z</time>
      </trkpt>
      <trkpt lat="49.82908" lon="2.26565">
        <ele>101</ele>
        <time>2023-04-05T12:36:10Z</time>
      </trkpt>
      <trkpt lat="49.82909" lon="2.26566">
        <ele>101.1</ele>
        <time>2023-04-05T12:36:12Z</time>
      </trkpt>
      <trkpt lat="49.82909" lon="2.26568">
        <ele>101.1</ele>
        <time>2023-04-05T12:36:13Z</time>
      </trkpt>
      <trkpt lat="49.8291" lon="2.2657">
        <ele>101.2</ele>
        <time>2023-04-05T12:36:14Z</time>
      </trkpt>
      <trkpt lat="49.8291" lon="2.26571">
        <ele>101.3</ele>
        <time>2023-04-05T12:36:15Z</time>
      </trkpt>
      <trkpt lat="49.82911" lon="2.26572">
        <ele>101.3</ele>
        <time>2023-04-05T12:36:16Z</time>
      </trkpt>
      <trkpt lat="49.82912" lon="2.26573">
        <ele>101.4</ele>
        <time>2023-04-05T12:36:17Z</time>
      </trkpt>
      <trkpt lat="49.82913" lon="2.26574">
        <ele>101.5</ele>
        <time>2023-04-05T12:36:19Z</time>
      </trkpt>
      <trkpt lat="49.82914" lon="2.26575">
        <ele>101.5</ele>
        <time>2023-04-05T12:36:20Z</time>
      </trkpt>
      <trkpt lat="49.82915" lon="2.26576">
        <ele>101.6</ele>
        <time>2023-04-05T12:36:21Z</time>
      </trkpt>
      <trkpt lat="49.82916" lon="2.26577">
        <ele>101.6</ele>
        <time>2023-04-05T12:36:22Z</time>
      </trkpt>
      <trkpt lat="49.82917" lon="2.26579">
        <ele>101.7</ele>
        <time>2023-04-05T12:36:24Z</time>
      </trkpt>
      <trkpt lat="49.82918" lon="2.26579">
        <ele>101.8</ele>
        <time>2023-04-05T12:36:25Z</time>
      </trkpt>
      <trkpt lat="49.82918" lon="2.2658">
        <ele>101.8</ele>
        <time>2023-04-05T12:36:26Z</time>
      </trkpt>
      <trkpt lat="49.8292" lon="2.26581">
        <ele>101.9</ele>
        <time>2023-04-05T12:36:27Z</time>
      </trkpt>
      <trkpt lat="49.82921" lon="2.26582">
        <ele>102</ele>
        <time>2023-04-05T12:36:28Z</time>
      </trkpt>
      <trkpt lat="49.82922" lon="2.26583">
        <ele>102</ele>
        <time>2023-04-05T12:36:30Z</time>
      </trkpt>
      <trkpt lat="49.82923" lon="2.26584">
        <ele>102.1</ele>
        <time>2023-04-05T12:36:31Z</time>
      </trkpt>
      <trkpt lat="49.82925" lon="2.26585">
        <ele>102.2</ele>
        <time>2023-04-05T12:36:32Z</time>
      </trkpt>
      <trkpt lat="49.82926" lon="2.26587">
        <ele>102.3</ele>
        <time>2023-04-05T12:36:34Z</time>
      </trkpt>
      <trkpt lat="49.82927" lon="2.26588">
        <ele>102.3</ele>
        <time>2023-04-05T12:36:35Z</time>
      </trkpt>
      <trkpt lat="49.82928" lon="2.2659">
        <ele>102.4</ele>
        <time>2023-04-05T12:36:36Z</time>
      </trkpt>
      <trkpt lat="49.82929" lon="2.26591">
        <ele>102.5</ele>
        <time>2023-04-05T12:36:37Z</time>
      </trkpt>
      <trkpt lat="49.8293" lon="2.26591">
        <ele>102.5</ele>
        <time>2023-04-05T12:36:38Z</time>
      </trkpt>
      <trkpt lat="49.8293" lon="2.26592">
        <ele>102.6</ele>
        <time>2023-04-05T12:36:39Z</time>
      </trkpt>
      <trkpt lat="49.82931" lon="2.26593">
        <ele>102.6</ele>
        <time>2023-04-05T12:36:41Z</time>
      </trkpt>
      <trkpt lat="49.82932" lon="2.26594">
        <ele>102.7</ele>
        <time>2023-04-05T12:36:42Z</time>
      </trkpt>
      <trkpt lat="49.82933" lon="2.26596">
        <ele>102.7</ele>
        <time>2023-04-05T12:36:43Z</time>
      </trkpt>
      <trkpt lat="49.82934" lon="2.26598">
        <ele>102.8</ele>
        <time>2023-04-05T12:36:44Z</time>
      </trkpt>
      <trkpt lat="49.82935" lon="2.266">
        <ele>102.9</ele>
        <time>2023-04-05T12:36:45Z</time>
      </trkpt>
      <trkpt lat="49.82936" lon="2.26601">
        <ele>103</ele>
        <time>2023-04-05T12:36:46Z</time>
      </trkpt>
      <trkpt lat="49.82936" lon="2.26602">
        <ele>103</ele>
        <time>2023-04-05T12:36:48Z</time>
      </trkpt>
      <trkpt lat="49.82937" lon="2.26603">
        <ele>103.1</ele>
        <time>2023-04-05T12:36:49Z</time>
      </trkpt>
      <trkpt lat="49.82938" lon="2.26604">
        <ele>103.2</ele>
        <time>2023-04-05T12:36:50Z</time>
      </trkpt>
      <trkpt lat="49.82939" lon="2.26605">
        <ele>103.2</ele>
        <time>2023-04-05T12:36:51Z</time>
      </trkpt>
      <trkpt lat="49.8294" lon="2.26606">
        <ele>103.3</ele>
        <time>2023-04-05T12:36:52Z</time>
      </trkpt>
      <trkpt lat="49.82941" lon="2.26608">
        <ele>103.4</ele>
        <time>2023-04-05T12:36:54Z</time>
      </trkpt>
      <trkpt lat="49.82942" lon="2.26608">
        <ele>103.4</ele>
        <time>2023-04-05T12:36:55Z</time>
      </trkpt>
      <trkpt lat="49.82943" lon="2.26609">
        <ele>103.5</ele>
        <time>2023-04-05T12:36:56Z</time>
      </trkpt>
      <trkpt lat="49.82944" lon="2.26611">
        <ele>103.5</ele>
        <time>2023-04-05T12:36:57Z</time>
      </trkpt>
      <trkpt lat="49.82945" lon="2.26612">
        <ele>103.6</ele>
        <time>2023-04-05T12:36:58Z</time>
      </trkpt>
      <trkpt lat="49.82945" lon="2.26613">
        <ele>103.7</ele>
        <time>2023-04-05T12:36:59Z</time>
      </trkpt>
      <trkpt lat="49.82946" lon="2.26615">
        <ele>103.7</ele>
        <time>2023-04-05T12:37:00Z</time>
      </trkpt>
      <trkpt lat="49.82948" lon="2.26617">
        <ele>103.8</ele>
        <time>2023-04-05T12:37:02Z</time>
      </trkpt>
      <trkpt lat="49.82948" lon="2.26618">
        <ele>103.9</ele>
        <time>2023-04-05T12:37:03Z</time>
      </trkpt>
      <trkpt lat="49.82949" lon="2.26619">
        <ele>103.9</ele>
        <time>2023-04-05T12:37:04Z</time>
      </trkpt>
      <trkpt lat="49.82951" lon="2.26621">
        <ele>104</ele>
        <time>2023-04-05T12:37:05Z</time>
      </trkpt>
      <trkpt lat="49.82951" lon="2.26622">
        <ele>104</ele>
        <time>2023-04-05T12:37:06Z</time>
      </trkpt>
      <trkpt lat="49.82952" lon="2.26622">
        <ele>104.1</ele>
        <time>2023-04-05T12:37:07Z</time>
      </trkpt>
      <trkpt lat="49.82954" lon="2.26625">
        <ele>104.2</ele>
        <time>2023-04-05T12:37:08Z</time>
      </trkpt>
      <trkpt lat="49.82954" lon="2.26625">
        <ele>104.2</ele>
        <time>2023-04-05T12:37:10Z</time>
      </trkpt>
      <trkpt lat="49.82955" lon="2.26626">
        <ele>104.2</ele>
        <time>2023-04-05T12:37:11Z</time>
      </trkpt>
      <trkpt lat="49.82957" lon="2.26628">
        <ele>104.3</ele>
        <time>2023-04-05T12:37:12Z</time>
      </trkpt>
      <trkpt lat="49.82957" lon="2.26629">
        <ele>104.3</ele>
        <time>2023-04-05T12:37:13Z</time>
      </trkpt>
      <trkpt lat="49.82958" lon="2.2663">
        <ele>104.4</ele>
        <time>2023-04-05T12:37:14Z</time>
      </trkpt>
      <trkpt lat="49.82959" lon="2.2663">
        <ele>104.4</ele>
        <time>2023-04-05T12:37:15Z</time>
      </trkpt>
      <trkpt lat="49.8296" lon="2.26632">
        <ele>104.4</ele>
        <time>2023-04-05T12:37:16Z</time>
      </trkpt>
      <trkpt lat="49.82961" lon="2.26633">
        <ele>104.5</ele>
        <time>2023-04-05T12:37:18Z</time>
      </trkpt>
      <trkpt lat="49.82962" lon="2.26634">
        <ele>104.5</ele>
        <time>2023-04-05T12:37:19Z</time>
      </trkpt>
      <trkpt lat="49.82963" lon="2.26635">
        <ele>104.6</ele>
        <time>2023-04-05T12:37:20Z</time>
      </trkpt>
      <trkpt lat="49.82964" lon="2.26637">
        <ele>104.7</ele>
        <time>2023-04-05T12:37:21Z</time>
      </trkpt>
      <trkpt lat="49.82965" lon="2.26638">
        <ele>104.7</ele>
        <time>2023-04-05T12:37:22Z</time>
      </trkpt>
      <trkpt lat="49.82966" lon="2.26639">
        <ele>104.7</ele>
        <time>2023-04-05T12:37:23Z</time>
      </trkpt>
      <trkpt lat="49.82967" lon="2.2664">
        <ele>104.8</ele>
        <time>2023-04-05T12:37:24Z</time>
      </trkpt>
      <trkpt lat="49.82968" lon="2.26641">
        <ele>104.8</ele>
        <time>2023-04-05T12:37:26Z</time>
      </trkpt>
      <trkpt lat="49.82968" lon="2.26642">
        <ele>104.8</ele>
        <time>2023-04-05T12:37:27Z</time>
      </trkpt>
      <trkpt lat="49.82969" lon="2.26642">
        <ele>104.9</ele>
        <time>2023-04-05T12:37:28Z</time>
      </trkpt>
      <trkpt lat="49.8297" lon="2.26644">
        <ele>104.9</ele>
        <time>2023-04-05T12:37:29Z</time>
      </trkpt>
      <trkpt lat="49.8297" lon="2.26645">
        <ele>104.9</ele>
        <time>2023-04-05T12:37:30Z</time>
      </trkpt>
      <trkpt lat="49.82971" lon="2.26646">
        <ele>105</ele>
        <time>2023-04-05T12:37:31Z</time>
      </trkpt>
      <trkpt lat="49.82972" lon="2.26647">
        <ele>105</ele>
        <time>2023-04-05T12:37:32Z</time>
      </trkpt>
      <trkpt lat="49.82972" lon="2.26649">
        <ele>105</ele>
        <time>2023-04-05T12:37:34Z</time>
      </trkpt>
      <trkpt lat="49.82973" lon="2.26649">
        <ele>105.1</ele>
        <time>2023-04-05T12:37:35Z</time>
      </trkpt>
      <trkpt lat="49.82974" lon="2.26651">
        <ele>105.1</ele>
        <time>2023-04-05T12:37:36Z</time>
      </trkpt>
      <trkpt lat="49.82974" lon="2.26652">
        <ele>105.1</ele>
        <time>2023-04-05T12:37:37Z</time>
      </trkpt>
      <trkpt lat="49.82975" lon="2.26654">
        <ele>105.2</ele>
        <time>2023-04-05T12:37:38Z</time>
      </trkpt>
      <trkpt lat="49.82975" lon="2.26655">
        <ele>105.2</ele>
        <time>2023-04-05T12:37:39Z</time>
      </trkpt>
      <trkpt lat="49.82975" lon="2.26656">
        <ele>105.2</ele>
        <time>2023-04-05T12:37:40Z</time>
      </trkpt>
      <trkpt lat="49.82975" lon="2.26658">
        <ele>105.3</ele>
        <time>2023-04-05T12:37:41Z</time>
      </trkpt>
      <trkpt lat="49.82976" lon="2.26659">
        <ele>105.3</ele>
        <time>2023-04-05T12:37:43Z</time>
      </trkpt>
      <trkpt lat="49.82976" lon="2.2666">
        <ele>105.3</ele>
        <time>2023-04-05T12:37:44Z</time>
      </trkpt>
      <trkpt lat="49.82977" lon="2.26661">
        <ele>105.4</ele>
        <time>2023-04-05T12:37:45Z</time>
      </trkpt>
      <trkpt lat="49.82977" lon="2.26663">
        <ele>105.4</ele>
        <time>2023-04-05T12:37:46Z</time>
      </trkpt>
      <trkpt lat="49.82977" lon="2.26664">
        <ele>105.4</ele>
        <time>2023-04-05T12:37:47Z</time>
      </trkpt>
      <trkpt lat="49.82978" lon="2.26666">
        <ele>105.5</ele>
        <time>2023-04-05T12:37:48Z</time>
      </trkpt>
      <trkpt lat="49.82978" lon="2.26667">
        <ele>105.5</ele>
        <time>2023-04-05T12:37:49Z</time>
      </trkpt>
      <trkpt lat="49.82979" lon="2.26668">
        <ele>105.5</ele>
        <time>2023-04-05T12:37:51Z</time>
      </trkpt>
      <trkpt lat="49.8298" lon="2.26669">
        <ele>105.5</ele>
        <time>2023-04-05T12:37:52Z</time>
      </trkpt>
      <trkpt lat="49.82981" lon="2.2667">
        <ele>105.6</ele>
        <time>2023-04-05T12:37:53Z</time>
      </trkpt>
      <trkpt lat="49.82981" lon="2.26672">
        <ele>105.6</ele>
        <time>2023-04-05T12:37:54Z</time>
      </trkpt>
      <trkpt lat="49.82982" lon="2.26673">
        <ele>105.6</ele>
        <time>2023-04-05T12:37:55Z</time>
      </trkpt>
      <trkpt lat="49.82982" lon="2.26674">
        <ele>105.7</ele>
        <time>2023-04-05T12:37:56Z</time>
      </trkpt>
      <trkpt lat="49.82983" lon="2.26675">
        <ele>105.7</ele>
        <time>2023-04-05T12:37:57Z</time>
      </trkpt>
      <trkpt lat="49.82984" lon="2.26677">
        <ele>105.7</ele>
        <time>2023-04-05T12:37:59Z</time>
      </trkpt>
      <trkpt lat="49.82985" lon="2.26678">
        <ele>105.8</ele>
        <time>2023-04-05T12:38:00Z</time>
      </trkpt>
      <trkpt lat="49.82986" lon="2.26679">
        <ele>105.8</ele>
        <time>2023-04-05T12:38:01Z</time>
      </trkpt>
      <trkpt lat="49.82986" lon="2.2668">
        <ele>105.8</ele>
        <time>2023-04-05T12:38:02Z</time>
      </trkpt>
      <trkpt lat="49.82987" lon="2.26682">
        <ele>105.9</ele>
        <time>2023-04-05T12:38:03Z</time>
      </trkpt>
      <trkpt lat="49.82988" lon="2.26683">
        <ele>105.9</ele>
        <time>2023-04-05T12:38:04Z</time>
      </trkpt>
      <trkpt lat="49.82988" lon="2.26684">
        <ele>105.9</ele>
        <time>2023-04-05T12:38:05Z</time>
      </trkpt>
      <trkpt lat="49.82989" lon="2.26686">
        <ele>106</ele>
        <time>2023-04-05T12:38:07Z</time>
      </trkpt>
      <trkpt lat="49.82989" lon="2.26687">
        <ele>106</ele>
        <time>2023-04-05T12:38:08Z</time>
      </trkpt>
      <trkpt lat="49.8299" lon="2.26689">
        <ele>106</ele>
        <time>2023-04-05T12:38:09Z</time>
      </trkpt>
      <trkpt lat="49.82991" lon="2.26691">
        <ele>106.1</ele>
        <time>2023-04-05T12:38:10Z</time>
      </trkpt>
      <trkpt lat="49.82991" lon="2.26692">
        <ele>106.1</ele>
        <time>2023-04-05T12:38:11Z</time>
      </trkpt>
      <trkpt lat="49.82991" lon="2.26694">
        <ele>106.1</ele>
        <time>2023-04-05T12:38:12Z</time>
      </trkpt>
      <trkpt lat="49.82993" lon="2.26696">
        <ele>106.2</ele>
        <time>2023-04-05T12:38:13Z</time>
      </trkpt>
      <trkpt lat="49.82993" lon="2.26697">
        <ele>106.2</ele>
        <time>2023-04-05T12:38:15Z</time>
      </trkpt>
      <trkpt lat="49.82994" lon="2.26698">
        <ele>106.2</ele>
        <time>2023-04-05T12:38:16Z</time>
      </trkpt>
      <trkpt lat="49.82995" lon="2.267">
        <ele>106.2</ele>
        <time>2023-04-05T12:38:17Z</time>
      </trkpt>
      <trkpt lat="49.82996" lon="2.26702">
        <ele>106.3</ele>
        <time>2023-04-05T12:38:18Z</time>
      </trkpt>
      <trkpt lat="49.82997" lon="2.26704">
        <ele>106.3</ele>
        <time>2023-04-05T12:38:20Z</time>
      </trkpt>
      <trkpt lat="49.82997" lon="2.26705">
        <ele>106.3</ele>
        <time>2023-04-05T12:38:21Z</time>
      </trkpt>
      <trkpt lat="49.82997" lon="2.26706">
        <ele>106.3</ele>
        <time>2023-04-05T12:38:22Z</time>
      </trkpt>
      <trkpt lat="49.82998" lon="2.26707">
        <ele>106.3</ele>
        <time>2023-04-05T12:38:23Z</time>
      </trkpt>
      <trkpt lat="49.82999" lon="2.26709">
        <ele>106.4</ele>
        <time>2023-04-05T12:38:24Z</time>
      </trkpt>
      <trkpt lat="49.82999" lon="2.2671">
        <ele>106.4</ele>
        <time>2023-04-05T12:38:25Z</time>
      </trkpt>
      <trkpt lat="49.83" lon="2.26711">
        <ele>106.4</ele>
        <time>2023-04-05T12:38:26Z</time>
      </trkpt>
      <trkpt lat="49.83001" lon="2.26712">
        <ele>106.4</ele>
        <time>2023-04-05T12:38:28Z</time>
      </trkpt>
      <trkpt lat="49.83002" lon="2.26713">
        <ele>106.4</ele>
        <time>2023-04-05T12:38:29Z</time>
      </trkpt>
      <trkpt lat="49.83002" lon="2.26714">
        <ele>106.5</ele>
        <time>2023-04-05T12:38:30Z</time>
      </trkpt>
      <trkpt lat="49.83003" lon="2.26717">
        <ele>106.5</ele>
        <time>2023-04-05T12:38:31Z</time>
      </trkpt>
      <trkpt lat="49.83004" lon="2.26718">
        <ele>106.5</ele>
        <time>2023-04-05T12:38:32Z</time>
      </trkpt>
      <trkpt lat="49.83004" lon="2.26719">
        <ele>106.5</ele>
        <time>2023-04-05T12:38:33Z</time>
      </trkpt>
      <trkpt lat="49.83005" lon="2.26722">
        <ele>106.5</ele>
        <time>2023-04-05T12:38:35Z</time>
      </trkpt>
      <trkpt lat="49.83006" lon="2.26724">
        <ele>106.6</ele>
        <time>2023-04-05T12:38:36Z</time>
      </trkpt>
      <trkpt lat="49.83008" lon="2.26728">
        <ele>106.6</ele>
        <time>2023-04-05T12:38:37Z</time>
      </trkpt>
      <trkpt lat="49.83008" lon="2.26729">
        <ele>106.6</ele>
        <time>2023-04-05T12:38:38Z</time>
      </trkpt>
      <trkpt lat="49.8301" lon="2.26734">
        <ele>106.7</ele>
        <time>2023-04-05T12:38:39Z</time>
      </trkpt>
      <trkpt lat="49.8301" lon="2.26735">
        <ele>106.7</ele>
        <time>2023-04-05T12:38:40Z</time>
      </trkpt>
      <trkpt lat="49.83011" lon="2.26737">
        <ele>106.7</ele>
        <time>2023-04-05T12:38:41Z</time>
      </trkpt>
      <trkpt lat="49.83012" lon="2.26739">
        <ele>106.7</ele>
        <time>2023-04-05T12:38:43Z</time>
      </trkpt>
      <trkpt lat="49.83013" lon="2.26742">
        <ele>106.8</ele>
        <time>2023-04-05T12:38:44Z</time>
      </trkpt>
      <trkpt lat="49.83013" lon="2.26744">
        <ele>106.8</ele>
        <time>2023-04-05T12:38:45Z</time>
      </trkpt>
      <trkpt lat="49.83014" lon="2.26745">
        <ele>106.8</ele>
        <time>2023-04-05T12:38:46Z</time>
      </trkpt>
      <trkpt lat="49.83015" lon="2.26747">
        <ele>106.8</ele>
        <time>2023-04-05T12:38:47Z</time>
      </trkpt>
      <trkpt lat="49.83016" lon="2.2675">
        <ele>106.9</ele>
        <time>2023-04-05T12:38:48Z</time>
      </trkpt>
      <trkpt lat="49.83017" lon="2.26751">
        <ele>106.9</ele>
        <time>2023-04-05T12:38:49Z</time>
      </trkpt>
      <trkpt lat="49.83017" lon="2.26753">
        <ele>106.9</ele>
        <time>2023-04-05T12:38:51Z</time>
      </trkpt>
      <trkpt lat="49.83018" lon="2.26754">
        <ele>106.9</ele>
        <time>2023-04-05T12:38:52Z</time>
      </trkpt>
      <trkpt lat="49.83018" lon="2.26755">
        <ele>107</ele>
        <time>2023-04-05T12:38:53Z</time>
      </trkpt>
      <trkpt lat="49.83019" lon="2.26756">
        <ele>107</ele>
        <time>2023-04-05T12:38:54Z</time>
      </trkpt>
      <trkpt lat="49.8302" lon="2.26757">
        <ele>107</ele>
        <time>2023-04-05T12:38:55Z</time>
      </trkpt>
      <trkpt lat="49.8302" lon="2.26759">
        <ele>107</ele>
        <time>2023-04-05T12:38:56Z</time>
      </trkpt>
      <trkpt lat="49.83021" lon="2.2676">
        <ele>107.1</ele>
        <time>2023-04-05T12:38:57Z</time>
      </trkpt>
      <trkpt lat="49.83021" lon="2.26762">
        <ele>107.1</ele>
        <time>2023-04-05T12:38:59Z</time>
      </trkpt>
      <trkpt lat="49.83022" lon="2.26763">
        <ele>107.1</ele>
        <time>2023-04-05T12:39:00Z</time>
      </trkpt>
      <trkpt lat="49.83022" lon="2.26765">
        <ele>107.1</ele>
        <time>2023-04-05T12:39:01Z</time>
      </trkpt>
      <trkpt lat="49.83024" lon="2.26767">
        <ele>107.2</ele>
        <time>2023-04-05T12:39:02Z</time>
      </trkpt>
      <trkpt lat="49.83024" lon="2.26768">
        <ele>107.2</ele>
        <time>2023-04-05T12:39:03Z</time>
      </trkpt>
      <trkpt lat="49.83025" lon="2.2677">
        <ele>107.3</ele>
        <time>2023-04-05T12:39:04Z</time>
      </trkpt>
      <trkpt lat="49.83025" lon="2.26771">
        <ele>107.3</ele>
        <time>2023-04-05T12:39:05Z</time>
      </trkpt>
      <trkpt lat="49.83026" lon="2.26773">
        <ele>107.4</ele>
        <time>2023-04-05T12:39:07Z</time>
      </trkpt>
      <trkpt lat="49.83026" lon="2.26774">
        <ele>107.4</ele>
        <time>2023-04-05T12:39:08Z</time>
      </trkpt>
      <trkpt lat="49.83027" lon="2.26776">
        <ele>107.5</ele>
        <time>2023-04-05T12:39:09Z</time>
      </trkpt>
      <trkpt lat="49.83028" lon="2.26777">
        <ele>107.5</ele>
        <time>2023-04-05T12:39:10Z</time>
      </trkpt>
      <trkpt lat="49.83028" lon="2.26778">
        <ele>107.6</ele>
        <time>2023-04-05T12:39:11Z</time>
      </trkpt>
      <trkpt lat="49.83029" lon="2.2678">
        <ele>107.6</ele>
        <time>2023-04-05T12:39:12Z</time>
      </trkpt>
      <trkpt lat="49.83029" lon="2.26781">
        <ele>107.7</ele>
        <time>2023-04-05T12:39:13Z</time>
      </trkpt>
      <trkpt lat="49.8303" lon="2.26783">
        <ele>107.7</ele>
        <time>2023-04-05T12:39:15Z</time>
      </trkpt>
      <trkpt lat="49.8303" lon="2.26784">
        <ele>107.8</ele>
        <time>2023-04-05T12:39:16Z</time>
      </trkpt>
      <trkpt lat="49.83031" lon="2.26786">
        <ele>107.8</ele>
        <time>2023-04-05T12:39:17Z</time>
      </trkpt>
      <trkpt lat="49.83031" lon="2.26787">
        <ele>107.9</ele>
        <time>2023-04-05T12:39:18Z</time>
      </trkpt>
      <trkpt lat="49.83032" lon="2.26789">
        <ele>107.9</ele>
        <time>2023-04-05T12:39:20Z</time>
      </trkpt>
      <trkpt lat="49.83032" lon="2.2679">
        <ele>108</ele>
        <time>2023-04-05T12:39:21Z</time>
      </trkpt>
      <trkpt lat="49.83032" lon="2.2679">
        <ele>108</ele>
        <time>2023-04-05T12:39:22Z</time>
      </trkpt>
      <trkpt lat="49.83032" lon="2.26791">
        <ele>108</ele>
        <time>2023-04-05T12:39:23Z</time>
      </trkpt>
      <trkpt lat="49.83033" lon="2.26793">
        <ele>108.1</ele>
        <time>2023-04-05T12:39:24Z</time>
      </trkpt>
      <trkpt lat="49.83033" lon="2.26794">
        <ele>108.1</ele>
        <time>2023-04-05T12:39:25Z</time>
      </trkpt>
      <trkpt lat="49.83033" lon="2.26795">
        <ele>108.2</ele>
        <time>2023-04-05T12:39:28Z</time>
      </trkpt>
      <trkpt lat="49.83033" lon="2.26796">
        <ele>108.2</ele>
        <time>2023-04-05T12:39:29Z</time>
      </trkpt>
      <trkpt lat="49.83033" lon="2.26796">
        <ele>108.2</ele>
        <time>2023-04-05T12:39:30Z</time>
      </trkpt>
      <trkpt lat="49.83033" lon="2.26796">
        <ele>108.2</ele>
        <time>2023-04-05T12:39:32Z</time>
      </trkpt>
      <trkpt lat="49.83033" lon="2.26796">
        <ele>108.2</ele>
        <time>2023-04-05T12:39:33Z</time>
      </trkpt>
      <trkpt lat="49.83033" lon="2.26795">
        <ele>108.2</ele>
        <time>2023-04-05T12:39:35Z</time>
      </trkpt>
      <trkpt lat="49.83033" lon="2.26795">
        <ele>108.2</ele>
        <time>2023-04-05T12:39:36Z</time>
      </trkpt>
      <trkpt lat="49.83033" lon="2.26795">
        <ele>108.3</ele>
        <time>2023-04-05T12:39:38Z</time>
      </trkpt>
      <trkpt lat="49.83033" lon="2.26795">
        <ele>108.3</ele>
        <time>2023-04-05T12:39:39Z</time>
      </trkpt>
      <trkpt lat="49.83033" lon="2.26794">
        <ele>108.3</ele>
        <time>2023-04-05T12:39:41Z</time>
      </trkpt>
      <trkpt lat="49.83033" lon="2.26794">
        <ele>108.3</ele>
        <time>2023-04-05T12:39:42Z</time>
      </trkpt>
      <trkpt lat="49.83033" lon="2.26794">
        <ele>108.3</ele>
        <time>2023-04-05T12:39:43Z</time>
      </trkpt>
      <trkpt lat="49.83033" lon="2.26794">
        <ele>108.3</ele>
        <time>2023-04-05T12:39:44Z</time>
      </trkpt>
      <trkpt lat="49.83033" lon="2.26793">
        <ele>108.3</ele>
        <time>2023-04-05T12:39:45Z</time>
      </trkpt>
      <trkpt lat="49.83033" lon="2.26793">
        <ele>108.3</ele>
        <time>2023-04-05T12:39:46Z</time>
      </trkpt>
      <trkpt lat="49.83033" lon="2.26793">
        <ele>108.3</ele>
        <time>2023-04-05T12:39:47Z</time>
      </trkpt>
      <trkpt lat="49.83033" lon="2.26793">
        <ele>108.3</ele>
        <time>2023-04-05T12:39:48Z</time>
      </trkpt>
      <trkpt lat="49.83033" lon="2.26793">
        <ele>108.3</ele>
        <time>2023-04-05T12:39:49Z</time>
      </trkpt>
      <trkpt lat="49.83033" lon="2.26793">
        <ele>108.3</ele>
        <time>2023-04-05T12:39:50Z</time>
      </trkpt>
      <trkpt lat="49.83033" lon="2.26793">
        <ele>108.3</ele>
        <time>2023-04-05T12:39:51Z</time>
      </trkpt>
      <trkpt lat="49.83033" lon="2.26793">
        <ele>108.3</ele>
        <time>2023-04-05T12:39:52Z</time>
      </trkpt>
      <trkpt lat="49.83033" lon="2.26793">
        <ele>108.3</ele>
        <time>2023-04-05T12:39:53Z</time>
      </trkpt>
      <trkpt lat="49.83033" lon="2.26793">
        <ele>108.3</ele>
        <time>2023-04-05T12:39:54Z</time>
      </trkpt>
      <trkpt lat="49.83033" lon="2.26793">
        <ele>108.3</ele>
        <time>2023-04-05T12:39:55Z</time>
      </trkpt>
      <trkpt lat="49.83033" lon="2.26793">
        <ele>108.3</ele>
        <time>2023-04-05T12:39:56Z</time>
      </trkpt>
      <trkpt lat="49.83033" lon="2.26793">
        <ele>108.3</ele>
        <time>2023-04-05T12:39:57Z</time>
      </trkpt>
      <trkpt lat="49.83033" lon="2.26793">
        <ele>108.3</ele>
        <time>2023-04-05T12:39:58Z</time>
      </trkpt>
      <trkpt lat="49.83033" lon="2.26793">
        <ele>108.3</ele>
        <time>2023-04-05T12:39:59Z</time>
      </trkpt>
      <trkpt lat="49.83033" lon="2.26793">
        <ele>108.3</ele>
        <time>2023-04-05T12:40:00Z</time>
      </trkpt>
      <trkpt lat="49.83033" lon="2.26793">
        <ele>108.3</ele>
        <time>2023-04-05T12:40:01Z</time>
      </trkpt>
      <trkpt lat="49.83033" lon="2.26793">
        <ele>108.3</ele>
        <time>2023-04-05T12:40:02Z</time>
      </trkpt>
      <trkpt lat="49.83033" lon="2.26793">
        <ele>108.3</ele>
        <time>2023-04-05T12:40:03Z</time>
      </trkpt>
      <trkpt lat="49.83033" lon="2.26793">
        <ele>108.3</ele>
        <time>2023-04-05T12:40:04Z</time>
      </trkpt>
      <trkpt lat="49.83033" lon="2.26793">
        <ele>108.3</ele>
        <time>2023-04-05T12:40:05Z</time>
      </trkpt>
      <trkpt lat="49.83033" lon="2.26793">
        <ele>108.3</ele>
        <time>2023-04-05T12:40:06Z</time>
      </trkpt>
      <trkpt lat="49.83033" lon="2.26793">
        <ele>108.3</ele>
        <time>2023-04-05T12:40:07Z</time>
      </trkpt>
      <trkpt lat="49.83033" lon="2.26793">
        <ele>108.3</ele>
        <time>2023-04-05T12:40:08Z</time>
      </trkpt>
      <trkpt lat="49.83033" lon="2.26793">
        <ele>108.3</ele>
        <time>2023-04-05T12:40:09Z</time>
      </trkpt>
      <trkpt lat="49.83033" lon="2.26793">
        <ele>108.3</ele>
        <time>2023-04-05T12:40:10Z</time>
      </trkpt>
      <trkpt lat="49.83033" lon="2.26793">
        <ele>108.3</ele>
        <time>2023-04-05T12:40:11Z</time>
      </trkpt>
      <trkpt lat="49.83033" lon="2.26793">
        <ele>108.3</ele>
        <time>2023-04-05T12:40:12Z</time>
      </trkpt>
      <trkpt lat="49.83033" lon="2.26793">
        <ele>108.3</ele>
        <time>2023-04-05T12:40:13Z</time>
      </trkpt>
      <trkpt lat="49.83033" lon="2.26793">
        <ele>108.3</ele>
        <time>2023-04-05T12:40:14Z</time>
      </trkpt>
      <trkpt lat="49.83033" lon="2.26793">
        <ele>108.3</ele>
        <time>2023-04-05T12:40:15Z</time>
      </trkpt>
      <trkpt lat="49.83033" lon="2.26793">
        <ele>108.3</ele>
        <time>2023-04-05T12:40:16Z</time>
      </trkpt>
      <trkpt lat="49.83033" lon="2.26793">
        <ele>108.3</ele>
        <time>2023-04-05T12:40:17Z</time>
      </trkpt>
      <trkpt lat="49.83033" lon="2.26793">
        <ele>108.3</ele>
        <time>2023-04-05T12:40:18Z</time>
      </trkpt>
      <trkpt lat="49.83033" lon="2.26793">
        <ele>108.3</ele>
        <time>2023-04-05T12:40:19Z</time>
      </trkpt>
      <trkpt lat="49.83032" lon="2.26792">
        <ele>108.4</ele>
        <time>2023-04-05T12:40:20Z</time>
      </trkpt>
      <trkpt lat="49.83031" lon="2.26791">
        <ele>108.4</ele>
        <time>2023-04-05T12:40:21Z</time>
      </trkpt>
      <trkpt lat="49.83031" lon="2.26792">
        <ele>108.5</ele>
        <time>2023-04-05T12:40:22Z</time>
      </trkpt>
      <trkpt lat="49.83031" lon="2.26792">
        <ele>108.5</ele>
        <time>2023-04-05T12:40:23Z</time>
      </trkpt>
      <trkpt lat="49.8303" lon="2.26793">
        <ele>108.5</ele>
        <time>2023-04-05T12:40:24Z</time>
      </trkpt>
      <trkpt lat="49.8303" lon="2.26793">
        <ele>108.5</ele>
        <time>2023-04-05T12:40:25Z</time>
      </trkpt>
      <trkpt lat="49.8303" lon="2.26793">
        <ele>108.5</ele>
        <time>2023-04-05T12:40:26Z</time>
      </trkpt>
      <trkpt lat="49.8303" lon="2.26793">
        <ele>108.5</ele>
        <time>2023-04-05T12:40:27Z</time>
      </trkpt>
      <trkpt lat="49.8303" lon="2.26793">
        <ele>108.5</ele>
        <time>2023-04-05T12:40:28Z</time>
      </trkpt>
      <trkpt lat="49.8303" lon="2.26793">
        <ele>108.5</ele>
        <time>2023-04-05T12:40:29Z</time>
      </trkpt>
      <trkpt lat="49.8303" lon="2.26794">
        <ele>108.6</ele>
        <time>2023-04-05T12:40:30Z</time>
      </trkpt>
      <trkpt lat="49.83029" lon="2.26795">
        <ele>108.6</ele>
        <time>2023-04-05T12:40:31Z</time>
      </trkpt>
      <trkpt lat="49.8303" lon="2.26798">
        <ele>108.7</ele>
        <time>2023-04-05T12:40:33Z</time>
      </trkpt>
      <trkpt lat="49.8303" lon="2.268">
        <ele>108.8</ele>
        <time>2023-04-05T12:40:34Z</time>
      </trkpt>
      <trkpt lat="49.8303" lon="2.26802">
        <ele>108.8</ele>
        <time>2023-04-05T12:40:35Z</time>
      </trkpt>
      <trkpt lat="49.8303" lon="2.26804">
        <ele>108.8</ele>
        <time>2023-04-05T12:40:37Z</time>
      </trkpt>
      <trkpt lat="49.83029" lon="2.26805">
        <ele>108.8</ele>
        <time>2023-04-05T12:40:38Z</time>
      </trkpt>
      <trkpt lat="49.83028" lon="2.26806">
        <ele>108.8</ele>
        <time>2023-04-05T12:40:39Z</time>
      </trkpt>
      <trkpt lat="49.83027" lon="2.26805">
        <ele>108.8</ele>
        <time>2023-04-05T12:40:41Z</time>
      </trkpt>
      <trkpt lat="49.83026" lon="2.26804">
        <ele>108.8</ele>
        <time>2023-04-05T12:40:43Z</time>
      </trkpt>
      <trkpt lat="49.83026" lon="2.26803">
        <ele>108.8</ele>
        <time>2023-04-05T12:40:44Z</time>
      </trkpt>
      <trkpt lat="49.83026" lon="2.26803">
        <ele>108.8</ele>
        <time>2023-04-05T12:40:46Z</time>
      </trkpt>
      <trkpt lat="49.83026" lon="2.26802">
        <ele>108.8</ele>
        <time>2023-04-05T12:40:47Z</time>
      </trkpt>
      <trkpt lat="49.83026" lon="2.26802">
        <ele>108.8</ele>
        <time>2023-04-05T12:40:49Z</time>
      </trkpt>
      <trkpt lat="49.83026" lon="2.26802">
        <ele>108.8</ele>
        <time>2023-04-05T12:40:50Z</time>
      </trkpt>
      <trkpt lat="49.83026" lon="2.26802">
        <ele>108.8</ele>
        <time>2023-04-05T12:40:51Z</time>
      </trkpt>
      <trkpt lat="49.83026" lon="2.26802">
        <ele>108.8</ele>
        <time>2023-04-05T12:40:52Z</time>
      </trkpt>
      <trkpt lat="49.83026" lon="2.26802">
        <ele>108.8</ele>
        <time>2023-04-05T12:40:53Z</time>
      </trkpt>
      <trkpt lat="49.83026" lon="2.26802">
        <ele>108.8</ele>
        <time>2023-04-05T12:40:55Z</time>
      </trkpt>
      <trkpt lat="49.83027" lon="2.26803">
        <ele>108.8</ele>
        <time>2023-04-05T12:40:56Z</time>
      </trkpt>
      <trkpt lat="49.83027" lon="2.26804">
        <ele>108.8</ele>
        <time>2023-04-05T12:40:57Z</time>
      </trkpt>
      <trkpt lat="49.83027" lon="2.26806">
        <ele>108.8</ele>
        <time>2023-04-05T12:40:58Z</time>
      </trkpt>
      <trkpt lat="49.83026" lon="2.26808">
        <ele>108.8</ele>
        <time>2023-04-05T12:40:59Z</time>
      </trkpt>
      <trkpt lat="49.83026" lon="2.26809">
        <ele>108.8</ele>
        <time>2023-04-05T12:41:00Z</time>
      </trkpt>
      <trkpt lat="49.83026" lon="2.2681">
        <ele>108.8</ele>
        <time>2023-04-05T12:41:02Z</time>
      </trkpt>
      <trkpt lat="49.83025" lon="2.26812">
        <ele>108.8</ele>
        <time>2023-04-05T12:41:03Z</time>
      </trkpt>
      <trkpt lat="49.83024" lon="2.26813">
        <ele>108.8</ele>
        <time>2023-04-05T12:41:04Z</time>
      </trkpt>
      <trkpt lat="49.83022" lon="2.26814">
        <ele>108.8</ele>
        <time>2023-04-05T12:41:05Z</time>
      </trkpt>
      <trkpt lat="49.83021" lon="2.26815">
        <ele>108.8</ele>
        <time>2023-04-05T12:41:06Z</time>
      </trkpt>
      <trkpt lat="49.8302" lon="2.26816">
        <ele>108.8</ele>
        <time>2023-04-05T12:41:07Z</time>
      </trkpt>
      <trkpt lat="49.83018" lon="2.26817">
        <ele>108.8</ele>
        <time>2023-04-05T12:41:08Z</time>
      </trkpt>
      <trkpt lat="49.83016" lon="2.26819">
        <ele>108.8</ele>
        <time>2023-04-05T12:41:10Z</time>
      </trkpt>
      <trkpt lat="49.83016" lon="2.26821">
        <ele>108.8</ele>
        <time>2023-04-05T12:41:11Z</time>
      </trkpt>
      <trkpt lat="49.83015" lon="2.26822">
        <ele>108.8</ele>
        <time>2023-04-05T12:41:12Z</time>
      </trkpt>
      <trkpt lat="49.83014" lon="2.26822">
        <ele>108.8</ele>
        <time>2023-04-05T12:41:13Z</time>
      </trkpt>
      <trkpt lat="49.83013" lon="2.26823">
        <ele>108.8</ele>
        <time>2023-04-05T12:41:14Z</time>
      </trkpt>
      <trkpt lat="49.83012" lon="2.26825">
        <ele>108.8</ele>
        <time>2023-04-05T12:41:16Z</time>
      </trkpt>
      <trkpt lat="49.83011" lon="2.26826">
        <ele>108.8</ele>
        <time>2023-04-05T12:41:17Z</time>
      </trkpt>
      <trkpt lat="49.8301" lon="2.26827">
        <ele>108.7</ele>
        <time>2023-04-05T12:41:18Z</time>
      </trkpt>
      <trkpt lat="49.8301" lon="2.26828">
        <ele>108.7</ele>
        <time>2023-04-05T12:41:19Z</time>
      </trkpt>
      <trkpt lat="49.8301" lon="2.2683">
        <ele>108.7</ele>
        <time>2023-04-05T12:41:20Z</time>
      </trkpt>
      <trkpt lat="49.83011" lon="2.26832">
        <ele>108.7</ele>
        <time>2023-04-05T12:41:22Z</time>
      </trkpt>
      <trkpt lat="49.83011" lon="2.26834">
        <ele>108.7</ele>
        <time>2023-04-05T12:41:23Z</time>
      </trkpt>
      <trkpt lat="49.83011" lon="2.26835">
        <ele>108.7</ele>
        <time>2023-04-05T12:41:24Z</time>
      </trkpt>
      <trkpt lat="49.83011" lon="2.26836">
        <ele>108.7</ele>
        <time>2023-04-05T12:41:25Z</time>
      </trkpt>
      <trkpt lat="49.83011" lon="2.26838">
        <ele>108.7</ele>
        <time>2023-04-05T12:41:26Z</time>
      </trkpt>
      <trkpt lat="49.8301" lon="2.2684">
        <ele>108.7</ele>
        <time>2023-04-05T12:41:27Z</time>
      </trkpt>
      <trkpt lat="49.83011" lon="2.26842">
        <ele>108.7</ele>
        <time>2023-04-05T12:41:29Z</time>
      </trkpt>
      <trkpt lat="49.83011" lon="2.26844">
        <ele>108.7</ele>
        <time>2023-04-05T12:41:30Z</time>
      </trkpt>
      <trkpt lat="49.83011" lon="2.26845">
        <ele>108.7</ele>
        <time>2023-04-05T12:41:31Z</time>
      </trkpt>
      <trkpt lat="49.8301" lon="2.26846">
        <ele>108.7</ele>
        <time>2023-04-05T12:41:32Z</time>
      </trkpt>
      <trkpt lat="49.8301" lon="2.26848">
        <ele>108.7</ele>
        <time>2023-04-05T12:41:33Z</time>
      </trkpt>
      <trkpt lat="49.83009" lon="2.26849">
        <ele>108.7</ele>
        <time>2023-04-05T12:41:34Z</time>
      </trkpt>
      <trkpt lat="49.83009" lon="2.26851">
        <ele>108.7</ele>
        <time>2023-04-05T12:41:36Z</time>
      </trkpt>
      <trkpt lat="49.83008" lon="2.26853">
        <ele>108.7</ele>
        <time>2023-04-05T12:41:37Z</time>
      </trkpt>
      <trkpt lat="49.83007" lon="2.26854">
        <ele>108.7</ele>
        <time>2023-04-05T12:41:38Z</time>
      </trkpt>
      <trkpt lat="49.83007" lon="2.26856">
        <ele>108.7</ele>
        <time>2023-04-05T12:41:39Z</time>
      </trkpt>
      <trkpt lat="49.83007" lon="2.26858">
        <ele>108.7</ele>
        <time>2023-04-05T12:41:40Z</time>
      </trkpt>
      <trkpt lat="49.83006" lon="2.26859">
        <ele>108.7</ele>
        <time>2023-04-05T12:41:42Z</time>
      </trkpt>
      <trkpt lat="49.83006" lon="2.26861">
        <ele>108.7</ele>
        <time>2023-04-05T12:41:43Z</time>
      </trkpt>
      <trkpt lat="49.83005" lon="2.26863">
        <ele>108.7</ele>
        <time>2023-04-05T12:41:44Z</time>
      </trkpt>
      <trkpt lat="49.83005" lon="2.26864">
        <ele>108.7</ele>
        <time>2023-04-05T12:41:45Z</time>
      </trkpt>
      <trkpt lat="49.83004" lon="2.26865">
        <ele>108.7</ele>
        <time>2023-04-05T12:41:46Z</time>
      </trkpt>
      <trkpt lat="49.83003" lon="2.26866">
        <ele>108.7</ele>
        <time>2023-04-05T12:41:47Z</time>
      </trkpt>
      <trkpt lat="49.83003" lon="2.26868">
        <ele>108.7</ele>
        <time>2023-04-05T12:41:48Z</time>
      </trkpt>
      <trkpt lat="49.83002" lon="2.26869">
        <ele>108.7</ele>
        <time>2023-04-05T12:41:50Z</time>
      </trkpt>
      <trkpt lat="49.83002" lon="2.2687">
        <ele>108.7</ele>
        <time>2023-04-05T12:41:51Z</time>
      </trkpt>
      <trkpt lat="49.83001" lon="2.26871">
        <ele>108.7</ele>
        <time>2023-04-05T12:41:52Z</time>
      </trkpt>
      <trkpt lat="49.83001" lon="2.26872">
        <ele>108.7</ele>
        <time>2023-04-05T12:41:53Z</time>
      </trkpt>
      <trkpt lat="49.83001" lon="2.26874">
        <ele>108.7</ele>
        <time>2023-04-05T12:41:54Z</time>
      </trkpt>
      <trkpt lat="49.83" lon="2.26875">
        <ele>108.7</ele>
        <time>2023-04-05T12:41:55Z</time>
      </trkpt>
      <trkpt lat="49.83" lon="2.26877">
        <ele>108.7</ele>
        <time>2023-04-05T12:41:57Z</time>
      </trkpt>
      <trkpt lat="49.83" lon="2.26879">
        <ele>108.6</ele>
        <time>2023-04-05T12:41:59Z</time>
      </trkpt>
      <trkpt lat="49.83001" lon="2.2688">
        <ele>108.6</ele>
        <time>2023-04-05T12:42:00Z</time>
      </trkpt>
      <trkpt lat="49.83002" lon="2.2688">
        <ele>108.6</ele>
        <time>2023-04-05T12:42:02Z</time>
      </trkpt>
      <trkpt lat="49.83002" lon="2.2688">
        <ele>108.6</ele>
        <time>2023-04-05T12:42:03Z</time>
      </trkpt>
      <trkpt lat="49.83003" lon="2.26879">
        <ele>108.6</ele>
        <time>2023-04-05T12:42:04Z</time>
      </trkpt>
      <trkpt lat="49.83003" lon="2.26878">
        <ele>108.6</ele>
        <time>2023-04-05T12:42:06Z</time>
      </trkpt>
      <trkpt lat="49.83003" lon="2.26878">
        <ele>108.6</ele>
        <time>2023-04-05T12:42:07Z</time>
      </trkpt>
      <trkpt lat="49.83003" lon="2.26877">
        <ele>108.6</ele>
        <time>2023-04-05T12:42:09Z</time>
      </trkpt>
      <trkpt lat="49.83003" lon="2.26877">
        <ele>108.6</ele>
        <time>2023-04-05T12:42:10Z</time>
      </trkpt>
      <trkpt lat="49.83003" lon="2.26877">
        <ele>108.6</ele>
        <time>2023-04-05T12:42:11Z</time>
      </trkpt>
      <trkpt lat="49.83003" lon="2.26876">
        <ele>108.6</ele>
        <time>2023-04-05T12:42:12Z</time>
      </trkpt>
      <trkpt lat="49.83003" lon="2.26876">
        <ele>108.6</ele>
        <time>2023-04-05T12:42:13Z</time>
      </trkpt>
      <trkpt lat="49.83003" lon="2.26876">
        <ele>108.6</ele>
        <time>2023-04-05T12:42:14Z</time>
      </trkpt>
      <trkpt lat="49.83002" lon="2.26875">
        <ele>108.6</ele>
        <time>2023-04-05T12:42:15Z</time>
      </trkpt>
      <trkpt lat="49.83002" lon="2.26875">
        <ele>108.6</ele>
        <time>2023-04-05T12:42:16Z</time>
      </trkpt>
      <trkpt lat="49.83002" lon="2.26875">
        <ele>108.6</ele>
        <time>2023-04-05T12:42:17Z</time>
      </trkpt>
      <trkpt lat="49.83002" lon="2.26874">
        <ele>108.6</ele>
        <time>2023-04-05T12:42:18Z</time>
      </trkpt>
      <trkpt lat="49.83002" lon="2.26874">
        <ele>108.6</ele>
        <time>2023-04-05T12:42:19Z</time>
      </trkpt>
      <trkpt lat="49.83002" lon="2.26873">
        <ele>108.7</ele>
        <time>2023-04-05T12:42:20Z</time>
      </trkpt>
      <trkpt lat="49.83002" lon="2.26873">
        <ele>108.7</ele>
        <time>2023-04-05T12:42:21Z</time>
      </trkpt>
      <trkpt lat="49.83002" lon="2.26873">
        <ele>108.7</ele>
        <time>2023-04-05T12:42:22Z</time>
      </trkpt>
      <trkpt lat="49.83002" lon="2.26872">
        <ele>108.7</ele>
        <time>2023-04-05T12:42:23Z</time>
      </trkpt>
      <trkpt lat="49.83002" lon="2.26872">
        <ele>108.7</ele>
        <time>2023-04-05T12:42:24Z</time>
      </trkpt>
      <trkpt lat="49.83002" lon="2.26872">
        <ele>108.7</ele>
        <time>2023-04-05T12:42:25Z</time>
      </trkpt>
      <trkpt lat="49.83001" lon="2.26871">
        <ele>108.7</ele>
        <time>2023-04-05T12:42:26Z</time>
      </trkpt>
      <trkpt lat="49.83001" lon="2.26871">
        <ele>108.7</ele>
        <time>2023-04-05T12:42:27Z</time>
      </trkpt>
      <trkpt lat="49.83001" lon="2.26871">
        <ele>108.7</ele>
        <time>2023-04-05T12:42:28Z</time>
      </trkpt>
      <trkpt lat="49.83001" lon="2.2687">
        <ele>108.7</ele>
        <time>2023-04-05T12:42:29Z</time>
      </trkpt>
      <trkpt lat="49.83001" lon="2.2687">
        <ele>108.7</ele>
        <time>2023-04-05T12:42:30Z</time>
      </trkpt>
      <trkpt lat="49.83001" lon="2.2687">
        <ele>108.7</ele>
        <time>2023-04-05T12:42:31Z</time>
      </trkpt>
      <trkpt lat="49.83001" lon="2.26869">
        <ele>108.7</ele>
        <time>2023-04-05T12:42:32Z</time>
      </trkpt>
      <trkpt lat="49.83" lon="2.26869">
        <ele>108.7</ele>
        <time>2023-04-05T12:42:33Z</time>
      </trkpt>
      <trkpt lat="49.83" lon="2.2687">
        <ele>108.7</ele>
        <time>2023-04-05T12:42:34Z</time>
      </trkpt>
      <trkpt lat="49.83" lon="2.26871">
        <ele>108.7</ele>
        <time>2023-04-05T12:42:35Z</time>
      </trkpt>
      <trkpt lat="49.83" lon="2.26872">
        <ele>108.7</ele>
        <time>2023-04-05T12:42:36Z</time>
      </trkpt>
      <trkpt lat="49.83" lon="2.26872">
        <ele>108.7</ele>
        <time>2023-04-05T12:42:37Z</time>
      </trkpt>
      <trkpt lat="49.83" lon="2.26873">
        <ele>108.7</ele>
        <time>2023-04-05T12:42:38Z</time>
      </trkpt>
      <trkpt lat="49.83" lon="2.26873">
        <ele>108.7</ele>
        <time>2023-04-05T12:42:39Z</time>
      </trkpt>
      <trkpt lat="49.83" lon="2.26873">
        <ele>108.7</ele>
        <time>2023-04-05T12:42:40Z</time>
      </trkpt>
      <trkpt lat="49.83" lon="2.26874">
        <ele>108.7</ele>
        <time>2023-04-05T12:42:41Z</time>
      </trkpt>
      <trkpt lat="49.83" lon="2.26874">
        <ele>108.7</ele>
        <time>2023-04-05T12:42:42Z</time>
      </trkpt>
      <trkpt lat="49.83" lon="2.26875">
        <ele>108.7</ele>
        <time>2023-04-05T12:42:43Z</time>
      </trkpt>
      <trkpt lat="49.82999" lon="2.26875">
        <ele>108.7</ele>
        <time>2023-04-05T12:42:44Z</time>
      </trkpt>
      <trkpt lat="49.82999" lon="2.26876">
        <ele>108.7</ele>
        <time>2023-04-05T12:42:45Z</time>
      </trkpt>
      <trkpt lat="49.82999" lon="2.26876">
        <ele>108.7</ele>
        <time>2023-04-05T12:42:46Z</time>
      </trkpt>
      <trkpt lat="49.83" lon="2.26876">
        <ele>108.8</ele>
        <time>2023-04-05T12:42:47Z</time>
      </trkpt>
      <trkpt lat="49.83" lon="2.26876">
        <ele>108.8</ele>
        <time>2023-04-05T12:42:48Z</time>
      </trkpt>
      <trkpt lat="49.83" lon="2.26875">
        <ele>108.8</ele>
        <time>2023-04-05T12:42:49Z</time>
      </trkpt>
      <trkpt lat="49.83" lon="2.26875">
        <ele>108.8</ele>
        <time>2023-04-05T12:42:50Z</time>
      </trkpt>
      <trkpt lat="49.83001" lon="2.26874">
        <ele>108.8</ele>
        <time>2023-04-05T12:42:51Z</time>
      </trkpt>
      <trkpt lat="49.83001" lon="2.26874">
        <ele>108.8</ele>
        <time>2023-04-05T12:42:52Z</time>
      </trkpt>
      <trkpt lat="49.83001" lon="2.26874">
        <ele>108.8</ele>
        <time>2023-04-05T12:42:53Z</time>
      </trkpt>
      <trkpt lat="49.83" lon="2.26874">
        <ele>108.8</ele>
        <time>2023-04-05T12:42:54Z</time>
      </trkpt>
      <trkpt lat="49.83" lon="2.26874">
        <ele>108.8</ele>
        <time>2023-04-05T12:42:55Z</time>
      </trkpt>
      <trkpt lat="49.83" lon="2.26874">
        <ele>108.8</ele>
        <time>2023-04-05T12:42:56Z</time>
      </trkpt>
      <trkpt lat="49.83" lon="2.26874">
        <ele>108.8</ele>
        <time>2023-04-05T12:42:57Z</time>
      </trkpt>
      <trkpt lat="49.83" lon="2.26874">
        <ele>108.8</ele>
        <time>2023-04-05T12:42:58Z</time>
      </trkpt>
      <trkpt lat="49.83" lon="2.26874">
        <ele>108.8</ele>
        <time>2023-04-05T12:42:59Z</time>
      </trkpt>
      <trkpt lat="49.83" lon="2.26874">
        <ele>108.8</ele>
        <time>2023-04-05T12:43:00Z</time>
      </trkpt>
      <trkpt lat="49.83" lon="2.26874">
        <ele>108.8</ele>
        <time>2023-04-05T12:43:01Z</time>
      </trkpt>
      <trkpt lat="49.83" lon="2.26874">
        <ele>108.8</ele>
        <time>2023-04-05T12:43:02Z</time>
      </trkpt>
      <trkpt lat="49.83" lon="2.26874">
        <ele>108.8</ele>
        <time>2023-04-05T12:43:03Z</time>
      </trkpt>
      <trkpt lat="49.83" lon="2.26874">
        <ele>108.8</ele>
        <time>2023-04-05T12:43:04Z</time>
      </trkpt>
      <trkpt lat="49.83" lon="2.26874">
        <ele>108.8</ele>
        <time>2023-04-05T12:43:05Z</time>
      </trkpt>
      <trkpt lat="49.83" lon="2.26874">
        <ele>108.8</ele>
        <time>2023-04-05T12:43:06Z</time>
      </trkpt>
      <trkpt lat="49.83" lon="2.26874">
        <ele>108.8</ele>
        <time>2023-04-05T12:43:07Z</time>
      </trkpt>
      <trkpt lat="49.83" lon="2.26874">
        <ele>108.8</ele>
        <time>2023-04-05T12:43:08Z</time>
      </trkpt>
      <trkpt lat="49.83" lon="2.26874">
        <ele>108.8</ele>
        <time>2023-04-05T12:43:09Z</time>
      </trkpt>
      <trkpt lat="49.83" lon="2.26874">
        <ele>108.8</ele>
        <time>2023-04-05T12:43:10Z</time>
      </trkpt>
      <trkpt lat="49.83" lon="2.26874">
        <ele>108.8</ele>
        <time>2023-04-05T12:43:11Z</time>
      </trkpt>
      <trkpt lat="49.83" lon="2.26874">
        <ele>108.8</ele>
        <time>2023-04-05T12:43:12Z</time>
      </trkpt>
      <trkpt lat="49.83" lon="2.26874">
        <ele>108.8</ele>
        <time>2023-04-05T12:43:13Z</time>
      </trkpt>
      <trkpt lat="49.83" lon="2.26874">
        <ele>108.8</ele>
        <time>2023-04-05T12:43:14Z</time>
      </trkpt>
      <trkpt lat="49.83" lon="2.26874">
        <ele>108.8</ele>
        <time>2023-04-05T12:43:15Z</time>
      </trkpt>
      <trkpt lat="49.83" lon="2.26874">
        <ele>108.8</ele>
        <time>2023-04-05T12:43:16Z</time>
      </trkpt>
      <trkpt lat="49.83" lon="2.26874">
        <ele>108.8</ele>
        <time>2023-04-05T12:43:17Z</time>
      </trkpt>
      <trkpt lat="49.83" lon="2.26874">
        <ele>108.8</ele>
        <time>2023-04-05T12:43:18Z</time>
      </trkpt>
      <trkpt lat="49.83" lon="2.26874">
        <ele>108.8</ele>
        <time>2023-04-05T12:43:19Z</time>
      </trkpt>
      <trkpt lat="49.83" lon="2.26874">
        <ele>108.8</ele>
        <time>2023-04-05T12:43:20Z</time>
      </trkpt>
      <trkpt lat="49.83" lon="2.26874">
        <ele>108.8</ele>
        <time>2023-04-05T12:43:21Z</time>
      </trkpt>
      <trkpt lat="49.83" lon="2.26874">
        <ele>108.8</ele>
        <time>2023-04-05T12:43:22Z</time>
      </trkpt>
      <trkpt lat="49.83" lon="2.26874">
        <ele>108.8</ele>
        <time>2023-04-05T12:43:23Z</time>
      </trkpt>
      <trkpt lat="49.83" lon="2.26874">
        <ele>108.8</ele>
        <time>2023-04-05T12:43:24Z</time>
      </trkpt>
      <trkpt lat="49.83" lon="2.26874">
        <ele>108.8</ele>
        <time>2023-04-05T12:43:25Z</time>
      </trkpt>
      <trkpt lat="49.83" lon="2.26874">
        <ele>108.8</ele>
        <time>2023-04-05T12:43:26Z</time>
      </trkpt>
      <trkpt lat="49.83" lon="2.26874">
        <ele>108.8</ele>
        <time>2023-04-05T12:43:27Z</time>
      </trkpt>
      <trkpt lat="49.83" lon="2.26874">
        <ele>108.8</ele>
        <time>2023-04-05T12:43:28Z</time>
      </trkpt>
      <trkpt lat="49.83" lon="2.26874">
        <ele>108.8</ele>
        <time>2023-04-05T12:43:29Z</time>
      </trkpt>
      <trkpt lat="49.83" lon="2.26874">
        <ele>108.8</ele>
        <time>2023-04-05T12:43:30Z</time>
      </trkpt>
      <trkpt lat="49.83" lon="2.26874">
        <ele>108.8</ele>
        <time>2023-04-05T12:43:31Z</time>
      </trkpt>
      <trkpt lat="49.83" lon="2.26874">
        <ele>108.8</ele>
        <time>2023-04-05T12:43:32Z</time>
      </trkpt>
      <trkpt lat="49.83" lon="2.26874">
        <ele>108.8</ele>
        <time>2023-04-05T12:43:33Z</time>
      </trkpt>
      <trkpt lat="49.83" lon="2.26874">
        <ele>108.8</ele>
        <time>2023-04-05T12:43:34Z</time>
      </trkpt>
      <trkpt lat="49.83" lon="2.26874">
        <ele>108.8</ele>
        <time>2023-04-05T12:43:35Z</time>
      </trkpt>
      <trkpt lat="49.83" lon="2.26874">
        <ele>108.8</ele>
        <time>2023-04-05T12:43:36Z</time>
      </trkpt>
      <trkpt lat="49.83" lon="2.26874">
        <ele>108.8</ele>
        <time>2023-04-05T12:43:37Z</time>
      </trkpt>
      <trkpt lat="49.83" lon="2.26874">
        <ele>108.8</ele>
        <time>2023-04-05T12:43:38Z</time>
      </trkpt>
      <trkpt lat="49.83" lon="2.26874">
        <ele>108.8</ele>
        <time>2023-04-05T12:43:39Z</time>
      </trkpt>
      <trkpt lat="49.83" lon="2.26874">
        <ele>108.8</ele>
        <time>2023-04-05T12:43:40Z</time>
      </trkpt>
      <trkpt lat="49.83" lon="2.26874">
        <ele>108.8</ele>
        <time>2023-04-05T12:43:41Z</time>
      </trkpt>
      <trkpt lat="49.82999" lon="2.26869">
        <ele>108.8</ele>
        <time>2023-04-05T12:43:42Z</time>
      </trkpt>
      <trkpt lat="49.82999" lon="2.26867">
        <ele>108.8</ele>
        <time>2023-04-05T12:43:43Z</time>
      </trkpt>
      <trkpt lat="49.82999" lon="2.26867">
        <ele>108.8</ele>
        <time>2023-04-05T12:43:44Z</time>
      </trkpt>
      <trkpt lat="49.82999" lon="2.26866">
        <ele>108.8</ele>
        <time>2023-04-05T12:43:45Z</time>
      </trkpt>
      <trkpt lat="49.82999" lon="2.26866">
        <ele>108.8</ele>
        <time>2023-04-05T12:43:46Z</time>
      </trkpt>
      <trkpt lat="49.82999" lon="2.26867">
        <ele>108.8</ele>
        <time>2023-04-05T12:43:47Z</time>
      </trkpt>
      <trkpt lat="49.82999" lon="2.26867">
        <ele>108.8</ele>
        <time>2023-04-05T12:43:48Z</time>
      </trkpt>
      <trkpt lat="49.82999" lon="2.26868">
        <ele>108.9</ele>
        <time>2023-04-05T12:43:49Z</time>
      </trkpt>
      <trkpt lat="49.82999" lon="2.2687">
        <ele>108.9</ele>
        <time>2023-04-05T12:43:50Z</time>
      </trkpt>
      <trkpt lat="49.83" lon="2.26872">
        <ele>108.9</ele>
        <time>2023-04-05T12:43:51Z</time>
      </trkpt>
      <trkpt lat="49.83" lon="2.26873">
        <ele>108.9</ele>
        <time>2023-04-05T12:43:52Z</time>
      </trkpt>
      <trkpt lat="49.83" lon="2.26875">
        <ele>108.9</ele>
        <time>2023-04-05T12:43:53Z</time>
      </trkpt>
      <trkpt lat="49.83" lon="2.26876">
        <ele>108.9</ele>
        <time>2023-04-05T12:43:54Z</time>
      </trkpt>
      <trkpt lat="49.82999" lon="2.26878">
        <ele>108.9</ele>
        <time>2023-04-05T12:43:55Z</time>
      </trkpt>
      <trkpt lat="49.82999" lon="2.26878">
        <ele>108.9</ele>
        <time>2023-04-05T12:43:56Z</time>
      </trkpt>
      <trkpt lat="49.82999" lon="2.26879">
        <ele>108.9</ele>
        <time>2023-04-05T12:43:57Z</time>
      </trkpt>
      <trkpt lat="49.82998" lon="2.26882">
        <ele>109</ele>
        <time>2023-04-05T12:43:58Z</time>
      </trkpt>
      <trkpt lat="49.82998" lon="2.26884">
        <ele>109</ele>
        <time>2023-04-05T12:44:00Z</time>
      </trkpt>
      <trkpt lat="49.82998" lon="2.26887">
        <ele>109</ele>
        <time>2023-04-05T12:44:01Z</time>
      </trkpt>
      <trkpt lat="49.82997" lon="2.26888">
        <ele>109</ele>
        <time>2023-04-05T12:44:02Z</time>
      </trkpt>
      <trkpt lat="49.82997" lon="2.2689">
        <ele>109</ele>
        <time>2023-04-05T12:44:04Z</time>
      </trkpt>
      <trkpt lat="49.82997" lon="2.26891">
        <ele>109</ele>
        <time>2023-04-05T12:44:05Z</time>
      </trkpt>
      <trkpt lat="49.82997" lon="2.26893">
        <ele>109</ele>
        <time>2023-04-05T12:44:06Z</time>
      </trkpt>
      <trkpt lat="49.82996" lon="2.26894">
        <ele>109.1</ele>
        <time>2023-04-05T12:44:08Z</time>
      </trkpt>
      <trkpt lat="49.82996" lon="2.26896">
        <ele>109.1</ele>
        <time>2023-04-05T12:44:10Z</time>
      </trkpt>
      <trkpt lat="49.82996" lon="2.26897">
        <ele>109.1</ele>
        <time>2023-04-05T12:44:11Z</time>
      </trkpt>
      <trkpt lat="49.82997" lon="2.26897">
        <ele>109.1</ele>
        <time>2023-04-05T12:44:13Z</time>
      </trkpt>
      <trkpt lat="49.82997" lon="2.26897">
        <ele>109.1</ele>
        <time>2023-04-05T12:44:14Z</time>
      </trkpt>
      <trkpt lat="49.82997" lon="2.26896">
        <ele>109.1</ele>
        <time>2023-04-05T12:44:15Z</time>
      </trkpt>
      <trkpt lat="49.82997" lon="2.26896">
        <ele>109.1</ele>
        <time>2023-04-05T12:44:16Z</time>
      </trkpt>
      <trkpt lat="49.82997" lon="2.26896">
        <ele>109.1</ele>
        <time>2023-04-05T12:44:18Z</time>
      </trkpt>
      <trkpt lat="49.82997" lon="2.26896">
        <ele>109.1</ele>
        <time>2023-04-05T12:44:20Z</time>
      </trkpt>
      <trkpt lat="49.82997" lon="2.26896">
        <ele>109.1</ele>
        <time>2023-04-05T12:44:21Z</time>
      </trkpt>
      <trkpt lat="49.82996" lon="2.26897">
        <ele>109.1</ele>
        <time>2023-04-05T12:44:22Z</time>
      </trkpt>
      <trkpt lat="49.82996" lon="2.26897">
        <ele>109.1</ele>
        <time>2023-04-05T12:44:23Z</time>
      </trkpt>
      <trkpt lat="49.82995" lon="2.26898">
        <ele>109.1</ele>
        <time>2023-04-05T12:44:24Z</time>
      </trkpt>
      <trkpt lat="49.82995" lon="2.26898">
        <ele>109.1</ele>
        <time>2023-04-05T12:44:25Z</time>
      </trkpt>
      <trkpt lat="49.82994" lon="2.26898">
        <ele>109.1</ele>
        <time>2023-04-05T12:44:27Z</time>
      </trkpt>
      <trkpt lat="49.82993" lon="2.26899">
        <ele>109.1</ele>
        <time>2023-04-05T12:44:28Z</time>
      </trkpt>
      <trkpt lat="49.82993" lon="2.269">
        <ele>109.1</ele>
        <time>2023-04-05T12:44:29Z</time>
      </trkpt>
      <trkpt lat="49.82992" lon="2.269">
        <ele>109.2</ele>
        <time>2023-04-05T12:44:30Z</time>
      </trkpt>
      <trkpt lat="49.82992" lon="2.26901">
        <ele>109.2</ele>
        <time>2023-04-05T12:44:31Z</time>
      </trkpt>
      <trkpt lat="49.82991" lon="2.26902">
        <ele>109.2</ele>
        <time>2023-04-05T12:44:32Z</time>
      </trkpt>
      <trkpt lat="49.82991" lon="2.26902">
        <ele>109.2</ele>
        <time>2023-04-05T12:44:33Z</time>
      </trkpt>
      <trkpt lat="49.82991" lon="2.26903">
        <ele>109.2</ele>
        <time>2023-04-05T12:44:35Z</time>
      </trkpt>
      <trkpt lat="49.82991" lon="2.26905">
        <ele>109.2</ele>
        <time>2023-04-05T12:44:36Z</time>
      </trkpt>
      <trkpt lat="49.82991" lon="2.26905">
        <ele>109.2</ele>
        <time>2023-04-05T12:44:38Z</time>
      </trkpt>
      <trkpt lat="49.8299" lon="2.26906">
        <ele>109.2</ele>
        <time>2023-04-05T12:44:39Z</time>
      </trkpt>
      <trkpt lat="49.8299" lon="2.26906">
        <ele>109.2</ele>
        <time>2023-04-05T12:44:40Z</time>
      </trkpt>
      <trkpt lat="49.8299" lon="2.26907">
        <ele>109.2</ele>
        <time>2023-04-05T12:44:41Z</time>
      </trkpt>
      <trkpt lat="49.8299" lon="2.26908">
        <ele>109.2</ele>
        <time>2023-04-05T12:44:42Z</time>
      </trkpt>
      <trkpt lat="49.8299" lon="2.26909">
        <ele>109.2</ele>
        <time>2023-04-05T12:44:44Z</time>
      </trkpt>
      <trkpt lat="49.8299" lon="2.2691">
        <ele>109.2</ele>
        <time>2023-04-05T12:44:45Z</time>
      </trkpt>
      <trkpt lat="49.8299" lon="2.26912">
        <ele>109.2</ele>
        <time>2023-04-05T12:44:46Z</time>
      </trkpt>
      <trkpt lat="49.8299" lon="2.26913">
        <ele>109.2</ele>
        <time>2023-04-05T12:44:47Z</time>
      </trkpt>
      <trkpt lat="49.82989" lon="2.26915">
        <ele>109.2</ele>
        <time>2023-04-05T12:44:48Z</time>
      </trkpt>
      <trkpt lat="49.82989" lon="2.26916">
        <ele>109.2</ele>
        <time>2023-04-05T12:44:49Z</time>
      </trkpt>
      <trkpt lat="49.82988" lon="2.26919">
        <ele>109.3</ele>
        <time>2023-04-05T12:44:50Z</time>
      </trkpt>
      <trkpt lat="49.82988" lon="2.2692">
        <ele>109.3</ele>
        <time>2023-04-05T12:44:52Z</time>
      </trkpt>
      <trkpt lat="49.82987" lon="2.26921">
        <ele>109.3</ele>
        <time>2023-04-05T12:44:53Z</time>
      </trkpt>
      <trkpt lat="49.82987" lon="2.26923">
        <ele>109.3</ele>
        <time>2023-04-05T12:44:54Z</time>
      </trkpt>
      <trkpt lat="49.82986" lon="2.26924">
        <ele>109.3</ele>
        <time>2023-04-05T12:44:55Z</time>
      </trkpt>
      <trkpt lat="49.82986" lon="2.26926">
        <ele>109.3</ele>
        <time>2023-04-05T12:44:56Z</time>
      </trkpt>
      <trkpt lat="49.82985" lon="2.26927">
        <ele>109.3</ele>
        <time>2023-04-05T12:44:57Z</time>
      </trkpt>
      <trkpt lat="49.82985" lon="2.26928">
        <ele>109.3</ele>
        <time>2023-04-05T12:44:58Z</time>
      </trkpt>
      <trkpt lat="49.82984" lon="2.2693">
        <ele>109.3</ele>
        <time>2023-04-05T12:45:00Z</time>
      </trkpt>
      <trkpt lat="49.82983" lon="2.26932">
        <ele>109.3</ele>
        <time>2023-04-05T12:45:01Z</time>
      </trkpt>
      <trkpt lat="49.82982" lon="2.26933">
        <ele>109.3</ele>
        <time>2023-04-05T12:45:02Z</time>
      </trkpt>
      <trkpt lat="49.82982" lon="2.26935">
        <ele>109.3</ele>
        <time>2023-04-05T12:45:03Z</time>
      </trkpt>
      <trkpt lat="49.82981" lon="2.26938">
        <ele>109.3</ele>
        <time>2023-04-05T12:45:04Z</time>
      </trkpt>
      <trkpt lat="49.8298" lon="2.2694">
        <ele>109.4</ele>
        <time>2023-04-05T12:45:05Z</time>
      </trkpt>
      <trkpt lat="49.82979" lon="2.26943">
        <ele>109.4</ele>
        <time>2023-04-05T12:45:06Z</time>
      </trkpt>
      <trkpt lat="49.82979" lon="2.26945">
        <ele>109.4</ele>
        <time>2023-04-05T12:45:07Z</time>
      </trkpt>
      <trkpt lat="49.82977" lon="2.26948">
        <ele>109.4</ele>
        <time>2023-04-05T12:45:08Z</time>
      </trkpt>
      <trkpt lat="49.82977" lon="2.26949">
        <ele>109.4</ele>
        <time>2023-04-05T12:45:10Z</time>
      </trkpt>
      <trkpt lat="49.82976" lon="2.2695">
        <ele>109.4</ele>
        <time>2023-04-05T12:45:11Z</time>
      </trkpt>
      <trkpt lat="49.82975" lon="2.26952">
        <ele>109.4</ele>
        <time>2023-04-05T12:45:12Z</time>
      </trkpt>
      <trkpt lat="49.82975" lon="2.26953">
        <ele>109.4</ele>
        <time>2023-04-05T12:45:13Z</time>
      </trkpt>
      <trkpt lat="49.82974" lon="2.26956">
        <ele>109.4</ele>
        <time>2023-04-05T12:45:14Z</time>
      </trkpt>
      <trkpt lat="49.82973" lon="2.26957">
        <ele>109.4</ele>
        <time>2023-04-05T12:45:15Z</time>
      </trkpt>
      <trkpt lat="49.82973" lon="2.26958">
        <ele>109.4</ele>
        <time>2023-04-05T12:45:16Z</time>
      </trkpt>
      <trkpt lat="49.82972" lon="2.26961">
        <ele>109.4</ele>
        <time>2023-04-05T12:45:17Z</time>
      </trkpt>
      <trkpt lat="49.82972" lon="2.26963">
        <ele>109.5</ele>
        <time>2023-04-05T12:45:18Z</time>
      </trkpt>
      <trkpt lat="49.82971" lon="2.26964">
        <ele>109.5</ele>
        <time>2023-04-05T12:45:19Z</time>
      </trkpt>
      <trkpt lat="49.82971" lon="2.26965">
        <ele>109.5</ele>
        <time>2023-04-05T12:45:21Z</time>
      </trkpt>
      <trkpt lat="49.8297" lon="2.26967">
        <ele>109.5</ele>
        <time>2023-04-05T12:45:22Z</time>
      </trkpt>
      <trkpt lat="49.8297" lon="2.26968">
        <ele>109.5</ele>
        <time>2023-04-05T12:45:23Z</time>
      </trkpt>
      <trkpt lat="49.82969" lon="2.2697">
        <ele>109.5</ele>
        <time>2023-04-05T12:45:24Z</time>
      </trkpt>
      <trkpt lat="49.82968" lon="2.26972">
        <ele>109.5</ele>
        <time>2023-04-05T12:45:25Z</time>
      </trkpt>
      <trkpt lat="49.82967" lon="2.26975">
        <ele>109.5</ele>
        <time>2023-04-05T12:45:26Z</time>
      </trkpt>
      <trkpt lat="49.82967" lon="2.26976">
        <ele>109.5</ele>
        <time>2023-04-05T12:45:27Z</time>
      </trkpt>
      <trkpt lat="49.82966" lon="2.26978">
        <ele>109.5</ele>
        <time>2023-04-05T12:45:28Z</time>
      </trkpt>
      <trkpt lat="49.82966" lon="2.2698">
        <ele>109.5</ele>
        <time>2023-04-05T12:45:29Z</time>
      </trkpt>
      <trkpt lat="49.82965" lon="2.26983">
        <ele>109.5</ele>
        <time>2023-04-05T12:45:31Z</time>
      </trkpt>
      <trkpt lat="49.82964" lon="2.26985">
        <ele>109.6</ele>
        <time>2023-04-05T12:45:32Z</time>
      </trkpt>
      <trkpt lat="49.82964" lon="2.26988">
        <ele>109.6</ele>
        <time>2023-04-05T12:45:33Z</time>
      </trkpt>
      <trkpt lat="49.82963" lon="2.2699">
        <ele>109.6</ele>
        <time>2023-04-05T12:45:34Z</time>
      </trkpt>
      <trkpt lat="49.82962" lon="2.26992">
        <ele>109.6</ele>
        <time>2023-04-05T12:45:35Z</time>
      </trkpt>
      <trkpt lat="49.82961" lon="2.26994">
        <ele>109.6</ele>
        <time>2023-04-05T12:45:36Z</time>
      </trkpt>
      <trkpt lat="49.82961" lon="2.26996">
        <ele>109.6</ele>
        <time>2023-04-05T12:45:37Z</time>
      </trkpt>
      <trkpt lat="49.8296" lon="2.26998">
        <ele>109.6</ele>
        <time>2023-04-05T12:45:39Z</time>
      </trkpt>
      <trkpt lat="49.82959" lon="2.27">
        <ele>109.6</ele>
        <time>2023-04-05T12:45:40Z</time>
      </trkpt>
      <trkpt lat="49.82959" lon="2.27003">
        <ele>109.6</ele>
        <time>2023-04-05T12:45:41Z</time>
      </trkpt>
      <trkpt lat="49.82958" lon="2.27004">
        <ele>109.6</ele>
        <time>2023-04-05T12:45:42Z</time>
      </trkpt>
      <trkpt lat="49.82958" lon="2.27006">
        <ele>109.7</ele>
        <time>2023-04-05T12:45:43Z</time>
      </trkpt>
      <trkpt lat="49.82958" lon="2.27007">
        <ele>109.7</ele>
        <time>2023-04-05T12:45:44Z</time>
      </trkpt>
      <trkpt lat="49.82957" lon="2.2701">
        <ele>109.7</ele>
        <time>2023-04-05T12:45:45Z</time>
      </trkpt>
      <trkpt lat="49.82956" lon="2.27012">
        <ele>109.7</ele>
        <time>2023-04-05T12:45:46Z</time>
      </trkpt>
      <trkpt lat="49.82956" lon="2.27014">
        <ele>109.7</ele>
        <time>2023-04-05T12:45:47Z</time>
      </trkpt>
      <trkpt lat="49.82955" lon="2.27016">
        <ele>109.7</ele>
        <time>2023-04-05T12:45:48Z</time>
      </trkpt>
      <trkpt lat="49.82955" lon="2.27018">
        <ele>109.7</ele>
        <time>2023-04-05T12:45:50Z</time>
      </trkpt>
      <trkpt lat="49.82953" lon="2.27022">
        <ele>109.7</ele>
        <time>2023-04-05T12:45:51Z</time>
      </trkpt>
      <trkpt lat="49.82953" lon="2.27024">
        <ele>109.8</ele>
        <time>2023-04-05T12:45:52Z</time>
      </trkpt>
      <trkpt lat="49.82952" lon="2.27026">
        <ele>109.8</ele>
        <time>2023-04-05T12:45:53Z</time>
      </trkpt>
      <trkpt lat="49.82951" lon="2.27029">
        <ele>109.8</ele>
        <time>2023-04-05T12:45:55Z</time>
      </trkpt>
      <trkpt lat="49.82949" lon="2.27034">
        <ele>109.8</ele>
        <time>2023-04-05T12:45:56Z</time>
      </trkpt>
      <trkpt lat="49.82949" lon="2.27036">
        <ele>109.8</ele>
        <time>2023-04-05T12:45:57Z</time>
      </trkpt>
      <trkpt lat="49.82947" lon="2.2704">
        <ele>109.8</ele>
        <time>2023-04-05T12:45:58Z</time>
      </trkpt>
      <trkpt lat="49.82947" lon="2.27041">
        <ele>109.8</ele>
        <time>2023-04-05T12:45:59Z</time>
      </trkpt>
      <trkpt lat="49.82945" lon="2.27046">
        <ele>109.9</ele>
        <time>2023-04-05T12:46:00Z</time>
      </trkpt>
      <trkpt lat="49.82945" lon="2.27048">
        <ele>109.9</ele>
        <time>2023-04-05T12:46:01Z</time>
      </trkpt>
      <trkpt lat="49.82945" lon="2.27049">
        <ele>109.9</ele>
        <time>2023-04-05T12:46:02Z</time>
      </trkpt>
      <trkpt lat="49.82944" lon="2.27052">
        <ele>109.9</ele>
        <time>2023-04-05T12:46:03Z</time>
      </trkpt>
      <trkpt lat="49.82944" lon="2.27054">
        <ele>109.9</ele>
        <time>2023-04-05T12:46:05Z</time>
      </trkpt>
      <trkpt lat="49.82943" lon="2.27057">
        <ele>109.9</ele>
        <time>2023-04-05T12:46:06Z</time>
      </trkpt>
      <trkpt lat="49.82943" lon="2.2706">
        <ele>109.9</ele>
        <time>2023-04-05T12:46:07Z</time>
      </trkpt>
      <trkpt lat="49.82943" lon="2.27062">
        <ele>109.9</ele>
        <time>2023-04-05T12:46:08Z</time>
      </trkpt>
      <trkpt lat="49.82943" lon="2.27064">
        <ele>109.9</ele>
        <time>2023-04-05T12:46:09Z</time>
      </trkpt>
      <trkpt lat="49.82942" lon="2.27066">
        <ele>109.9</ele>
        <time>2023-04-05T12:46:10Z</time>
      </trkpt>
      <trkpt lat="49.82942" lon="2.2707">
        <ele>110</ele>
        <time>2023-04-05T12:46:11Z</time>
      </trkpt>
      <trkpt lat="49.82942" lon="2.27071">
        <ele>110</ele>
        <time>2023-04-05T12:46:12Z</time>
      </trkpt>
      <trkpt lat="49.82942" lon="2.27072">
        <ele>110</ele>
        <time>2023-04-05T12:46:13Z</time>
      </trkpt>
      <trkpt lat="49.82942" lon="2.27074">
        <ele>110</ele>
        <time>2023-04-05T12:46:15Z</time>
      </trkpt>
      <trkpt lat="49.82942" lon="2.27076">
        <ele>110</ele>
        <time>2023-04-05T12:46:16Z</time>
      </trkpt>
      <trkpt lat="49.82942" lon="2.27079">
        <ele>110</ele>
        <time>2023-04-05T12:46:17Z</time>
      </trkpt>
      <trkpt lat="49.82942" lon="2.2708">
        <ele>110</ele>
        <time>2023-04-05T12:46:18Z</time>
      </trkpt>
      <trkpt lat="49.82942" lon="2.27082">
        <ele>110</ele>
        <time>2023-04-05T12:46:19Z</time>
      </trkpt>
      <trkpt lat="49.82942" lon="2.27084">
        <ele>110</ele>
        <time>2023-04-05T12:46:20Z</time>
      </trkpt>
      <trkpt lat="49.82942" lon="2.27087">
        <ele>110</ele>
        <time>2023-04-05T12:46:22Z</time>
      </trkpt>
      <trkpt lat="49.82942" lon="2.2709">
        <ele>110</ele>
        <time>2023-04-05T12:46:23Z</time>
      </trkpt>
      <trkpt lat="49.82942" lon="2.27091">
        <ele>110</ele>
        <time>2023-04-05T12:46:24Z</time>
      </trkpt>
      <trkpt lat="49.82942" lon="2.27093">
        <ele>110</ele>
        <time>2023-04-05T12:46:25Z</time>
      </trkpt>
      <trkpt lat="49.82942" lon="2.27096">
        <ele>110</ele>
        <time>2023-04-05T12:46:26Z</time>
      </trkpt>
      <trkpt lat="49.82943" lon="2.27098">
        <ele>110</ele>
        <time>2023-04-05T12:46:27Z</time>
      </trkpt>
      <trkpt lat="49.82944" lon="2.271">
        <ele>110</ele>
        <time>2023-04-05T12:46:28Z</time>
      </trkpt>
      <trkpt lat="49.82944" lon="2.27101">
        <ele>110</ele>
        <time>2023-04-05T12:46:30Z</time>
      </trkpt>
      <trkpt lat="49.82945" lon="2.27102">
        <ele>110</ele>
        <time>2023-04-05T12:46:31Z</time>
      </trkpt>
      <trkpt lat="49.82946" lon="2.27105">
        <ele>110</ele>
        <time>2023-04-05T12:46:32Z</time>
      </trkpt>
      <trkpt lat="49.82947" lon="2.27107">
        <ele>110</ele>
        <time>2023-04-05T12:46:33Z</time>
      </trkpt>
      <trkpt lat="49.82947" lon="2.27108">
        <ele>110</ele>
        <time>2023-04-05T12:46:34Z</time>
      </trkpt>
      <trkpt lat="49.82948" lon="2.2711">
        <ele>110</ele>
        <time>2023-04-05T12:46:35Z</time>
      </trkpt>
      <trkpt lat="49.82949" lon="2.27112">
        <ele>110.1</ele>
        <time>2023-04-05T12:46:36Z</time>
      </trkpt>
      <trkpt lat="49.8295" lon="2.27113">
        <ele>110.1</ele>
        <time>2023-04-05T12:46:37Z</time>
      </trkpt>
      <trkpt lat="49.8295" lon="2.27115">
        <ele>110.1</ele>
        <time>2023-04-05T12:46:38Z</time>
      </trkpt>
      <trkpt lat="49.82951" lon="2.27117">
        <ele>110.1</ele>
        <time>2023-04-05T12:46:40Z</time>
      </trkpt>
      <trkpt lat="49.82952" lon="2.27118">
        <ele>110.1</ele>
        <time>2023-04-05T12:46:41Z</time>
      </trkpt>
      <trkpt lat="49.82952" lon="2.27119">
        <ele>110.1</ele>
        <time>2023-04-05T12:46:42Z</time>
      </trkpt>
      <trkpt lat="49.82953" lon="2.27121">
        <ele>110.1</ele>
        <time>2023-04-05T12:46:43Z</time>
      </trkpt>
      <trkpt lat="49.82954" lon="2.27124">
        <ele>110.1</ele>
        <time>2023-04-05T12:46:44Z</time>
      </trkpt>
      <trkpt lat="49.82955" lon="2.27126">
        <ele>110.1</ele>
        <time>2023-04-05T12:46:45Z</time>
      </trkpt>
      <trkpt lat="49.82955" lon="2.27127">
        <ele>110.1</ele>
        <time>2023-04-05T12:46:46Z</time>
      </trkpt>
      <trkpt lat="49.82956" lon="2.2713">
        <ele>110.1</ele>
        <time>2023-04-05T12:46:47Z</time>
      </trkpt>
      <trkpt lat="49.82956" lon="2.27131">
        <ele>110.1</ele>
        <time>2023-04-05T12:46:49Z</time>
      </trkpt>
      <trkpt lat="49.82957" lon="2.27132">
        <ele>110.1</ele>
        <time>2023-04-05T12:46:50Z</time>
      </trkpt>
      <trkpt lat="49.82957" lon="2.27135">
        <ele>110.1</ele>
        <time>2023-04-05T12:46:51Z</time>
      </trkpt>
      <trkpt lat="49.82958" lon="2.27137">
        <ele>110.1</ele>
        <time>2023-04-05T12:46:52Z</time>
      </trkpt>
      <trkpt lat="49.82958" lon="2.27139">
        <ele>110.1</ele>
        <time>2023-04-05T12:46:53Z</time>
      </trkpt>
      <trkpt lat="49.82958" lon="2.27141">
        <ele>110.1</ele>
        <time>2023-04-05T12:46:54Z</time>
      </trkpt>
      <trkpt lat="49.82959" lon="2.27143">
        <ele>110.1</ele>
        <time>2023-04-05T12:46:55Z</time>
      </trkpt>
      <trkpt lat="49.82959" lon="2.27144">
        <ele>110.1</ele>
        <time>2023-04-05T12:46:57Z</time>
      </trkpt>
      <trkpt lat="49.82959" lon="2.27145">
        <ele>110.1</ele>
        <time>2023-04-05T12:46:58Z</time>
      </trkpt>
      <trkpt lat="49.82959" lon="2.27146">
        <ele>110</ele>
        <time>2023-04-05T12:46:59Z</time>
      </trkpt>
      <trkpt lat="49.82959" lon="2.27148">
        <ele>110</ele>
        <time>2023-04-05T12:47:00Z</time>
      </trkpt>
      <trkpt lat="49.8296" lon="2.27149">
        <ele>110</ele>
        <time>2023-04-05T12:47:01Z</time>
      </trkpt>
      <trkpt lat="49.8296" lon="2.27151">
        <ele>110</ele>
        <time>2023-04-05T12:47:02Z</time>
      </trkpt>
      <trkpt lat="49.82961" lon="2.27154">
        <ele>110</ele>
        <time>2023-04-05T12:47:03Z</time>
      </trkpt>
      <trkpt lat="49.82962" lon="2.27155">
        <ele>110</ele>
        <time>2023-04-05T12:47:04Z</time>
      </trkpt>
      <trkpt lat="49.82962" lon="2.27156">
        <ele>110</ele>
        <time>2023-04-05T12:47:06Z</time>
      </trkpt>
      <trkpt lat="49.82962" lon="2.27158">
        <ele>110</ele>
        <time>2023-04-05T12:47:07Z</time>
      </trkpt>
      <trkpt lat="49.82963" lon="2.27159">
        <ele>110</ele>
        <time>2023-04-05T12:47:08Z</time>
      </trkpt>
      <trkpt lat="49.82963" lon="2.2716">
        <ele>110</ele>
        <time>2023-04-05T12:47:09Z</time>
      </trkpt>
      <trkpt lat="49.82964" lon="2.27161">
        <ele>110</ele>
        <time>2023-04-05T12:47:10Z</time>
      </trkpt>
      <trkpt lat="49.82965" lon="2.27162">
        <ele>110</ele>
        <time>2023-04-05T12:47:11Z</time>
      </trkpt>
      <trkpt lat="49.82966" lon="2.27164">
        <ele>110</ele>
        <time>2023-04-05T12:47:12Z</time>
      </trkpt>
      <trkpt lat="49.82967" lon="2.27167">
        <ele>110</ele>
        <time>2023-04-05T12:47:13Z</time>
      </trkpt>
      <trkpt lat="49.82967" lon="2.27168">
        <ele>110</ele>
        <time>2023-04-05T12:47:15Z</time>
      </trkpt>
      <trkpt lat="49.82968" lon="2.27169">
        <ele>110</ele>
        <time>2023-04-05T12:47:16Z</time>
      </trkpt>
      <trkpt lat="49.82968" lon="2.27171">
        <ele>110</ele>
        <time>2023-04-05T12:47:17Z</time>
      </trkpt>
      <trkpt lat="49.82969" lon="2.27173">
        <ele>110</ele>
        <time>2023-04-05T12:47:18Z</time>
      </trkpt>
      <trkpt lat="49.8297" lon="2.27174">
        <ele>110</ele>
        <time>2023-04-05T12:47:19Z</time>
      </trkpt>
      <trkpt lat="49.82971" lon="2.27175">
        <ele>110</ele>
        <time>2023-04-05T12:47:20Z</time>
      </trkpt>
      <trkpt lat="49.82971" lon="2.27176">
        <ele>110</ele>
        <time>2023-04-05T12:47:21Z</time>
      </trkpt>
      <trkpt lat="49.82972" lon="2.27178">
        <ele>110</ele>
        <time>2023-04-05T12:47:22Z</time>
      </trkpt>
      <trkpt lat="49.82972" lon="2.27179">
        <ele>110</ele>
        <time>2023-04-05T12:47:24Z</time>
      </trkpt>
      <trkpt lat="49.82973" lon="2.27179">
        <ele>110</ele>
        <time>2023-04-05T12:47:25Z</time>
      </trkpt>
      <trkpt lat="49.82973" lon="2.2718">
        <ele>110</ele>
        <time>2023-04-05T12:47:26Z</time>
      </trkpt>
      <trkpt lat="49.82974" lon="2.27181">
        <ele>110</ele>
        <time>2023-04-05T12:47:27Z</time>
      </trkpt>
      <trkpt lat="49.82974" lon="2.27182">
        <ele>110</ele>
        <time>2023-04-05T12:47:28Z</time>
      </trkpt>
      <trkpt lat="49.82975" lon="2.27183">
        <ele>110</ele>
        <time>2023-04-05T12:47:29Z</time>
      </trkpt>
      <trkpt lat="49.82975" lon="2.27184">
        <ele>110</ele>
        <time>2023-04-05T12:47:31Z</time>
      </trkpt>
      <trkpt lat="49.82975" lon="2.27185">
        <ele>110</ele>
        <time>2023-04-05T12:47:32Z</time>
      </trkpt>
      <trkpt lat="49.82975" lon="2.27186">
        <ele>110</ele>
        <time>2023-04-05T12:47:33Z</time>
      </trkpt>
      <trkpt lat="49.82976" lon="2.27187">
        <ele>110</ele>
        <time>2023-04-05T12:47:34Z</time>
      </trkpt>
      <trkpt lat="49.82977" lon="2.27189">
        <ele>110</ele>
        <time>2023-04-05T12:47:35Z</time>
      </trkpt>
      <trkpt lat="49.82977" lon="2.2719">
        <ele>110</ele>
        <time>2023-04-05T12:47:36Z</time>
      </trkpt>
      <trkpt lat="49.82978" lon="2.27192">
        <ele>110</ele>
        <time>2023-04-05T12:47:37Z</time>
      </trkpt>
      <trkpt lat="49.82978" lon="2.27194">
        <ele>110</ele>
        <time>2023-04-05T12:47:39Z</time>
      </trkpt>
      <trkpt lat="49.82979" lon="2.27195">
        <ele>110</ele>
        <time>2023-04-05T12:47:40Z</time>
      </trkpt>
      <trkpt lat="49.82979" lon="2.27197">
        <ele>110</ele>
        <time>2023-04-05T12:47:41Z</time>
      </trkpt>
      <trkpt lat="49.8298" lon="2.27199">
        <ele>110</ele>
        <time>2023-04-05T12:47:42Z</time>
      </trkpt>
      <trkpt lat="49.82981" lon="2.27202">
        <ele>110</ele>
        <time>2023-04-05T12:47:43Z</time>
      </trkpt>
      <trkpt lat="49.82982" lon="2.27204">
        <ele>110.1</ele>
        <time>2023-04-05T12:47:44Z</time>
      </trkpt>
      <trkpt lat="49.82983" lon="2.27206">
        <ele>110.1</ele>
        <time>2023-04-05T12:47:45Z</time>
      </trkpt>
      <trkpt lat="49.82984" lon="2.27208">
        <ele>110.1</ele>
        <time>2023-04-05T12:47:46Z</time>
      </trkpt>
      <trkpt lat="49.82985" lon="2.2721">
        <ele>110.1</ele>
        <time>2023-04-05T12:47:48Z</time>
      </trkpt>
      <trkpt lat="49.82986" lon="2.27212">
        <ele>110.1</ele>
        <time>2023-04-05T12:47:49Z</time>
      </trkpt>
      <trkpt lat="49.82987" lon="2.27214">
        <ele>110.1</ele>
        <time>2023-04-05T12:47:50Z</time>
      </trkpt>
      <trkpt lat="49.82988" lon="2.27216">
        <ele>110.1</ele>
        <time>2023-04-05T12:47:51Z</time>
      </trkpt>
      <trkpt lat="49.82989" lon="2.27218">
        <ele>110.1</ele>
        <time>2023-04-05T12:47:52Z</time>
      </trkpt>
      <trkpt lat="49.8299" lon="2.2722">
        <ele>110.1</ele>
        <time>2023-04-05T12:47:53Z</time>
      </trkpt>
      <trkpt lat="49.82992" lon="2.27224">
        <ele>110.1</ele>
        <time>2023-04-05T12:47:54Z</time>
      </trkpt>
      <trkpt lat="49.82993" lon="2.27225">
        <ele>110.1</ele>
        <time>2023-04-05T12:47:55Z</time>
      </trkpt>
      <trkpt lat="49.82994" lon="2.27227">
        <ele>110.1</ele>
        <time>2023-04-05T12:47:56Z</time>
      </trkpt>
      <trkpt lat="49.82995" lon="2.27229">
        <ele>110.1</ele>
        <time>2023-04-05T12:47:58Z</time>
      </trkpt>
      <trkpt lat="49.82996" lon="2.2723">
        <ele>110.1</ele>
        <time>2023-04-05T12:47:59Z</time>
      </trkpt>
      <trkpt lat="49.82997" lon="2.27231">
        <ele>110.1</ele>
        <time>2023-04-05T12:48:00Z</time>
      </trkpt>
      <trkpt lat="49.82998" lon="2.27233">
        <ele>110.1</ele>
        <time>2023-04-05T12:48:01Z</time>
      </trkpt>
      <trkpt lat="49.82999" lon="2.27234">
        <ele>110.1</ele>
        <time>2023-04-05T12:48:02Z</time>
      </trkpt>
      <trkpt lat="49.83" lon="2.27235">
        <ele>110.1</ele>
        <time>2023-04-05T12:48:03Z</time>
      </trkpt>
      <trkpt lat="49.83" lon="2.27236">
        <ele>110.1</ele>
        <time>2023-04-05T12:48:04Z</time>
      </trkpt>
      <trkpt lat="49.83001" lon="2.27238">
        <ele>110.1</ele>
        <time>2023-04-05T12:48:05Z</time>
      </trkpt>
      <trkpt lat="49.83002" lon="2.27239">
        <ele>110.1</ele>
        <time>2023-04-05T12:48:07Z</time>
      </trkpt>
      <trkpt lat="49.83003" lon="2.2724">
        <ele>110.1</ele>
        <time>2023-04-05T12:48:08Z</time>
      </trkpt>
      <trkpt lat="49.83003" lon="2.2724">
        <ele>110.1</ele>
        <time>2023-04-05T12:48:09Z</time>
      </trkpt>
      <trkpt lat="49.83004" lon="2.27241">
        <ele>110.1</ele>
        <time>2023-04-05T12:48:10Z</time>
      </trkpt>
      <trkpt lat="49.83005" lon="2.27242">
        <ele>110.1</ele>
        <time>2023-04-05T12:48:11Z</time>
      </trkpt>
      <trkpt lat="49.83006" lon="2.27243">
        <ele>110.1</ele>
        <time>2023-04-05T12:48:12Z</time>
      </trkpt>
      <trkpt lat="49.83006" lon="2.27244">
        <ele>110.2</ele>
        <time>2023-04-05T12:48:13Z</time>
      </trkpt>
      <trkpt lat="49.83007" lon="2.27245">
        <ele>110.2</ele>
        <time>2023-04-05T12:48:15Z</time>
      </trkpt>
      <trkpt lat="49.83008" lon="2.27246">
        <ele>110.2</ele>
        <time>2023-04-05T12:48:16Z</time>
      </trkpt>
      <trkpt lat="49.83009" lon="2.27248">
        <ele>110.2</ele>
        <time>2023-04-05T12:48:17Z</time>
      </trkpt>
      <trkpt lat="49.8301" lon="2.27249">
        <ele>110.2</ele>
        <time>2023-04-05T12:48:18Z</time>
      </trkpt>
      <trkpt lat="49.8301" lon="2.2725">
        <ele>110.2</ele>
        <time>2023-04-05T12:48:19Z</time>
      </trkpt>
      <trkpt lat="49.83011" lon="2.27252">
        <ele>110.2</ele>
        <time>2023-04-05T12:48:20Z</time>
      </trkpt>
      <trkpt lat="49.83012" lon="2.27254">
        <ele>110.2</ele>
        <time>2023-04-05T12:48:21Z</time>
      </trkpt>
      <trkpt lat="49.83013" lon="2.27255">
        <ele>110.2</ele>
        <time>2023-04-05T12:48:23Z</time>
      </trkpt>
      <trkpt lat="49.83014" lon="2.27257">
        <ele>110.2</ele>
        <time>2023-04-05T12:48:24Z</time>
      </trkpt>
      <trkpt lat="49.83015" lon="2.27259">
        <ele>110.2</ele>
        <time>2023-04-05T12:48:25Z</time>
      </trkpt>
      <trkpt lat="49.83016" lon="2.27261">
        <ele>110.2</ele>
        <time>2023-04-05T12:48:26Z</time>
      </trkpt>
      <trkpt lat="49.83018" lon="2.27264">
        <ele>110.2</ele>
        <time>2023-04-05T12:48:28Z</time>
      </trkpt>
      <trkpt lat="49.83019" lon="2.27267">
        <ele>110.2</ele>
        <time>2023-04-05T12:48:29Z</time>
      </trkpt>
      <trkpt lat="49.83019" lon="2.27269">
        <ele>110.2</ele>
        <time>2023-04-05T12:48:31Z</time>
      </trkpt>
      <trkpt lat="49.83019" lon="2.27271">
        <ele>110.2</ele>
        <time>2023-04-05T12:48:32Z</time>
      </trkpt>
      <trkpt lat="49.8302" lon="2.27272">
        <ele>110.2</ele>
        <time>2023-04-05T12:48:33Z</time>
      </trkpt>
      <trkpt lat="49.8302" lon="2.27274">
        <ele>110.2</ele>
        <time>2023-04-05T12:48:34Z</time>
      </trkpt>
      <trkpt lat="49.8302" lon="2.27275">
        <ele>110.2</ele>
        <time>2023-04-05T12:48:35Z</time>
      </trkpt>
      <trkpt lat="49.8302" lon="2.27277">
        <ele>110.2</ele>
        <time>2023-04-05T12:48:36Z</time>
      </trkpt>
      <trkpt lat="49.83019" lon="2.27278">
        <ele>110.2</ele>
        <time>2023-04-05T12:48:37Z</time>
      </trkpt>
      <trkpt lat="49.83019" lon="2.27279">
        <ele>110.2</ele>
        <time>2023-04-05T12:48:38Z</time>
      </trkpt>
      <trkpt lat="49.83019" lon="2.27281">
        <ele>110.2</ele>
        <time>2023-04-05T12:48:40Z</time>
      </trkpt>
      <trkpt lat="49.83019" lon="2.27283">
        <ele>110.1</ele>
        <time>2023-04-05T12:48:41Z</time>
      </trkpt>
      <trkpt lat="49.83019" lon="2.27285">
        <ele>110.1</ele>
        <time>2023-04-05T12:48:42Z</time>
      </trkpt>
      <trkpt lat="49.83019" lon="2.27287">
        <ele>110.1</ele>
        <time>2023-04-05T12:48:43Z</time>
      </trkpt>
      <trkpt lat="49.83019" lon="2.27288">
        <ele>110.1</ele>
        <time>2023-04-05T12:48:44Z</time>
      </trkpt>
      <trkpt lat="49.83019" lon="2.27289">
        <ele>110.1</ele>
        <time>2023-04-05T12:48:45Z</time>
      </trkpt>
      <trkpt lat="49.83019" lon="2.27291">
        <ele>110.1</ele>
        <time>2023-04-05T12:48:46Z</time>
      </trkpt>
      <trkpt lat="49.83019" lon="2.27292">
        <ele>110.1</ele>
        <time>2023-04-05T12:48:47Z</time>
      </trkpt>
      <trkpt lat="49.83019" lon="2.27294">
        <ele>110.1</ele>
        <time>2023-04-05T12:48:49Z</time>
      </trkpt>
      <trkpt lat="49.83019" lon="2.27295">
        <ele>110.1</ele>
        <time>2023-04-05T12:48:50Z</time>
      </trkpt>
      <trkpt lat="49.83019" lon="2.27297">
        <ele>110.1</ele>
        <time>2023-04-05T12:48:51Z</time>
      </trkpt>
      <trkpt lat="49.83019" lon="2.27299">
        <ele>110.1</ele>
        <time>2023-04-05T12:48:52Z</time>
      </trkpt>
      <trkpt lat="49.83019" lon="2.27301">
        <ele>110.1</ele>
        <time>2023-04-05T12:48:53Z</time>
      </trkpt>
      <trkpt lat="49.83019" lon="2.27302">
        <ele>110.1</ele>
        <time>2023-04-05T12:48:54Z</time>
      </trkpt>
      <trkpt lat="49.83019" lon="2.27303">
        <ele>110.1</ele>
        <time>2023-04-05T12:48:55Z</time>
      </trkpt>
      <trkpt lat="49.83019" lon="2.27306">
        <ele>110.1</ele>
        <time>2023-04-05T12:48:57Z</time>
      </trkpt>
      <trkpt lat="49.8302" lon="2.27307">
        <ele>110.1</ele>
        <time>2023-04-05T12:48:58Z</time>
      </trkpt>
      <trkpt lat="49.8302" lon="2.27308">
        <ele>110.1</ele>
        <time>2023-04-05T12:48:59Z</time>
      </trkpt>
      <trkpt lat="49.8302" lon="2.2731">
        <ele>110.1</ele>
        <time>2023-04-05T12:49:00Z</time>
      </trkpt>
      <trkpt lat="49.8302" lon="2.27311">
        <ele>110.1</ele>
        <time>2023-04-05T12:49:01Z</time>
      </trkpt>
      <trkpt lat="49.8302" lon="2.27313">
        <ele>110.1</ele>
        <time>2023-04-05T12:49:02Z</time>
      </trkpt>
      <trkpt lat="49.8302" lon="2.27315">
        <ele>110.1</ele>
        <time>2023-04-05T12:49:03Z</time>
      </trkpt>
      <trkpt lat="49.8302" lon="2.27318">
        <ele>110</ele>
        <time>2023-04-05T12:49:05Z</time>
      </trkpt>
      <trkpt lat="49.8302" lon="2.27319">
        <ele>110</ele>
        <time>2023-04-05T12:49:06Z</time>
      </trkpt>
      <trkpt lat="49.8302" lon="2.2732">
        <ele>110</ele>
        <time>2023-04-05T12:49:07Z</time>
      </trkpt>
      <trkpt lat="49.8302" lon="2.27323">
        <ele>110</ele>
        <time>2023-04-05T12:49:08Z</time>
      </trkpt>
      <trkpt lat="49.8302" lon="2.27326">
        <ele>110</ele>
        <time>2023-04-05T12:49:09Z</time>
      </trkpt>
      <trkpt lat="49.8302" lon="2.27328">
        <ele>110</ele>
        <time>2023-04-05T12:49:10Z</time>
      </trkpt>
      <trkpt lat="49.8302" lon="2.27331">
        <ele>110</ele>
        <time>2023-04-05T12:49:11Z</time>
      </trkpt>
      <trkpt lat="49.8302" lon="2.27333">
        <ele>110</ele>
        <time>2023-04-05T12:49:13Z</time>
      </trkpt>
      <trkpt lat="49.8302" lon="2.27335">
        <ele>110</ele>
        <time>2023-04-05T12:49:14Z</time>
      </trkpt>
      <trkpt lat="49.83019" lon="2.27338">
        <ele>110</ele>
        <time>2023-04-05T12:49:15Z</time>
      </trkpt>
      <trkpt lat="49.83019" lon="2.2734">
        <ele>110</ele>
        <time>2023-04-05T12:49:16Z</time>
      </trkpt>
      <trkpt lat="49.83019" lon="2.27343">
        <ele>109.9</ele>
        <time>2023-04-05T12:49:17Z</time>
      </trkpt>
      <trkpt lat="49.83019" lon="2.27345">
        <ele>109.9</ele>
        <time>2023-04-05T12:49:18Z</time>
      </trkpt>
      <trkpt lat="49.83019" lon="2.27347">
        <ele>109.9</ele>
        <time>2023-04-05T12:49:19Z</time>
      </trkpt>
      <trkpt lat="49.83019" lon="2.27349">
        <ele>109.9</ele>
        <time>2023-04-05T12:49:20Z</time>
      </trkpt>
      <trkpt lat="49.83019" lon="2.27351">
        <ele>109.9</ele>
        <time>2023-04-05T12:49:22Z</time>
      </trkpt>
      <trkpt lat="49.83019" lon="2.27353">
        <ele>109.9</ele>
        <time>2023-04-05T12:49:23Z</time>
      </trkpt>
      <trkpt lat="49.83019" lon="2.27354">
        <ele>109.9</ele>
        <time>2023-04-05T12:49:24Z</time>
      </trkpt>
      <trkpt lat="49.83018" lon="2.27357">
        <ele>109.9</ele>
        <time>2023-04-05T12:49:25Z</time>
      </trkpt>
      <trkpt lat="49.83018" lon="2.27359">
        <ele>109.9</ele>
        <time>2023-04-05T12:49:26Z</time>
      </trkpt>
      <trkpt lat="49.83018" lon="2.27361">
        <ele>109.9</ele>
        <time>2023-04-05T12:49:27Z</time>
      </trkpt>
      <trkpt lat="49.83018" lon="2.27363">
        <ele>109.9</ele>
        <time>2023-04-05T12:49:28Z</time>
      </trkpt>
      <trkpt lat="49.83018" lon="2.27366">
        <ele>109.9</ele>
        <time>2023-04-05T12:49:30Z</time>
      </trkpt>
      <trkpt lat="49.83018" lon="2.27367">
        <ele>109.9</ele>
        <time>2023-04-05T12:49:31Z</time>
      </trkpt>
      <trkpt lat="49.83018" lon="2.27368">
        <ele>109.9</ele>
        <time>2023-04-05T12:49:32Z</time>
      </trkpt>
      <trkpt lat="49.83018" lon="2.27369">
        <ele>109.9</ele>
        <time>2023-04-05T12:49:33Z</time>
      </trkpt>
      <trkpt lat="49.83018" lon="2.27371">
        <ele>109.9</ele>
        <time>2023-04-05T12:49:34Z</time>
      </trkpt>
      <trkpt lat="49.83018" lon="2.27373">
        <ele>109.9</ele>
        <time>2023-04-05T12:49:35Z</time>
      </trkpt>
      <trkpt lat="49.83018" lon="2.27375">
        <ele>109.8</ele>
        <time>2023-04-05T12:49:37Z</time>
      </trkpt>
      <trkpt lat="49.83018" lon="2.27376">
        <ele>109.8</ele>
        <time>2023-04-05T12:49:38Z</time>
      </trkpt>
      <trkpt lat="49.83018" lon="2.27377">
        <ele>109.8</ele>
        <time>2023-04-05T12:49:39Z</time>
      </trkpt>
      <trkpt lat="49.83018" lon="2.27379">
        <ele>109.8</ele>
        <time>2023-04-05T12:49:40Z</time>
      </trkpt>
      <trkpt lat="49.83018" lon="2.27381">
        <ele>109.8</ele>
        <time>2023-04-05T12:49:41Z</time>
      </trkpt>
      <trkpt lat="49.83018" lon="2.27384">
        <ele>109.8</ele>
        <time>2023-04-05T12:49:42Z</time>
      </trkpt>
      <trkpt lat="49.83018" lon="2.27386">
        <ele>109.8</ele>
        <time>2023-04-05T12:49:43Z</time>
      </trkpt>
      <trkpt lat="49.83018" lon="2.27387">
        <ele>109.8</ele>
        <time>2023-04-05T12:49:45Z</time>
      </trkpt>
      <trkpt lat="49.83018" lon="2.27388">
        <ele>109.8</ele>
        <time>2023-04-05T12:49:46Z</time>
      </trkpt>
      <trkpt lat="49.83018" lon="2.2739">
        <ele>109.8</ele>
        <time>2023-04-05T12:49:47Z</time>
      </trkpt>
      <trkpt lat="49.83018" lon="2.27391">
        <ele>109.8</ele>
        <time>2023-04-05T12:49:48Z</time>
      </trkpt>
      <trkpt lat="49.83018" lon="2.27392">
        <ele>109.8</ele>
        <time>2023-04-05T12:49:49Z</time>
      </trkpt>
      <trkpt lat="49.83017" lon="2.27394">
        <ele>109.8</ele>
        <time>2023-04-05T12:49:50Z</time>
      </trkpt>
      <trkpt lat="49.83017" lon="2.27395">
        <ele>109.8</ele>
        <time>2023-04-05T12:49:52Z</time>
      </trkpt>
      <trkpt lat="49.83017" lon="2.27397">
        <ele>109.7</ele>
        <time>2023-04-05T12:49:53Z</time>
      </trkpt>
      <trkpt lat="49.83017" lon="2.27399">
        <ele>109.7</ele>
        <time>2023-04-05T12:49:54Z</time>
      </trkpt>
      <trkpt lat="49.83017" lon="2.274">
        <ele>109.7</ele>
        <time>2023-04-05T12:49:55Z</time>
      </trkpt>
      <trkpt lat="49.83017" lon="2.27402">
        <ele>109.7</ele>
        <time>2023-04-05T12:49:56Z</time>
      </trkpt>
      <trkpt lat="49.83017" lon="2.27405">
        <ele>109.7</ele>
        <time>2023-04-05T12:49:57Z</time>
      </trkpt>
      <trkpt lat="49.83017" lon="2.27407">
        <ele>109.7</ele>
        <time>2023-04-05T12:49:58Z</time>
      </trkpt>
      <trkpt lat="49.83017" lon="2.27408">
        <ele>109.7</ele>
        <time>2023-04-05T12:49:59Z</time>
      </trkpt>
      <trkpt lat="49.83017" lon="2.27409">
        <ele>109.7</ele>
        <time>2023-04-05T12:50:00Z</time>
      </trkpt>
      <trkpt lat="49.83017" lon="2.27411">
        <ele>109.7</ele>
        <time>2023-04-05T12:50:01Z</time>
      </trkpt>
      <trkpt lat="49.83017" lon="2.27412">
        <ele>109.7</ele>
        <time>2023-04-05T12:50:02Z</time>
      </trkpt>
      <trkpt lat="49.83017" lon="2.27414">
        <ele>109.7</ele>
        <time>2023-04-05T12:50:03Z</time>
      </trkpt>
      <trkpt lat="49.83016" lon="2.27415">
        <ele>109.7</ele>
        <time>2023-04-05T12:50:05Z</time>
      </trkpt>
      <trkpt lat="49.83016" lon="2.27417">
        <ele>109.6</ele>
        <time>2023-04-05T12:50:06Z</time>
      </trkpt>
      <trkpt lat="49.83016" lon="2.2742">
        <ele>109.6</ele>
        <time>2023-04-05T12:50:07Z</time>
      </trkpt>
      <trkpt lat="49.83016" lon="2.27422">
        <ele>109.6</ele>
        <time>2023-04-05T12:50:08Z</time>
      </trkpt>
      <trkpt lat="49.83016" lon="2.27424">
        <ele>109.6</ele>
        <time>2023-04-05T12:50:09Z</time>
      </trkpt>
      <trkpt lat="49.83016" lon="2.27426">
        <ele>109.6</ele>
        <time>2023-04-05T12:50:10Z</time>
      </trkpt>
      <trkpt lat="49.83016" lon="2.27429">
        <ele>109.6</ele>
        <time>2023-04-05T12:50:11Z</time>
      </trkpt>
      <trkpt lat="49.83016" lon="2.27432">
        <ele>109.5</ele>
        <time>2023-04-05T12:50:12Z</time>
      </trkpt>
      <trkpt lat="49.83016" lon="2.27434">
        <ele>109.5</ele>
        <time>2023-04-05T12:50:13Z</time>
      </trkpt>
      <trkpt lat="49.83016" lon="2.27437">
        <ele>109.5</ele>
        <time>2023-04-05T12:50:14Z</time>
      </trkpt>
      <trkpt lat="49.83016" lon="2.27438">
        <ele>109.5</ele>
        <time>2023-04-05T12:50:15Z</time>
      </trkpt>
      <trkpt lat="49.83016" lon="2.2744">
        <ele>109.5</ele>
        <time>2023-04-05T12:50:17Z</time>
      </trkpt>
      <trkpt lat="49.83016" lon="2.27441">
        <ele>109.5</ele>
        <time>2023-04-05T12:50:18Z</time>
      </trkpt>
      <trkpt lat="49.83016" lon="2.27444">
        <ele>109.4</ele>
        <time>2023-04-05T12:50:19Z</time>
      </trkpt>
      <trkpt lat="49.83016" lon="2.27446">
        <ele>109.4</ele>
        <time>2023-04-05T12:50:20Z</time>
      </trkpt>
      <trkpt lat="49.83016" lon="2.27447">
        <ele>109.4</ele>
        <time>2023-04-05T12:50:21Z</time>
      </trkpt>
      <trkpt lat="49.83016" lon="2.27449">
        <ele>109.4</ele>
        <time>2023-04-05T12:50:22Z</time>
      </trkpt>
      <trkpt lat="49.83016" lon="2.27451">
        <ele>109.4</ele>
        <time>2023-04-05T12:50:23Z</time>
      </trkpt>
      <trkpt lat="49.83016" lon="2.27453">
        <ele>109.4</ele>
        <time>2023-04-05T12:50:25Z</time>
      </trkpt>
      <trkpt lat="49.83016" lon="2.27456">
        <ele>109.4</ele>
        <time>2023-04-05T12:50:26Z</time>
      </trkpt>
      <trkpt lat="49.83016" lon="2.27457">
        <ele>109.4</ele>
        <time>2023-04-05T12:50:27Z</time>
      </trkpt>
      <trkpt lat="49.83016" lon="2.27458">
        <ele>109.3</ele>
        <time>2023-04-05T12:50:28Z</time>
      </trkpt>
      <trkpt lat="49.83016" lon="2.27459">
        <ele>109.3</ele>
        <time>2023-04-05T12:50:29Z</time>
      </trkpt>
      <trkpt lat="49.83016" lon="2.27461">
        <ele>109.3</ele>
        <time>2023-04-05T12:50:30Z</time>
      </trkpt>
      <trkpt lat="49.83016" lon="2.27462">
        <ele>109.3</ele>
        <time>2023-04-05T12:50:31Z</time>
      </trkpt>
      <trkpt lat="49.83016" lon="2.27464">
        <ele>109.3</ele>
        <time>2023-04-05T12:50:32Z</time>
      </trkpt>
      <trkpt lat="49.83017" lon="2.27467">
        <ele>109.3</ele>
        <time>2023-04-05T12:50:33Z</time>
      </trkpt>
      <trkpt lat="49.83017" lon="2.27468">
        <ele>109.3</ele>
        <time>2023-04-05T12:50:35Z</time>
      </trkpt>
      <trkpt lat="49.83018" lon="2.2747">
        <ele>109.3</ele>
        <time>2023-04-05T12:50:36Z</time>
      </trkpt>
      <trkpt lat="49.83019" lon="2.27472">
        <ele>109.2</ele>
        <time>2023-04-05T12:50:37Z</time>
      </trkpt>
      <trkpt lat="49.8302" lon="2.27473">
        <ele>109.2</ele>
        <time>2023-04-05T12:50:38Z</time>
      </trkpt>
      <trkpt lat="49.8302" lon="2.27475">
        <ele>109.2</ele>
        <time>2023-04-05T12:50:39Z</time>
      </trkpt>
      <trkpt lat="49.8302" lon="2.27478">
        <ele>109.2</ele>
        <time>2023-04-05T12:50:40Z</time>
      </trkpt>
      <trkpt lat="49.8302" lon="2.27479">
        <ele>109.2</ele>
        <time>2023-04-05T12:50:41Z</time>
      </trkpt>
      <trkpt lat="49.8302" lon="2.2748">
        <ele>109.2</ele>
        <time>2023-04-05T12:50:42Z</time>
      </trkpt>
      <trkpt lat="49.8302" lon="2.27484">
        <ele>109.2</ele>
        <time>2023-04-05T12:50:43Z</time>
      </trkpt>
      <trkpt lat="49.8302" lon="2.27485">
        <ele>109.1</ele>
        <time>2023-04-05T12:50:45Z</time>
      </trkpt>
      <trkpt lat="49.8302" lon="2.27486">
        <ele>109.1</ele>
        <time>2023-04-05T12:50:46Z</time>
      </trkpt>
      <trkpt lat="49.8302" lon="2.27488">
        <ele>109.1</ele>
        <time>2023-04-05T12:50:47Z</time>
      </trkpt>
      <trkpt lat="49.8302" lon="2.27489">
        <ele>109.1</ele>
        <time>2023-04-05T12:50:48Z</time>
      </trkpt>
      <trkpt lat="49.83021" lon="2.27491">
        <ele>109.1</ele>
        <time>2023-04-05T12:50:49Z</time>
      </trkpt>
      <trkpt lat="49.83022" lon="2.27494">
        <ele>109.1</ele>
        <time>2023-04-05T12:50:51Z</time>
      </trkpt>
      <trkpt lat="49.83022" lon="2.27496">
        <ele>109.1</ele>
        <time>2023-04-05T12:50:52Z</time>
      </trkpt>
      <trkpt lat="49.83023" lon="2.27499">
        <ele>109</ele>
        <time>2023-04-05T12:50:53Z</time>
      </trkpt>
      <trkpt lat="49.83023" lon="2.27501">
        <ele>109</ele>
        <time>2023-04-05T12:50:54Z</time>
      </trkpt>
      <trkpt lat="49.83023" lon="2.27502">
        <ele>109</ele>
        <time>2023-04-05T12:50:55Z</time>
      </trkpt>
      <trkpt lat="49.83023" lon="2.27505">
        <ele>109</ele>
        <time>2023-04-05T12:50:56Z</time>
      </trkpt>
      <trkpt lat="49.83023" lon="2.27506">
        <ele>109</ele>
        <time>2023-04-05T12:50:57Z</time>
      </trkpt>
      <trkpt lat="49.83023" lon="2.27507">
        <ele>109</ele>
        <time>2023-04-05T12:50:58Z</time>
      </trkpt>
      <trkpt lat="49.83024" lon="2.27509">
        <ele>109</ele>
        <time>2023-04-05T12:50:59Z</time>
      </trkpt>
      <trkpt lat="49.83024" lon="2.27512">
        <ele>109</ele>
        <time>2023-04-05T12:51:00Z</time>
      </trkpt>
      <trkpt lat="49.83025" lon="2.27514">
        <ele>109</ele>
        <time>2023-04-05T12:51:02Z</time>
      </trkpt>
      <trkpt lat="49.83025" lon="2.27516">
        <ele>109</ele>
        <time>2023-04-05T12:51:03Z</time>
      </trkpt>
      <trkpt lat="49.83025" lon="2.27518">
        <ele>108.9</ele>
        <time>2023-04-05T12:51:04Z</time>
      </trkpt>
      <trkpt lat="49.83026" lon="2.27521">
        <ele>108.9</ele>
        <time>2023-04-05T12:51:05Z</time>
      </trkpt>
      <trkpt lat="49.83026" lon="2.27522">
        <ele>108.9</ele>
        <time>2023-04-05T12:51:06Z</time>
      </trkpt>
      <trkpt lat="49.83027" lon="2.27526">
        <ele>108.9</ele>
        <time>2023-04-05T12:51:08Z</time>
      </trkpt>
      <trkpt lat="49.83028" lon="2.27528">
        <ele>108.9</ele>
        <time>2023-04-05T12:51:10Z</time>
      </trkpt>
      <trkpt lat="49.83028" lon="2.27529">
        <ele>108.9</ele>
        <time>2023-04-05T12:51:11Z</time>
      </trkpt>
      <trkpt lat="49.83028" lon="2.27531">
        <ele>108.9</ele>
        <time>2023-04-05T12:51:12Z</time>
      </trkpt>
      <trkpt lat="49.83028" lon="2.27533">
        <ele>108.9</ele>
        <time>2023-04-05T12:51:13Z</time>
      </trkpt>
      <trkpt lat="49.83029" lon="2.27536">
        <ele>108.8</ele>
        <time>2023-04-05T12:51:14Z</time>
      </trkpt>
      <trkpt lat="49.83029" lon="2.27538">
        <ele>108.8</ele>
        <time>2023-04-05T12:51:15Z</time>
      </trkpt>
      <trkpt lat="49.8303" lon="2.2754">
        <ele>108.8</ele>
        <time>2023-04-05T12:51:17Z</time>
      </trkpt>
      <trkpt lat="49.8303" lon="2.27543">
        <ele>108.8</ele>
        <time>2023-04-05T12:51:18Z</time>
      </trkpt>
      <trkpt lat="49.83031" lon="2.27545">
        <ele>108.8</ele>
        <time>2023-04-05T12:51:19Z</time>
      </trkpt>
      <trkpt lat="49.83031" lon="2.27547">
        <ele>108.8</ele>
        <time>2023-04-05T12:51:20Z</time>
      </trkpt>
      <trkpt lat="49.83031" lon="2.27549">
        <ele>108.8</ele>
        <time>2023-04-05T12:51:21Z</time>
      </trkpt>
      <trkpt lat="49.83031" lon="2.27551">
        <ele>108.7</ele>
        <time>2023-04-05T12:51:23Z</time>
      </trkpt>
      <trkpt lat="49.83032" lon="2.27554">
        <ele>108.7</ele>
        <time>2023-04-05T12:51:24Z</time>
      </trkpt>
      <trkpt lat="49.83033" lon="2.27555">
        <ele>108.7</ele>
        <time>2023-04-05T12:51:25Z</time>
      </trkpt>
      <trkpt lat="49.83033" lon="2.27556">
        <ele>108.7</ele>
        <time>2023-04-05T12:51:26Z</time>
      </trkpt>
      <trkpt lat="49.83034" lon="2.2756">
        <ele>108.7</ele>
        <time>2023-04-05T12:51:27Z</time>
      </trkpt>
      <trkpt lat="49.83034" lon="2.27561">
        <ele>108.7</ele>
        <time>2023-04-05T12:51:28Z</time>
      </trkpt>
      <trkpt lat="49.83034" lon="2.27562">
        <ele>108.6</ele>
        <time>2023-04-05T12:51:29Z</time>
      </trkpt>
      <trkpt lat="49.83035" lon="2.27565">
        <ele>108.6</ele>
        <time>2023-04-05T12:51:30Z</time>
      </trkpt>
      <trkpt lat="49.83035" lon="2.27567">
        <ele>108.6</ele>
        <time>2023-04-05T12:51:31Z</time>
      </trkpt>
      <trkpt lat="49.83036" lon="2.27568">
        <ele>108.6</ele>
        <time>2023-04-05T12:51:33Z</time>
      </trkpt>
      <trkpt lat="49.83036" lon="2.2757">
        <ele>108.6</ele>
        <time>2023-04-05T12:51:34Z</time>
      </trkpt>
      <trkpt lat="49.83037" lon="2.27572">
        <ele>108.6</ele>
        <time>2023-04-05T12:51:35Z</time>
      </trkpt>
      <trkpt lat="49.83037" lon="2.27575">
        <ele>108.5</ele>
        <time>2023-04-05T12:51:36Z</time>
      </trkpt>
      <trkpt lat="49.83037" lon="2.27576">
        <ele>108.5</ele>
        <time>2023-04-05T12:51:37Z</time>
      </trkpt>
      <trkpt lat="49.83038" lon="2.27578">
        <ele>108.5</ele>
        <time>2023-04-05T12:51:38Z</time>
      </trkpt>
      <trkpt lat="49.83038" lon="2.2758">
        <ele>108.5</ele>
        <time>2023-04-05T12:51:39Z</time>
      </trkpt>
      <trkpt lat="49.83038" lon="2.27581">
        <ele>108.5</ele>
        <time>2023-04-05T12:51:40Z</time>
      </trkpt>
      <trkpt lat="49.83039" lon="2.27583">
        <ele>108.4</ele>
        <time>2023-04-05T12:51:41Z</time>
      </trkpt>
      <trkpt lat="49.83039" lon="2.27585">
        <ele>108.4</ele>
        <time>2023-04-05T12:51:42Z</time>
      </trkpt>
      <trkpt lat="49.8304" lon="2.27587">
        <ele>108.4</ele>
        <time>2023-04-05T12:51:43Z</time>
      </trkpt>
      <trkpt lat="49.8304" lon="2.27588">
        <ele>108.4</ele>
        <time>2023-04-05T12:51:45Z</time>
      </trkpt>
      <trkpt lat="49.83041" lon="2.27591">
        <ele>108.4</ele>
        <time>2023-04-05T12:51:46Z</time>
      </trkpt>
      <trkpt lat="49.83042" lon="2.27593">
        <ele>108.3</ele>
        <time>2023-04-05T12:51:47Z</time>
      </trkpt>
      <trkpt lat="49.83042" lon="2.27594">
        <ele>108.3</ele>
        <time>2023-04-05T12:51:48Z</time>
      </trkpt>
      <trkpt lat="49.83043" lon="2.27597">
        <ele>108.3</ele>
        <time>2023-04-05T12:51:49Z</time>
      </trkpt>
      <trkpt lat="49.83043" lon="2.27598">
        <ele>108.3</ele>
        <time>2023-04-05T12:51:50Z</time>
      </trkpt>
      <trkpt lat="49.83044" lon="2.27599">
        <ele>108.3</ele>
        <time>2023-04-05T12:51:51Z</time>
      </trkpt>
      <trkpt lat="49.83044" lon="2.276">
        <ele>108.2</ele>
        <time>2023-04-05T12:51:52Z</time>
      </trkpt>
      <trkpt lat="49.83044" lon="2.27602">
        <ele>108.2</ele>
        <time>2023-04-05T12:51:53Z</time>
      </trkpt>
      <trkpt lat="49.83045" lon="2.27604">
        <ele>108.2</ele>
        <time>2023-04-05T12:51:55Z</time>
      </trkpt>
      <trkpt lat="49.83046" lon="2.27607">
        <ele>108.2</ele>
        <time>2023-04-05T12:51:56Z</time>
      </trkpt>
      <trkpt lat="49.83046" lon="2.27609">
        <ele>108.1</ele>
        <time>2023-04-05T12:51:57Z</time>
      </trkpt>
      <trkpt lat="49.83047" lon="2.27611">
        <ele>108.1</ele>
        <time>2023-04-05T12:51:58Z</time>
      </trkpt>
      <trkpt lat="49.83048" lon="2.27613">
        <ele>108.1</ele>
        <time>2023-04-05T12:52:00Z</time>
      </trkpt>
      <trkpt lat="49.83048" lon="2.27614">
        <ele>108.1</ele>
        <time>2023-04-05T12:52:01Z</time>
      </trkpt>
      <trkpt lat="49.83049" lon="2.27614">
        <ele>108</ele>
        <time>2023-04-05T12:52:02Z</time>
      </trkpt>
      <trkpt lat="49.83049" lon="2.27614">
        <ele>108</ele>
        <time>2023-04-05T12:52:04Z</time>
      </trkpt>
      <trkpt lat="49.83049" lon="2.27614">
        <ele>108</ele>
        <time>2023-04-05T12:52:05Z</time>
      </trkpt>
      <trkpt lat="49.83049" lon="2.27614">
        <ele>108</ele>
        <time>2023-04-05T12:52:07Z</time>
      </trkpt>
      <trkpt lat="49.83049" lon="2.27614">
        <ele>108</ele>
        <time>2023-04-05T12:52:08Z</time>
      </trkpt>
      <trkpt lat="49.83049" lon="2.27614">
        <ele>108</ele>
        <time>2023-04-05T12:52:10Z</time>
      </trkpt>
      <trkpt lat="49.83049" lon="2.27614">
        <ele>108</ele>
        <time>2023-04-05T12:52:11Z</time>
      </trkpt>
      <trkpt lat="49.83049" lon="2.27614">
        <ele>108</ele>
        <time>2023-04-05T12:52:13Z</time>
      </trkpt>
      <trkpt lat="49.83049" lon="2.27613">
        <ele>108</ele>
        <time>2023-04-05T12:52:14Z</time>
      </trkpt>
      <trkpt lat="49.83048" lon="2.27613">
        <ele>108</ele>
        <time>2023-04-05T12:52:15Z</time>
      </trkpt>
      <trkpt lat="49.83048" lon="2.27613">
        <ele>108</ele>
        <time>2023-04-05T12:52:17Z</time>
      </trkpt>
      <trkpt lat="49.83048" lon="2.27613">
        <ele>108</ele>
        <time>2023-04-05T12:52:18Z</time>
      </trkpt>
      <trkpt lat="49.83048" lon="2.27613">
        <ele>108</ele>
        <time>2023-04-05T12:52:20Z</time>
      </trkpt>
      <trkpt lat="49.83048" lon="2.27613">
        <ele>108</ele>
        <time>2023-04-05T12:52:21Z</time>
      </trkpt>
      <trkpt lat="49.83048" lon="2.27613">
        <ele>108</ele>
        <time>2023-04-05T12:52:22Z</time>
      </trkpt>
      <trkpt lat="49.83048" lon="2.27613">
        <ele>108</ele>
        <time>2023-04-05T12:52:23Z</time>
      </trkpt>
      <trkpt lat="49.83048" lon="2.27612">
        <ele>108</ele>
        <time>2023-04-05T12:52:24Z</time>
      </trkpt>
      <trkpt lat="49.83048" lon="2.27612">
        <ele>108</ele>
        <time>2023-04-05T12:52:25Z</time>
      </trkpt>
      <trkpt lat="49.83048" lon="2.27612">
        <ele>108</ele>
        <time>2023-04-05T12:52:26Z</time>
      </trkpt>
      <trkpt lat="49.83048" lon="2.27612">
        <ele>108</ele>
        <time>2023-04-05T12:52:27Z</time>
      </trkpt>
      <trkpt lat="49.83048" lon="2.27612">
        <ele>108</ele>
        <time>2023-04-05T12:52:28Z</time>
      </trkpt>
      <trkpt lat="49.83048" lon="2.27612">
        <ele>108</ele>
        <time>2023-04-05T12:52:29Z</time>
      </trkpt>
      <trkpt lat="49.83048" lon="2.27612">
        <ele>108</ele>
        <time>2023-04-05T12:52:30Z</time>
      </trkpt>
      <trkpt lat="49.83048" lon="2.27612">
        <ele>108</ele>
        <time>2023-04-05T12:52:31Z</time>
      </trkpt>
      <trkpt lat="49.83048" lon="2.27611">
        <ele>108</ele>
        <time>2023-04-05T12:52:32Z</time>
      </trkpt>
      <trkpt lat="49.83048" lon="2.27611">
        <ele>108</ele>
        <time>2023-04-05T12:52:33Z</time>
      </trkpt>
      <trkpt lat="49.83048" lon="2.27611">
        <ele>108</ele>
        <time>2023-04-05T12:52:34Z</time>
      </trkpt>
      <trkpt lat="49.83048" lon="2.27611">
        <ele>108</ele>
        <time>2023-04-05T12:52:35Z</time>
      </trkpt>
      <trkpt lat="49.83048" lon="2.27611">
        <ele>108</ele>
        <time>2023-04-05T12:52:36Z</time>
      </trkpt>
      <trkpt lat="49.83048" lon="2.27611">
        <ele>108</ele>
        <time>2023-04-05T12:52:37Z</time>
      </trkpt>
      <trkpt lat="49.83048" lon="2.27611">
        <ele>108</ele>
        <time>2023-04-05T12:52:38Z</time>
      </trkpt>
      <trkpt lat="49.83047" lon="2.27611">
        <ele>108</ele>
        <time>2023-04-05T12:52:39Z</time>
      </trkpt>
      <trkpt lat="49.83047" lon="2.2761">
        <ele>108</ele>
        <time>2023-04-05T12:52:40Z</time>
      </trkpt>
      <trkpt lat="49.83047" lon="2.2761">
        <ele>108</ele>
        <time>2023-04-05T12:52:41Z</time>
      </trkpt>
      <trkpt lat="49.83047" lon="2.2761">
        <ele>108</ele>
        <time>2023-04-05T12:52:42Z</time>
      </trkpt>
      <trkpt lat="49.83047" lon="2.2761">
        <ele>108</ele>
        <time>2023-04-05T12:52:43Z</time>
      </trkpt>
      <trkpt lat="49.83047" lon="2.2761">
        <ele>108</ele>
        <time>2023-04-05T12:52:44Z</time>
      </trkpt>
      <trkpt lat="49.83047" lon="2.2761">
        <ele>108</ele>
        <time>2023-04-05T12:52:45Z</time>
      </trkpt>
      <trkpt lat="49.83047" lon="2.2761">
        <ele>108</ele>
        <time>2023-04-05T12:52:46Z</time>
      </trkpt>
      <trkpt lat="49.83047" lon="2.2761">
        <ele>108</ele>
        <time>2023-04-05T12:52:47Z</time>
      </trkpt>
      <trkpt lat="49.83047" lon="2.27609">
        <ele>108</ele>
        <time>2023-04-05T12:52:48Z</time>
      </trkpt>
      <trkpt lat="49.83047" lon="2.27609">
        <ele>108</ele>
        <time>2023-04-05T12:52:49Z</time>
      </trkpt>
      <trkpt lat="49.83047" lon="2.27609">
        <ele>108</ele>
        <time>2023-04-05T12:52:50Z</time>
      </trkpt>
      <trkpt lat="49.83047" lon="2.27609">
        <ele>108</ele>
        <time>2023-04-05T12:52:51Z</time>
      </trkpt>
      <trkpt lat="49.83047" lon="2.27609">
        <ele>108</ele>
        <time>2023-04-05T12:52:52Z</time>
      </trkpt>
      <trkpt lat="49.83047" lon="2.27609">
        <ele>108</ele>
        <time>2023-04-05T12:52:53Z</time>
      </trkpt>
      <trkpt lat="49.83047" lon="2.27609">
        <ele>108</ele>
        <time>2023-04-05T12:52:54Z</time>
      </trkpt>
      <trkpt lat="49.83047" lon="2.27609">
        <ele>108</ele>
        <time>2023-04-05T12:52:55Z</time>
      </trkpt>
      <trkpt lat="49.83047" lon="2.27608">
        <ele>108</ele>
        <time>2023-04-05T12:52:56Z</time>
      </trkpt>
      <trkpt lat="49.83047" lon="2.27608">
        <ele>108</ele>
        <time>2023-04-05T12:52:57Z</time>
      </trkpt>
      <trkpt lat="49.83047" lon="2.27608">
        <ele>107.9</ele>
        <time>2023-04-05T12:52:58Z</time>
      </trkpt>
      <trkpt lat="49.83047" lon="2.27608">
        <ele>107.9</ele>
        <time>2023-04-05T12:52:59Z</time>
      </trkpt>
      <trkpt lat="49.83047" lon="2.27608">
        <ele>107.9</ele>
        <time>2023-04-05T12:53:00Z</time>
      </trkpt>
      <trkpt lat="49.83047" lon="2.27608">
        <ele>107.9</ele>
        <time>2023-04-05T12:53:01Z</time>
      </trkpt>
      <trkpt lat="49.83046" lon="2.27608">
        <ele>107.9</ele>
        <time>2023-04-05T12:53:02Z</time>
      </trkpt>
      <trkpt lat="49.83046" lon="2.27608">
        <ele>107.9</ele>
        <time>2023-04-05T12:53:03Z</time>
      </trkpt>
      <trkpt lat="49.83046" lon="2.27607">
        <ele>107.9</ele>
        <time>2023-04-05T12:53:04Z</time>
      </trkpt>
      <trkpt lat="49.83046" lon="2.27607">
        <ele>107.9</ele>
        <time>2023-04-05T12:53:05Z</time>
      </trkpt>
      <trkpt lat="49.83046" lon="2.27607">
        <ele>107.9</ele>
        <time>2023-04-05T12:53:06Z</time>
      </trkpt>
      <trkpt lat="49.83046" lon="2.27607">
        <ele>107.9</ele>
        <time>2023-04-05T12:53:07Z</time>
      </trkpt>
      <trkpt lat="49.83046" lon="2.27607">
        <ele>107.9</ele>
        <time>2023-04-05T12:53:08Z</time>
      </trkpt>
      <trkpt lat="49.83046" lon="2.27607">
        <ele>107.9</ele>
        <time>2023-04-05T12:53:09Z</time>
      </trkpt>
      <trkpt lat="49.83046" lon="2.27607">
        <ele>107.9</ele>
        <time>2023-04-05T12:53:10Z</time>
      </trkpt>
      <trkpt lat="49.83046" lon="2.27607">
        <ele>107.9</ele>
        <time>2023-04-05T12:53:11Z</time>
      </trkpt>
      <trkpt lat="49.83046" lon="2.27606">
        <ele>107.9</ele>
        <time>2023-04-05T12:53:12Z</time>
      </trkpt>
      <trkpt lat="49.83046" lon="2.27606">
        <ele>107.9</ele>
        <time>2023-04-05T12:53:13Z</time>
      </trkpt>
      <trkpt lat="49.83046" lon="2.27606">
        <ele>107.9</ele>
        <time>2023-04-05T12:53:14Z</time>
      </trkpt>
      <trkpt lat="49.83046" lon="2.27607">
        <ele>107.9</ele>
        <time>2023-04-05T12:53:15Z</time>
      </trkpt>
      <trkpt lat="49.83046" lon="2.27608">
        <ele>107.9</ele>
        <time>2023-04-05T12:53:16Z</time>
      </trkpt>
      <trkpt lat="49.83046" lon="2.27609">
        <ele>107.9</ele>
        <time>2023-04-05T12:53:17Z</time>
      </trkpt>
      <trkpt lat="49.83047" lon="2.2761">
        <ele>107.9</ele>
        <time>2023-04-05T12:53:18Z</time>
      </trkpt>
      <trkpt lat="49.83047" lon="2.27611">
        <ele>107.9</ele>
        <time>2023-04-05T12:53:19Z</time>
      </trkpt>
      <trkpt lat="49.83047" lon="2.27612">
        <ele>107.9</ele>
        <time>2023-04-05T12:53:20Z</time>
      </trkpt>
      <trkpt lat="49.83049" lon="2.27616">
        <ele>107.8</ele>
        <time>2023-04-05T12:53:21Z</time>
      </trkpt>
      <trkpt lat="49.8305" lon="2.27618">
        <ele>107.8</ele>
        <time>2023-04-05T12:53:22Z</time>
      </trkpt>
      <trkpt lat="49.83052" lon="2.2762">
        <ele>107.8</ele>
        <time>2023-04-05T12:53:24Z</time>
      </trkpt>
      <trkpt lat="49.83053" lon="2.27622">
        <ele>107.8</ele>
        <time>2023-04-05T12:53:25Z</time>
      </trkpt>
      <trkpt lat="49.83054" lon="2.27623">
        <ele>107.8</ele>
        <time>2023-04-05T12:53:26Z</time>
      </trkpt>
      <trkpt lat="49.83055" lon="2.27624">
        <ele>107.8</ele>
        <time>2023-04-05T12:53:27Z</time>
      </trkpt>
      <trkpt lat="49.83057" lon="2.27624">
        <ele>107.9</ele>
        <time>2023-04-05T12:53:28Z</time>
      </trkpt>
      <trkpt lat="49.83059" lon="2.27624">
        <ele>107.9</ele>
        <time>2023-04-05T12:53:29Z</time>
      </trkpt>
      <trkpt lat="49.8306" lon="2.27624">
        <ele>107.9</ele>
        <time>2023-04-05T12:53:30Z</time>
      </trkpt>
      <trkpt lat="49.83061" lon="2.27624">
        <ele>107.9</ele>
        <time>2023-04-05T12:53:31Z</time>
      </trkpt>
      <trkpt lat="49.83061" lon="2.27624">
        <ele>107.9</ele>
        <time>2023-04-05T12:53:33Z</time>
      </trkpt>
      <trkpt lat="49.83062" lon="2.27623">
        <ele>107.9</ele>
        <time>2023-04-05T12:53:34Z</time>
      </trkpt>
      <trkpt lat="49.83063" lon="2.27623">
        <ele>107.9</ele>
        <time>2023-04-05T12:53:35Z</time>
      </trkpt>
      <trkpt lat="49.83064" lon="2.27622">
        <ele>107.9</ele>
        <time>2023-04-05T12:53:36Z</time>
      </trkpt>
      <trkpt lat="49.83066" lon="2.27621">
        <ele>107.9</ele>
        <time>2023-04-05T12:53:37Z</time>
      </trkpt>
      <trkpt lat="49.83067" lon="2.27621">
        <ele>107.9</ele>
        <time>2023-04-05T12:53:38Z</time>
      </trkpt>
      <trkpt lat="49.83068" lon="2.2762">
        <ele>107.9</ele>
        <time>2023-04-05T12:53:39Z</time>
      </trkpt>
      <trkpt lat="49.83069" lon="2.27619">
        <ele>107.9</ele>
        <time>2023-04-05T12:53:40Z</time>
      </trkpt>
      <trkpt lat="49.83071" lon="2.27618">
        <ele>108</ele>
        <time>2023-04-05T12:53:42Z</time>
      </trkpt>
      <trkpt lat="49.83072" lon="2.27618">
        <ele>108</ele>
        <time>2023-04-05T12:53:43Z</time>
      </trkpt>
      <trkpt lat="49.83073" lon="2.27617">
        <ele>108</ele>
        <time>2023-04-05T12:53:44Z</time>
      </trkpt>
      <trkpt lat="49.83074" lon="2.27616">
        <ele>108</ele>
        <time>2023-04-05T12:53:45Z</time>
      </trkpt>
      <trkpt lat="49.83075" lon="2.27616">
        <ele>108</ele>
        <time>2023-04-05T12:53:46Z</time>
      </trkpt>
      <trkpt lat="49.83076" lon="2.27615">
        <ele>108</ele>
        <time>2023-04-05T12:53:47Z</time>
      </trkpt>
      <trkpt lat="49.83077" lon="2.27615">
        <ele>108</ele>
        <time>2023-04-05T12:53:48Z</time>
      </trkpt>
      <trkpt lat="49.83078" lon="2.27614">
        <ele>108</ele>
        <time>2023-04-05T12:53:49Z</time>
      </trkpt>
      <trkpt lat="49.8308" lon="2.27613">
        <ele>108</ele>
        <time>2023-04-05T12:53:51Z</time>
      </trkpt>
      <trkpt lat="49.83081" lon="2.27612">
        <ele>108</ele>
        <time>2023-04-05T12:53:52Z</time>
      </trkpt>
      <trkpt lat="49.83083" lon="2.27611">
        <ele>108.1</ele>
        <time>2023-04-05T12:53:53Z</time>
      </trkpt>
      <trkpt lat="49.83084" lon="2.27611">
        <ele>108.1</ele>
        <time>2023-04-05T12:53:54Z</time>
      </trkpt>
      <trkpt lat="49.83085" lon="2.27611">
        <ele>108.1</ele>
        <time>2023-04-05T12:53:55Z</time>
      </trkpt>
      <trkpt lat="49.83087" lon="2.2761">
        <ele>108.1</ele>
        <time>2023-04-05T12:53:56Z</time>
      </trkpt>
      <trkpt lat="49.83088" lon="2.27609">
        <ele>108.1</ele>
        <time>2023-04-05T12:53:57Z</time>
      </trkpt>
      <trkpt lat="49.83089" lon="2.27609">
        <ele>108.1</ele>
        <time>2023-04-05T12:53:58Z</time>
      </trkpt>
      <trkpt lat="49.8309" lon="2.27608">
        <ele>108.1</ele>
        <time>2023-04-05T12:53:59Z</time>
      </trkpt>
      <trkpt lat="49.83092" lon="2.27607">
        <ele>108.1</ele>
        <time>2023-04-05T12:54:01Z</time>
      </trkpt>
      <trkpt lat="49.83093" lon="2.27607">
        <ele>108.1</ele>
        <time>2023-04-05T12:54:02Z</time>
      </trkpt>
      <trkpt lat="49.83095" lon="2.27607">
        <ele>108.1</ele>
        <time>2023-04-05T12:54:03Z</time>
      </trkpt>
      <trkpt lat="49.83097" lon="2.27606">
        <ele>108.1</ele>
        <time>2023-04-05T12:54:04Z</time>
      </trkpt>
      <trkpt lat="49.83098" lon="2.27605">
        <ele>108.2</ele>
        <time>2023-04-05T12:54:05Z</time>
      </trkpt>
      <trkpt lat="49.831" lon="2.27605">
        <ele>108.2</ele>
        <time>2023-04-05T12:54:06Z</time>
      </trkpt>
      <trkpt lat="49.83101" lon="2.27604">
        <ele>108.2</ele>
        <time>2023-04-05T12:54:07Z</time>
      </trkpt>
      <trkpt lat="49.83103" lon="2.27604">
        <ele>108.2</ele>
        <time>2023-04-05T12:54:09Z</time>
      </trkpt>
      <trkpt lat="49.83105" lon="2.27604">
        <ele>108.2</ele>
        <time>2023-04-05T12:54:10Z</time>
      </trkpt>
      <trkpt lat="49.83106" lon="2.27603">
        <ele>108.2</ele>
        <time>2023-04-05T12:54:11Z</time>
      </trkpt>
      <trkpt lat="49.83108" lon="2.27603">
        <ele>108.2</ele>
        <time>2023-04-05T12:54:13Z</time>
      </trkpt>
      <trkpt lat="49.83108" lon="2.27603">
        <ele>108.2</ele>
        <time>2023-04-05T12:54:14Z</time>
      </trkpt>
      <trkpt lat="49.83111" lon="2.27602">
        <ele>108.2</ele>
        <time>2023-04-05T12:54:15Z</time>
      </trkpt>
      <trkpt lat="49.83112" lon="2.27602">
        <ele>108.2</ele>
        <time>2023-04-05T12:54:16Z</time>
      </trkpt>
      <trkpt lat="49.83114" lon="2.27601">
        <ele>108.2</ele>
        <time>2023-04-05T12:54:18Z</time>
      </trkpt>
      <trkpt lat="49.83115" lon="2.276">
        <ele>108.2</ele>
        <time>2023-04-05T12:54:19Z</time>
      </trkpt>
      <trkpt lat="49.83116" lon="2.276">
        <ele>108.2</ele>
        <time>2023-04-05T12:54:20Z</time>
      </trkpt>
      <trkpt lat="49.83117" lon="2.27599">
        <ele>108.2</ele>
        <time>2023-04-05T12:54:21Z</time>
      </trkpt>
      <trkpt lat="49.83118" lon="2.27598">
        <ele>108.3</ele>
        <time>2023-04-05T12:54:22Z</time>
      </trkpt>
      <trkpt lat="49.8312" lon="2.27598">
        <ele>108.3</ele>
        <time>2023-04-05T12:54:23Z</time>
      </trkpt>
      <trkpt lat="49.83121" lon="2.27597">
        <ele>108.3</ele>
        <time>2023-04-05T12:54:24Z</time>
      </trkpt>
      <trkpt lat="49.83122" lon="2.27597">
        <ele>108.3</ele>
        <time>2023-04-05T12:54:25Z</time>
      </trkpt>
      <trkpt lat="49.83123" lon="2.27597">
        <ele>108.3</ele>
        <time>2023-04-05T12:54:26Z</time>
      </trkpt>
      <trkpt lat="49.83124" lon="2.27597">
        <ele>108.3</ele>
        <time>2023-04-05T12:54:27Z</time>
      </trkpt>
      <trkpt lat="49.83126" lon="2.27596">
        <ele>108.3</ele>
        <time>2023-04-05T12:54:28Z</time>
      </trkpt>
      <trkpt lat="49.83127" lon="2.27596">
        <ele>108.3</ele>
        <time>2023-04-05T12:54:30Z</time>
      </trkpt>
      <trkpt lat="49.83128" lon="2.27596">
        <ele>108.3</ele>
        <time>2023-04-05T12:54:31Z</time>
      </trkpt>
      <trkpt lat="49.83129" lon="2.27596">
        <ele>108.3</ele>
        <time>2023-04-05T12:54:32Z</time>
      </trkpt>
      <trkpt lat="49.8313" lon="2.27596">
        <ele>108.3</ele>
        <time>2023-04-05T12:54:33Z</time>
      </trkpt>
      <trkpt lat="49.83131" lon="2.27596">
        <ele>108.3</ele>
        <time>2023-04-05T12:54:34Z</time>
      </trkpt>
      <trkpt lat="49.83134" lon="2.27596">
        <ele>108.3</ele>
        <time>2023-04-05T12:54:36Z</time>
      </trkpt>
      <trkpt lat="49.83135" lon="2.27596">
        <ele>108.3</ele>
        <time>2023-04-05T12:54:37Z</time>
      </trkpt>
      <trkpt lat="49.83136" lon="2.27595">
        <ele>108.3</ele>
        <time>2023-04-05T12:54:38Z</time>
      </trkpt>
      <trkpt lat="49.83137" lon="2.27595">
        <ele>108.3</ele>
        <time>2023-04-05T12:54:39Z</time>
      </trkpt>
      <trkpt lat="49.83137" lon="2.27595">
        <ele>108.3</ele>
        <time>2023-04-05T12:54:40Z</time>
      </trkpt>
      <trkpt lat="49.83138" lon="2.27596">
        <ele>108.3</ele>
        <time>2023-04-05T12:54:41Z</time>
      </trkpt>
      <trkpt lat="49.83139" lon="2.27596">
        <ele>108.3</ele>
        <time>2023-04-05T12:54:42Z</time>
      </trkpt>
      <trkpt lat="49.8314" lon="2.27596">
        <ele>108.3</ele>
        <time>2023-04-05T12:54:44Z</time>
      </trkpt>
      <trkpt lat="49.83141" lon="2.27596">
        <ele>108.3</ele>
        <time>2023-04-05T12:54:45Z</time>
      </trkpt>
      <trkpt lat="49.83142" lon="2.27595">
        <ele>108.3</ele>
        <time>2023-04-05T12:54:46Z</time>
      </trkpt>
      <trkpt lat="49.83144" lon="2.27595">
        <ele>108.3</ele>
        <time>2023-04-05T12:54:47Z</time>
      </trkpt>
      <trkpt lat="49.83145" lon="2.27595">
        <ele>108.3</ele>
        <time>2023-04-05T12:54:48Z</time>
      </trkpt>
      <trkpt lat="49.83147" lon="2.27594">
        <ele>108.3</ele>
        <time>2023-04-05T12:54:50Z</time>
      </trkpt>
      <trkpt lat="49.83148" lon="2.27594">
        <ele>108.3</ele>
        <time>2023-04-05T12:54:51Z</time>
      </trkpt>
      <trkpt lat="49.8315" lon="2.27593">
        <ele>108.3</ele>
        <time>2023-04-05T12:54:52Z</time>
      </trkpt>
      <trkpt lat="49.83152" lon="2.27593">
        <ele>108.3</ele>
        <time>2023-04-05T12:54:53Z</time>
      </trkpt>
      <trkpt lat="49.83154" lon="2.27592">
        <ele>108.3</ele>
        <time>2023-04-05T12:54:54Z</time>
      </trkpt>
      <trkpt lat="49.83155" lon="2.27591">
        <ele>108.3</ele>
        <time>2023-04-05T12:54:56Z</time>
      </trkpt>
      <trkpt lat="49.83156" lon="2.27591">
        <ele>108.3</ele>
        <time>2023-04-05T12:54:57Z</time>
      </trkpt>
      <trkpt lat="49.83157" lon="2.27591">
        <ele>108.3</ele>
        <time>2023-04-05T12:54:58Z</time>
      </trkpt>
      <trkpt lat="49.83159" lon="2.2759">
        <ele>108.3</ele>
        <time>2023-04-05T12:54:59Z</time>
      </trkpt>
      <trkpt lat="49.8316" lon="2.27589">
        <ele>108.3</ele>
        <time>2023-04-05T12:55:00Z</time>
      </trkpt>
      <trkpt lat="49.83161" lon="2.27589">
        <ele>108.3</ele>
        <time>2023-04-05T12:55:01Z</time>
      </trkpt>
      <trkpt lat="49.83162" lon="2.27589">
        <ele>108.3</ele>
        <time>2023-04-05T12:55:02Z</time>
      </trkpt>
      <trkpt lat="49.83163" lon="2.27589">
        <ele>108.3</ele>
        <time>2023-04-05T12:55:03Z</time>
      </trkpt>
      <trkpt lat="49.83164" lon="2.27589">
        <ele>108.3</ele>
        <time>2023-04-05T12:55:04Z</time>
      </trkpt>
      <trkpt lat="49.83165" lon="2.27589">
        <ele>108.3</ele>
        <time>2023-04-05T12:55:05Z</time>
      </trkpt>
      <trkpt lat="49.83166" lon="2.27588">
        <ele>108.3</ele>
        <time>2023-04-05T12:55:07Z</time>
      </trkpt>
      <trkpt lat="49.83167" lon="2.27589">
        <ele>108.3</ele>
        <time>2023-04-05T12:55:08Z</time>
      </trkpt>
      <trkpt lat="49.8317" lon="2.27588">
        <ele>108.2</ele>
        <time>2023-04-05T12:55:09Z</time>
      </trkpt>
      <trkpt lat="49.8317" lon="2.27588">
        <ele>108.2</ele>
        <time>2023-04-05T12:55:10Z</time>
      </trkpt>
      <trkpt lat="49.83171" lon="2.27588">
        <ele>108.2</ele>
        <time>2023-04-05T12:55:11Z</time>
      </trkpt>
      <trkpt lat="49.83173" lon="2.27587">
        <ele>108.2</ele>
        <time>2023-04-05T12:55:13Z</time>
      </trkpt>
      <trkpt lat="49.83174" lon="2.27587">
        <ele>108.2</ele>
        <time>2023-04-05T12:55:14Z</time>
      </trkpt>
      <trkpt lat="49.83175" lon="2.27588">
        <ele>108.2</ele>
        <time>2023-04-05T12:55:15Z</time>
      </trkpt>
      <trkpt lat="49.83176" lon="2.27588">
        <ele>108.2</ele>
        <time>2023-04-05T12:55:16Z</time>
      </trkpt>
      <trkpt lat="49.83178" lon="2.27587">
        <ele>108.2</ele>
        <time>2023-04-05T12:55:17Z</time>
      </trkpt>
      <trkpt lat="49.83179" lon="2.27587">
        <ele>108.2</ele>
        <time>2023-04-05T12:55:18Z</time>
      </trkpt>
      <trkpt lat="49.83181" lon="2.27587">
        <ele>108.2</ele>
        <time>2023-04-05T12:55:19Z</time>
      </trkpt>
      <trkpt lat="49.83183" lon="2.27586">
        <ele>108.2</ele>
        <time>2023-04-05T12:55:20Z</time>
      </trkpt>
      <trkpt lat="49.83184" lon="2.27586">
        <ele>108.2</ele>
        <time>2023-04-05T12:55:21Z</time>
      </trkpt>
      <trkpt lat="49.83186" lon="2.27586">
        <ele>108.2</ele>
        <time>2023-04-05T12:55:22Z</time>
      </trkpt>
      <trkpt lat="49.83187" lon="2.27585">
        <ele>108.2</ele>
        <time>2023-04-05T12:55:24Z</time>
      </trkpt>
      <trkpt lat="49.83188" lon="2.27585">
        <ele>108.2</ele>
        <time>2023-04-05T12:55:25Z</time>
      </trkpt>
      <trkpt lat="49.83189" lon="2.27585">
        <ele>108.2</ele>
        <time>2023-04-05T12:55:26Z</time>
      </trkpt>
      <trkpt lat="49.8319" lon="2.27585">
        <ele>108.1</ele>
        <time>2023-04-05T12:55:27Z</time>
      </trkpt>
      <trkpt lat="49.83192" lon="2.27585">
        <ele>108.1</ele>
        <time>2023-04-05T12:55:28Z</time>
      </trkpt>
      <trkpt lat="49.83193" lon="2.27584">
        <ele>108.1</ele>
        <time>2023-04-05T12:55:30Z</time>
      </trkpt>
      <trkpt lat="49.83194" lon="2.27584">
        <ele>108.1</ele>
        <time>2023-04-05T12:55:31Z</time>
      </trkpt>
      <trkpt lat="49.83195" lon="2.27584">
        <ele>108.1</ele>
        <time>2023-04-05T12:55:32Z</time>
      </trkpt>
      <trkpt lat="49.83196" lon="2.27584">
        <ele>108.1</ele>
        <time>2023-04-05T12:55:33Z</time>
      </trkpt>
      <trkpt lat="49.83198" lon="2.27583">
        <ele>108.1</ele>
        <time>2023-04-05T12:55:34Z</time>
      </trkpt>
      <trkpt lat="49.83199" lon="2.27583">
        <ele>108.1</ele>
        <time>2023-04-05T12:55:35Z</time>
      </trkpt>
      <trkpt lat="49.832" lon="2.27583">
        <ele>108.1</ele>
        <time>2023-04-05T12:55:36Z</time>
      </trkpt>
      <trkpt lat="49.83201" lon="2.27583">
        <ele>108.1</ele>
        <time>2023-04-05T12:55:37Z</time>
      </trkpt>
      <trkpt lat="49.83202" lon="2.27583">
        <ele>108.1</ele>
        <time>2023-04-05T12:55:38Z</time>
      </trkpt>
      <trkpt lat="49.83205" lon="2.27583">
        <ele>108.1</ele>
        <time>2023-04-05T12:55:39Z</time>
      </trkpt>
      <trkpt lat="49.83206" lon="2.27583">
        <ele>108.1</ele>
        <time>2023-04-05T12:55:41Z</time>
      </trkpt>
      <trkpt lat="49.83207" lon="2.27583">
        <ele>108.1</ele>
        <time>2023-04-05T12:55:42Z</time>
      </trkpt>
      <trkpt lat="49.83208" lon="2.27583">
        <ele>108.1</ele>
        <time>2023-04-05T12:55:43Z</time>
      </trkpt>
      <trkpt lat="49.83209" lon="2.27582">
        <ele>108.1</ele>
        <time>2023-04-05T12:55:44Z</time>
      </trkpt>
      <trkpt lat="49.83211" lon="2.27582">
        <ele>108.1</ele>
        <time>2023-04-05T12:55:45Z</time>
      </trkpt>
      <trkpt lat="49.83213" lon="2.27582">
        <ele>108.1</ele>
        <time>2023-04-05T12:55:46Z</time>
      </trkpt>
      <trkpt lat="49.83214" lon="2.27583">
        <ele>108.1</ele>
        <time>2023-04-05T12:55:47Z</time>
      </trkpt>
      <trkpt lat="49.83214" lon="2.27583">
        <ele>108</ele>
        <time>2023-04-05T12:55:48Z</time>
      </trkpt>
      <trkpt lat="49.83215" lon="2.27583">
        <ele>108</ele>
        <time>2023-04-05T12:55:49Z</time>
      </trkpt>
      <trkpt lat="49.83217" lon="2.27583">
        <ele>108</ele>
        <time>2023-04-05T12:55:50Z</time>
      </trkpt>
      <trkpt lat="49.83218" lon="2.27583">
        <ele>108</ele>
        <time>2023-04-05T12:55:51Z</time>
      </trkpt>
      <trkpt lat="49.8322" lon="2.27583">
        <ele>108</ele>
        <time>2023-04-05T12:55:53Z</time>
      </trkpt>
      <trkpt lat="49.83221" lon="2.27583">
        <ele>108</ele>
        <time>2023-04-05T12:55:54Z</time>
      </trkpt>
      <trkpt lat="49.83222" lon="2.27583">
        <ele>108</ele>
        <time>2023-04-05T12:55:55Z</time>
      </trkpt>
      <trkpt lat="49.83223" lon="2.27583">
        <ele>108</ele>
        <time>2023-04-05T12:55:56Z</time>
      </trkpt>
      <trkpt lat="49.83226" lon="2.27583">
        <ele>108</ele>
        <time>2023-04-05T12:55:57Z</time>
      </trkpt>
      <trkpt lat="49.83227" lon="2.27584">
        <ele>108</ele>
        <time>2023-04-05T12:55:59Z</time>
      </trkpt>
      <trkpt lat="49.83228" lon="2.27584">
        <ele>108</ele>
        <time>2023-04-05T12:56:00Z</time>
      </trkpt>
      <trkpt lat="49.83229" lon="2.27584">
        <ele>108</ele>
        <time>2023-04-05T12:56:01Z</time>
      </trkpt>
      <trkpt lat="49.8323" lon="2.27584">
        <ele>108</ele>
        <time>2023-04-05T12:56:02Z</time>
      </trkpt>
      <trkpt lat="49.83231" lon="2.27584">
        <ele>108</ele>
        <time>2023-04-05T12:56:03Z</time>
      </trkpt>
      <trkpt lat="49.83232" lon="2.27584">
        <ele>108</ele>
        <time>2023-04-05T12:56:04Z</time>
      </trkpt>
      <trkpt lat="49.83233" lon="2.27584">
        <ele>108</ele>
        <time>2023-04-05T12:56:05Z</time>
      </trkpt>
      <trkpt lat="49.83235" lon="2.27584">
        <ele>108</ele>
        <time>2023-04-05T12:56:06Z</time>
      </trkpt>
      <trkpt lat="49.83236" lon="2.27583">
        <ele>108</ele>
        <time>2023-04-05T12:56:07Z</time>
      </trkpt>
      <trkpt lat="49.83237" lon="2.27583">
        <ele>108</ele>
        <time>2023-04-05T12:56:08Z</time>
      </trkpt>
      <trkpt lat="49.83238" lon="2.27583">
        <ele>108</ele>
        <time>2023-04-05T12:56:09Z</time>
      </trkpt>
      <trkpt lat="49.8324" lon="2.27583">
        <ele>108</ele>
        <time>2023-04-05T12:56:10Z</time>
      </trkpt>
      <trkpt lat="49.83242" lon="2.27583">
        <ele>108</ele>
        <time>2023-04-05T12:56:12Z</time>
      </trkpt>
      <trkpt lat="49.83243" lon="2.27583">
        <ele>108</ele>
        <time>2023-04-05T12:56:13Z</time>
      </trkpt>
      <trkpt lat="49.83244" lon="2.27583">
        <ele>108</ele>
        <time>2023-04-05T12:56:14Z</time>
      </trkpt>
      <trkpt lat="49.83245" lon="2.27583">
        <ele>108</ele>
        <time>2023-04-05T12:56:15Z</time>
      </trkpt>
      <trkpt lat="49.83246" lon="2.27583">
        <ele>108.1</ele>
        <time>2023-04-05T12:56:16Z</time>
      </trkpt>
      <trkpt lat="49.83247" lon="2.27583">
        <ele>108.1</ele>
        <time>2023-04-05T12:56:17Z</time>
      </trkpt>
      <trkpt lat="49.83248" lon="2.27582">
        <ele>108.1</ele>
        <time>2023-04-05T12:56:18Z</time>
      </trkpt>
      <trkpt lat="49.8325" lon="2.27583">
        <ele>108.1</ele>
        <time>2023-04-05T12:56:20Z</time>
      </trkpt>
      <trkpt lat="49.83251" lon="2.27583">
        <ele>108.1</ele>
        <time>2023-04-05T12:56:21Z</time>
      </trkpt>
      <trkpt lat="49.83252" lon="2.27583">
        <ele>108.1</ele>
        <time>2023-04-05T12:56:22Z</time>
      </trkpt>
      <trkpt lat="49.83254" lon="2.27583">
        <ele>108.1</ele>
        <time>2023-04-05T12:56:23Z</time>
      </trkpt>
      <trkpt lat="49.83255" lon="2.27584">
        <ele>108.1</ele>
        <time>2023-04-05T12:56:24Z</time>
      </trkpt>
      <trkpt lat="49.83257" lon="2.27584">
        <ele>108.1</ele>
        <time>2023-04-05T12:56:25Z</time>
      </trkpt>
      <trkpt lat="49.83259" lon="2.27584">
        <ele>108.1</ele>
        <time>2023-04-05T12:56:26Z</time>
      </trkpt>
      <trkpt lat="49.8326" lon="2.27584">
        <ele>108.1</ele>
        <time>2023-04-05T12:56:27Z</time>
      </trkpt>
      <trkpt lat="49.83261" lon="2.27584">
        <ele>108.1</ele>
        <time>2023-04-05T12:56:28Z</time>
      </trkpt>
      <trkpt lat="49.83263" lon="2.27584">
        <ele>108.1</ele>
        <time>2023-04-05T12:56:29Z</time>
      </trkpt>
      <trkpt lat="49.83264" lon="2.27584">
        <ele>108.1</ele>
        <time>2023-04-05T12:56:31Z</time>
      </trkpt>
      <trkpt lat="49.83265" lon="2.27584">
        <ele>108.1</ele>
        <time>2023-04-05T12:56:32Z</time>
      </trkpt>
      <trkpt lat="49.83266" lon="2.27584">
        <ele>108.1</ele>
        <time>2023-04-05T12:56:33Z</time>
      </trkpt>
      <trkpt lat="49.83268" lon="2.27585">
        <ele>108.1</ele>
        <time>2023-04-05T12:56:34Z</time>
      </trkpt>
      <trkpt lat="49.83269" lon="2.27585">
        <ele>108.1</ele>
        <time>2023-04-05T12:56:35Z</time>
      </trkpt>
      <trkpt lat="49.8327" lon="2.27585">
        <ele>108.1</ele>
        <time>2023-04-05T12:56:36Z</time>
      </trkpt>
      <trkpt lat="49.83272" lon="2.27586">
        <ele>108.1</ele>
        <time>2023-04-05T12:56:38Z</time>
      </trkpt>
      <trkpt lat="49.83273" lon="2.27586">
        <ele>108.1</ele>
        <time>2023-04-05T12:56:39Z</time>
      </trkpt>
      <trkpt lat="49.83273" lon="2.27586">
        <ele>108.1</ele>
        <time>2023-04-05T12:56:40Z</time>
      </trkpt>
      <trkpt lat="49.83275" lon="2.27586">
        <ele>108.1</ele>
        <time>2023-04-05T12:56:41Z</time>
      </trkpt>
      <trkpt lat="49.83276" lon="2.27586">
        <ele>108.1</ele>
        <time>2023-04-05T12:56:42Z</time>
      </trkpt>
      <trkpt lat="49.83278" lon="2.27586">
        <ele>108.1</ele>
        <time>2023-04-05T12:56:44Z</time>
      </trkpt>
      <trkpt lat="49.83279" lon="2.27585">
        <ele>108.1</ele>
        <time>2023-04-05T12:56:45Z</time>
      </trkpt>
      <trkpt lat="49.8328" lon="2.27585">
        <ele>108.1</ele>
        <time>2023-04-05T12:56:46Z</time>
      </trkpt>
      <trkpt lat="49.83281" lon="2.27585">
        <ele>108.1</ele>
        <time>2023-04-05T12:56:47Z</time>
      </trkpt>
      <trkpt lat="49.83282" lon="2.27585">
        <ele>108.1</ele>
        <time>2023-04-05T12:56:48Z</time>
      </trkpt>
      <trkpt lat="49.83284" lon="2.27585">
        <ele>108.1</ele>
        <time>2023-04-05T12:56:49Z</time>
      </trkpt>
      <trkpt lat="49.83286" lon="2.27586">
        <ele>108.1</ele>
        <time>2023-04-05T12:56:51Z</time>
      </trkpt>
      <trkpt lat="49.83287" lon="2.27586">
        <ele>108.1</ele>
        <time>2023-04-05T12:56:52Z</time>
      </trkpt>
      <trkpt lat="49.83288" lon="2.27586">
        <ele>108.1</ele>
        <time>2023-04-05T12:56:53Z</time>
      </trkpt>
      <trkpt lat="49.8329" lon="2.27586">
        <ele>108.1</ele>
        <time>2023-04-05T12:56:54Z</time>
      </trkpt>
      <trkpt lat="49.8329" lon="2.27586">
        <ele>108.1</ele>
        <time>2023-04-05T12:56:55Z</time>
      </trkpt>
      <trkpt lat="49.83291" lon="2.27586">
        <ele>108.1</ele>
        <time>2023-04-05T12:56:56Z</time>
      </trkpt>
      <trkpt lat="49.83293" lon="2.27586">
        <ele>108.1</ele>
        <time>2023-04-05T12:56:57Z</time>
      </trkpt>
      <trkpt lat="49.83294" lon="2.27586">
        <ele>108.1</ele>
        <time>2023-04-05T12:56:58Z</time>
      </trkpt>
      <trkpt lat="49.83295" lon="2.27586">
        <ele>108.2</ele>
        <time>2023-04-05T12:57:00Z</time>
      </trkpt>
      <trkpt lat="49.83297" lon="2.27586">
        <ele>108.2</ele>
        <time>2023-04-05T12:57:01Z</time>
      </trkpt>
      <trkpt lat="49.83298" lon="2.27586">
        <ele>108.2</ele>
        <time>2023-04-05T12:57:02Z</time>
      </trkpt>
      <trkpt lat="49.83299" lon="2.27586">
        <ele>108.2</ele>
        <time>2023-04-05T12:57:03Z</time>
      </trkpt>
      <trkpt lat="49.833" lon="2.27587">
        <ele>108.2</ele>
        <time>2023-04-05T12:57:04Z</time>
      </trkpt>
      <trkpt lat="49.83301" lon="2.27587">
        <ele>108.2</ele>
        <time>2023-04-05T12:57:05Z</time>
      </trkpt>
      <trkpt lat="49.83302" lon="2.27587">
        <ele>108.2</ele>
        <time>2023-04-05T12:57:07Z</time>
      </trkpt>
      <trkpt lat="49.83304" lon="2.27587">
        <ele>108.2</ele>
        <time>2023-04-05T12:57:08Z</time>
      </trkpt>
      <trkpt lat="49.83305" lon="2.27587">
        <ele>108.2</ele>
        <time>2023-04-05T12:57:09Z</time>
      </trkpt>
      <trkpt lat="49.83306" lon="2.27587">
        <ele>108.2</ele>
        <time>2023-04-05T12:57:10Z</time>
      </trkpt>
      <trkpt lat="49.83306" lon="2.27587">
        <ele>108.2</ele>
        <time>2023-04-05T12:57:11Z</time>
      </trkpt>
      <trkpt lat="49.83308" lon="2.27588">
        <ele>108.2</ele>
        <time>2023-04-05T12:57:12Z</time>
      </trkpt>
      <trkpt lat="49.83309" lon="2.27588">
        <ele>108.2</ele>
        <time>2023-04-05T12:57:13Z</time>
      </trkpt>
      <trkpt lat="49.8331" lon="2.27588">
        <ele>108.2</ele>
        <time>2023-04-05T12:57:14Z</time>
      </trkpt>
      <trkpt lat="49.83311" lon="2.27589">
        <ele>108.2</ele>
        <time>2023-04-05T12:57:15Z</time>
      </trkpt>
      <trkpt lat="49.83313" lon="2.27589">
        <ele>108.2</ele>
        <time>2023-04-05T12:57:16Z</time>
      </trkpt>
      <trkpt lat="49.83314" lon="2.27589">
        <ele>108.2</ele>
        <time>2023-04-05T12:57:17Z</time>
      </trkpt>
      <trkpt lat="49.83315" lon="2.27589">
        <ele>108.2</ele>
        <time>2023-04-05T12:57:19Z</time>
      </trkpt>
      <trkpt lat="49.83316" lon="2.27589">
        <ele>108.2</ele>
        <time>2023-04-05T12:57:20Z</time>
      </trkpt>
      <trkpt lat="49.83318" lon="2.27589">
        <ele>108.2</ele>
        <time>2023-04-05T12:57:21Z</time>
      </trkpt>
      <trkpt lat="49.83319" lon="2.27589">
        <ele>108.2</ele>
        <time>2023-04-05T12:57:22Z</time>
      </trkpt>
      <trkpt lat="49.8332" lon="2.27589">
        <ele>108.2</ele>
        <time>2023-04-05T12:57:23Z</time>
      </trkpt>
      <trkpt lat="49.83322" lon="2.27588">
        <ele>108.2</ele>
        <time>2023-04-05T12:57:25Z</time>
      </trkpt>
      <trkpt lat="49.83323" lon="2.27588">
        <ele>108.2</ele>
        <time>2023-04-05T12:57:26Z</time>
      </trkpt>
      <trkpt lat="49.83323" lon="2.27588">
        <ele>108.2</ele>
        <time>2023-04-05T12:57:27Z</time>
      </trkpt>
      <trkpt lat="49.83326" lon="2.27588">
        <ele>108.2</ele>
        <time>2023-04-05T12:57:28Z</time>
      </trkpt>
      <trkpt lat="49.83326" lon="2.27588">
        <ele>108.2</ele>
        <time>2023-04-05T12:57:29Z</time>
      </trkpt>
      <trkpt lat="49.83327" lon="2.27588">
        <ele>108.2</ele>
        <time>2023-04-05T12:57:30Z</time>
      </trkpt>
      <trkpt lat="49.83329" lon="2.27587">
        <ele>108.2</ele>
        <time>2023-04-05T12:57:32Z</time>
      </trkpt>
      <trkpt lat="49.8333" lon="2.27587">
        <ele>108.3</ele>
        <time>2023-04-05T12:57:33Z</time>
      </trkpt>
      <trkpt lat="49.83331" lon="2.27587">
        <ele>108.3</ele>
        <time>2023-04-05T12:57:34Z</time>
      </trkpt>
      <trkpt lat="49.83333" lon="2.27587">
        <ele>108.3</ele>
        <time>2023-04-05T12:57:35Z</time>
      </trkpt>
      <trkpt lat="49.83334" lon="2.27587">
        <ele>108.3</ele>
        <time>2023-04-05T12:57:36Z</time>
      </trkpt>
      <trkpt lat="49.83336" lon="2.27587">
        <ele>108.3</ele>
        <time>2023-04-05T12:57:37Z</time>
      </trkpt>
      <trkpt lat="49.83337" lon="2.27588">
        <ele>108.3</ele>
        <time>2023-04-05T12:57:38Z</time>
      </trkpt>
      <trkpt lat="49.83339" lon="2.27588">
        <ele>108.3</ele>
        <time>2023-04-05T12:57:39Z</time>
      </trkpt>
      <trkpt lat="49.8334" lon="2.27588">
        <ele>108.3</ele>
        <time>2023-04-05T12:57:40Z</time>
      </trkpt>
      <trkpt lat="49.83343" lon="2.27589">
        <ele>108.3</ele>
        <time>2023-04-05T12:57:41Z</time>
      </trkpt>
      <trkpt lat="49.83343" lon="2.27589">
        <ele>108.3</ele>
        <time>2023-04-05T12:57:43Z</time>
      </trkpt>
      <trkpt lat="49.83344" lon="2.27589">
        <ele>108.3</ele>
        <time>2023-04-05T12:57:44Z</time>
      </trkpt>
      <trkpt lat="49.83347" lon="2.27589">
        <ele>108.3</ele>
        <time>2023-04-05T12:57:45Z</time>
      </trkpt>
      <trkpt lat="49.83347" lon="2.27589">
        <ele>108.4</ele>
        <time>2023-04-05T12:57:46Z</time>
      </trkpt>
      <trkpt lat="49.83348" lon="2.27589">
        <ele>108.4</ele>
        <time>2023-04-05T12:57:47Z</time>
      </trkpt>
      <trkpt lat="49.83349" lon="2.27589">
        <ele>108.4</ele>
        <time>2023-04-05T12:57:48Z</time>
      </trkpt>
      <trkpt lat="49.83351" lon="2.2759">
        <ele>108.4</ele>
        <time>2023-04-05T12:57:50Z</time>
      </trkpt>
      <trkpt lat="49.83352" lon="2.2759">
        <ele>108.4</ele>
        <time>2023-04-05T12:57:51Z</time>
      </trkpt>
      <trkpt lat="49.83353" lon="2.2759">
        <ele>108.4</ele>
        <time>2023-04-05T12:57:52Z</time>
      </trkpt>
      <trkpt lat="49.83354" lon="2.2759">
        <ele>108.4</ele>
        <time>2023-04-05T12:57:53Z</time>
      </trkpt>
      <trkpt lat="49.83355" lon="2.2759">
        <ele>108.4</ele>
        <time>2023-04-05T12:57:54Z</time>
      </trkpt>
      <trkpt lat="49.83357" lon="2.2759">
        <ele>108.4</ele>
        <time>2023-04-05T12:57:56Z</time>
      </trkpt>
      <trkpt lat="49.83358" lon="2.2759">
        <ele>108.4</ele>
        <time>2023-04-05T12:57:57Z</time>
      </trkpt>
      <trkpt lat="49.83359" lon="2.2759">
        <ele>108.4</ele>
        <time>2023-04-05T12:57:58Z</time>
      </trkpt>
      <trkpt lat="49.83361" lon="2.27591">
        <ele>108.4</ele>
        <time>2023-04-05T12:57:59Z</time>
      </trkpt>
      <trkpt lat="49.83362" lon="2.27591">
        <ele>108.4</ele>
        <time>2023-04-05T12:58:00Z</time>
      </trkpt>
      <trkpt lat="49.83364" lon="2.27591">
        <ele>108.5</ele>
        <time>2023-04-05T12:58:02Z</time>
      </trkpt>
      <trkpt lat="49.83365" lon="2.27591">
        <ele>108.5</ele>
        <time>2023-04-05T12:58:04Z</time>
      </trkpt>
      <trkpt lat="49.83366" lon="2.27591">
        <ele>108.5</ele>
        <time>2023-04-05T12:58:05Z</time>
      </trkpt>
      <trkpt lat="49.83368" lon="2.27591">
        <ele>108.5</ele>
        <time>2023-04-05T12:58:06Z</time>
      </trkpt>
      <trkpt lat="49.83369" lon="2.27591">
        <ele>108.5</ele>
        <time>2023-04-05T12:58:08Z</time>
      </trkpt>
      <trkpt lat="49.83371" lon="2.27591">
        <ele>108.5</ele>
        <time>2023-04-05T12:58:09Z</time>
      </trkpt>
      <trkpt lat="49.83372" lon="2.27591">
        <ele>108.5</ele>
        <time>2023-04-05T12:58:10Z</time>
      </trkpt>
      <trkpt lat="49.83373" lon="2.27591">
        <ele>108.5</ele>
        <time>2023-04-05T12:58:11Z</time>
      </trkpt>
      <trkpt lat="49.83376" lon="2.27591">
        <ele>108.6</ele>
        <time>2023-04-05T12:58:12Z</time>
      </trkpt>
      <trkpt lat="49.83376" lon="2.27591">
        <ele>108.6</ele>
        <time>2023-04-05T12:58:13Z</time>
      </trkpt>
      <trkpt lat="49.83377" lon="2.27591">
        <ele>108.6</ele>
        <time>2023-04-05T12:58:14Z</time>
      </trkpt>
      <trkpt lat="49.83379" lon="2.27591">
        <ele>108.6</ele>
        <time>2023-04-05T12:58:15Z</time>
      </trkpt>
      <trkpt lat="49.8338" lon="2.27591">
        <ele>108.6</ele>
        <time>2023-04-05T12:58:16Z</time>
      </trkpt>
      <trkpt lat="49.83381" lon="2.27591">
        <ele>108.6</ele>
        <time>2023-04-05T12:58:17Z</time>
      </trkpt>
      <trkpt lat="49.83382" lon="2.2759">
        <ele>108.6</ele>
        <time>2023-04-05T12:58:19Z</time>
      </trkpt>
      <trkpt lat="49.83384" lon="2.2759">
        <ele>108.7</ele>
        <time>2023-04-05T12:58:20Z</time>
      </trkpt>
      <trkpt lat="49.83385" lon="2.2759">
        <ele>108.7</ele>
        <time>2023-04-05T12:58:21Z</time>
      </trkpt>
      <trkpt lat="49.83387" lon="2.2759">
        <ele>108.7</ele>
        <time>2023-04-05T12:58:22Z</time>
      </trkpt>
      <trkpt lat="49.83388" lon="2.27591">
        <ele>108.7</ele>
        <time>2023-04-05T12:58:23Z</time>
      </trkpt>
      <trkpt lat="49.8339" lon="2.27591">
        <ele>108.7</ele>
        <time>2023-04-05T12:58:25Z</time>
      </trkpt>
      <trkpt lat="49.83391" lon="2.27591">
        <ele>108.7</ele>
        <time>2023-04-05T12:58:26Z</time>
      </trkpt>
      <trkpt lat="49.83393" lon="2.27591">
        <ele>108.7</ele>
        <time>2023-04-05T12:58:27Z</time>
      </trkpt>
      <trkpt lat="49.83394" lon="2.27591">
        <ele>108.7</ele>
        <time>2023-04-05T12:58:28Z</time>
      </trkpt>
      <trkpt lat="49.83395" lon="2.27592">
        <ele>108.8</ele>
        <time>2023-04-05T12:58:29Z</time>
      </trkpt>
      <trkpt lat="49.83397" lon="2.27592">
        <ele>108.8</ele>
        <time>2023-04-05T12:58:31Z</time>
      </trkpt>
      <trkpt lat="49.83398" lon="2.27592">
        <ele>108.8</ele>
        <time>2023-04-05T12:58:32Z</time>
      </trkpt>
      <trkpt lat="49.83399" lon="2.27592">
        <ele>108.8</ele>
        <time>2023-04-05T12:58:33Z</time>
      </trkpt>
      <trkpt lat="49.83402" lon="2.27591">
        <ele>108.8</ele>
        <time>2023-04-05T12:58:34Z</time>
      </trkpt>
      <trkpt lat="49.83403" lon="2.27591">
        <ele>108.8</ele>
        <time>2023-04-05T12:58:36Z</time>
      </trkpt>
      <trkpt lat="49.83404" lon="2.27591">
        <ele>108.8</ele>
        <time>2023-04-05T12:58:37Z</time>
      </trkpt>
      <trkpt lat="49.83405" lon="2.27591">
        <ele>108.8</ele>
        <time>2023-04-05T12:58:38Z</time>
      </trkpt>
      <trkpt lat="49.83406" lon="2.27591">
        <ele>108.8</ele>
        <time>2023-04-05T12:58:39Z</time>
      </trkpt>
      <trkpt lat="49.83407" lon="2.27591">
        <ele>108.8</ele>
        <time>2023-04-05T12:58:40Z</time>
      </trkpt>
      <trkpt lat="49.83408" lon="2.27591">
        <ele>108.8</ele>
        <time>2023-04-05T12:58:41Z</time>
      </trkpt>
      <trkpt lat="49.83409" lon="2.27591">
        <ele>108.8</ele>
        <time>2023-04-05T12:58:43Z</time>
      </trkpt>
      <trkpt lat="49.83411" lon="2.27591">
        <ele>108.9</ele>
        <time>2023-04-05T12:58:44Z</time>
      </trkpt>
      <trkpt lat="49.83412" lon="2.27591">
        <ele>108.9</ele>
        <time>2023-04-05T12:58:45Z</time>
      </trkpt>
      <trkpt lat="49.83415" lon="2.27591">
        <ele>108.9</ele>
        <time>2023-04-05T12:58:46Z</time>
      </trkpt>
      <trkpt lat="49.83416" lon="2.27591">
        <ele>108.9</ele>
        <time>2023-04-05T12:58:48Z</time>
      </trkpt>
      <trkpt lat="49.83417" lon="2.27591">
        <ele>108.9</ele>
        <time>2023-04-05T12:58:49Z</time>
      </trkpt>
      <trkpt lat="49.83418" lon="2.27591">
        <ele>108.9</ele>
        <time>2023-04-05T12:58:50Z</time>
      </trkpt>
      <trkpt lat="49.83419" lon="2.27591">
        <ele>108.9</ele>
        <time>2023-04-05T12:58:51Z</time>
      </trkpt>
      <trkpt lat="49.83421" lon="2.27591">
        <ele>108.9</ele>
        <time>2023-04-05T12:58:52Z</time>
      </trkpt>
      <trkpt lat="49.83422" lon="2.27592">
        <ele>109</ele>
        <time>2023-04-05T12:58:53Z</time>
      </trkpt>
      <trkpt lat="49.83422" lon="2.27593">
        <ele>109</ele>
        <time>2023-04-05T12:58:54Z</time>
      </trkpt>
      <trkpt lat="49.83423" lon="2.27594">
        <ele>109</ele>
        <time>2023-04-05T12:58:56Z</time>
      </trkpt>
      <trkpt lat="49.83425" lon="2.27595">
        <ele>109</ele>
        <time>2023-04-05T12:58:57Z</time>
      </trkpt>
      <trkpt lat="49.83426" lon="2.27596">
        <ele>109</ele>
        <time>2023-04-05T12:58:58Z</time>
      </trkpt>
      <trkpt lat="49.83428" lon="2.27597">
        <ele>109</ele>
        <time>2023-04-05T12:58:59Z</time>
      </trkpt>
      <trkpt lat="49.8343" lon="2.27597">
        <ele>109</ele>
        <time>2023-04-05T12:59:00Z</time>
      </trkpt>
      <trkpt lat="49.83431" lon="2.27597">
        <ele>109</ele>
        <time>2023-04-05T12:59:02Z</time>
      </trkpt>
      <trkpt lat="49.83432" lon="2.27597">
        <ele>109.1</ele>
        <time>2023-04-05T12:59:03Z</time>
      </trkpt>
      <trkpt lat="49.83434" lon="2.27597">
        <ele>109.1</ele>
        <time>2023-04-05T12:59:04Z</time>
      </trkpt>
      <trkpt lat="49.83435" lon="2.27597">
        <ele>109.1</ele>
        <time>2023-04-05T12:59:05Z</time>
      </trkpt>
      <trkpt lat="49.83436" lon="2.27597">
        <ele>109.1</ele>
        <time>2023-04-05T12:59:06Z</time>
      </trkpt>
      <trkpt lat="49.83438" lon="2.27597">
        <ele>109.1</ele>
        <time>2023-04-05T12:59:07Z</time>
      </trkpt>
      <trkpt lat="49.83438" lon="2.27596">
        <ele>109.1</ele>
        <time>2023-04-05T12:59:08Z</time>
      </trkpt>
      <trkpt lat="49.8344" lon="2.27596">
        <ele>109.1</ele>
        <time>2023-04-05T12:59:09Z</time>
      </trkpt>
      <trkpt lat="49.83442" lon="2.27597">
        <ele>109.1</ele>
        <time>2023-04-05T12:59:11Z</time>
      </trkpt>
      <trkpt lat="49.83444" lon="2.27596">
        <ele>109.1</ele>
        <time>2023-04-05T12:59:13Z</time>
      </trkpt>
      <trkpt lat="49.83444" lon="2.27596">
        <ele>109.2</ele>
        <time>2023-04-05T12:59:14Z</time>
      </trkpt>
      <trkpt lat="49.83445" lon="2.27596">
        <ele>109.2</ele>
        <time>2023-04-05T12:59:15Z</time>
      </trkpt>
      <trkpt lat="49.83447" lon="2.27595">
        <ele>109.2</ele>
        <time>2023-04-05T12:59:16Z</time>
      </trkpt>
      <trkpt lat="49.83448" lon="2.27595">
        <ele>109.2</ele>
        <time>2023-04-05T12:59:17Z</time>
      </trkpt>
      <trkpt lat="49.83451" lon="2.27595">
        <ele>109.2</ele>
        <time>2023-04-05T12:59:19Z</time>
      </trkpt>
      <trkpt lat="49.83451" lon="2.27595">
        <ele>109.2</ele>
        <time>2023-04-05T12:59:20Z</time>
      </trkpt>
      <trkpt lat="49.83452" lon="2.27596">
        <ele>109.2</ele>
        <time>2023-04-05T12:59:21Z</time>
      </trkpt>
      <trkpt lat="49.83453" lon="2.27596">
        <ele>109.2</ele>
        <time>2023-04-05T12:59:22Z</time>
      </trkpt>
      <trkpt lat="49.83455" lon="2.27596">
        <ele>109.2</ele>
        <time>2023-04-05T12:59:23Z</time>
      </trkpt>
      <trkpt lat="49.83456" lon="2.27595">
        <ele>109.2</ele>
        <time>2023-04-05T12:59:24Z</time>
      </trkpt>
      <trkpt lat="49.83458" lon="2.27595">
        <ele>109.3</ele>
        <time>2023-04-05T12:59:25Z</time>
      </trkpt>
      <trkpt lat="49.83459" lon="2.27595">
        <ele>109.3</ele>
        <time>2023-04-05T12:59:26Z</time>
      </trkpt>
      <trkpt lat="49.83462" lon="2.27596">
        <ele>109.3</ele>
        <time>2023-04-05T12:59:28Z</time>
      </trkpt>
      <trkpt lat="49.83463" lon="2.27596">
        <ele>109.3</ele>
        <time>2023-04-05T12:59:29Z</time>
      </trkpt>
      <trkpt lat="49.83465" lon="2.27596">
        <ele>109.3</ele>
        <time>2023-04-05T12:59:31Z</time>
      </trkpt>
      <trkpt lat="49.83466" lon="2.27597">
        <ele>109.3</ele>
        <time>2023-04-05T12:59:32Z</time>
      </trkpt>
      <trkpt lat="49.83467" lon="2.27597">
        <ele>109.3</ele>
        <time>2023-04-05T12:59:33Z</time>
      </trkpt>
      <trkpt lat="49.83469" lon="2.27598">
        <ele>109.3</ele>
        <time>2023-04-05T12:59:34Z</time>
      </trkpt>
      <trkpt lat="49.8347" lon="2.27598">
        <ele>109.3</ele>
        <time>2023-04-05T12:59:35Z</time>
      </trkpt>
      <trkpt lat="49.83471" lon="2.27598">
        <ele>109.3</ele>
        <time>2023-04-05T12:59:36Z</time>
      </trkpt>
      <trkpt lat="49.83472" lon="2.27598">
        <ele>109.3</ele>
        <time>2023-04-05T12:59:37Z</time>
      </trkpt>
      <trkpt lat="49.83473" lon="2.27598">
        <ele>109.3</ele>
        <time>2023-04-05T12:59:39Z</time>
      </trkpt>
      <trkpt lat="49.83474" lon="2.27598">
        <ele>109.3</ele>
        <time>2023-04-05T12:59:40Z</time>
      </trkpt>
      <trkpt lat="49.83474" lon="2.27598">
        <ele>109.3</ele>
        <time>2023-04-05T12:59:41Z</time>
      </trkpt>
      <trkpt lat="49.83475" lon="2.27598">
        <ele>109.3</ele>
        <time>2023-04-05T12:59:42Z</time>
      </trkpt>
      <trkpt lat="49.83476" lon="2.27597">
        <ele>109.3</ele>
        <time>2023-04-05T12:59:43Z</time>
      </trkpt>
      <trkpt lat="49.83477" lon="2.27597">
        <ele>109.3</ele>
        <time>2023-04-05T12:59:45Z</time>
      </trkpt>
      <trkpt lat="49.83477" lon="2.27596">
        <ele>109.4</ele>
        <time>2023-04-05T12:59:46Z</time>
      </trkpt>
      <trkpt lat="49.83478" lon="2.27595">
        <ele>109.4</ele>
        <time>2023-04-05T12:59:47Z</time>
      </trkpt>
      <trkpt lat="49.83479" lon="2.27594">
        <ele>109.4</ele>
        <time>2023-04-05T12:59:49Z</time>
      </trkpt>
      <trkpt lat="49.83479" lon="2.27594">
        <ele>109.4</ele>
        <time>2023-04-05T12:59:50Z</time>
      </trkpt>
      <trkpt lat="49.83478" lon="2.27594">
        <ele>109.4</ele>
        <time>2023-04-05T12:59:52Z</time>
      </trkpt>
      <trkpt lat="49.83478" lon="2.27594">
        <ele>109.4</ele>
        <time>2023-04-05T12:59:53Z</time>
      </trkpt>
      <trkpt lat="49.83478" lon="2.27594">
        <ele>109.4</ele>
        <time>2023-04-05T12:59:55Z</time>
      </trkpt>
      <trkpt lat="49.83478" lon="2.27594">
        <ele>109.4</ele>
        <time>2023-04-05T12:59:56Z</time>
      </trkpt>
      <trkpt lat="49.83478" lon="2.27594">
        <ele>109.4</ele>
        <time>2023-04-05T12:59:57Z</time>
      </trkpt>
      <trkpt lat="49.83478" lon="2.27594">
        <ele>109.4</ele>
        <time>2023-04-05T12:59:59Z</time>
      </trkpt>
      <trkpt lat="49.83478" lon="2.27594">
        <ele>109.4</ele>
        <time>2023-04-05T13:00:01Z</time>
      </trkpt>
      <trkpt lat="49.83478" lon="2.27594">
        <ele>109.4</ele>
        <time>2023-04-05T13:00:02Z</time>
      </trkpt>
      <trkpt lat="49.83478" lon="2.27594">
        <ele>109.4</ele>
        <time>2023-04-05T13:00:03Z</time>
      </trkpt>
      <trkpt lat="49.83477" lon="2.27594">
        <ele>109.4</ele>
        <time>2023-04-05T13:00:05Z</time>
      </trkpt>
      <trkpt lat="49.83477" lon="2.27594">
        <ele>109.4</ele>
        <time>2023-04-05T13:00:06Z</time>
      </trkpt>
      <trkpt lat="49.83477" lon="2.27594">
        <ele>109.4</ele>
        <time>2023-04-05T13:00:07Z</time>
      </trkpt>
      <trkpt lat="49.83477" lon="2.27594">
        <ele>109.4</ele>
        <time>2023-04-05T13:00:08Z</time>
      </trkpt>
      <trkpt lat="49.83477" lon="2.27594">
        <ele>109.4</ele>
        <time>2023-04-05T13:00:09Z</time>
      </trkpt>
      <trkpt lat="49.83477" lon="2.27594">
        <ele>109.4</ele>
        <time>2023-04-05T13:00:10Z</time>
      </trkpt>
      <trkpt lat="49.83477" lon="2.27594">
        <ele>109.4</ele>
        <time>2023-04-05T13:00:11Z</time>
      </trkpt>
      <trkpt lat="49.83477" lon="2.27594">
        <ele>109.4</ele>
        <time>2023-04-05T13:00:12Z</time>
      </trkpt>
      <trkpt lat="49.83477" lon="2.27594">
        <ele>109.4</ele>
        <time>2023-04-05T13:00:13Z</time>
      </trkpt>
      <trkpt lat="49.83477" lon="2.27594">
        <ele>109.4</ele>
        <time>2023-04-05T13:00:14Z</time>
      </trkpt>
      <trkpt lat="49.83477" lon="2.27594">
        <ele>109.4</ele>
        <time>2023-04-05T13:00:15Z</time>
      </trkpt>
      <trkpt lat="49.83477" lon="2.27594">
        <ele>109.4</ele>
        <time>2023-04-05T13:00:16Z</time>
      </trkpt>
      <trkpt lat="49.83477" lon="2.27594">
        <ele>109.4</ele>
        <time>2023-04-05T13:00:17Z</time>
      </trkpt>
      <trkpt lat="49.83477" lon="2.27594">
        <ele>109.4</ele>
        <time>2023-04-05T13:00:18Z</time>
      </trkpt>
      <trkpt lat="49.83477" lon="2.27594">
        <ele>109.4</ele>
        <time>2023-04-05T13:00:19Z</time>
      </trkpt>
      <trkpt lat="49.83477" lon="2.27594">
        <ele>109.4</ele>
        <time>2023-04-05T13:00:20Z</time>
      </trkpt>
      <trkpt lat="49.83477" lon="2.27594">
        <ele>109.4</ele>
        <time>2023-04-05T13:00:21Z</time>
      </trkpt>
      <trkpt lat="49.83477" lon="2.27594">
        <ele>109.4</ele>
        <time>2023-04-05T13:00:22Z</time>
      </trkpt>
      <trkpt lat="49.83477" lon="2.27594">
        <ele>109.4</ele>
        <time>2023-04-05T13:00:23Z</time>
      </trkpt>
      <trkpt lat="49.83477" lon="2.27594">
        <ele>109.4</ele>
        <time>2023-04-05T13:00:24Z</time>
      </trkpt>
      <trkpt lat="49.83477" lon="2.27594">
        <ele>109.4</ele>
        <time>2023-04-05T13:00:25Z</time>
      </trkpt>
      <trkpt lat="49.83477" lon="2.27594">
        <ele>109.4</ele>
        <time>2023-04-05T13:00:26Z</time>
      </trkpt>
      <trkpt lat="49.83477" lon="2.27594">
        <ele>109.4</ele>
        <time>2023-04-05T13:00:27Z</time>
      </trkpt>
      <trkpt lat="49.83477" lon="2.27594">
        <ele>109.4</ele>
        <time>2023-04-05T13:00:28Z</time>
      </trkpt>
      <trkpt lat="49.83477" lon="2.27594">
        <ele>109.4</ele>
        <time>2023-04-05T13:00:29Z</time>
      </trkpt>
      <trkpt lat="49.83477" lon="2.27594">
        <ele>109.4</ele>
        <time>2023-04-05T13:00:30Z</time>
      </trkpt>
      <trkpt lat="49.83477" lon="2.27594">
        <ele>109.4</ele>
        <time>2023-04-05T13:00:31Z</time>
      </trkpt>
      <trkpt lat="49.83477" lon="2.27594">
        <ele>109.4</ele>
        <time>2023-04-05T13:00:32Z</time>
      </trkpt>
      <trkpt lat="49.83477" lon="2.27594">
        <ele>109.4</ele>
        <time>2023-04-05T13:00:33Z</time>
      </trkpt>
      <trkpt lat="49.83477" lon="2.27594">
        <ele>109.4</ele>
        <time>2023-04-05T13:00:34Z</time>
      </trkpt>
      <trkpt lat="49.83477" lon="2.27594">
        <ele>109.4</ele>
        <time>2023-04-05T13:00:35Z</time>
      </trkpt>
      <trkpt lat="49.83477" lon="2.27594">
        <ele>109.4</ele>
        <time>2023-04-05T13:00:36Z</time>
      </trkpt>
      <trkpt lat="49.83477" lon="2.27594">
        <ele>109.4</ele>
        <time>2023-04-05T13:00:37Z</time>
      </trkpt>
      <trkpt lat="49.83477" lon="2.27594">
        <ele>109.4</ele>
        <time>2023-04-05T13:00:38Z</time>
      </trkpt>
      <trkpt lat="49.83477" lon="2.27594">
        <ele>109.4</ele>
        <time>2023-04-05T13:00:39Z</time>
      </trkpt>
      <trkpt lat="49.83477" lon="2.27594">
        <ele>109.4</ele>
        <time>2023-04-05T13:00:40Z</time>
      </trkpt>
      <trkpt lat="49.83477" lon="2.27594">
        <ele>109.4</ele>
        <time>2023-04-05T13:00:41Z</time>
      </trkpt>
      <trkpt lat="49.83477" lon="2.27594">
        <ele>109.4</ele>
        <time>2023-04-05T13:00:42Z</time>
      </trkpt>
      <trkpt lat="49.83477" lon="2.27594">
        <ele>109.4</ele>
        <time>2023-04-05T13:00:43Z</time>
      </trkpt>
      <trkpt lat="49.83477" lon="2.27594">
        <ele>109.4</ele>
        <time>2023-04-05T13:00:44Z</time>
      </trkpt>
      <trkpt lat="49.83477" lon="2.27594">
        <ele>109.4</ele>
        <time>2023-04-05T13:00:45Z</time>
      </trkpt>
      <trkpt lat="49.83477" lon="2.27594">
        <ele>109.4</ele>
        <time>2023-04-05T13:00:46Z</time>
      </trkpt>
      <trkpt lat="49.83477" lon="2.27594">
        <ele>109.4</ele>
        <time>2023-04-05T13:00:47Z</time>
      </trkpt>
      <trkpt lat="49.83477" lon="2.27594">
        <ele>109.4</ele>
        <time>2023-04-05T13:00:48Z</time>
      </trkpt>
      <trkpt lat="49.83477" lon="2.27594">
        <ele>109.4</ele>
        <time>2023-04-05T13:00:49Z</time>
      </trkpt>
      <trkpt lat="49.83477" lon="2.27594">
        <ele>109.4</ele>
        <time>2023-04-05T13:00:50Z</time>
      </trkpt>
      <trkpt lat="49.83477" lon="2.27594">
        <ele>109.4</ele>
        <time>2023-04-05T13:00:51Z</time>
      </trkpt>
      <trkpt lat="49.83477" lon="2.27594">
        <ele>109.4</ele>
        <time>2023-04-05T13:00:52Z</time>
      </trkpt>
      <trkpt lat="49.83477" lon="2.27594">
        <ele>109.4</ele>
        <time>2023-04-05T13:00:53Z</time>
      </trkpt>
      <trkpt lat="49.83477" lon="2.27594">
        <ele>109.4</ele>
        <time>2023-04-05T13:00:54Z</time>
      </trkpt>
      <trkpt lat="49.83477" lon="2.27594">
        <ele>109.4</ele>
        <time>2023-04-05T13:00:55Z</time>
      </trkpt>
      <trkpt lat="49.83477" lon="2.27594">
        <ele>109.4</ele>
        <time>2023-04-05T13:00:56Z</time>
      </trkpt>
      <trkpt lat="49.83477" lon="2.27594">
        <ele>109.4</ele>
        <time>2023-04-05T13:00:57Z</time>
      </trkpt>
      <trkpt lat="49.83477" lon="2.27594">
        <ele>109.4</ele>
        <time>2023-04-05T13:00:58Z</time>
      </trkpt>
      <trkpt lat="49.83477" lon="2.27594">
        <ele>109.4</ele>
        <time>2023-04-05T13:00:59Z</time>
      </trkpt>
      <trkpt lat="49.83477" lon="2.27594">
        <ele>109.4</ele>
        <time>2023-04-05T13:01:00Z</time>
      </trkpt>
      <trkpt lat="49.83477" lon="2.27594">
        <ele>109.4</ele>
        <time>2023-04-05T13:01:01Z</time>
      </trkpt>
      <trkpt lat="49.83477" lon="2.27594">
        <ele>109.4</ele>
        <time>2023-04-05T13:01:02Z</time>
      </trkpt>
      <trkpt lat="49.83477" lon="2.27594">
        <ele>109.4</ele>
        <time>2023-04-05T13:01:03Z</time>
      </trkpt>
      <trkpt lat="49.83477" lon="2.27594">
        <ele>109.4</ele>
        <time>2023-04-05T13:01:04Z</time>
      </trkpt>
      <trkpt lat="49.83477" lon="2.27594">
        <ele>109.4</ele>
        <time>2023-04-05T13:01:05Z</time>
      </trkpt>
      <trkpt lat="49.83477" lon="2.27594">
        <ele>109.4</ele>
        <time>2023-04-05T13:01:06Z</time>
      </trkpt>
      <trkpt lat="49.83477" lon="2.27594">
        <ele>109.4</ele>
        <time>2023-04-05T13:01:07Z</time>
      </trkpt>
      <trkpt lat="49.83477" lon="2.27594">
        <ele>109.4</ele>
        <time>2023-04-05T13:01:08Z</time>
      </trkpt>
      <trkpt lat="49.83477" lon="2.27594">
        <ele>109.4</ele>
        <time>2023-04-05T13:01:09Z</time>
      </trkpt>
      <trkpt lat="49.83477" lon="2.27594">
        <ele>109.4</ele>
        <time>2023-04-05T13:01:10Z</time>
      </trkpt>
      <trkpt lat="49.83477" lon="2.27594">
        <ele>109.4</ele>
        <time>2023-04-05T13:01:11Z</time>
      </trkpt>
      <trkpt lat="49.83477" lon="2.27594">
        <ele>109.4</ele>
        <time>2023-04-05T13:01:12Z</time>
      </trkpt>
      <trkpt lat="49.83477" lon="2.27594">
        <ele>109.4</ele>
        <time>2023-04-05T13:01:13Z</time>
      </trkpt>
      <trkpt lat="49.83477" lon="2.27594">
        <ele>109.4</ele>
        <time>2023-04-05T13:01:14Z</time>
      </trkpt>
      <trkpt lat="49.83477" lon="2.27594">
        <ele>109.4</ele>
        <time>2023-04-05T13:01:15Z</time>
      </trkpt>
      <trkpt lat="49.83477" lon="2.27594">
        <ele>109.4</ele>
        <time>2023-04-05T13:01:16Z</time>
      </trkpt>
      <trkpt lat="49.83477" lon="2.27594">
        <ele>109.4</ele>
        <time>2023-04-05T13:01:17Z</time>
      </trkpt>
      <trkpt lat="49.83477" lon="2.27594">
        <ele>109.4</ele>
        <time>2023-04-05T13:01:18Z</time>
      </trkpt>
      <trkpt lat="49.83477" lon="2.27594">
        <ele>109.4</ele>
        <time>2023-04-05T13:01:19Z</time>
      </trkpt>
      <trkpt lat="49.83477" lon="2.27594">
        <ele>109.4</ele>
        <time>2023-04-05T13:01:20Z</time>
      </trkpt>
      <trkpt lat="49.83477" lon="2.27594">
        <ele>109.4</ele>
        <time>2023-04-05T13:01:21Z</time>
      </trkpt>
      <trkpt lat="49.83477" lon="2.27594">
        <ele>109.4</ele>
        <time>2023-04-05T13:01:22Z</time>
      </trkpt>
      <trkpt lat="49.83477" lon="2.27594">
        <ele>109.4</ele>
        <time>2023-04-05T13:01:23Z</time>
      </trkpt>
      <trkpt lat="49.83476" lon="2.27594">
        <ele>109.4</ele>
        <time>2023-04-05T13:01:24Z</time>
      </trkpt>
      <trkpt lat="49.83477" lon="2.27594">
        <ele>109.4</ele>
        <time>2023-04-05T13:01:25Z</time>
      </trkpt>
      <trkpt lat="49.83477" lon="2.27594">
        <ele>109.4</ele>
        <time>2023-04-05T13:01:26Z</time>
      </trkpt>
      <trkpt lat="49.83477" lon="2.27594">
        <ele>109.4</ele>
        <time>2023-04-05T13:01:27Z</time>
      </trkpt>
      <trkpt lat="49.83477" lon="2.27594">
        <ele>109.4</ele>
        <time>2023-04-05T13:01:28Z</time>
      </trkpt>
      <trkpt lat="49.83476" lon="2.27594">
        <ele>109.4</ele>
        <time>2023-04-05T13:01:29Z</time>
      </trkpt>
      <trkpt lat="49.83475" lon="2.27593">
        <ele>109.4</ele>
        <time>2023-04-05T13:01:30Z</time>
      </trkpt>
      <trkpt lat="49.83474" lon="2.27593">
        <ele>109.4</ele>
        <time>2023-04-05T13:01:32Z</time>
      </trkpt>
      <trkpt lat="49.83474" lon="2.27592">
        <ele>109.4</ele>
        <time>2023-04-05T13:01:33Z</time>
      </trkpt>
      <trkpt lat="49.83474" lon="2.27591">
        <ele>109.4</ele>
        <time>2023-04-05T13:01:34Z</time>
      </trkpt>
      <trkpt lat="49.83474" lon="2.27591">
        <ele>109.4</ele>
        <time>2023-04-05T13:01:36Z</time>
      </trkpt>
      <trkpt lat="49.83474" lon="2.27591">
        <ele>109.4</ele>
        <time>2023-04-05T13:01:37Z</time>
      </trkpt>
      <trkpt lat="49.83474" lon="2.27591">
        <ele>109.4</ele>
        <time>2023-04-05T13:01:38Z</time>
      </trkpt>
      <trkpt lat="49.83474" lon="2.27591">
        <ele>109.4</ele>
        <time>2023-04-05T13:01:40Z</time>
      </trkpt>
      <trkpt lat="49.83474" lon="2.27591">
        <ele>109.4</ele>
        <time>2023-04-05T13:01:41Z</time>
      </trkpt>
      <trkpt lat="49.83474" lon="2.2759">
        <ele>109.4</ele>
        <time>2023-04-05T13:01:43Z</time>
      </trkpt>
      <trkpt lat="49.83474" lon="2.2759">
        <ele>109.4</ele>
        <time>2023-04-05T13:01:44Z</time>
      </trkpt>
      <trkpt lat="49.83474" lon="2.27591">
        <ele>109.4</ele>
        <time>2023-04-05T13:01:45Z</time>
      </trkpt>
      <trkpt lat="49.83474" lon="2.27592">
        <ele>109.4</ele>
        <time>2023-04-05T13:01:46Z</time>
      </trkpt>
      <trkpt lat="49.83474" lon="2.27592">
        <ele>109.4</ele>
        <time>2023-04-05T13:01:47Z</time>
      </trkpt>
      <trkpt lat="49.83474" lon="2.27592">
        <ele>109.4</ele>
        <time>2023-04-05T13:01:48Z</time>
      </trkpt>
      <trkpt lat="49.83474" lon="2.27592">
        <ele>109.4</ele>
        <time>2023-04-05T13:01:49Z</time>
      </trkpt>
      <trkpt lat="49.83474" lon="2.27592">
        <ele>109.4</ele>
        <time>2023-04-05T13:01:50Z</time>
      </trkpt>
      <trkpt lat="49.83474" lon="2.27592">
        <ele>109.4</ele>
        <time>2023-04-05T13:01:51Z</time>
      </trkpt>
      <trkpt lat="49.83474" lon="2.27592">
        <ele>109.4</ele>
        <time>2023-04-05T13:01:52Z</time>
      </trkpt>
      <trkpt lat="49.83474" lon="2.27592">
        <ele>109.4</ele>
        <time>2023-04-05T13:01:53Z</time>
      </trkpt>
      <trkpt lat="49.83474" lon="2.27592">
        <ele>109.4</ele>
        <time>2023-04-05T13:01:54Z</time>
      </trkpt>
      <trkpt lat="49.83474" lon="2.27592">
        <ele>109.4</ele>
        <time>2023-04-05T13:01:55Z</time>
      </trkpt>
      <trkpt lat="49.83474" lon="2.27592">
        <ele>109.4</ele>
        <time>2023-04-05T13:01:56Z</time>
      </trkpt>
      <trkpt lat="49.83474" lon="2.27592">
        <ele>109.4</ele>
        <time>2023-04-05T13:01:57Z</time>
      </trkpt>
      <trkpt lat="49.83474" lon="2.27592">
        <ele>109.4</ele>
        <time>2023-04-05T13:01:58Z</time>
      </trkpt>
      <trkpt lat="49.83474" lon="2.27592">
        <ele>109.4</ele>
        <time>2023-04-05T13:01:59Z</time>
      </trkpt>
      <trkpt lat="49.83474" lon="2.27592">
        <ele>109.4</ele>
        <time>2023-04-05T13:02:00Z</time>
      </trkpt>
      <trkpt lat="49.83474" lon="2.27592">
        <ele>109.4</ele>
        <time>2023-04-05T13:02:01Z</time>
      </trkpt>
      <trkpt lat="49.83474" lon="2.27592">
        <ele>109.4</ele>
        <time>2023-04-05T13:02:02Z</time>
      </trkpt>
      <trkpt lat="49.83474" lon="2.27592">
        <ele>109.4</ele>
        <time>2023-04-05T13:02:03Z</time>
      </trkpt>
      <trkpt lat="49.83474" lon="2.27592">
        <ele>109.4</ele>
        <time>2023-04-05T13:02:04Z</time>
      </trkpt>
      <trkpt lat="49.83474" lon="2.27592">
        <ele>109.4</ele>
        <time>2023-04-05T13:02:05Z</time>
      </trkpt>
      <trkpt lat="49.83474" lon="2.27592">
        <ele>109.4</ele>
        <time>2023-04-05T13:02:06Z</time>
      </trkpt>
      <trkpt lat="49.83474" lon="2.27592">
        <ele>109.4</ele>
        <time>2023-04-05T13:02:07Z</time>
      </trkpt>
      <trkpt lat="49.83474" lon="2.27592">
        <ele>109.4</ele>
        <time>2023-04-05T13:02:08Z</time>
      </trkpt>
      <trkpt lat="49.83474" lon="2.27592">
        <ele>109.4</ele>
        <time>2023-04-05T13:02:09Z</time>
      </trkpt>
      <trkpt lat="49.83474" lon="2.27592">
        <ele>109.4</ele>
        <time>2023-04-05T13:02:10Z</time>
      </trkpt>
      <trkpt lat="49.83474" lon="2.27592">
        <ele>109.4</ele>
        <time>2023-04-05T13:02:11Z</time>
      </trkpt>
      <trkpt lat="49.83474" lon="2.27592">
        <ele>109.4</ele>
        <time>2023-04-05T13:02:12Z</time>
      </trkpt>
      <trkpt lat="49.83474" lon="2.27592">
        <ele>109.4</ele>
        <time>2023-04-05T13:02:13Z</time>
      </trkpt>
      <trkpt lat="49.83474" lon="2.27592">
        <ele>109.4</ele>
        <time>2023-04-05T13:02:14Z</time>
      </trkpt>
      <trkpt lat="49.83474" lon="2.27592">
        <ele>109.4</ele>
        <time>2023-04-05T13:02:15Z</time>
      </trkpt>
      <trkpt lat="49.83474" lon="2.27592">
        <ele>109.4</ele>
        <time>2023-04-05T13:02:16Z</time>
      </trkpt>
      <trkpt lat="49.83474" lon="2.27592">
        <ele>109.4</ele>
        <time>2023-04-05T13:02:17Z</time>
      </trkpt>
      <trkpt lat="49.83474" lon="2.27592">
        <ele>109.4</ele>
        <time>2023-04-05T13:02:18Z</time>
      </trkpt>
      <trkpt lat="49.83474" lon="2.27592">
        <ele>109.4</ele>
        <time>2023-04-05T13:02:19Z</time>
      </trkpt>
      <trkpt lat="49.83474" lon="2.27592">
        <ele>109.4</ele>
        <time>2023-04-05T13:02:20Z</time>
      </trkpt>
      <trkpt lat="49.83474" lon="2.27592">
        <ele>109.4</ele>
        <time>2023-04-05T13:02:21Z</time>
      </trkpt>
      <trkpt lat="49.83474" lon="2.27592">
        <ele>109.4</ele>
        <time>2023-04-05T13:02:22Z</time>
      </trkpt>
      <trkpt lat="49.83474" lon="2.27592">
        <ele>109.4</ele>
        <time>2023-04-05T13:02:23Z</time>
      </trkpt>
      <trkpt lat="49.83474" lon="2.27592">
        <ele>109.4</ele>
        <time>2023-04-05T13:02:24Z</time>
      </trkpt>
      <trkpt lat="49.83474" lon="2.27592">
        <ele>109.4</ele>
        <time>2023-04-05T13:02:25Z</time>
      </trkpt>
      <trkpt lat="49.83474" lon="2.27592">
        <ele>109.4</ele>
        <time>2023-04-05T13:02:26Z</time>
      </trkpt>
      <trkpt lat="49.83474" lon="2.27592">
        <ele>109.4</ele>
        <time>2023-04-05T13:02:27Z</time>
      </trkpt>
      <trkpt lat="49.83474" lon="2.27592">
        <ele>109.4</ele>
        <time>2023-04-05T13:02:28Z</time>
      </trkpt>
      <trkpt lat="49.83474" lon="2.27592">
        <ele>109.4</ele>
        <time>2023-04-05T13:02:29Z</time>
      </trkpt>
      <trkpt lat="49.83474" lon="2.27592">
        <ele>109.4</ele>
        <time>2023-04-05T13:02:30Z</time>
      </trkpt>
      <trkpt lat="49.83473" lon="2.27592">
        <ele>109.4</ele>
        <time>2023-04-05T13:02:31Z</time>
      </trkpt>
      <trkpt lat="49.83473" lon="2.27592">
        <ele>109.4</ele>
        <time>2023-04-05T13:02:33Z</time>
      </trkpt>
      <trkpt lat="49.83472" lon="2.27592">
        <ele>109.4</ele>
        <time>2023-04-05T13:02:34Z</time>
      </trkpt>
      <trkpt lat="49.83472" lon="2.27592">
        <ele>109.4</ele>
        <time>2023-04-05T13:02:36Z</time>
      </trkpt>
      <trkpt lat="49.83472" lon="2.27592">
        <ele>109.4</ele>
        <time>2023-04-05T13:02:37Z</time>
      </trkpt>
      <trkpt lat="49.83472" lon="2.27592">
        <ele>109.4</ele>
        <time>2023-04-05T13:02:38Z</time>
      </trkpt>
      <trkpt lat="49.83472" lon="2.27592">
        <ele>109.4</ele>
        <time>2023-04-05T13:02:40Z</time>
      </trkpt>
      <trkpt lat="49.83472" lon="2.27591">
        <ele>109.4</ele>
        <time>2023-04-05T13:02:42Z</time>
      </trkpt>
      <trkpt lat="49.83472" lon="2.27591">
        <ele>109.4</ele>
        <time>2023-04-05T13:02:43Z</time>
      </trkpt>
      <trkpt lat="49.83472" lon="2.27591">
        <ele>109.4</ele>
        <time>2023-04-05T13:02:44Z</time>
      </trkpt>
      <trkpt lat="49.83472" lon="2.27591">
        <ele>109.4</ele>
        <time>2023-04-05T13:02:46Z</time>
      </trkpt>
      <trkpt lat="49.83473" lon="2.27591">
        <ele>109.4</ele>
        <time>2023-04-05T13:02:47Z</time>
      </trkpt>
      <trkpt lat="49.83473" lon="2.27591">
        <ele>109.4</ele>
        <time>2023-04-05T13:02:48Z</time>
      </trkpt>
      <trkpt lat="49.83473" lon="2.27591">
        <ele>109.4</ele>
        <time>2023-04-05T13:02:49Z</time>
      </trkpt>
      <trkpt lat="49.83473" lon="2.27591">
        <ele>109.4</ele>
        <time>2023-04-05T13:02:50Z</time>
      </trkpt>
      <trkpt lat="49.83473" lon="2.27591">
        <ele>109.4</ele>
        <time>2023-04-05T13:02:51Z</time>
      </trkpt>
      <trkpt lat="49.83473" lon="2.27591">
        <ele>109.4</ele>
        <time>2023-04-05T13:02:52Z</time>
      </trkpt>
      <trkpt lat="49.83473" lon="2.27591">
        <ele>109.4</ele>
        <time>2023-04-05T13:02:53Z</time>
      </trkpt>
      <trkpt lat="49.83473" lon="2.27591">
        <ele>109.4</ele>
        <time>2023-04-05T13:02:54Z</time>
      </trkpt>
      <trkpt lat="49.83473" lon="2.27591">
        <ele>109.4</ele>
        <time>2023-04-05T13:02:55Z</time>
      </trkpt>
      <trkpt lat="49.83473" lon="2.27591">
        <ele>109.4</ele>
        <time>2023-04-05T13:02:56Z</time>
      </trkpt>
      <trkpt lat="49.83473" lon="2.27591">
        <ele>109.4</ele>
        <time>2023-04-05T13:02:57Z</time>
      </trkpt>
      <trkpt lat="49.83473" lon="2.27591">
        <ele>109.4</ele>
        <time>2023-04-05T13:02:58Z</time>
      </trkpt>
      <trkpt lat="49.83473" lon="2.27591">
        <ele>109.4</ele>
        <time>2023-04-05T13:02:59Z</time>
      </trkpt>
      <trkpt lat="49.83473" lon="2.27591">
        <ele>109.4</ele>
        <time>2023-04-05T13:03:00Z</time>
      </trkpt>
      <trkpt lat="49.83473" lon="2.27591">
        <ele>109.4</ele>
        <time>2023-04-05T13:03:01Z</time>
      </trkpt>
      <trkpt lat="49.83473" lon="2.27591">
        <ele>109.4</ele>
        <time>2023-04-05T13:03:02Z</time>
      </trkpt>
      <trkpt lat="49.83473" lon="2.27591">
        <ele>109.4</ele>
        <time>2023-04-05T13:03:03Z</time>
      </trkpt>
      <trkpt lat="49.83473" lon="2.27591">
        <ele>109.4</ele>
        <time>2023-04-05T13:03:04Z</time>
      </trkpt>
      <trkpt lat="49.83473" lon="2.27591">
        <ele>109.4</ele>
        <time>2023-04-05T13:03:05Z</time>
      </trkpt>
      <trkpt lat="49.83473" lon="2.27591">
        <ele>109.4</ele>
        <time>2023-04-05T13:03:06Z</time>
      </trkpt>
      <trkpt lat="49.83473" lon="2.27591">
        <ele>109.4</ele>
        <time>2023-04-05T13:03:07Z</time>
      </trkpt>
      <trkpt lat="49.83473" lon="2.27591">
        <ele>109.4</ele>
        <time>2023-04-05T13:03:08Z</time>
      </trkpt>
      <trkpt lat="49.83473" lon="2.27591">
        <ele>109.4</ele>
        <time>2023-04-05T13:03:09Z</time>
      </trkpt>
      <trkpt lat="49.83473" lon="2.27591">
        <ele>109.4</ele>
        <time>2023-04-05T13:03:10Z</time>
      </trkpt>
      <trkpt lat="49.83473" lon="2.27591">
        <ele>109.4</ele>
        <time>2023-04-05T13:03:11Z</time>
      </trkpt>
      <trkpt lat="49.83473" lon="2.27591">
        <ele>109.4</ele>
        <time>2023-04-05T13:03:12Z</time>
      </trkpt>
      <trkpt lat="49.83473" lon="2.27591">
        <ele>109.4</ele>
        <time>2023-04-05T13:03:13Z</time>
      </trkpt>
      <trkpt lat="49.83473" lon="2.27591">
        <ele>109.4</ele>
        <time>2023-04-05T13:03:14Z</time>
      </trkpt>
      <trkpt lat="49.83473" lon="2.27591">
        <ele>109.4</ele>
        <time>2023-04-05T13:03:15Z</time>
      </trkpt>
      <trkpt lat="49.83473" lon="2.27591">
        <ele>109.4</ele>
        <time>2023-04-05T13:03:16Z</time>
      </trkpt>
      <trkpt lat="49.83473" lon="2.27591">
        <ele>109.4</ele>
        <time>2023-04-05T13:03:17Z</time>
      </trkpt>
      <trkpt lat="49.83473" lon="2.27591">
        <ele>109.4</ele>
        <time>2023-04-05T13:03:18Z</time>
      </trkpt>
      <trkpt lat="49.83473" lon="2.27591">
        <ele>109.4</ele>
        <time>2023-04-05T13:03:19Z</time>
      </trkpt>
      <trkpt lat="49.83473" lon="2.27591">
        <ele>109.4</ele>
        <time>2023-04-05T13:03:20Z</time>
      </trkpt>
      <trkpt lat="49.83473" lon="2.27591">
        <ele>109.4</ele>
        <time>2023-04-05T13:03:21Z</time>
      </trkpt>
      <trkpt lat="49.83473" lon="2.27591">
        <ele>109.4</ele>
        <time>2023-04-05T13:03:22Z</time>
      </trkpt>
      <trkpt lat="49.83473" lon="2.27592">
        <ele>109.4</ele>
        <time>2023-04-05T13:03:23Z</time>
      </trkpt>
      <trkpt lat="49.83473" lon="2.27591">
        <ele>109.4</ele>
        <time>2023-04-05T13:03:24Z</time>
      </trkpt>
      <trkpt lat="49.83473" lon="2.27591">
        <ele>109.4</ele>
        <time>2023-04-05T13:03:25Z</time>
      </trkpt>
      <trkpt lat="49.83473" lon="2.2759">
        <ele>109.4</ele>
        <time>2023-04-05T13:03:26Z</time>
      </trkpt>
      <trkpt lat="49.83474" lon="2.2759">
        <ele>109.4</ele>
        <time>2023-04-05T13:03:27Z</time>
      </trkpt>
      <trkpt lat="49.83474" lon="2.2759">
        <ele>109.4</ele>
        <time>2023-04-05T13:03:28Z</time>
      </trkpt>
      <trkpt lat="49.83474" lon="2.27589">
        <ele>109.4</ele>
        <time>2023-04-05T13:03:29Z</time>
      </trkpt>
      <trkpt lat="49.83474" lon="2.27589">
        <ele>109.4</ele>
        <time>2023-04-05T13:03:30Z</time>
      </trkpt>
      <trkpt lat="49.83474" lon="2.27589">
        <ele>109.4</ele>
        <time>2023-04-05T13:03:31Z</time>
      </trkpt>
      <trkpt lat="49.83474" lon="2.27588">
        <ele>109.4</ele>
        <time>2023-04-05T13:03:32Z</time>
      </trkpt>
      <trkpt lat="49.83474" lon="2.27588">
        <ele>109.4</ele>
        <time>2023-04-05T13:03:33Z</time>
      </trkpt>
      <trkpt lat="49.83473" lon="2.27588">
        <ele>109.4</ele>
        <time>2023-04-05T13:03:34Z</time>
      </trkpt>
      <trkpt lat="49.83473" lon="2.27588">
        <ele>109.4</ele>
        <time>2023-04-05T13:03:35Z</time>
      </trkpt>
      <trkpt lat="49.83473" lon="2.27587">
        <ele>109.4</ele>
        <time>2023-04-05T13:03:36Z</time>
      </trkpt>
      <trkpt lat="49.83473" lon="2.27588">
        <ele>109.4</ele>
        <time>2023-04-05T13:03:37Z</time>
      </trkpt>
      <trkpt lat="49.83474" lon="2.27588">
        <ele>109.4</ele>
        <time>2023-04-05T13:03:38Z</time>
      </trkpt>
      <trkpt lat="49.83474" lon="2.27588">
        <ele>109.4</ele>
        <time>2023-04-05T13:03:39Z</time>
      </trkpt>
      <trkpt lat="49.83474" lon="2.27587">
        <ele>109.4</ele>
        <time>2023-04-05T13:03:41Z</time>
      </trkpt>
      <trkpt lat="49.83474" lon="2.27587">
        <ele>109.4</ele>
        <time>2023-04-05T13:03:42Z</time>
      </trkpt>
      <trkpt lat="49.83475" lon="2.27587">
        <ele>109.4</ele>
        <time>2023-04-05T13:03:43Z</time>
      </trkpt>
      <trkpt lat="49.83476" lon="2.27587">
        <ele>109.4</ele>
        <time>2023-04-05T13:03:44Z</time>
      </trkpt>
      <trkpt lat="49.83477" lon="2.27587">
        <ele>109.4</ele>
        <time>2023-04-05T13:03:45Z</time>
      </trkpt>
      <trkpt lat="49.83478" lon="2.27588">
        <ele>109.5</ele>
        <time>2023-04-05T13:03:46Z</time>
      </trkpt>
      <trkpt lat="49.8348" lon="2.2759">
        <ele>109.5</ele>
        <time>2023-04-05T13:03:48Z</time>
      </trkpt>
      <trkpt lat="49.83482" lon="2.27593">
        <ele>109.5</ele>
        <time>2023-04-05T13:03:49Z</time>
      </trkpt>
      <trkpt lat="49.83483" lon="2.27594">
        <ele>109.5</ele>
        <time>2023-04-05T13:03:50Z</time>
      </trkpt>
      <trkpt lat="49.83484" lon="2.27595">
        <ele>109.5</ele>
        <time>2023-04-05T13:03:51Z</time>
      </trkpt>
      <trkpt lat="49.83486" lon="2.27595">
        <ele>109.5</ele>
        <time>2023-04-05T13:03:52Z</time>
      </trkpt>
      <trkpt lat="49.83487" lon="2.27596">
        <ele>109.5</ele>
        <time>2023-04-05T13:03:54Z</time>
      </trkpt>
      <trkpt lat="49.83489" lon="2.27597">
        <ele>109.4</ele>
        <time>2023-04-05T13:03:55Z</time>
      </trkpt>
      <trkpt lat="49.8349" lon="2.27598">
        <ele>109.4</ele>
        <time>2023-04-05T13:03:56Z</time>
      </trkpt>
      <trkpt lat="49.83492" lon="2.27598">
        <ele>109.4</ele>
        <time>2023-04-05T13:03:57Z</time>
      </trkpt>
      <trkpt lat="49.83493" lon="2.27598">
        <ele>109.4</ele>
        <time>2023-04-05T13:03:58Z</time>
      </trkpt>
      <trkpt lat="49.83494" lon="2.27598">
        <ele>109.4</ele>
        <time>2023-04-05T13:03:59Z</time>
      </trkpt>
      <trkpt lat="49.83496" lon="2.27599">
        <ele>109.4</ele>
        <time>2023-04-05T13:04:00Z</time>
      </trkpt>
      <trkpt lat="49.83498" lon="2.276">
        <ele>109.4</ele>
        <time>2023-04-05T13:04:02Z</time>
      </trkpt>
      <trkpt lat="49.83499" lon="2.276">
        <ele>109.4</ele>
        <time>2023-04-05T13:04:03Z</time>
      </trkpt>
      <trkpt lat="49.835" lon="2.276">
        <ele>109.4</ele>
        <time>2023-04-05T13:04:04Z</time>
      </trkpt>
      <trkpt lat="49.83502" lon="2.27601">
        <ele>109.4</ele>
        <time>2023-04-05T13:04:05Z</time>
      </trkpt>
      <trkpt lat="49.83503" lon="2.27601">
        <ele>109.4</ele>
        <time>2023-04-05T13:04:06Z</time>
      </trkpt>
      <trkpt lat="49.83504" lon="2.27601">
        <ele>109.4</ele>
        <time>2023-04-05T13:04:07Z</time>
      </trkpt>
      <trkpt lat="49.83505" lon="2.27601">
        <ele>109.4</ele>
        <time>2023-04-05T13:04:08Z</time>
      </trkpt>
      <trkpt lat="49.83507" lon="2.27601">
        <ele>109.4</ele>
        <time>2023-04-05T13:04:10Z</time>
      </trkpt>
      <trkpt lat="49.83508" lon="2.27601">
        <ele>109.4</ele>
        <time>2023-04-05T13:04:11Z</time>
      </trkpt>
      <trkpt lat="49.83509" lon="2.27601">
        <ele>109.4</ele>
        <time>2023-04-05T13:04:12Z</time>
      </trkpt>
      <trkpt lat="49.83511" lon="2.27601">
        <ele>109.4</ele>
        <time>2023-04-05T13:04:13Z</time>
      </trkpt>
      <trkpt lat="49.83512" lon="2.27601">
        <ele>109.4</ele>
        <time>2023-04-05T13:04:14Z</time>
      </trkpt>
      <trkpt lat="49.83514" lon="2.276">
        <ele>109.4</ele>
        <time>2023-04-05T13:04:15Z</time>
      </trkpt>
      <trkpt lat="49.83516" lon="2.276">
        <ele>109.4</ele>
        <time>2023-04-05T13:04:16Z</time>
      </trkpt>
      <trkpt lat="49.83517" lon="2.276">
        <ele>109.4</ele>
        <time>2023-04-05T13:04:17Z</time>
      </trkpt>
      <trkpt lat="49.83518" lon="2.276">
        <ele>109.4</ele>
        <time>2023-04-05T13:04:19Z</time>
      </trkpt>
      <trkpt lat="49.83519" lon="2.276">
        <ele>109.4</ele>
        <time>2023-04-05T13:04:20Z</time>
      </trkpt>
      <trkpt lat="49.8352" lon="2.276">
        <ele>109.4</ele>
        <time>2023-04-05T13:04:21Z</time>
      </trkpt>
      <trkpt lat="49.83521" lon="2.27599">
        <ele>109.4</ele>
        <time>2023-04-05T13:04:22Z</time>
      </trkpt>
      <trkpt lat="49.83522" lon="2.27599">
        <ele>109.5</ele>
        <time>2023-04-05T13:04:23Z</time>
      </trkpt>
      <trkpt lat="49.83524" lon="2.27599">
        <ele>109.5</ele>
        <time>2023-04-05T13:04:24Z</time>
      </trkpt>
      <trkpt lat="49.83525" lon="2.27599">
        <ele>109.5</ele>
        <time>2023-04-05T13:04:25Z</time>
      </trkpt>
      <trkpt lat="49.83527" lon="2.27598">
        <ele>109.5</ele>
        <time>2023-04-05T13:04:26Z</time>
      </trkpt>
      <trkpt lat="49.83528" lon="2.27598">
        <ele>109.5</ele>
        <time>2023-04-05T13:04:27Z</time>
      </trkpt>
      <trkpt lat="49.83529" lon="2.27598">
        <ele>109.5</ele>
        <time>2023-04-05T13:04:29Z</time>
      </trkpt>
      <trkpt lat="49.8353" lon="2.27597">
        <ele>109.5</ele>
        <time>2023-04-05T13:04:30Z</time>
      </trkpt>
      <trkpt lat="49.83531" lon="2.27597">
        <ele>109.5</ele>
        <time>2023-04-05T13:04:31Z</time>
      </trkpt>
      <trkpt lat="49.83532" lon="2.27597">
        <ele>109.5</ele>
        <time>2023-04-05T13:04:32Z</time>
      </trkpt>
      <trkpt lat="49.83533" lon="2.27597">
        <ele>109.5</ele>
        <time>2023-04-05T13:04:33Z</time>
      </trkpt>
      <trkpt lat="49.83534" lon="2.27597">
        <ele>109.6</ele>
        <time>2023-04-05T13:04:34Z</time>
      </trkpt>
      <trkpt lat="49.83535" lon="2.27596">
        <ele>109.6</ele>
        <time>2023-04-05T13:04:35Z</time>
      </trkpt>
      <trkpt lat="49.83536" lon="2.27596">
        <ele>109.6</ele>
        <time>2023-04-05T13:04:36Z</time>
      </trkpt>
      <trkpt lat="49.83537" lon="2.27596">
        <ele>109.6</ele>
        <time>2023-04-05T13:04:37Z</time>
      </trkpt>
      <trkpt lat="49.83538" lon="2.27596">
        <ele>109.6</ele>
        <time>2023-04-05T13:04:39Z</time>
      </trkpt>
      <trkpt lat="49.8354" lon="2.27596">
        <ele>109.6</ele>
        <time>2023-04-05T13:04:40Z</time>
      </trkpt>
      <trkpt lat="49.83541" lon="2.27596">
        <ele>109.6</ele>
        <time>2023-04-05T13:04:41Z</time>
      </trkpt>
      <trkpt lat="49.83542" lon="2.27597">
        <ele>109.7</ele>
        <time>2023-04-05T13:04:42Z</time>
      </trkpt>
      <trkpt lat="49.83544" lon="2.27597">
        <ele>109.7</ele>
        <time>2023-04-05T13:04:43Z</time>
      </trkpt>
      <trkpt lat="49.83545" lon="2.27597">
        <ele>109.7</ele>
        <time>2023-04-05T13:04:45Z</time>
      </trkpt>
      <trkpt lat="49.83546" lon="2.27598">
        <ele>109.7</ele>
        <time>2023-04-05T13:04:46Z</time>
      </trkpt>
      <trkpt lat="49.83547" lon="2.27598">
        <ele>109.7</ele>
        <time>2023-04-05T13:04:47Z</time>
      </trkpt>
      <trkpt lat="49.83548" lon="2.27598">
        <ele>109.7</ele>
        <time>2023-04-05T13:04:48Z</time>
      </trkpt>
      <trkpt lat="49.8355" lon="2.27598">
        <ele>109.8</ele>
        <time>2023-04-05T13:04:49Z</time>
      </trkpt>
      <trkpt lat="49.83552" lon="2.27598">
        <ele>109.8</ele>
        <time>2023-04-05T13:04:51Z</time>
      </trkpt>
      <trkpt lat="49.83553" lon="2.27598">
        <ele>109.8</ele>
        <time>2023-04-05T13:04:52Z</time>
      </trkpt>
      <trkpt lat="49.83554" lon="2.27598">
        <ele>109.8</ele>
        <time>2023-04-05T13:04:53Z</time>
      </trkpt>
      <trkpt lat="49.83555" lon="2.27598">
        <ele>109.8</ele>
        <time>2023-04-05T13:04:54Z</time>
      </trkpt>
      <trkpt lat="49.83557" lon="2.27598">
        <ele>109.9</ele>
        <time>2023-04-05T13:04:55Z</time>
      </trkpt>
      <trkpt lat="49.83558" lon="2.27598">
        <ele>109.9</ele>
        <time>2023-04-05T13:04:56Z</time>
      </trkpt>
      <trkpt lat="49.83558" lon="2.27598">
        <ele>109.9</ele>
        <time>2023-04-05T13:04:57Z</time>
      </trkpt>
      <trkpt lat="49.8356" lon="2.27598">
        <ele>109.9</ele>
        <time>2023-04-05T13:04:58Z</time>
      </trkpt>
      <trkpt lat="49.83562" lon="2.27598">
        <ele>109.9</ele>
        <time>2023-04-05T13:04:59Z</time>
      </trkpt>
      <trkpt lat="49.83563" lon="2.27599">
        <ele>109.9</ele>
        <time>2023-04-05T13:05:00Z</time>
      </trkpt>
      <trkpt lat="49.83564" lon="2.27599">
        <ele>110</ele>
        <time>2023-04-05T13:05:02Z</time>
      </trkpt>
      <trkpt lat="49.83565" lon="2.27599">
        <ele>110</ele>
        <time>2023-04-05T13:05:03Z</time>
      </trkpt>
      <trkpt lat="49.83566" lon="2.27599">
        <ele>110</ele>
        <time>2023-04-05T13:05:04Z</time>
      </trkpt>
      <trkpt lat="49.83567" lon="2.27599">
        <ele>110</ele>
        <time>2023-04-05T13:05:05Z</time>
      </trkpt>
      <trkpt lat="49.83568" lon="2.27599">
        <ele>110</ele>
        <time>2023-04-05T13:05:06Z</time>
      </trkpt>
      <trkpt lat="49.83569" lon="2.276">
        <ele>110</ele>
        <time>2023-04-05T13:05:07Z</time>
      </trkpt>
      <trkpt lat="49.8357" lon="2.276">
        <ele>110</ele>
        <time>2023-04-05T13:05:08Z</time>
      </trkpt>
      <trkpt lat="49.83572" lon="2.276">
        <ele>110.1</ele>
        <time>2023-04-05T13:05:09Z</time>
      </trkpt>
      <trkpt lat="49.83573" lon="2.276">
        <ele>110.1</ele>
        <time>2023-04-05T13:05:10Z</time>
      </trkpt>
      <trkpt lat="49.83573" lon="2.276">
        <ele>110.1</ele>
        <time>2023-04-05T13:05:11Z</time>
      </trkpt>
      <trkpt lat="49.83576" lon="2.27601">
        <ele>110.1</ele>
        <time>2023-04-05T13:05:13Z</time>
      </trkpt>
      <trkpt lat="49.83577" lon="2.27601">
        <ele>110.1</ele>
        <time>2023-04-05T13:05:14Z</time>
      </trkpt>
      <trkpt lat="49.83578" lon="2.27601">
        <ele>110.1</ele>
        <time>2023-04-05T13:05:15Z</time>
      </trkpt>
      <trkpt lat="49.83578" lon="2.27601">
        <ele>110.1</ele>
        <time>2023-04-05T13:05:16Z</time>
      </trkpt>
      <trkpt lat="49.83579" lon="2.27601">
        <ele>110.2</ele>
        <time>2023-04-05T13:05:17Z</time>
      </trkpt>
      <trkpt lat="49.8358" lon="2.27601">
        <ele>110.2</ele>
        <time>2023-04-05T13:05:18Z</time>
      </trkpt>
      <trkpt lat="49.83582" lon="2.27601">
        <ele>110.2</ele>
        <time>2023-04-05T13:05:19Z</time>
      </trkpt>
      <trkpt lat="49.83583" lon="2.27601">
        <ele>110.2</ele>
        <time>2023-04-05T13:05:20Z</time>
      </trkpt>
      <trkpt lat="49.83584" lon="2.27601">
        <ele>110.2</ele>
        <time>2023-04-05T13:05:22Z</time>
      </trkpt>
      <trkpt lat="49.83585" lon="2.27601">
        <ele>110.2</ele>
        <time>2023-04-05T13:05:23Z</time>
      </trkpt>
      <trkpt lat="49.83587" lon="2.27601">
        <ele>110.2</ele>
        <time>2023-04-05T13:05:24Z</time>
      </trkpt>
      <trkpt lat="49.83588" lon="2.27601">
        <ele>110.3</ele>
        <time>2023-04-05T13:05:25Z</time>
      </trkpt>
      <trkpt lat="49.83589" lon="2.27601">
        <ele>110.3</ele>
        <time>2023-04-05T13:05:26Z</time>
      </trkpt>
      <trkpt lat="49.83591" lon="2.27601">
        <ele>110.3</ele>
        <time>2023-04-05T13:05:27Z</time>
      </trkpt>
      <trkpt lat="49.83592" lon="2.27602">
        <ele>110.3</ele>
        <time>2023-04-05T13:05:28Z</time>
      </trkpt>
      <trkpt lat="49.83593" lon="2.27602">
        <ele>110.3</ele>
        <time>2023-04-05T13:05:29Z</time>
      </trkpt>
      <trkpt lat="49.83594" lon="2.27602">
        <ele>110.3</ele>
        <time>2023-04-05T13:05:30Z</time>
      </trkpt>
      <trkpt lat="49.83595" lon="2.27602">
        <ele>110.3</ele>
        <time>2023-04-05T13:05:31Z</time>
      </trkpt>
      <trkpt lat="49.83597" lon="2.27602">
        <ele>110.4</ele>
        <time>2023-04-05T13:05:33Z</time>
      </trkpt>
      <trkpt lat="49.83599" lon="2.27602">
        <ele>110.4</ele>
        <time>2023-04-05T13:05:34Z</time>
      </trkpt>
      <trkpt lat="49.836" lon="2.27602">
        <ele>110.4</ele>
        <time>2023-04-05T13:05:35Z</time>
      </trkpt>
      <trkpt lat="49.83601" lon="2.27602">
        <ele>110.4</ele>
        <time>2023-04-05T13:05:36Z</time>
      </trkpt>
      <trkpt lat="49.83602" lon="2.27602">
        <ele>110.4</ele>
        <time>2023-04-05T13:05:37Z</time>
      </trkpt>
      <trkpt lat="49.83603" lon="2.27602">
        <ele>110.4</ele>
        <time>2023-04-05T13:05:38Z</time>
      </trkpt>
      <trkpt lat="49.83604" lon="2.27602">
        <ele>110.5</ele>
        <time>2023-04-05T13:05:39Z</time>
      </trkpt>
      <trkpt lat="49.83606" lon="2.27602">
        <ele>110.5</ele>
        <time>2023-04-05T13:05:40Z</time>
      </trkpt>
      <trkpt lat="49.83606" lon="2.27601">
        <ele>110.5</ele>
        <time>2023-04-05T13:05:41Z</time>
      </trkpt>
      <trkpt lat="49.83607" lon="2.27601">
        <ele>110.5</ele>
        <time>2023-04-05T13:05:42Z</time>
      </trkpt>
      <trkpt lat="49.83609" lon="2.27601">
        <ele>110.5</ele>
        <time>2023-04-05T13:05:44Z</time>
      </trkpt>
      <trkpt lat="49.8361" lon="2.27601">
        <ele>110.6</ele>
        <time>2023-04-05T13:05:45Z</time>
      </trkpt>
      <trkpt lat="49.83611" lon="2.276">
        <ele>110.6</ele>
        <time>2023-04-05T13:05:46Z</time>
      </trkpt>
      <trkpt lat="49.83612" lon="2.276">
        <ele>110.6</ele>
        <time>2023-04-05T13:05:47Z</time>
      </trkpt>
      <trkpt lat="49.83613" lon="2.27599">
        <ele>110.6</ele>
        <time>2023-04-05T13:05:48Z</time>
      </trkpt>
      <trkpt lat="49.83614" lon="2.27598">
        <ele>110.6</ele>
        <time>2023-04-05T13:05:49Z</time>
      </trkpt>
      <trkpt lat="49.83615" lon="2.27597">
        <ele>110.6</ele>
        <time>2023-04-05T13:05:51Z</time>
      </trkpt>
      <trkpt lat="49.83616" lon="2.27596">
        <ele>110.6</ele>
        <time>2023-04-05T13:05:52Z</time>
      </trkpt>
      <trkpt lat="49.83616" lon="2.27596">
        <ele>110.6</ele>
        <time>2023-04-05T13:05:53Z</time>
      </trkpt>
      <trkpt lat="49.83617" lon="2.27596">
        <ele>110.6</ele>
        <time>2023-04-05T13:05:54Z</time>
      </trkpt>
      <trkpt lat="49.83618" lon="2.27596">
        <ele>110.7</ele>
        <time>2023-04-05T13:05:55Z</time>
      </trkpt>
      <trkpt lat="49.83618" lon="2.27597">
        <ele>110.7</ele>
        <time>2023-04-05T13:05:56Z</time>
      </trkpt>
      <trkpt lat="49.83618" lon="2.276">
        <ele>110.7</ele>
        <time>2023-04-05T13:05:57Z</time>
      </trkpt>
      <trkpt lat="49.83618" lon="2.27601">
        <ele>110.7</ele>
        <time>2023-04-05T13:05:58Z</time>
      </trkpt>
      <trkpt lat="49.83619" lon="2.27602">
        <ele>110.7</ele>
        <time>2023-04-05T13:05:59Z</time>
      </trkpt>
      <trkpt lat="49.8362" lon="2.27602">
        <ele>110.7</ele>
        <time>2023-04-05T13:06:00Z</time>
      </trkpt>
      <trkpt lat="49.83621" lon="2.27602">
        <ele>110.7</ele>
        <time>2023-04-05T13:06:01Z</time>
      </trkpt>
      <trkpt lat="49.83623" lon="2.27602">
        <ele>110.7</ele>
        <time>2023-04-05T13:06:02Z</time>
      </trkpt>
      <trkpt lat="49.83624" lon="2.27602">
        <ele>110.8</ele>
        <time>2023-04-05T13:06:03Z</time>
      </trkpt>
      <trkpt lat="49.83625" lon="2.27602">
        <ele>110.8</ele>
        <time>2023-04-05T13:06:05Z</time>
      </trkpt>
      <trkpt lat="49.83626" lon="2.27602">
        <ele>110.8</ele>
        <time>2023-04-05T13:06:06Z</time>
      </trkpt>
      <trkpt lat="49.83627" lon="2.27602">
        <ele>110.8</ele>
        <time>2023-04-05T13:06:07Z</time>
      </trkpt>
      <trkpt lat="49.83628" lon="2.27602">
        <ele>110.8</ele>
        <time>2023-04-05T13:06:08Z</time>
      </trkpt>
      <trkpt lat="49.83629" lon="2.27602">
        <ele>110.8</ele>
        <time>2023-04-05T13:06:09Z</time>
      </trkpt>
      <trkpt lat="49.83632" lon="2.27602">
        <ele>110.9</ele>
        <time>2023-04-05T13:06:11Z</time>
      </trkpt>
      <trkpt lat="49.83633" lon="2.27602">
        <ele>110.9</ele>
        <time>2023-04-05T13:06:13Z</time>
      </trkpt>
      <trkpt lat="49.83634" lon="2.27602">
        <ele>110.9</ele>
        <time>2023-04-05T13:06:14Z</time>
      </trkpt>
      <trkpt lat="49.83636" lon="2.27602">
        <ele>111</ele>
        <time>2023-04-05T13:06:15Z</time>
      </trkpt>
      <trkpt lat="49.83638" lon="2.27602">
        <ele>111</ele>
        <time>2023-04-05T13:06:16Z</time>
      </trkpt>
      <trkpt lat="49.83642" lon="2.27603">
        <ele>111.1</ele>
        <time>2023-04-05T13:06:18Z</time>
      </trkpt>
      <trkpt lat="49.83643" lon="2.27603">
        <ele>111.1</ele>
        <time>2023-04-05T13:06:19Z</time>
      </trkpt>
      <trkpt lat="49.83645" lon="2.27603">
        <ele>111.2</ele>
        <time>2023-04-05T13:06:20Z</time>
      </trkpt>
      <trkpt lat="49.83646" lon="2.27603">
        <ele>111.2</ele>
        <time>2023-04-05T13:06:21Z</time>
      </trkpt>
      <trkpt lat="49.83648" lon="2.27604">
        <ele>111.2</ele>
        <time>2023-04-05T13:06:22Z</time>
      </trkpt>
      <trkpt lat="49.8365" lon="2.27604">
        <ele>111.2</ele>
        <time>2023-04-05T13:06:23Z</time>
      </trkpt>
      <trkpt lat="49.83651" lon="2.27604">
        <ele>111.3</ele>
        <time>2023-04-05T13:06:24Z</time>
      </trkpt>
      <trkpt lat="49.83654" lon="2.27604">
        <ele>111.3</ele>
        <time>2023-04-05T13:06:25Z</time>
      </trkpt>
      <trkpt lat="49.83655" lon="2.27604">
        <ele>111.3</ele>
        <time>2023-04-05T13:06:26Z</time>
      </trkpt>
      <trkpt lat="49.83657" lon="2.27603">
        <ele>111.4</ele>
        <time>2023-04-05T13:06:28Z</time>
      </trkpt>
      <trkpt lat="49.83658" lon="2.27602">
        <ele>111.4</ele>
        <time>2023-04-05T13:06:29Z</time>
      </trkpt>
      <trkpt lat="49.83659" lon="2.27602">
        <ele>111.4</ele>
        <time>2023-04-05T13:06:30Z</time>
      </trkpt>
      <trkpt lat="49.83661" lon="2.27601">
        <ele>111.4</ele>
        <time>2023-04-05T13:06:31Z</time>
      </trkpt>
      <trkpt lat="49.83662" lon="2.27601">
        <ele>111.4</ele>
        <time>2023-04-05T13:06:32Z</time>
      </trkpt>
      <trkpt lat="49.83662" lon="2.27601">
        <ele>111.4</ele>
        <time>2023-04-05T13:06:33Z</time>
      </trkpt>
      <trkpt lat="49.83663" lon="2.27602">
        <ele>111.5</ele>
        <time>2023-04-05T13:06:34Z</time>
      </trkpt>
      <trkpt lat="49.83664" lon="2.27602">
        <ele>111.5</ele>
        <time>2023-04-05T13:06:35Z</time>
      </trkpt>
      <trkpt lat="49.83665" lon="2.27602">
        <ele>111.5</ele>
        <time>2023-04-05T13:06:37Z</time>
      </trkpt>
      <trkpt lat="49.83664" lon="2.27601">
        <ele>111.5</ele>
        <time>2023-04-05T13:06:38Z</time>
      </trkpt>
      <trkpt lat="49.83664" lon="2.27602">
        <ele>111.5</ele>
        <time>2023-04-05T13:06:39Z</time>
      </trkpt>
      <trkpt lat="49.83665" lon="2.27602">
        <ele>111.5</ele>
        <time>2023-04-05T13:06:40Z</time>
      </trkpt>
      <trkpt lat="49.83665" lon="2.27602">
        <ele>111.5</ele>
        <time>2023-04-05T13:06:41Z</time>
      </trkpt>
      <trkpt lat="49.83667" lon="2.27602">
        <ele>111.6</ele>
        <time>2023-04-05T13:06:43Z</time>
      </trkpt>
      <trkpt lat="49.83668" lon="2.27603">
        <ele>111.6</ele>
        <time>2023-04-05T13:06:44Z</time>
      </trkpt>
      <trkpt lat="49.83669" lon="2.27603">
        <ele>111.6</ele>
        <time>2023-04-05T13:06:45Z</time>
      </trkpt>
      <trkpt lat="49.83671" lon="2.27603">
        <ele>111.6</ele>
        <time>2023-04-05T13:06:46Z</time>
      </trkpt>
      <trkpt lat="49.83672" lon="2.27602">
        <ele>111.6</ele>
        <time>2023-04-05T13:06:47Z</time>
      </trkpt>
      <trkpt lat="49.83673" lon="2.27602">
        <ele>111.6</ele>
        <time>2023-04-05T13:06:48Z</time>
      </trkpt>
      <trkpt lat="49.83674" lon="2.27602">
        <ele>111.7</ele>
        <time>2023-04-05T13:06:49Z</time>
      </trkpt>
      <trkpt lat="49.83675" lon="2.27602">
        <ele>111.7</ele>
        <time>2023-04-05T13:06:50Z</time>
      </trkpt>
      <trkpt lat="49.83677" lon="2.27602">
        <ele>111.7</ele>
        <time>2023-04-05T13:06:51Z</time>
      </trkpt>
      <trkpt lat="49.83678" lon="2.27602">
        <ele>111.7</ele>
        <time>2023-04-05T13:06:52Z</time>
      </trkpt>
      <trkpt lat="49.83679" lon="2.27602">
        <ele>111.7</ele>
        <time>2023-04-05T13:06:53Z</time>
      </trkpt>
      <trkpt lat="49.8368" lon="2.27602">
        <ele>111.8</ele>
        <time>2023-04-05T13:06:55Z</time>
      </trkpt>
      <trkpt lat="49.83681" lon="2.27602">
        <ele>111.8</ele>
        <time>2023-04-05T13:06:56Z</time>
      </trkpt>
      <trkpt lat="49.83682" lon="2.27602">
        <ele>111.8</ele>
        <time>2023-04-05T13:06:57Z</time>
      </trkpt>
      <trkpt lat="49.83683" lon="2.27602">
        <ele>111.8</ele>
        <time>2023-04-05T13:06:58Z</time>
      </trkpt>
      <trkpt lat="49.83685" lon="2.27602">
        <ele>111.9</ele>
        <time>2023-04-05T13:06:59Z</time>
      </trkpt>
      <trkpt lat="49.83688" lon="2.27601">
        <ele>111.9</ele>
        <time>2023-04-05T13:07:00Z</time>
      </trkpt>
      <trkpt lat="49.83689" lon="2.27601">
        <ele>111.9</ele>
        <time>2023-04-05T13:07:01Z</time>
      </trkpt>
      <trkpt lat="49.83692" lon="2.27601">
        <ele>112</ele>
        <time>2023-04-05T13:07:02Z</time>
      </trkpt>
      <trkpt lat="49.83693" lon="2.27601">
        <ele>112</ele>
        <time>2023-04-05T13:07:03Z</time>
      </trkpt>
      <trkpt lat="49.83695" lon="2.27602">
        <ele>112</ele>
        <time>2023-04-05T13:07:04Z</time>
      </trkpt>
      <trkpt lat="49.83696" lon="2.27602">
        <ele>112</ele>
        <time>2023-04-05T13:07:06Z</time>
      </trkpt>
      <trkpt lat="49.83698" lon="2.27602">
        <ele>112</ele>
        <time>2023-04-05T13:07:07Z</time>
      </trkpt>
      <trkpt lat="49.83699" lon="2.27603">
        <ele>112.1</ele>
        <time>2023-04-05T13:07:08Z</time>
      </trkpt>
      <trkpt lat="49.83701" lon="2.27603">
        <ele>112.1</ele>
        <time>2023-04-05T13:07:09Z</time>
      </trkpt>
      <trkpt lat="49.83702" lon="2.27603">
        <ele>112.1</ele>
        <time>2023-04-05T13:07:10Z</time>
      </trkpt>
      <trkpt lat="49.83704" lon="2.27603">
        <ele>112.1</ele>
        <time>2023-04-05T13:07:11Z</time>
      </trkpt>
      <trkpt lat="49.83705" lon="2.27603">
        <ele>112.1</ele>
        <time>2023-04-05T13:07:13Z</time>
      </trkpt>
      <trkpt lat="49.83707" lon="2.27604">
        <ele>112.1</ele>
        <time>2023-04-05T13:07:14Z</time>
      </trkpt>
      <trkpt lat="49.83708" lon="2.27604">
        <ele>112.1</ele>
        <time>2023-04-05T13:07:15Z</time>
      </trkpt>
      <trkpt lat="49.8371" lon="2.27604">
        <ele>112.2</ele>
        <time>2023-04-05T13:07:16Z</time>
      </trkpt>
      <trkpt lat="49.83711" lon="2.27604">
        <ele>112.2</ele>
        <time>2023-04-05T13:07:17Z</time>
      </trkpt>
      <trkpt lat="49.83712" lon="2.27604">
        <ele>112.2</ele>
        <time>2023-04-05T13:07:18Z</time>
      </trkpt>
      <trkpt lat="49.83713" lon="2.27604">
        <ele>112.2</ele>
        <time>2023-04-05T13:07:19Z</time>
      </trkpt>
      <trkpt lat="49.83714" lon="2.27604">
        <ele>112.2</ele>
        <time>2023-04-05T13:07:20Z</time>
      </trkpt>
      <trkpt lat="49.83716" lon="2.27604">
        <ele>112.2</ele>
        <time>2023-04-05T13:07:21Z</time>
      </trkpt>
      <trkpt lat="49.83717" lon="2.27604">
        <ele>112.2</ele>
        <time>2023-04-05T13:07:22Z</time>
      </trkpt>
      <trkpt lat="49.83719" lon="2.27604">
        <ele>112.2</ele>
        <time>2023-04-05T13:07:23Z</time>
      </trkpt>
      <trkpt lat="49.8372" lon="2.27603">
        <ele>112.3</ele>
        <time>2023-04-05T13:07:25Z</time>
      </trkpt>
      <trkpt lat="49.83721" lon="2.27603">
        <ele>112.3</ele>
        <time>2023-04-05T13:07:26Z</time>
      </trkpt>
      <trkpt lat="49.83722" lon="2.27602">
        <ele>112.3</ele>
        <time>2023-04-05T13:07:27Z</time>
      </trkpt>
      <trkpt lat="49.83724" lon="2.27602">
        <ele>112.3</ele>
        <time>2023-04-05T13:07:28Z</time>
      </trkpt>
      <trkpt lat="49.83725" lon="2.27601">
        <ele>112.3</ele>
        <time>2023-04-05T13:07:29Z</time>
      </trkpt>
      <trkpt lat="49.83726" lon="2.27601">
        <ele>112.3</ele>
        <time>2023-04-05T13:07:30Z</time>
      </trkpt>
      <trkpt lat="49.83727" lon="2.27601">
        <ele>112.3</ele>
        <time>2023-04-05T13:07:31Z</time>
      </trkpt>
      <trkpt lat="49.83728" lon="2.27601">
        <ele>112.3</ele>
        <time>2023-04-05T13:07:32Z</time>
      </trkpt>
      <trkpt lat="49.8373" lon="2.276">
        <ele>112.3</ele>
        <time>2023-04-05T13:07:33Z</time>
      </trkpt>
      <trkpt lat="49.83731" lon="2.276">
        <ele>112.4</ele>
        <time>2023-04-05T13:07:34Z</time>
      </trkpt>
      <trkpt lat="49.83732" lon="2.276">
        <ele>112.4</ele>
        <time>2023-04-05T13:07:35Z</time>
      </trkpt>
      <trkpt lat="49.83734" lon="2.276">
        <ele>112.4</ele>
        <time>2023-04-05T13:07:37Z</time>
      </trkpt>
      <trkpt lat="49.83735" lon="2.276">
        <ele>112.4</ele>
        <time>2023-04-05T13:07:38Z</time>
      </trkpt>
      <trkpt lat="49.83736" lon="2.27601">
        <ele>112.4</ele>
        <time>2023-04-05T13:07:39Z</time>
      </trkpt>
      <trkpt lat="49.83737" lon="2.27601">
        <ele>112.4</ele>
        <time>2023-04-05T13:07:40Z</time>
      </trkpt>
      <trkpt lat="49.83738" lon="2.27601">
        <ele>112.4</ele>
        <time>2023-04-05T13:07:41Z</time>
      </trkpt>
      <trkpt lat="49.83739" lon="2.27601">
        <ele>112.4</ele>
        <time>2023-04-05T13:07:42Z</time>
      </trkpt>
      <trkpt lat="49.83741" lon="2.27602">
        <ele>112.4</ele>
        <time>2023-04-05T13:07:43Z</time>
      </trkpt>
      <trkpt lat="49.83741" lon="2.27602">
        <ele>112.4</ele>
        <time>2023-04-05T13:07:44Z</time>
      </trkpt>
      <trkpt lat="49.83743" lon="2.27602">
        <ele>112.5</ele>
        <time>2023-04-05T13:07:45Z</time>
      </trkpt>
      <trkpt lat="49.83745" lon="2.27602">
        <ele>112.5</ele>
        <time>2023-04-05T13:07:47Z</time>
      </trkpt>
      <trkpt lat="49.83746" lon="2.27602">
        <ele>112.5</ele>
        <time>2023-04-05T13:07:48Z</time>
      </trkpt>
      <trkpt lat="49.83747" lon="2.27602">
        <ele>112.5</ele>
        <time>2023-04-05T13:07:49Z</time>
      </trkpt>
      <trkpt lat="49.83748" lon="2.27602">
        <ele>112.5</ele>
        <time>2023-04-05T13:07:50Z</time>
      </trkpt>
      <trkpt lat="49.8375" lon="2.27602">
        <ele>112.5</ele>
        <time>2023-04-05T13:07:52Z</time>
      </trkpt>
      <trkpt lat="49.83751" lon="2.27602">
        <ele>112.5</ele>
        <time>2023-04-05T13:07:53Z</time>
      </trkpt>
      <trkpt lat="49.83752" lon="2.27603">
        <ele>112.5</ele>
        <time>2023-04-05T13:07:54Z</time>
      </trkpt>
      <trkpt lat="49.83753" lon="2.27603">
        <ele>112.5</ele>
        <time>2023-04-05T13:07:55Z</time>
      </trkpt>
      <trkpt lat="49.83755" lon="2.27603">
        <ele>112.5</ele>
        <time>2023-04-05T13:07:56Z</time>
      </trkpt>
      <trkpt lat="49.83756" lon="2.27603">
        <ele>112.5</ele>
        <time>2023-04-05T13:07:58Z</time>
      </trkpt>
      <trkpt lat="49.83757" lon="2.27603">
        <ele>112.5</ele>
        <time>2023-04-05T13:07:59Z</time>
      </trkpt>
      <trkpt lat="49.83758" lon="2.27603">
        <ele>112.5</ele>
        <time>2023-04-05T13:08:00Z</time>
      </trkpt>
      <trkpt lat="49.83759" lon="2.27603">
        <ele>112.5</ele>
        <time>2023-04-05T13:08:01Z</time>
      </trkpt>
      <trkpt lat="49.8376" lon="2.27603">
        <ele>112.5</ele>
        <time>2023-04-05T13:08:02Z</time>
      </trkpt>
      <trkpt lat="49.83762" lon="2.27603">
        <ele>112.5</ele>
        <time>2023-04-05T13:08:03Z</time>
      </trkpt>
      <trkpt lat="49.83763" lon="2.27603">
        <ele>112.5</ele>
        <time>2023-04-05T13:08:04Z</time>
      </trkpt>
      <trkpt lat="49.83764" lon="2.27602">
        <ele>112.5</ele>
        <time>2023-04-05T13:08:05Z</time>
      </trkpt>
      <trkpt lat="49.83765" lon="2.27602">
        <ele>112.5</ele>
        <time>2023-04-05T13:08:06Z</time>
      </trkpt>
      <trkpt lat="49.83766" lon="2.27602">
        <ele>112.5</ele>
        <time>2023-04-05T13:08:07Z</time>
      </trkpt>
      <trkpt lat="49.83768" lon="2.27603">
        <ele>112.5</ele>
        <time>2023-04-05T13:08:09Z</time>
      </trkpt>
      <trkpt lat="49.83768" lon="2.27603">
        <ele>112.5</ele>
        <time>2023-04-05T13:08:10Z</time>
      </trkpt>
      <trkpt lat="49.8377" lon="2.27603">
        <ele>112.5</ele>
        <time>2023-04-05T13:08:11Z</time>
      </trkpt>
      <trkpt lat="49.83771" lon="2.27603">
        <ele>112.5</ele>
        <time>2023-04-05T13:08:12Z</time>
      </trkpt>
      <trkpt lat="49.83772" lon="2.27603">
        <ele>112.6</ele>
        <time>2023-04-05T13:08:13Z</time>
      </trkpt>
      <trkpt lat="49.83773" lon="2.27603">
        <ele>112.6</ele>
        <time>2023-04-05T13:08:14Z</time>
      </trkpt>
      <trkpt lat="49.83774" lon="2.27603">
        <ele>112.6</ele>
        <time>2023-04-05T13:08:15Z</time>
      </trkpt>
      <trkpt lat="49.83776" lon="2.27603">
        <ele>112.7</ele>
        <time>2023-04-05T13:08:16Z</time>
      </trkpt>
      <trkpt lat="49.83777" lon="2.27603">
        <ele>112.7</ele>
        <time>2023-04-05T13:08:17Z</time>
      </trkpt>
      <trkpt lat="49.83778" lon="2.27603">
        <ele>112.7</ele>
        <time>2023-04-05T13:08:18Z</time>
      </trkpt>
      <trkpt lat="49.83779" lon="2.27603">
        <ele>112.7</ele>
        <time>2023-04-05T13:08:19Z</time>
      </trkpt>
      <trkpt lat="49.8378" lon="2.27603">
        <ele>112.7</ele>
        <time>2023-04-05T13:08:21Z</time>
      </trkpt>
      <trkpt lat="49.83781" lon="2.27603">
        <ele>112.8</ele>
        <time>2023-04-05T13:08:22Z</time>
      </trkpt>
      <trkpt lat="49.83783" lon="2.27603">
        <ele>112.8</ele>
        <time>2023-04-05T13:08:23Z</time>
      </trkpt>
      <trkpt lat="49.83784" lon="2.27603">
        <ele>112.8</ele>
        <time>2023-04-05T13:08:24Z</time>
      </trkpt>
      <trkpt lat="49.83785" lon="2.27603">
        <ele>112.8</ele>
        <time>2023-04-05T13:08:25Z</time>
      </trkpt>
      <trkpt lat="49.83787" lon="2.27604">
        <ele>112.8</ele>
        <time>2023-04-05T13:08:26Z</time>
      </trkpt>
      <trkpt lat="49.83788" lon="2.27604">
        <ele>112.8</ele>
        <time>2023-04-05T13:08:27Z</time>
      </trkpt>
      <trkpt lat="49.83789" lon="2.27605">
        <ele>112.8</ele>
        <time>2023-04-05T13:08:28Z</time>
      </trkpt>
      <trkpt lat="49.8379" lon="2.27605">
        <ele>112.8</ele>
        <time>2023-04-05T13:08:29Z</time>
      </trkpt>
      <trkpt lat="49.83791" lon="2.27606">
        <ele>112.9</ele>
        <time>2023-04-05T13:08:30Z</time>
      </trkpt>
      <trkpt lat="49.83792" lon="2.27606">
        <ele>112.9</ele>
        <time>2023-04-05T13:08:32Z</time>
      </trkpt>
      <trkpt lat="49.83793" lon="2.27606">
        <ele>112.9</ele>
        <time>2023-04-05T13:08:33Z</time>
      </trkpt>
      <trkpt lat="49.83795" lon="2.27607">
        <ele>112.9</ele>
        <time>2023-04-05T13:08:34Z</time>
      </trkpt>
      <trkpt lat="49.83796" lon="2.27607">
        <ele>112.9</ele>
        <time>2023-04-05T13:08:35Z</time>
      </trkpt>
      <trkpt lat="49.83797" lon="2.27608">
        <ele>112.9</ele>
        <time>2023-04-05T13:08:36Z</time>
      </trkpt>
      <trkpt lat="49.83798" lon="2.27608">
        <ele>112.9</ele>
        <time>2023-04-05T13:08:37Z</time>
      </trkpt>
      <trkpt lat="49.838" lon="2.27608">
        <ele>112.9</ele>
        <time>2023-04-05T13:08:38Z</time>
      </trkpt>
      <trkpt lat="49.83801" lon="2.27608">
        <ele>112.9</ele>
        <time>2023-04-05T13:08:39Z</time>
      </trkpt>
      <trkpt lat="49.83802" lon="2.27609">
        <ele>112.9</ele>
        <time>2023-04-05T13:08:40Z</time>
      </trkpt>
      <trkpt lat="49.83803" lon="2.27609">
        <ele>112.9</ele>
        <time>2023-04-05T13:08:41Z</time>
      </trkpt>
      <trkpt lat="49.83804" lon="2.27609">
        <ele>112.9</ele>
        <time>2023-04-05T13:08:42Z</time>
      </trkpt>
      <trkpt lat="49.83806" lon="2.2761">
        <ele>113</ele>
        <time>2023-04-05T13:08:44Z</time>
      </trkpt>
      <trkpt lat="49.83807" lon="2.2761">
        <ele>113</ele>
        <time>2023-04-05T13:08:45Z</time>
      </trkpt>
      <trkpt lat="49.83808" lon="2.2761">
        <ele>113</ele>
        <time>2023-04-05T13:08:46Z</time>
      </trkpt>
      <trkpt lat="49.8381" lon="2.27611">
        <ele>113</ele>
        <time>2023-04-05T13:08:47Z</time>
      </trkpt>
      <trkpt lat="49.83812" lon="2.27612">
        <ele>113</ele>
        <time>2023-04-05T13:08:48Z</time>
      </trkpt>
      <trkpt lat="49.83812" lon="2.27612">
        <ele>113</ele>
        <time>2023-04-05T13:08:49Z</time>
      </trkpt>
      <trkpt lat="49.83813" lon="2.27612">
        <ele>113</ele>
        <time>2023-04-05T13:08:50Z</time>
      </trkpt>
      <trkpt lat="49.83815" lon="2.27613">
        <ele>113</ele>
        <time>2023-04-05T13:08:51Z</time>
      </trkpt>
      <trkpt lat="49.83816" lon="2.27613">
        <ele>113</ele>
        <time>2023-04-05T13:08:52Z</time>
      </trkpt>
      <trkpt lat="49.83817" lon="2.27614">
        <ele>113</ele>
        <time>2023-04-05T13:08:53Z</time>
      </trkpt>
      <trkpt lat="49.83818" lon="2.27614">
        <ele>113</ele>
        <time>2023-04-05T13:08:54Z</time>
      </trkpt>
      <trkpt lat="49.83819" lon="2.27614">
        <ele>113</ele>
        <time>2023-04-05T13:08:55Z</time>
      </trkpt>
      <trkpt lat="49.8382" lon="2.27614">
        <ele>113</ele>
        <time>2023-04-05T13:08:57Z</time>
      </trkpt>
      <trkpt lat="49.83821" lon="2.27614">
        <ele>113</ele>
        <time>2023-04-05T13:08:58Z</time>
      </trkpt>
      <trkpt lat="49.83823" lon="2.27614">
        <ele>113.1</ele>
        <time>2023-04-05T13:08:59Z</time>
      </trkpt>
      <trkpt lat="49.83824" lon="2.27615">
        <ele>113.1</ele>
        <time>2023-04-05T13:09:00Z</time>
      </trkpt>
      <trkpt lat="49.83825" lon="2.27615">
        <ele>113.1</ele>
        <time>2023-04-05T13:09:01Z</time>
      </trkpt>
      <trkpt lat="49.83826" lon="2.27615">
        <ele>113.1</ele>
        <time>2023-04-05T13:09:02Z</time>
      </trkpt>
      <trkpt lat="49.83828" lon="2.27615">
        <ele>113.1</ele>
        <time>2023-04-05T13:09:03Z</time>
      </trkpt>
      <trkpt lat="49.83829" lon="2.27615">
        <ele>113.1</ele>
        <time>2023-04-05T13:09:04Z</time>
      </trkpt>
      <trkpt lat="49.8383" lon="2.27615">
        <ele>113.1</ele>
        <time>2023-04-05T13:09:05Z</time>
      </trkpt>
      <trkpt lat="49.83832" lon="2.27615">
        <ele>113.1</ele>
        <time>2023-04-05T13:09:06Z</time>
      </trkpt>
      <trkpt lat="49.83833" lon="2.27615">
        <ele>113.1</ele>
        <time>2023-04-05T13:09:08Z</time>
      </trkpt>
      <trkpt lat="49.83833" lon="2.27615">
        <ele>113.1</ele>
        <time>2023-04-05T13:09:09Z</time>
      </trkpt>
      <trkpt lat="49.83834" lon="2.27615">
        <ele>113.1</ele>
        <time>2023-04-05T13:09:10Z</time>
      </trkpt>
      <trkpt lat="49.83835" lon="2.27616">
        <ele>113.1</ele>
        <time>2023-04-05T13:09:11Z</time>
      </trkpt>
      <trkpt lat="49.83836" lon="2.27616">
        <ele>113.1</ele>
        <time>2023-04-05T13:09:12Z</time>
      </trkpt>
      <trkpt lat="49.83837" lon="2.27617">
        <ele>113.1</ele>
        <time>2023-04-05T13:09:13Z</time>
      </trkpt>
      <trkpt lat="49.83838" lon="2.27618">
        <ele>113.1</ele>
        <time>2023-04-05T13:09:14Z</time>
      </trkpt>
      <trkpt lat="49.83839" lon="2.27618">
        <ele>113.1</ele>
        <time>2023-04-05T13:09:15Z</time>
      </trkpt>
      <trkpt lat="49.83841" lon="2.27618">
        <ele>113.1</ele>
        <time>2023-04-05T13:09:16Z</time>
      </trkpt>
      <trkpt lat="49.83842" lon="2.27618">
        <ele>113.1</ele>
        <time>2023-04-05T13:09:18Z</time>
      </trkpt>
      <trkpt lat="49.83843" lon="2.27618">
        <ele>113.1</ele>
        <time>2023-04-05T13:09:19Z</time>
      </trkpt>
      <trkpt lat="49.83844" lon="2.27618">
        <ele>113.1</ele>
        <time>2023-04-05T13:09:20Z</time>
      </trkpt>
      <trkpt lat="49.83845" lon="2.27618">
        <ele>113.1</ele>
        <time>2023-04-05T13:09:21Z</time>
      </trkpt>
      <trkpt lat="49.83847" lon="2.27618">
        <ele>113.1</ele>
        <time>2023-04-05T13:09:22Z</time>
      </trkpt>
      <trkpt lat="49.83848" lon="2.27619">
        <ele>113.1</ele>
        <time>2023-04-05T13:09:23Z</time>
      </trkpt>
      <trkpt lat="49.83849" lon="2.27619">
        <ele>113.1</ele>
        <time>2023-04-05T13:09:24Z</time>
      </trkpt>
      <trkpt lat="49.8385" lon="2.27619">
        <ele>113.1</ele>
        <time>2023-04-05T13:09:25Z</time>
      </trkpt>
      <trkpt lat="49.83851" lon="2.27619">
        <ele>113.1</ele>
        <time>2023-04-05T13:09:26Z</time>
      </trkpt>
      <trkpt lat="49.83852" lon="2.27619">
        <ele>113.1</ele>
        <time>2023-04-05T13:09:27Z</time>
      </trkpt>
      <trkpt lat="49.83854" lon="2.2762">
        <ele>113.1</ele>
        <time>2023-04-05T13:09:29Z</time>
      </trkpt>
      <trkpt lat="49.83855" lon="2.2762">
        <ele>113.1</ele>
        <time>2023-04-05T13:09:30Z</time>
      </trkpt>
      <trkpt lat="49.83857" lon="2.27621">
        <ele>113.1</ele>
        <time>2023-04-05T13:09:31Z</time>
      </trkpt>
      <trkpt lat="49.83858" lon="2.27621">
        <ele>113.1</ele>
        <time>2023-04-05T13:09:32Z</time>
      </trkpt>
      <trkpt lat="49.83859" lon="2.27622">
        <ele>113.1</ele>
        <time>2023-04-05T13:09:33Z</time>
      </trkpt>
      <trkpt lat="49.83861" lon="2.27622">
        <ele>113.2</ele>
        <time>2023-04-05T13:09:35Z</time>
      </trkpt>
      <trkpt lat="49.83862" lon="2.27623">
        <ele>113.2</ele>
        <time>2023-04-05T13:09:36Z</time>
      </trkpt>
      <trkpt lat="49.83863" lon="2.27623">
        <ele>113.2</ele>
        <time>2023-04-05T13:09:37Z</time>
      </trkpt>
      <trkpt lat="49.83864" lon="2.27623">
        <ele>113.2</ele>
        <time>2023-04-05T13:09:38Z</time>
      </trkpt>
      <trkpt lat="49.83866" lon="2.27623">
        <ele>113.2</ele>
        <time>2023-04-05T13:09:39Z</time>
      </trkpt>
      <trkpt lat="49.83867" lon="2.27623">
        <ele>113.2</ele>
        <time>2023-04-05T13:09:40Z</time>
      </trkpt>
      <trkpt lat="49.83868" lon="2.27624">
        <ele>113.2</ele>
        <time>2023-04-05T13:09:41Z</time>
      </trkpt>
      <trkpt lat="49.83869" lon="2.27623">
        <ele>113.2</ele>
        <time>2023-04-05T13:09:42Z</time>
      </trkpt>
      <trkpt lat="49.83872" lon="2.27623">
        <ele>113.2</ele>
        <time>2023-04-05T13:09:44Z</time>
      </trkpt>
      <trkpt lat="49.83872" lon="2.27623">
        <ele>113.2</ele>
        <time>2023-04-05T13:09:46Z</time>
      </trkpt>
      <trkpt lat="49.83873" lon="2.27624">
        <ele>113.2</ele>
        <time>2023-04-05T13:09:47Z</time>
      </trkpt>
      <trkpt lat="49.83873" lon="2.27623">
        <ele>113.2</ele>
        <time>2023-04-05T13:09:48Z</time>
      </trkpt>
      <trkpt lat="49.83874" lon="2.27624">
        <ele>113.2</ele>
        <time>2023-04-05T13:09:49Z</time>
      </trkpt>
      <trkpt lat="49.83875" lon="2.27624">
        <ele>113.2</ele>
        <time>2023-04-05T13:09:50Z</time>
      </trkpt>
      <trkpt lat="49.83876" lon="2.27624">
        <ele>113.2</ele>
        <time>2023-04-05T13:09:52Z</time>
      </trkpt>
      <trkpt lat="49.83877" lon="2.27624">
        <ele>113.2</ele>
        <time>2023-04-05T13:09:53Z</time>
      </trkpt>
      <trkpt lat="49.83878" lon="2.27625">
        <ele>113.3</ele>
        <time>2023-04-05T13:09:54Z</time>
      </trkpt>
      <trkpt lat="49.83879" lon="2.27625">
        <ele>113.3</ele>
        <time>2023-04-05T13:09:55Z</time>
      </trkpt>
      <trkpt lat="49.83879" lon="2.27625">
        <ele>113.3</ele>
        <time>2023-04-05T13:09:56Z</time>
      </trkpt>
      <trkpt lat="49.83879" lon="2.27626">
        <ele>113.3</ele>
        <time>2023-04-05T13:09:57Z</time>
      </trkpt>
      <trkpt lat="49.8388" lon="2.27627">
        <ele>113.3</ele>
        <time>2023-04-05T13:09:59Z</time>
      </trkpt>
      <trkpt lat="49.83881" lon="2.27627">
        <ele>113.3</ele>
        <time>2023-04-05T13:10:00Z</time>
      </trkpt>
      <trkpt lat="49.83882" lon="2.27628">
        <ele>113.3</ele>
        <time>2023-04-05T13:10:01Z</time>
      </trkpt>
      <trkpt lat="49.83884" lon="2.27629">
        <ele>113.3</ele>
        <time>2023-04-05T13:10:02Z</time>
      </trkpt>
      <trkpt lat="49.83885" lon="2.27629">
        <ele>113.3</ele>
        <time>2023-04-05T13:10:03Z</time>
      </trkpt>
      <trkpt lat="49.83885" lon="2.27629">
        <ele>113.3</ele>
        <time>2023-04-05T13:10:04Z</time>
      </trkpt>
      <trkpt lat="49.83887" lon="2.27629">
        <ele>113.3</ele>
        <time>2023-04-05T13:10:05Z</time>
      </trkpt>
      <trkpt lat="49.83888" lon="2.2763">
        <ele>113.3</ele>
        <time>2023-04-05T13:10:06Z</time>
      </trkpt>
      <trkpt lat="49.8389" lon="2.2763">
        <ele>113.3</ele>
        <time>2023-04-05T13:10:07Z</time>
      </trkpt>
      <trkpt lat="49.83891" lon="2.27631">
        <ele>113.3</ele>
        <time>2023-04-05T13:10:08Z</time>
      </trkpt>
      <trkpt lat="49.83892" lon="2.27631">
        <ele>113.3</ele>
        <time>2023-04-05T13:10:09Z</time>
      </trkpt>
      <trkpt lat="49.83895" lon="2.27632">
        <ele>113.3</ele>
        <time>2023-04-05T13:10:10Z</time>
      </trkpt>
      <trkpt lat="49.83896" lon="2.27633">
        <ele>113.3</ele>
        <time>2023-04-05T13:10:12Z</time>
      </trkpt>
      <trkpt lat="49.83897" lon="2.27633">
        <ele>113.3</ele>
        <time>2023-04-05T13:10:13Z</time>
      </trkpt>
      <trkpt lat="49.83899" lon="2.27634">
        <ele>113.3</ele>
        <time>2023-04-05T13:10:14Z</time>
      </trkpt>
      <trkpt lat="49.83902" lon="2.27635">
        <ele>113.3</ele>
        <time>2023-04-05T13:10:15Z</time>
      </trkpt>
      <trkpt lat="49.83903" lon="2.27635">
        <ele>113.3</ele>
        <time>2023-04-05T13:10:16Z</time>
      </trkpt>
      <trkpt lat="49.83905" lon="2.27636">
        <ele>113.3</ele>
        <time>2023-04-05T13:10:17Z</time>
      </trkpt>
      <trkpt lat="49.83906" lon="2.27636">
        <ele>113.3</ele>
        <time>2023-04-05T13:10:18Z</time>
      </trkpt>
      <trkpt lat="49.83908" lon="2.27636">
        <ele>113.3</ele>
        <time>2023-04-05T13:10:19Z</time>
      </trkpt>
      <trkpt lat="49.83909" lon="2.27636">
        <ele>113.3</ele>
        <time>2023-04-05T13:10:20Z</time>
      </trkpt>
      <trkpt lat="49.83911" lon="2.27637">
        <ele>113.3</ele>
        <time>2023-04-05T13:10:21Z</time>
      </trkpt>
      <trkpt lat="49.83912" lon="2.27637">
        <ele>113.3</ele>
        <time>2023-04-05T13:10:22Z</time>
      </trkpt>
      <trkpt lat="49.83913" lon="2.27638">
        <ele>113.3</ele>
        <time>2023-04-05T13:10:24Z</time>
      </trkpt>
      <trkpt lat="49.83914" lon="2.27638">
        <ele>113.3</ele>
        <time>2023-04-05T13:10:25Z</time>
      </trkpt>
      <trkpt lat="49.83915" lon="2.27639">
        <ele>113.3</ele>
        <time>2023-04-05T13:10:26Z</time>
      </trkpt>
      <trkpt lat="49.83917" lon="2.27639">
        <ele>113.3</ele>
        <time>2023-04-05T13:10:27Z</time>
      </trkpt>
      <trkpt lat="49.83919" lon="2.2764">
        <ele>113.3</ele>
        <time>2023-04-05T13:10:28Z</time>
      </trkpt>
      <trkpt lat="49.83921" lon="2.27641">
        <ele>113.3</ele>
        <time>2023-04-05T13:10:29Z</time>
      </trkpt>
      <trkpt lat="49.83921" lon="2.27641">
        <ele>113.3</ele>
        <time>2023-04-05T13:10:31Z</time>
      </trkpt>
      <trkpt lat="49.83922" lon="2.27642">
        <ele>113.3</ele>
        <time>2023-04-05T13:10:32Z</time>
      </trkpt>
      <trkpt lat="49.83923" lon="2.27643">
        <ele>113.3</ele>
        <time>2023-04-05T13:10:33Z</time>
      </trkpt>
      <trkpt lat="49.83925" lon="2.27644">
        <ele>113.3</ele>
        <time>2023-04-05T13:10:34Z</time>
      </trkpt>
      <trkpt lat="49.83926" lon="2.27645">
        <ele>113.2</ele>
        <time>2023-04-05T13:10:35Z</time>
      </trkpt>
      <trkpt lat="49.83927" lon="2.27647">
        <ele>113.2</ele>
        <time>2023-04-05T13:10:36Z</time>
      </trkpt>
      <trkpt lat="49.83928" lon="2.27648">
        <ele>113.2</ele>
        <time>2023-04-05T13:10:37Z</time>
      </trkpt>
      <trkpt lat="49.8393" lon="2.27649">
        <ele>113.2</ele>
        <time>2023-04-05T13:10:38Z</time>
      </trkpt>
      <trkpt lat="49.8393" lon="2.2765">
        <ele>113.2</ele>
        <time>2023-04-05T13:10:39Z</time>
      </trkpt>
      <trkpt lat="49.83931" lon="2.27651">
        <ele>113.2</ele>
        <time>2023-04-05T13:10:40Z</time>
      </trkpt>
      <trkpt lat="49.83932" lon="2.27652">
        <ele>113.2</ele>
        <time>2023-04-05T13:10:41Z</time>
      </trkpt>
      <trkpt lat="49.83933" lon="2.27653">
        <ele>113.2</ele>
        <time>2023-04-05T13:10:42Z</time>
      </trkpt>
      <trkpt lat="49.83935" lon="2.27655">
        <ele>113.2</ele>
        <time>2023-04-05T13:10:43Z</time>
      </trkpt>
      <trkpt lat="49.83936" lon="2.27656">
        <ele>113.2</ele>
        <time>2023-04-05T13:10:44Z</time>
      </trkpt>
      <trkpt lat="49.83937" lon="2.27657">
        <ele>113.2</ele>
        <time>2023-04-05T13:10:46Z</time>
      </trkpt>
      <trkpt lat="49.83938" lon="2.27658">
        <ele>113.2</ele>
        <time>2023-04-05T13:10:47Z</time>
      </trkpt>
      <trkpt lat="49.83939" lon="2.27659">
        <ele>113.2</ele>
        <time>2023-04-05T13:10:48Z</time>
      </trkpt>
      <trkpt lat="49.8394" lon="2.2766">
        <ele>113.2</ele>
        <time>2023-04-05T13:10:49Z</time>
      </trkpt>
      <trkpt lat="49.83942" lon="2.27662">
        <ele>113.1</ele>
        <time>2023-04-05T13:10:50Z</time>
      </trkpt>
      <trkpt lat="49.83943" lon="2.27663">
        <ele>113.1</ele>
        <time>2023-04-05T13:10:51Z</time>
      </trkpt>
      <trkpt lat="49.83943" lon="2.27663">
        <ele>113.1</ele>
        <time>2023-04-05T13:10:52Z</time>
      </trkpt>
      <trkpt lat="49.83945" lon="2.27665">
        <ele>113.1</ele>
        <time>2023-04-05T13:10:53Z</time>
      </trkpt>
      <trkpt lat="49.83945" lon="2.27665">
        <ele>113.1</ele>
        <time>2023-04-05T13:10:54Z</time>
      </trkpt>
      <trkpt lat="49.83946" lon="2.27666">
        <ele>113.1</ele>
        <time>2023-04-05T13:10:55Z</time>
      </trkpt>
      <trkpt lat="49.83948" lon="2.27667">
        <ele>113.1</ele>
        <time>2023-04-05T13:10:56Z</time>
      </trkpt>
      <trkpt lat="49.83949" lon="2.27667">
        <ele>113.1</ele>
        <time>2023-04-05T13:10:57Z</time>
      </trkpt>
      <trkpt lat="49.8395" lon="2.27667">
        <ele>113.1</ele>
        <time>2023-04-05T13:10:58Z</time>
      </trkpt>
      <trkpt lat="49.83952" lon="2.27668">
        <ele>113.1</ele>
        <time>2023-04-05T13:10:59Z</time>
      </trkpt>
      <trkpt lat="49.83953" lon="2.27668">
        <ele>113.1</ele>
        <time>2023-04-05T13:11:01Z</time>
      </trkpt>
      <trkpt lat="49.83954" lon="2.27668">
        <ele>113.1</ele>
        <time>2023-04-05T13:11:02Z</time>
      </trkpt>
      <trkpt lat="49.83955" lon="2.27669">
        <ele>113.1</ele>
        <time>2023-04-05T13:11:03Z</time>
      </trkpt>
      <trkpt lat="49.83956" lon="2.27669">
        <ele>113.1</ele>
        <time>2023-04-05T13:11:04Z</time>
      </trkpt>
      <trkpt lat="49.83958" lon="2.2767">
        <ele>113.1</ele>
        <time>2023-04-05T13:11:05Z</time>
      </trkpt>
      <trkpt lat="49.83959" lon="2.27671">
        <ele>113.1</ele>
        <time>2023-04-05T13:11:06Z</time>
      </trkpt>
      <trkpt lat="49.8396" lon="2.27671">
        <ele>113.1</ele>
        <time>2023-04-05T13:11:07Z</time>
      </trkpt>
      <trkpt lat="49.83961" lon="2.27672">
        <ele>113.1</ele>
        <time>2023-04-05T13:11:08Z</time>
      </trkpt>
      <trkpt lat="49.83962" lon="2.27673">
        <ele>113.1</ele>
        <time>2023-04-05T13:11:10Z</time>
      </trkpt>
      <trkpt lat="49.83963" lon="2.27674">
        <ele>113.1</ele>
        <time>2023-04-05T13:11:11Z</time>
      </trkpt>
      <trkpt lat="49.83964" lon="2.27675">
        <ele>113.1</ele>
        <time>2023-04-05T13:11:12Z</time>
      </trkpt>
      <trkpt lat="49.83965" lon="2.27675">
        <ele>113</ele>
        <time>2023-04-05T13:11:13Z</time>
      </trkpt>
      <trkpt lat="49.83967" lon="2.27677">
        <ele>113</ele>
        <time>2023-04-05T13:11:14Z</time>
      </trkpt>
      <trkpt lat="49.83968" lon="2.27678">
        <ele>113</ele>
        <time>2023-04-05T13:11:15Z</time>
      </trkpt>
      <trkpt lat="49.83969" lon="2.27679">
        <ele>113</ele>
        <time>2023-04-05T13:11:16Z</time>
      </trkpt>
      <trkpt lat="49.8397" lon="2.2768">
        <ele>113</ele>
        <time>2023-04-05T13:11:17Z</time>
      </trkpt>
      <trkpt lat="49.83971" lon="2.27681">
        <ele>113</ele>
        <time>2023-04-05T13:11:18Z</time>
      </trkpt>
      <trkpt lat="49.83972" lon="2.27682">
        <ele>113</ele>
        <time>2023-04-05T13:11:19Z</time>
      </trkpt>
      <trkpt lat="49.83973" lon="2.27683">
        <ele>113</ele>
        <time>2023-04-05T13:11:20Z</time>
      </trkpt>
      <trkpt lat="49.83974" lon="2.27684">
        <ele>113</ele>
        <time>2023-04-05T13:11:21Z</time>
      </trkpt>
      <trkpt lat="49.83975" lon="2.27684">
        <ele>113</ele>
        <time>2023-04-05T13:11:22Z</time>
      </trkpt>
      <trkpt lat="49.83977" lon="2.27685">
        <ele>113</ele>
        <time>2023-04-05T13:11:23Z</time>
      </trkpt>
      <trkpt lat="49.83978" lon="2.27686">
        <ele>113</ele>
        <time>2023-04-05T13:11:25Z</time>
      </trkpt>
      <trkpt lat="49.83979" lon="2.27687">
        <ele>113</ele>
        <time>2023-04-05T13:11:26Z</time>
      </trkpt>
      <trkpt lat="49.83979" lon="2.27687">
        <ele>113</ele>
        <time>2023-04-05T13:11:27Z</time>
      </trkpt>
      <trkpt lat="49.8398" lon="2.27688">
        <ele>113</ele>
        <time>2023-04-05T13:11:28Z</time>
      </trkpt>
      <trkpt lat="49.83982" lon="2.27689">
        <ele>113</ele>
        <time>2023-04-05T13:11:29Z</time>
      </trkpt>
      <trkpt lat="49.83983" lon="2.2769">
        <ele>113</ele>
        <time>2023-04-05T13:11:30Z</time>
      </trkpt>
      <trkpt lat="49.83984" lon="2.2769">
        <ele>113</ele>
        <time>2023-04-05T13:11:31Z</time>
      </trkpt>
      <trkpt lat="49.83985" lon="2.27691">
        <ele>113</ele>
        <time>2023-04-05T13:11:32Z</time>
      </trkpt>
      <trkpt lat="49.83986" lon="2.27691">
        <ele>113</ele>
        <time>2023-04-05T13:11:33Z</time>
      </trkpt>
      <trkpt lat="49.83987" lon="2.27692">
        <ele>113</ele>
        <time>2023-04-05T13:11:34Z</time>
      </trkpt>
      <trkpt lat="49.83988" lon="2.27693">
        <ele>113.1</ele>
        <time>2023-04-05T13:11:35Z</time>
      </trkpt>
      <trkpt lat="49.8399" lon="2.27694">
        <ele>113.1</ele>
        <time>2023-04-05T13:11:36Z</time>
      </trkpt>
      <trkpt lat="49.83991" lon="2.27695">
        <ele>113.1</ele>
        <time>2023-04-05T13:11:38Z</time>
      </trkpt>
      <trkpt lat="49.83992" lon="2.27696">
        <ele>113.1</ele>
        <time>2023-04-05T13:11:39Z</time>
      </trkpt>
      <trkpt lat="49.83993" lon="2.27696">
        <ele>113.1</ele>
        <time>2023-04-05T13:11:40Z</time>
      </trkpt>
      <trkpt lat="49.83994" lon="2.27698">
        <ele>113.1</ele>
        <time>2023-04-05T13:11:41Z</time>
      </trkpt>
      <trkpt lat="49.83995" lon="2.27698">
        <ele>113.1</ele>
        <time>2023-04-05T13:11:42Z</time>
      </trkpt>
      <trkpt lat="49.83996" lon="2.27699">
        <ele>113.1</ele>
        <time>2023-04-05T13:11:43Z</time>
      </trkpt>
      <trkpt lat="49.83997" lon="2.277">
        <ele>113.1</ele>
        <time>2023-04-05T13:11:44Z</time>
      </trkpt>
      <trkpt lat="49.83998" lon="2.27701">
        <ele>113.1</ele>
        <time>2023-04-05T13:11:45Z</time>
      </trkpt>
      <trkpt lat="49.83999" lon="2.27702">
        <ele>113.1</ele>
        <time>2023-04-05T13:11:46Z</time>
      </trkpt>
      <trkpt lat="49.84" lon="2.27703">
        <ele>113.1</ele>
        <time>2023-04-05T13:11:47Z</time>
      </trkpt>
      <trkpt lat="49.84001" lon="2.27704">
        <ele>113.1</ele>
        <time>2023-04-05T13:11:48Z</time>
      </trkpt>
      <trkpt lat="49.84003" lon="2.27705">
        <ele>113.1</ele>
        <time>2023-04-05T13:11:50Z</time>
      </trkpt>
      <trkpt lat="49.84004" lon="2.27706">
        <ele>113.1</ele>
        <time>2023-04-05T13:11:51Z</time>
      </trkpt>
      <trkpt lat="49.84005" lon="2.27707">
        <ele>113.1</ele>
        <time>2023-04-05T13:11:52Z</time>
      </trkpt>
      <trkpt lat="49.84006" lon="2.27708">
        <ele>113.1</ele>
        <time>2023-04-05T13:11:53Z</time>
      </trkpt>
      <trkpt lat="49.84007" lon="2.27709">
        <ele>113</ele>
        <time>2023-04-05T13:11:54Z</time>
      </trkpt>
      <trkpt lat="49.84008" lon="2.2771">
        <ele>113</ele>
        <time>2023-04-05T13:11:55Z</time>
      </trkpt>
      <trkpt lat="49.84009" lon="2.27712">
        <ele>113</ele>
        <time>2023-04-05T13:11:56Z</time>
      </trkpt>
      <trkpt lat="49.8401" lon="2.27713">
        <ele>113</ele>
        <time>2023-04-05T13:11:57Z</time>
      </trkpt>
      <trkpt lat="49.84011" lon="2.27714">
        <ele>113</ele>
        <time>2023-04-05T13:11:58Z</time>
      </trkpt>
      <trkpt lat="49.84012" lon="2.27715">
        <ele>113</ele>
        <time>2023-04-05T13:11:59Z</time>
      </trkpt>
      <trkpt lat="49.84013" lon="2.27716">
        <ele>113</ele>
        <time>2023-04-05T13:12:00Z</time>
      </trkpt>
      <trkpt lat="49.84014" lon="2.27716">
        <ele>113</ele>
        <time>2023-04-05T13:12:01Z</time>
      </trkpt>
      <trkpt lat="49.84015" lon="2.27718">
        <ele>113</ele>
        <time>2023-04-05T13:12:02Z</time>
      </trkpt>
      <trkpt lat="49.84016" lon="2.27718">
        <ele>113</ele>
        <time>2023-04-05T13:12:04Z</time>
      </trkpt>
      <trkpt lat="49.84016" lon="2.27719">
        <ele>113</ele>
        <time>2023-04-05T13:12:05Z</time>
      </trkpt>
      <trkpt lat="49.84018" lon="2.27719">
        <ele>113</ele>
        <time>2023-04-05T13:12:06Z</time>
      </trkpt>
      <trkpt lat="49.84019" lon="2.2772">
        <ele>113</ele>
        <time>2023-04-05T13:12:07Z</time>
      </trkpt>
      <trkpt lat="49.8402" lon="2.27721">
        <ele>113</ele>
        <time>2023-04-05T13:12:08Z</time>
      </trkpt>
      <trkpt lat="49.84021" lon="2.27722">
        <ele>113</ele>
        <time>2023-04-05T13:12:09Z</time>
      </trkpt>
      <trkpt lat="49.84023" lon="2.27722">
        <ele>113</ele>
        <time>2023-04-05T13:12:11Z</time>
      </trkpt>
      <trkpt lat="49.84024" lon="2.27723">
        <ele>113</ele>
        <time>2023-04-05T13:12:12Z</time>
      </trkpt>
      <trkpt lat="49.84026" lon="2.27724">
        <ele>113</ele>
        <time>2023-04-05T13:12:13Z</time>
      </trkpt>
      <trkpt lat="49.84027" lon="2.27726">
        <ele>113</ele>
        <time>2023-04-05T13:12:14Z</time>
      </trkpt>
      <trkpt lat="49.84028" lon="2.27726">
        <ele>113</ele>
        <time>2023-04-05T13:12:15Z</time>
      </trkpt>
      <trkpt lat="49.84029" lon="2.27727">
        <ele>113</ele>
        <time>2023-04-05T13:12:16Z</time>
      </trkpt>
      <trkpt lat="49.8403" lon="2.27728">
        <ele>113</ele>
        <time>2023-04-05T13:12:17Z</time>
      </trkpt>
      <trkpt lat="49.84031" lon="2.27728">
        <ele>113</ele>
        <time>2023-04-05T13:12:18Z</time>
      </trkpt>
      <trkpt lat="49.84032" lon="2.27729">
        <ele>113</ele>
        <time>2023-04-05T13:12:19Z</time>
      </trkpt>
      <trkpt lat="49.84034" lon="2.27731">
        <ele>113</ele>
        <time>2023-04-05T13:12:20Z</time>
      </trkpt>
      <trkpt lat="49.84035" lon="2.27731">
        <ele>113</ele>
        <time>2023-04-05T13:12:21Z</time>
      </trkpt>
      <trkpt lat="49.84035" lon="2.27732">
        <ele>113</ele>
        <time>2023-04-05T13:12:22Z</time>
      </trkpt>
      <trkpt lat="49.84036" lon="2.27732">
        <ele>113</ele>
        <time>2023-04-05T13:12:23Z</time>
      </trkpt>
      <trkpt lat="49.84037" lon="2.27733">
        <ele>113</ele>
        <time>2023-04-05T13:12:25Z</time>
      </trkpt>
      <trkpt lat="49.84038" lon="2.27733">
        <ele>113</ele>
        <time>2023-04-05T13:12:26Z</time>
      </trkpt>
      <trkpt lat="49.8404" lon="2.27735">
        <ele>113</ele>
        <time>2023-04-05T13:12:27Z</time>
      </trkpt>
      <trkpt lat="49.84041" lon="2.27735">
        <ele>113</ele>
        <time>2023-04-05T13:12:28Z</time>
      </trkpt>
      <trkpt lat="49.84042" lon="2.27736">
        <ele>113</ele>
        <time>2023-04-05T13:12:29Z</time>
      </trkpt>
      <trkpt lat="49.84043" lon="2.27738">
        <ele>113</ele>
        <time>2023-04-05T13:12:30Z</time>
      </trkpt>
      <trkpt lat="49.84044" lon="2.27739">
        <ele>112.9</ele>
        <time>2023-04-05T13:12:31Z</time>
      </trkpt>
      <trkpt lat="49.84044" lon="2.2774">
        <ele>112.9</ele>
        <time>2023-04-05T13:12:32Z</time>
      </trkpt>
      <trkpt lat="49.84045" lon="2.27741">
        <ele>112.9</ele>
        <time>2023-04-05T13:12:33Z</time>
      </trkpt>
      <trkpt lat="49.84046" lon="2.27742">
        <ele>112.9</ele>
        <time>2023-04-05T13:12:34Z</time>
      </trkpt>
      <trkpt lat="49.84047" lon="2.27744">
        <ele>112.9</ele>
        <time>2023-04-05T13:12:35Z</time>
      </trkpt>
      <trkpt lat="49.84048" lon="2.27744">
        <ele>112.9</ele>
        <time>2023-04-05T13:12:36Z</time>
      </trkpt>
      <trkpt lat="49.84049" lon="2.27745">
        <ele>112.9</ele>
        <time>2023-04-05T13:12:38Z</time>
      </trkpt>
      <trkpt lat="49.8405" lon="2.27745">
        <ele>112.9</ele>
        <time>2023-04-05T13:12:39Z</time>
      </trkpt>
      <trkpt lat="49.84051" lon="2.27745">
        <ele>112.9</ele>
        <time>2023-04-05T13:12:40Z</time>
      </trkpt>
      <trkpt lat="49.84052" lon="2.27746">
        <ele>112.9</ele>
        <time>2023-04-05T13:12:41Z</time>
      </trkpt>
      <trkpt lat="49.84053" lon="2.27747">
        <ele>112.9</ele>
        <time>2023-04-05T13:12:42Z</time>
      </trkpt>
      <trkpt lat="49.84055" lon="2.27748">
        <ele>112.9</ele>
        <time>2023-04-05T13:12:43Z</time>
      </trkpt>
      <trkpt lat="49.84056" lon="2.27748">
        <ele>112.9</ele>
        <time>2023-04-05T13:12:44Z</time>
      </trkpt>
      <trkpt lat="49.84057" lon="2.27749">
        <ele>112.9</ele>
        <time>2023-04-05T13:12:45Z</time>
      </trkpt>
      <trkpt lat="49.84058" lon="2.2775">
        <ele>112.9</ele>
        <time>2023-04-05T13:12:46Z</time>
      </trkpt>
      <trkpt lat="49.84059" lon="2.27752">
        <ele>112.9</ele>
        <time>2023-04-05T13:12:47Z</time>
      </trkpt>
      <trkpt lat="49.84061" lon="2.27753">
        <ele>112.9</ele>
        <time>2023-04-05T13:12:48Z</time>
      </trkpt>
      <trkpt lat="49.84062" lon="2.27753">
        <ele>112.9</ele>
        <time>2023-04-05T13:12:49Z</time>
      </trkpt>
      <trkpt lat="49.84062" lon="2.27754">
        <ele>112.9</ele>
        <time>2023-04-05T13:12:50Z</time>
      </trkpt>
      <trkpt lat="49.84064" lon="2.27755">
        <ele>112.8</ele>
        <time>2023-04-05T13:12:52Z</time>
      </trkpt>
      <trkpt lat="49.84065" lon="2.27756">
        <ele>112.8</ele>
        <time>2023-04-05T13:12:53Z</time>
      </trkpt>
      <trkpt lat="49.84067" lon="2.27758">
        <ele>112.8</ele>
        <time>2023-04-05T13:12:54Z</time>
      </trkpt>
      <trkpt lat="49.84067" lon="2.27758">
        <ele>112.8</ele>
        <time>2023-04-05T13:12:55Z</time>
      </trkpt>
      <trkpt lat="49.84068" lon="2.27759">
        <ele>112.8</ele>
        <time>2023-04-05T13:12:56Z</time>
      </trkpt>
      <trkpt lat="49.84069" lon="2.2776">
        <ele>112.8</ele>
        <time>2023-04-05T13:12:57Z</time>
      </trkpt>
      <trkpt lat="49.84071" lon="2.27761">
        <ele>112.8</ele>
        <time>2023-04-05T13:12:58Z</time>
      </trkpt>
      <trkpt lat="49.84071" lon="2.27761">
        <ele>112.8</ele>
        <time>2023-04-05T13:12:59Z</time>
      </trkpt>
      <trkpt lat="49.84073" lon="2.27763">
        <ele>112.8</ele>
        <time>2023-04-05T13:13:00Z</time>
      </trkpt>
      <trkpt lat="49.84074" lon="2.27763">
        <ele>112.8</ele>
        <time>2023-04-05T13:13:01Z</time>
      </trkpt>
      <trkpt lat="49.84075" lon="2.27764">
        <ele>112.8</ele>
        <time>2023-04-05T13:13:02Z</time>
      </trkpt>
      <trkpt lat="49.84076" lon="2.27764">
        <ele>112.8</ele>
        <time>2023-04-05T13:13:03Z</time>
      </trkpt>
      <trkpt lat="49.84077" lon="2.27765">
        <ele>112.8</ele>
        <time>2023-04-05T13:13:04Z</time>
      </trkpt>
      <trkpt lat="49.84078" lon="2.27765">
        <ele>112.8</ele>
        <time>2023-04-05T13:13:06Z</time>
      </trkpt>
      <trkpt lat="49.84079" lon="2.27765">
        <ele>112.8</ele>
        <time>2023-04-05T13:13:07Z</time>
      </trkpt>
      <trkpt lat="49.8408" lon="2.27766">
        <ele>112.7</ele>
        <time>2023-04-05T13:13:08Z</time>
      </trkpt>
      <trkpt lat="49.84081" lon="2.27766">
        <ele>112.7</ele>
        <time>2023-04-05T13:13:09Z</time>
      </trkpt>
      <trkpt lat="49.84082" lon="2.27767">
        <ele>112.7</ele>
        <time>2023-04-05T13:13:10Z</time>
      </trkpt>
      <trkpt lat="49.84083" lon="2.27767">
        <ele>112.7</ele>
        <time>2023-04-05T13:13:11Z</time>
      </trkpt>
      <trkpt lat="49.84084" lon="2.27768">
        <ele>112.7</ele>
        <time>2023-04-05T13:13:12Z</time>
      </trkpt>
      <trkpt lat="49.84085" lon="2.27769">
        <ele>112.7</ele>
        <time>2023-04-05T13:13:13Z</time>
      </trkpt>
      <trkpt lat="49.84086" lon="2.27769">
        <ele>112.7</ele>
        <time>2023-04-05T13:13:14Z</time>
      </trkpt>
      <trkpt lat="49.84087" lon="2.2777">
        <ele>112.7</ele>
        <time>2023-04-05T13:13:15Z</time>
      </trkpt>
      <trkpt lat="49.84088" lon="2.27771">
        <ele>112.7</ele>
        <time>2023-04-05T13:13:17Z</time>
      </trkpt>
      <trkpt lat="49.8409" lon="2.27772">
        <ele>112.7</ele>
        <time>2023-04-05T13:13:18Z</time>
      </trkpt>
      <trkpt lat="49.84091" lon="2.27774">
        <ele>112.7</ele>
        <time>2023-04-05T13:13:19Z</time>
      </trkpt>
      <trkpt lat="49.84092" lon="2.27774">
        <ele>112.7</ele>
        <time>2023-04-05T13:13:20Z</time>
      </trkpt>
      <trkpt lat="49.84093" lon="2.27775">
        <ele>112.7</ele>
        <time>2023-04-05T13:13:21Z</time>
      </trkpt>
      <trkpt lat="49.84094" lon="2.27776">
        <ele>112.7</ele>
        <time>2023-04-05T13:13:22Z</time>
      </trkpt>
      <trkpt lat="49.84096" lon="2.27777">
        <ele>112.7</ele>
        <time>2023-04-05T13:13:23Z</time>
      </trkpt>
      <trkpt lat="49.84096" lon="2.27777">
        <ele>112.7</ele>
        <time>2023-04-05T13:13:24Z</time>
      </trkpt>
      <trkpt lat="49.84097" lon="2.27778">
        <ele>112.7</ele>
        <time>2023-04-05T13:13:25Z</time>
      </trkpt>
      <trkpt lat="49.84099" lon="2.27779">
        <ele>112.7</ele>
        <time>2023-04-05T13:13:26Z</time>
      </trkpt>
      <trkpt lat="49.841" lon="2.2778">
        <ele>112.6</ele>
        <time>2023-04-05T13:13:28Z</time>
      </trkpt>
      <trkpt lat="49.84101" lon="2.27781">
        <ele>112.6</ele>
        <time>2023-04-05T13:13:29Z</time>
      </trkpt>
      <trkpt lat="49.84102" lon="2.27782">
        <ele>112.6</ele>
        <time>2023-04-05T13:13:30Z</time>
      </trkpt>
      <trkpt lat="49.84103" lon="2.27783">
        <ele>112.6</ele>
        <time>2023-04-05T13:13:31Z</time>
      </trkpt>
      <trkpt lat="49.84105" lon="2.27784">
        <ele>112.6</ele>
        <time>2023-04-05T13:13:32Z</time>
      </trkpt>
      <trkpt lat="49.84106" lon="2.27786">
        <ele>112.6</ele>
        <time>2023-04-05T13:13:33Z</time>
      </trkpt>
      <trkpt lat="49.84107" lon="2.27787">
        <ele>112.6</ele>
        <time>2023-04-05T13:13:34Z</time>
      </trkpt>
      <trkpt lat="49.84108" lon="2.27787">
        <ele>112.6</ele>
        <time>2023-04-05T13:13:35Z</time>
      </trkpt>
      <trkpt lat="49.84109" lon="2.27788">
        <ele>112.6</ele>
        <time>2023-04-05T13:13:36Z</time>
      </trkpt>
      <trkpt lat="49.84111" lon="2.27791">
        <ele>112.6</ele>
        <time>2023-04-05T13:13:37Z</time>
      </trkpt>
      <trkpt lat="49.84112" lon="2.27791">
        <ele>112.6</ele>
        <time>2023-04-05T13:13:39Z</time>
      </trkpt>
      <trkpt lat="49.84112" lon="2.27792">
        <ele>112.6</ele>
        <time>2023-04-05T13:13:40Z</time>
      </trkpt>
      <trkpt lat="49.84114" lon="2.27794">
        <ele>112.6</ele>
        <time>2023-04-05T13:13:41Z</time>
      </trkpt>
      <trkpt lat="49.84114" lon="2.27795">
        <ele>112.6</ele>
        <time>2023-04-05T13:13:42Z</time>
      </trkpt>
      <trkpt lat="49.84115" lon="2.27796">
        <ele>112.6</ele>
        <time>2023-04-05T13:13:43Z</time>
      </trkpt>
      <trkpt lat="49.84116" lon="2.27797">
        <ele>112.6</ele>
        <time>2023-04-05T13:13:44Z</time>
      </trkpt>
      <trkpt lat="49.84117" lon="2.27797">
        <ele>112.6</ele>
        <time>2023-04-05T13:13:45Z</time>
      </trkpt>
      <trkpt lat="49.84118" lon="2.27798">
        <ele>112.6</ele>
        <time>2023-04-05T13:13:47Z</time>
      </trkpt>
      <trkpt lat="49.84119" lon="2.27799">
        <ele>112.6</ele>
        <time>2023-04-05T13:13:48Z</time>
      </trkpt>
      <trkpt lat="49.8412" lon="2.278">
        <ele>112.6</ele>
        <time>2023-04-05T13:13:49Z</time>
      </trkpt>
      <trkpt lat="49.84121" lon="2.27801">
        <ele>112.6</ele>
        <time>2023-04-05T13:13:50Z</time>
      </trkpt>
      <trkpt lat="49.84122" lon="2.27802">
        <ele>112.6</ele>
        <time>2023-04-05T13:13:51Z</time>
      </trkpt>
      <trkpt lat="49.84123" lon="2.27802">
        <ele>112.6</ele>
        <time>2023-04-05T13:13:52Z</time>
      </trkpt>
      <trkpt lat="49.84124" lon="2.27803">
        <ele>112.6</ele>
        <time>2023-04-05T13:13:53Z</time>
      </trkpt>
      <trkpt lat="49.84125" lon="2.27804">
        <ele>112.6</ele>
        <time>2023-04-05T13:13:55Z</time>
      </trkpt>
      <trkpt lat="49.84126" lon="2.27805">
        <ele>112.6</ele>
        <time>2023-04-05T13:13:56Z</time>
      </trkpt>
      <trkpt lat="49.84127" lon="2.27805">
        <ele>112.6</ele>
        <time>2023-04-05T13:13:57Z</time>
      </trkpt>
      <trkpt lat="49.84128" lon="2.27806">
        <ele>112.6</ele>
        <time>2023-04-05T13:13:58Z</time>
      </trkpt>
      <trkpt lat="49.84129" lon="2.27806">
        <ele>112.6</ele>
        <time>2023-04-05T13:13:59Z</time>
      </trkpt>
      <trkpt lat="49.84131" lon="2.27807">
        <ele>112.6</ele>
        <time>2023-04-05T13:14:01Z</time>
      </trkpt>
      <trkpt lat="49.84132" lon="2.27807">
        <ele>112.6</ele>
        <time>2023-04-05T13:14:02Z</time>
      </trkpt>
      <trkpt lat="49.84133" lon="2.27808">
        <ele>112.6</ele>
        <time>2023-04-05T13:14:04Z</time>
      </trkpt>
      <trkpt lat="49.84134" lon="2.27808">
        <ele>112.6</ele>
        <time>2023-04-05T13:14:05Z</time>
      </trkpt>
      <trkpt lat="49.84135" lon="2.27808">
        <ele>112.6</ele>
        <time>2023-04-05T13:14:07Z</time>
      </trkpt>
      <trkpt lat="49.84135" lon="2.27808">
        <ele>112.6</ele>
        <time>2023-04-05T13:14:08Z</time>
      </trkpt>
      <trkpt lat="49.84135" lon="2.27807">
        <ele>112.6</ele>
        <time>2023-04-05T13:14:10Z</time>
      </trkpt>
      <trkpt lat="49.84135" lon="2.27807">
        <ele>112.6</ele>
        <time>2023-04-05T13:14:11Z</time>
      </trkpt>
      <trkpt lat="49.84135" lon="2.27806">
        <ele>112.6</ele>
        <time>2023-04-05T13:14:12Z</time>
      </trkpt>
      <trkpt lat="49.84136" lon="2.27806">
        <ele>112.6</ele>
        <time>2023-04-05T13:14:14Z</time>
      </trkpt>
      <trkpt lat="49.84136" lon="2.27806">
        <ele>112.6</ele>
        <time>2023-04-05T13:14:15Z</time>
      </trkpt>
      <trkpt lat="49.84136" lon="2.27806">
        <ele>112.6</ele>
        <time>2023-04-05T13:14:17Z</time>
      </trkpt>
      <trkpt lat="49.84136" lon="2.27806">
        <ele>112.6</ele>
        <time>2023-04-05T13:14:18Z</time>
      </trkpt>
      <trkpt lat="49.84136" lon="2.27806">
        <ele>112.6</ele>
        <time>2023-04-05T13:14:19Z</time>
      </trkpt>
      <trkpt lat="49.84136" lon="2.27806">
        <ele>112.6</ele>
        <time>2023-04-05T13:14:21Z</time>
      </trkpt>
      <trkpt lat="49.84135" lon="2.27806">
        <ele>112.6</ele>
        <time>2023-04-05T13:14:22Z</time>
      </trkpt>
      <trkpt lat="49.84135" lon="2.27806">
        <ele>112.6</ele>
        <time>2023-04-05T13:14:24Z</time>
      </trkpt>
      <trkpt lat="49.84135" lon="2.27806">
        <ele>112.6</ele>
        <time>2023-04-05T13:14:25Z</time>
      </trkpt>
      <trkpt lat="49.84135" lon="2.27806">
        <ele>112.6</ele>
        <time>2023-04-05T13:14:26Z</time>
      </trkpt>
      <trkpt lat="49.84135" lon="2.27806">
        <ele>112.6</ele>
        <time>2023-04-05T13:14:27Z</time>
      </trkpt>
      <trkpt lat="49.84135" lon="2.27806">
        <ele>112.6</ele>
        <time>2023-04-05T13:14:28Z</time>
      </trkpt>
      <trkpt lat="49.84135" lon="2.27806">
        <ele>112.6</ele>
        <time>2023-04-05T13:14:29Z</time>
      </trkpt>
      <trkpt lat="49.84135" lon="2.27806">
        <ele>112.6</ele>
        <time>2023-04-05T13:14:30Z</time>
      </trkpt>
      <trkpt lat="49.84135" lon="2.27806">
        <ele>112.6</ele>
        <time>2023-04-05T13:14:31Z</time>
      </trkpt>
      <trkpt lat="49.84135" lon="2.27806">
        <ele>112.6</ele>
        <time>2023-04-05T13:14:32Z</time>
      </trkpt>
      <trkpt lat="49.84135" lon="2.27806">
        <ele>112.6</ele>
        <time>2023-04-05T13:14:33Z</time>
      </trkpt>
      <trkpt lat="49.84135" lon="2.27806">
        <ele>112.6</ele>
        <time>2023-04-05T13:14:34Z</time>
      </trkpt>
      <trkpt lat="49.84135" lon="2.27806">
        <ele>112.6</ele>
        <time>2023-04-05T13:14:35Z</time>
      </trkpt>
      <trkpt lat="49.84135" lon="2.27806">
        <ele>112.6</ele>
        <time>2023-04-05T13:14:36Z</time>
      </trkpt>
      <trkpt lat="49.84135" lon="2.27806">
        <ele>112.6</ele>
        <time>2023-04-05T13:14:37Z</time>
      </trkpt>
      <trkpt lat="49.84135" lon="2.27806">
        <ele>112.6</ele>
        <time>2023-04-05T13:14:38Z</time>
      </trkpt>
      <trkpt lat="49.84135" lon="2.27806">
        <ele>112.6</ele>
        <time>2023-04-05T13:14:39Z</time>
      </trkpt>
      <trkpt lat="49.84135" lon="2.27806">
        <ele>112.6</ele>
        <time>2023-04-05T13:14:40Z</time>
      </trkpt>
      <trkpt lat="49.84135" lon="2.27806">
        <ele>112.6</ele>
        <time>2023-04-05T13:14:41Z</time>
      </trkpt>
      <trkpt lat="49.84135" lon="2.27806">
        <ele>112.6</ele>
        <time>2023-04-05T13:14:42Z</time>
      </trkpt>
      <trkpt lat="49.84135" lon="2.27806">
        <ele>112.6</ele>
        <time>2023-04-05T13:14:43Z</time>
      </trkpt>
      <trkpt lat="49.84135" lon="2.27806">
        <ele>112.6</ele>
        <time>2023-04-05T13:14:44Z</time>
      </trkpt>
      <trkpt lat="49.84135" lon="2.27806">
        <ele>112.6</ele>
        <time>2023-04-05T13:14:45Z</time>
      </trkpt>
      <trkpt lat="49.84135" lon="2.27806">
        <ele>112.6</ele>
        <time>2023-04-05T13:14:46Z</time>
      </trkpt>
      <trkpt lat="49.84135" lon="2.27806">
        <ele>112.6</ele>
        <time>2023-04-05T13:14:47Z</time>
      </trkpt>
      <trkpt lat="49.84135" lon="2.27806">
        <ele>112.6</ele>
        <time>2023-04-05T13:14:48Z</time>
      </trkpt>
      <trkpt lat="49.84134" lon="2.27806">
        <ele>112.6</ele>
        <time>2023-04-05T13:14:49Z</time>
      </trkpt>
      <trkpt lat="49.84134" lon="2.27806">
        <ele>112.6</ele>
        <time>2023-04-05T13:14:50Z</time>
      </trkpt>
      <trkpt lat="49.84134" lon="2.27806">
        <ele>112.6</ele>
        <time>2023-04-05T13:14:51Z</time>
      </trkpt>
      <trkpt lat="49.84134" lon="2.27806">
        <ele>112.6</ele>
        <time>2023-04-05T13:14:52Z</time>
      </trkpt>
      <trkpt lat="49.84134" lon="2.27806">
        <ele>112.6</ele>
        <time>2023-04-05T13:14:53Z</time>
      </trkpt>
      <trkpt lat="49.84134" lon="2.27806">
        <ele>112.6</ele>
        <time>2023-04-05T13:14:54Z</time>
      </trkpt>
      <trkpt lat="49.84134" lon="2.27806">
        <ele>112.6</ele>
        <time>2023-04-05T13:14:55Z</time>
      </trkpt>
      <trkpt lat="49.84134" lon="2.27806">
        <ele>112.6</ele>
        <time>2023-04-05T13:14:56Z</time>
      </trkpt>
      <trkpt lat="49.84134" lon="2.27806">
        <ele>112.6</ele>
        <time>2023-04-05T13:14:57Z</time>
      </trkpt>
      <trkpt lat="49.84134" lon="2.27806">
        <ele>112.6</ele>
        <time>2023-04-05T13:14:58Z</time>
      </trkpt>
      <trkpt lat="49.84134" lon="2.27806">
        <ele>112.6</ele>
        <time>2023-04-05T13:14:59Z</time>
      </trkpt>
      <trkpt lat="49.84134" lon="2.27806">
        <ele>112.6</ele>
        <time>2023-04-05T13:15:00Z</time>
      </trkpt>
      <trkpt lat="49.84134" lon="2.27806">
        <ele>112.6</ele>
        <time>2023-04-05T13:15:01Z</time>
      </trkpt>
      <trkpt lat="49.84134" lon="2.27806">
        <ele>112.6</ele>
        <time>2023-04-05T13:15:02Z</time>
      </trkpt>
      <trkpt lat="49.84134" lon="2.27806">
        <ele>112.6</ele>
        <time>2023-04-05T13:15:03Z</time>
      </trkpt>
      <trkpt lat="49.84134" lon="2.27806">
        <ele>112.6</ele>
        <time>2023-04-05T13:15:04Z</time>
      </trkpt>
      <trkpt lat="49.84134" lon="2.27806">
        <ele>112.6</ele>
        <time>2023-04-05T13:15:05Z</time>
      </trkpt>
      <trkpt lat="49.84134" lon="2.27806">
        <ele>112.6</ele>
        <time>2023-04-05T13:15:06Z</time>
      </trkpt>
      <trkpt lat="49.84134" lon="2.27806">
        <ele>112.6</ele>
        <time>2023-04-05T13:15:07Z</time>
      </trkpt>
      <trkpt lat="49.84134" lon="2.27806">
        <ele>112.6</ele>
        <time>2023-04-05T13:15:08Z</time>
      </trkpt>
      <trkpt lat="49.84134" lon="2.27806">
        <ele>112.6</ele>
        <time>2023-04-05T13:15:09Z</time>
      </trkpt>
      <trkpt lat="49.84134" lon="2.27806">
        <ele>112.6</ele>
        <time>2023-04-05T13:15:10Z</time>
      </trkpt>
      <trkpt lat="49.84134" lon="2.27806">
        <ele>112.6</ele>
        <time>2023-04-05T13:15:11Z</time>
      </trkpt>
      <trkpt lat="49.84134" lon="2.27806">
        <ele>112.6</ele>
        <time>2023-04-05T13:15:12Z</time>
      </trkpt>
      <trkpt lat="49.84134" lon="2.27806">
        <ele>112.6</ele>
        <time>2023-04-05T13:15:13Z</time>
      </trkpt>
      <trkpt lat="49.84134" lon="2.27807">
        <ele>112.6</ele>
        <time>2023-04-05T13:15:14Z</time>
      </trkpt>
      <trkpt lat="49.84134" lon="2.27807">
        <ele>112.6</ele>
        <time>2023-04-05T13:15:15Z</time>
      </trkpt>
      <trkpt lat="49.84133" lon="2.27807">
        <ele>112.6</ele>
        <time>2023-04-05T13:15:16Z</time>
      </trkpt>
      <trkpt lat="49.84133" lon="2.27807">
        <ele>112.6</ele>
        <time>2023-04-05T13:15:17Z</time>
      </trkpt>
      <trkpt lat="49.84133" lon="2.27807">
        <ele>112.6</ele>
        <time>2023-04-05T13:15:18Z</time>
      </trkpt>
      <trkpt lat="49.84133" lon="2.27807">
        <ele>112.6</ele>
        <time>2023-04-05T13:15:19Z</time>
      </trkpt>
      <trkpt lat="49.84133" lon="2.27807">
        <ele>112.6</ele>
        <time>2023-04-05T13:15:20Z</time>
      </trkpt>
      <trkpt lat="49.84133" lon="2.27807">
        <ele>112.6</ele>
        <time>2023-04-05T13:15:21Z</time>
      </trkpt>
      <trkpt lat="49.84133" lon="2.27807">
        <ele>112.6</ele>
        <time>2023-04-05T13:15:22Z</time>
      </trkpt>
      <trkpt lat="49.84133" lon="2.27807">
        <ele>112.6</ele>
        <time>2023-04-05T13:15:23Z</time>
      </trkpt>
      <trkpt lat="49.84133" lon="2.27807">
        <ele>112.6</ele>
        <time>2023-04-05T13:15:24Z</time>
      </trkpt>
      <trkpt lat="49.84133" lon="2.27807">
        <ele>112.6</ele>
        <time>2023-04-05T13:15:25Z</time>
      </trkpt>
      <trkpt lat="49.84133" lon="2.27807">
        <ele>112.6</ele>
        <time>2023-04-05T13:15:26Z</time>
      </trkpt>
      <trkpt lat="49.84133" lon="2.27807">
        <ele>112.6</ele>
        <time>2023-04-05T13:15:27Z</time>
      </trkpt>
      <trkpt lat="49.84133" lon="2.27807">
        <ele>112.6</ele>
        <time>2023-04-05T13:15:28Z</time>
      </trkpt>
      <trkpt lat="49.84133" lon="2.27807">
        <ele>112.6</ele>
        <time>2023-04-05T13:15:29Z</time>
      </trkpt>
      <trkpt lat="49.84133" lon="2.27807">
        <ele>112.6</ele>
        <time>2023-04-05T13:15:30Z</time>
      </trkpt>
      <trkpt lat="49.84133" lon="2.27807">
        <ele>112.6</ele>
        <time>2023-04-05T13:15:31Z</time>
      </trkpt>
      <trkpt lat="49.84133" lon="2.27807">
        <ele>112.6</ele>
        <time>2023-04-05T13:15:32Z</time>
      </trkpt>
      <trkpt lat="49.84133" lon="2.27807">
        <ele>112.6</ele>
        <time>2023-04-05T13:15:33Z</time>
      </trkpt>
      <trkpt lat="49.84133" lon="2.27807">
        <ele>112.6</ele>
        <time>2023-04-05T13:15:34Z</time>
      </trkpt>
      <trkpt lat="49.84133" lon="2.27807">
        <ele>112.6</ele>
        <time>2023-04-05T13:15:35Z</time>
      </trkpt>
      <trkpt lat="49.84133" lon="2.27807">
        <ele>112.6</ele>
        <time>2023-04-05T13:15:36Z</time>
      </trkpt>
      <trkpt lat="49.84133" lon="2.27807">
        <ele>112.6</ele>
        <time>2023-04-05T13:15:37Z</time>
      </trkpt>
      <trkpt lat="49.84133" lon="2.27807">
        <ele>112.6</ele>
        <time>2023-04-05T13:15:38Z</time>
      </trkpt>
      <trkpt lat="49.84133" lon="2.27807">
        <ele>112.6</ele>
        <time>2023-04-05T13:15:39Z</time>
      </trkpt>
      <trkpt lat="49.84133" lon="2.27807">
        <ele>112.6</ele>
        <time>2023-04-05T13:15:40Z</time>
      </trkpt>
      <trkpt lat="49.84133" lon="2.27807">
        <ele>112.6</ele>
        <time>2023-04-05T13:15:41Z</time>
      </trkpt>
      <trkpt lat="49.84133" lon="2.27807">
        <ele>112.6</ele>
        <time>2023-04-05T13:15:42Z</time>
      </trkpt>
      <trkpt lat="49.84132" lon="2.27807">
        <ele>112.6</ele>
        <time>2023-04-05T13:15:43Z</time>
      </trkpt>
      <trkpt lat="49.84132" lon="2.27807">
        <ele>112.6</ele>
        <time>2023-04-05T13:15:44Z</time>
      </trkpt>
      <trkpt lat="49.84132" lon="2.27807">
        <ele>112.6</ele>
        <time>2023-04-05T13:15:45Z</time>
      </trkpt>
      <trkpt lat="49.84132" lon="2.27807">
        <ele>112.6</ele>
        <time>2023-04-05T13:15:46Z</time>
      </trkpt>
      <trkpt lat="49.84132" lon="2.27807">
        <ele>112.6</ele>
        <time>2023-04-05T13:15:47Z</time>
      </trkpt>
      <trkpt lat="49.84132" lon="2.27807">
        <ele>112.6</ele>
        <time>2023-04-05T13:15:48Z</time>
      </trkpt>
      <trkpt lat="49.84132" lon="2.27807">
        <ele>112.6</ele>
        <time>2023-04-05T13:15:49Z</time>
      </trkpt>
      <trkpt lat="49.84132" lon="2.27807">
        <ele>112.6</ele>
        <time>2023-04-05T13:15:50Z</time>
      </trkpt>
      <trkpt lat="49.84132" lon="2.27807">
        <ele>112.6</ele>
        <time>2023-04-05T13:15:51Z</time>
      </trkpt>
      <trkpt lat="49.84132" lon="2.27807">
        <ele>112.6</ele>
        <time>2023-04-05T13:15:52Z</time>
      </trkpt>
      <trkpt lat="49.84132" lon="2.27807">
        <ele>112.6</ele>
        <time>2023-04-05T13:15:53Z</time>
      </trkpt>
      <trkpt lat="49.84132" lon="2.27807">
        <ele>112.6</ele>
        <time>2023-04-05T13:15:54Z</time>
      </trkpt>
      <trkpt lat="49.84132" lon="2.27807">
        <ele>112.6</ele>
        <time>2023-04-05T13:15:55Z</time>
      </trkpt>
      <trkpt lat="49.84132" lon="2.27807">
        <ele>112.6</ele>
        <time>2023-04-05T13:15:56Z</time>
      </trkpt>
      <trkpt lat="49.84132" lon="2.27807">
        <ele>112.6</ele>
        <time>2023-04-05T13:15:57Z</time>
      </trkpt>
      <trkpt lat="49.84132" lon="2.27807">
        <ele>112.6</ele>
        <time>2023-04-05T13:15:58Z</time>
      </trkpt>
      <trkpt lat="49.84132" lon="2.27807">
        <ele>112.6</ele>
        <time>2023-04-05T13:15:59Z</time>
      </trkpt>
      <trkpt lat="49.84132" lon="2.27807">
        <ele>112.6</ele>
        <time>2023-04-05T13:16:00Z</time>
      </trkpt>
      <trkpt lat="49.84132" lon="2.27807">
        <ele>112.6</ele>
        <time>2023-04-05T13:16:01Z</time>
      </trkpt>
      <trkpt lat="49.8413" lon="2.27808">
        <ele>112.6</ele>
        <time>2023-04-05T13:16:02Z</time>
      </trkpt>
      <trkpt lat="49.8413" lon="2.27808">
        <ele>112.6</ele>
        <time>2023-04-05T13:16:03Z</time>
      </trkpt>
      <trkpt lat="49.84131" lon="2.27808">
        <ele>112.6</ele>
        <time>2023-04-05T13:16:04Z</time>
      </trkpt>
      <trkpt lat="49.84131" lon="2.27809">
        <ele>112.6</ele>
        <time>2023-04-05T13:16:05Z</time>
      </trkpt>
      <trkpt lat="49.84131" lon="2.27809">
        <ele>112.6</ele>
        <time>2023-04-05T13:16:06Z</time>
      </trkpt>
      <trkpt lat="49.84132" lon="2.2781">
        <ele>112.6</ele>
        <time>2023-04-05T13:16:07Z</time>
      </trkpt>
      <trkpt lat="49.84133" lon="2.27811">
        <ele>112.6</ele>
        <time>2023-04-05T13:16:08Z</time>
      </trkpt>
      <trkpt lat="49.84134" lon="2.27812">
        <ele>112.6</ele>
        <time>2023-04-05T13:16:09Z</time>
      </trkpt>
      <trkpt lat="49.84134" lon="2.27812">
        <ele>112.6</ele>
        <time>2023-04-05T13:16:10Z</time>
      </trkpt>
      <trkpt lat="49.84135" lon="2.27813">
        <ele>112.6</ele>
        <time>2023-04-05T13:16:11Z</time>
      </trkpt>
      <trkpt lat="49.84135" lon="2.27813">
        <ele>112.6</ele>
        <time>2023-04-05T13:16:12Z</time>
      </trkpt>
      <trkpt lat="49.84136" lon="2.27814">
        <ele>112.6</ele>
        <time>2023-04-05T13:16:13Z</time>
      </trkpt>
      <trkpt lat="49.84137" lon="2.27814">
        <ele>112.6</ele>
        <time>2023-04-05T13:16:14Z</time>
      </trkpt>
      <trkpt lat="49.84137" lon="2.27815">
        <ele>112.6</ele>
        <time>2023-04-05T13:16:15Z</time>
      </trkpt>
      <trkpt lat="49.84138" lon="2.27815">
        <ele>112.6</ele>
        <time>2023-04-05T13:16:16Z</time>
      </trkpt>
      <trkpt lat="49.84139" lon="2.27816">
        <ele>112.6</ele>
        <time>2023-04-05T13:16:17Z</time>
      </trkpt>
      <trkpt lat="49.84141" lon="2.27818">
        <ele>112.6</ele>
        <time>2023-04-05T13:16:18Z</time>
      </trkpt>
      <trkpt lat="49.84141" lon="2.27818">
        <ele>112.6</ele>
        <time>2023-04-05T13:16:19Z</time>
      </trkpt>
      <trkpt lat="49.84142" lon="2.27819">
        <ele>112.6</ele>
        <time>2023-04-05T13:16:20Z</time>
      </trkpt>
      <trkpt lat="49.84144" lon="2.2782">
        <ele>112.6</ele>
        <time>2023-04-05T13:16:21Z</time>
      </trkpt>
      <trkpt lat="49.84145" lon="2.27821">
        <ele>112.6</ele>
        <time>2023-04-05T13:16:22Z</time>
      </trkpt>
      <trkpt lat="49.84146" lon="2.27821">
        <ele>112.6</ele>
        <time>2023-04-05T13:16:23Z</time>
      </trkpt>
      <trkpt lat="49.84147" lon="2.27822">
        <ele>112.5</ele>
        <time>2023-04-05T13:16:24Z</time>
      </trkpt>
      <trkpt lat="49.84149" lon="2.27822">
        <ele>112.5</ele>
        <time>2023-04-05T13:16:26Z</time>
      </trkpt>
      <trkpt lat="49.8415" lon="2.27822">
        <ele>112.5</ele>
        <time>2023-04-05T13:16:27Z</time>
      </trkpt>
      <trkpt lat="49.84151" lon="2.27823">
        <ele>112.5</ele>
        <time>2023-04-05T13:16:28Z</time>
      </trkpt>
      <trkpt lat="49.84152" lon="2.27824">
        <ele>112.5</ele>
        <time>2023-04-05T13:16:29Z</time>
      </trkpt>
      <trkpt lat="49.84155" lon="2.27824">
        <ele>112.5</ele>
        <time>2023-04-05T13:16:30Z</time>
      </trkpt>
      <trkpt lat="49.84155" lon="2.27824">
        <ele>112.5</ele>
        <time>2023-04-05T13:16:32Z</time>
      </trkpt>
      <trkpt lat="49.84156" lon="2.27824">
        <ele>112.5</ele>
        <time>2023-04-05T13:16:33Z</time>
      </trkpt>
      <trkpt lat="49.8416" lon="2.27825">
        <ele>112.5</ele>
        <time>2023-04-05T13:16:34Z</time>
      </trkpt>
      <trkpt lat="49.84161" lon="2.27825">
        <ele>112.4</ele>
        <time>2023-04-05T13:16:35Z</time>
      </trkpt>
      <trkpt lat="49.84163" lon="2.27826">
        <ele>112.4</ele>
        <time>2023-04-05T13:16:36Z</time>
      </trkpt>
      <trkpt lat="49.84164" lon="2.27826">
        <ele>112.4</ele>
        <time>2023-04-05T13:16:37Z</time>
      </trkpt>
      <trkpt lat="49.84166" lon="2.27827">
        <ele>112.4</ele>
        <time>2023-04-05T13:16:38Z</time>
      </trkpt>
      <trkpt lat="49.84167" lon="2.27827">
        <ele>112.4</ele>
        <time>2023-04-05T13:16:39Z</time>
      </trkpt>
      <trkpt lat="49.84169" lon="2.27827">
        <ele>112.4</ele>
        <time>2023-04-05T13:16:40Z</time>
      </trkpt>
      <trkpt lat="49.8417" lon="2.27827">
        <ele>112.4</ele>
        <time>2023-04-05T13:16:42Z</time>
      </trkpt>
      <trkpt lat="49.84172" lon="2.27828">
        <ele>112.4</ele>
        <time>2023-04-05T13:16:43Z</time>
      </trkpt>
      <trkpt lat="49.84173" lon="2.27829">
        <ele>112.4</ele>
        <time>2023-04-05T13:16:44Z</time>
      </trkpt>
      <trkpt lat="49.84174" lon="2.2783">
        <ele>112.4</ele>
        <time>2023-04-05T13:16:45Z</time>
      </trkpt>
      <trkpt lat="49.84175" lon="2.27831">
        <ele>112.4</ele>
        <time>2023-04-05T13:16:46Z</time>
      </trkpt>
      <trkpt lat="49.84176" lon="2.27832">
        <ele>112.4</ele>
        <time>2023-04-05T13:16:47Z</time>
      </trkpt>
      <trkpt lat="49.84177" lon="2.27834">
        <ele>112.3</ele>
        <time>2023-04-05T13:16:48Z</time>
      </trkpt>
      <trkpt lat="49.84178" lon="2.27835">
        <ele>112.3</ele>
        <time>2023-04-05T13:16:49Z</time>
      </trkpt>
      <trkpt lat="49.84179" lon="2.27835">
        <ele>112.3</ele>
        <time>2023-04-05T13:16:50Z</time>
      </trkpt>
      <trkpt lat="49.84181" lon="2.27837">
        <ele>112.3</ele>
        <time>2023-04-05T13:16:51Z</time>
      </trkpt>
      <trkpt lat="49.84182" lon="2.27838">
        <ele>112.3</ele>
        <time>2023-04-05T13:16:53Z</time>
      </trkpt>
      <trkpt lat="49.84183" lon="2.27838">
        <ele>112.3</ele>
        <time>2023-04-05T13:16:54Z</time>
      </trkpt>
      <trkpt lat="49.84185" lon="2.2784">
        <ele>112.3</ele>
        <time>2023-04-05T13:16:55Z</time>
      </trkpt>
      <trkpt lat="49.84186" lon="2.2784">
        <ele>112.3</ele>
        <time>2023-04-05T13:16:56Z</time>
      </trkpt>
      <trkpt lat="49.84186" lon="2.2784">
        <ele>112.3</ele>
        <time>2023-04-05T13:16:57Z</time>
      </trkpt>
      <trkpt lat="49.84189" lon="2.27842">
        <ele>112.3</ele>
        <time>2023-04-05T13:16:58Z</time>
      </trkpt>
      <trkpt lat="49.84189" lon="2.27842">
        <ele>112.3</ele>
        <time>2023-04-05T13:17:00Z</time>
      </trkpt>
      <trkpt lat="49.8419" lon="2.27842">
        <ele>112.3</ele>
        <time>2023-04-05T13:17:01Z</time>
      </trkpt>
      <trkpt lat="49.84192" lon="2.27844">
        <ele>112.2</ele>
        <time>2023-04-05T13:17:02Z</time>
      </trkpt>
      <trkpt lat="49.84193" lon="2.27844">
        <ele>112.2</ele>
        <time>2023-04-05T13:17:03Z</time>
      </trkpt>
      <trkpt lat="49.84193" lon="2.27845">
        <ele>112.2</ele>
        <time>2023-04-05T13:17:04Z</time>
      </trkpt>
      <trkpt lat="49.84194" lon="2.27846">
        <ele>112.2</ele>
        <time>2023-04-05T13:17:05Z</time>
      </trkpt>
      <trkpt lat="49.84196" lon="2.27846">
        <ele>112.2</ele>
        <time>2023-04-05T13:17:06Z</time>
      </trkpt>
      <trkpt lat="49.84197" lon="2.27847">
        <ele>112.2</ele>
        <time>2023-04-05T13:17:07Z</time>
      </trkpt>
      <trkpt lat="49.84199" lon="2.27848">
        <ele>112.2</ele>
        <time>2023-04-05T13:17:08Z</time>
      </trkpt>
      <trkpt lat="49.84199" lon="2.27848">
        <ele>112.2</ele>
        <time>2023-04-05T13:17:09Z</time>
      </trkpt>
      <trkpt lat="49.84201" lon="2.27848">
        <ele>112.2</ele>
        <time>2023-04-05T13:17:10Z</time>
      </trkpt>
      <trkpt lat="49.84202" lon="2.27849">
        <ele>112.2</ele>
        <time>2023-04-05T13:17:11Z</time>
      </trkpt>
      <trkpt lat="49.84203" lon="2.27849">
        <ele>112.2</ele>
        <time>2023-04-05T13:17:12Z</time>
      </trkpt>
      <trkpt lat="49.84204" lon="2.2785">
        <ele>112.2</ele>
        <time>2023-04-05T13:17:14Z</time>
      </trkpt>
      <trkpt lat="49.84205" lon="2.2785">
        <ele>112.2</ele>
        <time>2023-04-05T13:17:15Z</time>
      </trkpt>
      <trkpt lat="49.84206" lon="2.2785">
        <ele>112.2</ele>
        <time>2023-04-05T13:17:16Z</time>
      </trkpt>
      <trkpt lat="49.84208" lon="2.2785">
        <ele>112.2</ele>
        <time>2023-04-05T13:17:17Z</time>
      </trkpt>
      <trkpt lat="49.84209" lon="2.2785">
        <ele>112.2</ele>
        <time>2023-04-05T13:17:18Z</time>
      </trkpt>
      <trkpt lat="49.8421" lon="2.2785">
        <ele>112.2</ele>
        <time>2023-04-05T13:17:19Z</time>
      </trkpt>
      <trkpt lat="49.84212" lon="2.2785">
        <ele>112.1</ele>
        <time>2023-04-05T13:17:20Z</time>
      </trkpt>
      <trkpt lat="49.84213" lon="2.2785">
        <ele>112.1</ele>
        <time>2023-04-05T13:17:22Z</time>
      </trkpt>
      <trkpt lat="49.84214" lon="2.2785">
        <ele>112.1</ele>
        <time>2023-04-05T13:17:23Z</time>
      </trkpt>
      <trkpt lat="49.84215" lon="2.2785">
        <ele>112.1</ele>
        <time>2023-04-05T13:17:24Z</time>
      </trkpt>
      <trkpt lat="49.84216" lon="2.27851">
        <ele>112.1</ele>
        <time>2023-04-05T13:17:25Z</time>
      </trkpt>
      <trkpt lat="49.84218" lon="2.27852">
        <ele>112.1</ele>
        <time>2023-04-05T13:17:26Z</time>
      </trkpt>
      <trkpt lat="49.84219" lon="2.27853">
        <ele>112.1</ele>
        <time>2023-04-05T13:17:27Z</time>
      </trkpt>
      <trkpt lat="49.8422" lon="2.27854">
        <ele>112.1</ele>
        <time>2023-04-05T13:17:28Z</time>
      </trkpt>
      <trkpt lat="49.84221" lon="2.27854">
        <ele>112.1</ele>
        <time>2023-04-05T13:17:29Z</time>
      </trkpt>
      <trkpt lat="49.84222" lon="2.27855">
        <ele>112.1</ele>
        <time>2023-04-05T13:17:30Z</time>
      </trkpt>
      <trkpt lat="49.84223" lon="2.27855">
        <ele>112.1</ele>
        <time>2023-04-05T13:17:32Z</time>
      </trkpt>
      <trkpt lat="49.84224" lon="2.27856">
        <ele>112.1</ele>
        <time>2023-04-05T13:17:33Z</time>
      </trkpt>
      <trkpt lat="49.84226" lon="2.27857">
        <ele>112.1</ele>
        <time>2023-04-05T13:17:34Z</time>
      </trkpt>
      <trkpt lat="49.84227" lon="2.27857">
        <ele>112.1</ele>
        <time>2023-04-05T13:17:35Z</time>
      </trkpt>
      <trkpt lat="49.84228" lon="2.27858">
        <ele>112.1</ele>
        <time>2023-04-05T13:17:36Z</time>
      </trkpt>
      <trkpt lat="49.84229" lon="2.27858">
        <ele>112.1</ele>
        <time>2023-04-05T13:17:37Z</time>
      </trkpt>
      <trkpt lat="49.8423" lon="2.27859">
        <ele>112.1</ele>
        <time>2023-04-05T13:17:38Z</time>
      </trkpt>
      <trkpt lat="49.84231" lon="2.27859">
        <ele>112.1</ele>
        <time>2023-04-05T13:17:40Z</time>
      </trkpt>
      <trkpt lat="49.84232" lon="2.27859">
        <ele>112.1</ele>
        <time>2023-04-05T13:17:41Z</time>
      </trkpt>
      <trkpt lat="49.84234" lon="2.2786">
        <ele>112</ele>
        <time>2023-04-05T13:17:42Z</time>
      </trkpt>
      <trkpt lat="49.84235" lon="2.27861">
        <ele>112</ele>
        <time>2023-04-05T13:17:43Z</time>
      </trkpt>
      <trkpt lat="49.84236" lon="2.27861">
        <ele>112</ele>
        <time>2023-04-05T13:17:44Z</time>
      </trkpt>
      <trkpt lat="49.84237" lon="2.27862">
        <ele>112</ele>
        <time>2023-04-05T13:17:45Z</time>
      </trkpt>
      <trkpt lat="49.84237" lon="2.27864">
        <ele>112</ele>
        <time>2023-04-05T13:17:46Z</time>
      </trkpt>
      <trkpt lat="49.84238" lon="2.27866">
        <ele>112</ele>
        <time>2023-04-05T13:17:47Z</time>
      </trkpt>
      <trkpt lat="49.84238" lon="2.27868">
        <ele>112</ele>
        <time>2023-04-05T13:17:49Z</time>
      </trkpt>
      <trkpt lat="49.84238" lon="2.2787">
        <ele>111.8</ele>
        <time>2023-04-05T13:17:50Z</time>
      </trkpt>
      <trkpt lat="49.84237" lon="2.27873">
        <ele>111.8</ele>
        <time>2023-04-05T13:17:51Z</time>
      </trkpt>
      <trkpt lat="49.84237" lon="2.27876">
        <ele>111.7</ele>
        <time>2023-04-05T13:17:52Z</time>
      </trkpt>
      <trkpt lat="49.84237" lon="2.27879">
        <ele>111.7</ele>
        <time>2023-04-05T13:17:53Z</time>
      </trkpt>
      <trkpt lat="49.84236" lon="2.27881">
        <ele>111.6</ele>
        <time>2023-04-05T13:17:55Z</time>
      </trkpt>
      <trkpt lat="49.84236" lon="2.27882">
        <ele>111.6</ele>
        <time>2023-04-05T13:17:56Z</time>
      </trkpt>
      <trkpt lat="49.84235" lon="2.27885">
        <ele>111.5</ele>
        <time>2023-04-05T13:17:57Z</time>
      </trkpt>
      <trkpt lat="49.84234" lon="2.27887">
        <ele>111.5</ele>
        <time>2023-04-05T13:17:58Z</time>
      </trkpt>
      <trkpt lat="49.84234" lon="2.27889">
        <ele>111.4</ele>
        <time>2023-04-05T13:17:59Z</time>
      </trkpt>
      <trkpt lat="49.84233" lon="2.27891">
        <ele>111.3</ele>
        <time>2023-04-05T13:18:00Z</time>
      </trkpt>
      <trkpt lat="49.84232" lon="2.27894">
        <ele>111.3</ele>
        <time>2023-04-05T13:18:02Z</time>
      </trkpt>
      <trkpt lat="49.84231" lon="2.27895">
        <ele>111.2</ele>
        <time>2023-04-05T13:18:03Z</time>
      </trkpt>
      <trkpt lat="49.8423" lon="2.27898">
        <ele>111.2</ele>
        <time>2023-04-05T13:18:04Z</time>
      </trkpt>
      <trkpt lat="49.84229" lon="2.27899">
        <ele>111.2</ele>
        <time>2023-04-05T13:18:05Z</time>
      </trkpt>
      <trkpt lat="49.84228" lon="2.27901">
        <ele>111.1</ele>
        <time>2023-04-05T13:18:06Z</time>
      </trkpt>
      <trkpt lat="49.84228" lon="2.27902">
        <ele>111.1</ele>
        <time>2023-04-05T13:18:07Z</time>
      </trkpt>
      <trkpt lat="49.84227" lon="2.27903">
        <ele>111.1</ele>
        <time>2023-04-05T13:18:09Z</time>
      </trkpt>
      <trkpt lat="49.84226" lon="2.27905">
        <ele>111</ele>
        <time>2023-04-05T13:18:10Z</time>
      </trkpt>
      <trkpt lat="49.84225" lon="2.27906">
        <ele>111</ele>
        <time>2023-04-05T13:18:11Z</time>
      </trkpt>
      <trkpt lat="49.84225" lon="2.27908">
        <ele>111</ele>
        <time>2023-04-05T13:18:12Z</time>
      </trkpt>
      <trkpt lat="49.84224" lon="2.2791">
        <ele>110.9</ele>
        <time>2023-04-05T13:18:13Z</time>
      </trkpt>
      <trkpt lat="49.84223" lon="2.27912">
        <ele>110.9</ele>
        <time>2023-04-05T13:18:14Z</time>
      </trkpt>
      <trkpt lat="49.84223" lon="2.27913">
        <ele>110.9</ele>
        <time>2023-04-05T13:18:15Z</time>
      </trkpt>
      <trkpt lat="49.84222" lon="2.27914">
        <ele>110.9</ele>
        <time>2023-04-05T13:18:16Z</time>
      </trkpt>
      <trkpt lat="49.84222" lon="2.27916">
        <ele>110.9</ele>
        <time>2023-04-05T13:18:18Z</time>
      </trkpt>
      <trkpt lat="49.84221" lon="2.27917">
        <ele>110.8</ele>
        <time>2023-04-05T13:18:19Z</time>
      </trkpt>
      <trkpt lat="49.84221" lon="2.27919">
        <ele>110.8</ele>
        <time>2023-04-05T13:18:20Z</time>
      </trkpt>
      <trkpt lat="49.8422" lon="2.2792">
        <ele>110.8</ele>
        <time>2023-04-05T13:18:21Z</time>
      </trkpt>
      <trkpt lat="49.84219" lon="2.27923">
        <ele>110.8</ele>
        <time>2023-04-05T13:18:22Z</time>
      </trkpt>
      <trkpt lat="49.84219" lon="2.27925">
        <ele>110.7</ele>
        <time>2023-04-05T13:18:23Z</time>
      </trkpt>
      <trkpt lat="49.84219" lon="2.27927">
        <ele>110.7</ele>
        <time>2023-04-05T13:18:24Z</time>
      </trkpt>
      <trkpt lat="49.84219" lon="2.27928">
        <ele>110.7</ele>
        <time>2023-04-05T13:18:26Z</time>
      </trkpt>
      <trkpt lat="49.84219" lon="2.27929">
        <ele>110.7</ele>
        <time>2023-04-05T13:18:27Z</time>
      </trkpt>
      <trkpt lat="49.84218" lon="2.27931">
        <ele>110.7</ele>
        <time>2023-04-05T13:18:28Z</time>
      </trkpt>
      <trkpt lat="49.84218" lon="2.27933">
        <ele>110.6</ele>
        <time>2023-04-05T13:18:29Z</time>
      </trkpt>
      <trkpt lat="49.84217" lon="2.27934">
        <ele>110.6</ele>
        <time>2023-04-05T13:18:30Z</time>
      </trkpt>
      <trkpt lat="49.84217" lon="2.27936">
        <ele>110.6</ele>
        <time>2023-04-05T13:18:32Z</time>
      </trkpt>
      <trkpt lat="49.84216" lon="2.27938">
        <ele>110.6</ele>
        <time>2023-04-05T13:18:33Z</time>
      </trkpt>
      <trkpt lat="49.84216" lon="2.2794">
        <ele>110.6</ele>
        <time>2023-04-05T13:18:34Z</time>
      </trkpt>
      <trkpt lat="49.84215" lon="2.27941">
        <ele>110.5</ele>
        <time>2023-04-05T13:18:35Z</time>
      </trkpt>
      <trkpt lat="49.84214" lon="2.27943">
        <ele>110.5</ele>
        <time>2023-04-05T13:18:36Z</time>
      </trkpt>
      <trkpt lat="49.84214" lon="2.27944">
        <ele>110.5</ele>
        <time>2023-04-05T13:18:37Z</time>
      </trkpt>
      <trkpt lat="49.84213" lon="2.27947">
        <ele>110.5</ele>
        <time>2023-04-05T13:18:38Z</time>
      </trkpt>
      <trkpt lat="49.84213" lon="2.27948">
        <ele>110.4</ele>
        <time>2023-04-05T13:18:39Z</time>
      </trkpt>
      <trkpt lat="49.84212" lon="2.27949">
        <ele>110.4</ele>
        <time>2023-04-05T13:18:40Z</time>
      </trkpt>
      <trkpt lat="49.84211" lon="2.27951">
        <ele>110.4</ele>
        <time>2023-04-05T13:18:41Z</time>
      </trkpt>
      <trkpt lat="49.84211" lon="2.27953">
        <ele>110.4</ele>
        <time>2023-04-05T13:18:43Z</time>
      </trkpt>
      <trkpt lat="49.8421" lon="2.27955">
        <ele>110.4</ele>
        <time>2023-04-05T13:18:44Z</time>
      </trkpt>
      <trkpt lat="49.8421" lon="2.27957">
        <ele>110.3</ele>
        <time>2023-04-05T13:18:45Z</time>
      </trkpt>
      <trkpt lat="49.84209" lon="2.27959">
        <ele>110.3</ele>
        <time>2023-04-05T13:18:46Z</time>
      </trkpt>
      <trkpt lat="49.84209" lon="2.27961">
        <ele>110.3</ele>
        <time>2023-04-05T13:18:47Z</time>
      </trkpt>
      <trkpt lat="49.84209" lon="2.27963">
        <ele>110.3</ele>
        <time>2023-04-05T13:18:48Z</time>
      </trkpt>
      <trkpt lat="49.84208" lon="2.27965">
        <ele>110.3</ele>
        <time>2023-04-05T13:18:49Z</time>
      </trkpt>
      <trkpt lat="49.84208" lon="2.27967">
        <ele>110.2</ele>
        <time>2023-04-05T13:18:51Z</time>
      </trkpt>
      <trkpt lat="49.84208" lon="2.27969">
        <ele>110.2</ele>
        <time>2023-04-05T13:18:52Z</time>
      </trkpt>
      <trkpt lat="49.84207" lon="2.27971">
        <ele>110.2</ele>
        <time>2023-04-05T13:18:53Z</time>
      </trkpt>
      <trkpt lat="49.84207" lon="2.27973">
        <ele>110.2</ele>
        <time>2023-04-05T13:18:54Z</time>
      </trkpt>
      <trkpt lat="49.84207" lon="2.27975">
        <ele>110.1</ele>
        <time>2023-04-05T13:18:55Z</time>
      </trkpt>
      <trkpt lat="49.84206" lon="2.27977">
        <ele>110.1</ele>
        <time>2023-04-05T13:18:57Z</time>
      </trkpt>
      <trkpt lat="49.84206" lon="2.27978">
        <ele>110.1</ele>
        <time>2023-04-05T13:18:58Z</time>
      </trkpt>
      <trkpt lat="49.84206" lon="2.2798">
        <ele>110.1</ele>
        <time>2023-04-05T13:18:59Z</time>
      </trkpt>
      <trkpt lat="49.84205" lon="2.27981">
        <ele>110.1</ele>
        <time>2023-04-05T13:19:00Z</time>
      </trkpt>
      <trkpt lat="49.84205" lon="2.27984">
        <ele>110</ele>
        <time>2023-04-05T13:19:01Z</time>
      </trkpt>
      <trkpt lat="49.84204" lon="2.27986">
        <ele>110</ele>
        <time>2023-04-05T13:19:02Z</time>
      </trkpt>
      <trkpt lat="49.84203" lon="2.27989">
        <ele>110</ele>
        <time>2023-04-05T13:19:04Z</time>
      </trkpt>
      <trkpt lat="49.84203" lon="2.2799">
        <ele>110</ele>
        <time>2023-04-05T13:19:05Z</time>
      </trkpt>
      <trkpt lat="49.84202" lon="2.27991">
        <ele>109.9</ele>
        <time>2023-04-05T13:19:06Z</time>
      </trkpt>
      <trkpt lat="49.84202" lon="2.27993">
        <ele>109.9</ele>
        <time>2023-04-05T13:19:07Z</time>
      </trkpt>
      <trkpt lat="49.84201" lon="2.27995">
        <ele>109.9</ele>
        <time>2023-04-05T13:19:08Z</time>
      </trkpt>
      <trkpt lat="49.84201" lon="2.27997">
        <ele>109.9</ele>
        <time>2023-04-05T13:19:09Z</time>
      </trkpt>
      <trkpt lat="49.842" lon="2.27998">
        <ele>109.8</ele>
        <time>2023-04-05T13:19:10Z</time>
      </trkpt>
      <trkpt lat="49.84199" lon="2.28">
        <ele>109.8</ele>
        <time>2023-04-05T13:19:11Z</time>
      </trkpt>
      <trkpt lat="49.84199" lon="2.28003">
        <ele>109.8</ele>
        <time>2023-04-05T13:19:12Z</time>
      </trkpt>
      <trkpt lat="49.84198" lon="2.28004">
        <ele>109.8</ele>
        <time>2023-04-05T13:19:13Z</time>
      </trkpt>
      <trkpt lat="49.84198" lon="2.28006">
        <ele>109.7</ele>
        <time>2023-04-05T13:19:14Z</time>
      </trkpt>
      <trkpt lat="49.84197" lon="2.28008">
        <ele>109.7</ele>
        <time>2023-04-05T13:19:15Z</time>
      </trkpt>
      <trkpt lat="49.84197" lon="2.2801">
        <ele>109.7</ele>
        <time>2023-04-05T13:19:17Z</time>
      </trkpt>
      <trkpt lat="49.84196" lon="2.28011">
        <ele>109.7</ele>
        <time>2023-04-05T13:19:18Z</time>
      </trkpt>
      <trkpt lat="49.84196" lon="2.28013">
        <ele>109.7</ele>
        <time>2023-04-05T13:19:19Z</time>
      </trkpt>
      <trkpt lat="49.84195" lon="2.28015">
        <ele>109.6</ele>
        <time>2023-04-05T13:19:20Z</time>
      </trkpt>
      <trkpt lat="49.84195" lon="2.28017">
        <ele>109.6</ele>
        <time>2023-04-05T13:19:21Z</time>
      </trkpt>
      <trkpt lat="49.84195" lon="2.28019">
        <ele>109.6</ele>
        <time>2023-04-05T13:19:22Z</time>
      </trkpt>
      <trkpt lat="49.84195" lon="2.2802">
        <ele>109.6</ele>
        <time>2023-04-05T13:19:23Z</time>
      </trkpt>
      <trkpt lat="49.84194" lon="2.28023">
        <ele>109.5</ele>
        <time>2023-04-05T13:19:25Z</time>
      </trkpt>
      <trkpt lat="49.84194" lon="2.28023">
        <ele>109.5</ele>
        <time>2023-04-05T13:19:26Z</time>
      </trkpt>
      <trkpt lat="49.84193" lon="2.28025">
        <ele>109.5</ele>
        <time>2023-04-05T13:19:27Z</time>
      </trkpt>
      <trkpt lat="49.84192" lon="2.28028">
        <ele>109.5</ele>
        <time>2023-04-05T13:19:28Z</time>
      </trkpt>
      <trkpt lat="49.84192" lon="2.28029">
        <ele>109.4</ele>
        <time>2023-04-05T13:19:29Z</time>
      </trkpt>
      <trkpt lat="49.84191" lon="2.28031">
        <ele>109.4</ele>
        <time>2023-04-05T13:19:30Z</time>
      </trkpt>
      <trkpt lat="49.84191" lon="2.28032">
        <ele>109.4</ele>
        <time>2023-04-05T13:19:31Z</time>
      </trkpt>
      <trkpt lat="49.8419" lon="2.28034">
        <ele>109.4</ele>
        <time>2023-04-05T13:19:32Z</time>
      </trkpt>
      <trkpt lat="49.84189" lon="2.28035">
        <ele>109.4</ele>
        <time>2023-04-05T13:19:33Z</time>
      </trkpt>
      <trkpt lat="49.84188" lon="2.28038">
        <ele>109.3</ele>
        <time>2023-04-05T13:19:34Z</time>
      </trkpt>
      <trkpt lat="49.84188" lon="2.2804">
        <ele>109.3</ele>
        <time>2023-04-05T13:19:36Z</time>
      </trkpt>
      <trkpt lat="49.84187" lon="2.28042">
        <ele>109.3</ele>
        <time>2023-04-05T13:19:37Z</time>
      </trkpt>
      <trkpt lat="49.84187" lon="2.28043">
        <ele>109.3</ele>
        <time>2023-04-05T13:19:38Z</time>
      </trkpt>
      <trkpt lat="49.84186" lon="2.28045">
        <ele>109.2</ele>
        <time>2023-04-05T13:19:39Z</time>
      </trkpt>
      <trkpt lat="49.84186" lon="2.28048">
        <ele>109.2</ele>
        <time>2023-04-05T13:19:40Z</time>
      </trkpt>
      <trkpt lat="49.84185" lon="2.28049">
        <ele>109.2</ele>
        <time>2023-04-05T13:19:41Z</time>
      </trkpt>
      <trkpt lat="49.84185" lon="2.28051">
        <ele>109.2</ele>
        <time>2023-04-05T13:19:42Z</time>
      </trkpt>
      <trkpt lat="49.84185" lon="2.28052">
        <ele>109.2</ele>
        <time>2023-04-05T13:19:44Z</time>
      </trkpt>
      <trkpt lat="49.84184" lon="2.28055">
        <ele>109.1</ele>
        <time>2023-04-05T13:19:45Z</time>
      </trkpt>
      <trkpt lat="49.84183" lon="2.28058">
        <ele>109.1</ele>
        <time>2023-04-05T13:19:46Z</time>
      </trkpt>
      <trkpt lat="49.84183" lon="2.2806">
        <ele>109.1</ele>
        <time>2023-04-05T13:19:47Z</time>
      </trkpt>
      <trkpt lat="49.84182" lon="2.28061">
        <ele>109.1</ele>
        <time>2023-04-05T13:19:48Z</time>
      </trkpt>
      <trkpt lat="49.84182" lon="2.28063">
        <ele>109.1</ele>
        <time>2023-04-05T13:19:49Z</time>
      </trkpt>
      <trkpt lat="49.84182" lon="2.28065">
        <ele>109</ele>
        <time>2023-04-05T13:19:50Z</time>
      </trkpt>
      <trkpt lat="49.84181" lon="2.28067">
        <ele>109</ele>
        <time>2023-04-05T13:19:52Z</time>
      </trkpt>
      <trkpt lat="49.84181" lon="2.28068">
        <ele>109</ele>
        <time>2023-04-05T13:19:53Z</time>
      </trkpt>
      <trkpt lat="49.8418" lon="2.2807">
        <ele>109</ele>
        <time>2023-04-05T13:19:54Z</time>
      </trkpt>
      <trkpt lat="49.8418" lon="2.28072">
        <ele>109</ele>
        <time>2023-04-05T13:19:55Z</time>
      </trkpt>
      <trkpt lat="49.84179" lon="2.28075">
        <ele>108.9</ele>
        <time>2023-04-05T13:19:56Z</time>
      </trkpt>
      <trkpt lat="49.84179" lon="2.28076">
        <ele>108.9</ele>
        <time>2023-04-05T13:19:57Z</time>
      </trkpt>
      <trkpt lat="49.84179" lon="2.28079">
        <ele>108.9</ele>
        <time>2023-04-05T13:19:59Z</time>
      </trkpt>
      <trkpt lat="49.84179" lon="2.2808">
        <ele>108.9</ele>
        <time>2023-04-05T13:20:00Z</time>
      </trkpt>
      <trkpt lat="49.84179" lon="2.28082">
        <ele>108.9</ele>
        <time>2023-04-05T13:20:01Z</time>
      </trkpt>
      <trkpt lat="49.84178" lon="2.28084">
        <ele>108.9</ele>
        <time>2023-04-05T13:20:02Z</time>
      </trkpt>
      <trkpt lat="49.84178" lon="2.28086">
        <ele>108.8</ele>
        <time>2023-04-05T13:20:03Z</time>
      </trkpt>
      <trkpt lat="49.84178" lon="2.28089">
        <ele>108.8</ele>
        <time>2023-04-05T13:20:04Z</time>
      </trkpt>
      <trkpt lat="49.84177" lon="2.2809">
        <ele>108.8</ele>
        <time>2023-04-05T13:20:05Z</time>
      </trkpt>
      <trkpt lat="49.84177" lon="2.28091">
        <ele>108.8</ele>
        <time>2023-04-05T13:20:06Z</time>
      </trkpt>
      <trkpt lat="49.84177" lon="2.28093">
        <ele>108.8</ele>
        <time>2023-04-05T13:20:07Z</time>
      </trkpt>
      <trkpt lat="49.84177" lon="2.28094">
        <ele>108.8</ele>
        <time>2023-04-05T13:20:08Z</time>
      </trkpt>
      <trkpt lat="49.84176" lon="2.28096">
        <ele>108.7</ele>
        <time>2023-04-05T13:20:09Z</time>
      </trkpt>
      <trkpt lat="49.84176" lon="2.28099">
        <ele>108.7</ele>
        <time>2023-04-05T13:20:11Z</time>
      </trkpt>
      <trkpt lat="49.84176" lon="2.28101">
        <ele>108.7</ele>
        <time>2023-04-05T13:20:12Z</time>
      </trkpt>
      <trkpt lat="49.84176" lon="2.28102">
        <ele>108.7</ele>
        <time>2023-04-05T13:20:13Z</time>
      </trkpt>
      <trkpt lat="49.84176" lon="2.28104">
        <ele>108.7</ele>
        <time>2023-04-05T13:20:14Z</time>
      </trkpt>
      <trkpt lat="49.84175" lon="2.28105">
        <ele>108.6</ele>
        <time>2023-04-05T13:20:15Z</time>
      </trkpt>
      <trkpt lat="49.84174" lon="2.28107">
        <ele>108.6</ele>
        <time>2023-04-05T13:20:16Z</time>
      </trkpt>
      <trkpt lat="49.84174" lon="2.28109">
        <ele>108.6</ele>
        <time>2023-04-05T13:20:17Z</time>
      </trkpt>
      <trkpt lat="49.84173" lon="2.2811">
        <ele>108.6</ele>
        <time>2023-04-05T13:20:18Z</time>
      </trkpt>
      <trkpt lat="49.84173" lon="2.28111">
        <ele>108.6</ele>
        <time>2023-04-05T13:20:19Z</time>
      </trkpt>
      <trkpt lat="49.84172" lon="2.28115">
        <ele>108.6</ele>
        <time>2023-04-05T13:20:20Z</time>
      </trkpt>
      <trkpt lat="49.84171" lon="2.28116">
        <ele>108.5</ele>
        <time>2023-04-05T13:20:22Z</time>
      </trkpt>
      <trkpt lat="49.84171" lon="2.28118">
        <ele>108.5</ele>
        <time>2023-04-05T13:20:23Z</time>
      </trkpt>
      <trkpt lat="49.8417" lon="2.2812">
        <ele>108.5</ele>
        <time>2023-04-05T13:20:24Z</time>
      </trkpt>
      <trkpt lat="49.8417" lon="2.28121">
        <ele>108.5</ele>
        <time>2023-04-05T13:20:25Z</time>
      </trkpt>
      <trkpt lat="49.84169" lon="2.28125">
        <ele>108.5</ele>
        <time>2023-04-05T13:20:26Z</time>
      </trkpt>
      <trkpt lat="49.84169" lon="2.28126">
        <ele>108.5</ele>
        <time>2023-04-05T13:20:28Z</time>
      </trkpt>
      <trkpt lat="49.84169" lon="2.28127">
        <ele>108.5</ele>
        <time>2023-04-05T13:20:29Z</time>
      </trkpt>
      <trkpt lat="49.84168" lon="2.2813">
        <ele>108.4</ele>
        <time>2023-04-05T13:20:30Z</time>
      </trkpt>
      <trkpt lat="49.84168" lon="2.28132">
        <ele>108.4</ele>
        <time>2023-04-05T13:20:31Z</time>
      </trkpt>
      <trkpt lat="49.84168" lon="2.28133">
        <ele>108.4</ele>
        <time>2023-04-05T13:20:32Z</time>
      </trkpt>
      <trkpt lat="49.84167" lon="2.28136">
        <ele>108.4</ele>
        <time>2023-04-05T13:20:33Z</time>
      </trkpt>
      <trkpt lat="49.84166" lon="2.28137">
        <ele>108.4</ele>
        <time>2023-04-05T13:20:34Z</time>
      </trkpt>
      <trkpt lat="49.84166" lon="2.28138">
        <ele>108.4</ele>
        <time>2023-04-05T13:20:35Z</time>
      </trkpt>
      <trkpt lat="49.84165" lon="2.28141">
        <ele>108.4</ele>
        <time>2023-04-05T13:20:36Z</time>
      </trkpt>
      <trkpt lat="49.84165" lon="2.28142">
        <ele>108.4</ele>
        <time>2023-04-05T13:20:38Z</time>
      </trkpt>
      <trkpt lat="49.84166" lon="2.28143">
        <ele>108.4</ele>
        <time>2023-04-05T13:20:39Z</time>
      </trkpt>
      <trkpt lat="49.84166" lon="2.28146">
        <ele>108.4</ele>
        <time>2023-04-05T13:20:41Z</time>
      </trkpt>
      <trkpt lat="49.84166" lon="2.28148">
        <ele>108.3</ele>
        <time>2023-04-05T13:20:42Z</time>
      </trkpt>
      <trkpt lat="49.84166" lon="2.28149">
        <ele>108.3</ele>
        <time>2023-04-05T13:20:43Z</time>
      </trkpt>
      <trkpt lat="49.84166" lon="2.28151">
        <ele>108.3</ele>
        <time>2023-04-05T13:20:44Z</time>
      </trkpt>
      <trkpt lat="49.84166" lon="2.28153">
        <ele>108.3</ele>
        <time>2023-04-05T13:20:45Z</time>
      </trkpt>
      <trkpt lat="49.84165" lon="2.28154">
        <ele>108.3</ele>
        <time>2023-04-05T13:20:47Z</time>
      </trkpt>
      <trkpt lat="49.84165" lon="2.28156">
        <ele>108.3</ele>
        <time>2023-04-05T13:20:48Z</time>
      </trkpt>
      <trkpt lat="49.84164" lon="2.28157">
        <ele>108.3</ele>
        <time>2023-04-05T13:20:49Z</time>
      </trkpt>
      <trkpt lat="49.84164" lon="2.28159">
        <ele>108.3</ele>
        <time>2023-04-05T13:20:50Z</time>
      </trkpt>
      <trkpt lat="49.84163" lon="2.2816">
        <ele>108.3</ele>
        <time>2023-04-05T13:20:51Z</time>
      </trkpt>
      <trkpt lat="49.84163" lon="2.28161">
        <ele>108.3</ele>
        <time>2023-04-05T13:20:53Z</time>
      </trkpt>
      <trkpt lat="49.84162" lon="2.28163">
        <ele>108.3</ele>
        <time>2023-04-05T13:20:54Z</time>
      </trkpt>
      <trkpt lat="49.84162" lon="2.28164">
        <ele>108.3</ele>
        <time>2023-04-05T13:20:55Z</time>
      </trkpt>
      <trkpt lat="49.84161" lon="2.28165">
        <ele>108.3</ele>
        <time>2023-04-05T13:20:56Z</time>
      </trkpt>
      <trkpt lat="49.84161" lon="2.28167">
        <ele>108.3</ele>
        <time>2023-04-05T13:20:57Z</time>
      </trkpt>
      <trkpt lat="49.8416" lon="2.28168">
        <ele>108.3</ele>
        <time>2023-04-05T13:20:58Z</time>
      </trkpt>
      <trkpt lat="49.8416" lon="2.28169">
        <ele>108.3</ele>
        <time>2023-04-05T13:21:00Z</time>
      </trkpt>
      <trkpt lat="49.84159" lon="2.2817">
        <ele>108.3</ele>
        <time>2023-04-05T13:21:01Z</time>
      </trkpt>
      <trkpt lat="49.84159" lon="2.28172">
        <ele>108.3</ele>
        <time>2023-04-05T13:21:02Z</time>
      </trkpt>
      <trkpt lat="49.84158" lon="2.28174">
        <ele>108.3</ele>
        <time>2023-04-05T13:21:04Z</time>
      </trkpt>
      <trkpt lat="49.84158" lon="2.28176">
        <ele>108.3</ele>
        <time>2023-04-05T13:21:06Z</time>
      </trkpt>
      <trkpt lat="49.84158" lon="2.28176">
        <ele>108.3</ele>
        <time>2023-04-05T13:21:07Z</time>
      </trkpt>
      <trkpt lat="49.84159" lon="2.28176">
        <ele>108.3</ele>
        <time>2023-04-05T13:21:08Z</time>
      </trkpt>
      <trkpt lat="49.84159" lon="2.28176">
        <ele>108.3</ele>
        <time>2023-04-05T13:21:09Z</time>
      </trkpt>
      <trkpt lat="49.84159" lon="2.28177">
        <ele>108.3</ele>
        <time>2023-04-05T13:21:10Z</time>
      </trkpt>
      <trkpt lat="49.84159" lon="2.28178">
        <ele>108.3</ele>
        <time>2023-04-05T13:21:11Z</time>
      </trkpt>
      <trkpt lat="49.84159" lon="2.28179">
        <ele>108.3</ele>
        <time>2023-04-05T13:21:13Z</time>
      </trkpt>
      <trkpt lat="49.84159" lon="2.2818">
        <ele>108.3</ele>
        <time>2023-04-05T13:21:14Z</time>
      </trkpt>
      <trkpt lat="49.84158" lon="2.28181">
        <ele>108.3</ele>
        <time>2023-04-05T13:21:15Z</time>
      </trkpt>
      <trkpt lat="49.84157" lon="2.28183">
        <ele>108.3</ele>
        <time>2023-04-05T13:21:16Z</time>
      </trkpt>
      <trkpt lat="49.84157" lon="2.28184">
        <ele>108.3</ele>
        <time>2023-04-05T13:21:18Z</time>
      </trkpt>
      <trkpt lat="49.84156" lon="2.28185">
        <ele>108.3</ele>
        <time>2023-04-05T13:21:19Z</time>
      </trkpt>
      <trkpt lat="49.84155" lon="2.28186">
        <ele>108.3</ele>
        <time>2023-04-05T13:21:20Z</time>
      </trkpt>
      <trkpt lat="49.84153" lon="2.28187">
        <ele>108.3</ele>
        <time>2023-04-05T13:21:21Z</time>
      </trkpt>
      <trkpt lat="49.84152" lon="2.28188">
        <ele>108.3</ele>
        <time>2023-04-05T13:21:22Z</time>
      </trkpt>
      <trkpt lat="49.84151" lon="2.28188">
        <ele>108.3</ele>
        <time>2023-04-05T13:21:23Z</time>
      </trkpt>
      <trkpt lat="49.8415" lon="2.2819">
        <ele>108.3</ele>
        <time>2023-04-05T13:21:24Z</time>
      </trkpt>
      <trkpt lat="49.84149" lon="2.2819">
        <ele>108.3</ele>
        <time>2023-04-05T13:21:25Z</time>
      </trkpt>
      <trkpt lat="49.84148" lon="2.28191">
        <ele>108.3</ele>
        <time>2023-04-05T13:21:27Z</time>
      </trkpt>
      <trkpt lat="49.84147" lon="2.28192">
        <ele>108.3</ele>
        <time>2023-04-05T13:21:28Z</time>
      </trkpt>
      <trkpt lat="49.84146" lon="2.28192">
        <ele>108.3</ele>
        <time>2023-04-05T13:21:29Z</time>
      </trkpt>
      <trkpt lat="49.84145" lon="2.28193">
        <ele>108.3</ele>
        <time>2023-04-05T13:21:30Z</time>
      </trkpt>
      <trkpt lat="49.84144" lon="2.28194">
        <ele>108.3</ele>
        <time>2023-04-05T13:21:31Z</time>
      </trkpt>
      <trkpt lat="49.84143" lon="2.28195">
        <ele>108.2</ele>
        <time>2023-04-05T13:21:32Z</time>
      </trkpt>
      <trkpt lat="49.84142" lon="2.28195">
        <ele>108.2</ele>
        <time>2023-04-05T13:21:33Z</time>
      </trkpt>
      <trkpt lat="49.8414" lon="2.28196">
        <ele>108.2</ele>
        <time>2023-04-05T13:21:35Z</time>
      </trkpt>
      <trkpt lat="49.84139" lon="2.28197">
        <ele>108.2</ele>
        <time>2023-04-05T13:21:36Z</time>
      </trkpt>
      <trkpt lat="49.84138" lon="2.28197">
        <ele>108.2</ele>
        <time>2023-04-05T13:21:37Z</time>
      </trkpt>
      <trkpt lat="49.84137" lon="2.28198">
        <ele>108.2</ele>
        <time>2023-04-05T13:21:38Z</time>
      </trkpt>
      <trkpt lat="49.84136" lon="2.28198">
        <ele>108.1</ele>
        <time>2023-04-05T13:21:39Z</time>
      </trkpt>
      <trkpt lat="49.84135" lon="2.28198">
        <ele>108.1</ele>
        <time>2023-04-05T13:21:40Z</time>
      </trkpt>
      <trkpt lat="49.84134" lon="2.28199">
        <ele>108.1</ele>
        <time>2023-04-05T13:21:41Z</time>
      </trkpt>
      <trkpt lat="49.84132" lon="2.28199">
        <ele>108.1</ele>
        <time>2023-04-05T13:21:42Z</time>
      </trkpt>
      <trkpt lat="49.84132" lon="2.282">
        <ele>108.1</ele>
        <time>2023-04-05T13:21:43Z</time>
      </trkpt>
      <trkpt lat="49.84131" lon="2.282">
        <ele>108.1</ele>
        <time>2023-04-05T13:21:45Z</time>
      </trkpt>
      <trkpt lat="49.8413" lon="2.28201">
        <ele>108.1</ele>
        <time>2023-04-05T13:21:46Z</time>
      </trkpt>
      <trkpt lat="49.84128" lon="2.28201">
        <ele>108</ele>
        <time>2023-04-05T13:21:47Z</time>
      </trkpt>
      <trkpt lat="49.84127" lon="2.28202">
        <ele>108</ele>
        <time>2023-04-05T13:21:48Z</time>
      </trkpt>
      <trkpt lat="49.84126" lon="2.28202">
        <ele>108</ele>
        <time>2023-04-05T13:21:50Z</time>
      </trkpt>
      <trkpt lat="49.84125" lon="2.28202">
        <ele>108</ele>
        <time>2023-04-05T13:21:51Z</time>
      </trkpt>
      <trkpt lat="49.84124" lon="2.28202">
        <ele>108</ele>
        <time>2023-04-05T13:21:52Z</time>
      </trkpt>
      <trkpt lat="49.84123" lon="2.28202">
        <ele>107.9</ele>
        <time>2023-04-05T13:21:53Z</time>
      </trkpt>
      <trkpt lat="49.84121" lon="2.28203">
        <ele>107.9</ele>
        <time>2023-04-05T13:21:55Z</time>
      </trkpt>
      <trkpt lat="49.8412" lon="2.28204">
        <ele>107.9</ele>
        <time>2023-04-05T13:21:56Z</time>
      </trkpt>
      <trkpt lat="49.84119" lon="2.28204">
        <ele>107.8</ele>
        <time>2023-04-05T13:21:57Z</time>
      </trkpt>
      <trkpt lat="49.84117" lon="2.28205">
        <ele>107.8</ele>
        <time>2023-04-05T13:21:58Z</time>
      </trkpt>
      <trkpt lat="49.84116" lon="2.28205">
        <ele>107.8</ele>
        <time>2023-04-05T13:21:59Z</time>
      </trkpt>
      <trkpt lat="49.84115" lon="2.28205">
        <ele>107.8</ele>
        <time>2023-04-05T13:22:01Z</time>
      </trkpt>
      <trkpt lat="49.84113" lon="2.28206">
        <ele>107.7</ele>
        <time>2023-04-05T13:22:02Z</time>
      </trkpt>
      <trkpt lat="49.84112" lon="2.28206">
        <ele>107.7</ele>
        <time>2023-04-05T13:22:04Z</time>
      </trkpt>
      <trkpt lat="49.84111" lon="2.28206">
        <ele>107.7</ele>
        <time>2023-04-05T13:22:05Z</time>
      </trkpt>
      <trkpt lat="49.84111" lon="2.28206">
        <ele>107.7</ele>
        <time>2023-04-05T13:22:06Z</time>
      </trkpt>
      <trkpt lat="49.8411" lon="2.28207">
        <ele>107.6</ele>
        <time>2023-04-05T13:22:08Z</time>
      </trkpt>
      <trkpt lat="49.8411" lon="2.28207">
        <ele>107.6</ele>
        <time>2023-04-05T13:22:09Z</time>
      </trkpt>
      <trkpt lat="49.84111" lon="2.28208">
        <ele>107.6</ele>
        <time>2023-04-05T13:22:11Z</time>
      </trkpt>
      <trkpt lat="49.84111" lon="2.28208">
        <ele>107.6</ele>
        <time>2023-04-05T13:22:12Z</time>
      </trkpt>
      <trkpt lat="49.84111" lon="2.28208">
        <ele>107.6</ele>
        <time>2023-04-05T13:22:14Z</time>
      </trkpt>
      <trkpt lat="49.84111" lon="2.28208">
        <ele>107.6</ele>
        <time>2023-04-05T13:22:15Z</time>
      </trkpt>
      <trkpt lat="49.84111" lon="2.28208">
        <ele>107.6</ele>
        <time>2023-04-05T13:22:16Z</time>
      </trkpt>
      <trkpt lat="49.84111" lon="2.28208">
        <ele>107.6</ele>
        <time>2023-04-05T13:22:18Z</time>
      </trkpt>
      <trkpt lat="49.84111" lon="2.28209">
        <ele>107.6</ele>
        <time>2023-04-05T13:22:20Z</time>
      </trkpt>
      <trkpt lat="49.84111" lon="2.28208">
        <ele>107.6</ele>
        <time>2023-04-05T13:22:21Z</time>
      </trkpt>
      <trkpt lat="49.84111" lon="2.28208">
        <ele>107.6</ele>
        <time>2023-04-05T13:22:22Z</time>
      </trkpt>
      <trkpt lat="49.8411" lon="2.28208">
        <ele>107.6</ele>
        <time>2023-04-05T13:22:24Z</time>
      </trkpt>
      <trkpt lat="49.84109" lon="2.28208">
        <ele>107.6</ele>
        <time>2023-04-05T13:22:26Z</time>
      </trkpt>
      <trkpt lat="49.84109" lon="2.28208">
        <ele>107.6</ele>
        <time>2023-04-05T13:22:27Z</time>
      </trkpt>
      <trkpt lat="49.84108" lon="2.28208">
        <ele>107.5</ele>
        <time>2023-04-05T13:22:28Z</time>
      </trkpt>
      <trkpt lat="49.84108" lon="2.28208">
        <ele>107.5</ele>
        <time>2023-04-05T13:22:29Z</time>
      </trkpt>
      <trkpt lat="49.84106" lon="2.28209">
        <ele>107.5</ele>
        <time>2023-04-05T13:22:31Z</time>
      </trkpt>
      <trkpt lat="49.84106" lon="2.28209">
        <ele>107.5</ele>
        <time>2023-04-05T13:22:33Z</time>
      </trkpt>
      <trkpt lat="49.84105" lon="2.28209">
        <ele>107.5</ele>
        <time>2023-04-05T13:22:34Z</time>
      </trkpt>
      <trkpt lat="49.84104" lon="2.28209">
        <ele>107.4</ele>
        <time>2023-04-05T13:22:35Z</time>
      </trkpt>
      <trkpt lat="49.84103" lon="2.28208">
        <ele>107.4</ele>
        <time>2023-04-05T13:22:36Z</time>
      </trkpt>
      <trkpt lat="49.84103" lon="2.28207">
        <ele>107.4</ele>
        <time>2023-04-05T13:22:37Z</time>
      </trkpt>
      <trkpt lat="49.84102" lon="2.28207">
        <ele>107.4</ele>
        <time>2023-04-05T13:22:38Z</time>
      </trkpt>
      <trkpt lat="49.84101" lon="2.28207">
        <ele>107.3</ele>
        <time>2023-04-05T13:22:40Z</time>
      </trkpt>
      <trkpt lat="49.841" lon="2.28208">
        <ele>107.3</ele>
        <time>2023-04-05T13:22:41Z</time>
      </trkpt>
      <trkpt lat="49.84099" lon="2.2821">
        <ele>107.3</ele>
        <time>2023-04-05T13:22:42Z</time>
      </trkpt>
      <trkpt lat="49.84099" lon="2.28211">
        <ele>107.2</ele>
        <time>2023-04-05T13:22:43Z</time>
      </trkpt>
      <trkpt lat="49.84098" lon="2.28211">
        <ele>107.2</ele>
        <time>2023-04-05T13:22:44Z</time>
      </trkpt>
      <trkpt lat="49.84097" lon="2.28212">
        <ele>107.2</ele>
        <time>2023-04-05T13:22:45Z</time>
      </trkpt>
      <trkpt lat="49.84097" lon="2.28212">
        <ele>107.2</ele>
        <time>2023-04-05T13:22:47Z</time>
      </trkpt>
      <trkpt lat="49.84096" lon="2.28213">
        <ele>107.1</ele>
        <time>2023-04-05T13:22:48Z</time>
      </trkpt>
      <trkpt lat="49.84096" lon="2.28214">
        <ele>107.1</ele>
        <time>2023-04-05T13:22:50Z</time>
      </trkpt>
      <trkpt lat="49.84096" lon="2.28215">
        <ele>107.1</ele>
        <time>2023-04-05T13:22:51Z</time>
      </trkpt>
      <trkpt lat="49.84097" lon="2.28215">
        <ele>107.1</ele>
        <time>2023-04-05T13:22:53Z</time>
      </trkpt>
      <trkpt lat="49.84097" lon="2.28215">
        <ele>107.1</ele>
        <time>2023-04-05T13:22:54Z</time>
      </trkpt>
      <trkpt lat="49.84097" lon="2.28215">
        <ele>107.1</ele>
        <time>2023-04-05T13:22:55Z</time>
      </trkpt>
      <trkpt lat="49.84097" lon="2.28215">
        <ele>107.1</ele>
        <time>2023-04-05T13:22:56Z</time>
      </trkpt>
      <trkpt lat="49.84097" lon="2.28214">
        <ele>107.1</ele>
        <time>2023-04-05T13:22:58Z</time>
      </trkpt>
      <trkpt lat="49.84097" lon="2.28214">
        <ele>107.1</ele>
        <time>2023-04-05T13:23:00Z</time>
      </trkpt>
      <trkpt lat="49.84097" lon="2.28214">
        <ele>107.1</ele>
        <time>2023-04-05T13:23:01Z</time>
      </trkpt>
      <trkpt lat="49.84097" lon="2.28214">
        <ele>107.1</ele>
        <time>2023-04-05T13:23:03Z</time>
      </trkpt>
      <trkpt lat="49.84097" lon="2.28214">
        <ele>107.1</ele>
        <time>2023-04-05T13:23:04Z</time>
      </trkpt>
      <trkpt lat="49.84097" lon="2.28213">
        <ele>107.1</ele>
        <time>2023-04-05T13:23:06Z</time>
      </trkpt>
      <trkpt lat="49.84098" lon="2.28213">
        <ele>107</ele>
        <time>2023-04-05T13:23:07Z</time>
      </trkpt>
      <trkpt lat="49.84098" lon="2.28213">
        <ele>107</ele>
        <time>2023-04-05T13:23:08Z</time>
      </trkpt>
      <trkpt lat="49.84098" lon="2.28213">
        <ele>107</ele>
        <time>2023-04-05T13:23:09Z</time>
      </trkpt>
      <trkpt lat="49.84098" lon="2.28213">
        <ele>107</ele>
        <time>2023-04-05T13:23:10Z</time>
      </trkpt>
      <trkpt lat="49.84098" lon="2.28212">
        <ele>107</ele>
        <time>2023-04-05T13:23:11Z</time>
      </trkpt>
      <trkpt lat="49.84098" lon="2.28212">
        <ele>107</ele>
        <time>2023-04-05T13:23:12Z</time>
      </trkpt>
      <trkpt lat="49.84098" lon="2.28212">
        <ele>107</ele>
        <time>2023-04-05T13:23:13Z</time>
      </trkpt>
      <trkpt lat="49.84098" lon="2.28212">
        <ele>107</ele>
        <time>2023-04-05T13:23:14Z</time>
      </trkpt>
      <trkpt lat="49.84098" lon="2.28212">
        <ele>107</ele>
        <time>2023-04-05T13:23:15Z</time>
      </trkpt>
      <trkpt lat="49.84098" lon="2.28212">
        <ele>107</ele>
        <time>2023-04-05T13:23:16Z</time>
      </trkpt>
      <trkpt lat="49.84098" lon="2.28211">
        <ele>107</ele>
        <time>2023-04-05T13:23:17Z</time>
      </trkpt>
      <trkpt lat="49.84098" lon="2.28211">
        <ele>107</ele>
        <time>2023-04-05T13:23:18Z</time>
      </trkpt>
      <trkpt lat="49.84098" lon="2.28211">
        <ele>107</ele>
        <time>2023-04-05T13:23:19Z</time>
      </trkpt>
      <trkpt lat="49.84099" lon="2.28211">
        <ele>107</ele>
        <time>2023-04-05T13:23:20Z</time>
      </trkpt>
      <trkpt lat="49.84099" lon="2.28211">
        <ele>107</ele>
        <time>2023-04-05T13:23:21Z</time>
      </trkpt>
      <trkpt lat="49.84099" lon="2.2821">
        <ele>107</ele>
        <time>2023-04-05T13:23:22Z</time>
      </trkpt>
      <trkpt lat="49.84099" lon="2.2821">
        <ele>107</ele>
        <time>2023-04-05T13:23:23Z</time>
      </trkpt>
      <trkpt lat="49.84099" lon="2.2821">
        <ele>107</ele>
        <time>2023-04-05T13:23:24Z</time>
      </trkpt>
      <trkpt lat="49.84099" lon="2.2821">
        <ele>107</ele>
        <time>2023-04-05T13:23:25Z</time>
      </trkpt>
      <trkpt lat="49.84099" lon="2.2821">
        <ele>107</ele>
        <time>2023-04-05T13:23:26Z</time>
      </trkpt>
      <trkpt lat="49.84099" lon="2.28209">
        <ele>107</ele>
        <time>2023-04-05T13:23:27Z</time>
      </trkpt>
      <trkpt lat="49.84099" lon="2.28209">
        <ele>107</ele>
        <time>2023-04-05T13:23:28Z</time>
      </trkpt>
      <trkpt lat="49.84099" lon="2.28209">
        <ele>106.9</ele>
        <time>2023-04-05T13:23:29Z</time>
      </trkpt>
      <trkpt lat="49.84099" lon="2.28209">
        <ele>106.9</ele>
        <time>2023-04-05T13:23:30Z</time>
      </trkpt>
      <trkpt lat="49.84099" lon="2.28209">
        <ele>106.9</ele>
        <time>2023-04-05T13:23:31Z</time>
      </trkpt>
      <trkpt lat="49.84099" lon="2.28208">
        <ele>106.9</ele>
        <time>2023-04-05T13:23:32Z</time>
      </trkpt>
      <trkpt lat="49.841" lon="2.28208">
        <ele>106.9</ele>
        <time>2023-04-05T13:23:33Z</time>
      </trkpt>
      <trkpt lat="49.841" lon="2.28208">
        <ele>106.9</ele>
        <time>2023-04-05T13:23:34Z</time>
      </trkpt>
      <trkpt lat="49.841" lon="2.28208">
        <ele>106.9</ele>
        <time>2023-04-05T13:23:35Z</time>
      </trkpt>
      <trkpt lat="49.841" lon="2.28208">
        <ele>106.9</ele>
        <time>2023-04-05T13:23:36Z</time>
      </trkpt>
      <trkpt lat="49.841" lon="2.28207">
        <ele>106.9</ele>
        <time>2023-04-05T13:23:37Z</time>
      </trkpt>
      <trkpt lat="49.841" lon="2.28207">
        <ele>106.9</ele>
        <time>2023-04-05T13:23:38Z</time>
      </trkpt>
      <trkpt lat="49.841" lon="2.28207">
        <ele>106.9</ele>
        <time>2023-04-05T13:23:39Z</time>
      </trkpt>
      <trkpt lat="49.841" lon="2.28207">
        <ele>106.9</ele>
        <time>2023-04-05T13:23:40Z</time>
      </trkpt>
      <trkpt lat="49.841" lon="2.28207">
        <ele>106.9</ele>
        <time>2023-04-05T13:23:41Z</time>
      </trkpt>
      <trkpt lat="49.841" lon="2.28206">
        <ele>106.9</ele>
        <time>2023-04-05T13:23:42Z</time>
      </trkpt>
      <trkpt lat="49.841" lon="2.28206">
        <ele>106.9</ele>
        <time>2023-04-05T13:23:43Z</time>
      </trkpt>
      <trkpt lat="49.84101" lon="2.28205">
        <ele>106.9</ele>
        <time>2023-04-05T13:23:44Z</time>
      </trkpt>
      <trkpt lat="49.84101" lon="2.28205">
        <ele>106.9</ele>
        <time>2023-04-05T13:23:45Z</time>
      </trkpt>
      <trkpt lat="49.84101" lon="2.28205">
        <ele>106.8</ele>
        <time>2023-04-05T13:23:46Z</time>
      </trkpt>
      <trkpt lat="49.841" lon="2.28204">
        <ele>106.8</ele>
        <time>2023-04-05T13:23:47Z</time>
      </trkpt>
      <trkpt lat="49.841" lon="2.28204">
        <ele>106.8</ele>
        <time>2023-04-05T13:23:48Z</time>
      </trkpt>
      <trkpt lat="49.841" lon="2.28203">
        <ele>106.8</ele>
        <time>2023-04-05T13:23:49Z</time>
      </trkpt>
      <trkpt lat="49.84099" lon="2.28204">
        <ele>106.8</ele>
        <time>2023-04-05T13:23:50Z</time>
      </trkpt>
      <trkpt lat="49.84098" lon="2.28205">
        <ele>106.7</ele>
        <time>2023-04-05T13:23:51Z</time>
      </trkpt>
      <trkpt lat="49.84096" lon="2.28206">
        <ele>106.7</ele>
        <time>2023-04-05T13:23:53Z</time>
      </trkpt>
      <trkpt lat="49.84095" lon="2.28207">
        <ele>106.6</ele>
        <time>2023-04-05T13:23:54Z</time>
      </trkpt>
      <trkpt lat="49.84094" lon="2.28208">
        <ele>106.6</ele>
        <time>2023-04-05T13:23:55Z</time>
      </trkpt>
      <trkpt lat="49.84093" lon="2.28208">
        <ele>106.6</ele>
        <time>2023-04-05T13:23:56Z</time>
      </trkpt>
      <trkpt lat="49.84092" lon="2.28209">
        <ele>106.5</ele>
        <time>2023-04-05T13:23:57Z</time>
      </trkpt>
      <trkpt lat="49.84091" lon="2.2821">
        <ele>106.5</ele>
        <time>2023-04-05T13:23:58Z</time>
      </trkpt>
      <trkpt lat="49.84089" lon="2.28212">
        <ele>106.5</ele>
        <time>2023-04-05T13:23:59Z</time>
      </trkpt>
      <trkpt lat="49.84089" lon="2.28212">
        <ele>106.4</ele>
        <time>2023-04-05T13:24:01Z</time>
      </trkpt>
      <trkpt lat="49.84088" lon="2.28213">
        <ele>106.4</ele>
        <time>2023-04-05T13:24:02Z</time>
      </trkpt>
      <trkpt lat="49.84087" lon="2.28215">
        <ele>106.4</ele>
        <time>2023-04-05T13:24:03Z</time>
      </trkpt>
      <trkpt lat="49.84086" lon="2.28216">
        <ele>106.3</ele>
        <time>2023-04-05T13:24:04Z</time>
      </trkpt>
      <trkpt lat="49.84085" lon="2.28217">
        <ele>106.3</ele>
        <time>2023-04-05T13:24:05Z</time>
      </trkpt>
      <trkpt lat="49.84084" lon="2.28218">
        <ele>106.3</ele>
        <time>2023-04-05T13:24:07Z</time>
      </trkpt>
      <trkpt lat="49.84083" lon="2.2822">
        <ele>106.2</ele>
        <time>2023-04-05T13:24:08Z</time>
      </trkpt>
      <trkpt lat="49.84082" lon="2.2822">
        <ele>106.2</ele>
        <time>2023-04-05T13:24:10Z</time>
      </trkpt>
      <trkpt lat="49.84082" lon="2.28221">
        <ele>106.2</ele>
        <time>2023-04-05T13:24:11Z</time>
      </trkpt>
      <trkpt lat="49.84081" lon="2.28221">
        <ele>106.2</ele>
        <time>2023-04-05T13:24:12Z</time>
      </trkpt>
      <trkpt lat="49.8408" lon="2.28223">
        <ele>106.2</ele>
        <time>2023-04-05T13:24:13Z</time>
      </trkpt>
      <trkpt lat="49.8408" lon="2.28224">
        <ele>106.1</ele>
        <time>2023-04-05T13:24:14Z</time>
      </trkpt>
      <trkpt lat="49.84079" lon="2.28224">
        <ele>106.1</ele>
        <time>2023-04-05T13:24:16Z</time>
      </trkpt>
      <trkpt lat="49.84078" lon="2.28225">
        <ele>106.1</ele>
        <time>2023-04-05T13:24:17Z</time>
      </trkpt>
      <trkpt lat="49.84077" lon="2.28227">
        <ele>106</ele>
        <time>2023-04-05T13:24:18Z</time>
      </trkpt>
      <trkpt lat="49.84076" lon="2.28228">
        <ele>106</ele>
        <time>2023-04-05T13:24:19Z</time>
      </trkpt>
      <trkpt lat="49.84075" lon="2.28229">
        <ele>106</ele>
        <time>2023-04-05T13:24:20Z</time>
      </trkpt>
      <trkpt lat="49.84074" lon="2.2823">
        <ele>106</ele>
        <time>2023-04-05T13:24:22Z</time>
      </trkpt>
      <trkpt lat="49.84073" lon="2.2823">
        <ele>106</ele>
        <time>2023-04-05T13:24:23Z</time>
      </trkpt>
      <trkpt lat="49.84073" lon="2.28231">
        <ele>105.9</ele>
        <time>2023-04-05T13:24:24Z</time>
      </trkpt>
      <trkpt lat="49.84072" lon="2.28232">
        <ele>105.9</ele>
        <time>2023-04-05T13:24:25Z</time>
      </trkpt>
      <trkpt lat="49.84071" lon="2.28233">
        <ele>105.9</ele>
        <time>2023-04-05T13:24:26Z</time>
      </trkpt>
      <trkpt lat="49.8407" lon="2.28233">
        <ele>105.9</ele>
        <time>2023-04-05T13:24:27Z</time>
      </trkpt>
      <trkpt lat="49.8407" lon="2.28234">
        <ele>105.9</ele>
        <time>2023-04-05T13:24:28Z</time>
      </trkpt>
      <trkpt lat="49.84069" lon="2.28234">
        <ele>105.8</ele>
        <time>2023-04-05T13:24:29Z</time>
      </trkpt>
      <trkpt lat="49.84069" lon="2.28234">
        <ele>105.8</ele>
        <time>2023-04-05T13:24:31Z</time>
      </trkpt>
      <trkpt lat="49.84068" lon="2.28235">
        <ele>105.8</ele>
        <time>2023-04-05T13:24:32Z</time>
      </trkpt>
      <trkpt lat="49.84068" lon="2.28236">
        <ele>105.8</ele>
        <time>2023-04-05T13:24:33Z</time>
      </trkpt>
      <trkpt lat="49.84067" lon="2.28236">
        <ele>105.8</ele>
        <time>2023-04-05T13:24:34Z</time>
      </trkpt>
      <trkpt lat="49.84066" lon="2.28237">
        <ele>105.8</ele>
        <time>2023-04-05T13:24:35Z</time>
      </trkpt>
      <trkpt lat="49.84066" lon="2.28238">
        <ele>105.7</ele>
        <time>2023-04-05T13:24:36Z</time>
      </trkpt>
      <trkpt lat="49.84065" lon="2.28238">
        <ele>105.7</ele>
        <time>2023-04-05T13:24:37Z</time>
      </trkpt>
      <trkpt lat="49.84065" lon="2.28239">
        <ele>105.7</ele>
        <time>2023-04-05T13:24:38Z</time>
      </trkpt>
      <trkpt lat="49.84064" lon="2.2824">
        <ele>105.7</ele>
        <time>2023-04-05T13:24:40Z</time>
      </trkpt>
      <trkpt lat="49.84064" lon="2.2824">
        <ele>105.7</ele>
        <time>2023-04-05T13:24:41Z</time>
      </trkpt>
      <trkpt lat="49.84064" lon="2.28241">
        <ele>105.7</ele>
        <time>2023-04-05T13:24:42Z</time>
      </trkpt>
      <trkpt lat="49.84063" lon="2.28242">
        <ele>105.7</ele>
        <time>2023-04-05T13:24:43Z</time>
      </trkpt>
      <trkpt lat="49.84062" lon="2.28243">
        <ele>105.6</ele>
        <time>2023-04-05T13:24:44Z</time>
      </trkpt>
      <trkpt lat="49.84062" lon="2.28243">
        <ele>105.6</ele>
        <time>2023-04-05T13:24:45Z</time>
      </trkpt>
      <trkpt lat="49.84061" lon="2.28244">
        <ele>105.6</ele>
        <time>2023-04-05T13:24:46Z</time>
      </trkpt>
      <trkpt lat="49.84061" lon="2.28245">
        <ele>105.6</ele>
        <time>2023-04-05T13:24:47Z</time>
      </trkpt>
      <trkpt lat="49.8406" lon="2.28245">
        <ele>105.6</ele>
        <time>2023-04-05T13:24:48Z</time>
      </trkpt>
      <trkpt lat="49.8406" lon="2.28245">
        <ele>105.6</ele>
        <time>2023-04-05T13:24:50Z</time>
      </trkpt>
      <trkpt lat="49.8406" lon="2.28246">
        <ele>105.6</ele>
        <time>2023-04-05T13:24:51Z</time>
      </trkpt>
      <trkpt lat="49.84059" lon="2.28247">
        <ele>105.6</ele>
        <time>2023-04-05T13:24:52Z</time>
      </trkpt>
      <trkpt lat="49.84058" lon="2.28248">
        <ele>105.5</ele>
        <time>2023-04-05T13:24:53Z</time>
      </trkpt>
      <trkpt lat="49.84058" lon="2.28249">
        <ele>105.5</ele>
        <time>2023-04-05T13:24:54Z</time>
      </trkpt>
      <trkpt lat="49.84057" lon="2.28249">
        <ele>105.5</ele>
        <time>2023-04-05T13:24:55Z</time>
      </trkpt>
      <trkpt lat="49.84057" lon="2.2825">
        <ele>105.5</ele>
        <time>2023-04-05T13:24:56Z</time>
      </trkpt>
      <trkpt lat="49.84055" lon="2.28252">
        <ele>105.5</ele>
        <time>2023-04-05T13:24:57Z</time>
      </trkpt>
      <trkpt lat="49.84055" lon="2.28253">
        <ele>105.5</ele>
        <time>2023-04-05T13:24:58Z</time>
      </trkpt>
      <trkpt lat="49.84054" lon="2.28254">
        <ele>105.4</ele>
        <time>2023-04-05T13:24:59Z</time>
      </trkpt>
      <trkpt lat="49.84051" lon="2.28257">
        <ele>105.4</ele>
        <time>2023-04-05T13:25:01Z</time>
      </trkpt>
      <trkpt lat="49.84051" lon="2.28258">
        <ele>105.4</ele>
        <time>2023-04-05T13:25:02Z</time>
      </trkpt>
      <trkpt lat="49.84049" lon="2.28259">
        <ele>105.3</ele>
        <time>2023-04-05T13:25:03Z</time>
      </trkpt>
      <trkpt lat="49.84048" lon="2.28261">
        <ele>105.3</ele>
        <time>2023-04-05T13:25:04Z</time>
      </trkpt>
      <trkpt lat="49.84047" lon="2.28262">
        <ele>105.3</ele>
        <time>2023-04-05T13:25:05Z</time>
      </trkpt>
      <trkpt lat="49.84045" lon="2.28265">
        <ele>105.3</ele>
        <time>2023-04-05T13:25:07Z</time>
      </trkpt>
      <trkpt lat="49.84044" lon="2.28266">
        <ele>105.2</ele>
        <time>2023-04-05T13:25:08Z</time>
      </trkpt>
      <trkpt lat="49.84043" lon="2.28268">
        <ele>105.2</ele>
        <time>2023-04-05T13:25:09Z</time>
      </trkpt>
      <trkpt lat="49.84042" lon="2.2827">
        <ele>105.2</ele>
        <time>2023-04-05T13:25:10Z</time>
      </trkpt>
      <trkpt lat="49.84042" lon="2.28271">
        <ele>105.2</ele>
        <time>2023-04-05T13:25:11Z</time>
      </trkpt>
      <trkpt lat="49.84041" lon="2.28273">
        <ele>105.1</ele>
        <time>2023-04-05T13:25:12Z</time>
      </trkpt>
      <trkpt lat="49.8404" lon="2.28275">
        <ele>105.1</ele>
        <time>2023-04-05T13:25:13Z</time>
      </trkpt>
      <trkpt lat="49.84039" lon="2.28277">
        <ele>105.1</ele>
        <time>2023-04-05T13:25:14Z</time>
      </trkpt>
      <trkpt lat="49.84037" lon="2.28279">
        <ele>105</ele>
        <time>2023-04-05T13:25:15Z</time>
      </trkpt>
      <trkpt lat="49.84036" lon="2.28281">
        <ele>105</ele>
        <time>2023-04-05T13:25:16Z</time>
      </trkpt>
      <trkpt lat="49.84035" lon="2.28283">
        <ele>105</ele>
        <time>2023-04-05T13:25:18Z</time>
      </trkpt>
      <trkpt lat="49.84035" lon="2.28285">
        <ele>104.9</ele>
        <time>2023-04-05T13:25:19Z</time>
      </trkpt>
      <trkpt lat="49.84034" lon="2.28287">
        <ele>104.9</ele>
        <time>2023-04-05T13:25:20Z</time>
      </trkpt>
      <trkpt lat="49.84032" lon="2.2829">
        <ele>104.8</ele>
        <time>2023-04-05T13:25:21Z</time>
      </trkpt>
      <trkpt lat="49.84032" lon="2.28291">
        <ele>104.8</ele>
        <time>2023-04-05T13:25:22Z</time>
      </trkpt>
      <trkpt lat="49.84031" lon="2.28292">
        <ele>104.8</ele>
        <time>2023-04-05T13:25:23Z</time>
      </trkpt>
      <trkpt lat="49.8403" lon="2.28294">
        <ele>104.7</ele>
        <time>2023-04-05T13:25:24Z</time>
      </trkpt>
      <trkpt lat="49.84029" lon="2.28296">
        <ele>104.7</ele>
        <time>2023-04-05T13:25:25Z</time>
      </trkpt>
      <trkpt lat="49.84027" lon="2.28299">
        <ele>104.6</ele>
        <time>2023-04-05T13:25:26Z</time>
      </trkpt>
      <trkpt lat="49.84026" lon="2.283">
        <ele>104.6</ele>
        <time>2023-04-05T13:25:28Z</time>
      </trkpt>
      <trkpt lat="49.84026" lon="2.28302">
        <ele>104.6</ele>
        <time>2023-04-05T13:25:29Z</time>
      </trkpt>
      <trkpt lat="49.84025" lon="2.28303">
        <ele>104.5</ele>
        <time>2023-04-05T13:25:30Z</time>
      </trkpt>
      <trkpt lat="49.84024" lon="2.28304">
        <ele>104.5</ele>
        <time>2023-04-05T13:25:31Z</time>
      </trkpt>
      <trkpt lat="49.84023" lon="2.28305">
        <ele>104.5</ele>
        <time>2023-04-05T13:25:32Z</time>
      </trkpt>
      <trkpt lat="49.84023" lon="2.28306">
        <ele>104.4</ele>
        <time>2023-04-05T13:25:33Z</time>
      </trkpt>
      <trkpt lat="49.84023" lon="2.28306">
        <ele>104.4</ele>
        <time>2023-04-05T13:25:34Z</time>
      </trkpt>
      <trkpt lat="49.84022" lon="2.28307">
        <ele>104.4</ele>
        <time>2023-04-05T13:25:35Z</time>
      </trkpt>
      <trkpt lat="49.84022" lon="2.28308">
        <ele>104.4</ele>
        <time>2023-04-05T13:25:36Z</time>
      </trkpt>
      <trkpt lat="49.84021" lon="2.28309">
        <ele>104.4</ele>
        <time>2023-04-05T13:25:37Z</time>
      </trkpt>
      <trkpt lat="49.84021" lon="2.2831">
        <ele>104.3</ele>
        <time>2023-04-05T13:25:39Z</time>
      </trkpt>
      <trkpt lat="49.8402" lon="2.2831">
        <ele>104.3</ele>
        <time>2023-04-05T13:25:40Z</time>
      </trkpt>
      <trkpt lat="49.8402" lon="2.28311">
        <ele>104.3</ele>
        <time>2023-04-05T13:25:41Z</time>
      </trkpt>
      <trkpt lat="49.84019" lon="2.28313">
        <ele>104.2</ele>
        <time>2023-04-05T13:25:42Z</time>
      </trkpt>
      <trkpt lat="49.84018" lon="2.28314">
        <ele>104.2</ele>
        <time>2023-04-05T13:25:43Z</time>
      </trkpt>
      <trkpt lat="49.84017" lon="2.28315">
        <ele>104.1</ele>
        <time>2023-04-05T13:25:44Z</time>
      </trkpt>
      <trkpt lat="49.84016" lon="2.28318">
        <ele>104.1</ele>
        <time>2023-04-05T13:25:45Z</time>
      </trkpt>
      <trkpt lat="49.84015" lon="2.2832">
        <ele>104</ele>
        <time>2023-04-05T13:25:47Z</time>
      </trkpt>
      <trkpt lat="49.84014" lon="2.28321">
        <ele>104</ele>
        <time>2023-04-05T13:25:48Z</time>
      </trkpt>
      <trkpt lat="49.84013" lon="2.28323">
        <ele>103.9</ele>
        <time>2023-04-05T13:25:49Z</time>
      </trkpt>
      <trkpt lat="49.84011" lon="2.28326">
        <ele>103.8</ele>
        <time>2023-04-05T13:25:50Z</time>
      </trkpt>
      <trkpt lat="49.8401" lon="2.28327">
        <ele>103.8</ele>
        <time>2023-04-05T13:25:51Z</time>
      </trkpt>
      <trkpt lat="49.84007" lon="2.28331">
        <ele>103.6</ele>
        <time>2023-04-05T13:25:52Z</time>
      </trkpt>
      <trkpt lat="49.84006" lon="2.28332">
        <ele>103.6</ele>
        <time>2023-04-05T13:25:53Z</time>
      </trkpt>
      <trkpt lat="49.84005" lon="2.28334">
        <ele>103.5</ele>
        <time>2023-04-05T13:25:55Z</time>
      </trkpt>
      <trkpt lat="49.84004" lon="2.28336">
        <ele>103.4</ele>
        <time>2023-04-05T13:25:56Z</time>
      </trkpt>
      <trkpt lat="49.84003" lon="2.28337">
        <ele>103.3</ele>
        <time>2023-04-05T13:25:57Z</time>
      </trkpt>
      <trkpt lat="49.84002" lon="2.28338">
        <ele>103.3</ele>
        <time>2023-04-05T13:25:58Z</time>
      </trkpt>
      <trkpt lat="49.84001" lon="2.28339">
        <ele>103.3</ele>
        <time>2023-04-05T13:25:59Z</time>
      </trkpt>
      <trkpt lat="49.84" lon="2.28341">
        <ele>103.2</ele>
        <time>2023-04-05T13:26:01Z</time>
      </trkpt>
      <trkpt lat="49.84" lon="2.28341">
        <ele>103.2</ele>
        <time>2023-04-05T13:26:02Z</time>
      </trkpt>
      <trkpt lat="49.83999" lon="2.28342">
        <ele>103.1</ele>
        <time>2023-04-05T13:26:03Z</time>
      </trkpt>
      <trkpt lat="49.83999" lon="2.28342">
        <ele>103.1</ele>
        <time>2023-04-05T13:26:04Z</time>
      </trkpt>
      <trkpt lat="49.83998" lon="2.28343">
        <ele>103.1</ele>
        <time>2023-04-05T13:26:05Z</time>
      </trkpt>
      <trkpt lat="49.83997" lon="2.28344">
        <ele>103</ele>
        <time>2023-04-05T13:26:06Z</time>
      </trkpt>
      <trkpt lat="49.83997" lon="2.28344">
        <ele>103</ele>
        <time>2023-04-05T13:26:07Z</time>
      </trkpt>
      <trkpt lat="49.83996" lon="2.28345">
        <ele>102.9</ele>
        <time>2023-04-05T13:26:08Z</time>
      </trkpt>
      <trkpt lat="49.83995" lon="2.28346">
        <ele>102.9</ele>
        <time>2023-04-05T13:26:09Z</time>
      </trkpt>
      <trkpt lat="49.83994" lon="2.28347">
        <ele>102.8</ele>
        <time>2023-04-05T13:26:10Z</time>
      </trkpt>
      <trkpt lat="49.83993" lon="2.28347">
        <ele>102.8</ele>
        <time>2023-04-05T13:26:12Z</time>
      </trkpt>
      <trkpt lat="49.83992" lon="2.28348">
        <ele>102.8</ele>
        <time>2023-04-05T13:26:13Z</time>
      </trkpt>
      <trkpt lat="49.83991" lon="2.28348">
        <ele>102.7</ele>
        <time>2023-04-05T13:26:14Z</time>
      </trkpt>
      <trkpt lat="49.8399" lon="2.28349">
        <ele>102.6</ele>
        <time>2023-04-05T13:26:15Z</time>
      </trkpt>
      <trkpt lat="49.83987" lon="2.2835">
        <ele>102.5</ele>
        <time>2023-04-05T13:26:16Z</time>
      </trkpt>
      <trkpt lat="49.83986" lon="2.28351">
        <ele>102.4</ele>
        <time>2023-04-05T13:26:18Z</time>
      </trkpt>
      <trkpt lat="49.83984" lon="2.28352">
        <ele>102.4</ele>
        <time>2023-04-05T13:26:19Z</time>
      </trkpt>
      <trkpt lat="49.83983" lon="2.28353">
        <ele>102.3</ele>
        <time>2023-04-05T13:26:20Z</time>
      </trkpt>
      <trkpt lat="49.8398" lon="2.28355">
        <ele>102.1</ele>
        <time>2023-04-05T13:26:21Z</time>
      </trkpt>
      <trkpt lat="49.83979" lon="2.28356">
        <ele>102.1</ele>
        <time>2023-04-05T13:26:22Z</time>
      </trkpt>
      <trkpt lat="49.83976" lon="2.28358">
        <ele>101.9</ele>
        <time>2023-04-05T13:26:23Z</time>
      </trkpt>
      <trkpt lat="49.83975" lon="2.28358">
        <ele>101.9</ele>
        <time>2023-04-05T13:26:24Z</time>
      </trkpt>
      <trkpt lat="49.83973" lon="2.28359">
        <ele>101.8</ele>
        <time>2023-04-05T13:26:26Z</time>
      </trkpt>
      <trkpt lat="49.83972" lon="2.2836">
        <ele>101.7</ele>
        <time>2023-04-05T13:26:27Z</time>
      </trkpt>
      <trkpt lat="49.83971" lon="2.28361">
        <ele>101.7</ele>
        <time>2023-04-05T13:26:28Z</time>
      </trkpt>
      <trkpt lat="49.8397" lon="2.28361">
        <ele>101.6</ele>
        <time>2023-04-05T13:26:29Z</time>
      </trkpt>
      <trkpt lat="49.83969" lon="2.28362">
        <ele>101.6</ele>
        <time>2023-04-05T13:26:30Z</time>
      </trkpt>
      <trkpt lat="49.83969" lon="2.28362">
        <ele>101.6</ele>
        <time>2023-04-05T13:26:31Z</time>
      </trkpt>
      <trkpt lat="49.83968" lon="2.28363">
        <ele>101.5</ele>
        <time>2023-04-05T13:26:33Z</time>
      </trkpt>
      <trkpt lat="49.83968" lon="2.28363">
        <ele>101.5</ele>
        <time>2023-04-05T13:26:34Z</time>
      </trkpt>
      <trkpt lat="49.83967" lon="2.28364">
        <ele>101.5</ele>
        <time>2023-04-05T13:26:35Z</time>
      </trkpt>
      <trkpt lat="49.83966" lon="2.28365">
        <ele>101.4</ele>
        <time>2023-04-05T13:26:37Z</time>
      </trkpt>
      <trkpt lat="49.83965" lon="2.28367">
        <ele>101.3</ele>
        <time>2023-04-05T13:26:38Z</time>
      </trkpt>
      <trkpt lat="49.83964" lon="2.28368">
        <ele>101.3</ele>
        <time>2023-04-05T13:26:39Z</time>
      </trkpt>
      <trkpt lat="49.83963" lon="2.28369">
        <ele>101.2</ele>
        <time>2023-04-05T13:26:40Z</time>
      </trkpt>
      <trkpt lat="49.83961" lon="2.28371">
        <ele>101.1</ele>
        <time>2023-04-05T13:26:41Z</time>
      </trkpt>
      <trkpt lat="49.83961" lon="2.28372">
        <ele>101</ele>
        <time>2023-04-05T13:26:42Z</time>
      </trkpt>
      <trkpt lat="49.83959" lon="2.28374">
        <ele>101</ele>
        <time>2023-04-05T13:26:44Z</time>
      </trkpt>
      <trkpt lat="49.83958" lon="2.28375">
        <ele>100.9</ele>
        <time>2023-04-05T13:26:45Z</time>
      </trkpt>
      <trkpt lat="49.83956" lon="2.28378">
        <ele>100.7</ele>
        <time>2023-04-05T13:26:46Z</time>
      </trkpt>
      <trkpt lat="49.83955" lon="2.28379">
        <ele>100.7</ele>
        <time>2023-04-05T13:26:47Z</time>
      </trkpt>
      <trkpt lat="49.83954" lon="2.2838">
        <ele>100.6</ele>
        <time>2023-04-05T13:26:49Z</time>
      </trkpt>
      <trkpt lat="49.83954" lon="2.28381">
        <ele>100.6</ele>
        <time>2023-04-05T13:26:50Z</time>
      </trkpt>
      <trkpt lat="49.83953" lon="2.28382">
        <ele>100.5</ele>
        <time>2023-04-05T13:26:51Z</time>
      </trkpt>
      <trkpt lat="49.83952" lon="2.28384">
        <ele>100.4</ele>
        <time>2023-04-05T13:26:52Z</time>
      </trkpt>
      <trkpt lat="49.83951" lon="2.28385">
        <ele>100.4</ele>
        <time>2023-04-05T13:26:53Z</time>
      </trkpt>
      <trkpt lat="49.8395" lon="2.28386">
        <ele>100.3</ele>
        <time>2023-04-05T13:26:54Z</time>
      </trkpt>
      <trkpt lat="49.83949" lon="2.28387">
        <ele>100.2</ele>
        <time>2023-04-05T13:26:56Z</time>
      </trkpt>
      <trkpt lat="49.83948" lon="2.2839">
        <ele>100.1</ele>
        <time>2023-04-05T13:26:57Z</time>
      </trkpt>
      <trkpt lat="49.83947" lon="2.28392">
        <ele>100</ele>
        <time>2023-04-05T13:26:58Z</time>
      </trkpt>
      <trkpt lat="49.83946" lon="2.28393">
        <ele>100</ele>
        <time>2023-04-05T13:26:59Z</time>
      </trkpt>
      <trkpt lat="49.83945" lon="2.28395">
        <ele>99.9</ele>
        <time>2023-04-05T13:27:00Z</time>
      </trkpt>
      <trkpt lat="49.83944" lon="2.28396">
        <ele>99.8</ele>
        <time>2023-04-05T13:27:01Z</time>
      </trkpt>
      <trkpt lat="49.83944" lon="2.28397">
        <ele>99.8</ele>
        <time>2023-04-05T13:27:02Z</time>
      </trkpt>
      <trkpt lat="49.83943" lon="2.28399">
        <ele>99.7</ele>
        <time>2023-04-05T13:27:03Z</time>
      </trkpt>
      <trkpt lat="49.83943" lon="2.28399">
        <ele>99.7</ele>
        <time>2023-04-05T13:27:04Z</time>
      </trkpt>
      <trkpt lat="49.83943" lon="2.284">
        <ele>99.7</ele>
        <time>2023-04-05T13:27:05Z</time>
      </trkpt>
      <trkpt lat="49.83943" lon="2.284">
        <ele>99.6</ele>
        <time>2023-04-05T13:27:06Z</time>
      </trkpt>
      <trkpt lat="49.83943" lon="2.28401">
        <ele>99.6</ele>
        <time>2023-04-05T13:27:07Z</time>
      </trkpt>
      <trkpt lat="49.83942" lon="2.28402">
        <ele>99.6</ele>
        <time>2023-04-05T13:27:09Z</time>
      </trkpt>
      <trkpt lat="49.83942" lon="2.28402">
        <ele>99.5</ele>
        <time>2023-04-05T13:27:10Z</time>
      </trkpt>
      <trkpt lat="49.83942" lon="2.28403">
        <ele>99.5</ele>
        <time>2023-04-05T13:27:11Z</time>
      </trkpt>
      <trkpt lat="49.83942" lon="2.28404">
        <ele>99.5</ele>
        <time>2023-04-05T13:27:12Z</time>
      </trkpt>
      <trkpt lat="49.83942" lon="2.28405">
        <ele>99.4</ele>
        <time>2023-04-05T13:27:13Z</time>
      </trkpt>
      <trkpt lat="49.83941" lon="2.28407">
        <ele>99.3</ele>
        <time>2023-04-05T13:27:14Z</time>
      </trkpt>
      <trkpt lat="49.83941" lon="2.28408">
        <ele>99.3</ele>
        <time>2023-04-05T13:27:15Z</time>
      </trkpt>
      <trkpt lat="49.83941" lon="2.2841">
        <ele>99.2</ele>
        <time>2023-04-05T13:27:16Z</time>
      </trkpt>
      <trkpt lat="49.8394" lon="2.28412">
        <ele>99.1</ele>
        <time>2023-04-05T13:27:18Z</time>
      </trkpt>
      <trkpt lat="49.8394" lon="2.28414">
        <ele>99</ele>
        <time>2023-04-05T13:27:19Z</time>
      </trkpt>
      <trkpt lat="49.83939" lon="2.28417">
        <ele>98.9</ele>
        <time>2023-04-05T13:27:20Z</time>
      </trkpt>
      <trkpt lat="49.83938" lon="2.2842">
        <ele>98.7</ele>
        <time>2023-04-05T13:27:21Z</time>
      </trkpt>
      <trkpt lat="49.83938" lon="2.28422">
        <ele>98.6</ele>
        <time>2023-04-05T13:27:22Z</time>
      </trkpt>
      <trkpt lat="49.83937" lon="2.28423">
        <ele>98.5</ele>
        <time>2023-04-05T13:27:23Z</time>
      </trkpt>
      <trkpt lat="49.83937" lon="2.28425">
        <ele>98.4</ele>
        <time>2023-04-05T13:27:24Z</time>
      </trkpt>
      <trkpt lat="49.83936" lon="2.28426">
        <ele>98.3</ele>
        <time>2023-04-05T13:27:25Z</time>
      </trkpt>
      <trkpt lat="49.83936" lon="2.28427">
        <ele>98.3</ele>
        <time>2023-04-05T13:27:27Z</time>
      </trkpt>
      <trkpt lat="49.83936" lon="2.28428">
        <ele>98.2</ele>
        <time>2023-04-05T13:27:28Z</time>
      </trkpt>
      <trkpt lat="49.83936" lon="2.28429">
        <ele>98.2</ele>
        <time>2023-04-05T13:27:29Z</time>
      </trkpt>
      <trkpt lat="49.83935" lon="2.2843">
        <ele>98.1</ele>
        <time>2023-04-05T13:27:30Z</time>
      </trkpt>
      <trkpt lat="49.83935" lon="2.28431">
        <ele>98</ele>
        <time>2023-04-05T13:27:31Z</time>
      </trkpt>
      <trkpt lat="49.83935" lon="2.28432">
        <ele>98</ele>
        <time>2023-04-05T13:27:32Z</time>
      </trkpt>
      <trkpt lat="49.83935" lon="2.28433">
        <ele>97.9</ele>
        <time>2023-04-05T13:27:33Z</time>
      </trkpt>
      <trkpt lat="49.83934" lon="2.28435">
        <ele>97.8</ele>
        <time>2023-04-05T13:27:34Z</time>
      </trkpt>
      <trkpt lat="49.83934" lon="2.28438">
        <ele>97.6</ele>
        <time>2023-04-05T13:27:36Z</time>
      </trkpt>
      <trkpt lat="49.83934" lon="2.2844">
        <ele>97.5</ele>
        <time>2023-04-05T13:27:37Z</time>
      </trkpt>
      <trkpt lat="49.83934" lon="2.28442">
        <ele>97.4</ele>
        <time>2023-04-05T13:27:38Z</time>
      </trkpt>
      <trkpt lat="49.83933" lon="2.28445">
        <ele>97.2</ele>
        <time>2023-04-05T13:27:39Z</time>
      </trkpt>
      <trkpt lat="49.83933" lon="2.28448">
        <ele>97</ele>
        <time>2023-04-05T13:27:40Z</time>
      </trkpt>
      <trkpt lat="49.83933" lon="2.2845">
        <ele>96.9</ele>
        <time>2023-04-05T13:27:41Z</time>
      </trkpt>
      <trkpt lat="49.83933" lon="2.28451">
        <ele>96.9</ele>
        <time>2023-04-05T13:27:42Z</time>
      </trkpt>
      <trkpt lat="49.83933" lon="2.28454">
        <ele>96.7</ele>
        <time>2023-04-05T13:27:43Z</time>
      </trkpt>
      <trkpt lat="49.83933" lon="2.28455">
        <ele>96.6</ele>
        <time>2023-04-05T13:27:45Z</time>
      </trkpt>
      <trkpt lat="49.83933" lon="2.28457">
        <ele>96.5</ele>
        <time>2023-04-05T13:27:46Z</time>
      </trkpt>
      <trkpt lat="49.83933" lon="2.28459">
        <ele>96.4</ele>
        <time>2023-04-05T13:27:47Z</time>
      </trkpt>
      <trkpt lat="49.83932" lon="2.28461">
        <ele>96.3</ele>
        <time>2023-04-05T13:27:48Z</time>
      </trkpt>
      <trkpt lat="49.83932" lon="2.28463">
        <ele>96.2</ele>
        <time>2023-04-05T13:27:49Z</time>
      </trkpt>
      <trkpt lat="49.83932" lon="2.28466">
        <ele>96</ele>
        <time>2023-04-05T13:27:50Z</time>
      </trkpt>
      <trkpt lat="49.83932" lon="2.28469">
        <ele>95.9</ele>
        <time>2023-04-05T13:27:51Z</time>
      </trkpt>
      <trkpt lat="49.83931" lon="2.28473">
        <ele>95.7</ele>
        <time>2023-04-05T13:27:53Z</time>
      </trkpt>
      <trkpt lat="49.83931" lon="2.28477">
        <ele>95.6</ele>
        <time>2023-04-05T13:27:54Z</time>
      </trkpt>
      <trkpt lat="49.83931" lon="2.28478">
        <ele>95.5</ele>
        <time>2023-04-05T13:27:55Z</time>
      </trkpt>
      <trkpt lat="49.83931" lon="2.28481">
        <ele>95.4</ele>
        <time>2023-04-05T13:27:57Z</time>
      </trkpt>
      <trkpt lat="49.83931" lon="2.28483">
        <ele>95.4</ele>
        <time>2023-04-05T13:27:58Z</time>
      </trkpt>
      <trkpt lat="49.8393" lon="2.28484">
        <ele>95.3</ele>
        <time>2023-04-05T13:27:59Z</time>
      </trkpt>
      <trkpt lat="49.8393" lon="2.28486">
        <ele>95.2</ele>
        <time>2023-04-05T13:28:00Z</time>
      </trkpt>
      <trkpt lat="49.8393" lon="2.28488">
        <ele>95.1</ele>
        <time>2023-04-05T13:28:01Z</time>
      </trkpt>
      <trkpt lat="49.83929" lon="2.2849">
        <ele>95.1</ele>
        <time>2023-04-05T13:28:02Z</time>
      </trkpt>
      <trkpt lat="49.83929" lon="2.28491">
        <ele>95</ele>
        <time>2023-04-05T13:28:03Z</time>
      </trkpt>
      <trkpt lat="49.83929" lon="2.28492">
        <ele>95</ele>
        <time>2023-04-05T13:28:04Z</time>
      </trkpt>
      <trkpt lat="49.83929" lon="2.28493">
        <ele>94.9</ele>
        <time>2023-04-05T13:28:06Z</time>
      </trkpt>
      <trkpt lat="49.83928" lon="2.28494">
        <ele>94.9</ele>
        <time>2023-04-05T13:28:07Z</time>
      </trkpt>
      <trkpt lat="49.83928" lon="2.28494">
        <ele>94.9</ele>
        <time>2023-04-05T13:28:08Z</time>
      </trkpt>
      <trkpt lat="49.83928" lon="2.28495">
        <ele>94.8</ele>
        <time>2023-04-05T13:28:09Z</time>
      </trkpt>
      <trkpt lat="49.83927" lon="2.28496">
        <ele>94.8</ele>
        <time>2023-04-05T13:28:10Z</time>
      </trkpt>
      <trkpt lat="49.83927" lon="2.28498">
        <ele>94.7</ele>
        <time>2023-04-05T13:28:11Z</time>
      </trkpt>
      <trkpt lat="49.83927" lon="2.285">
        <ele>94.7</ele>
        <time>2023-04-05T13:28:12Z</time>
      </trkpt>
      <trkpt lat="49.83926" lon="2.28502">
        <ele>94.6</ele>
        <time>2023-04-05T13:28:13Z</time>
      </trkpt>
      <trkpt lat="49.83926" lon="2.28504">
        <ele>94.5</ele>
        <time>2023-04-05T13:28:15Z</time>
      </trkpt>
      <trkpt lat="49.83925" lon="2.28506">
        <ele>94.4</ele>
        <time>2023-04-05T13:28:16Z</time>
      </trkpt>
      <trkpt lat="49.83925" lon="2.28507">
        <ele>94.4</ele>
        <time>2023-04-05T13:28:17Z</time>
      </trkpt>
      <trkpt lat="49.83924" lon="2.28509">
        <ele>94.3</ele>
        <time>2023-04-05T13:28:18Z</time>
      </trkpt>
      <trkpt lat="49.83924" lon="2.28511">
        <ele>94.2</ele>
        <time>2023-04-05T13:28:19Z</time>
      </trkpt>
      <trkpt lat="49.83923" lon="2.28512">
        <ele>94.2</ele>
        <time>2023-04-05T13:28:20Z</time>
      </trkpt>
      <trkpt lat="49.83923" lon="2.28514">
        <ele>94.1</ele>
        <time>2023-04-05T13:28:21Z</time>
      </trkpt>
      <trkpt lat="49.83922" lon="2.28515">
        <ele>94.1</ele>
        <time>2023-04-05T13:28:22Z</time>
      </trkpt>
      <trkpt lat="49.83922" lon="2.28517">
        <ele>94</ele>
        <time>2023-04-05T13:28:23Z</time>
      </trkpt>
      <trkpt lat="49.83921" lon="2.2852">
        <ele>93.9</ele>
        <time>2023-04-05T13:28:25Z</time>
      </trkpt>
      <trkpt lat="49.8392" lon="2.28522">
        <ele>93.8</ele>
        <time>2023-04-05T13:28:27Z</time>
      </trkpt>
      <trkpt lat="49.8392" lon="2.28524">
        <ele>93.8</ele>
        <time>2023-04-05T13:28:28Z</time>
      </trkpt>
      <trkpt lat="49.83919" lon="2.28525">
        <ele>93.7</ele>
        <time>2023-04-05T13:28:29Z</time>
      </trkpt>
      <trkpt lat="49.83919" lon="2.28527">
        <ele>93.6</ele>
        <time>2023-04-05T13:28:30Z</time>
      </trkpt>
      <trkpt lat="49.83918" lon="2.28529">
        <ele>93.6</ele>
        <time>2023-04-05T13:28:31Z</time>
      </trkpt>
      <trkpt lat="49.83918" lon="2.28531">
        <ele>93.5</ele>
        <time>2023-04-05T13:28:33Z</time>
      </trkpt>
      <trkpt lat="49.83917" lon="2.28534">
        <ele>93.4</ele>
        <time>2023-04-05T13:28:34Z</time>
      </trkpt>
      <trkpt lat="49.83917" lon="2.28535">
        <ele>93.4</ele>
        <time>2023-04-05T13:28:35Z</time>
      </trkpt>
      <trkpt lat="49.83917" lon="2.28537">
        <ele>93.4</ele>
        <time>2023-04-05T13:28:36Z</time>
      </trkpt>
      <trkpt lat="49.83916" lon="2.28539">
        <ele>93.3</ele>
        <time>2023-04-05T13:28:37Z</time>
      </trkpt>
      <trkpt lat="49.83916" lon="2.28541">
        <ele>93.2</ele>
        <time>2023-04-05T13:28:38Z</time>
      </trkpt>
      <trkpt lat="49.83915" lon="2.28543">
        <ele>93.2</ele>
        <time>2023-04-05T13:28:39Z</time>
      </trkpt>
      <trkpt lat="49.83914" lon="2.28545">
        <ele>93.1</ele>
        <time>2023-04-05T13:28:40Z</time>
      </trkpt>
      <trkpt lat="49.83914" lon="2.28547">
        <ele>93.1</ele>
        <time>2023-04-05T13:28:41Z</time>
      </trkpt>
      <trkpt lat="49.83913" lon="2.28549">
        <ele>93</ele>
        <time>2023-04-05T13:28:42Z</time>
      </trkpt>
      <trkpt lat="49.83912" lon="2.2855">
        <ele>93</ele>
        <time>2023-04-05T13:28:44Z</time>
      </trkpt>
      <trkpt lat="49.83912" lon="2.28551">
        <ele>93</ele>
        <time>2023-04-05T13:28:45Z</time>
      </trkpt>
      <trkpt lat="49.83911" lon="2.28553">
        <ele>92.9</ele>
        <time>2023-04-05T13:28:46Z</time>
      </trkpt>
      <trkpt lat="49.8391" lon="2.28555">
        <ele>92.8</ele>
        <time>2023-04-05T13:28:47Z</time>
      </trkpt>
      <trkpt lat="49.83909" lon="2.28556">
        <ele>92.8</ele>
        <time>2023-04-05T13:28:48Z</time>
      </trkpt>
      <trkpt lat="49.83908" lon="2.28557">
        <ele>92.8</ele>
        <time>2023-04-05T13:28:49Z</time>
      </trkpt>
      <trkpt lat="49.83907" lon="2.28561">
        <ele>92.7</ele>
        <time>2023-04-05T13:28:50Z</time>
      </trkpt>
      <trkpt lat="49.83906" lon="2.28562">
        <ele>92.6</ele>
        <time>2023-04-05T13:28:51Z</time>
      </trkpt>
      <trkpt lat="49.83903" lon="2.28565">
        <ele>92.5</ele>
        <time>2023-04-05T13:28:52Z</time>
      </trkpt>
      <trkpt lat="49.83902" lon="2.28566">
        <ele>92.5</ele>
        <time>2023-04-05T13:28:53Z</time>
      </trkpt>
      <trkpt lat="49.83901" lon="2.28569">
        <ele>92.4</ele>
        <time>2023-04-05T13:28:54Z</time>
      </trkpt>
      <trkpt lat="49.83898" lon="2.28571">
        <ele>92.4</ele>
        <time>2023-04-05T13:28:56Z</time>
      </trkpt>
      <trkpt lat="49.83897" lon="2.28572">
        <ele>92.3</ele>
        <time>2023-04-05T13:28:57Z</time>
      </trkpt>
      <trkpt lat="49.83896" lon="2.28574">
        <ele>92.3</ele>
        <time>2023-04-05T13:28:58Z</time>
      </trkpt>
      <trkpt lat="49.83895" lon="2.28576">
        <ele>92.2</ele>
        <time>2023-04-05T13:28:59Z</time>
      </trkpt>
      <trkpt lat="49.83894" lon="2.28577">
        <ele>92.2</ele>
        <time>2023-04-05T13:29:00Z</time>
      </trkpt>
      <trkpt lat="49.83894" lon="2.28578">
        <ele>92.2</ele>
        <time>2023-04-05T13:29:01Z</time>
      </trkpt>
      <trkpt lat="49.83893" lon="2.2858">
        <ele>92.1</ele>
        <time>2023-04-05T13:29:03Z</time>
      </trkpt>
      <trkpt lat="49.83892" lon="2.2858">
        <ele>92.1</ele>
        <time>2023-04-05T13:29:04Z</time>
      </trkpt>
      <trkpt lat="49.83891" lon="2.28581">
        <ele>92.1</ele>
        <time>2023-04-05T13:29:05Z</time>
      </trkpt>
      <trkpt lat="49.83891" lon="2.28583">
        <ele>92.1</ele>
        <time>2023-04-05T13:29:06Z</time>
      </trkpt>
      <trkpt lat="49.8389" lon="2.28584">
        <ele>92</ele>
        <time>2023-04-05T13:29:07Z</time>
      </trkpt>
      <trkpt lat="49.83889" lon="2.28586">
        <ele>92</ele>
        <time>2023-04-05T13:29:09Z</time>
      </trkpt>
      <trkpt lat="49.83887" lon="2.28589">
        <ele>91.9</ele>
        <time>2023-04-05T13:29:10Z</time>
      </trkpt>
      <trkpt lat="49.83886" lon="2.28591">
        <ele>91.9</ele>
        <time>2023-04-05T13:29:11Z</time>
      </trkpt>
      <trkpt lat="49.83885" lon="2.28592">
        <ele>91.9</ele>
        <time>2023-04-05T13:29:12Z</time>
      </trkpt>
      <trkpt lat="49.83882" lon="2.28596">
        <ele>91.8</ele>
        <time>2023-04-05T13:29:13Z</time>
      </trkpt>
      <trkpt lat="49.83881" lon="2.28597">
        <ele>91.7</ele>
        <time>2023-04-05T13:29:14Z</time>
      </trkpt>
      <trkpt lat="49.83879" lon="2.286">
        <ele>91.7</ele>
        <time>2023-04-05T13:29:15Z</time>
      </trkpt>
      <trkpt lat="49.83878" lon="2.28601">
        <ele>91.7</ele>
        <time>2023-04-05T13:29:16Z</time>
      </trkpt>
      <trkpt lat="49.83877" lon="2.28603">
        <ele>91.6</ele>
        <time>2023-04-05T13:29:17Z</time>
      </trkpt>
      <trkpt lat="49.83876" lon="2.28604">
        <ele>91.6</ele>
        <time>2023-04-05T13:29:18Z</time>
      </trkpt>
      <trkpt lat="49.83875" lon="2.28605">
        <ele>91.6</ele>
        <time>2023-04-05T13:29:20Z</time>
      </trkpt>
      <trkpt lat="49.83875" lon="2.28606">
        <ele>91.5</ele>
        <time>2023-04-05T13:29:21Z</time>
      </trkpt>
      <trkpt lat="49.83874" lon="2.28607">
        <ele>91.5</ele>
        <time>2023-04-05T13:29:22Z</time>
      </trkpt>
      <trkpt lat="49.83873" lon="2.28608">
        <ele>91.5</ele>
        <time>2023-04-05T13:29:23Z</time>
      </trkpt>
      <trkpt lat="49.83871" lon="2.2861">
        <ele>91.4</ele>
        <time>2023-04-05T13:29:24Z</time>
      </trkpt>
      <trkpt lat="49.83871" lon="2.2861">
        <ele>91.4</ele>
        <time>2023-04-05T13:29:25Z</time>
      </trkpt>
      <trkpt lat="49.8387" lon="2.28611">
        <ele>91.3</ele>
        <time>2023-04-05T13:29:27Z</time>
      </trkpt>
      <trkpt lat="49.83869" lon="2.28612">
        <ele>91.3</ele>
        <time>2023-04-05T13:29:28Z</time>
      </trkpt>
      <trkpt lat="49.83868" lon="2.28612">
        <ele>91.3</ele>
        <time>2023-04-05T13:29:29Z</time>
      </trkpt>
      <trkpt lat="49.83867" lon="2.28613">
        <ele>91.2</ele>
        <time>2023-04-05T13:29:30Z</time>
      </trkpt>
      <trkpt lat="49.83867" lon="2.28614">
        <ele>91.2</ele>
        <time>2023-04-05T13:29:31Z</time>
      </trkpt>
      <trkpt lat="49.83866" lon="2.28615">
        <ele>91.2</ele>
        <time>2023-04-05T13:29:32Z</time>
      </trkpt>
      <trkpt lat="49.83865" lon="2.28616">
        <ele>91.1</ele>
        <time>2023-04-05T13:29:34Z</time>
      </trkpt>
      <trkpt lat="49.83865" lon="2.28616">
        <ele>91.1</ele>
        <time>2023-04-05T13:29:35Z</time>
      </trkpt>
      <trkpt lat="49.83864" lon="2.28617">
        <ele>91.1</ele>
        <time>2023-04-05T13:29:36Z</time>
      </trkpt>
      <trkpt lat="49.83863" lon="2.28618">
        <ele>91</ele>
        <time>2023-04-05T13:29:37Z</time>
      </trkpt>
      <trkpt lat="49.83863" lon="2.28618">
        <ele>91</ele>
        <time>2023-04-05T13:29:39Z</time>
      </trkpt>
      <trkpt lat="49.83863" lon="2.28618">
        <ele>91</ele>
        <time>2023-04-05T13:29:40Z</time>
      </trkpt>
      <trkpt lat="49.83862" lon="2.28617">
        <ele>90.9</ele>
        <time>2023-04-05T13:29:41Z</time>
      </trkpt>
      <trkpt lat="49.83862" lon="2.28617">
        <ele>90.9</ele>
        <time>2023-04-05T13:29:43Z</time>
      </trkpt>
      <trkpt lat="49.83861" lon="2.28618">
        <ele>90.9</ele>
        <time>2023-04-05T13:29:44Z</time>
      </trkpt>
      <trkpt lat="49.83861" lon="2.28619">
        <ele>90.9</ele>
        <time>2023-04-05T13:29:45Z</time>
      </trkpt>
      <trkpt lat="49.8386" lon="2.2862">
        <ele>90.8</ele>
        <time>2023-04-05T13:29:46Z</time>
      </trkpt>
      <trkpt lat="49.8386" lon="2.28621">
        <ele>90.8</ele>
        <time>2023-04-05T13:29:48Z</time>
      </trkpt>
      <trkpt lat="49.8386" lon="2.28622">
        <ele>90.8</ele>
        <time>2023-04-05T13:29:49Z</time>
      </trkpt>
      <trkpt lat="49.83861" lon="2.28622">
        <ele>90.7</ele>
        <time>2023-04-05T13:29:50Z</time>
      </trkpt>
      <trkpt lat="49.83862" lon="2.28622">
        <ele>90.7</ele>
        <time>2023-04-05T13:29:51Z</time>
      </trkpt>
      <trkpt lat="49.83863" lon="2.28622">
        <ele>90.6</ele>
        <time>2023-04-05T13:29:53Z</time>
      </trkpt>
      <trkpt lat="49.83864" lon="2.28622">
        <ele>90.6</ele>
        <time>2023-04-05T13:29:55Z</time>
      </trkpt>
      <trkpt lat="49.83864" lon="2.28622">
        <ele>90.6</ele>
        <time>2023-04-05T13:29:56Z</time>
      </trkpt>
      <trkpt lat="49.83864" lon="2.28621">
        <ele>90.6</ele>
        <time>2023-04-05T13:29:58Z</time>
      </trkpt>
      <trkpt lat="49.83865" lon="2.28621">
        <ele>90.5</ele>
        <time>2023-04-05T13:29:59Z</time>
      </trkpt>
      <trkpt lat="49.83865" lon="2.28621">
        <ele>90.5</ele>
        <time>2023-04-05T13:30:00Z</time>
      </trkpt>
      <trkpt lat="49.83865" lon="2.28621">
        <ele>90.5</ele>
        <time>2023-04-05T13:30:01Z</time>
      </trkpt>
      <trkpt lat="49.83865" lon="2.28621">
        <ele>90.5</ele>
        <time>2023-04-05T13:30:03Z</time>
      </trkpt>
      <trkpt lat="49.83865" lon="2.2862">
        <ele>90.5</ele>
        <time>2023-04-05T13:30:05Z</time>
      </trkpt>
      <trkpt lat="49.83866" lon="2.2862">
        <ele>90.5</ele>
        <time>2023-04-05T13:30:06Z</time>
      </trkpt>
      <trkpt lat="49.83865" lon="2.2862">
        <ele>90.5</ele>
        <time>2023-04-05T13:30:08Z</time>
      </trkpt>
      <trkpt lat="49.83865" lon="2.2862">
        <ele>90.5</ele>
        <time>2023-04-05T13:30:09Z</time>
      </trkpt>
      <trkpt lat="49.83865" lon="2.2862">
        <ele>90.4</ele>
        <time>2023-04-05T13:30:10Z</time>
      </trkpt>
      <trkpt lat="49.83865" lon="2.2862">
        <ele>90.4</ele>
        <time>2023-04-05T13:30:11Z</time>
      </trkpt>
      <trkpt lat="49.83865" lon="2.2862">
        <ele>90.4</ele>
        <time>2023-04-05T13:30:12Z</time>
      </trkpt>
      <trkpt lat="49.83865" lon="2.2862">
        <ele>90.4</ele>
        <time>2023-04-05T13:30:13Z</time>
      </trkpt>
      <trkpt lat="49.83865" lon="2.2862">
        <ele>90.4</ele>
        <time>2023-04-05T13:30:14Z</time>
      </trkpt>
      <trkpt lat="49.83865" lon="2.2862">
        <ele>90.4</ele>
        <time>2023-04-05T13:30:15Z</time>
      </trkpt>
      <trkpt lat="49.83865" lon="2.2862">
        <ele>90.4</ele>
        <time>2023-04-05T13:30:16Z</time>
      </trkpt>
      <trkpt lat="49.83865" lon="2.2862">
        <ele>90.4</ele>
        <time>2023-04-05T13:30:17Z</time>
      </trkpt>
      <trkpt lat="49.83865" lon="2.2862">
        <ele>90.4</ele>
        <time>2023-04-05T13:30:18Z</time>
      </trkpt>
      <trkpt lat="49.83865" lon="2.2862">
        <ele>90.4</ele>
        <time>2023-04-05T13:30:19Z</time>
      </trkpt>
      <trkpt lat="49.83865" lon="2.2862">
        <ele>90.4</ele>
        <time>2023-04-05T13:30:20Z</time>
      </trkpt>
      <trkpt lat="49.83865" lon="2.2862">
        <ele>90.4</ele>
        <time>2023-04-05T13:30:21Z</time>
      </trkpt>
      <trkpt lat="49.83865" lon="2.2862">
        <ele>90.4</ele>
        <time>2023-04-05T13:30:22Z</time>
      </trkpt>
      <trkpt lat="49.83865" lon="2.2862">
        <ele>90.4</ele>
        <time>2023-04-05T13:30:23Z</time>
      </trkpt>
      <trkpt lat="49.83865" lon="2.2862">
        <ele>90.4</ele>
        <time>2023-04-05T13:30:24Z</time>
      </trkpt>
      <trkpt lat="49.83865" lon="2.2862">
        <ele>90.4</ele>
        <time>2023-04-05T13:30:25Z</time>
      </trkpt>
      <trkpt lat="49.83865" lon="2.2862">
        <ele>90.4</ele>
        <time>2023-04-05T13:30:26Z</time>
      </trkpt>
      <trkpt lat="49.83865" lon="2.2862">
        <ele>90.4</ele>
        <time>2023-04-05T13:30:27Z</time>
      </trkpt>
      <trkpt lat="49.83865" lon="2.2862">
        <ele>90.4</ele>
        <time>2023-04-05T13:30:28Z</time>
      </trkpt>
      <trkpt lat="49.83865" lon="2.2862">
        <ele>90.4</ele>
        <time>2023-04-05T13:30:29Z</time>
      </trkpt>
      <trkpt lat="49.83865" lon="2.2862">
        <ele>90.4</ele>
        <time>2023-04-05T13:30:30Z</time>
      </trkpt>
      <trkpt lat="49.83865" lon="2.2862">
        <ele>90.4</ele>
        <time>2023-04-05T13:30:31Z</time>
      </trkpt>
      <trkpt lat="49.83865" lon="2.2862">
        <ele>90.4</ele>
        <time>2023-04-05T13:30:32Z</time>
      </trkpt>
      <trkpt lat="49.83865" lon="2.2862">
        <ele>90.4</ele>
        <time>2023-04-05T13:30:33Z</time>
      </trkpt>
      <trkpt lat="49.83865" lon="2.2862">
        <ele>90.4</ele>
        <time>2023-04-05T13:30:34Z</time>
      </trkpt>
      <trkpt lat="49.83865" lon="2.2862">
        <ele>90.4</ele>
        <time>2023-04-05T13:30:35Z</time>
      </trkpt>
      <trkpt lat="49.83865" lon="2.2862">
        <ele>90.4</ele>
        <time>2023-04-05T13:30:36Z</time>
      </trkpt>
      <trkpt lat="49.83865" lon="2.2862">
        <ele>90.4</ele>
        <time>2023-04-05T13:30:37Z</time>
      </trkpt>
      <trkpt lat="49.83865" lon="2.2862">
        <ele>90.4</ele>
        <time>2023-04-05T13:30:38Z</time>
      </trkpt>
      <trkpt lat="49.83865" lon="2.2862">
        <ele>90.4</ele>
        <time>2023-04-05T13:30:39Z</time>
      </trkpt>
      <trkpt lat="49.83865" lon="2.2862">
        <ele>90.4</ele>
        <time>2023-04-05T13:30:40Z</time>
      </trkpt>
      <trkpt lat="49.83865" lon="2.2862">
        <ele>90.4</ele>
        <time>2023-04-05T13:30:41Z</time>
      </trkpt>
      <trkpt lat="49.83865" lon="2.2862">
        <ele>90.4</ele>
        <time>2023-04-05T13:30:42Z</time>
      </trkpt>
      <trkpt lat="49.83865" lon="2.2862">
        <ele>90.4</ele>
        <time>2023-04-05T13:30:43Z</time>
      </trkpt>
      <trkpt lat="49.83865" lon="2.2862">
        <ele>90.4</ele>
        <time>2023-04-05T13:30:44Z</time>
      </trkpt>
      <trkpt lat="49.83865" lon="2.2862">
        <ele>90.4</ele>
        <time>2023-04-05T13:30:45Z</time>
      </trkpt>
      <trkpt lat="49.83865" lon="2.2862">
        <ele>90.4</ele>
        <time>2023-04-05T13:30:46Z</time>
      </trkpt>
      <trkpt lat="49.83865" lon="2.2862">
        <ele>90.4</ele>
        <time>2023-04-05T13:30:47Z</time>
      </trkpt>
      <trkpt lat="49.83865" lon="2.2862">
        <ele>90.4</ele>
        <time>2023-04-05T13:30:48Z</time>
      </trkpt>
      <trkpt lat="49.83865" lon="2.2862">
        <ele>90.4</ele>
        <time>2023-04-05T13:30:49Z</time>
      </trkpt>
      <trkpt lat="49.83865" lon="2.2862">
        <ele>90.4</ele>
        <time>2023-04-05T13:30:50Z</time>
      </trkpt>
      <trkpt lat="49.83865" lon="2.2862">
        <ele>90.4</ele>
        <time>2023-04-05T13:30:51Z</time>
      </trkpt>
      <trkpt lat="49.83865" lon="2.2862">
        <ele>90.4</ele>
        <time>2023-04-05T13:30:52Z</time>
      </trkpt>
      <trkpt lat="49.83865" lon="2.2862">
        <ele>90.4</ele>
        <time>2023-04-05T13:30:53Z</time>
      </trkpt>
      <trkpt lat="49.83865" lon="2.2862">
        <ele>90.4</ele>
        <time>2023-04-05T13:30:54Z</time>
      </trkpt>
      <trkpt lat="49.83865" lon="2.2862">
        <ele>90.4</ele>
        <time>2023-04-05T13:30:55Z</time>
      </trkpt>
      <trkpt lat="49.83865" lon="2.2862">
        <ele>90.4</ele>
        <time>2023-04-05T13:30:56Z</time>
      </trkpt>
      <trkpt lat="49.83865" lon="2.2862">
        <ele>90.4</ele>
        <time>2023-04-05T13:30:57Z</time>
      </trkpt>
      <trkpt lat="49.83865" lon="2.2862">
        <ele>90.4</ele>
        <time>2023-04-05T13:30:58Z</time>
      </trkpt>
      <trkpt lat="49.83865" lon="2.2862">
        <ele>90.4</ele>
        <time>2023-04-05T13:30:59Z</time>
      </trkpt>
      <trkpt lat="49.83865" lon="2.2862">
        <ele>90.4</ele>
        <time>2023-04-05T13:31:00Z</time>
      </trkpt>
      <trkpt lat="49.83865" lon="2.2862">
        <ele>90.4</ele>
        <time>2023-04-05T13:31:01Z</time>
      </trkpt>
      <trkpt lat="49.83865" lon="2.2862">
        <ele>90.4</ele>
        <time>2023-04-05T13:31:02Z</time>
      </trkpt>
      <trkpt lat="49.83865" lon="2.2862">
        <ele>90.4</ele>
        <time>2023-04-05T13:31:03Z</time>
      </trkpt>
      <trkpt lat="49.83865" lon="2.2862">
        <ele>90.4</ele>
        <time>2023-04-05T13:31:04Z</time>
      </trkpt>
      <trkpt lat="49.83865" lon="2.2862">
        <ele>90.4</ele>
        <time>2023-04-05T13:31:05Z</time>
      </trkpt>
      <trkpt lat="49.83865" lon="2.2862">
        <ele>90.4</ele>
        <time>2023-04-05T13:31:06Z</time>
      </trkpt>
      <trkpt lat="49.83865" lon="2.2862">
        <ele>90.4</ele>
        <time>2023-04-05T13:31:07Z</time>
      </trkpt>
      <trkpt lat="49.83865" lon="2.2862">
        <ele>90.4</ele>
        <time>2023-04-05T13:31:08Z</time>
      </trkpt>
      <trkpt lat="49.83865" lon="2.2862">
        <ele>90.4</ele>
        <time>2023-04-05T13:31:09Z</time>
      </trkpt>
      <trkpt lat="49.83865" lon="2.2862">
        <ele>90.4</ele>
        <time>2023-04-05T13:31:10Z</time>
      </trkpt>
      <trkpt lat="49.83865" lon="2.2862">
        <ele>90.4</ele>
        <time>2023-04-05T13:31:11Z</time>
      </trkpt>
      <trkpt lat="49.83865" lon="2.2862">
        <ele>90.4</ele>
        <time>2023-04-05T13:31:12Z</time>
      </trkpt>
      <trkpt lat="49.83865" lon="2.2862">
        <ele>90.4</ele>
        <time>2023-04-05T13:31:13Z</time>
      </trkpt>
      <trkpt lat="49.83865" lon="2.2862">
        <ele>90.4</ele>
        <time>2023-04-05T13:31:14Z</time>
      </trkpt>
      <trkpt lat="49.83865" lon="2.2862">
        <ele>90.4</ele>
        <time>2023-04-05T13:31:15Z</time>
      </trkpt>
      <trkpt lat="49.83865" lon="2.2862">
        <ele>90.4</ele>
        <time>2023-04-05T13:31:16Z</time>
      </trkpt>
      <trkpt lat="49.83865" lon="2.2862">
        <ele>90.4</ele>
        <time>2023-04-05T13:31:17Z</time>
      </trkpt>
      <trkpt lat="49.83865" lon="2.2862">
        <ele>90.4</ele>
        <time>2023-04-05T13:31:18Z</time>
      </trkpt>
      <trkpt lat="49.83865" lon="2.2862">
        <ele>90.4</ele>
        <time>2023-04-05T13:31:19Z</time>
      </trkpt>
      <trkpt lat="49.83865" lon="2.2862">
        <ele>90.4</ele>
        <time>2023-04-05T13:31:20Z</time>
      </trkpt>
      <trkpt lat="49.83865" lon="2.2862">
        <ele>90.4</ele>
        <time>2023-04-05T13:31:21Z</time>
      </trkpt>
      <trkpt lat="49.83865" lon="2.2862">
        <ele>90.4</ele>
        <time>2023-04-05T13:31:22Z</time>
      </trkpt>
      <trkpt lat="49.83865" lon="2.2862">
        <ele>90.4</ele>
        <time>2023-04-05T13:31:23Z</time>
      </trkpt>
      <trkpt lat="49.83865" lon="2.2862">
        <ele>90.4</ele>
        <time>2023-04-05T13:31:24Z</time>
      </trkpt>
      <trkpt lat="49.83865" lon="2.2862">
        <ele>90.4</ele>
        <time>2023-04-05T13:31:25Z</time>
      </trkpt>
      <trkpt lat="49.83865" lon="2.2862">
        <ele>90.4</ele>
        <time>2023-04-05T13:31:26Z</time>
      </trkpt>
      <trkpt lat="49.83865" lon="2.2862">
        <ele>90.4</ele>
        <time>2023-04-05T13:31:27Z</time>
      </trkpt>
      <trkpt lat="49.83865" lon="2.2862">
        <ele>90.4</ele>
        <time>2023-04-05T13:31:28Z</time>
      </trkpt>
      <trkpt lat="49.83865" lon="2.2862">
        <ele>90.4</ele>
        <time>2023-04-05T13:31:29Z</time>
      </trkpt>
      <trkpt lat="49.83865" lon="2.2862">
        <ele>90.4</ele>
        <time>2023-04-05T13:31:30Z</time>
      </trkpt>
      <trkpt lat="49.83865" lon="2.2862">
        <ele>90.4</ele>
        <time>2023-04-05T13:31:31Z</time>
      </trkpt>
      <trkpt lat="49.83865" lon="2.2862">
        <ele>90.4</ele>
        <time>2023-04-05T13:31:32Z</time>
      </trkpt>
      <trkpt lat="49.83865" lon="2.2862">
        <ele>90.4</ele>
        <time>2023-04-05T13:31:33Z</time>
      </trkpt>
      <trkpt lat="49.83865" lon="2.2862">
        <ele>90.4</ele>
        <time>2023-04-05T13:31:34Z</time>
      </trkpt>
      <trkpt lat="49.83865" lon="2.2862">
        <ele>90.4</ele>
        <time>2023-04-05T13:31:35Z</time>
      </trkpt>
      <trkpt lat="49.83865" lon="2.2862">
        <ele>90.4</ele>
        <time>2023-04-05T13:31:36Z</time>
      </trkpt>
      <trkpt lat="49.83865" lon="2.2862">
        <ele>90.4</ele>
        <time>2023-04-05T13:31:37Z</time>
      </trkpt>
      <trkpt lat="49.83865" lon="2.2862">
        <ele>90.4</ele>
        <time>2023-04-05T13:31:38Z</time>
      </trkpt>
      <trkpt lat="49.83865" lon="2.2862">
        <ele>90.4</ele>
        <time>2023-04-05T13:31:39Z</time>
      </trkpt>
      <trkpt lat="49.83866" lon="2.28621">
        <ele>90.4</ele>
        <time>2023-04-05T13:31:40Z</time>
      </trkpt>
      <trkpt lat="49.83866" lon="2.28622">
        <ele>90.3</ele>
        <time>2023-04-05T13:31:41Z</time>
      </trkpt>
      <trkpt lat="49.83866" lon="2.28625">
        <ele>90.2</ele>
        <time>2023-04-05T13:31:42Z</time>
      </trkpt>
      <trkpt lat="49.83866" lon="2.28626">
        <ele>90.2</ele>
        <time>2023-04-05T13:31:43Z</time>
      </trkpt>
      <trkpt lat="49.83866" lon="2.28627">
        <ele>90.1</ele>
        <time>2023-04-05T13:31:44Z</time>
      </trkpt>
      <trkpt lat="49.83865" lon="2.28629">
        <ele>90.1</ele>
        <time>2023-04-05T13:31:45Z</time>
      </trkpt>
      <trkpt lat="49.83864" lon="2.2863">
        <ele>90</ele>
        <time>2023-04-05T13:31:46Z</time>
      </trkpt>
      <trkpt lat="49.83863" lon="2.28632">
        <ele>89.9</ele>
        <time>2023-04-05T13:31:47Z</time>
      </trkpt>
      <trkpt lat="49.83863" lon="2.28633">
        <ele>89.9</ele>
        <time>2023-04-05T13:31:49Z</time>
      </trkpt>
      <trkpt lat="49.83862" lon="2.28634">
        <ele>89.8</ele>
        <time>2023-04-05T13:31:50Z</time>
      </trkpt>
      <trkpt lat="49.83862" lon="2.28635">
        <ele>89.8</ele>
        <time>2023-04-05T13:31:51Z</time>
      </trkpt>
      <trkpt lat="49.8386" lon="2.28639">
        <ele>89.6</ele>
        <time>2023-04-05T13:31:52Z</time>
      </trkpt>
      <trkpt lat="49.8386" lon="2.2864">
        <ele>89.6</ele>
        <time>2023-04-05T13:31:53Z</time>
      </trkpt>
      <trkpt lat="49.83859" lon="2.28642">
        <ele>89.5</ele>
        <time>2023-04-05T13:31:54Z</time>
      </trkpt>
      <trkpt lat="49.83858" lon="2.28644">
        <ele>89.4</ele>
        <time>2023-04-05T13:31:55Z</time>
      </trkpt>
      <trkpt lat="49.83857" lon="2.28646">
        <ele>89.3</ele>
        <time>2023-04-05T13:31:57Z</time>
      </trkpt>
      <trkpt lat="49.83857" lon="2.28648">
        <ele>89.2</ele>
        <time>2023-04-05T13:31:58Z</time>
      </trkpt>
      <trkpt lat="49.83855" lon="2.28651">
        <ele>89.1</ele>
        <time>2023-04-05T13:31:59Z</time>
      </trkpt>
      <trkpt lat="49.83855" lon="2.28652">
        <ele>89</ele>
        <time>2023-04-05T13:32:00Z</time>
      </trkpt>
      <trkpt lat="49.83855" lon="2.28653">
        <ele>89</ele>
        <time>2023-04-05T13:32:01Z</time>
      </trkpt>
      <trkpt lat="49.83853" lon="2.28655">
        <ele>88.9</ele>
        <time>2023-04-05T13:32:02Z</time>
      </trkpt>
      <trkpt lat="49.83853" lon="2.28656">
        <ele>88.8</ele>
        <time>2023-04-05T13:32:03Z</time>
      </trkpt>
      <trkpt lat="49.83851" lon="2.28659">
        <ele>88.7</ele>
        <time>2023-04-05T13:32:04Z</time>
      </trkpt>
      <trkpt lat="49.83851" lon="2.2866">
        <ele>88.7</ele>
        <time>2023-04-05T13:32:06Z</time>
      </trkpt>
      <trkpt lat="49.8385" lon="2.28661">
        <ele>88.6</ele>
        <time>2023-04-05T13:32:07Z</time>
      </trkpt>
      <trkpt lat="49.83849" lon="2.28661">
        <ele>88.6</ele>
        <time>2023-04-05T13:32:08Z</time>
      </trkpt>
      <trkpt lat="49.83848" lon="2.28663">
        <ele>88.5</ele>
        <time>2023-04-05T13:32:09Z</time>
      </trkpt>
      <trkpt lat="49.83848" lon="2.28664">
        <ele>88.4</ele>
        <time>2023-04-05T13:32:10Z</time>
      </trkpt>
      <trkpt lat="49.83847" lon="2.28665">
        <ele>88.4</ele>
        <time>2023-04-05T13:32:12Z</time>
      </trkpt>
      <trkpt lat="49.83845" lon="2.28667">
        <ele>88.3</ele>
        <time>2023-04-05T13:32:13Z</time>
      </trkpt>
      <trkpt lat="49.83845" lon="2.28668">
        <ele>88.2</ele>
        <time>2023-04-05T13:32:14Z</time>
      </trkpt>
      <trkpt lat="49.83844" lon="2.28669">
        <ele>88.2</ele>
        <time>2023-04-05T13:32:15Z</time>
      </trkpt>
      <trkpt lat="49.83843" lon="2.2867">
        <ele>88.1</ele>
        <time>2023-04-05T13:32:16Z</time>
      </trkpt>
      <trkpt lat="49.83841" lon="2.28672">
        <ele>88</ele>
        <time>2023-04-05T13:32:17Z</time>
      </trkpt>
      <trkpt lat="49.8384" lon="2.28674">
        <ele>87.9</ele>
        <time>2023-04-05T13:32:19Z</time>
      </trkpt>
      <trkpt lat="49.8384" lon="2.28675">
        <ele>87.9</ele>
        <time>2023-04-05T13:32:20Z</time>
      </trkpt>
      <trkpt lat="49.83839" lon="2.28676">
        <ele>87.8</ele>
        <time>2023-04-05T13:32:21Z</time>
      </trkpt>
      <trkpt lat="49.83838" lon="2.28678">
        <ele>87.7</ele>
        <time>2023-04-05T13:32:22Z</time>
      </trkpt>
      <trkpt lat="49.83836" lon="2.2868">
        <ele>87.6</ele>
        <time>2023-04-05T13:32:23Z</time>
      </trkpt>
      <trkpt lat="49.83835" lon="2.28682">
        <ele>87.5</ele>
        <time>2023-04-05T13:32:24Z</time>
      </trkpt>
      <trkpt lat="49.83834" lon="2.28685">
        <ele>87.3</ele>
        <time>2023-04-05T13:32:25Z</time>
      </trkpt>
      <trkpt lat="49.83834" lon="2.28686">
        <ele>87.2</ele>
        <time>2023-04-05T13:32:27Z</time>
      </trkpt>
      <trkpt lat="49.83833" lon="2.28688">
        <ele>87.1</ele>
        <time>2023-04-05T13:32:28Z</time>
      </trkpt>
      <trkpt lat="49.83833" lon="2.28689">
        <ele>87.1</ele>
        <time>2023-04-05T13:32:29Z</time>
      </trkpt>
      <trkpt lat="49.83832" lon="2.2869">
        <ele>87</ele>
        <time>2023-04-05T13:32:30Z</time>
      </trkpt>
      <trkpt lat="49.83832" lon="2.28692">
        <ele>86.9</ele>
        <time>2023-04-05T13:32:32Z</time>
      </trkpt>
      <trkpt lat="49.83831" lon="2.28693">
        <ele>86.8</ele>
        <time>2023-04-05T13:32:33Z</time>
      </trkpt>
      <trkpt lat="49.83831" lon="2.28693">
        <ele>86.8</ele>
        <time>2023-04-05T13:32:34Z</time>
      </trkpt>
      <trkpt lat="49.83831" lon="2.28694">
        <ele>86.8</ele>
        <time>2023-04-05T13:32:35Z</time>
      </trkpt>
      <trkpt lat="49.83831" lon="2.28694">
        <ele>86.8</ele>
        <time>2023-04-05T13:32:37Z</time>
      </trkpt>
      <trkpt lat="49.8383" lon="2.28695">
        <ele>86.7</ele>
        <time>2023-04-05T13:32:38Z</time>
      </trkpt>
      <trkpt lat="49.83829" lon="2.28696">
        <ele>86.6</ele>
        <time>2023-04-05T13:32:39Z</time>
      </trkpt>
      <trkpt lat="49.83829" lon="2.28697">
        <ele>86.5</ele>
        <time>2023-04-05T13:32:40Z</time>
      </trkpt>
      <trkpt lat="49.83828" lon="2.28698">
        <ele>86.5</ele>
        <time>2023-04-05T13:32:41Z</time>
      </trkpt>
      <trkpt lat="49.83828" lon="2.28699">
        <ele>86.4</ele>
        <time>2023-04-05T13:32:42Z</time>
      </trkpt>
      <trkpt lat="49.83827" lon="2.287">
        <ele>86.3</ele>
        <time>2023-04-05T13:32:43Z</time>
      </trkpt>
      <trkpt lat="49.83826" lon="2.28701">
        <ele>86.3</ele>
        <time>2023-04-05T13:32:45Z</time>
      </trkpt>
      <trkpt lat="49.83826" lon="2.28701">
        <ele>86.2</ele>
        <time>2023-04-05T13:32:46Z</time>
      </trkpt>
      <trkpt lat="49.83825" lon="2.28702">
        <ele>86.2</ele>
        <time>2023-04-05T13:32:47Z</time>
      </trkpt>
      <trkpt lat="49.83825" lon="2.28703">
        <ele>86.1</ele>
        <time>2023-04-05T13:32:48Z</time>
      </trkpt>
      <trkpt lat="49.83824" lon="2.28704">
        <ele>86.1</ele>
        <time>2023-04-05T13:32:49Z</time>
      </trkpt>
      <trkpt lat="49.83823" lon="2.28704">
        <ele>86</ele>
        <time>2023-04-05T13:32:50Z</time>
      </trkpt>
      <trkpt lat="49.83822" lon="2.28705">
        <ele>85.9</ele>
        <time>2023-04-05T13:32:51Z</time>
      </trkpt>
      <trkpt lat="49.83821" lon="2.28707">
        <ele>85.8</ele>
        <time>2023-04-05T13:32:53Z</time>
      </trkpt>
      <trkpt lat="49.83821" lon="2.28707">
        <ele>85.8</ele>
        <time>2023-04-05T13:32:54Z</time>
      </trkpt>
      <trkpt lat="49.8382" lon="2.28708">
        <ele>85.7</ele>
        <time>2023-04-05T13:32:55Z</time>
      </trkpt>
      <trkpt lat="49.83819" lon="2.28709">
        <ele>85.6</ele>
        <time>2023-04-05T13:32:56Z</time>
      </trkpt>
      <trkpt lat="49.83818" lon="2.28711">
        <ele>85.5</ele>
        <time>2023-04-05T13:32:58Z</time>
      </trkpt>
      <trkpt lat="49.83817" lon="2.28712">
        <ele>85.4</ele>
        <time>2023-04-05T13:32:59Z</time>
      </trkpt>
      <trkpt lat="49.83816" lon="2.28714">
        <ele>85.4</ele>
        <time>2023-04-05T13:33:01Z</time>
      </trkpt>
      <trkpt lat="49.83815" lon="2.28715">
        <ele>85.3</ele>
        <time>2023-04-05T13:33:02Z</time>
      </trkpt>
      <trkpt lat="49.83815" lon="2.28717">
        <ele>85.2</ele>
        <time>2023-04-05T13:33:03Z</time>
      </trkpt>
      <trkpt lat="49.83814" lon="2.28718">
        <ele>85.1</ele>
        <time>2023-04-05T13:33:04Z</time>
      </trkpt>
      <trkpt lat="49.83813" lon="2.28719">
        <ele>85.1</ele>
        <time>2023-04-05T13:33:05Z</time>
      </trkpt>
      <trkpt lat="49.83812" lon="2.2872">
        <ele>85</ele>
        <time>2023-04-05T13:33:06Z</time>
      </trkpt>
      <trkpt lat="49.83811" lon="2.28722">
        <ele>84.9</ele>
        <time>2023-04-05T13:33:07Z</time>
      </trkpt>
      <trkpt lat="49.8381" lon="2.28724">
        <ele>84.8</ele>
        <time>2023-04-05T13:33:08Z</time>
      </trkpt>
      <trkpt lat="49.8381" lon="2.28726">
        <ele>84.8</ele>
        <time>2023-04-05T13:33:10Z</time>
      </trkpt>
      <trkpt lat="49.8381" lon="2.28727">
        <ele>84.7</ele>
        <time>2023-04-05T13:33:11Z</time>
      </trkpt>
      <trkpt lat="49.83809" lon="2.2873">
        <ele>84.6</ele>
        <time>2023-04-05T13:33:12Z</time>
      </trkpt>
      <trkpt lat="49.83809" lon="2.28732">
        <ele>84.5</ele>
        <time>2023-04-05T13:33:14Z</time>
      </trkpt>
      <trkpt lat="49.83809" lon="2.28733">
        <ele>84.5</ele>
        <time>2023-04-05T13:33:15Z</time>
      </trkpt>
      <trkpt lat="49.83808" lon="2.28735">
        <ele>84.4</ele>
        <time>2023-04-05T13:33:16Z</time>
      </trkpt>
      <trkpt lat="49.83807" lon="2.28736">
        <ele>84.4</ele>
        <time>2023-04-05T13:33:17Z</time>
      </trkpt>
      <trkpt lat="49.83806" lon="2.28738">
        <ele>84.3</ele>
        <time>2023-04-05T13:33:18Z</time>
      </trkpt>
      <trkpt lat="49.83806" lon="2.28739">
        <ele>84.3</ele>
        <time>2023-04-05T13:33:19Z</time>
      </trkpt>
      <trkpt lat="49.83805" lon="2.2874">
        <ele>84.2</ele>
        <time>2023-04-05T13:33:20Z</time>
      </trkpt>
      <trkpt lat="49.83804" lon="2.28741">
        <ele>84.2</ele>
        <time>2023-04-05T13:33:21Z</time>
      </trkpt>
      <trkpt lat="49.83803" lon="2.28743">
        <ele>84.1</ele>
        <time>2023-04-05T13:33:23Z</time>
      </trkpt>
      <trkpt lat="49.83802" lon="2.28743">
        <ele>84</ele>
        <time>2023-04-05T13:33:24Z</time>
      </trkpt>
      <trkpt lat="49.83801" lon="2.28744">
        <ele>84</ele>
        <time>2023-04-05T13:33:25Z</time>
      </trkpt>
      <trkpt lat="49.83801" lon="2.28745">
        <ele>83.9</ele>
        <time>2023-04-05T13:33:26Z</time>
      </trkpt>
      <trkpt lat="49.83799" lon="2.28747">
        <ele>83.8</ele>
        <time>2023-04-05T13:33:27Z</time>
      </trkpt>
      <trkpt lat="49.83799" lon="2.28748">
        <ele>83.8</ele>
        <time>2023-04-05T13:33:28Z</time>
      </trkpt>
      <trkpt lat="49.83798" lon="2.28749">
        <ele>83.7</ele>
        <time>2023-04-05T13:33:29Z</time>
      </trkpt>
      <trkpt lat="49.83796" lon="2.28751">
        <ele>83.6</ele>
        <time>2023-04-05T13:33:30Z</time>
      </trkpt>
      <trkpt lat="49.83795" lon="2.28753">
        <ele>83.6</ele>
        <time>2023-04-05T13:33:31Z</time>
      </trkpt>
      <trkpt lat="49.83795" lon="2.28754">
        <ele>83.5</ele>
        <time>2023-04-05T13:33:32Z</time>
      </trkpt>
      <trkpt lat="49.83794" lon="2.28755">
        <ele>83.5</ele>
        <time>2023-04-05T13:33:34Z</time>
      </trkpt>
      <trkpt lat="49.83794" lon="2.28756">
        <ele>83.5</ele>
        <time>2023-04-05T13:33:35Z</time>
      </trkpt>
      <trkpt lat="49.83793" lon="2.28757">
        <ele>83.4</ele>
        <time>2023-04-05T13:33:36Z</time>
      </trkpt>
      <trkpt lat="49.83792" lon="2.28758">
        <ele>83.4</ele>
        <time>2023-04-05T13:33:37Z</time>
      </trkpt>
      <trkpt lat="49.83791" lon="2.2876">
        <ele>83.3</ele>
        <time>2023-04-05T13:33:39Z</time>
      </trkpt>
      <trkpt lat="49.8379" lon="2.2876">
        <ele>83.3</ele>
        <time>2023-04-05T13:33:40Z</time>
      </trkpt>
      <trkpt lat="49.83789" lon="2.28762">
        <ele>83.2</ele>
        <time>2023-04-05T13:33:41Z</time>
      </trkpt>
      <trkpt lat="49.83788" lon="2.28763">
        <ele>83.2</ele>
        <time>2023-04-05T13:33:42Z</time>
      </trkpt>
      <trkpt lat="49.83787" lon="2.28763">
        <ele>83.1</ele>
        <time>2023-04-05T13:33:43Z</time>
      </trkpt>
      <trkpt lat="49.83786" lon="2.28764">
        <ele>83.1</ele>
        <time>2023-04-05T13:33:44Z</time>
      </trkpt>
      <trkpt lat="49.83785" lon="2.28766">
        <ele>83</ele>
        <time>2023-04-05T13:33:45Z</time>
      </trkpt>
      <trkpt lat="49.83785" lon="2.28767">
        <ele>83</ele>
        <time>2023-04-05T13:33:46Z</time>
      </trkpt>
      <trkpt lat="49.83784" lon="2.2877">
        <ele>82.9</ele>
        <time>2023-04-05T13:33:47Z</time>
      </trkpt>
      <trkpt lat="49.83784" lon="2.28771">
        <ele>82.9</ele>
        <time>2023-04-05T13:33:48Z</time>
      </trkpt>
      <trkpt lat="49.83783" lon="2.28772">
        <ele>82.8</ele>
        <time>2023-04-05T13:33:49Z</time>
      </trkpt>
      <trkpt lat="49.83782" lon="2.28775">
        <ele>82.7</ele>
        <time>2023-04-05T13:33:51Z</time>
      </trkpt>
      <trkpt lat="49.83781" lon="2.28776">
        <ele>82.7</ele>
        <time>2023-04-05T13:33:52Z</time>
      </trkpt>
      <trkpt lat="49.83781" lon="2.28777">
        <ele>82.7</ele>
        <time>2023-04-05T13:33:53Z</time>
      </trkpt>
      <trkpt lat="49.83779" lon="2.2878">
        <ele>82.6</ele>
        <time>2023-04-05T13:33:54Z</time>
      </trkpt>
      <trkpt lat="49.83779" lon="2.2878">
        <ele>82.6</ele>
        <time>2023-04-05T13:33:55Z</time>
      </trkpt>
      <trkpt lat="49.83778" lon="2.28781">
        <ele>82.5</ele>
        <time>2023-04-05T13:33:56Z</time>
      </trkpt>
      <trkpt lat="49.83777" lon="2.28782">
        <ele>82.5</ele>
        <time>2023-04-05T13:33:57Z</time>
      </trkpt>
      <trkpt lat="49.83777" lon="2.28783">
        <ele>82.5</ele>
        <time>2023-04-05T13:33:58Z</time>
      </trkpt>
      <trkpt lat="49.83776" lon="2.28784">
        <ele>82.4</ele>
        <time>2023-04-05T13:33:59Z</time>
      </trkpt>
      <trkpt lat="49.83775" lon="2.28785">
        <ele>82.4</ele>
        <time>2023-04-05T13:34:01Z</time>
      </trkpt>
      <trkpt lat="49.83774" lon="2.28786">
        <ele>82.4</ele>
        <time>2023-04-05T13:34:02Z</time>
      </trkpt>
      <trkpt lat="49.83774" lon="2.28788">
        <ele>82.3</ele>
        <time>2023-04-05T13:34:03Z</time>
      </trkpt>
      <trkpt lat="49.83772" lon="2.2879">
        <ele>82.3</ele>
        <time>2023-04-05T13:34:04Z</time>
      </trkpt>
      <trkpt lat="49.83772" lon="2.28791">
        <ele>82.2</ele>
        <time>2023-04-05T13:34:05Z</time>
      </trkpt>
      <trkpt lat="49.83771" lon="2.28792">
        <ele>82.2</ele>
        <time>2023-04-05T13:34:06Z</time>
      </trkpt>
      <trkpt lat="49.83771" lon="2.28794">
        <ele>82.2</ele>
        <time>2023-04-05T13:34:07Z</time>
      </trkpt>
      <trkpt lat="49.8377" lon="2.28795">
        <ele>82.1</ele>
        <time>2023-04-05T13:34:08Z</time>
      </trkpt>
      <trkpt lat="49.83769" lon="2.28796">
        <ele>82.1</ele>
        <time>2023-04-05T13:34:09Z</time>
      </trkpt>
      <trkpt lat="49.83768" lon="2.28799">
        <ele>82</ele>
        <time>2023-04-05T13:34:10Z</time>
      </trkpt>
      <trkpt lat="49.83767" lon="2.288">
        <ele>82</ele>
        <time>2023-04-05T13:34:12Z</time>
      </trkpt>
      <trkpt lat="49.83766" lon="2.28801">
        <ele>82</ele>
        <time>2023-04-05T13:34:13Z</time>
      </trkpt>
      <trkpt lat="49.83765" lon="2.28803">
        <ele>82</ele>
        <time>2023-04-05T13:34:14Z</time>
      </trkpt>
      <trkpt lat="49.83764" lon="2.28804">
        <ele>81.9</ele>
        <time>2023-04-05T13:34:15Z</time>
      </trkpt>
      <trkpt lat="49.83763" lon="2.28806">
        <ele>81.9</ele>
        <time>2023-04-05T13:34:16Z</time>
      </trkpt>
      <trkpt lat="49.83762" lon="2.28808">
        <ele>81.9</ele>
        <time>2023-04-05T13:34:17Z</time>
      </trkpt>
      <trkpt lat="49.83761" lon="2.2881">
        <ele>81.8</ele>
        <time>2023-04-05T13:34:18Z</time>
      </trkpt>
      <trkpt lat="49.8376" lon="2.28811">
        <ele>81.8</ele>
        <time>2023-04-05T13:34:19Z</time>
      </trkpt>
      <trkpt lat="49.83759" lon="2.28813">
        <ele>81.8</ele>
        <time>2023-04-05T13:34:20Z</time>
      </trkpt>
      <trkpt lat="49.83758" lon="2.28815">
        <ele>81.7</ele>
        <time>2023-04-05T13:34:21Z</time>
      </trkpt>
      <trkpt lat="49.83758" lon="2.28816">
        <ele>81.7</ele>
        <time>2023-04-05T13:34:23Z</time>
      </trkpt>
      <trkpt lat="49.83757" lon="2.28817">
        <ele>81.7</ele>
        <time>2023-04-05T13:34:24Z</time>
      </trkpt>
      <trkpt lat="49.83757" lon="2.28818">
        <ele>81.7</ele>
        <time>2023-04-05T13:34:25Z</time>
      </trkpt>
      <trkpt lat="49.83756" lon="2.28819">
        <ele>81.7</ele>
        <time>2023-04-05T13:34:26Z</time>
      </trkpt>
      <trkpt lat="49.83755" lon="2.28821">
        <ele>81.6</ele>
        <time>2023-04-05T13:34:28Z</time>
      </trkpt>
      <trkpt lat="49.83754" lon="2.28823">
        <ele>81.6</ele>
        <time>2023-04-05T13:34:30Z</time>
      </trkpt>
      <trkpt lat="49.83753" lon="2.28824">
        <ele>81.6</ele>
        <time>2023-04-05T13:34:31Z</time>
      </trkpt>
      <trkpt lat="49.83752" lon="2.28826">
        <ele>81.6</ele>
        <time>2023-04-05T13:34:32Z</time>
      </trkpt>
      <trkpt lat="49.83751" lon="2.28827">
        <ele>81.5</ele>
        <time>2023-04-05T13:34:33Z</time>
      </trkpt>
      <trkpt lat="49.8375" lon="2.28828">
        <ele>81.5</ele>
        <time>2023-04-05T13:34:34Z</time>
      </trkpt>
      <trkpt lat="49.8375" lon="2.2883">
        <ele>81.5</ele>
        <time>2023-04-05T13:34:35Z</time>
      </trkpt>
      <trkpt lat="49.83748" lon="2.28831">
        <ele>81.5</ele>
        <time>2023-04-05T13:34:37Z</time>
      </trkpt>
      <trkpt lat="49.83748" lon="2.28832">
        <ele>81.5</ele>
        <time>2023-04-05T13:34:38Z</time>
      </trkpt>
      <trkpt lat="49.83747" lon="2.28833">
        <ele>81.5</ele>
        <time>2023-04-05T13:34:39Z</time>
      </trkpt>
      <trkpt lat="49.83747" lon="2.28835">
        <ele>81.4</ele>
        <time>2023-04-05T13:34:40Z</time>
      </trkpt>
      <trkpt lat="49.83746" lon="2.28836">
        <ele>81.4</ele>
        <time>2023-04-05T13:34:41Z</time>
      </trkpt>
      <trkpt lat="49.83746" lon="2.28837">
        <ele>81.4</ele>
        <time>2023-04-05T13:34:42Z</time>
      </trkpt>
      <trkpt lat="49.83745" lon="2.28838">
        <ele>81.4</ele>
        <time>2023-04-05T13:34:43Z</time>
      </trkpt>
      <trkpt lat="49.83744" lon="2.28841">
        <ele>81.4</ele>
        <time>2023-04-05T13:34:44Z</time>
      </trkpt>
      <trkpt lat="49.83743" lon="2.28842">
        <ele>81.4</ele>
        <time>2023-04-05T13:34:46Z</time>
      </trkpt>
      <trkpt lat="49.83742" lon="2.28843">
        <ele>81.3</ele>
        <time>2023-04-05T13:34:47Z</time>
      </trkpt>
      <trkpt lat="49.83742" lon="2.28845">
        <ele>81.3</ele>
        <time>2023-04-05T13:34:48Z</time>
      </trkpt>
      <trkpt lat="49.83741" lon="2.28846">
        <ele>81.3</ele>
        <time>2023-04-05T13:34:49Z</time>
      </trkpt>
      <trkpt lat="49.8374" lon="2.28847">
        <ele>81.3</ele>
        <time>2023-04-05T13:34:50Z</time>
      </trkpt>
      <trkpt lat="49.83739" lon="2.28849">
        <ele>81.3</ele>
        <time>2023-04-05T13:34:51Z</time>
      </trkpt>
      <trkpt lat="49.83738" lon="2.28852">
        <ele>81.2</ele>
        <time>2023-04-05T13:34:52Z</time>
      </trkpt>
      <trkpt lat="49.83737" lon="2.28853">
        <ele>81.2</ele>
        <time>2023-04-05T13:34:53Z</time>
      </trkpt>
      <trkpt lat="49.83736" lon="2.28854">
        <ele>81.2</ele>
        <time>2023-04-05T13:34:54Z</time>
      </trkpt>
      <trkpt lat="49.83735" lon="2.28856">
        <ele>81.2</ele>
        <time>2023-04-05T13:34:56Z</time>
      </trkpt>
      <trkpt lat="49.83734" lon="2.28857">
        <ele>81.2</ele>
        <time>2023-04-05T13:34:57Z</time>
      </trkpt>
      <trkpt lat="49.83734" lon="2.28858">
        <ele>81.2</ele>
        <time>2023-04-05T13:34:58Z</time>
      </trkpt>
      <trkpt lat="49.83733" lon="2.2886">
        <ele>81.1</ele>
        <time>2023-04-05T13:34:59Z</time>
      </trkpt>
      <trkpt lat="49.83732" lon="2.28862">
        <ele>81.1</ele>
        <time>2023-04-05T13:35:00Z</time>
      </trkpt>
      <trkpt lat="49.83731" lon="2.28863">
        <ele>81.1</ele>
        <time>2023-04-05T13:35:02Z</time>
      </trkpt>
      <trkpt lat="49.8373" lon="2.28864">
        <ele>81.1</ele>
        <time>2023-04-05T13:35:03Z</time>
      </trkpt>
      <trkpt lat="49.83729" lon="2.28865">
        <ele>81</ele>
        <time>2023-04-05T13:35:04Z</time>
      </trkpt>
      <trkpt lat="49.83729" lon="2.28866">
        <ele>81</ele>
        <time>2023-04-05T13:35:05Z</time>
      </trkpt>
      <trkpt lat="49.83728" lon="2.28867">
        <ele>81</ele>
        <time>2023-04-05T13:35:06Z</time>
      </trkpt>
      <trkpt lat="49.83727" lon="2.28868">
        <ele>81</ele>
        <time>2023-04-05T13:35:07Z</time>
      </trkpt>
      <trkpt lat="49.83726" lon="2.28869">
        <ele>81</ele>
        <time>2023-04-05T13:35:09Z</time>
      </trkpt>
      <trkpt lat="49.83725" lon="2.28871">
        <ele>80.9</ele>
        <time>2023-04-05T13:35:10Z</time>
      </trkpt>
      <trkpt lat="49.83724" lon="2.28872">
        <ele>80.9</ele>
        <time>2023-04-05T13:35:11Z</time>
      </trkpt>
      <trkpt lat="49.83724" lon="2.28873">
        <ele>80.9</ele>
        <time>2023-04-05T13:35:13Z</time>
      </trkpt>
      <trkpt lat="49.83723" lon="2.28875">
        <ele>80.9</ele>
        <time>2023-04-05T13:35:14Z</time>
      </trkpt>
      <trkpt lat="49.83722" lon="2.28876">
        <ele>80.8</ele>
        <time>2023-04-05T13:35:15Z</time>
      </trkpt>
      <trkpt lat="49.83722" lon="2.28877">
        <ele>80.8</ele>
        <time>2023-04-05T13:35:16Z</time>
      </trkpt>
      <trkpt lat="49.83722" lon="2.28879">
        <ele>80.8</ele>
        <time>2023-04-05T13:35:18Z</time>
      </trkpt>
      <trkpt lat="49.83722" lon="2.2888">
        <ele>80.8</ele>
        <time>2023-04-05T13:35:19Z</time>
      </trkpt>
      <trkpt lat="49.83721" lon="2.28882">
        <ele>80.7</ele>
        <time>2023-04-05T13:35:20Z</time>
      </trkpt>
      <trkpt lat="49.83721" lon="2.28884">
        <ele>80.7</ele>
        <time>2023-04-05T13:35:21Z</time>
      </trkpt>
      <trkpt lat="49.8372" lon="2.28886">
        <ele>80.7</ele>
        <time>2023-04-05T13:35:22Z</time>
      </trkpt>
      <trkpt lat="49.83719" lon="2.28888">
        <ele>80.6</ele>
        <time>2023-04-05T13:35:23Z</time>
      </trkpt>
      <trkpt lat="49.83718" lon="2.2889">
        <ele>80.6</ele>
        <time>2023-04-05T13:35:24Z</time>
      </trkpt>
      <trkpt lat="49.83717" lon="2.28891">
        <ele>80.6</ele>
        <time>2023-04-05T13:35:25Z</time>
      </trkpt>
      <trkpt lat="49.83716" lon="2.28894">
        <ele>80.5</ele>
        <time>2023-04-05T13:35:26Z</time>
      </trkpt>
      <trkpt lat="49.83716" lon="2.28895">
        <ele>80.5</ele>
        <time>2023-04-05T13:35:28Z</time>
      </trkpt>
      <trkpt lat="49.83715" lon="2.28896">
        <ele>80.5</ele>
        <time>2023-04-05T13:35:29Z</time>
      </trkpt>
      <trkpt lat="49.83714" lon="2.28899">
        <ele>80.4</ele>
        <time>2023-04-05T13:35:30Z</time>
      </trkpt>
      <trkpt lat="49.83714" lon="2.289">
        <ele>80.4</ele>
        <time>2023-04-05T13:35:31Z</time>
      </trkpt>
      <trkpt lat="49.83712" lon="2.28903">
        <ele>80.3</ele>
        <time>2023-04-05T13:35:32Z</time>
      </trkpt>
      <trkpt lat="49.83712" lon="2.28904">
        <ele>80.3</ele>
        <time>2023-04-05T13:35:33Z</time>
      </trkpt>
      <trkpt lat="49.83711" lon="2.28905">
        <ele>80.3</ele>
        <time>2023-04-05T13:35:34Z</time>
      </trkpt>
      <trkpt lat="49.8371" lon="2.28908">
        <ele>80.2</ele>
        <time>2023-04-05T13:35:35Z</time>
      </trkpt>
      <trkpt lat="49.83709" lon="2.28909">
        <ele>80.2</ele>
        <time>2023-04-05T13:35:36Z</time>
      </trkpt>
      <trkpt lat="49.83709" lon="2.2891">
        <ele>80.1</ele>
        <time>2023-04-05T13:35:37Z</time>
      </trkpt>
      <trkpt lat="49.83708" lon="2.28911">
        <ele>80.1</ele>
        <time>2023-04-05T13:35:39Z</time>
      </trkpt>
      <trkpt lat="49.83708" lon="2.28913">
        <ele>80.1</ele>
        <time>2023-04-05T13:35:40Z</time>
      </trkpt>
      <trkpt lat="49.83707" lon="2.28914">
        <ele>80</ele>
        <time>2023-04-05T13:35:41Z</time>
      </trkpt>
      <trkpt lat="49.83705" lon="2.28918">
        <ele>80</ele>
        <time>2023-04-05T13:35:42Z</time>
      </trkpt>
      <trkpt lat="49.83705" lon="2.28919">
        <ele>79.9</ele>
        <time>2023-04-05T13:35:43Z</time>
      </trkpt>
      <trkpt lat="49.83704" lon="2.28921">
        <ele>79.9</ele>
        <time>2023-04-05T13:35:45Z</time>
      </trkpt>
      <trkpt lat="49.83703" lon="2.28922">
        <ele>79.8</ele>
        <time>2023-04-05T13:35:46Z</time>
      </trkpt>
      <trkpt lat="49.83702" lon="2.28923">
        <ele>79.8</ele>
        <time>2023-04-05T13:35:47Z</time>
      </trkpt>
      <trkpt lat="49.83701" lon="2.28926">
        <ele>79.7</ele>
        <time>2023-04-05T13:35:48Z</time>
      </trkpt>
      <trkpt lat="49.837" lon="2.28927">
        <ele>79.7</ele>
        <time>2023-04-05T13:35:49Z</time>
      </trkpt>
      <trkpt lat="49.83699" lon="2.2893">
        <ele>79.6</ele>
        <time>2023-04-05T13:35:51Z</time>
      </trkpt>
      <trkpt lat="49.83698" lon="2.28931">
        <ele>79.6</ele>
        <time>2023-04-05T13:35:52Z</time>
      </trkpt>
      <trkpt lat="49.83698" lon="2.28932">
        <ele>79.5</ele>
        <time>2023-04-05T13:35:53Z</time>
      </trkpt>
      <trkpt lat="49.83696" lon="2.28935">
        <ele>79.5</ele>
        <time>2023-04-05T13:35:54Z</time>
      </trkpt>
      <trkpt lat="49.83696" lon="2.28936">
        <ele>79.4</ele>
        <time>2023-04-05T13:35:55Z</time>
      </trkpt>
      <trkpt lat="49.83695" lon="2.28937">
        <ele>79.4</ele>
        <time>2023-04-05T13:35:56Z</time>
      </trkpt>
      <trkpt lat="49.83694" lon="2.28938">
        <ele>79.3</ele>
        <time>2023-04-05T13:35:57Z</time>
      </trkpt>
      <trkpt lat="49.83694" lon="2.28939">
        <ele>79.3</ele>
        <time>2023-04-05T13:35:58Z</time>
      </trkpt>
      <trkpt lat="49.83693" lon="2.28941">
        <ele>79.2</ele>
        <time>2023-04-05T13:35:59Z</time>
      </trkpt>
      <trkpt lat="49.83691" lon="2.28943">
        <ele>79.2</ele>
        <time>2023-04-05T13:36:01Z</time>
      </trkpt>
      <trkpt lat="49.83691" lon="2.28944">
        <ele>79.1</ele>
        <time>2023-04-05T13:36:02Z</time>
      </trkpt>
      <trkpt lat="49.8369" lon="2.28945">
        <ele>79.1</ele>
        <time>2023-04-05T13:36:03Z</time>
      </trkpt>
      <trkpt lat="49.83689" lon="2.28946">
        <ele>79</ele>
        <time>2023-04-05T13:36:04Z</time>
      </trkpt>
      <trkpt lat="49.83688" lon="2.28947">
        <ele>79</ele>
        <time>2023-04-05T13:36:05Z</time>
      </trkpt>
      <trkpt lat="49.83687" lon="2.28948">
        <ele>78.9</ele>
        <time>2023-04-05T13:36:06Z</time>
      </trkpt>
      <trkpt lat="49.83686" lon="2.2895">
        <ele>78.9</ele>
        <time>2023-04-05T13:36:07Z</time>
      </trkpt>
      <trkpt lat="49.83685" lon="2.28951">
        <ele>78.8</ele>
        <time>2023-04-05T13:36:08Z</time>
      </trkpt>
      <trkpt lat="49.83685" lon="2.28952">
        <ele>78.8</ele>
        <time>2023-04-05T13:36:09Z</time>
      </trkpt>
      <trkpt lat="49.83684" lon="2.28954">
        <ele>78.7</ele>
        <time>2023-04-05T13:36:11Z</time>
      </trkpt>
      <trkpt lat="49.83683" lon="2.28955">
        <ele>78.7</ele>
        <time>2023-04-05T13:36:12Z</time>
      </trkpt>
      <trkpt lat="49.83683" lon="2.28956">
        <ele>78.6</ele>
        <time>2023-04-05T13:36:13Z</time>
      </trkpt>
      <trkpt lat="49.83682" lon="2.28957">
        <ele>78.6</ele>
        <time>2023-04-05T13:36:14Z</time>
      </trkpt>
      <trkpt lat="49.83681" lon="2.28958">
        <ele>78.5</ele>
        <time>2023-04-05T13:36:15Z</time>
      </trkpt>
      <trkpt lat="49.83681" lon="2.28959">
        <ele>78.5</ele>
        <time>2023-04-05T13:36:16Z</time>
      </trkpt>
      <trkpt lat="49.8368" lon="2.2896">
        <ele>78.5</ele>
        <time>2023-04-05T13:36:17Z</time>
      </trkpt>
      <trkpt lat="49.83679" lon="2.28961">
        <ele>78.4</ele>
        <time>2023-04-05T13:36:18Z</time>
      </trkpt>
      <trkpt lat="49.83678" lon="2.28963">
        <ele>78.4</ele>
        <time>2023-04-05T13:36:19Z</time>
      </trkpt>
      <trkpt lat="49.83678" lon="2.28964">
        <ele>78.3</ele>
        <time>2023-04-05T13:36:20Z</time>
      </trkpt>
      <trkpt lat="49.83676" lon="2.28965">
        <ele>78.2</ele>
        <time>2023-04-05T13:36:22Z</time>
      </trkpt>
      <trkpt lat="49.83675" lon="2.28966">
        <ele>78.2</ele>
        <time>2023-04-05T13:36:23Z</time>
      </trkpt>
      <trkpt lat="49.83675" lon="2.28967">
        <ele>78.2</ele>
        <time>2023-04-05T13:36:24Z</time>
      </trkpt>
      <trkpt lat="49.83674" lon="2.28968">
        <ele>78.1</ele>
        <time>2023-04-05T13:36:25Z</time>
      </trkpt>
      <trkpt lat="49.83673" lon="2.28969">
        <ele>78.1</ele>
        <time>2023-04-05T13:36:26Z</time>
      </trkpt>
      <trkpt lat="49.83672" lon="2.2897">
        <ele>78</ele>
        <time>2023-04-05T13:36:28Z</time>
      </trkpt>
      <trkpt lat="49.83672" lon="2.28971">
        <ele>78</ele>
        <time>2023-04-05T13:36:29Z</time>
      </trkpt>
      <trkpt lat="49.83671" lon="2.28972">
        <ele>77.9</ele>
        <time>2023-04-05T13:36:30Z</time>
      </trkpt>
      <trkpt lat="49.8367" lon="2.28973">
        <ele>77.9</ele>
        <time>2023-04-05T13:36:31Z</time>
      </trkpt>
      <trkpt lat="49.83669" lon="2.28976">
        <ele>77.8</ele>
        <time>2023-04-05T13:36:32Z</time>
      </trkpt>
      <trkpt lat="49.83668" lon="2.28977">
        <ele>77.8</ele>
        <time>2023-04-05T13:36:33Z</time>
      </trkpt>
      <trkpt lat="49.83668" lon="2.28978">
        <ele>77.7</ele>
        <time>2023-04-05T13:36:34Z</time>
      </trkpt>
      <trkpt lat="49.83666" lon="2.2898">
        <ele>77.6</ele>
        <time>2023-04-05T13:36:35Z</time>
      </trkpt>
      <trkpt lat="49.83666" lon="2.28982">
        <ele>77.6</ele>
        <time>2023-04-05T13:36:36Z</time>
      </trkpt>
      <trkpt lat="49.83665" lon="2.28983">
        <ele>77.6</ele>
        <time>2023-04-05T13:36:37Z</time>
      </trkpt>
      <trkpt lat="49.83663" lon="2.28985">
        <ele>77.5</ele>
        <time>2023-04-05T13:36:38Z</time>
      </trkpt>
      <trkpt lat="49.83663" lon="2.28987">
        <ele>77.4</ele>
        <time>2023-04-05T13:36:40Z</time>
      </trkpt>
      <trkpt lat="49.83662" lon="2.28988">
        <ele>77.4</ele>
        <time>2023-04-05T13:36:41Z</time>
      </trkpt>
      <trkpt lat="49.83661" lon="2.28989">
        <ele>77.3</ele>
        <time>2023-04-05T13:36:42Z</time>
      </trkpt>
      <trkpt lat="49.8366" lon="2.2899">
        <ele>77.3</ele>
        <time>2023-04-05T13:36:43Z</time>
      </trkpt>
      <trkpt lat="49.8366" lon="2.28992">
        <ele>77.2</ele>
        <time>2023-04-05T13:36:44Z</time>
      </trkpt>
      <trkpt lat="49.83659" lon="2.28993">
        <ele>77.2</ele>
        <time>2023-04-05T13:36:45Z</time>
      </trkpt>
      <trkpt lat="49.83657" lon="2.28995">
        <ele>77.1</ele>
        <time>2023-04-05T13:36:46Z</time>
      </trkpt>
      <trkpt lat="49.83656" lon="2.28996">
        <ele>77</ele>
        <time>2023-04-05T13:36:47Z</time>
      </trkpt>
      <trkpt lat="49.83655" lon="2.28998">
        <ele>77</ele>
        <time>2023-04-05T13:36:49Z</time>
      </trkpt>
      <trkpt lat="49.83653" lon="2.29">
        <ele>76.9</ele>
        <time>2023-04-05T13:36:50Z</time>
      </trkpt>
      <trkpt lat="49.83652" lon="2.29002">
        <ele>76.8</ele>
        <time>2023-04-05T13:36:51Z</time>
      </trkpt>
      <trkpt lat="49.83651" lon="2.29003">
        <ele>76.8</ele>
        <time>2023-04-05T13:36:52Z</time>
      </trkpt>
      <trkpt lat="49.83651" lon="2.29004">
        <ele>76.7</ele>
        <time>2023-04-05T13:36:53Z</time>
      </trkpt>
      <trkpt lat="49.8365" lon="2.29006">
        <ele>76.7</ele>
        <time>2023-04-05T13:36:55Z</time>
      </trkpt>
      <trkpt lat="49.83649" lon="2.29008">
        <ele>76.6</ele>
        <time>2023-04-05T13:36:56Z</time>
      </trkpt>
      <trkpt lat="49.83647" lon="2.29011">
        <ele>76.5</ele>
        <time>2023-04-05T13:36:57Z</time>
      </trkpt>
      <trkpt lat="49.83647" lon="2.29012">
        <ele>76.5</ele>
        <time>2023-04-05T13:36:58Z</time>
      </trkpt>
      <trkpt lat="49.83646" lon="2.29013">
        <ele>76.5</ele>
        <time>2023-04-05T13:36:59Z</time>
      </trkpt>
      <trkpt lat="49.83645" lon="2.29016">
        <ele>76.4</ele>
        <time>2023-04-05T13:37:00Z</time>
      </trkpt>
      <trkpt lat="49.83644" lon="2.29017">
        <ele>76.4</ele>
        <time>2023-04-05T13:37:01Z</time>
      </trkpt>
      <trkpt lat="49.83644" lon="2.29018">
        <ele>76.3</ele>
        <time>2023-04-05T13:37:02Z</time>
      </trkpt>
      <trkpt lat="49.83643" lon="2.29019">
        <ele>76.3</ele>
        <time>2023-04-05T13:37:03Z</time>
      </trkpt>
      <trkpt lat="49.83642" lon="2.2902">
        <ele>76.2</ele>
        <time>2023-04-05T13:37:05Z</time>
      </trkpt>
      <trkpt lat="49.83641" lon="2.29021">
        <ele>76.2</ele>
        <time>2023-04-05T13:37:06Z</time>
      </trkpt>
      <trkpt lat="49.83641" lon="2.29022">
        <ele>76.2</ele>
        <time>2023-04-05T13:37:07Z</time>
      </trkpt>
      <trkpt lat="49.8364" lon="2.29023">
        <ele>76.1</ele>
        <time>2023-04-05T13:37:08Z</time>
      </trkpt>
      <trkpt lat="49.83639" lon="2.29025">
        <ele>76.1</ele>
        <time>2023-04-05T13:37:09Z</time>
      </trkpt>
      <trkpt lat="49.83637" lon="2.29027">
        <ele>76</ele>
        <time>2023-04-05T13:37:10Z</time>
      </trkpt>
      <trkpt lat="49.83637" lon="2.29028">
        <ele>76</ele>
        <time>2023-04-05T13:37:11Z</time>
      </trkpt>
      <trkpt lat="49.83636" lon="2.29029">
        <ele>75.9</ele>
        <time>2023-04-05T13:37:12Z</time>
      </trkpt>
      <trkpt lat="49.83635" lon="2.29032">
        <ele>75.9</ele>
        <time>2023-04-05T13:37:13Z</time>
      </trkpt>
      <trkpt lat="49.83634" lon="2.29033">
        <ele>75.8</ele>
        <time>2023-04-05T13:37:15Z</time>
      </trkpt>
      <trkpt lat="49.83634" lon="2.29035">
        <ele>75.8</ele>
        <time>2023-04-05T13:37:16Z</time>
      </trkpt>
      <trkpt lat="49.83633" lon="2.29036">
        <ele>75.7</ele>
        <time>2023-04-05T13:37:17Z</time>
      </trkpt>
      <trkpt lat="49.83632" lon="2.29037">
        <ele>75.7</ele>
        <time>2023-04-05T13:37:18Z</time>
      </trkpt>
      <trkpt lat="49.83632" lon="2.29038">
        <ele>75.7</ele>
        <time>2023-04-05T13:37:19Z</time>
      </trkpt>
      <trkpt lat="49.8363" lon="2.29041">
        <ele>75.6</ele>
        <time>2023-04-05T13:37:20Z</time>
      </trkpt>
      <trkpt lat="49.8363" lon="2.29042">
        <ele>75.5</ele>
        <time>2023-04-05T13:37:21Z</time>
      </trkpt>
      <trkpt lat="49.83629" lon="2.29043">
        <ele>75.5</ele>
        <time>2023-04-05T13:37:23Z</time>
      </trkpt>
      <trkpt lat="49.83628" lon="2.29044">
        <ele>75.5</ele>
        <time>2023-04-05T13:37:24Z</time>
      </trkpt>
      <trkpt lat="49.83628" lon="2.29046">
        <ele>75.4</ele>
        <time>2023-04-05T13:37:25Z</time>
      </trkpt>
      <trkpt lat="49.83627" lon="2.29047">
        <ele>75.4</ele>
        <time>2023-04-05T13:37:26Z</time>
      </trkpt>
      <trkpt lat="49.83626" lon="2.29049">
        <ele>75.3</ele>
        <time>2023-04-05T13:37:27Z</time>
      </trkpt>
      <trkpt lat="49.83625" lon="2.2905">
        <ele>75.3</ele>
        <time>2023-04-05T13:37:28Z</time>
      </trkpt>
      <trkpt lat="49.83624" lon="2.29052">
        <ele>75.2</ele>
        <time>2023-04-05T13:37:30Z</time>
      </trkpt>
      <trkpt lat="49.83624" lon="2.29053">
        <ele>75.2</ele>
        <time>2023-04-05T13:37:31Z</time>
      </trkpt>
      <trkpt lat="49.83623" lon="2.29054">
        <ele>75.1</ele>
        <time>2023-04-05T13:37:32Z</time>
      </trkpt>
      <trkpt lat="49.83622" lon="2.29055">
        <ele>75.1</ele>
        <time>2023-04-05T13:37:33Z</time>
      </trkpt>
      <trkpt lat="49.83621" lon="2.29057">
        <ele>75</ele>
        <time>2023-04-05T13:37:34Z</time>
      </trkpt>
      <trkpt lat="49.83621" lon="2.29059">
        <ele>74.9</ele>
        <time>2023-04-05T13:37:35Z</time>
      </trkpt>
      <trkpt lat="49.8362" lon="2.2906">
        <ele>74.9</ele>
        <time>2023-04-05T13:37:36Z</time>
      </trkpt>
      <trkpt lat="49.83619" lon="2.29061">
        <ele>74.9</ele>
        <time>2023-04-05T13:37:38Z</time>
      </trkpt>
      <trkpt lat="49.83619" lon="2.29062">
        <ele>74.8</ele>
        <time>2023-04-05T13:37:39Z</time>
      </trkpt>
      <trkpt lat="49.83618" lon="2.29064">
        <ele>74.7</ele>
        <time>2023-04-05T13:37:40Z</time>
      </trkpt>
      <trkpt lat="49.83617" lon="2.29066">
        <ele>74.7</ele>
        <time>2023-04-05T13:37:41Z</time>
      </trkpt>
      <trkpt lat="49.83616" lon="2.29067">
        <ele>74.6</ele>
        <time>2023-04-05T13:37:42Z</time>
      </trkpt>
      <trkpt lat="49.83616" lon="2.29068">
        <ele>74.6</ele>
        <time>2023-04-05T13:37:43Z</time>
      </trkpt>
      <trkpt lat="49.83615" lon="2.2907">
        <ele>74.6</ele>
        <time>2023-04-05T13:37:44Z</time>
      </trkpt>
      <trkpt lat="49.83614" lon="2.29071">
        <ele>74.5</ele>
        <time>2023-04-05T13:37:45Z</time>
      </trkpt>
      <trkpt lat="49.83613" lon="2.29073">
        <ele>74.4</ele>
        <time>2023-04-05T13:37:46Z</time>
      </trkpt>
      <trkpt lat="49.83612" lon="2.29076">
        <ele>74.3</ele>
        <time>2023-04-05T13:37:48Z</time>
      </trkpt>
      <trkpt lat="49.83611" lon="2.29078">
        <ele>74.3</ele>
        <time>2023-04-05T13:37:49Z</time>
      </trkpt>
      <trkpt lat="49.8361" lon="2.2908">
        <ele>74.2</ele>
        <time>2023-04-05T13:37:50Z</time>
      </trkpt>
      <trkpt lat="49.83609" lon="2.29082">
        <ele>74.1</ele>
        <time>2023-04-05T13:37:51Z</time>
      </trkpt>
      <trkpt lat="49.83608" lon="2.29084">
        <ele>74</ele>
        <time>2023-04-05T13:37:52Z</time>
      </trkpt>
      <trkpt lat="49.83607" lon="2.29086">
        <ele>74</ele>
        <time>2023-04-05T13:37:53Z</time>
      </trkpt>
      <trkpt lat="49.83606" lon="2.29088">
        <ele>73.9</ele>
        <time>2023-04-05T13:37:54Z</time>
      </trkpt>
      <trkpt lat="49.83605" lon="2.2909">
        <ele>73.9</ele>
        <time>2023-04-05T13:37:56Z</time>
      </trkpt>
      <trkpt lat="49.83604" lon="2.29092">
        <ele>73.8</ele>
        <time>2023-04-05T13:37:57Z</time>
      </trkpt>
      <trkpt lat="49.83603" lon="2.29094">
        <ele>73.7</ele>
        <time>2023-04-05T13:37:58Z</time>
      </trkpt>
      <trkpt lat="49.83603" lon="2.29095">
        <ele>73.7</ele>
        <time>2023-04-05T13:37:59Z</time>
      </trkpt>
      <trkpt lat="49.83602" lon="2.29097">
        <ele>73.7</ele>
        <time>2023-04-05T13:38:00Z</time>
      </trkpt>
      <trkpt lat="49.83601" lon="2.29098">
        <ele>73.6</ele>
        <time>2023-04-05T13:38:01Z</time>
      </trkpt>
      <trkpt lat="49.836" lon="2.291">
        <ele>73.6</ele>
        <time>2023-04-05T13:38:02Z</time>
      </trkpt>
      <trkpt lat="49.836" lon="2.29101">
        <ele>73.5</ele>
        <time>2023-04-05T13:38:04Z</time>
      </trkpt>
      <trkpt lat="49.83599" lon="2.29102">
        <ele>73.5</ele>
        <time>2023-04-05T13:38:05Z</time>
      </trkpt>
      <trkpt lat="49.83599" lon="2.29103">
        <ele>73.5</ele>
        <time>2023-04-05T13:38:06Z</time>
      </trkpt>
      <trkpt lat="49.83598" lon="2.29104">
        <ele>73.4</ele>
        <time>2023-04-05T13:38:07Z</time>
      </trkpt>
      <trkpt lat="49.83597" lon="2.29106">
        <ele>73.4</ele>
        <time>2023-04-05T13:38:08Z</time>
      </trkpt>
      <trkpt lat="49.83596" lon="2.29108">
        <ele>73.4</ele>
        <time>2023-04-05T13:38:09Z</time>
      </trkpt>
      <trkpt lat="49.83595" lon="2.2911">
        <ele>73.3</ele>
        <time>2023-04-05T13:38:10Z</time>
      </trkpt>
      <trkpt lat="49.83595" lon="2.29111">
        <ele>73.3</ele>
        <time>2023-04-05T13:38:12Z</time>
      </trkpt>
      <trkpt lat="49.83594" lon="2.29112">
        <ele>73.2</ele>
        <time>2023-04-05T13:38:13Z</time>
      </trkpt>
      <trkpt lat="49.83593" lon="2.29113">
        <ele>73.2</ele>
        <time>2023-04-05T13:38:14Z</time>
      </trkpt>
      <trkpt lat="49.83591" lon="2.29115">
        <ele>73.2</ele>
        <time>2023-04-05T13:38:15Z</time>
      </trkpt>
      <trkpt lat="49.83591" lon="2.29115">
        <ele>73.1</ele>
        <time>2023-04-05T13:38:16Z</time>
      </trkpt>
      <trkpt lat="49.8359" lon="2.29117">
        <ele>73.1</ele>
        <time>2023-04-05T13:38:17Z</time>
      </trkpt>
      <trkpt lat="49.83589" lon="2.29118">
        <ele>73.1</ele>
        <time>2023-04-05T13:38:19Z</time>
      </trkpt>
      <trkpt lat="49.83589" lon="2.2912">
        <ele>73</ele>
        <time>2023-04-05T13:38:20Z</time>
      </trkpt>
      <trkpt lat="49.83588" lon="2.29121">
        <ele>73</ele>
        <time>2023-04-05T13:38:21Z</time>
      </trkpt>
      <trkpt lat="49.83588" lon="2.29123">
        <ele>73</ele>
        <time>2023-04-05T13:38:22Z</time>
      </trkpt>
      <trkpt lat="49.83587" lon="2.29124">
        <ele>73</ele>
        <time>2023-04-05T13:38:23Z</time>
      </trkpt>
      <trkpt lat="49.83586" lon="2.29125">
        <ele>72.9</ele>
        <time>2023-04-05T13:38:24Z</time>
      </trkpt>
      <trkpt lat="49.83585" lon="2.29128">
        <ele>72.9</ele>
        <time>2023-04-05T13:38:25Z</time>
      </trkpt>
      <trkpt lat="49.83585" lon="2.29129">
        <ele>72.9</ele>
        <time>2023-04-05T13:38:26Z</time>
      </trkpt>
      <trkpt lat="49.83584" lon="2.2913">
        <ele>72.9</ele>
        <time>2023-04-05T13:38:27Z</time>
      </trkpt>
      <trkpt lat="49.83583" lon="2.29132">
        <ele>72.8</ele>
        <time>2023-04-05T13:38:29Z</time>
      </trkpt>
      <trkpt lat="49.83582" lon="2.29133">
        <ele>72.8</ele>
        <time>2023-04-05T13:38:30Z</time>
      </trkpt>
      <trkpt lat="49.83581" lon="2.29135">
        <ele>72.8</ele>
        <time>2023-04-05T13:38:31Z</time>
      </trkpt>
      <trkpt lat="49.83581" lon="2.29137">
        <ele>72.8</ele>
        <time>2023-04-05T13:38:32Z</time>
      </trkpt>
      <trkpt lat="49.8358" lon="2.29139">
        <ele>72.7</ele>
        <time>2023-04-05T13:38:34Z</time>
      </trkpt>
      <trkpt lat="49.83579" lon="2.29141">
        <ele>72.7</ele>
        <time>2023-04-05T13:38:35Z</time>
      </trkpt>
      <trkpt lat="49.83578" lon="2.29143">
        <ele>72.7</ele>
        <time>2023-04-05T13:38:36Z</time>
      </trkpt>
      <trkpt lat="49.83578" lon="2.29144">
        <ele>72.6</ele>
        <time>2023-04-05T13:38:37Z</time>
      </trkpt>
      <trkpt lat="49.83576" lon="2.29146">
        <ele>72.6</ele>
        <time>2023-04-05T13:38:38Z</time>
      </trkpt>
      <trkpt lat="49.83576" lon="2.29148">
        <ele>72.6</ele>
        <time>2023-04-05T13:38:39Z</time>
      </trkpt>
      <trkpt lat="49.83575" lon="2.29149">
        <ele>72.6</ele>
        <time>2023-04-05T13:38:40Z</time>
      </trkpt>
      <trkpt lat="49.83574" lon="2.29151">
        <ele>72.6</ele>
        <time>2023-04-05T13:38:41Z</time>
      </trkpt>
      <trkpt lat="49.83572" lon="2.29154">
        <ele>72.5</ele>
        <time>2023-04-05T13:38:43Z</time>
      </trkpt>
      <trkpt lat="49.83572" lon="2.29155">
        <ele>72.5</ele>
        <time>2023-04-05T13:38:44Z</time>
      </trkpt>
      <trkpt lat="49.83571" lon="2.29157">
        <ele>72.5</ele>
        <time>2023-04-05T13:38:46Z</time>
      </trkpt>
      <trkpt lat="49.8357" lon="2.29159">
        <ele>72.4</ele>
        <time>2023-04-05T13:38:47Z</time>
      </trkpt>
      <trkpt lat="49.83569" lon="2.29161">
        <ele>72.4</ele>
        <time>2023-04-05T13:38:48Z</time>
      </trkpt>
      <trkpt lat="49.83568" lon="2.29163">
        <ele>72.4</ele>
        <time>2023-04-05T13:38:49Z</time>
      </trkpt>
      <trkpt lat="49.83567" lon="2.29165">
        <ele>72.3</ele>
        <time>2023-04-05T13:38:50Z</time>
      </trkpt>
      <trkpt lat="49.83567" lon="2.29166">
        <ele>72.3</ele>
        <time>2023-04-05T13:38:52Z</time>
      </trkpt>
      <trkpt lat="49.83566" lon="2.29168">
        <ele>72.3</ele>
        <time>2023-04-05T13:38:53Z</time>
      </trkpt>
      <trkpt lat="49.83565" lon="2.29169">
        <ele>72.3</ele>
        <time>2023-04-05T13:38:54Z</time>
      </trkpt>
      <trkpt lat="49.83564" lon="2.2917">
        <ele>72.2</ele>
        <time>2023-04-05T13:38:55Z</time>
      </trkpt>
      <trkpt lat="49.83563" lon="2.29171">
        <ele>72.2</ele>
        <time>2023-04-05T13:38:56Z</time>
      </trkpt>
      <trkpt lat="49.83563" lon="2.29172">
        <ele>72.2</ele>
        <time>2023-04-05T13:38:57Z</time>
      </trkpt>
      <trkpt lat="49.83562" lon="2.29174">
        <ele>72.1</ele>
        <time>2023-04-05T13:38:58Z</time>
      </trkpt>
      <trkpt lat="49.83561" lon="2.29175">
        <ele>72.1</ele>
        <time>2023-04-05T13:39:00Z</time>
      </trkpt>
      <trkpt lat="49.8356" lon="2.29175">
        <ele>72.1</ele>
        <time>2023-04-05T13:39:01Z</time>
      </trkpt>
      <trkpt lat="49.83559" lon="2.29178">
        <ele>72.1</ele>
        <time>2023-04-05T13:39:02Z</time>
      </trkpt>
      <trkpt lat="49.83558" lon="2.29179">
        <ele>72</ele>
        <time>2023-04-05T13:39:03Z</time>
      </trkpt>
      <trkpt lat="49.83557" lon="2.29181">
        <ele>72</ele>
        <time>2023-04-05T13:39:04Z</time>
      </trkpt>
      <trkpt lat="49.83556" lon="2.29182">
        <ele>72</ele>
        <time>2023-04-05T13:39:06Z</time>
      </trkpt>
      <trkpt lat="49.83555" lon="2.29184">
        <ele>71.9</ele>
        <time>2023-04-05T13:39:07Z</time>
      </trkpt>
      <trkpt lat="49.83554" lon="2.29186">
        <ele>71.9</ele>
        <time>2023-04-05T13:39:08Z</time>
      </trkpt>
      <trkpt lat="49.83553" lon="2.29188">
        <ele>71.9</ele>
        <time>2023-04-05T13:39:10Z</time>
      </trkpt>
      <trkpt lat="49.83552" lon="2.2919">
        <ele>71.8</ele>
        <time>2023-04-05T13:39:11Z</time>
      </trkpt>
      <trkpt lat="49.83551" lon="2.29191">
        <ele>71.8</ele>
        <time>2023-04-05T13:39:12Z</time>
      </trkpt>
      <trkpt lat="49.83551" lon="2.29192">
        <ele>71.8</ele>
        <time>2023-04-05T13:39:13Z</time>
      </trkpt>
      <trkpt lat="49.8355" lon="2.29193">
        <ele>71.7</ele>
        <time>2023-04-05T13:39:14Z</time>
      </trkpt>
      <trkpt lat="49.83549" lon="2.29194">
        <ele>71.7</ele>
        <time>2023-04-05T13:39:15Z</time>
      </trkpt>
      <trkpt lat="49.83548" lon="2.29195">
        <ele>71.7</ele>
        <time>2023-04-05T13:39:16Z</time>
      </trkpt>
      <trkpt lat="49.83548" lon="2.29197">
        <ele>71.7</ele>
        <time>2023-04-05T13:39:17Z</time>
      </trkpt>
      <trkpt lat="49.83547" lon="2.29198">
        <ele>71.7</ele>
        <time>2023-04-05T13:39:19Z</time>
      </trkpt>
      <trkpt lat="49.83546" lon="2.292">
        <ele>71.6</ele>
        <time>2023-04-05T13:39:20Z</time>
      </trkpt>
      <trkpt lat="49.83545" lon="2.29203">
        <ele>71.6</ele>
        <time>2023-04-05T13:39:21Z</time>
      </trkpt>
      <trkpt lat="49.83544" lon="2.29204">
        <ele>71.6</ele>
        <time>2023-04-05T13:39:22Z</time>
      </trkpt>
      <trkpt lat="49.83543" lon="2.29205">
        <ele>71.6</ele>
        <time>2023-04-05T13:39:23Z</time>
      </trkpt>
      <trkpt lat="49.83543" lon="2.29206">
        <ele>71.5</ele>
        <time>2023-04-05T13:39:24Z</time>
      </trkpt>
      <trkpt lat="49.83542" lon="2.29207">
        <ele>71.5</ele>
        <time>2023-04-05T13:39:26Z</time>
      </trkpt>
      <trkpt lat="49.83541" lon="2.29208">
        <ele>71.5</ele>
        <time>2023-04-05T13:39:27Z</time>
      </trkpt>
      <trkpt lat="49.83541" lon="2.29208">
        <ele>71.5</ele>
        <time>2023-04-05T13:39:28Z</time>
      </trkpt>
      <trkpt lat="49.83539" lon="2.2921">
        <ele>71.5</ele>
        <time>2023-04-05T13:39:29Z</time>
      </trkpt>
      <trkpt lat="49.83539" lon="2.2921">
        <ele>71.5</ele>
        <time>2023-04-05T13:39:30Z</time>
      </trkpt>
      <trkpt lat="49.83538" lon="2.29211">
        <ele>71.4</ele>
        <time>2023-04-05T13:39:31Z</time>
      </trkpt>
      <trkpt lat="49.83536" lon="2.29214">
        <ele>71.4</ele>
        <time>2023-04-05T13:39:32Z</time>
      </trkpt>
      <trkpt lat="49.83536" lon="2.29215">
        <ele>71.4</ele>
        <time>2023-04-05T13:39:33Z</time>
      </trkpt>
      <trkpt lat="49.83535" lon="2.29215">
        <ele>71.4</ele>
        <time>2023-04-05T13:39:34Z</time>
      </trkpt>
      <trkpt lat="49.83534" lon="2.29217">
        <ele>71.4</ele>
        <time>2023-04-05T13:39:36Z</time>
      </trkpt>
      <trkpt lat="49.83533" lon="2.29218">
        <ele>71.3</ele>
        <time>2023-04-05T13:39:37Z</time>
      </trkpt>
      <trkpt lat="49.83532" lon="2.2922">
        <ele>71.3</ele>
        <time>2023-04-05T13:39:38Z</time>
      </trkpt>
      <trkpt lat="49.83531" lon="2.29222">
        <ele>71.3</ele>
        <time>2023-04-05T13:39:39Z</time>
      </trkpt>
      <trkpt lat="49.8353" lon="2.29224">
        <ele>71.2</ele>
        <time>2023-04-05T13:39:40Z</time>
      </trkpt>
      <trkpt lat="49.83529" lon="2.29225">
        <ele>71.2</ele>
        <time>2023-04-05T13:39:41Z</time>
      </trkpt>
      <trkpt lat="49.83528" lon="2.29226">
        <ele>71.1</ele>
        <time>2023-04-05T13:39:42Z</time>
      </trkpt>
      <trkpt lat="49.83527" lon="2.29228">
        <ele>71.1</ele>
        <time>2023-04-05T13:39:43Z</time>
      </trkpt>
      <trkpt lat="49.83526" lon="2.29229">
        <ele>71.1</ele>
        <time>2023-04-05T13:39:44Z</time>
      </trkpt>
      <trkpt lat="49.83526" lon="2.2923">
        <ele>71.1</ele>
        <time>2023-04-05T13:39:46Z</time>
      </trkpt>
      <trkpt lat="49.83525" lon="2.29231">
        <ele>71</ele>
        <time>2023-04-05T13:39:47Z</time>
      </trkpt>
      <trkpt lat="49.83524" lon="2.29232">
        <ele>71</ele>
        <time>2023-04-05T13:39:48Z</time>
      </trkpt>
      <trkpt lat="49.83523" lon="2.29233">
        <ele>71</ele>
        <time>2023-04-05T13:39:49Z</time>
      </trkpt>
      <trkpt lat="49.83522" lon="2.29235">
        <ele>70.9</ele>
        <time>2023-04-05T13:39:50Z</time>
      </trkpt>
      <trkpt lat="49.83521" lon="2.29236">
        <ele>70.9</ele>
        <time>2023-04-05T13:39:51Z</time>
      </trkpt>
      <trkpt lat="49.8352" lon="2.29239">
        <ele>70.8</ele>
        <time>2023-04-05T13:39:52Z</time>
      </trkpt>
      <trkpt lat="49.83519" lon="2.2924">
        <ele>70.8</ele>
        <time>2023-04-05T13:39:53Z</time>
      </trkpt>
      <trkpt lat="49.83519" lon="2.29241">
        <ele>70.7</ele>
        <time>2023-04-05T13:39:54Z</time>
      </trkpt>
      <trkpt lat="49.83518" lon="2.29243">
        <ele>70.7</ele>
        <time>2023-04-05T13:39:56Z</time>
      </trkpt>
      <trkpt lat="49.83517" lon="2.29244">
        <ele>70.6</ele>
        <time>2023-04-05T13:39:57Z</time>
      </trkpt>
      <trkpt lat="49.83516" lon="2.29246">
        <ele>70.6</ele>
        <time>2023-04-05T13:39:58Z</time>
      </trkpt>
      <trkpt lat="49.83515" lon="2.29247">
        <ele>70.6</ele>
        <time>2023-04-05T13:39:59Z</time>
      </trkpt>
      <trkpt lat="49.83514" lon="2.29248">
        <ele>70.5</ele>
        <time>2023-04-05T13:40:00Z</time>
      </trkpt>
      <trkpt lat="49.83513" lon="2.29249">
        <ele>70.5</ele>
        <time>2023-04-05T13:40:01Z</time>
      </trkpt>
      <trkpt lat="49.83512" lon="2.29251">
        <ele>70.4</ele>
        <time>2023-04-05T13:40:02Z</time>
      </trkpt>
      <trkpt lat="49.83511" lon="2.29253">
        <ele>70.4</ele>
        <time>2023-04-05T13:40:03Z</time>
      </trkpt>
      <trkpt lat="49.8351" lon="2.29254">
        <ele>70.3</ele>
        <time>2023-04-05T13:40:05Z</time>
      </trkpt>
      <trkpt lat="49.8351" lon="2.29255">
        <ele>70.3</ele>
        <time>2023-04-05T13:40:06Z</time>
      </trkpt>
      <trkpt lat="49.83509" lon="2.29257">
        <ele>70.2</ele>
        <time>2023-04-05T13:40:07Z</time>
      </trkpt>
      <trkpt lat="49.83508" lon="2.29258">
        <ele>70.2</ele>
        <time>2023-04-05T13:40:08Z</time>
      </trkpt>
      <trkpt lat="49.83507" lon="2.2926">
        <ele>70.2</ele>
        <time>2023-04-05T13:40:09Z</time>
      </trkpt>
      <trkpt lat="49.83506" lon="2.29261">
        <ele>70.1</ele>
        <time>2023-04-05T13:40:10Z</time>
      </trkpt>
      <trkpt lat="49.83505" lon="2.29263">
        <ele>70.1</ele>
        <time>2023-04-05T13:40:12Z</time>
      </trkpt>
      <trkpt lat="49.83504" lon="2.29266">
        <ele>70</ele>
        <time>2023-04-05T13:40:13Z</time>
      </trkpt>
      <trkpt lat="49.83503" lon="2.29267">
        <ele>69.9</ele>
        <time>2023-04-05T13:40:14Z</time>
      </trkpt>
      <trkpt lat="49.83503" lon="2.29268">
        <ele>69.9</ele>
        <time>2023-04-05T13:40:15Z</time>
      </trkpt>
      <trkpt lat="49.83502" lon="2.29269">
        <ele>69.8</ele>
        <time>2023-04-05T13:40:16Z</time>
      </trkpt>
      <trkpt lat="49.83501" lon="2.29271">
        <ele>69.8</ele>
        <time>2023-04-05T13:40:17Z</time>
      </trkpt>
      <trkpt lat="49.835" lon="2.29273">
        <ele>69.7</ele>
        <time>2023-04-05T13:40:18Z</time>
      </trkpt>
      <trkpt lat="49.83499" lon="2.29275">
        <ele>69.7</ele>
        <time>2023-04-05T13:40:20Z</time>
      </trkpt>
      <trkpt lat="49.83498" lon="2.29276">
        <ele>69.6</ele>
        <time>2023-04-05T13:40:21Z</time>
      </trkpt>
      <trkpt lat="49.83497" lon="2.29277">
        <ele>69.5</ele>
        <time>2023-04-05T13:40:22Z</time>
      </trkpt>
      <trkpt lat="49.83495" lon="2.29279">
        <ele>69.5</ele>
        <time>2023-04-05T13:40:23Z</time>
      </trkpt>
      <trkpt lat="49.83494" lon="2.2928">
        <ele>69.4</ele>
        <time>2023-04-05T13:40:24Z</time>
      </trkpt>
      <trkpt lat="49.83492" lon="2.29282">
        <ele>69.3</ele>
        <time>2023-04-05T13:40:25Z</time>
      </trkpt>
      <trkpt lat="49.83491" lon="2.29283">
        <ele>69.3</ele>
        <time>2023-04-05T13:40:26Z</time>
      </trkpt>
      <trkpt lat="49.8349" lon="2.29284">
        <ele>69.2</ele>
        <time>2023-04-05T13:40:27Z</time>
      </trkpt>
      <trkpt lat="49.83489" lon="2.29286">
        <ele>69.2</ele>
        <time>2023-04-05T13:40:29Z</time>
      </trkpt>
      <trkpt lat="49.83488" lon="2.29288">
        <ele>69.1</ele>
        <time>2023-04-05T13:40:31Z</time>
      </trkpt>
      <trkpt lat="49.83487" lon="2.29289">
        <ele>69</ele>
        <time>2023-04-05T13:40:32Z</time>
      </trkpt>
      <trkpt lat="49.83486" lon="2.29291">
        <ele>69</ele>
        <time>2023-04-05T13:40:33Z</time>
      </trkpt>
      <trkpt lat="49.83486" lon="2.29292">
        <ele>68.9</ele>
        <time>2023-04-05T13:40:34Z</time>
      </trkpt>
      <trkpt lat="49.83485" lon="2.29293">
        <ele>68.9</ele>
        <time>2023-04-05T13:40:35Z</time>
      </trkpt>
      <trkpt lat="49.83485" lon="2.29295">
        <ele>68.8</ele>
        <time>2023-04-05T13:40:36Z</time>
      </trkpt>
      <trkpt lat="49.83484" lon="2.29296">
        <ele>68.8</ele>
        <time>2023-04-05T13:40:37Z</time>
      </trkpt>
      <trkpt lat="49.83483" lon="2.29298">
        <ele>68.7</ele>
        <time>2023-04-05T13:40:38Z</time>
      </trkpt>
      <trkpt lat="49.83483" lon="2.29301">
        <ele>68.6</ele>
        <time>2023-04-05T13:40:39Z</time>
      </trkpt>
      <trkpt lat="49.83483" lon="2.29303">
        <ele>68.6</ele>
        <time>2023-04-05T13:40:40Z</time>
      </trkpt>
      <trkpt lat="49.83482" lon="2.29304">
        <ele>68.6</ele>
        <time>2023-04-05T13:40:41Z</time>
      </trkpt>
      <trkpt lat="49.83482" lon="2.29308">
        <ele>68.4</ele>
        <time>2023-04-05T13:40:42Z</time>
      </trkpt>
      <trkpt lat="49.83482" lon="2.29309">
        <ele>68.4</ele>
        <time>2023-04-05T13:40:44Z</time>
      </trkpt>
      <trkpt lat="49.83482" lon="2.2931">
        <ele>68.4</ele>
        <time>2023-04-05T13:40:45Z</time>
      </trkpt>
      <trkpt lat="49.83481" lon="2.29311">
        <ele>68.3</ele>
        <time>2023-04-05T13:40:46Z</time>
      </trkpt>
      <trkpt lat="49.83481" lon="2.29313">
        <ele>68.3</ele>
        <time>2023-04-05T13:40:47Z</time>
      </trkpt>
      <trkpt lat="49.8348" lon="2.29315">
        <ele>68.2</ele>
        <time>2023-04-05T13:40:48Z</time>
      </trkpt>
      <trkpt lat="49.83479" lon="2.29318">
        <ele>68.1</ele>
        <time>2023-04-05T13:40:49Z</time>
      </trkpt>
      <trkpt lat="49.83479" lon="2.29319">
        <ele>68.1</ele>
        <time>2023-04-05T13:40:50Z</time>
      </trkpt>
      <trkpt lat="49.83478" lon="2.2932">
        <ele>68</ele>
        <time>2023-04-05T13:40:51Z</time>
      </trkpt>
      <trkpt lat="49.83477" lon="2.29322">
        <ele>68</ele>
        <time>2023-04-05T13:40:52Z</time>
      </trkpt>
      <trkpt lat="49.83477" lon="2.29324">
        <ele>67.9</ele>
        <time>2023-04-05T13:40:53Z</time>
      </trkpt>
      <trkpt lat="49.83476" lon="2.29325">
        <ele>67.8</ele>
        <time>2023-04-05T13:40:55Z</time>
      </trkpt>
      <trkpt lat="49.83476" lon="2.29327">
        <ele>67.8</ele>
        <time>2023-04-05T13:40:56Z</time>
      </trkpt>
      <trkpt lat="49.83476" lon="2.29328">
        <ele>67.8</ele>
        <time>2023-04-05T13:40:57Z</time>
      </trkpt>
      <trkpt lat="49.83475" lon="2.29331">
        <ele>67.7</ele>
        <time>2023-04-05T13:40:58Z</time>
      </trkpt>
      <trkpt lat="49.83474" lon="2.29332">
        <ele>67.6</ele>
        <time>2023-04-05T13:40:59Z</time>
      </trkpt>
      <trkpt lat="49.83474" lon="2.29334">
        <ele>67.6</ele>
        <time>2023-04-05T13:41:00Z</time>
      </trkpt>
      <trkpt lat="49.83474" lon="2.29335">
        <ele>67.5</ele>
        <time>2023-04-05T13:41:01Z</time>
      </trkpt>
      <trkpt lat="49.83473" lon="2.29338">
        <ele>67.5</ele>
        <time>2023-04-05T13:41:02Z</time>
      </trkpt>
      <trkpt lat="49.83472" lon="2.2934">
        <ele>67.4</ele>
        <time>2023-04-05T13:41:04Z</time>
      </trkpt>
      <trkpt lat="49.83472" lon="2.29342">
        <ele>67.3</ele>
        <time>2023-04-05T13:41:05Z</time>
      </trkpt>
      <trkpt lat="49.83472" lon="2.29343">
        <ele>67.3</ele>
        <time>2023-04-05T13:41:06Z</time>
      </trkpt>
      <trkpt lat="49.83471" lon="2.29347">
        <ele>67.2</ele>
        <time>2023-04-05T13:41:07Z</time>
      </trkpt>
      <trkpt lat="49.83471" lon="2.29348">
        <ele>67.1</ele>
        <time>2023-04-05T13:41:08Z</time>
      </trkpt>
      <trkpt lat="49.83471" lon="2.29348">
        <ele>67.1</ele>
        <time>2023-04-05T13:41:09Z</time>
      </trkpt>
      <trkpt lat="49.8347" lon="2.29351">
        <ele>67</ele>
        <time>2023-04-05T13:41:10Z</time>
      </trkpt>
      <trkpt lat="49.8347" lon="2.29352">
        <ele>67</ele>
        <time>2023-04-05T13:41:12Z</time>
      </trkpt>
      <trkpt lat="49.83469" lon="2.29353">
        <ele>67</ele>
        <time>2023-04-05T13:41:13Z</time>
      </trkpt>
      <trkpt lat="49.83469" lon="2.29355">
        <ele>66.9</ele>
        <time>2023-04-05T13:41:14Z</time>
      </trkpt>
      <trkpt lat="49.83468" lon="2.29356">
        <ele>66.9</ele>
        <time>2023-04-05T13:41:15Z</time>
      </trkpt>
      <trkpt lat="49.83468" lon="2.29358">
        <ele>66.8</ele>
        <time>2023-04-05T13:41:16Z</time>
      </trkpt>
      <trkpt lat="49.83467" lon="2.29361">
        <ele>66.7</ele>
        <time>2023-04-05T13:41:17Z</time>
      </trkpt>
      <trkpt lat="49.83467" lon="2.29362">
        <ele>66.7</ele>
        <time>2023-04-05T13:41:18Z</time>
      </trkpt>
      <trkpt lat="49.83466" lon="2.29363">
        <ele>66.7</ele>
        <time>2023-04-05T13:41:19Z</time>
      </trkpt>
      <trkpt lat="49.83466" lon="2.29366">
        <ele>66.6</ele>
        <time>2023-04-05T13:41:20Z</time>
      </trkpt>
      <trkpt lat="49.83465" lon="2.29367">
        <ele>66.5</ele>
        <time>2023-04-05T13:41:21Z</time>
      </trkpt>
      <trkpt lat="49.83465" lon="2.29368">
        <ele>66.5</ele>
        <time>2023-04-05T13:41:22Z</time>
      </trkpt>
      <trkpt lat="49.83465" lon="2.2937">
        <ele>66.5</ele>
        <time>2023-04-05T13:41:24Z</time>
      </trkpt>
      <trkpt lat="49.83464" lon="2.29371">
        <ele>66.4</ele>
        <time>2023-04-05T13:41:25Z</time>
      </trkpt>
      <trkpt lat="49.83464" lon="2.29372">
        <ele>66.4</ele>
        <time>2023-04-05T13:41:26Z</time>
      </trkpt>
      <trkpt lat="49.83463" lon="2.29375">
        <ele>66.3</ele>
        <time>2023-04-05T13:41:27Z</time>
      </trkpt>
      <trkpt lat="49.83463" lon="2.29376">
        <ele>66.3</ele>
        <time>2023-04-05T13:41:28Z</time>
      </trkpt>
      <trkpt lat="49.83462" lon="2.29377">
        <ele>66.2</ele>
        <time>2023-04-05T13:41:29Z</time>
      </trkpt>
      <trkpt lat="49.83461" lon="2.29379">
        <ele>66.1</ele>
        <time>2023-04-05T13:41:30Z</time>
      </trkpt>
      <trkpt lat="49.83461" lon="2.29381">
        <ele>66.1</ele>
        <time>2023-04-05T13:41:31Z</time>
      </trkpt>
      <trkpt lat="49.8346" lon="2.29382">
        <ele>66.1</ele>
        <time>2023-04-05T13:41:32Z</time>
      </trkpt>
      <trkpt lat="49.8346" lon="2.29383">
        <ele>66</ele>
        <time>2023-04-05T13:41:33Z</time>
      </trkpt>
      <trkpt lat="49.83459" lon="2.29384">
        <ele>66</ele>
        <time>2023-04-05T13:41:34Z</time>
      </trkpt>
      <trkpt lat="49.83459" lon="2.29385">
        <ele>65.9</ele>
        <time>2023-04-05T13:41:36Z</time>
      </trkpt>
      <trkpt lat="49.83458" lon="2.29387">
        <ele>65.9</ele>
        <time>2023-04-05T13:41:37Z</time>
      </trkpt>
      <trkpt lat="49.83458" lon="2.29389">
        <ele>65.8</ele>
        <time>2023-04-05T13:41:38Z</time>
      </trkpt>
      <trkpt lat="49.83457" lon="2.2939">
        <ele>65.8</ele>
        <time>2023-04-05T13:41:39Z</time>
      </trkpt>
      <trkpt lat="49.83456" lon="2.29393">
        <ele>65.7</ele>
        <time>2023-04-05T13:41:40Z</time>
      </trkpt>
      <trkpt lat="49.83455" lon="2.29394">
        <ele>65.6</ele>
        <time>2023-04-05T13:41:41Z</time>
      </trkpt>
      <trkpt lat="49.83455" lon="2.29396">
        <ele>65.6</ele>
        <time>2023-04-05T13:41:42Z</time>
      </trkpt>
      <trkpt lat="49.83454" lon="2.29398">
        <ele>65.5</ele>
        <time>2023-04-05T13:41:43Z</time>
      </trkpt>
      <trkpt lat="49.83453" lon="2.29399">
        <ele>65.5</ele>
        <time>2023-04-05T13:41:44Z</time>
      </trkpt>
      <trkpt lat="49.83453" lon="2.29401">
        <ele>65.4</ele>
        <time>2023-04-05T13:41:45Z</time>
      </trkpt>
      <trkpt lat="49.83452" lon="2.29403">
        <ele>65.4</ele>
        <time>2023-04-05T13:41:47Z</time>
      </trkpt>
      <trkpt lat="49.83452" lon="2.29404">
        <ele>65.3</ele>
        <time>2023-04-05T13:41:48Z</time>
      </trkpt>
      <trkpt lat="49.83451" lon="2.29406">
        <ele>65.3</ele>
        <time>2023-04-05T13:41:49Z</time>
      </trkpt>
      <trkpt lat="49.83449" lon="2.29408">
        <ele>65.2</ele>
        <time>2023-04-05T13:41:50Z</time>
      </trkpt>
      <trkpt lat="49.83449" lon="2.2941">
        <ele>65.2</ele>
        <time>2023-04-05T13:41:51Z</time>
      </trkpt>
      <trkpt lat="49.83448" lon="2.29412">
        <ele>65.1</ele>
        <time>2023-04-05T13:41:52Z</time>
      </trkpt>
      <trkpt lat="49.83447" lon="2.29413">
        <ele>65.1</ele>
        <time>2023-04-05T13:41:54Z</time>
      </trkpt>
      <trkpt lat="49.83447" lon="2.29415">
        <ele>65</ele>
        <time>2023-04-05T13:41:55Z</time>
      </trkpt>
      <trkpt lat="49.83447" lon="2.29417">
        <ele>65</ele>
        <time>2023-04-05T13:41:56Z</time>
      </trkpt>
      <trkpt lat="49.83446" lon="2.29419">
        <ele>64.9</ele>
        <time>2023-04-05T13:41:57Z</time>
      </trkpt>
      <trkpt lat="49.83446" lon="2.29421">
        <ele>64.9</ele>
        <time>2023-04-05T13:41:58Z</time>
      </trkpt>
      <trkpt lat="49.83445" lon="2.29424">
        <ele>64.8</ele>
        <time>2023-04-05T13:41:59Z</time>
      </trkpt>
      <trkpt lat="49.83444" lon="2.29425">
        <ele>64.8</ele>
        <time>2023-04-05T13:42:00Z</time>
      </trkpt>
      <trkpt lat="49.83444" lon="2.29427">
        <ele>64.7</ele>
        <time>2023-04-05T13:42:02Z</time>
      </trkpt>
      <trkpt lat="49.83443" lon="2.29429">
        <ele>64.7</ele>
        <time>2023-04-05T13:42:03Z</time>
      </trkpt>
      <trkpt lat="49.83443" lon="2.2943">
        <ele>64.7</ele>
        <time>2023-04-05T13:42:05Z</time>
      </trkpt>
      <trkpt lat="49.83442" lon="2.29432">
        <ele>64.6</ele>
        <time>2023-04-05T13:42:06Z</time>
      </trkpt>
      <trkpt lat="49.83442" lon="2.29433">
        <ele>64.6</ele>
        <time>2023-04-05T13:42:07Z</time>
      </trkpt>
      <trkpt lat="49.83441" lon="2.29435">
        <ele>64.5</ele>
        <time>2023-04-05T13:42:08Z</time>
      </trkpt>
      <trkpt lat="49.83441" lon="2.29437">
        <ele>64.5</ele>
        <time>2023-04-05T13:42:09Z</time>
      </trkpt>
      <trkpt lat="49.8344" lon="2.29438">
        <ele>64.5</ele>
        <time>2023-04-05T13:42:10Z</time>
      </trkpt>
      <trkpt lat="49.83439" lon="2.29439">
        <ele>64.4</ele>
        <time>2023-04-05T13:42:11Z</time>
      </trkpt>
      <trkpt lat="49.83439" lon="2.29441">
        <ele>64.4</ele>
        <time>2023-04-05T13:42:12Z</time>
      </trkpt>
      <trkpt lat="49.83438" lon="2.29442">
        <ele>64.3</ele>
        <time>2023-04-05T13:42:13Z</time>
      </trkpt>
      <trkpt lat="49.83438" lon="2.29444">
        <ele>64.3</ele>
        <time>2023-04-05T13:42:14Z</time>
      </trkpt>
      <trkpt lat="49.83437" lon="2.29446">
        <ele>64.3</ele>
        <time>2023-04-05T13:42:15Z</time>
      </trkpt>
      <trkpt lat="49.83437" lon="2.29447">
        <ele>64.2</ele>
        <time>2023-04-05T13:42:16Z</time>
      </trkpt>
      <trkpt lat="49.83436" lon="2.2945">
        <ele>64.2</ele>
        <time>2023-04-05T13:42:18Z</time>
      </trkpt>
      <trkpt lat="49.83436" lon="2.29451">
        <ele>64.1</ele>
        <time>2023-04-05T13:42:19Z</time>
      </trkpt>
      <trkpt lat="49.83436" lon="2.29453">
        <ele>64.1</ele>
        <time>2023-04-05T13:42:20Z</time>
      </trkpt>
      <trkpt lat="49.83435" lon="2.29454">
        <ele>64.1</ele>
        <time>2023-04-05T13:42:21Z</time>
      </trkpt>
      <trkpt lat="49.83435" lon="2.29457">
        <ele>64</ele>
        <time>2023-04-05T13:42:22Z</time>
      </trkpt>
      <trkpt lat="49.83435" lon="2.29459">
        <ele>64</ele>
        <time>2023-04-05T13:42:23Z</time>
      </trkpt>
      <trkpt lat="49.83434" lon="2.2946">
        <ele>63.9</ele>
        <time>2023-04-05T13:42:24Z</time>
      </trkpt>
      <trkpt lat="49.83434" lon="2.29463">
        <ele>63.9</ele>
        <time>2023-04-05T13:42:26Z</time>
      </trkpt>
      <trkpt lat="49.83433" lon="2.29464">
        <ele>63.8</ele>
        <time>2023-04-05T13:42:27Z</time>
      </trkpt>
      <trkpt lat="49.83433" lon="2.29465">
        <ele>63.8</ele>
        <time>2023-04-05T13:42:28Z</time>
      </trkpt>
      <trkpt lat="49.83432" lon="2.29468">
        <ele>63.7</ele>
        <time>2023-04-05T13:42:29Z</time>
      </trkpt>
      <trkpt lat="49.83432" lon="2.29469">
        <ele>63.7</ele>
        <time>2023-04-05T13:42:30Z</time>
      </trkpt>
      <trkpt lat="49.83431" lon="2.29471">
        <ele>63.7</ele>
        <time>2023-04-05T13:42:31Z</time>
      </trkpt>
      <trkpt lat="49.83431" lon="2.29472">
        <ele>63.6</ele>
        <time>2023-04-05T13:42:32Z</time>
      </trkpt>
      <trkpt lat="49.8343" lon="2.29475">
        <ele>63.6</ele>
        <time>2023-04-05T13:42:33Z</time>
      </trkpt>
      <trkpt lat="49.8343" lon="2.29476">
        <ele>63.5</ele>
        <time>2023-04-05T13:42:34Z</time>
      </trkpt>
      <trkpt lat="49.83429" lon="2.29478">
        <ele>63.5</ele>
        <time>2023-04-05T13:42:36Z</time>
      </trkpt>
      <trkpt lat="49.83429" lon="2.2948">
        <ele>63.4</ele>
        <time>2023-04-05T13:42:37Z</time>
      </trkpt>
      <trkpt lat="49.83428" lon="2.29482">
        <ele>63.4</ele>
        <time>2023-04-05T13:42:38Z</time>
      </trkpt>
      <trkpt lat="49.83428" lon="2.29484">
        <ele>63.3</ele>
        <time>2023-04-05T13:42:39Z</time>
      </trkpt>
      <trkpt lat="49.83427" lon="2.29485">
        <ele>63.3</ele>
        <time>2023-04-05T13:42:40Z</time>
      </trkpt>
      <trkpt lat="49.83427" lon="2.29487">
        <ele>63.2</ele>
        <time>2023-04-05T13:42:41Z</time>
      </trkpt>
      <trkpt lat="49.83426" lon="2.2949">
        <ele>63.2</ele>
        <time>2023-04-05T13:42:43Z</time>
      </trkpt>
      <trkpt lat="49.83426" lon="2.2949">
        <ele>63.1</ele>
        <time>2023-04-05T13:42:44Z</time>
      </trkpt>
      <trkpt lat="49.83425" lon="2.29492">
        <ele>63.1</ele>
        <time>2023-04-05T13:42:45Z</time>
      </trkpt>
      <trkpt lat="49.83424" lon="2.29493">
        <ele>63.1</ele>
        <time>2023-04-05T13:42:46Z</time>
      </trkpt>
      <trkpt lat="49.83423" lon="2.29495">
        <ele>63</ele>
        <time>2023-04-05T13:42:47Z</time>
      </trkpt>
      <trkpt lat="49.83423" lon="2.29496">
        <ele>63</ele>
        <time>2023-04-05T13:42:48Z</time>
      </trkpt>
      <trkpt lat="49.83422" lon="2.29498">
        <ele>62.9</ele>
        <time>2023-04-05T13:42:49Z</time>
      </trkpt>
      <trkpt lat="49.83421" lon="2.295">
        <ele>62.8</ele>
        <time>2023-04-05T13:42:50Z</time>
      </trkpt>
      <trkpt lat="49.8342" lon="2.29501">
        <ele>62.8</ele>
        <time>2023-04-05T13:42:52Z</time>
      </trkpt>
      <trkpt lat="49.83419" lon="2.29502">
        <ele>62.8</ele>
        <time>2023-04-05T13:42:53Z</time>
      </trkpt>
      <trkpt lat="49.83418" lon="2.29505">
        <ele>62.7</ele>
        <time>2023-04-05T13:42:54Z</time>
      </trkpt>
      <trkpt lat="49.83417" lon="2.29505">
        <ele>62.6</ele>
        <time>2023-04-05T13:42:55Z</time>
      </trkpt>
      <trkpt lat="49.83417" lon="2.29506">
        <ele>62.6</ele>
        <time>2023-04-05T13:42:56Z</time>
      </trkpt>
      <trkpt lat="49.83416" lon="2.29508">
        <ele>62.6</ele>
        <time>2023-04-05T13:42:57Z</time>
      </trkpt>
      <trkpt lat="49.83414" lon="2.2951">
        <ele>62.5</ele>
        <time>2023-04-05T13:42:58Z</time>
      </trkpt>
      <trkpt lat="49.83414" lon="2.29511">
        <ele>62.4</ele>
        <time>2023-04-05T13:43:00Z</time>
      </trkpt>
      <trkpt lat="49.83413" lon="2.29512">
        <ele>62.4</ele>
        <time>2023-04-05T13:43:01Z</time>
      </trkpt>
      <trkpt lat="49.83412" lon="2.29513">
        <ele>62.3</ele>
        <time>2023-04-05T13:43:02Z</time>
      </trkpt>
      <trkpt lat="49.8341" lon="2.29515">
        <ele>62.3</ele>
        <time>2023-04-05T13:43:03Z</time>
      </trkpt>
      <trkpt lat="49.8341" lon="2.29516">
        <ele>62.2</ele>
        <time>2023-04-05T13:43:04Z</time>
      </trkpt>
      <trkpt lat="49.83408" lon="2.29518">
        <ele>62.1</ele>
        <time>2023-04-05T13:43:05Z</time>
      </trkpt>
      <trkpt lat="49.83407" lon="2.29519">
        <ele>62.1</ele>
        <time>2023-04-05T13:43:06Z</time>
      </trkpt>
      <trkpt lat="49.83406" lon="2.2952">
        <ele>62.1</ele>
        <time>2023-04-05T13:43:07Z</time>
      </trkpt>
      <trkpt lat="49.83405" lon="2.29522">
        <ele>62</ele>
        <time>2023-04-05T13:43:08Z</time>
      </trkpt>
      <trkpt lat="49.83404" lon="2.29523">
        <ele>62</ele>
        <time>2023-04-05T13:43:09Z</time>
      </trkpt>
      <trkpt lat="49.83404" lon="2.29524">
        <ele>61.9</ele>
        <time>2023-04-05T13:43:10Z</time>
      </trkpt>
      <trkpt lat="49.83403" lon="2.29525">
        <ele>61.9</ele>
        <time>2023-04-05T13:43:11Z</time>
      </trkpt>
      <trkpt lat="49.83401" lon="2.29527">
        <ele>61.8</ele>
        <time>2023-04-05T13:43:13Z</time>
      </trkpt>
      <trkpt lat="49.83401" lon="2.29528">
        <ele>61.8</ele>
        <time>2023-04-05T13:43:14Z</time>
      </trkpt>
      <trkpt lat="49.834" lon="2.29529">
        <ele>61.8</ele>
        <time>2023-04-05T13:43:15Z</time>
      </trkpt>
      <trkpt lat="49.83399" lon="2.2953">
        <ele>61.7</ele>
        <time>2023-04-05T13:43:16Z</time>
      </trkpt>
      <trkpt lat="49.83397" lon="2.29532">
        <ele>61.6</ele>
        <time>2023-04-05T13:43:17Z</time>
      </trkpt>
      <trkpt lat="49.83396" lon="2.29533">
        <ele>61.6</ele>
        <time>2023-04-05T13:43:18Z</time>
      </trkpt>
      <trkpt lat="49.83395" lon="2.29534">
        <ele>61.6</ele>
        <time>2023-04-05T13:43:20Z</time>
      </trkpt>
      <trkpt lat="49.83394" lon="2.29535">
        <ele>61.6</ele>
        <time>2023-04-05T13:43:21Z</time>
      </trkpt>
      <trkpt lat="49.83393" lon="2.29536">
        <ele>61.5</ele>
        <time>2023-04-05T13:43:22Z</time>
      </trkpt>
      <trkpt lat="49.83392" lon="2.29538">
        <ele>61.5</ele>
        <time>2023-04-05T13:43:23Z</time>
      </trkpt>
      <trkpt lat="49.83391" lon="2.29539">
        <ele>61.4</ele>
        <time>2023-04-05T13:43:24Z</time>
      </trkpt>
      <trkpt lat="49.83391" lon="2.2954">
        <ele>61.4</ele>
        <time>2023-04-05T13:43:25Z</time>
      </trkpt>
      <trkpt lat="49.8339" lon="2.29541">
        <ele>61.4</ele>
        <time>2023-04-05T13:43:26Z</time>
      </trkpt>
      <trkpt lat="49.83389" lon="2.29542">
        <ele>61.4</ele>
        <time>2023-04-05T13:43:27Z</time>
      </trkpt>
      <trkpt lat="49.83388" lon="2.29543">
        <ele>61.3</ele>
        <time>2023-04-05T13:43:28Z</time>
      </trkpt>
      <trkpt lat="49.83388" lon="2.29544">
        <ele>61.3</ele>
        <time>2023-04-05T13:43:29Z</time>
      </trkpt>
      <trkpt lat="49.83387" lon="2.29545">
        <ele>61.3</ele>
        <time>2023-04-05T13:43:30Z</time>
      </trkpt>
      <trkpt lat="49.83386" lon="2.29546">
        <ele>61.3</ele>
        <time>2023-04-05T13:43:32Z</time>
      </trkpt>
      <trkpt lat="49.83385" lon="2.29547">
        <ele>61.2</ele>
        <time>2023-04-05T13:43:33Z</time>
      </trkpt>
      <trkpt lat="49.83384" lon="2.29548">
        <ele>61.2</ele>
        <time>2023-04-05T13:43:34Z</time>
      </trkpt>
      <trkpt lat="49.83383" lon="2.29549">
        <ele>61.2</ele>
        <time>2023-04-05T13:43:35Z</time>
      </trkpt>
      <trkpt lat="49.83381" lon="2.2955">
        <ele>61.1</ele>
        <time>2023-04-05T13:43:36Z</time>
      </trkpt>
      <trkpt lat="49.83381" lon="2.29549">
        <ele>61.1</ele>
        <time>2023-04-05T13:43:37Z</time>
      </trkpt>
      <trkpt lat="49.8338" lon="2.29548">
        <ele>61.1</ele>
        <time>2023-04-05T13:43:39Z</time>
      </trkpt>
      <trkpt lat="49.83379" lon="2.29548">
        <ele>61.1</ele>
        <time>2023-04-05T13:43:40Z</time>
      </trkpt>
      <trkpt lat="49.83379" lon="2.29547">
        <ele>61.1</ele>
        <time>2023-04-05T13:43:42Z</time>
      </trkpt>
      <trkpt lat="49.83378" lon="2.29546">
        <ele>61.1</ele>
        <time>2023-04-05T13:43:43Z</time>
      </trkpt>
      <trkpt lat="49.83378" lon="2.29545">
        <ele>61</ele>
        <time>2023-04-05T13:43:44Z</time>
      </trkpt>
      <trkpt lat="49.83379" lon="2.29544">
        <ele>61</ele>
        <time>2023-04-05T13:43:45Z</time>
      </trkpt>
      <trkpt lat="49.83379" lon="2.29545">
        <ele>61</ele>
        <time>2023-04-05T13:43:46Z</time>
      </trkpt>
      <trkpt lat="49.83379" lon="2.29546">
        <ele>61</ele>
        <time>2023-04-05T13:43:47Z</time>
      </trkpt>
      <trkpt lat="49.83377" lon="2.29548">
        <ele>60.9</ele>
        <time>2023-04-05T13:43:49Z</time>
      </trkpt>
      <trkpt lat="49.83377" lon="2.29548">
        <ele>60.9</ele>
        <time>2023-04-05T13:43:50Z</time>
      </trkpt>
      <trkpt lat="49.83376" lon="2.29549">
        <ele>60.9</ele>
        <time>2023-04-05T13:43:51Z</time>
      </trkpt>
      <trkpt lat="49.83375" lon="2.29551">
        <ele>60.9</ele>
        <time>2023-04-05T13:43:52Z</time>
      </trkpt>
      <trkpt lat="49.83374" lon="2.29553">
        <ele>60.9</ele>
        <time>2023-04-05T13:43:54Z</time>
      </trkpt>
      <trkpt lat="49.83374" lon="2.29554">
        <ele>60.9</ele>
        <time>2023-04-05T13:43:55Z</time>
      </trkpt>
      <trkpt lat="49.83373" lon="2.29555">
        <ele>60.8</ele>
        <time>2023-04-05T13:43:56Z</time>
      </trkpt>
      <trkpt lat="49.83372" lon="2.29555">
        <ele>60.8</ele>
        <time>2023-04-05T13:43:57Z</time>
      </trkpt>
      <trkpt lat="49.83371" lon="2.29556">
        <ele>60.8</ele>
        <time>2023-04-05T13:43:59Z</time>
      </trkpt>
      <trkpt lat="49.83371" lon="2.29556">
        <ele>60.8</ele>
        <time>2023-04-05T13:44:00Z</time>
      </trkpt>
      <trkpt lat="49.83371" lon="2.29558">
        <ele>60.8</ele>
        <time>2023-04-05T13:44:02Z</time>
      </trkpt>
      <trkpt lat="49.83371" lon="2.29559">
        <ele>60.7</ele>
        <time>2023-04-05T13:44:03Z</time>
      </trkpt>
      <trkpt lat="49.8337" lon="2.29559">
        <ele>60.7</ele>
        <time>2023-04-05T13:44:05Z</time>
      </trkpt>
      <trkpt lat="49.8337" lon="2.29559">
        <ele>60.7</ele>
        <time>2023-04-05T13:44:06Z</time>
      </trkpt>
      <trkpt lat="49.83371" lon="2.29558">
        <ele>60.7</ele>
        <time>2023-04-05T13:44:08Z</time>
      </trkpt>
      <trkpt lat="49.83371" lon="2.29558">
        <ele>60.7</ele>
        <time>2023-04-05T13:44:09Z</time>
      </trkpt>
      <trkpt lat="49.83371" lon="2.29558">
        <ele>60.7</ele>
        <time>2023-04-05T13:44:10Z</time>
      </trkpt>
      <trkpt lat="49.83371" lon="2.29558">
        <ele>60.7</ele>
        <time>2023-04-05T13:44:12Z</time>
      </trkpt>
      <trkpt lat="49.83371" lon="2.29558">
        <ele>60.7</ele>
        <time>2023-04-05T13:44:13Z</time>
      </trkpt>
      <trkpt lat="49.83371" lon="2.29558">
        <ele>60.7</ele>
        <time>2023-04-05T13:44:15Z</time>
      </trkpt>
      <trkpt lat="49.83371" lon="2.29558">
        <ele>60.7</ele>
        <time>2023-04-05T13:44:16Z</time>
      </trkpt>
      <trkpt lat="49.83371" lon="2.29558">
        <ele>60.7</ele>
        <time>2023-04-05T13:44:18Z</time>
      </trkpt>
      <trkpt lat="49.83371" lon="2.29558">
        <ele>60.7</ele>
        <time>2023-04-05T13:44:19Z</time>
      </trkpt>
      <trkpt lat="49.83371" lon="2.29558">
        <ele>60.7</ele>
        <time>2023-04-05T13:44:20Z</time>
      </trkpt>
      <trkpt lat="49.83372" lon="2.29558">
        <ele>60.7</ele>
        <time>2023-04-05T13:44:21Z</time>
      </trkpt>
      <trkpt lat="49.83372" lon="2.29558">
        <ele>60.7</ele>
        <time>2023-04-05T13:44:22Z</time>
      </trkpt>
      <trkpt lat="49.83372" lon="2.29558">
        <ele>60.7</ele>
        <time>2023-04-05T13:44:23Z</time>
      </trkpt>
      <trkpt lat="49.83372" lon="2.29558">
        <ele>60.6</ele>
        <time>2023-04-05T13:44:24Z</time>
      </trkpt>
      <trkpt lat="49.83372" lon="2.29558">
        <ele>60.6</ele>
        <time>2023-04-05T13:44:25Z</time>
      </trkpt>
      <trkpt lat="49.83372" lon="2.29558">
        <ele>60.6</ele>
        <time>2023-04-05T13:44:26Z</time>
      </trkpt>
      <trkpt lat="49.83372" lon="2.29558">
        <ele>60.6</ele>
        <time>2023-04-05T13:44:27Z</time>
      </trkpt>
      <trkpt lat="49.83372" lon="2.29558">
        <ele>60.6</ele>
        <time>2023-04-05T13:44:28Z</time>
      </trkpt>
      <trkpt lat="49.83372" lon="2.29558">
        <ele>60.6</ele>
        <time>2023-04-05T13:44:29Z</time>
      </trkpt>
      <trkpt lat="49.83372" lon="2.29558">
        <ele>60.6</ele>
        <time>2023-04-05T13:44:30Z</time>
      </trkpt>
      <trkpt lat="49.83372" lon="2.29558">
        <ele>60.6</ele>
        <time>2023-04-05T13:44:31Z</time>
      </trkpt>
      <trkpt lat="49.83372" lon="2.29558">
        <ele>60.6</ele>
        <time>2023-04-05T13:44:32Z</time>
      </trkpt>
      <trkpt lat="49.83372" lon="2.29558">
        <ele>60.6</ele>
        <time>2023-04-05T13:44:33Z</time>
      </trkpt>
      <trkpt lat="49.83372" lon="2.29558">
        <ele>60.6</ele>
        <time>2023-04-05T13:44:34Z</time>
      </trkpt>
      <trkpt lat="49.83372" lon="2.29558">
        <ele>60.6</ele>
        <time>2023-04-05T13:44:35Z</time>
      </trkpt>
      <trkpt lat="49.83372" lon="2.29558">
        <ele>60.6</ele>
        <time>2023-04-05T13:44:36Z</time>
      </trkpt>
      <trkpt lat="49.83372" lon="2.29558">
        <ele>60.6</ele>
        <time>2023-04-05T13:44:37Z</time>
      </trkpt>
      <trkpt lat="49.83372" lon="2.29558">
        <ele>60.6</ele>
        <time>2023-04-05T13:44:38Z</time>
      </trkpt>
      <trkpt lat="49.83372" lon="2.29558">
        <ele>60.6</ele>
        <time>2023-04-05T13:44:39Z</time>
      </trkpt>
      <trkpt lat="49.83372" lon="2.29558">
        <ele>60.6</ele>
        <time>2023-04-05T13:44:40Z</time>
      </trkpt>
      <trkpt lat="49.83372" lon="2.29558">
        <ele>60.6</ele>
        <time>2023-04-05T13:44:41Z</time>
      </trkpt>
      <trkpt lat="49.83372" lon="2.29558">
        <ele>60.6</ele>
        <time>2023-04-05T13:44:42Z</time>
      </trkpt>
      <trkpt lat="49.83372" lon="2.29558">
        <ele>60.6</ele>
        <time>2023-04-05T13:44:43Z</time>
      </trkpt>
      <trkpt lat="49.83372" lon="2.29558">
        <ele>60.6</ele>
        <time>2023-04-05T13:44:44Z</time>
      </trkpt>
      <trkpt lat="49.83372" lon="2.29558">
        <ele>60.6</ele>
        <time>2023-04-05T13:44:45Z</time>
      </trkpt>
      <trkpt lat="49.83372" lon="2.29558">
        <ele>60.6</ele>
        <time>2023-04-05T13:44:46Z</time>
      </trkpt>
      <trkpt lat="49.83372" lon="2.29558">
        <ele>60.6</ele>
        <time>2023-04-05T13:44:47Z</time>
      </trkpt>
      <trkpt lat="49.83372" lon="2.29558">
        <ele>60.6</ele>
        <time>2023-04-05T13:44:48Z</time>
      </trkpt>
      <trkpt lat="49.83372" lon="2.29558">
        <ele>60.6</ele>
        <time>2023-04-05T13:44:49Z</time>
      </trkpt>
      <trkpt lat="49.83372" lon="2.29558">
        <ele>60.6</ele>
        <time>2023-04-05T13:44:50Z</time>
      </trkpt>
      <trkpt lat="49.83372" lon="2.29558">
        <ele>60.6</ele>
        <time>2023-04-05T13:44:51Z</time>
      </trkpt>
      <trkpt lat="49.83372" lon="2.29558">
        <ele>60.6</ele>
        <time>2023-04-05T13:44:52Z</time>
      </trkpt>
      <trkpt lat="49.83372" lon="2.29558">
        <ele>60.6</ele>
        <time>2023-04-05T13:44:53Z</time>
      </trkpt>
      <trkpt lat="49.83372" lon="2.29558">
        <ele>60.6</ele>
        <time>2023-04-05T13:44:54Z</time>
      </trkpt>
      <trkpt lat="49.83372" lon="2.29558">
        <ele>60.6</ele>
        <time>2023-04-05T13:44:55Z</time>
      </trkpt>
      <trkpt lat="49.83372" lon="2.29558">
        <ele>60.6</ele>
        <time>2023-04-05T13:44:56Z</time>
      </trkpt>
      <trkpt lat="49.83372" lon="2.29558">
        <ele>60.6</ele>
        <time>2023-04-05T13:44:57Z</time>
      </trkpt>
      <trkpt lat="49.83372" lon="2.29558">
        <ele>60.6</ele>
        <time>2023-04-05T13:44:58Z</time>
      </trkpt>
      <trkpt lat="49.83372" lon="2.29558">
        <ele>60.6</ele>
        <time>2023-04-05T13:44:59Z</time>
      </trkpt>
      <trkpt lat="49.83372" lon="2.29558">
        <ele>60.6</ele>
        <time>2023-04-05T13:45:00Z</time>
      </trkpt>
      <trkpt lat="49.83372" lon="2.29558">
        <ele>60.6</ele>
        <time>2023-04-05T13:45:01Z</time>
      </trkpt>
      <trkpt lat="49.83372" lon="2.29558">
        <ele>60.6</ele>
        <time>2023-04-05T13:45:02Z</time>
      </trkpt>
      <trkpt lat="49.83372" lon="2.29558">
        <ele>60.6</ele>
        <time>2023-04-05T13:45:03Z</time>
      </trkpt>
      <trkpt lat="49.83372" lon="2.29558">
        <ele>60.6</ele>
        <time>2023-04-05T13:45:04Z</time>
      </trkpt>
      <trkpt lat="49.83372" lon="2.29558">
        <ele>60.6</ele>
        <time>2023-04-05T13:45:05Z</time>
      </trkpt>
      <trkpt lat="49.83372" lon="2.29558">
        <ele>60.6</ele>
        <time>2023-04-05T13:45:06Z</time>
      </trkpt>
      <trkpt lat="49.83372" lon="2.29558">
        <ele>60.6</ele>
        <time>2023-04-05T13:45:07Z</time>
      </trkpt>
      <trkpt lat="49.83372" lon="2.29558">
        <ele>60.6</ele>
        <time>2023-04-05T13:45:08Z</time>
      </trkpt>
      <trkpt lat="49.83372" lon="2.29558">
        <ele>60.6</ele>
        <time>2023-04-05T13:45:09Z</time>
      </trkpt>
      <trkpt lat="49.83372" lon="2.29558">
        <ele>60.6</ele>
        <time>2023-04-05T13:45:10Z</time>
      </trkpt>
      <trkpt lat="49.83372" lon="2.29558">
        <ele>60.6</ele>
        <time>2023-04-05T13:45:11Z</time>
      </trkpt>
      <trkpt lat="49.83372" lon="2.29558">
        <ele>60.6</ele>
        <time>2023-04-05T13:45:12Z</time>
      </trkpt>
      <trkpt lat="49.83372" lon="2.29558">
        <ele>60.6</ele>
        <time>2023-04-05T13:45:13Z</time>
      </trkpt>
      <trkpt lat="49.83372" lon="2.29558">
        <ele>60.6</ele>
        <time>2023-04-05T13:45:14Z</time>
      </trkpt>
      <trkpt lat="49.83372" lon="2.29558">
        <ele>60.6</ele>
        <time>2023-04-05T13:45:15Z</time>
      </trkpt>
      <trkpt lat="49.83372" lon="2.29558">
        <ele>60.6</ele>
        <time>2023-04-05T13:45:16Z</time>
      </trkpt>
      <trkpt lat="49.83372" lon="2.29558">
        <ele>60.6</ele>
        <time>2023-04-05T13:45:17Z</time>
      </trkpt>
      <trkpt lat="49.83372" lon="2.29558">
        <ele>60.6</ele>
        <time>2023-04-05T13:45:18Z</time>
      </trkpt>
      <trkpt lat="49.83372" lon="2.29558">
        <ele>60.6</ele>
        <time>2023-04-05T13:45:19Z</time>
      </trkpt>
      <trkpt lat="49.83372" lon="2.29558">
        <ele>60.6</ele>
        <time>2023-04-05T13:45:20Z</time>
      </trkpt>
      <trkpt lat="49.83372" lon="2.29558">
        <ele>60.6</ele>
        <time>2023-04-05T13:45:21Z</time>
      </trkpt>
      <trkpt lat="49.83372" lon="2.29558">
        <ele>60.6</ele>
        <time>2023-04-05T13:45:22Z</time>
      </trkpt>
      <trkpt lat="49.83372" lon="2.29558">
        <ele>60.6</ele>
        <time>2023-04-05T13:45:23Z</time>
      </trkpt>
      <trkpt lat="49.83372" lon="2.29558">
        <ele>60.6</ele>
        <time>2023-04-05T13:45:24Z</time>
      </trkpt>
      <trkpt lat="49.83372" lon="2.29558">
        <ele>60.6</ele>
        <time>2023-04-05T13:45:25Z</time>
      </trkpt>
      <trkpt lat="49.83372" lon="2.29558">
        <ele>60.6</ele>
        <time>2023-04-05T13:45:26Z</time>
      </trkpt>
      <trkpt lat="49.83372" lon="2.29558">
        <ele>60.6</ele>
        <time>2023-04-05T13:45:27Z</time>
      </trkpt>
      <trkpt lat="49.83372" lon="2.29558">
        <ele>60.6</ele>
        <time>2023-04-05T13:45:28Z</time>
      </trkpt>
      <trkpt lat="49.83372" lon="2.29558">
        <ele>60.6</ele>
        <time>2023-04-05T13:45:29Z</time>
      </trkpt>
      <trkpt lat="49.83372" lon="2.29558">
        <ele>60.6</ele>
        <time>2023-04-05T13:45:30Z</time>
      </trkpt>
      <trkpt lat="49.83373" lon="2.29557">
        <ele>60.6</ele>
        <time>2023-04-05T13:45:31Z</time>
      </trkpt>
      <trkpt lat="49.83374" lon="2.29555">
        <ele>60.5</ele>
        <time>2023-04-05T13:45:32Z</time>
      </trkpt>
      <trkpt lat="49.83375" lon="2.29555">
        <ele>60.5</ele>
        <time>2023-04-05T13:45:33Z</time>
      </trkpt>
      <trkpt lat="49.83375" lon="2.29556">
        <ele>60.5</ele>
        <time>2023-04-05T13:45:34Z</time>
      </trkpt>
      <trkpt lat="49.83375" lon="2.29557">
        <ele>60.5</ele>
        <time>2023-04-05T13:45:35Z</time>
      </trkpt>
      <trkpt lat="49.83374" lon="2.29558">
        <ele>60.4</ele>
        <time>2023-04-05T13:45:36Z</time>
      </trkpt>
      <trkpt lat="49.83373" lon="2.29559">
        <ele>60.4</ele>
        <time>2023-04-05T13:45:37Z</time>
      </trkpt>
      <trkpt lat="49.83372" lon="2.2956">
        <ele>60.4</ele>
        <time>2023-04-05T13:45:38Z</time>
      </trkpt>
      <trkpt lat="49.83371" lon="2.29562">
        <ele>60.3</ele>
        <time>2023-04-05T13:45:40Z</time>
      </trkpt>
      <trkpt lat="49.8337" lon="2.29563">
        <ele>60.3</ele>
        <time>2023-04-05T13:45:41Z</time>
      </trkpt>
      <trkpt lat="49.83368" lon="2.29564">
        <ele>60.2</ele>
        <time>2023-04-05T13:45:42Z</time>
      </trkpt>
      <trkpt lat="49.83367" lon="2.29566">
        <ele>60.2</ele>
        <time>2023-04-05T13:45:43Z</time>
      </trkpt>
      <trkpt lat="49.83365" lon="2.29567">
        <ele>60.1</ele>
        <time>2023-04-05T13:45:44Z</time>
      </trkpt>
      <trkpt lat="49.83363" lon="2.29568">
        <ele>60.1</ele>
        <time>2023-04-05T13:45:45Z</time>
      </trkpt>
      <trkpt lat="49.83362" lon="2.29568">
        <ele>60.1</ele>
        <time>2023-04-05T13:45:47Z</time>
      </trkpt>
      <trkpt lat="49.83361" lon="2.29569">
        <ele>60</ele>
        <time>2023-04-05T13:45:48Z</time>
      </trkpt>
      <trkpt lat="49.8336" lon="2.2957">
        <ele>60</ele>
        <time>2023-04-05T13:45:49Z</time>
      </trkpt>
      <trkpt lat="49.83359" lon="2.29571">
        <ele>60</ele>
        <time>2023-04-05T13:45:50Z</time>
      </trkpt>
      <trkpt lat="49.83357" lon="2.29572">
        <ele>59.9</ele>
        <time>2023-04-05T13:45:51Z</time>
      </trkpt>
      <trkpt lat="49.83356" lon="2.29573">
        <ele>59.9</ele>
        <time>2023-04-05T13:45:52Z</time>
      </trkpt>
      <trkpt lat="49.83355" lon="2.29573">
        <ele>59.9</ele>
        <time>2023-04-05T13:45:53Z</time>
      </trkpt>
      <trkpt lat="49.83353" lon="2.29575">
        <ele>59.9</ele>
        <time>2023-04-05T13:45:55Z</time>
      </trkpt>
      <trkpt lat="49.83353" lon="2.29575">
        <ele>59.8</ele>
        <time>2023-04-05T13:45:56Z</time>
      </trkpt>
      <trkpt lat="49.83352" lon="2.29576">
        <ele>59.8</ele>
        <time>2023-04-05T13:45:57Z</time>
      </trkpt>
      <trkpt lat="49.8335" lon="2.29577">
        <ele>59.8</ele>
        <time>2023-04-05T13:45:58Z</time>
      </trkpt>
      <trkpt lat="49.83349" lon="2.29577">
        <ele>59.8</ele>
        <time>2023-04-05T13:45:59Z</time>
      </trkpt>
      <trkpt lat="49.83348" lon="2.29578">
        <ele>59.8</ele>
        <time>2023-04-05T13:46:00Z</time>
      </trkpt>
      <trkpt lat="49.83346" lon="2.29579">
        <ele>59.7</ele>
        <time>2023-04-05T13:46:02Z</time>
      </trkpt>
      <trkpt lat="49.83345" lon="2.29579">
        <ele>59.7</ele>
        <time>2023-04-05T13:46:03Z</time>
      </trkpt>
      <trkpt lat="49.83345" lon="2.2958">
        <ele>59.7</ele>
        <time>2023-04-05T13:46:04Z</time>
      </trkpt>
      <trkpt lat="49.83344" lon="2.29581">
        <ele>59.7</ele>
        <time>2023-04-05T13:46:05Z</time>
      </trkpt>
      <trkpt lat="49.83343" lon="2.29581">
        <ele>59.7</ele>
        <time>2023-04-05T13:46:06Z</time>
      </trkpt>
      <trkpt lat="49.83341" lon="2.29582">
        <ele>59.6</ele>
        <time>2023-04-05T13:46:08Z</time>
      </trkpt>
      <trkpt lat="49.8334" lon="2.29583">
        <ele>59.6</ele>
        <time>2023-04-05T13:46:09Z</time>
      </trkpt>
      <trkpt lat="49.83339" lon="2.29584">
        <ele>59.6</ele>
        <time>2023-04-05T13:46:10Z</time>
      </trkpt>
      <trkpt lat="49.83339" lon="2.29585">
        <ele>59.6</ele>
        <time>2023-04-05T13:46:11Z</time>
      </trkpt>
      <trkpt lat="49.83337" lon="2.29586">
        <ele>59.5</ele>
        <time>2023-04-05T13:46:12Z</time>
      </trkpt>
      <trkpt lat="49.83336" lon="2.29586">
        <ele>59.5</ele>
        <time>2023-04-05T13:46:13Z</time>
      </trkpt>
      <trkpt lat="49.83335" lon="2.29587">
        <ele>59.5</ele>
        <time>2023-04-05T13:46:15Z</time>
      </trkpt>
      <trkpt lat="49.83334" lon="2.29587">
        <ele>59.5</ele>
        <time>2023-04-05T13:46:16Z</time>
      </trkpt>
      <trkpt lat="49.83333" lon="2.29588">
        <ele>59.5</ele>
        <time>2023-04-05T13:46:17Z</time>
      </trkpt>
      <trkpt lat="49.83332" lon="2.29588">
        <ele>59.5</ele>
        <time>2023-04-05T13:46:18Z</time>
      </trkpt>
      <trkpt lat="49.83331" lon="2.29589">
        <ele>59.4</ele>
        <time>2023-04-05T13:46:19Z</time>
      </trkpt>
      <trkpt lat="49.8333" lon="2.29589">
        <ele>59.4</ele>
        <time>2023-04-05T13:46:20Z</time>
      </trkpt>
      <trkpt lat="49.83329" lon="2.2959">
        <ele>59.4</ele>
        <time>2023-04-05T13:46:21Z</time>
      </trkpt>
      <trkpt lat="49.83328" lon="2.29591">
        <ele>59.4</ele>
        <time>2023-04-05T13:46:22Z</time>
      </trkpt>
      <trkpt lat="49.83326" lon="2.29592">
        <ele>59.4</ele>
        <time>2023-04-05T13:46:24Z</time>
      </trkpt>
      <trkpt lat="49.83326" lon="2.29593">
        <ele>59.3</ele>
        <time>2023-04-05T13:46:25Z</time>
      </trkpt>
      <trkpt lat="49.83325" lon="2.29594">
        <ele>59.3</ele>
        <time>2023-04-05T13:46:26Z</time>
      </trkpt>
      <trkpt lat="49.83324" lon="2.29595">
        <ele>59.3</ele>
        <time>2023-04-05T13:46:27Z</time>
      </trkpt>
      <trkpt lat="49.83323" lon="2.29595">
        <ele>59.3</ele>
        <time>2023-04-05T13:46:28Z</time>
      </trkpt>
      <trkpt lat="49.83322" lon="2.29596">
        <ele>59.3</ele>
        <time>2023-04-05T13:46:29Z</time>
      </trkpt>
      <trkpt lat="49.83321" lon="2.29597">
        <ele>59.3</ele>
        <time>2023-04-05T13:46:30Z</time>
      </trkpt>
      <trkpt lat="49.8332" lon="2.29598">
        <ele>59.2</ele>
        <time>2023-04-05T13:46:31Z</time>
      </trkpt>
      <trkpt lat="49.83319" lon="2.29599">
        <ele>59.2</ele>
        <time>2023-04-05T13:46:33Z</time>
      </trkpt>
      <trkpt lat="49.83318" lon="2.29599">
        <ele>59.2</ele>
        <time>2023-04-05T13:46:34Z</time>
      </trkpt>
      <trkpt lat="49.83316" lon="2.296">
        <ele>59.2</ele>
        <time>2023-04-05T13:46:35Z</time>
      </trkpt>
      <trkpt lat="49.83315" lon="2.296">
        <ele>59.2</ele>
        <time>2023-04-05T13:46:36Z</time>
      </trkpt>
      <trkpt lat="49.83314" lon="2.29601">
        <ele>59.2</ele>
        <time>2023-04-05T13:46:38Z</time>
      </trkpt>
      <trkpt lat="49.83313" lon="2.29601">
        <ele>59.2</ele>
        <time>2023-04-05T13:46:39Z</time>
      </trkpt>
      <trkpt lat="49.83312" lon="2.29602">
        <ele>59.2</ele>
        <time>2023-04-05T13:46:40Z</time>
      </trkpt>
      <trkpt lat="49.83311" lon="2.29603">
        <ele>59.1</ele>
        <time>2023-04-05T13:46:41Z</time>
      </trkpt>
      <trkpt lat="49.8331" lon="2.29603">
        <ele>59.1</ele>
        <time>2023-04-05T13:46:42Z</time>
      </trkpt>
      <trkpt lat="49.83309" lon="2.29605">
        <ele>59.1</ele>
        <time>2023-04-05T13:46:44Z</time>
      </trkpt>
      <trkpt lat="49.83308" lon="2.29605">
        <ele>59.1</ele>
        <time>2023-04-05T13:46:45Z</time>
      </trkpt>
      <trkpt lat="49.83306" lon="2.29607">
        <ele>59.1</ele>
        <time>2023-04-05T13:46:46Z</time>
      </trkpt>
      <trkpt lat="49.83305" lon="2.29608">
        <ele>59.1</ele>
        <time>2023-04-05T13:46:47Z</time>
      </trkpt>
      <trkpt lat="49.83304" lon="2.29609">
        <ele>59.1</ele>
        <time>2023-04-05T13:46:48Z</time>
      </trkpt>
      <trkpt lat="49.83303" lon="2.2961">
        <ele>59</ele>
        <time>2023-04-05T13:46:50Z</time>
      </trkpt>
      <trkpt lat="49.83302" lon="2.2961">
        <ele>59</ele>
        <time>2023-04-05T13:46:51Z</time>
      </trkpt>
      <trkpt lat="49.83301" lon="2.29611">
        <ele>59</ele>
        <time>2023-04-05T13:46:52Z</time>
      </trkpt>
      <trkpt lat="49.833" lon="2.29612">
        <ele>59</ele>
        <time>2023-04-05T13:46:53Z</time>
      </trkpt>
      <trkpt lat="49.83299" lon="2.29613">
        <ele>59</ele>
        <time>2023-04-05T13:46:54Z</time>
      </trkpt>
      <trkpt lat="49.83298" lon="2.29613">
        <ele>59</ele>
        <time>2023-04-05T13:46:55Z</time>
      </trkpt>
      <trkpt lat="49.83297" lon="2.29614">
        <ele>59</ele>
        <time>2023-04-05T13:46:56Z</time>
      </trkpt>
      <trkpt lat="49.83296" lon="2.29615">
        <ele>59</ele>
        <time>2023-04-05T13:46:57Z</time>
      </trkpt>
      <trkpt lat="49.83293" lon="2.29616">
        <ele>58.9</ele>
        <time>2023-04-05T13:46:59Z</time>
      </trkpt>
      <trkpt lat="49.83292" lon="2.29617">
        <ele>58.9</ele>
        <time>2023-04-05T13:47:00Z</time>
      </trkpt>
      <trkpt lat="49.83291" lon="2.29617">
        <ele>58.9</ele>
        <time>2023-04-05T13:47:02Z</time>
      </trkpt>
      <trkpt lat="49.8329" lon="2.29618">
        <ele>58.9</ele>
        <time>2023-04-05T13:47:03Z</time>
      </trkpt>
      <trkpt lat="49.83289" lon="2.29619">
        <ele>58.9</ele>
        <time>2023-04-05T13:47:04Z</time>
      </trkpt>
      <trkpt lat="49.83287" lon="2.2962">
        <ele>58.9</ele>
        <time>2023-04-05T13:47:05Z</time>
      </trkpt>
      <trkpt lat="49.83286" lon="2.29621">
        <ele>58.9</ele>
        <time>2023-04-05T13:47:07Z</time>
      </trkpt>
      <trkpt lat="49.83286" lon="2.29622">
        <ele>58.9</ele>
        <time>2023-04-05T13:47:08Z</time>
      </trkpt>
      <trkpt lat="49.83285" lon="2.29623">
        <ele>58.9</ele>
        <time>2023-04-05T13:47:09Z</time>
      </trkpt>
      <trkpt lat="49.83283" lon="2.29624">
        <ele>58.8</ele>
        <time>2023-04-05T13:47:10Z</time>
      </trkpt>
      <trkpt lat="49.83282" lon="2.29625">
        <ele>58.8</ele>
        <time>2023-04-05T13:47:11Z</time>
      </trkpt>
      <trkpt lat="49.8328" lon="2.29626">
        <ele>58.8</ele>
        <time>2023-04-05T13:47:12Z</time>
      </trkpt>
      <trkpt lat="49.83279" lon="2.29627">
        <ele>58.8</ele>
        <time>2023-04-05T13:47:13Z</time>
      </trkpt>
      <trkpt lat="49.83278" lon="2.29627">
        <ele>58.8</ele>
        <time>2023-04-05T13:47:14Z</time>
      </trkpt>
      <trkpt lat="49.83278" lon="2.29628">
        <ele>58.8</ele>
        <time>2023-04-05T13:47:15Z</time>
      </trkpt>
      <trkpt lat="49.83276" lon="2.29628">
        <ele>58.8</ele>
        <time>2023-04-05T13:47:16Z</time>
      </trkpt>
      <trkpt lat="49.83275" lon="2.29629">
        <ele>58.8</ele>
        <time>2023-04-05T13:47:17Z</time>
      </trkpt>
      <trkpt lat="49.83274" lon="2.2963">
        <ele>58.8</ele>
        <time>2023-04-05T13:47:19Z</time>
      </trkpt>
      <trkpt lat="49.83272" lon="2.29631">
        <ele>58.8</ele>
        <time>2023-04-05T13:47:20Z</time>
      </trkpt>
      <trkpt lat="49.83271" lon="2.29632">
        <ele>58.7</ele>
        <time>2023-04-05T13:47:21Z</time>
      </trkpt>
      <trkpt lat="49.8327" lon="2.29633">
        <ele>58.7</ele>
        <time>2023-04-05T13:47:22Z</time>
      </trkpt>
      <trkpt lat="49.83269" lon="2.29634">
        <ele>58.7</ele>
        <time>2023-04-05T13:47:23Z</time>
      </trkpt>
      <trkpt lat="49.83267" lon="2.29635">
        <ele>58.7</ele>
        <time>2023-04-05T13:47:24Z</time>
      </trkpt>
      <trkpt lat="49.83266" lon="2.29635">
        <ele>58.7</ele>
        <time>2023-04-05T13:47:25Z</time>
      </trkpt>
      <trkpt lat="49.83265" lon="2.29635">
        <ele>58.7</ele>
        <time>2023-04-05T13:47:27Z</time>
      </trkpt>
      <trkpt lat="49.83264" lon="2.29636">
        <ele>58.7</ele>
        <time>2023-04-05T13:47:28Z</time>
      </trkpt>
      <trkpt lat="49.83263" lon="2.29636">
        <ele>58.7</ele>
        <time>2023-04-05T13:47:29Z</time>
      </trkpt>
      <trkpt lat="49.83262" lon="2.29637">
        <ele>58.7</ele>
        <time>2023-04-05T13:47:30Z</time>
      </trkpt>
      <trkpt lat="49.8326" lon="2.29637">
        <ele>58.7</ele>
        <time>2023-04-05T13:47:32Z</time>
      </trkpt>
      <trkpt lat="49.8326" lon="2.29637">
        <ele>58.7</ele>
        <time>2023-04-05T13:47:33Z</time>
      </trkpt>
      <trkpt lat="49.83259" lon="2.29638">
        <ele>58.7</ele>
        <time>2023-04-05T13:47:34Z</time>
      </trkpt>
      <trkpt lat="49.83257" lon="2.29639">
        <ele>58.7</ele>
        <time>2023-04-05T13:47:35Z</time>
      </trkpt>
      <trkpt lat="49.83256" lon="2.2964">
        <ele>58.6</ele>
        <time>2023-04-05T13:47:36Z</time>
      </trkpt>
      <trkpt lat="49.83255" lon="2.29641">
        <ele>58.6</ele>
        <time>2023-04-05T13:47:37Z</time>
      </trkpt>
      <trkpt lat="49.83254" lon="2.29641">
        <ele>58.6</ele>
        <time>2023-04-05T13:47:38Z</time>
      </trkpt>
      <trkpt lat="49.83252" lon="2.29642">
        <ele>58.6</ele>
        <time>2023-04-05T13:47:39Z</time>
      </trkpt>
      <trkpt lat="49.83251" lon="2.29644">
        <ele>58.6</ele>
        <time>2023-04-05T13:47:41Z</time>
      </trkpt>
      <trkpt lat="49.8325" lon="2.29645">
        <ele>58.6</ele>
        <time>2023-04-05T13:47:43Z</time>
      </trkpt>
      <trkpt lat="49.83249" lon="2.29645">
        <ele>58.6</ele>
        <time>2023-04-05T13:47:44Z</time>
      </trkpt>
      <trkpt lat="49.83248" lon="2.29645">
        <ele>58.6</ele>
        <time>2023-04-05T13:47:45Z</time>
      </trkpt>
      <trkpt lat="49.83247" lon="2.29646">
        <ele>58.6</ele>
        <time>2023-04-05T13:47:46Z</time>
      </trkpt>
      <trkpt lat="49.83246" lon="2.29646">
        <ele>58.6</ele>
        <time>2023-04-05T13:47:47Z</time>
      </trkpt>
      <trkpt lat="49.83245" lon="2.29647">
        <ele>58.6</ele>
        <time>2023-04-05T13:47:48Z</time>
      </trkpt>
      <trkpt lat="49.83243" lon="2.29647">
        <ele>58.6</ele>
        <time>2023-04-05T13:47:49Z</time>
      </trkpt>
      <trkpt lat="49.83242" lon="2.29648">
        <ele>58.6</ele>
        <time>2023-04-05T13:47:50Z</time>
      </trkpt>
      <trkpt lat="49.83241" lon="2.29648">
        <ele>58.6</ele>
        <time>2023-04-05T13:47:51Z</time>
      </trkpt>
      <trkpt lat="49.8324" lon="2.29649">
        <ele>58.6</ele>
        <time>2023-04-05T13:47:53Z</time>
      </trkpt>
      <trkpt lat="49.83239" lon="2.2965">
        <ele>58.5</ele>
        <time>2023-04-05T13:47:54Z</time>
      </trkpt>
      <trkpt lat="49.83238" lon="2.29651">
        <ele>58.5</ele>
        <time>2023-04-05T13:47:55Z</time>
      </trkpt>
      <trkpt lat="49.83236" lon="2.29652">
        <ele>58.5</ele>
        <time>2023-04-05T13:47:56Z</time>
      </trkpt>
      <trkpt lat="49.83235" lon="2.29652">
        <ele>58.5</ele>
        <time>2023-04-05T13:47:57Z</time>
      </trkpt>
      <trkpt lat="49.83234" lon="2.29653">
        <ele>58.5</ele>
        <time>2023-04-05T13:47:58Z</time>
      </trkpt>
      <trkpt lat="49.83232" lon="2.29654">
        <ele>58.5</ele>
        <time>2023-04-05T13:47:59Z</time>
      </trkpt>
      <trkpt lat="49.83231" lon="2.29654">
        <ele>58.5</ele>
        <time>2023-04-05T13:48:01Z</time>
      </trkpt>
      <trkpt lat="49.8323" lon="2.29655">
        <ele>58.5</ele>
        <time>2023-04-05T13:48:02Z</time>
      </trkpt>
      <trkpt lat="49.83229" lon="2.29655">
        <ele>58.5</ele>
        <time>2023-04-05T13:48:03Z</time>
      </trkpt>
      <trkpt lat="49.83228" lon="2.29655">
        <ele>58.5</ele>
        <time>2023-04-05T13:48:04Z</time>
      </trkpt>
      <trkpt lat="49.83226" lon="2.29656">
        <ele>58.5</ele>
        <time>2023-04-05T13:48:05Z</time>
      </trkpt>
      <trkpt lat="49.83225" lon="2.29656">
        <ele>58.5</ele>
        <time>2023-04-05T13:48:06Z</time>
      </trkpt>
      <trkpt lat="49.83225" lon="2.29657">
        <ele>58.5</ele>
        <time>2023-04-05T13:48:07Z</time>
      </trkpt>
      <trkpt lat="49.83222" lon="2.29657">
        <ele>58.5</ele>
        <time>2023-04-05T13:48:09Z</time>
      </trkpt>
      <trkpt lat="49.83221" lon="2.29658">
        <ele>58.4</ele>
        <time>2023-04-05T13:48:11Z</time>
      </trkpt>
      <trkpt lat="49.8322" lon="2.29658">
        <ele>58.4</ele>
        <time>2023-04-05T13:48:12Z</time>
      </trkpt>
      <trkpt lat="49.83218" lon="2.29659">
        <ele>58.4</ele>
        <time>2023-04-05T13:48:13Z</time>
      </trkpt>
      <trkpt lat="49.83217" lon="2.29659">
        <ele>58.4</ele>
        <time>2023-04-05T13:48:14Z</time>
      </trkpt>
      <trkpt lat="49.83215" lon="2.2966">
        <ele>58.4</ele>
        <time>2023-04-05T13:48:15Z</time>
      </trkpt>
      <trkpt lat="49.83213" lon="2.29661">
        <ele>58.4</ele>
        <time>2023-04-05T13:48:16Z</time>
      </trkpt>
      <trkpt lat="49.83212" lon="2.29662">
        <ele>58.4</ele>
        <time>2023-04-05T13:48:17Z</time>
      </trkpt>
      <trkpt lat="49.83211" lon="2.29662">
        <ele>58.4</ele>
        <time>2023-04-05T13:48:19Z</time>
      </trkpt>
      <trkpt lat="49.8321" lon="2.29662">
        <ele>58.4</ele>
        <time>2023-04-05T13:48:20Z</time>
      </trkpt>
      <trkpt lat="49.83209" lon="2.29663">
        <ele>58.4</ele>
        <time>2023-04-05T13:48:21Z</time>
      </trkpt>
      <trkpt lat="49.83208" lon="2.29663">
        <ele>58.3</ele>
        <time>2023-04-05T13:48:22Z</time>
      </trkpt>
      <trkpt lat="49.83207" lon="2.29664">
        <ele>58.3</ele>
        <time>2023-04-05T13:48:23Z</time>
      </trkpt>
      <trkpt lat="49.83205" lon="2.29664">
        <ele>58.3</ele>
        <time>2023-04-05T13:48:25Z</time>
      </trkpt>
      <trkpt lat="49.83204" lon="2.29664">
        <ele>58.3</ele>
        <time>2023-04-05T13:48:26Z</time>
      </trkpt>
      <trkpt lat="49.83203" lon="2.29664">
        <ele>58.3</ele>
        <time>2023-04-05T13:48:27Z</time>
      </trkpt>
      <trkpt lat="49.83202" lon="2.29665">
        <ele>58.3</ele>
        <time>2023-04-05T13:48:28Z</time>
      </trkpt>
      <trkpt lat="49.832" lon="2.29665">
        <ele>58.3</ele>
        <time>2023-04-05T13:48:29Z</time>
      </trkpt>
      <trkpt lat="49.83199" lon="2.29665">
        <ele>58.3</ele>
        <time>2023-04-05T13:48:30Z</time>
      </trkpt>
      <trkpt lat="49.83198" lon="2.29665">
        <ele>58.3</ele>
        <time>2023-04-05T13:48:31Z</time>
      </trkpt>
      <trkpt lat="49.83197" lon="2.29665">
        <ele>58.2</ele>
        <time>2023-04-05T13:48:32Z</time>
      </trkpt>
      <trkpt lat="49.83196" lon="2.29666">
        <ele>58.2</ele>
        <time>2023-04-05T13:48:33Z</time>
      </trkpt>
      <trkpt lat="49.83194" lon="2.29666">
        <ele>58.2</ele>
        <time>2023-04-05T13:48:35Z</time>
      </trkpt>
      <trkpt lat="49.83193" lon="2.29667">
        <ele>58.2</ele>
        <time>2023-04-05T13:48:36Z</time>
      </trkpt>
      <trkpt lat="49.83192" lon="2.29667">
        <ele>58.2</ele>
        <time>2023-04-05T13:48:37Z</time>
      </trkpt>
      <trkpt lat="49.8319" lon="2.29668">
        <ele>58.2</ele>
        <time>2023-04-05T13:48:38Z</time>
      </trkpt>
      <trkpt lat="49.8319" lon="2.29667">
        <ele>58.2</ele>
        <time>2023-04-05T13:48:39Z</time>
      </trkpt>
      <trkpt lat="49.83188" lon="2.29668">
        <ele>58.2</ele>
        <time>2023-04-05T13:48:41Z</time>
      </trkpt>
      <trkpt lat="49.83187" lon="2.29667">
        <ele>58.2</ele>
        <time>2023-04-05T13:48:42Z</time>
      </trkpt>
      <trkpt lat="49.83185" lon="2.29667">
        <ele>58.1</ele>
        <time>2023-04-05T13:48:43Z</time>
      </trkpt>
      <trkpt lat="49.83184" lon="2.29668">
        <ele>58.1</ele>
        <time>2023-04-05T13:48:44Z</time>
      </trkpt>
      <trkpt lat="49.83183" lon="2.29668">
        <ele>58.1</ele>
        <time>2023-04-05T13:48:45Z</time>
      </trkpt>
      <trkpt lat="49.83181" lon="2.29668">
        <ele>58.1</ele>
        <time>2023-04-05T13:48:46Z</time>
      </trkpt>
      <trkpt lat="49.8318" lon="2.29668">
        <ele>58.1</ele>
        <time>2023-04-05T13:48:48Z</time>
      </trkpt>
      <trkpt lat="49.83179" lon="2.29669">
        <ele>58.1</ele>
        <time>2023-04-05T13:48:49Z</time>
      </trkpt>
      <trkpt lat="49.83178" lon="2.29669">
        <ele>58.1</ele>
        <time>2023-04-05T13:48:50Z</time>
      </trkpt>
      <trkpt lat="49.83176" lon="2.29669">
        <ele>58.1</ele>
        <time>2023-04-05T13:48:51Z</time>
      </trkpt>
      <trkpt lat="49.83175" lon="2.29669">
        <ele>58.1</ele>
        <time>2023-04-05T13:48:52Z</time>
      </trkpt>
      <trkpt lat="49.83174" lon="2.2967">
        <ele>58.1</ele>
        <time>2023-04-05T13:48:53Z</time>
      </trkpt>
      <trkpt lat="49.83173" lon="2.2967">
        <ele>58.1</ele>
        <time>2023-04-05T13:48:54Z</time>
      </trkpt>
      <trkpt lat="49.83172" lon="2.29671">
        <ele>58.1</ele>
        <time>2023-04-05T13:48:56Z</time>
      </trkpt>
      <trkpt lat="49.83171" lon="2.29671">
        <ele>58.1</ele>
        <time>2023-04-05T13:48:57Z</time>
      </trkpt>
      <trkpt lat="49.8317" lon="2.29672">
        <ele>58.1</ele>
        <time>2023-04-05T13:48:58Z</time>
      </trkpt>
      <trkpt lat="49.83169" lon="2.29672">
        <ele>58</ele>
        <time>2023-04-05T13:48:59Z</time>
      </trkpt>
      <trkpt lat="49.83167" lon="2.29673">
        <ele>58</ele>
        <time>2023-04-05T13:49:00Z</time>
      </trkpt>
      <trkpt lat="49.83167" lon="2.29673">
        <ele>58</ele>
        <time>2023-04-05T13:49:01Z</time>
      </trkpt>
      <trkpt lat="49.83165" lon="2.29674">
        <ele>58</ele>
        <time>2023-04-05T13:49:02Z</time>
      </trkpt>
      <trkpt lat="49.83164" lon="2.29674">
        <ele>58</ele>
        <time>2023-04-05T13:49:03Z</time>
      </trkpt>
      <trkpt lat="49.83163" lon="2.29675">
        <ele>58</ele>
        <time>2023-04-05T13:49:05Z</time>
      </trkpt>
      <trkpt lat="49.83162" lon="2.29676">
        <ele>58</ele>
        <time>2023-04-05T13:49:06Z</time>
      </trkpt>
      <trkpt lat="49.83161" lon="2.29676">
        <ele>58</ele>
        <time>2023-04-05T13:49:07Z</time>
      </trkpt>
      <trkpt lat="49.8316" lon="2.29676">
        <ele>58</ele>
        <time>2023-04-05T13:49:08Z</time>
      </trkpt>
      <trkpt lat="49.83158" lon="2.29677">
        <ele>58</ele>
        <time>2023-04-05T13:49:09Z</time>
      </trkpt>
      <trkpt lat="49.83157" lon="2.29677">
        <ele>58</ele>
        <time>2023-04-05T13:49:11Z</time>
      </trkpt>
      <trkpt lat="49.83156" lon="2.29677">
        <ele>58</ele>
        <time>2023-04-05T13:49:12Z</time>
      </trkpt>
      <trkpt lat="49.83155" lon="2.29677">
        <ele>58</ele>
        <time>2023-04-05T13:49:13Z</time>
      </trkpt>
      <trkpt lat="49.83154" lon="2.29677">
        <ele>58</ele>
        <time>2023-04-05T13:49:14Z</time>
      </trkpt>
      <trkpt lat="49.83153" lon="2.29677">
        <ele>58</ele>
        <time>2023-04-05T13:49:15Z</time>
      </trkpt>
      <trkpt lat="49.83151" lon="2.29677">
        <ele>58</ele>
        <time>2023-04-05T13:49:16Z</time>
      </trkpt>
      <trkpt lat="49.83151" lon="2.29677">
        <ele>58</ele>
        <time>2023-04-05T13:49:18Z</time>
      </trkpt>
      <trkpt lat="49.8315" lon="2.29677">
        <ele>58</ele>
        <time>2023-04-05T13:49:19Z</time>
      </trkpt>
      <trkpt lat="49.83149" lon="2.29677">
        <ele>58</ele>
        <time>2023-04-05T13:49:20Z</time>
      </trkpt>
      <trkpt lat="49.83149" lon="2.29677">
        <ele>58</ele>
        <time>2023-04-05T13:49:21Z</time>
      </trkpt>
      <trkpt lat="49.83148" lon="2.29678">
        <ele>58</ele>
        <time>2023-04-05T13:49:22Z</time>
      </trkpt>
      <trkpt lat="49.83147" lon="2.29679">
        <ele>58</ele>
        <time>2023-04-05T13:49:23Z</time>
      </trkpt>
      <trkpt lat="49.83147" lon="2.29679">
        <ele>58</ele>
        <time>2023-04-05T13:49:24Z</time>
      </trkpt>
      <trkpt lat="49.83145" lon="2.2968">
        <ele>58</ele>
        <time>2023-04-05T13:49:26Z</time>
      </trkpt>
      <trkpt lat="49.83145" lon="2.29681">
        <ele>58</ele>
        <time>2023-04-05T13:49:27Z</time>
      </trkpt>
      <trkpt lat="49.83144" lon="2.29681">
        <ele>58</ele>
        <time>2023-04-05T13:49:28Z</time>
      </trkpt>
      <trkpt lat="49.83144" lon="2.29682">
        <ele>58</ele>
        <time>2023-04-05T13:49:29Z</time>
      </trkpt>
      <trkpt lat="49.83143" lon="2.29682">
        <ele>58</ele>
        <time>2023-04-05T13:49:31Z</time>
      </trkpt>
      <trkpt lat="49.83142" lon="2.29681">
        <ele>58</ele>
        <time>2023-04-05T13:49:32Z</time>
      </trkpt>
      <trkpt lat="49.83142" lon="2.2968">
        <ele>58</ele>
        <time>2023-04-05T13:49:33Z</time>
      </trkpt>
      <trkpt lat="49.83141" lon="2.2968">
        <ele>58</ele>
        <time>2023-04-05T13:49:34Z</time>
      </trkpt>
      <trkpt lat="49.83139" lon="2.29679">
        <ele>58</ele>
        <time>2023-04-05T13:49:35Z</time>
      </trkpt>
      <trkpt lat="49.83139" lon="2.29679">
        <ele>58</ele>
        <time>2023-04-05T13:49:36Z</time>
      </trkpt>
      <trkpt lat="49.83138" lon="2.29679">
        <ele>58</ele>
        <time>2023-04-05T13:49:38Z</time>
      </trkpt>
      <trkpt lat="49.83137" lon="2.29679">
        <ele>58</ele>
        <time>2023-04-05T13:49:39Z</time>
      </trkpt>
      <trkpt lat="49.83136" lon="2.2968">
        <ele>58</ele>
        <time>2023-04-05T13:49:40Z</time>
      </trkpt>
      <trkpt lat="49.83135" lon="2.2968">
        <ele>58</ele>
        <time>2023-04-05T13:49:41Z</time>
      </trkpt>
      <trkpt lat="49.83134" lon="2.29681">
        <ele>58</ele>
        <time>2023-04-05T13:49:42Z</time>
      </trkpt>
      <trkpt lat="49.83134" lon="2.29682">
        <ele>58</ele>
        <time>2023-04-05T13:49:43Z</time>
      </trkpt>
      <trkpt lat="49.83133" lon="2.29683">
        <ele>58</ele>
        <time>2023-04-05T13:49:44Z</time>
      </trkpt>
      <trkpt lat="49.83132" lon="2.29684">
        <ele>58</ele>
        <time>2023-04-05T13:49:46Z</time>
      </trkpt>
      <trkpt lat="49.83131" lon="2.29685">
        <ele>58</ele>
        <time>2023-04-05T13:49:47Z</time>
      </trkpt>
      <trkpt lat="49.83131" lon="2.29686">
        <ele>58</ele>
        <time>2023-04-05T13:49:48Z</time>
      </trkpt>
      <trkpt lat="49.8313" lon="2.29687">
        <ele>58</ele>
        <time>2023-04-05T13:49:49Z</time>
      </trkpt>
      <trkpt lat="49.83128" lon="2.29688">
        <ele>58</ele>
        <time>2023-04-05T13:49:50Z</time>
      </trkpt>
      <trkpt lat="49.83127" lon="2.29688">
        <ele>58</ele>
        <time>2023-04-05T13:49:51Z</time>
      </trkpt>
      <trkpt lat="49.83126" lon="2.29689">
        <ele>58</ele>
        <time>2023-04-05T13:49:52Z</time>
      </trkpt>
      <trkpt lat="49.83125" lon="2.29689">
        <ele>58</ele>
        <time>2023-04-05T13:49:53Z</time>
      </trkpt>
      <trkpt lat="49.83124" lon="2.2969">
        <ele>58</ele>
        <time>2023-04-05T13:49:54Z</time>
      </trkpt>
      <trkpt lat="49.83122" lon="2.2969">
        <ele>58</ele>
        <time>2023-04-05T13:49:56Z</time>
      </trkpt>
      <trkpt lat="49.8312" lon="2.29689">
        <ele>58</ele>
        <time>2023-04-05T13:49:57Z</time>
      </trkpt>
      <trkpt lat="49.8312" lon="2.29689">
        <ele>58</ele>
        <time>2023-04-05T13:49:58Z</time>
      </trkpt>
      <trkpt lat="49.83119" lon="2.29689">
        <ele>58</ele>
        <time>2023-04-05T13:49:59Z</time>
      </trkpt>
      <trkpt lat="49.83117" lon="2.2969">
        <ele>58</ele>
        <time>2023-04-05T13:50:00Z</time>
      </trkpt>
      <trkpt lat="49.83116" lon="2.2969">
        <ele>58</ele>
        <time>2023-04-05T13:50:01Z</time>
      </trkpt>
      <trkpt lat="49.83115" lon="2.2969">
        <ele>58</ele>
        <time>2023-04-05T13:50:03Z</time>
      </trkpt>
      <trkpt lat="49.83114" lon="2.29691">
        <ele>58.1</ele>
        <time>2023-04-05T13:50:04Z</time>
      </trkpt>
      <trkpt lat="49.83112" lon="2.29692">
        <ele>58.1</ele>
        <time>2023-04-05T13:50:05Z</time>
      </trkpt>
      <trkpt lat="49.83112" lon="2.29692">
        <ele>58.1</ele>
        <time>2023-04-05T13:50:06Z</time>
      </trkpt>
      <trkpt lat="49.83111" lon="2.29691">
        <ele>58.1</ele>
        <time>2023-04-05T13:50:08Z</time>
      </trkpt>
      <trkpt lat="49.8311" lon="2.29691">
        <ele>58.1</ele>
        <time>2023-04-05T13:50:09Z</time>
      </trkpt>
      <trkpt lat="49.83109" lon="2.2969">
        <ele>58.1</ele>
        <time>2023-04-05T13:50:10Z</time>
      </trkpt>
      <trkpt lat="49.83108" lon="2.29691">
        <ele>58.1</ele>
        <time>2023-04-05T13:50:11Z</time>
      </trkpt>
      <trkpt lat="49.83107" lon="2.29691">
        <ele>58.1</ele>
        <time>2023-04-05T13:50:12Z</time>
      </trkpt>
      <trkpt lat="49.83106" lon="2.29691">
        <ele>58.1</ele>
        <time>2023-04-05T13:50:14Z</time>
      </trkpt>
      <trkpt lat="49.83105" lon="2.29691">
        <ele>58.1</ele>
        <time>2023-04-05T13:50:15Z</time>
      </trkpt>
      <trkpt lat="49.83105" lon="2.2969">
        <ele>58.1</ele>
        <time>2023-04-05T13:50:16Z</time>
      </trkpt>
      <trkpt lat="49.83104" lon="2.29689">
        <ele>58.1</ele>
        <time>2023-04-05T13:50:17Z</time>
      </trkpt>
      <trkpt lat="49.83103" lon="2.29688">
        <ele>58.1</ele>
        <time>2023-04-05T13:50:19Z</time>
      </trkpt>
      <trkpt lat="49.83103" lon="2.29689">
        <ele>58.1</ele>
        <time>2023-04-05T13:50:20Z</time>
      </trkpt>
      <trkpt lat="49.83104" lon="2.2969">
        <ele>58.1</ele>
        <time>2023-04-05T13:50:22Z</time>
      </trkpt>
      <trkpt lat="49.83105" lon="2.29689">
        <ele>58.1</ele>
        <time>2023-04-05T13:50:23Z</time>
      </trkpt>
      <trkpt lat="49.83106" lon="2.29689">
        <ele>58.1</ele>
        <time>2023-04-05T13:50:25Z</time>
      </trkpt>
      <trkpt lat="49.83107" lon="2.29689">
        <ele>58.1</ele>
        <time>2023-04-05T13:50:26Z</time>
      </trkpt>
      <trkpt lat="49.83107" lon="2.29689">
        <ele>58.1</ele>
        <time>2023-04-05T13:50:28Z</time>
      </trkpt>
      <trkpt lat="49.83107" lon="2.29689">
        <ele>58.1</ele>
        <time>2023-04-05T13:50:29Z</time>
      </trkpt>
      <trkpt lat="49.83108" lon="2.29689">
        <ele>58.1</ele>
        <time>2023-04-05T13:50:30Z</time>
      </trkpt>
      <trkpt lat="49.83108" lon="2.29689">
        <ele>58.1</ele>
        <time>2023-04-05T13:50:32Z</time>
      </trkpt>
      <trkpt lat="49.83108" lon="2.29689">
        <ele>58.1</ele>
        <time>2023-04-05T13:50:34Z</time>
      </trkpt>
      <trkpt lat="49.83108" lon="2.29689">
        <ele>58.1</ele>
        <time>2023-04-05T13:50:35Z</time>
      </trkpt>
      <trkpt lat="49.83108" lon="2.29689">
        <ele>58.1</ele>
        <time>2023-04-05T13:50:36Z</time>
      </trkpt>
      <trkpt lat="49.83108" lon="2.29689">
        <ele>58.1</ele>
        <time>2023-04-05T13:50:37Z</time>
      </trkpt>
      <trkpt lat="49.83108" lon="2.29689">
        <ele>58.1</ele>
        <time>2023-04-05T13:50:38Z</time>
      </trkpt>
      <trkpt lat="49.83108" lon="2.29689">
        <ele>58.1</ele>
        <time>2023-04-05T13:50:39Z</time>
      </trkpt>
      <trkpt lat="49.83108" lon="2.29689">
        <ele>58.1</ele>
        <time>2023-04-05T13:50:40Z</time>
      </trkpt>
      <trkpt lat="49.83108" lon="2.29689">
        <ele>58.1</ele>
        <time>2023-04-05T13:50:41Z</time>
      </trkpt>
      <trkpt lat="49.83108" lon="2.29689">
        <ele>58.1</ele>
        <time>2023-04-05T13:50:42Z</time>
      </trkpt>
      <trkpt lat="49.83108" lon="2.29689">
        <ele>58.1</ele>
        <time>2023-04-05T13:50:43Z</time>
      </trkpt>
      <trkpt lat="49.83108" lon="2.29689">
        <ele>58.1</ele>
        <time>2023-04-05T13:50:44Z</time>
      </trkpt>
      <trkpt lat="49.83109" lon="2.29689">
        <ele>58.1</ele>
        <time>2023-04-05T13:50:45Z</time>
      </trkpt>
      <trkpt lat="49.83109" lon="2.29689">
        <ele>58.1</ele>
        <time>2023-04-05T13:50:46Z</time>
      </trkpt>
      <trkpt lat="49.83109" lon="2.29689">
        <ele>58.1</ele>
        <time>2023-04-05T13:50:47Z</time>
      </trkpt>
      <trkpt lat="49.83109" lon="2.29689">
        <ele>58.1</ele>
        <time>2023-04-05T13:50:48Z</time>
      </trkpt>
      <trkpt lat="49.83109" lon="2.29689">
        <ele>58.1</ele>
        <time>2023-04-05T13:50:49Z</time>
      </trkpt>
      <trkpt lat="49.83109" lon="2.29689">
        <ele>58.1</ele>
        <time>2023-04-05T13:50:50Z</time>
      </trkpt>
      <trkpt lat="49.83109" lon="2.29689">
        <ele>58.1</ele>
        <time>2023-04-05T13:50:51Z</time>
      </trkpt>
      <trkpt lat="49.83109" lon="2.29689">
        <ele>58.1</ele>
        <time>2023-04-05T13:50:52Z</time>
      </trkpt>
      <trkpt lat="49.83109" lon="2.29689">
        <ele>58.1</ele>
        <time>2023-04-05T13:50:53Z</time>
      </trkpt>
      <trkpt lat="49.83109" lon="2.29689">
        <ele>58.1</ele>
        <time>2023-04-05T13:50:54Z</time>
      </trkpt>
      <trkpt lat="49.83109" lon="2.29689">
        <ele>58.1</ele>
        <time>2023-04-05T13:50:55Z</time>
      </trkpt>
      <trkpt lat="49.83109" lon="2.29689">
        <ele>58.1</ele>
        <time>2023-04-05T13:50:56Z</time>
      </trkpt>
      <trkpt lat="49.8311" lon="2.29689">
        <ele>58.1</ele>
        <time>2023-04-05T13:50:57Z</time>
      </trkpt>
      <trkpt lat="49.8311" lon="2.29689">
        <ele>58.1</ele>
        <time>2023-04-05T13:50:58Z</time>
      </trkpt>
      <trkpt lat="49.8311" lon="2.29689">
        <ele>58.1</ele>
        <time>2023-04-05T13:50:59Z</time>
      </trkpt>
      <trkpt lat="49.8311" lon="2.29689">
        <ele>58.1</ele>
        <time>2023-04-05T13:51:00Z</time>
      </trkpt>
      <trkpt lat="49.8311" lon="2.29689">
        <ele>58.1</ele>
        <time>2023-04-05T13:51:01Z</time>
      </trkpt>
      <trkpt lat="49.8311" lon="2.29689">
        <ele>58.1</ele>
        <time>2023-04-05T13:51:02Z</time>
      </trkpt>
      <trkpt lat="49.8311" lon="2.29689">
        <ele>58.1</ele>
        <time>2023-04-05T13:51:03Z</time>
      </trkpt>
      <trkpt lat="49.8311" lon="2.29689">
        <ele>58.1</ele>
        <time>2023-04-05T13:51:04Z</time>
      </trkpt>
      <trkpt lat="49.8311" lon="2.29689">
        <ele>58.1</ele>
        <time>2023-04-05T13:51:05Z</time>
      </trkpt>
      <trkpt lat="49.8311" lon="2.29689">
        <ele>58.1</ele>
        <time>2023-04-05T13:51:06Z</time>
      </trkpt>
      <trkpt lat="49.8311" lon="2.29689">
        <ele>58.1</ele>
        <time>2023-04-05T13:51:07Z</time>
      </trkpt>
      <trkpt lat="49.8311" lon="2.29689">
        <ele>58.1</ele>
        <time>2023-04-05T13:51:08Z</time>
      </trkpt>
      <trkpt lat="49.8311" lon="2.29689">
        <ele>58.1</ele>
        <time>2023-04-05T13:51:09Z</time>
      </trkpt>
      <trkpt lat="49.83111" lon="2.29689">
        <ele>58.1</ele>
        <time>2023-04-05T13:51:10Z</time>
      </trkpt>
      <trkpt lat="49.83111" lon="2.29689">
        <ele>58.1</ele>
        <time>2023-04-05T13:51:11Z</time>
      </trkpt>
      <trkpt lat="49.83111" lon="2.29689">
        <ele>58.1</ele>
        <time>2023-04-05T13:51:12Z</time>
      </trkpt>
      <trkpt lat="49.83111" lon="2.29689">
        <ele>58.1</ele>
        <time>2023-04-05T13:51:13Z</time>
      </trkpt>
      <trkpt lat="49.83111" lon="2.29689">
        <ele>58.1</ele>
        <time>2023-04-05T13:51:14Z</time>
      </trkpt>
      <trkpt lat="49.83111" lon="2.29689">
        <ele>58.1</ele>
        <time>2023-04-05T13:51:15Z</time>
      </trkpt>
      <trkpt lat="49.83111" lon="2.29689">
        <ele>58.1</ele>
        <time>2023-04-05T13:51:16Z</time>
      </trkpt>
      <trkpt lat="49.83111" lon="2.29689">
        <ele>58.1</ele>
        <time>2023-04-05T13:51:17Z</time>
      </trkpt>
      <trkpt lat="49.83111" lon="2.29689">
        <ele>58.1</ele>
        <time>2023-04-05T13:51:18Z</time>
      </trkpt>
      <trkpt lat="49.83111" lon="2.29689">
        <ele>58.1</ele>
        <time>2023-04-05T13:51:19Z</time>
      </trkpt>
      <trkpt lat="49.83111" lon="2.29689">
        <ele>58.1</ele>
        <time>2023-04-05T13:51:20Z</time>
      </trkpt>
      <trkpt lat="49.83111" lon="2.29689">
        <ele>58.1</ele>
        <time>2023-04-05T13:51:21Z</time>
      </trkpt>
      <trkpt lat="49.83111" lon="2.29689">
        <ele>58.1</ele>
        <time>2023-04-05T13:51:22Z</time>
      </trkpt>
      <trkpt lat="49.83112" lon="2.29689">
        <ele>58.1</ele>
        <time>2023-04-05T13:51:23Z</time>
      </trkpt>
      <trkpt lat="49.83112" lon="2.29689">
        <ele>58.1</ele>
        <time>2023-04-05T13:51:24Z</time>
      </trkpt>
      <trkpt lat="49.83112" lon="2.29689">
        <ele>58.1</ele>
        <time>2023-04-05T13:51:25Z</time>
      </trkpt>
      <trkpt lat="49.83112" lon="2.29689">
        <ele>58.1</ele>
        <time>2023-04-05T13:51:26Z</time>
      </trkpt>
      <trkpt lat="49.83112" lon="2.29689">
        <ele>58.1</ele>
        <time>2023-04-05T13:51:27Z</time>
      </trkpt>
      <trkpt lat="49.83112" lon="2.29689">
        <ele>58.1</ele>
        <time>2023-04-05T13:51:28Z</time>
      </trkpt>
      <trkpt lat="49.83112" lon="2.29689">
        <ele>58.1</ele>
        <time>2023-04-05T13:51:29Z</time>
      </trkpt>
      <trkpt lat="49.83112" lon="2.29689">
        <ele>58.1</ele>
        <time>2023-04-05T13:51:30Z</time>
      </trkpt>
      <trkpt lat="49.83112" lon="2.29689">
        <ele>58.1</ele>
        <time>2023-04-05T13:51:31Z</time>
      </trkpt>
      <trkpt lat="49.83112" lon="2.29689">
        <ele>58.1</ele>
        <time>2023-04-05T13:51:32Z</time>
      </trkpt>
      <trkpt lat="49.83112" lon="2.29689">
        <ele>58.1</ele>
        <time>2023-04-05T13:51:33Z</time>
      </trkpt>
      <trkpt lat="49.83112" lon="2.29689">
        <ele>58.1</ele>
        <time>2023-04-05T13:51:34Z</time>
      </trkpt>
      <trkpt lat="49.83113" lon="2.29689">
        <ele>58.1</ele>
        <time>2023-04-05T13:51:35Z</time>
      </trkpt>
      <trkpt lat="49.83113" lon="2.29689">
        <ele>58.1</ele>
        <time>2023-04-05T13:51:36Z</time>
      </trkpt>
      <trkpt lat="49.83113" lon="2.29689">
        <ele>58.1</ele>
        <time>2023-04-05T13:51:37Z</time>
      </trkpt>
      <trkpt lat="49.83113" lon="2.29689">
        <ele>58.1</ele>
        <time>2023-04-05T13:51:38Z</time>
      </trkpt>
      <trkpt lat="49.83116" lon="2.29688">
        <ele>58.1</ele>
        <time>2023-04-05T13:51:39Z</time>
      </trkpt>
      <trkpt lat="49.83117" lon="2.29688">
        <ele>58.1</ele>
        <time>2023-04-05T13:51:40Z</time>
      </trkpt>
      <trkpt lat="49.83118" lon="2.29688">
        <ele>58.1</ele>
        <time>2023-04-05T13:51:41Z</time>
      </trkpt>
      <trkpt lat="49.83118" lon="2.29688">
        <ele>58.1</ele>
        <time>2023-04-05T13:51:42Z</time>
      </trkpt>
      <trkpt lat="49.83118" lon="2.29688">
        <ele>58.1</ele>
        <time>2023-04-05T13:51:43Z</time>
      </trkpt>
      <trkpt lat="49.83118" lon="2.29688">
        <ele>58.1</ele>
        <time>2023-04-05T13:51:44Z</time>
      </trkpt>
      <trkpt lat="49.83118" lon="2.29688">
        <ele>58.1</ele>
        <time>2023-04-05T13:51:45Z</time>
      </trkpt>
      <trkpt lat="49.83118" lon="2.29688">
        <ele>58.1</ele>
        <time>2023-04-05T13:51:46Z</time>
      </trkpt>
      <trkpt lat="49.83118" lon="2.29688">
        <ele>58.1</ele>
        <time>2023-04-05T13:51:47Z</time>
      </trkpt>
      <trkpt lat="49.83118" lon="2.29688">
        <ele>58.1</ele>
        <time>2023-04-05T13:51:48Z</time>
      </trkpt>
      <trkpt lat="49.83118" lon="2.29688">
        <ele>58.1</ele>
        <time>2023-04-05T13:51:49Z</time>
      </trkpt>
      <trkpt lat="49.83118" lon="2.29688">
        <ele>58.1</ele>
        <time>2023-04-05T13:51:50Z</time>
      </trkpt>
      <trkpt lat="49.83118" lon="2.29688">
        <ele>58.1</ele>
        <time>2023-04-05T13:51:51Z</time>
      </trkpt>
      <trkpt lat="49.83118" lon="2.29688">
        <ele>58.1</ele>
        <time>2023-04-05T13:51:52Z</time>
      </trkpt>
      <trkpt lat="49.83118" lon="2.29688">
        <ele>58.1</ele>
        <time>2023-04-05T13:51:53Z</time>
      </trkpt>
      <trkpt lat="49.83118" lon="2.29688">
        <ele>58.1</ele>
        <time>2023-04-05T13:51:54Z</time>
      </trkpt>
      <trkpt lat="49.83118" lon="2.29688">
        <ele>58.1</ele>
        <time>2023-04-05T13:51:55Z</time>
      </trkpt>
      <trkpt lat="49.83118" lon="2.29688">
        <ele>58.1</ele>
        <time>2023-04-05T13:51:56Z</time>
      </trkpt>
      <trkpt lat="49.83118" lon="2.29688">
        <ele>58.1</ele>
        <time>2023-04-05T13:51:57Z</time>
      </trkpt>
      <trkpt lat="49.83118" lon="2.29688">
        <ele>58.1</ele>
        <time>2023-04-05T13:51:58Z</time>
      </trkpt>
      <trkpt lat="49.83118" lon="2.29688">
        <ele>58.1</ele>
        <time>2023-04-05T13:51:59Z</time>
      </trkpt>
      <trkpt lat="49.83118" lon="2.29688">
        <ele>58.1</ele>
        <time>2023-04-05T13:52:00Z</time>
      </trkpt>
      <trkpt lat="49.83118" lon="2.29688">
        <ele>58.1</ele>
        <time>2023-04-05T13:52:01Z</time>
      </trkpt>
      <trkpt lat="49.83118" lon="2.29688">
        <ele>58.1</ele>
        <time>2023-04-05T13:52:02Z</time>
      </trkpt>
      <trkpt lat="49.83118" lon="2.29688">
        <ele>58.1</ele>
        <time>2023-04-05T13:52:03Z</time>
      </trkpt>
      <trkpt lat="49.83118" lon="2.29688">
        <ele>58.1</ele>
        <time>2023-04-05T13:52:04Z</time>
      </trkpt>
      <trkpt lat="49.83118" lon="2.29688">
        <ele>58.1</ele>
        <time>2023-04-05T13:52:05Z</time>
      </trkpt>
      <trkpt lat="49.83118" lon="2.29688">
        <ele>58.1</ele>
        <time>2023-04-05T13:52:06Z</time>
      </trkpt>
      <trkpt lat="49.83118" lon="2.29688">
        <ele>58.1</ele>
        <time>2023-04-05T13:52:07Z</time>
      </trkpt>
      <trkpt lat="49.83118" lon="2.29688">
        <ele>58.1</ele>
        <time>2023-04-05T13:52:08Z</time>
      </trkpt>
      <trkpt lat="49.83118" lon="2.29688">
        <ele>58.1</ele>
        <time>2023-04-05T13:52:09Z</time>
      </trkpt>
      <trkpt lat="49.83118" lon="2.29688">
        <ele>58.1</ele>
        <time>2023-04-05T13:52:10Z</time>
      </trkpt>
      <trkpt lat="49.83118" lon="2.29688">
        <ele>58.1</ele>
        <time>2023-04-05T13:52:11Z</time>
      </trkpt>
      <trkpt lat="49.83118" lon="2.29688">
        <ele>58.1</ele>
        <time>2023-04-05T13:52:12Z</time>
      </trkpt>
      <trkpt lat="49.83118" lon="2.29688">
        <ele>58.1</ele>
        <time>2023-04-05T13:52:13Z</time>
      </trkpt>
      <trkpt lat="49.83118" lon="2.29688">
        <ele>58.1</ele>
        <time>2023-04-05T13:52:14Z</time>
      </trkpt>
      <trkpt lat="49.83118" lon="2.29688">
        <ele>58.1</ele>
        <time>2023-04-05T13:52:15Z</time>
      </trkpt>
      <trkpt lat="49.83118" lon="2.29688">
        <ele>58.1</ele>
        <time>2023-04-05T13:52:16Z</time>
      </trkpt>
      <trkpt lat="49.83118" lon="2.29688">
        <ele>58.1</ele>
        <time>2023-04-05T13:52:17Z</time>
      </trkpt>
      <trkpt lat="49.83118" lon="2.29688">
        <ele>58.1</ele>
        <time>2023-04-05T13:52:18Z</time>
      </trkpt>
      <trkpt lat="49.83118" lon="2.29688">
        <ele>58.1</ele>
        <time>2023-04-05T13:52:19Z</time>
      </trkpt>
      <trkpt lat="49.83118" lon="2.29688">
        <ele>58.1</ele>
        <time>2023-04-05T13:52:20Z</time>
      </trkpt>
      <trkpt lat="49.83118" lon="2.29688">
        <ele>58.1</ele>
        <time>2023-04-05T13:52:21Z</time>
      </trkpt>
      <trkpt lat="49.83118" lon="2.29688">
        <ele>58.1</ele>
        <time>2023-04-05T13:52:22Z</time>
      </trkpt>
      <trkpt lat="49.83117" lon="2.29689">
        <ele>58.1</ele>
        <time>2023-04-05T13:52:23Z</time>
      </trkpt>
      <trkpt lat="49.83116" lon="2.29689">
        <ele>58.1</ele>
        <time>2023-04-05T13:52:24Z</time>
      </trkpt>
      <trkpt lat="49.83116" lon="2.29688">
        <ele>58.1</ele>
        <time>2023-04-05T13:52:25Z</time>
      </trkpt>
      <trkpt lat="49.83115" lon="2.29688">
        <ele>58.1</ele>
        <time>2023-04-05T13:52:26Z</time>
      </trkpt>
      <trkpt lat="49.83114" lon="2.29687">
        <ele>58.1</ele>
        <time>2023-04-05T13:52:27Z</time>
      </trkpt>
      <trkpt lat="49.83114" lon="2.29686">
        <ele>58.1</ele>
        <time>2023-04-05T13:52:28Z</time>
      </trkpt>
      <trkpt lat="49.83113" lon="2.29685">
        <ele>58.1</ele>
        <time>2023-04-05T13:52:29Z</time>
      </trkpt>
      <trkpt lat="49.83113" lon="2.29684">
        <ele>58.1</ele>
        <time>2023-04-05T13:52:30Z</time>
      </trkpt>
      <trkpt lat="49.83112" lon="2.29683">
        <ele>58.1</ele>
        <time>2023-04-05T13:52:31Z</time>
      </trkpt>
      <trkpt lat="49.83112" lon="2.29683">
        <ele>58.1</ele>
        <time>2023-04-05T13:52:32Z</time>
      </trkpt>
      <trkpt lat="49.83111" lon="2.29682">
        <ele>58.1</ele>
        <time>2023-04-05T13:52:33Z</time>
      </trkpt>
      <trkpt lat="49.8311" lon="2.2968">
        <ele>58.1</ele>
        <time>2023-04-05T13:52:34Z</time>
      </trkpt>
      <trkpt lat="49.83108" lon="2.29676">
        <ele>58.1</ele>
        <time>2023-04-05T13:52:35Z</time>
      </trkpt>
      <trkpt lat="49.83108" lon="2.29675">
        <ele>58.1</ele>
        <time>2023-04-05T13:52:36Z</time>
      </trkpt>
      <trkpt lat="49.83107" lon="2.29672">
        <ele>58.1</ele>
        <time>2023-04-05T13:52:37Z</time>
      </trkpt>
      <trkpt lat="49.83106" lon="2.29671">
        <ele>58.1</ele>
        <time>2023-04-05T13:52:39Z</time>
      </trkpt>
      <trkpt lat="49.83106" lon="2.2967">
        <ele>58.1</ele>
        <time>2023-04-05T13:52:40Z</time>
      </trkpt>
      <trkpt lat="49.83104" lon="2.29668">
        <ele>58.1</ele>
        <time>2023-04-05T13:52:41Z</time>
      </trkpt>
      <trkpt lat="49.83104" lon="2.29667">
        <ele>58.1</ele>
        <time>2023-04-05T13:52:42Z</time>
      </trkpt>
      <trkpt lat="49.83103" lon="2.29666">
        <ele>58.1</ele>
        <time>2023-04-05T13:52:43Z</time>
      </trkpt>
      <trkpt lat="49.83101" lon="2.29663">
        <ele>58.1</ele>
        <time>2023-04-05T13:52:44Z</time>
      </trkpt>
      <trkpt lat="49.83101" lon="2.29662">
        <ele>58.1</ele>
        <time>2023-04-05T13:52:46Z</time>
      </trkpt>
      <trkpt lat="49.831" lon="2.2966">
        <ele>58.1</ele>
        <time>2023-04-05T13:52:47Z</time>
      </trkpt>
      <trkpt lat="49.83099" lon="2.29659">
        <ele>58.1</ele>
        <time>2023-04-05T13:52:48Z</time>
      </trkpt>
      <trkpt lat="49.83098" lon="2.29658">
        <ele>58.1</ele>
        <time>2023-04-05T13:52:49Z</time>
      </trkpt>
      <trkpt lat="49.83098" lon="2.29657">
        <ele>58.1</ele>
        <time>2023-04-05T13:52:50Z</time>
      </trkpt>
      <trkpt lat="49.83097" lon="2.29655">
        <ele>58.1</ele>
        <time>2023-04-05T13:52:51Z</time>
      </trkpt>
      <trkpt lat="49.83095" lon="2.29651">
        <ele>58.1</ele>
        <time>2023-04-05T13:52:53Z</time>
      </trkpt>
      <trkpt lat="49.83094" lon="2.29649">
        <ele>58.1</ele>
        <time>2023-04-05T13:52:55Z</time>
      </trkpt>
      <trkpt lat="49.83092" lon="2.29645">
        <ele>58.1</ele>
        <time>2023-04-05T13:52:56Z</time>
      </trkpt>
      <trkpt lat="49.83092" lon="2.29644">
        <ele>58.1</ele>
        <time>2023-04-05T13:52:57Z</time>
      </trkpt>
      <trkpt lat="49.83091" lon="2.29642">
        <ele>58.2</ele>
        <time>2023-04-05T13:52:58Z</time>
      </trkpt>
      <trkpt lat="49.8309" lon="2.2964">
        <ele>58.2</ele>
        <time>2023-04-05T13:52:59Z</time>
      </trkpt>
      <trkpt lat="49.83089" lon="2.29638">
        <ele>58.3</ele>
        <time>2023-04-05T13:53:00Z</time>
      </trkpt>
      <trkpt lat="49.83088" lon="2.29636">
        <ele>58.3</ele>
        <time>2023-04-05T13:53:01Z</time>
      </trkpt>
      <trkpt lat="49.83087" lon="2.29635">
        <ele>58.3</ele>
        <time>2023-04-05T13:53:02Z</time>
      </trkpt>
      <trkpt lat="49.83087" lon="2.29633">
        <ele>58.3</ele>
        <time>2023-04-05T13:53:03Z</time>
      </trkpt>
      <trkpt lat="49.83086" lon="2.29632">
        <ele>58.4</ele>
        <time>2023-04-05T13:53:04Z</time>
      </trkpt>
      <trkpt lat="49.83085" lon="2.2963">
        <ele>58.4</ele>
        <time>2023-04-05T13:53:06Z</time>
      </trkpt>
      <trkpt lat="49.83084" lon="2.29629">
        <ele>58.4</ele>
        <time>2023-04-05T13:53:07Z</time>
      </trkpt>
      <trkpt lat="49.83082" lon="2.29626">
        <ele>58.5</ele>
        <time>2023-04-05T13:53:08Z</time>
      </trkpt>
      <trkpt lat="49.83081" lon="2.29625">
        <ele>58.5</ele>
        <time>2023-04-05T13:53:09Z</time>
      </trkpt>
      <trkpt lat="49.8308" lon="2.29622">
        <ele>58.5</ele>
        <time>2023-04-05T13:53:10Z</time>
      </trkpt>
      <trkpt lat="49.83079" lon="2.29622">
        <ele>58.6</ele>
        <time>2023-04-05T13:53:12Z</time>
      </trkpt>
      <trkpt lat="49.83078" lon="2.29621">
        <ele>58.6</ele>
        <time>2023-04-05T13:53:13Z</time>
      </trkpt>
      <trkpt lat="49.83077" lon="2.29619">
        <ele>58.6</ele>
        <time>2023-04-05T13:53:14Z</time>
      </trkpt>
      <trkpt lat="49.83076" lon="2.29617">
        <ele>58.6</ele>
        <time>2023-04-05T13:53:15Z</time>
      </trkpt>
      <trkpt lat="49.83074" lon="2.29615">
        <ele>58.7</ele>
        <time>2023-04-05T13:53:16Z</time>
      </trkpt>
      <trkpt lat="49.83073" lon="2.29613">
        <ele>58.7</ele>
        <time>2023-04-05T13:53:18Z</time>
      </trkpt>
      <trkpt lat="49.83072" lon="2.29612">
        <ele>58.8</ele>
        <time>2023-04-05T13:53:19Z</time>
      </trkpt>
      <trkpt lat="49.83072" lon="2.29611">
        <ele>58.8</ele>
        <time>2023-04-05T13:53:20Z</time>
      </trkpt>
      <trkpt lat="49.83071" lon="2.2961">
        <ele>58.8</ele>
        <time>2023-04-05T13:53:21Z</time>
      </trkpt>
      <trkpt lat="49.8307" lon="2.29608">
        <ele>58.9</ele>
        <time>2023-04-05T13:53:22Z</time>
      </trkpt>
      <trkpt lat="49.83069" lon="2.29607">
        <ele>58.9</ele>
        <time>2023-04-05T13:53:23Z</time>
      </trkpt>
      <trkpt lat="49.83069" lon="2.29606">
        <ele>58.9</ele>
        <time>2023-04-05T13:53:24Z</time>
      </trkpt>
      <trkpt lat="49.83068" lon="2.29605">
        <ele>58.9</ele>
        <time>2023-04-05T13:53:25Z</time>
      </trkpt>
      <trkpt lat="49.83067" lon="2.29603">
        <ele>59</ele>
        <time>2023-04-05T13:53:26Z</time>
      </trkpt>
      <trkpt lat="49.83066" lon="2.29601">
        <ele>59</ele>
        <time>2023-04-05T13:53:28Z</time>
      </trkpt>
      <trkpt lat="49.83066" lon="2.296">
        <ele>59</ele>
        <time>2023-04-05T13:53:29Z</time>
      </trkpt>
      <trkpt lat="49.83065" lon="2.29598">
        <ele>59</ele>
        <time>2023-04-05T13:53:30Z</time>
      </trkpt>
      <trkpt lat="49.83064" lon="2.29595">
        <ele>59.1</ele>
        <time>2023-04-05T13:53:31Z</time>
      </trkpt>
      <trkpt lat="49.83064" lon="2.29594">
        <ele>59.1</ele>
        <time>2023-04-05T13:53:32Z</time>
      </trkpt>
      <trkpt lat="49.83063" lon="2.29593">
        <ele>59.1</ele>
        <time>2023-04-05T13:53:33Z</time>
      </trkpt>
      <trkpt lat="49.83063" lon="2.29591">
        <ele>59.2</ele>
        <time>2023-04-05T13:53:34Z</time>
      </trkpt>
      <trkpt lat="49.83062" lon="2.29589">
        <ele>59.2</ele>
        <time>2023-04-05T13:53:35Z</time>
      </trkpt>
      <trkpt lat="49.8306" lon="2.29587">
        <ele>59.3</ele>
        <time>2023-04-05T13:53:36Z</time>
      </trkpt>
      <trkpt lat="49.83059" lon="2.29586">
        <ele>59.3</ele>
        <time>2023-04-05T13:53:38Z</time>
      </trkpt>
      <trkpt lat="49.83059" lon="2.29586">
        <ele>59.3</ele>
        <time>2023-04-05T13:53:39Z</time>
      </trkpt>
      <trkpt lat="49.83057" lon="2.29583">
        <ele>59.4</ele>
        <time>2023-04-05T13:53:40Z</time>
      </trkpt>
      <trkpt lat="49.83056" lon="2.29582">
        <ele>59.4</ele>
        <time>2023-04-05T13:53:41Z</time>
      </trkpt>
      <trkpt lat="49.83055" lon="2.2958">
        <ele>59.5</ele>
        <time>2023-04-05T13:53:43Z</time>
      </trkpt>
      <trkpt lat="49.83054" lon="2.29578">
        <ele>59.5</ele>
        <time>2023-04-05T13:53:44Z</time>
      </trkpt>
      <trkpt lat="49.83053" lon="2.29577">
        <ele>59.6</ele>
        <time>2023-04-05T13:53:45Z</time>
      </trkpt>
      <trkpt lat="49.83052" lon="2.29575">
        <ele>59.6</ele>
        <time>2023-04-05T13:53:46Z</time>
      </trkpt>
      <trkpt lat="49.83052" lon="2.29573">
        <ele>59.7</ele>
        <time>2023-04-05T13:53:47Z</time>
      </trkpt>
      <trkpt lat="49.83051" lon="2.2957">
        <ele>59.7</ele>
        <time>2023-04-05T13:53:48Z</time>
      </trkpt>
      <trkpt lat="49.83051" lon="2.29567">
        <ele>59.8</ele>
        <time>2023-04-05T13:53:49Z</time>
      </trkpt>
      <trkpt lat="49.83051" lon="2.29566">
        <ele>59.8</ele>
        <time>2023-04-05T13:53:51Z</time>
      </trkpt>
      <trkpt lat="49.83051" lon="2.29564">
        <ele>59.9</ele>
        <time>2023-04-05T13:53:52Z</time>
      </trkpt>
      <trkpt lat="49.83051" lon="2.29562">
        <ele>59.9</ele>
        <time>2023-04-05T13:53:53Z</time>
      </trkpt>
      <trkpt lat="49.83051" lon="2.2956">
        <ele>60</ele>
        <time>2023-04-05T13:53:54Z</time>
      </trkpt>
      <trkpt lat="49.83051" lon="2.29558">
        <ele>60.1</ele>
        <time>2023-04-05T13:53:55Z</time>
      </trkpt>
      <trkpt lat="49.83051" lon="2.29556">
        <ele>60.1</ele>
        <time>2023-04-05T13:53:56Z</time>
      </trkpt>
      <trkpt lat="49.83051" lon="2.29554">
        <ele>60.2</ele>
        <time>2023-04-05T13:53:57Z</time>
      </trkpt>
      <trkpt lat="49.83052" lon="2.29552">
        <ele>60.2</ele>
        <time>2023-04-05T13:53:58Z</time>
      </trkpt>
      <trkpt lat="49.83052" lon="2.2955">
        <ele>60.3</ele>
        <time>2023-04-05T13:54:00Z</time>
      </trkpt>
      <trkpt lat="49.83052" lon="2.29549">
        <ele>60.3</ele>
        <time>2023-04-05T13:54:01Z</time>
      </trkpt>
      <trkpt lat="49.83052" lon="2.29547">
        <ele>60.4</ele>
        <time>2023-04-05T13:54:02Z</time>
      </trkpt>
      <trkpt lat="49.83052" lon="2.29545">
        <ele>60.4</ele>
        <time>2023-04-05T13:54:03Z</time>
      </trkpt>
      <trkpt lat="49.83052" lon="2.29543">
        <ele>60.5</ele>
        <time>2023-04-05T13:54:04Z</time>
      </trkpt>
      <trkpt lat="49.83052" lon="2.29541">
        <ele>60.6</ele>
        <time>2023-04-05T13:54:05Z</time>
      </trkpt>
      <trkpt lat="49.83051" lon="2.2954">
        <ele>60.6</ele>
        <time>2023-04-05T13:54:07Z</time>
      </trkpt>
      <trkpt lat="49.83051" lon="2.29538">
        <ele>60.7</ele>
        <time>2023-04-05T13:54:08Z</time>
      </trkpt>
      <trkpt lat="49.83051" lon="2.29536">
        <ele>60.7</ele>
        <time>2023-04-05T13:54:09Z</time>
      </trkpt>
      <trkpt lat="49.8305" lon="2.29535">
        <ele>60.8</ele>
        <time>2023-04-05T13:54:10Z</time>
      </trkpt>
      <trkpt lat="49.8305" lon="2.29533">
        <ele>60.8</ele>
        <time>2023-04-05T13:54:11Z</time>
      </trkpt>
      <trkpt lat="49.83049" lon="2.29532">
        <ele>60.9</ele>
        <time>2023-04-05T13:54:13Z</time>
      </trkpt>
      <trkpt lat="49.83049" lon="2.29531">
        <ele>60.9</ele>
        <time>2023-04-05T13:54:14Z</time>
      </trkpt>
      <trkpt lat="49.83048" lon="2.29529">
        <ele>61</ele>
        <time>2023-04-05T13:54:15Z</time>
      </trkpt>
      <trkpt lat="49.83047" lon="2.29528">
        <ele>61.1</ele>
        <time>2023-04-05T13:54:16Z</time>
      </trkpt>
      <trkpt lat="49.83047" lon="2.29526">
        <ele>61.1</ele>
        <time>2023-04-05T13:54:17Z</time>
      </trkpt>
      <trkpt lat="49.83046" lon="2.29525">
        <ele>61.2</ele>
        <time>2023-04-05T13:54:18Z</time>
      </trkpt>
      <trkpt lat="49.83046" lon="2.29523">
        <ele>61.2</ele>
        <time>2023-04-05T13:54:20Z</time>
      </trkpt>
      <trkpt lat="49.83046" lon="2.29522">
        <ele>61.3</ele>
        <time>2023-04-05T13:54:21Z</time>
      </trkpt>
      <trkpt lat="49.83046" lon="2.2952">
        <ele>61.3</ele>
        <time>2023-04-05T13:54:22Z</time>
      </trkpt>
      <trkpt lat="49.83045" lon="2.29518">
        <ele>61.4</ele>
        <time>2023-04-05T13:54:23Z</time>
      </trkpt>
      <trkpt lat="49.83046" lon="2.29517">
        <ele>61.5</ele>
        <time>2023-04-05T13:54:24Z</time>
      </trkpt>
      <trkpt lat="49.83046" lon="2.29514">
        <ele>61.5</ele>
        <time>2023-04-05T13:54:25Z</time>
      </trkpt>
      <trkpt lat="49.83046" lon="2.29513">
        <ele>61.6</ele>
        <time>2023-04-05T13:54:27Z</time>
      </trkpt>
      <trkpt lat="49.83046" lon="2.29512">
        <ele>61.6</ele>
        <time>2023-04-05T13:54:28Z</time>
      </trkpt>
      <trkpt lat="49.83046" lon="2.29511">
        <ele>61.7</ele>
        <time>2023-04-05T13:54:29Z</time>
      </trkpt>
      <trkpt lat="49.83046" lon="2.29509">
        <ele>61.7</ele>
        <time>2023-04-05T13:54:30Z</time>
      </trkpt>
      <trkpt lat="49.83046" lon="2.29507">
        <ele>61.8</ele>
        <time>2023-04-05T13:54:31Z</time>
      </trkpt>
      <trkpt lat="49.83046" lon="2.29505">
        <ele>61.9</ele>
        <time>2023-04-05T13:54:33Z</time>
      </trkpt>
      <trkpt lat="49.83046" lon="2.29504">
        <ele>61.9</ele>
        <time>2023-04-05T13:54:34Z</time>
      </trkpt>
      <trkpt lat="49.83045" lon="2.29502">
        <ele>62</ele>
        <time>2023-04-05T13:54:35Z</time>
      </trkpt>
      <trkpt lat="49.83045" lon="2.295">
        <ele>62.1</ele>
        <time>2023-04-05T13:54:36Z</time>
      </trkpt>
      <trkpt lat="49.83044" lon="2.29498">
        <ele>62.2</ele>
        <time>2023-04-05T13:54:37Z</time>
      </trkpt>
      <trkpt lat="49.83043" lon="2.29497">
        <ele>62.2</ele>
        <time>2023-04-05T13:54:39Z</time>
      </trkpt>
      <trkpt lat="49.83043" lon="2.29495">
        <ele>62.3</ele>
        <time>2023-04-05T13:54:40Z</time>
      </trkpt>
      <trkpt lat="49.83042" lon="2.29494">
        <ele>62.4</ele>
        <time>2023-04-05T13:54:41Z</time>
      </trkpt>
      <trkpt lat="49.83042" lon="2.29491">
        <ele>62.5</ele>
        <time>2023-04-05T13:54:42Z</time>
      </trkpt>
      <trkpt lat="49.83041" lon="2.2949">
        <ele>62.6</ele>
        <time>2023-04-05T13:54:43Z</time>
      </trkpt>
      <trkpt lat="49.8304" lon="2.29489">
        <ele>62.6</ele>
        <time>2023-04-05T13:54:45Z</time>
      </trkpt>
      <trkpt lat="49.8304" lon="2.29487">
        <ele>62.7</ele>
        <time>2023-04-05T13:54:46Z</time>
      </trkpt>
      <trkpt lat="49.83039" lon="2.29485">
        <ele>62.9</ele>
        <time>2023-04-05T13:54:47Z</time>
      </trkpt>
      <trkpt lat="49.83038" lon="2.29483">
        <ele>62.9</ele>
        <time>2023-04-05T13:54:48Z</time>
      </trkpt>
      <trkpt lat="49.83038" lon="2.29482">
        <ele>63</ele>
        <time>2023-04-05T13:54:49Z</time>
      </trkpt>
      <trkpt lat="49.83038" lon="2.29481">
        <ele>63</ele>
        <time>2023-04-05T13:54:51Z</time>
      </trkpt>
      <trkpt lat="49.83038" lon="2.2948">
        <ele>63.1</ele>
        <time>2023-04-05T13:54:52Z</time>
      </trkpt>
      <trkpt lat="49.83037" lon="2.29478">
        <ele>63.2</ele>
        <time>2023-04-05T13:54:53Z</time>
      </trkpt>
      <trkpt lat="49.83037" lon="2.29476">
        <ele>63.2</ele>
        <time>2023-04-05T13:54:54Z</time>
      </trkpt>
      <trkpt lat="49.83037" lon="2.29475">
        <ele>63.3</ele>
        <time>2023-04-05T13:54:55Z</time>
      </trkpt>
      <trkpt lat="49.83036" lon="2.29474">
        <ele>63.4</ele>
        <time>2023-04-05T13:54:56Z</time>
      </trkpt>
      <trkpt lat="49.83036" lon="2.29473">
        <ele>63.4</ele>
        <time>2023-04-05T13:54:58Z</time>
      </trkpt>
      <trkpt lat="49.83036" lon="2.29473">
        <ele>63.4</ele>
        <time>2023-04-05T13:54:59Z</time>
      </trkpt>
      <trkpt lat="49.83036" lon="2.29473">
        <ele>63.5</ele>
        <time>2023-04-05T13:55:00Z</time>
      </trkpt>
      <trkpt lat="49.83035" lon="2.29472">
        <ele>63.5</ele>
        <time>2023-04-05T13:55:01Z</time>
      </trkpt>
      <trkpt lat="49.83035" lon="2.29472">
        <ele>63.5</ele>
        <time>2023-04-05T13:55:02Z</time>
      </trkpt>
      <trkpt lat="49.83035" lon="2.29471">
        <ele>63.6</ele>
        <time>2023-04-05T13:55:03Z</time>
      </trkpt>
      <trkpt lat="49.83034" lon="2.2947">
        <ele>63.6</ele>
        <time>2023-04-05T13:55:05Z</time>
      </trkpt>
      <trkpt lat="49.83034" lon="2.29469">
        <ele>63.7</ele>
        <time>2023-04-05T13:55:06Z</time>
      </trkpt>
      <trkpt lat="49.83034" lon="2.29467">
        <ele>63.8</ele>
        <time>2023-04-05T13:55:07Z</time>
      </trkpt>
      <trkpt lat="49.83034" lon="2.29466">
        <ele>63.8</ele>
        <time>2023-04-05T13:55:08Z</time>
      </trkpt>
      <trkpt lat="49.83033" lon="2.29464">
        <ele>63.9</ele>
        <time>2023-04-05T13:55:09Z</time>
      </trkpt>
      <trkpt lat="49.83033" lon="2.29463">
        <ele>64</ele>
        <time>2023-04-05T13:55:11Z</time>
      </trkpt>
      <trkpt lat="49.83033" lon="2.2946">
        <ele>64.1</ele>
        <time>2023-04-05T13:55:12Z</time>
      </trkpt>
      <trkpt lat="49.83033" lon="2.29459">
        <ele>64.1</ele>
        <time>2023-04-05T13:55:14Z</time>
      </trkpt>
      <trkpt lat="49.83033" lon="2.29458">
        <ele>64.2</ele>
        <time>2023-04-05T13:55:15Z</time>
      </trkpt>
      <trkpt lat="49.83033" lon="2.29457">
        <ele>64.3</ele>
        <time>2023-04-05T13:55:16Z</time>
      </trkpt>
      <trkpt lat="49.83033" lon="2.29454">
        <ele>64.4</ele>
        <time>2023-04-05T13:55:17Z</time>
      </trkpt>
      <trkpt lat="49.83033" lon="2.29453">
        <ele>64.5</ele>
        <time>2023-04-05T13:55:19Z</time>
      </trkpt>
      <trkpt lat="49.83033" lon="2.29452">
        <ele>64.5</ele>
        <time>2023-04-05T13:55:20Z</time>
      </trkpt>
      <trkpt lat="49.83033" lon="2.29451">
        <ele>64.6</ele>
        <time>2023-04-05T13:55:21Z</time>
      </trkpt>
      <trkpt lat="49.83033" lon="2.29449">
        <ele>64.6</ele>
        <time>2023-04-05T13:55:22Z</time>
      </trkpt>
      <trkpt lat="49.83033" lon="2.29448">
        <ele>64.7</ele>
        <time>2023-04-05T13:55:24Z</time>
      </trkpt>
      <trkpt lat="49.83033" lon="2.29446">
        <ele>64.8</ele>
        <time>2023-04-05T13:55:25Z</time>
      </trkpt>
      <trkpt lat="49.83033" lon="2.29445">
        <ele>64.8</ele>
        <time>2023-04-05T13:55:26Z</time>
      </trkpt>
      <trkpt lat="49.83033" lon="2.29444">
        <ele>64.9</ele>
        <time>2023-04-05T13:55:27Z</time>
      </trkpt>
      <trkpt lat="49.83033" lon="2.29443">
        <ele>65</ele>
        <time>2023-04-05T13:55:28Z</time>
      </trkpt>
      <trkpt lat="49.83033" lon="2.29441">
        <ele>65</ele>
        <time>2023-04-05T13:55:29Z</time>
      </trkpt>
      <trkpt lat="49.83033" lon="2.2944">
        <ele>65.1</ele>
        <time>2023-04-05T13:55:30Z</time>
      </trkpt>
      <trkpt lat="49.83032" lon="2.29439">
        <ele>65.1</ele>
        <time>2023-04-05T13:55:31Z</time>
      </trkpt>
      <trkpt lat="49.83032" lon="2.29438">
        <ele>65.2</ele>
        <time>2023-04-05T13:55:33Z</time>
      </trkpt>
      <trkpt lat="49.83032" lon="2.29437">
        <ele>65.3</ele>
        <time>2023-04-05T13:55:34Z</time>
      </trkpt>
      <trkpt lat="49.83032" lon="2.29435">
        <ele>65.3</ele>
        <time>2023-04-05T13:55:35Z</time>
      </trkpt>
      <trkpt lat="49.83031" lon="2.29434">
        <ele>65.4</ele>
        <time>2023-04-05T13:55:36Z</time>
      </trkpt>
      <trkpt lat="49.83031" lon="2.29433">
        <ele>65.5</ele>
        <time>2023-04-05T13:55:38Z</time>
      </trkpt>
      <trkpt lat="49.83031" lon="2.29433">
        <ele>65.5</ele>
        <time>2023-04-05T13:55:39Z</time>
      </trkpt>
      <trkpt lat="49.83031" lon="2.29432">
        <ele>65.5</ele>
        <time>2023-04-05T13:55:40Z</time>
      </trkpt>
      <trkpt lat="49.83031" lon="2.29431">
        <ele>65.6</ele>
        <time>2023-04-05T13:55:41Z</time>
      </trkpt>
      <trkpt lat="49.83031" lon="2.2943">
        <ele>65.6</ele>
        <time>2023-04-05T13:55:42Z</time>
      </trkpt>
      <trkpt lat="49.8303" lon="2.2943">
        <ele>65.6</ele>
        <time>2023-04-05T13:55:43Z</time>
      </trkpt>
      <trkpt lat="49.8303" lon="2.29428">
        <ele>65.7</ele>
        <time>2023-04-05T13:55:45Z</time>
      </trkpt>
      <trkpt lat="49.8303" lon="2.29427">
        <ele>65.8</ele>
        <time>2023-04-05T13:55:46Z</time>
      </trkpt>
      <trkpt lat="49.83029" lon="2.29426">
        <ele>65.8</ele>
        <time>2023-04-05T13:55:47Z</time>
      </trkpt>
      <trkpt lat="49.83029" lon="2.29425">
        <ele>65.9</ele>
        <time>2023-04-05T13:55:48Z</time>
      </trkpt>
      <trkpt lat="49.83029" lon="2.29424">
        <ele>65.9</ele>
        <time>2023-04-05T13:55:49Z</time>
      </trkpt>
      <trkpt lat="49.83029" lon="2.29424">
        <ele>65.9</ele>
        <time>2023-04-05T13:55:51Z</time>
      </trkpt>
      <trkpt lat="49.83029" lon="2.29423">
        <ele>66</ele>
        <time>2023-04-05T13:55:52Z</time>
      </trkpt>
      <trkpt lat="49.83028" lon="2.29421">
        <ele>66</ele>
        <time>2023-04-05T13:55:53Z</time>
      </trkpt>
      <trkpt lat="49.83028" lon="2.2942">
        <ele>66.1</ele>
        <time>2023-04-05T13:55:54Z</time>
      </trkpt>
      <trkpt lat="49.83028" lon="2.29418">
        <ele>66.2</ele>
        <time>2023-04-05T13:55:55Z</time>
      </trkpt>
      <trkpt lat="49.83028" lon="2.29415">
        <ele>66.3</ele>
        <time>2023-04-05T13:55:57Z</time>
      </trkpt>
      <trkpt lat="49.83027" lon="2.29413">
        <ele>66.5</ele>
        <time>2023-04-05T13:55:58Z</time>
      </trkpt>
      <trkpt lat="49.83027" lon="2.2941">
        <ele>66.6</ele>
        <time>2023-04-05T13:56:00Z</time>
      </trkpt>
      <trkpt lat="49.83027" lon="2.29408">
        <ele>66.7</ele>
        <time>2023-04-05T13:56:01Z</time>
      </trkpt>
      <trkpt lat="49.83026" lon="2.29405">
        <ele>66.8</ele>
        <time>2023-04-05T13:56:02Z</time>
      </trkpt>
      <trkpt lat="49.83026" lon="2.29403">
        <ele>66.9</ele>
        <time>2023-04-05T13:56:03Z</time>
      </trkpt>
      <trkpt lat="49.83026" lon="2.294">
        <ele>67</ele>
        <time>2023-04-05T13:56:04Z</time>
      </trkpt>
      <trkpt lat="49.83025" lon="2.29397">
        <ele>67.2</ele>
        <time>2023-04-05T13:56:05Z</time>
      </trkpt>
      <trkpt lat="49.83025" lon="2.29395">
        <ele>67.3</ele>
        <time>2023-04-05T13:56:07Z</time>
      </trkpt>
      <trkpt lat="49.83025" lon="2.29394">
        <ele>67.3</ele>
        <time>2023-04-05T13:56:08Z</time>
      </trkpt>
      <trkpt lat="49.83024" lon="2.29392">
        <ele>67.4</ele>
        <time>2023-04-05T13:56:09Z</time>
      </trkpt>
      <trkpt lat="49.83024" lon="2.2939">
        <ele>67.5</ele>
        <time>2023-04-05T13:56:10Z</time>
      </trkpt>
      <trkpt lat="49.83024" lon="2.29389">
        <ele>67.5</ele>
        <time>2023-04-05T13:56:11Z</time>
      </trkpt>
      <trkpt lat="49.83024" lon="2.29387">
        <ele>67.6</ele>
        <time>2023-04-05T13:56:13Z</time>
      </trkpt>
      <trkpt lat="49.83024" lon="2.29385">
        <ele>67.7</ele>
        <time>2023-04-05T13:56:14Z</time>
      </trkpt>
      <trkpt lat="49.83023" lon="2.29383">
        <ele>67.8</ele>
        <time>2023-04-05T13:56:15Z</time>
      </trkpt>
      <trkpt lat="49.83023" lon="2.29381">
        <ele>67.8</ele>
        <time>2023-04-05T13:56:16Z</time>
      </trkpt>
      <trkpt lat="49.83022" lon="2.29377">
        <ele>68</ele>
        <time>2023-04-05T13:56:17Z</time>
      </trkpt>
      <trkpt lat="49.83022" lon="2.29375">
        <ele>68.1</ele>
        <time>2023-04-05T13:56:19Z</time>
      </trkpt>
      <trkpt lat="49.83022" lon="2.29374">
        <ele>68.1</ele>
        <time>2023-04-05T13:56:20Z</time>
      </trkpt>
      <trkpt lat="49.83022" lon="2.29372">
        <ele>68.2</ele>
        <time>2023-04-05T13:56:21Z</time>
      </trkpt>
      <trkpt lat="49.83022" lon="2.2937">
        <ele>68.3</ele>
        <time>2023-04-05T13:56:22Z</time>
      </trkpt>
      <trkpt lat="49.83021" lon="2.29368">
        <ele>68.4</ele>
        <time>2023-04-05T13:56:23Z</time>
      </trkpt>
      <trkpt lat="49.83021" lon="2.29366">
        <ele>68.5</ele>
        <time>2023-04-05T13:56:24Z</time>
      </trkpt>
      <trkpt lat="49.83021" lon="2.29364">
        <ele>68.5</ele>
        <time>2023-04-05T13:56:26Z</time>
      </trkpt>
      <trkpt lat="49.8302" lon="2.29363">
        <ele>68.6</ele>
        <time>2023-04-05T13:56:27Z</time>
      </trkpt>
      <trkpt lat="49.8302" lon="2.29361">
        <ele>68.7</ele>
        <time>2023-04-05T13:56:28Z</time>
      </trkpt>
      <trkpt lat="49.83019" lon="2.29359">
        <ele>68.8</ele>
        <time>2023-04-05T13:56:29Z</time>
      </trkpt>
      <trkpt lat="49.83019" lon="2.29357">
        <ele>68.8</ele>
        <time>2023-04-05T13:56:30Z</time>
      </trkpt>
      <trkpt lat="49.83019" lon="2.29356">
        <ele>68.9</ele>
        <time>2023-04-05T13:56:32Z</time>
      </trkpt>
      <trkpt lat="49.83018" lon="2.29354">
        <ele>69</ele>
        <time>2023-04-05T13:56:33Z</time>
      </trkpt>
      <trkpt lat="49.83018" lon="2.29353">
        <ele>69</ele>
        <time>2023-04-05T13:56:34Z</time>
      </trkpt>
      <trkpt lat="49.83018" lon="2.29352">
        <ele>69</ele>
        <time>2023-04-05T13:56:35Z</time>
      </trkpt>
      <trkpt lat="49.83018" lon="2.29351">
        <ele>69.1</ele>
        <time>2023-04-05T13:56:36Z</time>
      </trkpt>
      <trkpt lat="49.83018" lon="2.2935">
        <ele>69.1</ele>
        <time>2023-04-05T13:56:37Z</time>
      </trkpt>
      <trkpt lat="49.83018" lon="2.2935">
        <ele>69.2</ele>
        <time>2023-04-05T13:56:39Z</time>
      </trkpt>
      <trkpt lat="49.83017" lon="2.29349">
        <ele>69.2</ele>
        <time>2023-04-05T13:56:40Z</time>
      </trkpt>
      <trkpt lat="49.83017" lon="2.29349">
        <ele>69.2</ele>
        <time>2023-04-05T13:56:41Z</time>
      </trkpt>
      <trkpt lat="49.83017" lon="2.29348">
        <ele>69.3</ele>
        <time>2023-04-05T13:56:42Z</time>
      </trkpt>
      <trkpt lat="49.83016" lon="2.29347">
        <ele>69.3</ele>
        <time>2023-04-05T13:56:43Z</time>
      </trkpt>
      <trkpt lat="49.83016" lon="2.29346">
        <ele>69.4</ele>
        <time>2023-04-05T13:56:44Z</time>
      </trkpt>
      <trkpt lat="49.83015" lon="2.29345">
        <ele>69.4</ele>
        <time>2023-04-05T13:56:46Z</time>
      </trkpt>
      <trkpt lat="49.83015" lon="2.29344">
        <ele>69.4</ele>
        <time>2023-04-05T13:56:47Z</time>
      </trkpt>
      <trkpt lat="49.83015" lon="2.29343">
        <ele>69.5</ele>
        <time>2023-04-05T13:56:48Z</time>
      </trkpt>
      <trkpt lat="49.83015" lon="2.29342">
        <ele>69.5</ele>
        <time>2023-04-05T13:56:49Z</time>
      </trkpt>
      <trkpt lat="49.83014" lon="2.29341">
        <ele>69.6</ele>
        <time>2023-04-05T13:56:50Z</time>
      </trkpt>
      <trkpt lat="49.83014" lon="2.29341">
        <ele>69.6</ele>
        <time>2023-04-05T13:56:52Z</time>
      </trkpt>
      <trkpt lat="49.83014" lon="2.2934">
        <ele>69.7</ele>
        <time>2023-04-05T13:56:53Z</time>
      </trkpt>
      <trkpt lat="49.83014" lon="2.29339">
        <ele>69.7</ele>
        <time>2023-04-05T13:56:54Z</time>
      </trkpt>
      <trkpt lat="49.83013" lon="2.29338">
        <ele>69.7</ele>
        <time>2023-04-05T13:56:55Z</time>
      </trkpt>
      <trkpt lat="49.83013" lon="2.29336">
        <ele>69.9</ele>
        <time>2023-04-05T13:56:56Z</time>
      </trkpt>
      <trkpt lat="49.83012" lon="2.29334">
        <ele>70</ele>
        <time>2023-04-05T13:56:57Z</time>
      </trkpt>
      <trkpt lat="49.83011" lon="2.29332">
        <ele>70.1</ele>
        <time>2023-04-05T13:56:59Z</time>
      </trkpt>
      <trkpt lat="49.8301" lon="2.29329">
        <ele>70.2</ele>
        <time>2023-04-05T13:57:00Z</time>
      </trkpt>
      <trkpt lat="49.83008" lon="2.29325">
        <ele>70.4</ele>
        <time>2023-04-05T13:57:01Z</time>
      </trkpt>
      <trkpt lat="49.83008" lon="2.29323">
        <ele>70.5</ele>
        <time>2023-04-05T13:57:02Z</time>
      </trkpt>
      <trkpt lat="49.83007" lon="2.2932">
        <ele>70.7</ele>
        <time>2023-04-05T13:57:03Z</time>
      </trkpt>
      <trkpt lat="49.83006" lon="2.29318">
        <ele>70.7</ele>
        <time>2023-04-05T13:57:05Z</time>
      </trkpt>
      <trkpt lat="49.83005" lon="2.29316">
        <ele>70.8</ele>
        <time>2023-04-05T13:57:06Z</time>
      </trkpt>
      <trkpt lat="49.83004" lon="2.29314">
        <ele>70.9</ele>
        <time>2023-04-05T13:57:07Z</time>
      </trkpt>
      <trkpt lat="49.83003" lon="2.29311">
        <ele>71.1</ele>
        <time>2023-04-05T13:57:08Z</time>
      </trkpt>
      <trkpt lat="49.83003" lon="2.2931">
        <ele>71.2</ele>
        <time>2023-04-05T13:57:09Z</time>
      </trkpt>
      <trkpt lat="49.83001" lon="2.29307">
        <ele>71.3</ele>
        <time>2023-04-05T13:57:10Z</time>
      </trkpt>
      <trkpt lat="49.83001" lon="2.29306">
        <ele>71.4</ele>
        <time>2023-04-05T13:57:12Z</time>
      </trkpt>
      <trkpt lat="49.83" lon="2.29305">
        <ele>71.4</ele>
        <time>2023-04-05T13:57:13Z</time>
      </trkpt>
      <trkpt lat="49.82999" lon="2.29303">
        <ele>71.5</ele>
        <time>2023-04-05T13:57:14Z</time>
      </trkpt>
      <trkpt lat="49.82998" lon="2.29302">
        <ele>71.6</ele>
        <time>2023-04-05T13:57:15Z</time>
      </trkpt>
      <trkpt lat="49.82998" lon="2.293">
        <ele>71.6</ele>
        <time>2023-04-05T13:57:16Z</time>
      </trkpt>
      <trkpt lat="49.82997" lon="2.29299">
        <ele>71.7</ele>
        <time>2023-04-05T13:57:17Z</time>
      </trkpt>
      <trkpt lat="49.82996" lon="2.29297">
        <ele>71.8</ele>
        <time>2023-04-05T13:57:18Z</time>
      </trkpt>
      <trkpt lat="49.82995" lon="2.29295">
        <ele>71.9</ele>
        <time>2023-04-05T13:57:20Z</time>
      </trkpt>
      <trkpt lat="49.82994" lon="2.29293">
        <ele>72</ele>
        <time>2023-04-05T13:57:21Z</time>
      </trkpt>
      <trkpt lat="49.82992" lon="2.29291">
        <ele>72.2</ele>
        <time>2023-04-05T13:57:22Z</time>
      </trkpt>
      <trkpt lat="49.82992" lon="2.2929">
        <ele>72.2</ele>
        <time>2023-04-05T13:57:23Z</time>
      </trkpt>
      <trkpt lat="49.82991" lon="2.29288">
        <ele>72.3</ele>
        <time>2023-04-05T13:57:24Z</time>
      </trkpt>
      <trkpt lat="49.82989" lon="2.29286">
        <ele>72.4</ele>
        <time>2023-04-05T13:57:25Z</time>
      </trkpt>
      <trkpt lat="49.82989" lon="2.29285">
        <ele>72.4</ele>
        <time>2023-04-05T13:57:27Z</time>
      </trkpt>
      <trkpt lat="49.82988" lon="2.29285">
        <ele>72.5</ele>
        <time>2023-04-05T13:57:28Z</time>
      </trkpt>
      <trkpt lat="49.82987" lon="2.29283">
        <ele>72.6</ele>
        <time>2023-04-05T13:57:29Z</time>
      </trkpt>
      <trkpt lat="49.82986" lon="2.29282">
        <ele>72.6</ele>
        <time>2023-04-05T13:57:30Z</time>
      </trkpt>
      <trkpt lat="49.82985" lon="2.29281">
        <ele>72.7</ele>
        <time>2023-04-05T13:57:31Z</time>
      </trkpt>
      <trkpt lat="49.82984" lon="2.2928">
        <ele>72.7</ele>
        <time>2023-04-05T13:57:32Z</time>
      </trkpt>
      <trkpt lat="49.82984" lon="2.29279">
        <ele>72.8</ele>
        <time>2023-04-05T13:57:34Z</time>
      </trkpt>
      <trkpt lat="49.82983" lon="2.29278">
        <ele>72.8</ele>
        <time>2023-04-05T13:57:35Z</time>
      </trkpt>
      <trkpt lat="49.82982" lon="2.29277">
        <ele>72.9</ele>
        <time>2023-04-05T13:57:36Z</time>
      </trkpt>
      <trkpt lat="49.82982" lon="2.29276">
        <ele>72.9</ele>
        <time>2023-04-05T13:57:37Z</time>
      </trkpt>
      <trkpt lat="49.82981" lon="2.29275">
        <ele>73</ele>
        <time>2023-04-05T13:57:38Z</time>
      </trkpt>
      <trkpt lat="49.8298" lon="2.29275">
        <ele>73.1</ele>
        <time>2023-04-05T13:57:39Z</time>
      </trkpt>
      <trkpt lat="49.82979" lon="2.29274">
        <ele>73.1</ele>
        <time>2023-04-05T13:57:41Z</time>
      </trkpt>
      <trkpt lat="49.82978" lon="2.29272">
        <ele>73.2</ele>
        <time>2023-04-05T13:57:42Z</time>
      </trkpt>
      <trkpt lat="49.82976" lon="2.2927">
        <ele>73.3</ele>
        <time>2023-04-05T13:57:43Z</time>
      </trkpt>
      <trkpt lat="49.82975" lon="2.2927">
        <ele>73.4</ele>
        <time>2023-04-05T13:57:44Z</time>
      </trkpt>
      <trkpt lat="49.82975" lon="2.29269">
        <ele>73.4</ele>
        <time>2023-04-05T13:57:45Z</time>
      </trkpt>
      <trkpt lat="49.82973" lon="2.29268">
        <ele>73.5</ele>
        <time>2023-04-05T13:57:46Z</time>
      </trkpt>
      <trkpt lat="49.82972" lon="2.29267">
        <ele>73.5</ele>
        <time>2023-04-05T13:57:47Z</time>
      </trkpt>
      <trkpt lat="49.82972" lon="2.29266">
        <ele>73.6</ele>
        <time>2023-04-05T13:57:49Z</time>
      </trkpt>
      <trkpt lat="49.82971" lon="2.29265">
        <ele>73.6</ele>
        <time>2023-04-05T13:57:50Z</time>
      </trkpt>
      <trkpt lat="49.8297" lon="2.29264">
        <ele>73.7</ele>
        <time>2023-04-05T13:57:51Z</time>
      </trkpt>
      <trkpt lat="49.82969" lon="2.29263">
        <ele>73.8</ele>
        <time>2023-04-05T13:57:52Z</time>
      </trkpt>
      <trkpt lat="49.82968" lon="2.29262">
        <ele>73.8</ele>
        <time>2023-04-05T13:57:53Z</time>
      </trkpt>
      <trkpt lat="49.82967" lon="2.29261">
        <ele>73.9</ele>
        <time>2023-04-05T13:57:54Z</time>
      </trkpt>
      <trkpt lat="49.82966" lon="2.2926">
        <ele>73.9</ele>
        <time>2023-04-05T13:57:55Z</time>
      </trkpt>
      <trkpt lat="49.82966" lon="2.29259">
        <ele>74</ele>
        <time>2023-04-05T13:57:57Z</time>
      </trkpt>
      <trkpt lat="49.82965" lon="2.29259">
        <ele>74</ele>
        <time>2023-04-05T13:57:58Z</time>
      </trkpt>
      <trkpt lat="49.82964" lon="2.29258">
        <ele>74.1</ele>
        <time>2023-04-05T13:57:59Z</time>
      </trkpt>
      <trkpt lat="49.82963" lon="2.29258">
        <ele>74.1</ele>
        <time>2023-04-05T13:58:00Z</time>
      </trkpt>
      <trkpt lat="49.82962" lon="2.29257">
        <ele>74.2</ele>
        <time>2023-04-05T13:58:01Z</time>
      </trkpt>
      <trkpt lat="49.82962" lon="2.29257">
        <ele>74.2</ele>
        <time>2023-04-05T13:58:02Z</time>
      </trkpt>
      <trkpt lat="49.82961" lon="2.29256">
        <ele>74.3</ele>
        <time>2023-04-05T13:58:04Z</time>
      </trkpt>
      <trkpt lat="49.82961" lon="2.29256">
        <ele>74.3</ele>
        <time>2023-04-05T13:58:05Z</time>
      </trkpt>
      <trkpt lat="49.8296" lon="2.29255">
        <ele>74.3</ele>
        <time>2023-04-05T13:58:06Z</time>
      </trkpt>
      <trkpt lat="49.82959" lon="2.29254">
        <ele>74.4</ele>
        <time>2023-04-05T13:58:07Z</time>
      </trkpt>
      <trkpt lat="49.82959" lon="2.29253">
        <ele>74.4</ele>
        <time>2023-04-05T13:58:08Z</time>
      </trkpt>
      <trkpt lat="49.82958" lon="2.29253">
        <ele>74.5</ele>
        <time>2023-04-05T13:58:10Z</time>
      </trkpt>
      <trkpt lat="49.82957" lon="2.29252">
        <ele>74.5</ele>
        <time>2023-04-05T13:58:11Z</time>
      </trkpt>
      <trkpt lat="49.82956" lon="2.2925">
        <ele>74.6</ele>
        <time>2023-04-05T13:58:12Z</time>
      </trkpt>
      <trkpt lat="49.82955" lon="2.29249">
        <ele>74.7</ele>
        <time>2023-04-05T13:58:13Z</time>
      </trkpt>
      <trkpt lat="49.82954" lon="2.29248">
        <ele>74.8</ele>
        <time>2023-04-05T13:58:14Z</time>
      </trkpt>
      <trkpt lat="49.82952" lon="2.29246">
        <ele>74.9</ele>
        <time>2023-04-05T13:58:16Z</time>
      </trkpt>
      <trkpt lat="49.82951" lon="2.29245">
        <ele>75</ele>
        <time>2023-04-05T13:58:17Z</time>
      </trkpt>
      <trkpt lat="49.8295" lon="2.29244">
        <ele>75</ele>
        <time>2023-04-05T13:58:18Z</time>
      </trkpt>
      <trkpt lat="49.82949" lon="2.29243">
        <ele>75.1</ele>
        <time>2023-04-05T13:58:19Z</time>
      </trkpt>
      <trkpt lat="49.82948" lon="2.29242">
        <ele>75.2</ele>
        <time>2023-04-05T13:58:20Z</time>
      </trkpt>
      <trkpt lat="49.82947" lon="2.29242">
        <ele>75.3</ele>
        <time>2023-04-05T13:58:21Z</time>
      </trkpt>
      <trkpt lat="49.82946" lon="2.29241">
        <ele>75.3</ele>
        <time>2023-04-05T13:58:22Z</time>
      </trkpt>
      <trkpt lat="49.82945" lon="2.29241">
        <ele>75.4</ele>
        <time>2023-04-05T13:58:23Z</time>
      </trkpt>
      <trkpt lat="49.82944" lon="2.2924">
        <ele>75.5</ele>
        <time>2023-04-05T13:58:24Z</time>
      </trkpt>
      <trkpt lat="49.82943" lon="2.29239">
        <ele>75.5</ele>
        <time>2023-04-05T13:58:26Z</time>
      </trkpt>
      <trkpt lat="49.82942" lon="2.29238">
        <ele>75.6</ele>
        <time>2023-04-05T13:58:27Z</time>
      </trkpt>
      <trkpt lat="49.82941" lon="2.29237">
        <ele>75.7</ele>
        <time>2023-04-05T13:58:28Z</time>
      </trkpt>
      <trkpt lat="49.8294" lon="2.29236">
        <ele>75.7</ele>
        <time>2023-04-05T13:58:29Z</time>
      </trkpt>
      <trkpt lat="49.8294" lon="2.29236">
        <ele>75.8</ele>
        <time>2023-04-05T13:58:30Z</time>
      </trkpt>
      <trkpt lat="49.82939" lon="2.29235">
        <ele>75.9</ele>
        <time>2023-04-05T13:58:32Z</time>
      </trkpt>
      <trkpt lat="49.82938" lon="2.29234">
        <ele>75.9</ele>
        <time>2023-04-05T13:58:33Z</time>
      </trkpt>
      <trkpt lat="49.82937" lon="2.29233">
        <ele>76</ele>
        <time>2023-04-05T13:58:34Z</time>
      </trkpt>
      <trkpt lat="49.82935" lon="2.29232">
        <ele>76.1</ele>
        <time>2023-04-05T13:58:35Z</time>
      </trkpt>
      <trkpt lat="49.82934" lon="2.29231">
        <ele>76.2</ele>
        <time>2023-04-05T13:58:36Z</time>
      </trkpt>
      <trkpt lat="49.82933" lon="2.29231">
        <ele>76.2</ele>
        <time>2023-04-05T13:58:38Z</time>
      </trkpt>
      <trkpt lat="49.82932" lon="2.2923">
        <ele>76.3</ele>
        <time>2023-04-05T13:58:39Z</time>
      </trkpt>
      <trkpt lat="49.82931" lon="2.2923">
        <ele>76.4</ele>
        <time>2023-04-05T13:58:40Z</time>
      </trkpt>
      <trkpt lat="49.8293" lon="2.29229">
        <ele>76.4</ele>
        <time>2023-04-05T13:58:41Z</time>
      </trkpt>
      <trkpt lat="49.82929" lon="2.29228">
        <ele>76.5</ele>
        <time>2023-04-05T13:58:42Z</time>
      </trkpt>
      <trkpt lat="49.82928" lon="2.29227">
        <ele>76.6</ele>
        <time>2023-04-05T13:58:43Z</time>
      </trkpt>
      <trkpt lat="49.82927" lon="2.29226">
        <ele>76.7</ele>
        <time>2023-04-05T13:58:45Z</time>
      </trkpt>
      <trkpt lat="49.82926" lon="2.29224">
        <ele>76.8</ele>
        <time>2023-04-05T13:58:46Z</time>
      </trkpt>
      <trkpt lat="49.82924" lon="2.29222">
        <ele>77</ele>
        <time>2023-04-05T13:58:47Z</time>
      </trkpt>
      <trkpt lat="49.82923" lon="2.29221">
        <ele>77</ele>
        <time>2023-04-05T13:58:48Z</time>
      </trkpt>
      <trkpt lat="49.82921" lon="2.29221">
        <ele>77.1</ele>
        <time>2023-04-05T13:58:49Z</time>
      </trkpt>
      <trkpt lat="49.8292" lon="2.2922">
        <ele>77.2</ele>
        <time>2023-04-05T13:58:50Z</time>
      </trkpt>
      <trkpt lat="49.82919" lon="2.29219">
        <ele>77.3</ele>
        <time>2023-04-05T13:58:52Z</time>
      </trkpt>
      <trkpt lat="49.82917" lon="2.29218">
        <ele>77.4</ele>
        <time>2023-04-05T13:58:53Z</time>
      </trkpt>
      <trkpt lat="49.82916" lon="2.29216">
        <ele>77.5</ele>
        <time>2023-04-05T13:58:54Z</time>
      </trkpt>
      <trkpt lat="49.82915" lon="2.29216">
        <ele>77.6</ele>
        <time>2023-04-05T13:58:55Z</time>
      </trkpt>
      <trkpt lat="49.82914" lon="2.29215">
        <ele>77.7</ele>
        <time>2023-04-05T13:58:56Z</time>
      </trkpt>
      <trkpt lat="49.82913" lon="2.29213">
        <ele>77.8</ele>
        <time>2023-04-05T13:58:58Z</time>
      </trkpt>
      <trkpt lat="49.82911" lon="2.29212">
        <ele>77.9</ele>
        <time>2023-04-05T13:58:59Z</time>
      </trkpt>
      <trkpt lat="49.8291" lon="2.29211">
        <ele>78</ele>
        <time>2023-04-05T13:59:00Z</time>
      </trkpt>
      <trkpt lat="49.82909" lon="2.29211">
        <ele>78</ele>
        <time>2023-04-05T13:59:01Z</time>
      </trkpt>
      <trkpt lat="49.82907" lon="2.29209">
        <ele>78.2</ele>
        <time>2023-04-05T13:59:02Z</time>
      </trkpt>
      <trkpt lat="49.82906" lon="2.29208">
        <ele>78.3</ele>
        <time>2023-04-05T13:59:04Z</time>
      </trkpt>
      <trkpt lat="49.82905" lon="2.29207">
        <ele>78.4</ele>
        <time>2023-04-05T13:59:05Z</time>
      </trkpt>
      <trkpt lat="49.82905" lon="2.29206">
        <ele>78.5</ele>
        <time>2023-04-05T13:59:06Z</time>
      </trkpt>
      <trkpt lat="49.82904" lon="2.29206">
        <ele>78.5</ele>
        <time>2023-04-05T13:59:07Z</time>
      </trkpt>
      <trkpt lat="49.82902" lon="2.29205">
        <ele>78.7</ele>
        <time>2023-04-05T13:59:08Z</time>
      </trkpt>
      <trkpt lat="49.82901" lon="2.29204">
        <ele>78.8</ele>
        <time>2023-04-05T13:59:09Z</time>
      </trkpt>
      <trkpt lat="49.82899" lon="2.29202">
        <ele>78.9</ele>
        <time>2023-04-05T13:59:10Z</time>
      </trkpt>
      <trkpt lat="49.82898" lon="2.29201">
        <ele>79</ele>
        <time>2023-04-05T13:59:11Z</time>
      </trkpt>
      <trkpt lat="49.82898" lon="2.29201">
        <ele>79.1</ele>
        <time>2023-04-05T13:59:12Z</time>
      </trkpt>
      <trkpt lat="49.82897" lon="2.292">
        <ele>79.1</ele>
        <time>2023-04-05T13:59:14Z</time>
      </trkpt>
      <trkpt lat="49.82896" lon="2.29199">
        <ele>79.2</ele>
        <time>2023-04-05T13:59:15Z</time>
      </trkpt>
      <trkpt lat="49.82895" lon="2.29198">
        <ele>79.3</ele>
        <time>2023-04-05T13:59:16Z</time>
      </trkpt>
      <trkpt lat="49.82894" lon="2.29196">
        <ele>79.4</ele>
        <time>2023-04-05T13:59:17Z</time>
      </trkpt>
      <trkpt lat="49.82893" lon="2.29196">
        <ele>79.5</ele>
        <time>2023-04-05T13:59:19Z</time>
      </trkpt>
      <trkpt lat="49.82893" lon="2.29195">
        <ele>79.5</ele>
        <time>2023-04-05T13:59:20Z</time>
      </trkpt>
      <trkpt lat="49.82892" lon="2.29194">
        <ele>79.6</ele>
        <time>2023-04-05T13:59:21Z</time>
      </trkpt>
      <trkpt lat="49.82891" lon="2.29193">
        <ele>79.6</ele>
        <time>2023-04-05T13:59:22Z</time>
      </trkpt>
      <trkpt lat="49.8289" lon="2.29192">
        <ele>79.8</ele>
        <time>2023-04-05T13:59:23Z</time>
      </trkpt>
      <trkpt lat="49.82889" lon="2.29192">
        <ele>79.8</ele>
        <time>2023-04-05T13:59:24Z</time>
      </trkpt>
      <trkpt lat="49.82888" lon="2.29191">
        <ele>79.9</ele>
        <time>2023-04-05T13:59:25Z</time>
      </trkpt>
      <trkpt lat="49.82887" lon="2.29191">
        <ele>80</ele>
        <time>2023-04-05T13:59:27Z</time>
      </trkpt>
      <trkpt lat="49.82886" lon="2.2919">
        <ele>80.1</ele>
        <time>2023-04-05T13:59:28Z</time>
      </trkpt>
      <trkpt lat="49.82885" lon="2.2919">
        <ele>80.1</ele>
        <time>2023-04-05T13:59:29Z</time>
      </trkpt>
      <trkpt lat="49.82884" lon="2.29189">
        <ele>80.2</ele>
        <time>2023-04-05T13:59:30Z</time>
      </trkpt>
      <trkpt lat="49.82883" lon="2.29189">
        <ele>80.3</ele>
        <time>2023-04-05T13:59:31Z</time>
      </trkpt>
      <trkpt lat="49.82882" lon="2.29188">
        <ele>80.4</ele>
        <time>2023-04-05T13:59:32Z</time>
      </trkpt>
      <trkpt lat="49.82881" lon="2.29187">
        <ele>80.4</ele>
        <time>2023-04-05T13:59:33Z</time>
      </trkpt>
      <trkpt lat="49.8288" lon="2.29186">
        <ele>80.5</ele>
        <time>2023-04-05T13:59:34Z</time>
      </trkpt>
      <trkpt lat="49.82879" lon="2.29185">
        <ele>80.6</ele>
        <time>2023-04-05T13:59:36Z</time>
      </trkpt>
      <trkpt lat="49.82878" lon="2.29184">
        <ele>80.6</ele>
        <time>2023-04-05T13:59:37Z</time>
      </trkpt>
      <trkpt lat="49.82878" lon="2.29184">
        <ele>80.7</ele>
        <time>2023-04-05T13:59:38Z</time>
      </trkpt>
      <trkpt lat="49.82877" lon="2.29182">
        <ele>80.8</ele>
        <time>2023-04-05T13:59:39Z</time>
      </trkpt>
      <trkpt lat="49.82876" lon="2.29181">
        <ele>80.9</ele>
        <time>2023-04-05T13:59:40Z</time>
      </trkpt>
      <trkpt lat="49.82875" lon="2.2918">
        <ele>80.9</ele>
        <time>2023-04-05T13:59:42Z</time>
      </trkpt>
      <trkpt lat="49.82873" lon="2.29178">
        <ele>81.1</ele>
        <time>2023-04-05T13:59:43Z</time>
      </trkpt>
      <trkpt lat="49.82873" lon="2.29178">
        <ele>81.1</ele>
        <time>2023-04-05T13:59:44Z</time>
      </trkpt>
      <trkpt lat="49.82872" lon="2.29177">
        <ele>81.2</ele>
        <time>2023-04-05T13:59:45Z</time>
      </trkpt>
      <trkpt lat="49.82871" lon="2.29176">
        <ele>81.2</ele>
        <time>2023-04-05T13:59:46Z</time>
      </trkpt>
      <trkpt lat="49.8287" lon="2.29176">
        <ele>81.3</ele>
        <time>2023-04-05T13:59:47Z</time>
      </trkpt>
      <trkpt lat="49.82869" lon="2.29176">
        <ele>81.3</ele>
        <time>2023-04-05T13:59:49Z</time>
      </trkpt>
      <trkpt lat="49.82868" lon="2.29175">
        <ele>81.4</ele>
        <time>2023-04-05T13:59:50Z</time>
      </trkpt>
      <trkpt lat="49.82867" lon="2.29175">
        <ele>81.4</ele>
        <time>2023-04-05T13:59:51Z</time>
      </trkpt>
      <trkpt lat="49.82866" lon="2.29174">
        <ele>81.5</ele>
        <time>2023-04-05T13:59:52Z</time>
      </trkpt>
      <trkpt lat="49.82865" lon="2.29174">
        <ele>81.6</ele>
        <time>2023-04-05T13:59:53Z</time>
      </trkpt>
      <trkpt lat="49.82864" lon="2.29174">
        <ele>81.6</ele>
        <time>2023-04-05T13:59:55Z</time>
      </trkpt>
      <trkpt lat="49.82863" lon="2.29173">
        <ele>81.7</ele>
        <time>2023-04-05T13:59:56Z</time>
      </trkpt>
      <trkpt lat="49.82862" lon="2.29173">
        <ele>81.7</ele>
        <time>2023-04-05T13:59:57Z</time>
      </trkpt>
      <trkpt lat="49.82861" lon="2.29172">
        <ele>81.8</ele>
        <time>2023-04-05T13:59:58Z</time>
      </trkpt>
      <trkpt lat="49.8286" lon="2.29171">
        <ele>81.9</ele>
        <time>2023-04-05T13:59:59Z</time>
      </trkpt>
      <trkpt lat="49.82859" lon="2.2917">
        <ele>81.9</ele>
        <time>2023-04-05T14:00:00Z</time>
      </trkpt>
      <trkpt lat="49.82859" lon="2.29169">
        <ele>82</ele>
        <time>2023-04-05T14:00:02Z</time>
      </trkpt>
      <trkpt lat="49.82858" lon="2.29168">
        <ele>82</ele>
        <time>2023-04-05T14:00:03Z</time>
      </trkpt>
      <trkpt lat="49.82857" lon="2.29168">
        <ele>82.1</ele>
        <time>2023-04-05T14:00:04Z</time>
      </trkpt>
      <trkpt lat="49.82856" lon="2.29167">
        <ele>82.1</ele>
        <time>2023-04-05T14:00:05Z</time>
      </trkpt>
      <trkpt lat="49.82855" lon="2.29166">
        <ele>82.2</ele>
        <time>2023-04-05T14:00:06Z</time>
      </trkpt>
      <trkpt lat="49.82853" lon="2.29164">
        <ele>82.2</ele>
        <time>2023-04-05T14:00:08Z</time>
      </trkpt>
      <trkpt lat="49.82853" lon="2.29163">
        <ele>82.3</ele>
        <time>2023-04-05T14:00:09Z</time>
      </trkpt>
      <trkpt lat="49.82852" lon="2.29162">
        <ele>82.3</ele>
        <time>2023-04-05T14:00:10Z</time>
      </trkpt>
      <trkpt lat="49.82851" lon="2.2916">
        <ele>82.4</ele>
        <time>2023-04-05T14:00:11Z</time>
      </trkpt>
      <trkpt lat="49.8285" lon="2.29159">
        <ele>82.4</ele>
        <time>2023-04-05T14:00:12Z</time>
      </trkpt>
      <trkpt lat="49.82849" lon="2.29158">
        <ele>82.5</ele>
        <time>2023-04-05T14:00:13Z</time>
      </trkpt>
      <trkpt lat="49.82849" lon="2.29157">
        <ele>82.5</ele>
        <time>2023-04-05T14:00:15Z</time>
      </trkpt>
      <trkpt lat="49.82848" lon="2.29156">
        <ele>82.5</ele>
        <time>2023-04-05T14:00:16Z</time>
      </trkpt>
      <trkpt lat="49.82847" lon="2.29155">
        <ele>82.6</ele>
        <time>2023-04-05T14:00:17Z</time>
      </trkpt>
      <trkpt lat="49.82845" lon="2.29153">
        <ele>82.7</ele>
        <time>2023-04-05T14:00:18Z</time>
      </trkpt>
      <trkpt lat="49.82844" lon="2.29153">
        <ele>82.7</ele>
        <time>2023-04-05T14:00:19Z</time>
      </trkpt>
      <trkpt lat="49.82844" lon="2.29152">
        <ele>82.7</ele>
        <time>2023-04-05T14:00:20Z</time>
      </trkpt>
      <trkpt lat="49.82843" lon="2.29151">
        <ele>82.7</ele>
        <time>2023-04-05T14:00:21Z</time>
      </trkpt>
      <trkpt lat="49.82842" lon="2.2915">
        <ele>82.8</ele>
        <time>2023-04-05T14:00:23Z</time>
      </trkpt>
      <trkpt lat="49.82842" lon="2.29149">
        <ele>82.8</ele>
        <time>2023-04-05T14:00:24Z</time>
      </trkpt>
      <trkpt lat="49.8284" lon="2.29148">
        <ele>82.9</ele>
        <time>2023-04-05T14:00:25Z</time>
      </trkpt>
      <trkpt lat="49.82839" lon="2.29147">
        <ele>82.9</ele>
        <time>2023-04-05T14:00:26Z</time>
      </trkpt>
      <trkpt lat="49.82838" lon="2.29146">
        <ele>82.9</ele>
        <time>2023-04-05T14:00:27Z</time>
      </trkpt>
      <trkpt lat="49.82837" lon="2.29144">
        <ele>83</ele>
        <time>2023-04-05T14:00:28Z</time>
      </trkpt>
      <trkpt lat="49.82836" lon="2.29143">
        <ele>83</ele>
        <time>2023-04-05T14:00:29Z</time>
      </trkpt>
      <trkpt lat="49.82834" lon="2.29141">
        <ele>83.1</ele>
        <time>2023-04-05T14:00:30Z</time>
      </trkpt>
      <trkpt lat="49.82833" lon="2.2914">
        <ele>83.1</ele>
        <time>2023-04-05T14:00:32Z</time>
      </trkpt>
      <trkpt lat="49.82833" lon="2.29139">
        <ele>83.1</ele>
        <time>2023-04-05T14:00:33Z</time>
      </trkpt>
      <trkpt lat="49.82831" lon="2.29136">
        <ele>83.2</ele>
        <time>2023-04-05T14:00:34Z</time>
      </trkpt>
      <trkpt lat="49.8283" lon="2.29135">
        <ele>83.2</ele>
        <time>2023-04-05T14:00:35Z</time>
      </trkpt>
      <trkpt lat="49.8283" lon="2.29134">
        <ele>83.2</ele>
        <time>2023-04-05T14:00:36Z</time>
      </trkpt>
      <trkpt lat="49.82829" lon="2.29133">
        <ele>83.3</ele>
        <time>2023-04-05T14:00:37Z</time>
      </trkpt>
      <trkpt lat="49.82827" lon="2.29131">
        <ele>83.3</ele>
        <time>2023-04-05T14:00:38Z</time>
      </trkpt>
      <trkpt lat="49.82827" lon="2.2913">
        <ele>83.3</ele>
        <time>2023-04-05T14:00:40Z</time>
      </trkpt>
      <trkpt lat="49.82826" lon="2.29129">
        <ele>83.4</ele>
        <time>2023-04-05T14:00:41Z</time>
      </trkpt>
      <trkpt lat="49.82825" lon="2.29128">
        <ele>83.4</ele>
        <time>2023-04-05T14:00:42Z</time>
      </trkpt>
      <trkpt lat="49.82824" lon="2.29126">
        <ele>83.4</ele>
        <time>2023-04-05T14:00:43Z</time>
      </trkpt>
      <trkpt lat="49.82823" lon="2.29125">
        <ele>83.5</ele>
        <time>2023-04-05T14:00:44Z</time>
      </trkpt>
      <trkpt lat="49.82822" lon="2.29122">
        <ele>83.5</ele>
        <time>2023-04-05T14:00:45Z</time>
      </trkpt>
      <trkpt lat="49.82821" lon="2.29121">
        <ele>83.5</ele>
        <time>2023-04-05T14:00:46Z</time>
      </trkpt>
      <trkpt lat="49.82821" lon="2.2912">
        <ele>83.6</ele>
        <time>2023-04-05T14:00:47Z</time>
      </trkpt>
      <trkpt lat="49.8282" lon="2.29119">
        <ele>83.6</ele>
        <time>2023-04-05T14:00:49Z</time>
      </trkpt>
      <trkpt lat="49.8282" lon="2.29117">
        <ele>83.6</ele>
        <time>2023-04-05T14:00:50Z</time>
      </trkpt>
      <trkpt lat="49.82819" lon="2.29115">
        <ele>83.7</ele>
        <time>2023-04-05T14:00:51Z</time>
      </trkpt>
      <trkpt lat="49.82818" lon="2.29114">
        <ele>83.7</ele>
        <time>2023-04-05T14:00:52Z</time>
      </trkpt>
      <trkpt lat="49.82817" lon="2.29112">
        <ele>83.7</ele>
        <time>2023-04-05T14:00:53Z</time>
      </trkpt>
      <trkpt lat="49.82816" lon="2.2911">
        <ele>83.8</ele>
        <time>2023-04-05T14:00:54Z</time>
      </trkpt>
      <trkpt lat="49.82816" lon="2.29109">
        <ele>83.8</ele>
        <time>2023-04-05T14:00:56Z</time>
      </trkpt>
      <trkpt lat="49.82815" lon="2.29107">
        <ele>83.8</ele>
        <time>2023-04-05T14:00:57Z</time>
      </trkpt>
      <trkpt lat="49.82814" lon="2.29105">
        <ele>83.8</ele>
        <time>2023-04-05T14:00:58Z</time>
      </trkpt>
      <trkpt lat="49.82813" lon="2.29104">
        <ele>83.9</ele>
        <time>2023-04-05T14:00:59Z</time>
      </trkpt>
      <trkpt lat="49.82813" lon="2.29102">
        <ele>83.9</ele>
        <time>2023-04-05T14:01:00Z</time>
      </trkpt>
      <trkpt lat="49.82812" lon="2.29101">
        <ele>83.9</ele>
        <time>2023-04-05T14:01:01Z</time>
      </trkpt>
      <trkpt lat="49.82811" lon="2.29099">
        <ele>84</ele>
        <time>2023-04-05T14:01:03Z</time>
      </trkpt>
      <trkpt lat="49.82811" lon="2.29098">
        <ele>84</ele>
        <time>2023-04-05T14:01:04Z</time>
      </trkpt>
      <trkpt lat="49.8281" lon="2.29097">
        <ele>84</ele>
        <time>2023-04-05T14:01:05Z</time>
      </trkpt>
      <trkpt lat="49.82809" lon="2.29095">
        <ele>84</ele>
        <time>2023-04-05T14:01:06Z</time>
      </trkpt>
      <trkpt lat="49.82809" lon="2.29093">
        <ele>84.1</ele>
        <time>2023-04-05T14:01:07Z</time>
      </trkpt>
      <trkpt lat="49.82808" lon="2.29091">
        <ele>84.1</ele>
        <time>2023-04-05T14:01:08Z</time>
      </trkpt>
      <trkpt lat="49.82808" lon="2.2909">
        <ele>84.1</ele>
        <time>2023-04-05T14:01:10Z</time>
      </trkpt>
      <trkpt lat="49.82807" lon="2.29087">
        <ele>84.2</ele>
        <time>2023-04-05T14:01:11Z</time>
      </trkpt>
      <trkpt lat="49.82807" lon="2.29086">
        <ele>84.2</ele>
        <time>2023-04-05T14:01:12Z</time>
      </trkpt>
      <trkpt lat="49.82806" lon="2.29085">
        <ele>84.2</ele>
        <time>2023-04-05T14:01:13Z</time>
      </trkpt>
      <trkpt lat="49.82806" lon="2.29084">
        <ele>84.2</ele>
        <time>2023-04-05T14:01:15Z</time>
      </trkpt>
      <trkpt lat="49.82805" lon="2.29083">
        <ele>84.2</ele>
        <time>2023-04-05T14:01:16Z</time>
      </trkpt>
      <trkpt lat="49.82805" lon="2.29083">
        <ele>84.3</ele>
        <time>2023-04-05T14:01:18Z</time>
      </trkpt>
      <trkpt lat="49.82804" lon="2.29082">
        <ele>84.3</ele>
        <time>2023-04-05T14:01:19Z</time>
      </trkpt>
      <trkpt lat="49.82803" lon="2.29083">
        <ele>84.3</ele>
        <time>2023-04-05T14:01:20Z</time>
      </trkpt>
      <trkpt lat="49.82803" lon="2.29083">
        <ele>84.3</ele>
        <time>2023-04-05T14:01:22Z</time>
      </trkpt>
      <trkpt lat="49.82803" lon="2.29083">
        <ele>84.3</ele>
        <time>2023-04-05T14:01:23Z</time>
      </trkpt>
      <trkpt lat="49.82804" lon="2.29083">
        <ele>84.3</ele>
        <time>2023-04-05T14:01:25Z</time>
      </trkpt>
      <trkpt lat="49.82804" lon="2.29083">
        <ele>84.3</ele>
        <time>2023-04-05T14:01:26Z</time>
      </trkpt>
      <trkpt lat="49.82804" lon="2.29083">
        <ele>84.3</ele>
        <time>2023-04-05T14:01:28Z</time>
      </trkpt>
      <trkpt lat="49.82804" lon="2.29083">
        <ele>84.3</ele>
        <time>2023-04-05T14:01:29Z</time>
      </trkpt>
      <trkpt lat="49.82804" lon="2.29083">
        <ele>84.3</ele>
        <time>2023-04-05T14:01:30Z</time>
      </trkpt>
      <trkpt lat="49.82804" lon="2.29083">
        <ele>84.3</ele>
        <time>2023-04-05T14:01:32Z</time>
      </trkpt>
      <trkpt lat="49.82804" lon="2.29083">
        <ele>84.3</ele>
        <time>2023-04-05T14:01:33Z</time>
      </trkpt>
      <trkpt lat="49.82804" lon="2.29083">
        <ele>84.3</ele>
        <time>2023-04-05T14:01:35Z</time>
      </trkpt>
      <trkpt lat="49.82804" lon="2.29083">
        <ele>84.3</ele>
        <time>2023-04-05T14:01:36Z</time>
      </trkpt>
      <trkpt lat="49.82804" lon="2.29083">
        <ele>84.3</ele>
        <time>2023-04-05T14:01:37Z</time>
      </trkpt>
      <trkpt lat="49.82804" lon="2.29083">
        <ele>84.3</ele>
        <time>2023-04-05T14:01:38Z</time>
      </trkpt>
      <trkpt lat="49.82804" lon="2.29084">
        <ele>84.3</ele>
        <time>2023-04-05T14:01:39Z</time>
      </trkpt>
      <trkpt lat="49.82804" lon="2.29084">
        <ele>84.3</ele>
        <time>2023-04-05T14:01:40Z</time>
      </trkpt>
      <trkpt lat="49.82804" lon="2.29084">
        <ele>84.3</ele>
        <time>2023-04-05T14:01:41Z</time>
      </trkpt>
      <trkpt lat="49.82804" lon="2.29084">
        <ele>84.3</ele>
        <time>2023-04-05T14:01:42Z</time>
      </trkpt>
      <trkpt lat="49.82804" lon="2.29084">
        <ele>84.3</ele>
        <time>2023-04-05T14:01:43Z</time>
      </trkpt>
      <trkpt lat="49.82804" lon="2.29084">
        <ele>84.3</ele>
        <time>2023-04-05T14:01:44Z</time>
      </trkpt>
      <trkpt lat="49.82804" lon="2.29084">
        <ele>84.3</ele>
        <time>2023-04-05T14:01:45Z</time>
      </trkpt>
      <trkpt lat="49.82804" lon="2.29084">
        <ele>84.3</ele>
        <time>2023-04-05T14:01:46Z</time>
      </trkpt>
      <trkpt lat="49.82805" lon="2.29084">
        <ele>84.3</ele>
        <time>2023-04-05T14:01:47Z</time>
      </trkpt>
      <trkpt lat="49.82805" lon="2.29084">
        <ele>84.3</ele>
        <time>2023-04-05T14:01:48Z</time>
      </trkpt>
      <trkpt lat="49.82805" lon="2.29084">
        <ele>84.3</ele>
        <time>2023-04-05T14:01:49Z</time>
      </trkpt>
      <trkpt lat="49.82805" lon="2.29084">
        <ele>84.3</ele>
        <time>2023-04-05T14:01:50Z</time>
      </trkpt>
      <trkpt lat="49.82805" lon="2.29084">
        <ele>84.3</ele>
        <time>2023-04-05T14:01:51Z</time>
      </trkpt>
      <trkpt lat="49.82805" lon="2.29084">
        <ele>84.3</ele>
        <time>2023-04-05T14:01:52Z</time>
      </trkpt>
      <trkpt lat="49.82805" lon="2.29084">
        <ele>84.3</ele>
        <time>2023-04-05T14:01:53Z</time>
      </trkpt>
      <trkpt lat="49.82805" lon="2.29084">
        <ele>84.3</ele>
        <time>2023-04-05T14:01:54Z</time>
      </trkpt>
      <trkpt lat="49.82805" lon="2.29084">
        <ele>84.3</ele>
        <time>2023-04-05T14:01:55Z</time>
      </trkpt>
      <trkpt lat="49.82805" lon="2.29085">
        <ele>84.3</ele>
        <time>2023-04-05T14:01:56Z</time>
      </trkpt>
      <trkpt lat="49.82805" lon="2.29085">
        <ele>84.4</ele>
        <time>2023-04-05T14:01:57Z</time>
      </trkpt>
      <trkpt lat="49.82805" lon="2.29085">
        <ele>84.4</ele>
        <time>2023-04-05T14:01:58Z</time>
      </trkpt>
      <trkpt lat="49.82805" lon="2.29085">
        <ele>84.4</ele>
        <time>2023-04-05T14:01:59Z</time>
      </trkpt>
      <trkpt lat="49.82805" lon="2.29085">
        <ele>84.4</ele>
        <time>2023-04-05T14:02:00Z</time>
      </trkpt>
      <trkpt lat="49.82805" lon="2.29085">
        <ele>84.4</ele>
        <time>2023-04-05T14:02:01Z</time>
      </trkpt>
      <trkpt lat="49.82805" lon="2.29085">
        <ele>84.4</ele>
        <time>2023-04-05T14:02:02Z</time>
      </trkpt>
      <trkpt lat="49.82805" lon="2.29085">
        <ele>84.4</ele>
        <time>2023-04-05T14:02:03Z</time>
      </trkpt>
      <trkpt lat="49.82805" lon="2.29085">
        <ele>84.4</ele>
        <time>2023-04-05T14:02:04Z</time>
      </trkpt>
      <trkpt lat="49.82805" lon="2.29085">
        <ele>84.4</ele>
        <time>2023-04-05T14:02:05Z</time>
      </trkpt>
      <trkpt lat="49.82806" lon="2.29085">
        <ele>84.4</ele>
        <time>2023-04-05T14:02:06Z</time>
      </trkpt>
      <trkpt lat="49.82806" lon="2.29085">
        <ele>84.4</ele>
        <time>2023-04-05T14:02:07Z</time>
      </trkpt>
      <trkpt lat="49.82806" lon="2.29085">
        <ele>84.4</ele>
        <time>2023-04-05T14:02:08Z</time>
      </trkpt>
      <trkpt lat="49.82806" lon="2.29085">
        <ele>84.4</ele>
        <time>2023-04-05T14:02:09Z</time>
      </trkpt>
      <trkpt lat="49.82806" lon="2.29085">
        <ele>84.4</ele>
        <time>2023-04-05T14:02:10Z</time>
      </trkpt>
      <trkpt lat="49.82806" lon="2.29085">
        <ele>84.4</ele>
        <time>2023-04-05T14:02:11Z</time>
      </trkpt>
      <trkpt lat="49.82806" lon="2.29085">
        <ele>84.4</ele>
        <time>2023-04-05T14:02:12Z</time>
      </trkpt>
      <trkpt lat="49.82806" lon="2.29086">
        <ele>84.4</ele>
        <time>2023-04-05T14:02:13Z</time>
      </trkpt>
      <trkpt lat="49.82806" lon="2.29086">
        <ele>84.4</ele>
        <time>2023-04-05T14:02:14Z</time>
      </trkpt>
      <trkpt lat="49.82806" lon="2.29086">
        <ele>84.4</ele>
        <time>2023-04-05T14:02:15Z</time>
      </trkpt>
      <trkpt lat="49.82806" lon="2.29086">
        <ele>84.4</ele>
        <time>2023-04-05T14:02:16Z</time>
      </trkpt>
      <trkpt lat="49.82806" lon="2.29086">
        <ele>84.4</ele>
        <time>2023-04-05T14:02:17Z</time>
      </trkpt>
      <trkpt lat="49.82806" lon="2.29086">
        <ele>84.4</ele>
        <time>2023-04-05T14:02:18Z</time>
      </trkpt>
      <trkpt lat="49.82806" lon="2.29086">
        <ele>84.4</ele>
        <time>2023-04-05T14:02:19Z</time>
      </trkpt>
      <trkpt lat="49.82806" lon="2.29086">
        <ele>84.4</ele>
        <time>2023-04-05T14:02:20Z</time>
      </trkpt>
      <trkpt lat="49.82806" lon="2.29086">
        <ele>84.4</ele>
        <time>2023-04-05T14:02:21Z</time>
      </trkpt>
      <trkpt lat="49.82806" lon="2.29086">
        <ele>84.4</ele>
        <time>2023-04-05T14:02:22Z</time>
      </trkpt>
      <trkpt lat="49.82806" lon="2.29086">
        <ele>84.4</ele>
        <time>2023-04-05T14:02:23Z</time>
      </trkpt>
      <trkpt lat="49.82806" lon="2.29086">
        <ele>84.4</ele>
        <time>2023-04-05T14:02:24Z</time>
      </trkpt>
      <trkpt lat="49.82807" lon="2.29086">
        <ele>84.4</ele>
        <time>2023-04-05T14:02:25Z</time>
      </trkpt>
      <trkpt lat="49.82807" lon="2.29086">
        <ele>84.4</ele>
        <time>2023-04-05T14:02:26Z</time>
      </trkpt>
      <trkpt lat="49.82807" lon="2.29086">
        <ele>84.4</ele>
        <time>2023-04-05T14:02:27Z</time>
      </trkpt>
      <trkpt lat="49.82807" lon="2.29086">
        <ele>84.4</ele>
        <time>2023-04-05T14:02:28Z</time>
      </trkpt>
      <trkpt lat="49.82807" lon="2.29086">
        <ele>84.4</ele>
        <time>2023-04-05T14:02:29Z</time>
      </trkpt>
      <trkpt lat="49.82807" lon="2.29087">
        <ele>84.4</ele>
        <time>2023-04-05T14:02:30Z</time>
      </trkpt>
      <trkpt lat="49.82807" lon="2.29087">
        <ele>84.4</ele>
        <time>2023-04-05T14:02:31Z</time>
      </trkpt>
      <trkpt lat="49.82807" lon="2.29087">
        <ele>84.4</ele>
        <time>2023-04-05T14:02:32Z</time>
      </trkpt>
      <trkpt lat="49.82807" lon="2.29087">
        <ele>84.4</ele>
        <time>2023-04-05T14:02:33Z</time>
      </trkpt>
      <trkpt lat="49.82807" lon="2.29087">
        <ele>84.4</ele>
        <time>2023-04-05T14:02:34Z</time>
      </trkpt>
      <trkpt lat="49.82807" lon="2.29087">
        <ele>84.4</ele>
        <time>2023-04-05T14:02:35Z</time>
      </trkpt>
      <trkpt lat="49.82807" lon="2.29087">
        <ele>84.4</ele>
        <time>2023-04-05T14:02:36Z</time>
      </trkpt>
      <trkpt lat="49.82807" lon="2.29087">
        <ele>84.4</ele>
        <time>2023-04-05T14:02:37Z</time>
      </trkpt>
      <trkpt lat="49.82807" lon="2.29087">
        <ele>84.4</ele>
        <time>2023-04-05T14:02:38Z</time>
      </trkpt>
      <trkpt lat="49.82807" lon="2.29087">
        <ele>84.4</ele>
        <time>2023-04-05T14:02:39Z</time>
      </trkpt>
      <trkpt lat="49.82809" lon="2.29088">
        <ele>84.5</ele>
        <time>2023-04-05T14:02:40Z</time>
      </trkpt>
      <trkpt lat="49.82809" lon="2.29088">
        <ele>84.5</ele>
        <time>2023-04-05T14:02:41Z</time>
      </trkpt>
      <trkpt lat="49.82808" lon="2.29086">
        <ele>84.5</ele>
        <time>2023-04-05T14:02:42Z</time>
      </trkpt>
      <trkpt lat="49.82807" lon="2.29085">
        <ele>84.5</ele>
        <time>2023-04-05T14:02:43Z</time>
      </trkpt>
      <trkpt lat="49.82807" lon="2.29084">
        <ele>84.6</ele>
        <time>2023-04-05T14:02:44Z</time>
      </trkpt>
      <trkpt lat="49.82806" lon="2.29083">
        <ele>84.6</ele>
        <time>2023-04-05T14:02:45Z</time>
      </trkpt>
      <trkpt lat="49.82805" lon="2.2908">
        <ele>84.6</ele>
        <time>2023-04-05T14:02:46Z</time>
      </trkpt>
      <trkpt lat="49.82804" lon="2.29079">
        <ele>84.7</ele>
        <time>2023-04-05T14:02:47Z</time>
      </trkpt>
      <trkpt lat="49.82804" lon="2.29078">
        <ele>84.7</ele>
        <time>2023-04-05T14:02:48Z</time>
      </trkpt>
      <trkpt lat="49.82803" lon="2.29077">
        <ele>84.7</ele>
        <time>2023-04-05T14:02:49Z</time>
      </trkpt>
      <trkpt lat="49.82803" lon="2.29075">
        <ele>84.7</ele>
        <time>2023-04-05T14:02:50Z</time>
      </trkpt>
      <trkpt lat="49.82802" lon="2.29074">
        <ele>84.8</ele>
        <time>2023-04-05T14:02:51Z</time>
      </trkpt>
      <trkpt lat="49.82801" lon="2.29071">
        <ele>84.8</ele>
        <time>2023-04-05T14:02:52Z</time>
      </trkpt>
      <trkpt lat="49.82801" lon="2.2907">
        <ele>84.8</ele>
        <time>2023-04-05T14:02:53Z</time>
      </trkpt>
      <trkpt lat="49.828" lon="2.29069">
        <ele>84.9</ele>
        <time>2023-04-05T14:02:54Z</time>
      </trkpt>
      <trkpt lat="49.82799" lon="2.29066">
        <ele>84.9</ele>
        <time>2023-04-05T14:02:55Z</time>
      </trkpt>
      <trkpt lat="49.82799" lon="2.29065">
        <ele>84.9</ele>
        <time>2023-04-05T14:02:56Z</time>
      </trkpt>
      <trkpt lat="49.82799" lon="2.29064">
        <ele>85</ele>
        <time>2023-04-05T14:02:57Z</time>
      </trkpt>
      <trkpt lat="49.82798" lon="2.29062">
        <ele>85</ele>
        <time>2023-04-05T14:02:58Z</time>
      </trkpt>
      <trkpt lat="49.82798" lon="2.29061">
        <ele>85</ele>
        <time>2023-04-05T14:02:59Z</time>
      </trkpt>
      <trkpt lat="49.82797" lon="2.2906">
        <ele>85.1</ele>
        <time>2023-04-05T14:03:00Z</time>
      </trkpt>
      <trkpt lat="49.82796" lon="2.29057">
        <ele>85.1</ele>
        <time>2023-04-05T14:03:01Z</time>
      </trkpt>
      <trkpt lat="49.82796" lon="2.29055">
        <ele>85.1</ele>
        <time>2023-04-05T14:03:02Z</time>
      </trkpt>
      <trkpt lat="49.82795" lon="2.29054">
        <ele>85.2</ele>
        <time>2023-04-05T14:03:03Z</time>
      </trkpt>
      <trkpt lat="49.82794" lon="2.29052">
        <ele>85.2</ele>
        <time>2023-04-05T14:03:04Z</time>
      </trkpt>
      <trkpt lat="49.82793" lon="2.2905">
        <ele>85.2</ele>
        <time>2023-04-05T14:03:05Z</time>
      </trkpt>
      <trkpt lat="49.82792" lon="2.29048">
        <ele>85.3</ele>
        <time>2023-04-05T14:03:06Z</time>
      </trkpt>
      <trkpt lat="49.82791" lon="2.29045">
        <ele>85.3</ele>
        <time>2023-04-05T14:03:07Z</time>
      </trkpt>
      <trkpt lat="49.82791" lon="2.29044">
        <ele>85.4</ele>
        <time>2023-04-05T14:03:09Z</time>
      </trkpt>
      <trkpt lat="49.8279" lon="2.29043">
        <ele>85.4</ele>
        <time>2023-04-05T14:03:10Z</time>
      </trkpt>
      <trkpt lat="49.8279" lon="2.29041">
        <ele>85.4</ele>
        <time>2023-04-05T14:03:11Z</time>
      </trkpt>
      <trkpt lat="49.82789" lon="2.29039">
        <ele>85.5</ele>
        <time>2023-04-05T14:03:12Z</time>
      </trkpt>
      <trkpt lat="49.82788" lon="2.29038">
        <ele>85.5</ele>
        <time>2023-04-05T14:03:13Z</time>
      </trkpt>
      <trkpt lat="49.82787" lon="2.29037">
        <ele>85.5</ele>
        <time>2023-04-05T14:03:14Z</time>
      </trkpt>
      <trkpt lat="49.82786" lon="2.29036">
        <ele>85.5</ele>
        <time>2023-04-05T14:03:16Z</time>
      </trkpt>
      <trkpt lat="49.82786" lon="2.29034">
        <ele>85.6</ele>
        <time>2023-04-05T14:03:17Z</time>
      </trkpt>
      <trkpt lat="49.82784" lon="2.29031">
        <ele>85.6</ele>
        <time>2023-04-05T14:03:18Z</time>
      </trkpt>
      <trkpt lat="49.82784" lon="2.2903">
        <ele>85.7</ele>
        <time>2023-04-05T14:03:19Z</time>
      </trkpt>
      <trkpt lat="49.82783" lon="2.29029">
        <ele>85.7</ele>
        <time>2023-04-05T14:03:20Z</time>
      </trkpt>
      <trkpt lat="49.82783" lon="2.29028">
        <ele>85.7</ele>
        <time>2023-04-05T14:03:21Z</time>
      </trkpt>
      <trkpt lat="49.82782" lon="2.29025">
        <ele>85.8</ele>
        <time>2023-04-05T14:03:22Z</time>
      </trkpt>
      <trkpt lat="49.82781" lon="2.29023">
        <ele>85.8</ele>
        <time>2023-04-05T14:03:24Z</time>
      </trkpt>
      <trkpt lat="49.82781" lon="2.29022">
        <ele>85.8</ele>
        <time>2023-04-05T14:03:25Z</time>
      </trkpt>
      <trkpt lat="49.8278" lon="2.2902">
        <ele>85.9</ele>
        <time>2023-04-05T14:03:26Z</time>
      </trkpt>
      <trkpt lat="49.8278" lon="2.29018">
        <ele>85.9</ele>
        <time>2023-04-05T14:03:28Z</time>
      </trkpt>
      <trkpt lat="49.82779" lon="2.29017">
        <ele>85.9</ele>
        <time>2023-04-05T14:03:29Z</time>
      </trkpt>
      <trkpt lat="49.82779" lon="2.29015">
        <ele>86</ele>
        <time>2023-04-05T14:03:30Z</time>
      </trkpt>
      <trkpt lat="49.82778" lon="2.29013">
        <ele>86</ele>
        <time>2023-04-05T14:03:31Z</time>
      </trkpt>
      <trkpt lat="49.82778" lon="2.29011">
        <ele>86.1</ele>
        <time>2023-04-05T14:03:32Z</time>
      </trkpt>
      <trkpt lat="49.82777" lon="2.2901">
        <ele>86.1</ele>
        <time>2023-04-05T14:03:33Z</time>
      </trkpt>
      <trkpt lat="49.82777" lon="2.29008">
        <ele>86.1</ele>
        <time>2023-04-05T14:03:34Z</time>
      </trkpt>
      <trkpt lat="49.82776" lon="2.29007">
        <ele>86.1</ele>
        <time>2023-04-05T14:03:36Z</time>
      </trkpt>
      <trkpt lat="49.82776" lon="2.29006">
        <ele>86.2</ele>
        <time>2023-04-05T14:03:37Z</time>
      </trkpt>
      <trkpt lat="49.82776" lon="2.29005">
        <ele>86.2</ele>
        <time>2023-04-05T14:03:38Z</time>
      </trkpt>
      <trkpt lat="49.82775" lon="2.29003">
        <ele>86.2</ele>
        <time>2023-04-05T14:03:39Z</time>
      </trkpt>
      <trkpt lat="49.82775" lon="2.29002">
        <ele>86.2</ele>
        <time>2023-04-05T14:03:40Z</time>
      </trkpt>
      <trkpt lat="49.82775" lon="2.29001">
        <ele>86.3</ele>
        <time>2023-04-05T14:03:41Z</time>
      </trkpt>
      <trkpt lat="49.82774" lon="2.28999">
        <ele>86.3</ele>
        <time>2023-04-05T14:03:42Z</time>
      </trkpt>
      <trkpt lat="49.82774" lon="2.28998">
        <ele>86.3</ele>
        <time>2023-04-05T14:03:43Z</time>
      </trkpt>
      <trkpt lat="49.82774" lon="2.28996">
        <ele>86.3</ele>
        <time>2023-04-05T14:03:44Z</time>
      </trkpt>
      <trkpt lat="49.82773" lon="2.28994">
        <ele>86.4</ele>
        <time>2023-04-05T14:03:45Z</time>
      </trkpt>
      <trkpt lat="49.82773" lon="2.28992">
        <ele>86.4</ele>
        <time>2023-04-05T14:03:46Z</time>
      </trkpt>
      <trkpt lat="49.82772" lon="2.2899">
        <ele>86.5</ele>
        <time>2023-04-05T14:03:48Z</time>
      </trkpt>
      <trkpt lat="49.82771" lon="2.28989">
        <ele>86.5</ele>
        <time>2023-04-05T14:03:49Z</time>
      </trkpt>
      <trkpt lat="49.82771" lon="2.28987">
        <ele>86.5</ele>
        <time>2023-04-05T14:03:50Z</time>
      </trkpt>
      <trkpt lat="49.8277" lon="2.28986">
        <ele>86.5</ele>
        <time>2023-04-05T14:03:51Z</time>
      </trkpt>
      <trkpt lat="49.8277" lon="2.28984">
        <ele>86.6</ele>
        <time>2023-04-05T14:03:52Z</time>
      </trkpt>
      <trkpt lat="49.82769" lon="2.28982">
        <ele>86.6</ele>
        <time>2023-04-05T14:03:53Z</time>
      </trkpt>
      <trkpt lat="49.82769" lon="2.28981">
        <ele>86.6</ele>
        <time>2023-04-05T14:03:54Z</time>
      </trkpt>
      <trkpt lat="49.82768" lon="2.28978">
        <ele>86.7</ele>
        <time>2023-04-05T14:03:56Z</time>
      </trkpt>
      <trkpt lat="49.82768" lon="2.28977">
        <ele>86.7</ele>
        <time>2023-04-05T14:03:57Z</time>
      </trkpt>
      <trkpt lat="49.82767" lon="2.28975">
        <ele>86.7</ele>
        <time>2023-04-05T14:03:58Z</time>
      </trkpt>
      <trkpt lat="49.82767" lon="2.28974">
        <ele>86.7</ele>
        <time>2023-04-05T14:03:59Z</time>
      </trkpt>
      <trkpt lat="49.82767" lon="2.28972">
        <ele>86.7</ele>
        <time>2023-04-05T14:04:00Z</time>
      </trkpt>
      <trkpt lat="49.82766" lon="2.2897">
        <ele>86.8</ele>
        <time>2023-04-05T14:04:01Z</time>
      </trkpt>
      <trkpt lat="49.82766" lon="2.28968">
        <ele>86.8</ele>
        <time>2023-04-05T14:04:02Z</time>
      </trkpt>
      <trkpt lat="49.82765" lon="2.28967">
        <ele>86.8</ele>
        <time>2023-04-05T14:04:04Z</time>
      </trkpt>
      <trkpt lat="49.82765" lon="2.28966">
        <ele>86.8</ele>
        <time>2023-04-05T14:04:05Z</time>
      </trkpt>
      <trkpt lat="49.82764" lon="2.28963">
        <ele>86.9</ele>
        <time>2023-04-05T14:04:06Z</time>
      </trkpt>
      <trkpt lat="49.82763" lon="2.28962">
        <ele>86.9</ele>
        <time>2023-04-05T14:04:07Z</time>
      </trkpt>
      <trkpt lat="49.82763" lon="2.28961">
        <ele>86.9</ele>
        <time>2023-04-05T14:04:08Z</time>
      </trkpt>
      <trkpt lat="49.82762" lon="2.28959">
        <ele>86.9</ele>
        <time>2023-04-05T14:04:09Z</time>
      </trkpt>
      <trkpt lat="49.82762" lon="2.28958">
        <ele>86.9</ele>
        <time>2023-04-05T14:04:10Z</time>
      </trkpt>
      <trkpt lat="49.82761" lon="2.28956">
        <ele>87</ele>
        <time>2023-04-05T14:04:12Z</time>
      </trkpt>
      <trkpt lat="49.82761" lon="2.28955">
        <ele>87</ele>
        <time>2023-04-05T14:04:13Z</time>
      </trkpt>
      <trkpt lat="49.8276" lon="2.28953">
        <ele>87</ele>
        <time>2023-04-05T14:04:14Z</time>
      </trkpt>
      <trkpt lat="49.82759" lon="2.28952">
        <ele>87</ele>
        <time>2023-04-05T14:04:15Z</time>
      </trkpt>
      <trkpt lat="49.82758" lon="2.28949">
        <ele>87.1</ele>
        <time>2023-04-05T14:04:16Z</time>
      </trkpt>
      <trkpt lat="49.82758" lon="2.28947">
        <ele>87.1</ele>
        <time>2023-04-05T14:04:17Z</time>
      </trkpt>
      <trkpt lat="49.82757" lon="2.28946">
        <ele>87.1</ele>
        <time>2023-04-05T14:04:19Z</time>
      </trkpt>
      <trkpt lat="49.82757" lon="2.28945">
        <ele>87.1</ele>
        <time>2023-04-05T14:04:20Z</time>
      </trkpt>
      <trkpt lat="49.82756" lon="2.28943">
        <ele>87.2</ele>
        <time>2023-04-05T14:04:21Z</time>
      </trkpt>
      <trkpt lat="49.82755" lon="2.28942">
        <ele>87.2</ele>
        <time>2023-04-05T14:04:22Z</time>
      </trkpt>
      <trkpt lat="49.82755" lon="2.2894">
        <ele>87.2</ele>
        <time>2023-04-05T14:04:23Z</time>
      </trkpt>
      <trkpt lat="49.82754" lon="2.28939">
        <ele>87.2</ele>
        <time>2023-04-05T14:04:24Z</time>
      </trkpt>
      <trkpt lat="49.82754" lon="2.28937">
        <ele>87.3</ele>
        <time>2023-04-05T14:04:26Z</time>
      </trkpt>
      <trkpt lat="49.82753" lon="2.28936">
        <ele>87.3</ele>
        <time>2023-04-05T14:04:27Z</time>
      </trkpt>
      <trkpt lat="49.82752" lon="2.28934">
        <ele>87.3</ele>
        <time>2023-04-05T14:04:28Z</time>
      </trkpt>
      <trkpt lat="49.82752" lon="2.28933">
        <ele>87.3</ele>
        <time>2023-04-05T14:04:29Z</time>
      </trkpt>
      <trkpt lat="49.82751" lon="2.28932">
        <ele>87.4</ele>
        <time>2023-04-05T14:04:30Z</time>
      </trkpt>
      <trkpt lat="49.82751" lon="2.2893">
        <ele>87.4</ele>
        <time>2023-04-05T14:04:31Z</time>
      </trkpt>
      <trkpt lat="49.8275" lon="2.28928">
        <ele>87.4</ele>
        <time>2023-04-05T14:04:33Z</time>
      </trkpt>
      <trkpt lat="49.82749" lon="2.28927">
        <ele>87.4</ele>
        <time>2023-04-05T14:04:34Z</time>
      </trkpt>
      <trkpt lat="49.82749" lon="2.28925">
        <ele>87.5</ele>
        <time>2023-04-05T14:04:35Z</time>
      </trkpt>
      <trkpt lat="49.82748" lon="2.28924">
        <ele>87.5</ele>
        <time>2023-04-05T14:04:36Z</time>
      </trkpt>
      <trkpt lat="49.82747" lon="2.28921">
        <ele>87.5</ele>
        <time>2023-04-05T14:04:37Z</time>
      </trkpt>
      <trkpt lat="49.82746" lon="2.2892">
        <ele>87.6</ele>
        <time>2023-04-05T14:04:38Z</time>
      </trkpt>
      <trkpt lat="49.82746" lon="2.28919">
        <ele>87.6</ele>
        <time>2023-04-05T14:04:39Z</time>
      </trkpt>
      <trkpt lat="49.82745" lon="2.28917">
        <ele>87.6</ele>
        <time>2023-04-05T14:04:41Z</time>
      </trkpt>
      <trkpt lat="49.82744" lon="2.28916">
        <ele>87.6</ele>
        <time>2023-04-05T14:04:42Z</time>
      </trkpt>
      <trkpt lat="49.82744" lon="2.28915">
        <ele>87.7</ele>
        <time>2023-04-05T14:04:43Z</time>
      </trkpt>
      <trkpt lat="49.82743" lon="2.28913">
        <ele>87.7</ele>
        <time>2023-04-05T14:04:44Z</time>
      </trkpt>
      <trkpt lat="49.82742" lon="2.28911">
        <ele>87.7</ele>
        <time>2023-04-05T14:04:45Z</time>
      </trkpt>
      <trkpt lat="49.82742" lon="2.2891">
        <ele>87.7</ele>
        <time>2023-04-05T14:04:46Z</time>
      </trkpt>
      <trkpt lat="49.82741" lon="2.28906">
        <ele>87.8</ele>
        <time>2023-04-05T14:04:47Z</time>
      </trkpt>
      <trkpt lat="49.8274" lon="2.28905">
        <ele>87.8</ele>
        <time>2023-04-05T14:04:48Z</time>
      </trkpt>
      <trkpt lat="49.8274" lon="2.28904">
        <ele>87.9</ele>
        <time>2023-04-05T14:04:50Z</time>
      </trkpt>
      <trkpt lat="49.82739" lon="2.28903">
        <ele>87.9</ele>
        <time>2023-04-05T14:04:51Z</time>
      </trkpt>
      <trkpt lat="49.82739" lon="2.28901">
        <ele>87.9</ele>
        <time>2023-04-05T14:04:52Z</time>
      </trkpt>
      <trkpt lat="49.82739" lon="2.289">
        <ele>87.9</ele>
        <time>2023-04-05T14:04:53Z</time>
      </trkpt>
      <trkpt lat="49.82738" lon="2.28898">
        <ele>87.9</ele>
        <time>2023-04-05T14:04:54Z</time>
      </trkpt>
      <trkpt lat="49.82738" lon="2.28897">
        <ele>88</ele>
        <time>2023-04-05T14:04:55Z</time>
      </trkpt>
      <trkpt lat="49.82737" lon="2.28895">
        <ele>88</ele>
        <time>2023-04-05T14:04:56Z</time>
      </trkpt>
      <trkpt lat="49.82736" lon="2.28892">
        <ele>88</ele>
        <time>2023-04-05T14:04:57Z</time>
      </trkpt>
      <trkpt lat="49.82736" lon="2.28891">
        <ele>88</ele>
        <time>2023-04-05T14:04:59Z</time>
      </trkpt>
      <trkpt lat="49.82736" lon="2.2889">
        <ele>88</ele>
        <time>2023-04-05T14:05:00Z</time>
      </trkpt>
      <trkpt lat="49.82735" lon="2.28887">
        <ele>88.1</ele>
        <time>2023-04-05T14:05:01Z</time>
      </trkpt>
      <trkpt lat="49.82734" lon="2.28886">
        <ele>88.1</ele>
        <time>2023-04-05T14:05:02Z</time>
      </trkpt>
      <trkpt lat="49.82734" lon="2.28884">
        <ele>88.1</ele>
        <time>2023-04-05T14:05:03Z</time>
      </trkpt>
      <trkpt lat="49.82733" lon="2.28883">
        <ele>88.1</ele>
        <time>2023-04-05T14:05:05Z</time>
      </trkpt>
      <trkpt lat="49.82733" lon="2.28882">
        <ele>88.2</ele>
        <time>2023-04-05T14:05:06Z</time>
      </trkpt>
      <trkpt lat="49.82732" lon="2.2888">
        <ele>88.2</ele>
        <time>2023-04-05T14:05:07Z</time>
      </trkpt>
      <trkpt lat="49.82731" lon="2.28877">
        <ele>88.2</ele>
        <time>2023-04-05T14:05:08Z</time>
      </trkpt>
      <trkpt lat="49.82731" lon="2.28876">
        <ele>88.2</ele>
        <time>2023-04-05T14:05:09Z</time>
      </trkpt>
      <trkpt lat="49.8273" lon="2.28875">
        <ele>88.3</ele>
        <time>2023-04-05T14:05:10Z</time>
      </trkpt>
      <trkpt lat="49.8273" lon="2.28871">
        <ele>88.3</ele>
        <time>2023-04-05T14:05:11Z</time>
      </trkpt>
      <trkpt lat="49.82729" lon="2.2887">
        <ele>88.3</ele>
        <time>2023-04-05T14:05:12Z</time>
      </trkpt>
      <trkpt lat="49.82729" lon="2.28868">
        <ele>88.3</ele>
        <time>2023-04-05T14:05:13Z</time>
      </trkpt>
      <trkpt lat="49.82729" lon="2.28867">
        <ele>88.4</ele>
        <time>2023-04-05T14:05:15Z</time>
      </trkpt>
      <trkpt lat="49.82728" lon="2.28865">
        <ele>88.4</ele>
        <time>2023-04-05T14:05:16Z</time>
      </trkpt>
      <trkpt lat="49.82728" lon="2.28864">
        <ele>88.4</ele>
        <time>2023-04-05T14:05:17Z</time>
      </trkpt>
      <trkpt lat="49.82727" lon="2.28862">
        <ele>88.4</ele>
        <time>2023-04-05T14:05:18Z</time>
      </trkpt>
      <trkpt lat="49.82727" lon="2.28861">
        <ele>88.4</ele>
        <time>2023-04-05T14:05:19Z</time>
      </trkpt>
      <trkpt lat="49.82726" lon="2.28859">
        <ele>88.5</ele>
        <time>2023-04-05T14:05:20Z</time>
      </trkpt>
      <trkpt lat="49.82725" lon="2.28857">
        <ele>88.5</ele>
        <time>2023-04-05T14:05:21Z</time>
      </trkpt>
      <trkpt lat="49.82724" lon="2.28856">
        <ele>88.5</ele>
        <time>2023-04-05T14:05:22Z</time>
      </trkpt>
      <trkpt lat="49.82724" lon="2.28855">
        <ele>88.5</ele>
        <time>2023-04-05T14:05:23Z</time>
      </trkpt>
      <trkpt lat="49.82723" lon="2.28854">
        <ele>88.6</ele>
        <time>2023-04-05T14:05:25Z</time>
      </trkpt>
      <trkpt lat="49.82723" lon="2.28852">
        <ele>88.6</ele>
        <time>2023-04-05T14:05:26Z</time>
      </trkpt>
      <trkpt lat="49.82722" lon="2.28851">
        <ele>88.6</ele>
        <time>2023-04-05T14:05:27Z</time>
      </trkpt>
      <trkpt lat="49.82721" lon="2.28848">
        <ele>88.6</ele>
        <time>2023-04-05T14:05:28Z</time>
      </trkpt>
      <trkpt lat="49.82721" lon="2.28847">
        <ele>88.6</ele>
        <time>2023-04-05T14:05:29Z</time>
      </trkpt>
      <trkpt lat="49.8272" lon="2.28844">
        <ele>88.7</ele>
        <time>2023-04-05T14:05:31Z</time>
      </trkpt>
      <trkpt lat="49.82719" lon="2.28842">
        <ele>88.7</ele>
        <time>2023-04-05T14:05:32Z</time>
      </trkpt>
      <trkpt lat="49.82719" lon="2.28841">
        <ele>88.7</ele>
        <time>2023-04-05T14:05:33Z</time>
      </trkpt>
      <trkpt lat="49.82718" lon="2.2884">
        <ele>88.7</ele>
        <time>2023-04-05T14:05:34Z</time>
      </trkpt>
      <trkpt lat="49.82718" lon="2.28838">
        <ele>88.7</ele>
        <time>2023-04-05T14:05:35Z</time>
      </trkpt>
      <trkpt lat="49.82718" lon="2.28836">
        <ele>88.7</ele>
        <time>2023-04-05T14:05:36Z</time>
      </trkpt>
      <trkpt lat="49.82717" lon="2.28835">
        <ele>88.7</ele>
        <time>2023-04-05T14:05:37Z</time>
      </trkpt>
      <trkpt lat="49.82716" lon="2.28833">
        <ele>88.8</ele>
        <time>2023-04-05T14:05:39Z</time>
      </trkpt>
      <trkpt lat="49.82716" lon="2.28831">
        <ele>88.8</ele>
        <time>2023-04-05T14:05:40Z</time>
      </trkpt>
      <trkpt lat="49.82715" lon="2.2883">
        <ele>88.8</ele>
        <time>2023-04-05T14:05:41Z</time>
      </trkpt>
      <trkpt lat="49.82715" lon="2.28828">
        <ele>88.8</ele>
        <time>2023-04-05T14:05:42Z</time>
      </trkpt>
      <trkpt lat="49.82714" lon="2.28827">
        <ele>88.8</ele>
        <time>2023-04-05T14:05:43Z</time>
      </trkpt>
      <trkpt lat="49.82713" lon="2.28824">
        <ele>88.8</ele>
        <time>2023-04-05T14:05:44Z</time>
      </trkpt>
      <trkpt lat="49.82713" lon="2.28822">
        <ele>88.8</ele>
        <time>2023-04-05T14:05:45Z</time>
      </trkpt>
      <trkpt lat="49.82712" lon="2.28821">
        <ele>88.8</ele>
        <time>2023-04-05T14:05:47Z</time>
      </trkpt>
      <trkpt lat="49.82712" lon="2.2882">
        <ele>88.9</ele>
        <time>2023-04-05T14:05:48Z</time>
      </trkpt>
      <trkpt lat="49.82711" lon="2.28818">
        <ele>88.9</ele>
        <time>2023-04-05T14:05:49Z</time>
      </trkpt>
      <trkpt lat="49.82711" lon="2.28817">
        <ele>88.9</ele>
        <time>2023-04-05T14:05:50Z</time>
      </trkpt>
      <trkpt lat="49.8271" lon="2.28815">
        <ele>88.9</ele>
        <time>2023-04-05T14:05:51Z</time>
      </trkpt>
      <trkpt lat="49.8271" lon="2.28814">
        <ele>88.9</ele>
        <time>2023-04-05T14:05:52Z</time>
      </trkpt>
      <trkpt lat="49.82709" lon="2.28812">
        <ele>88.9</ele>
        <time>2023-04-05T14:05:53Z</time>
      </trkpt>
      <trkpt lat="49.82708" lon="2.28811">
        <ele>88.9</ele>
        <time>2023-04-05T14:05:54Z</time>
      </trkpt>
      <trkpt lat="49.82708" lon="2.2881">
        <ele>88.9</ele>
        <time>2023-04-05T14:05:55Z</time>
      </trkpt>
      <trkpt lat="49.82707" lon="2.28808">
        <ele>88.9</ele>
        <time>2023-04-05T14:05:57Z</time>
      </trkpt>
      <trkpt lat="49.82706" lon="2.28806">
        <ele>89</ele>
        <time>2023-04-05T14:05:58Z</time>
      </trkpt>
      <trkpt lat="49.82705" lon="2.28805">
        <ele>89</ele>
        <time>2023-04-05T14:05:59Z</time>
      </trkpt>
      <trkpt lat="49.82705" lon="2.28803">
        <ele>89</ele>
        <time>2023-04-05T14:06:00Z</time>
      </trkpt>
      <trkpt lat="49.82704" lon="2.28802">
        <ele>89</ele>
        <time>2023-04-05T14:06:01Z</time>
      </trkpt>
      <trkpt lat="49.82704" lon="2.28801">
        <ele>89</ele>
        <time>2023-04-05T14:06:02Z</time>
      </trkpt>
      <trkpt lat="49.82704" lon="2.28798">
        <ele>89</ele>
        <time>2023-04-05T14:06:04Z</time>
      </trkpt>
      <trkpt lat="49.82704" lon="2.28797">
        <ele>89</ele>
        <time>2023-04-05T14:06:05Z</time>
      </trkpt>
      <trkpt lat="49.82703" lon="2.28794">
        <ele>89</ele>
        <time>2023-04-05T14:06:06Z</time>
      </trkpt>
      <trkpt lat="49.82702" lon="2.28793">
        <ele>89.1</ele>
        <time>2023-04-05T14:06:07Z</time>
      </trkpt>
      <trkpt lat="49.82702" lon="2.28791">
        <ele>89.1</ele>
        <time>2023-04-05T14:06:08Z</time>
      </trkpt>
      <trkpt lat="49.82701" lon="2.28789">
        <ele>89.1</ele>
        <time>2023-04-05T14:06:09Z</time>
      </trkpt>
      <trkpt lat="49.827" lon="2.28787">
        <ele>89.1</ele>
        <time>2023-04-05T14:06:10Z</time>
      </trkpt>
      <trkpt lat="49.827" lon="2.28786">
        <ele>89.1</ele>
        <time>2023-04-05T14:06:12Z</time>
      </trkpt>
      <trkpt lat="49.827" lon="2.28784">
        <ele>89.1</ele>
        <time>2023-04-05T14:06:13Z</time>
      </trkpt>
      <trkpt lat="49.82699" lon="2.28783">
        <ele>89.2</ele>
        <time>2023-04-05T14:06:14Z</time>
      </trkpt>
      <trkpt lat="49.82699" lon="2.28782">
        <ele>89.2</ele>
        <time>2023-04-05T14:06:15Z</time>
      </trkpt>
      <trkpt lat="49.82698" lon="2.2878">
        <ele>89.3</ele>
        <time>2023-04-05T14:06:16Z</time>
      </trkpt>
      <trkpt lat="49.82698" lon="2.28779">
        <ele>89.3</ele>
        <time>2023-04-05T14:06:18Z</time>
      </trkpt>
      <trkpt lat="49.82697" lon="2.28777">
        <ele>89.3</ele>
        <time>2023-04-05T14:06:19Z</time>
      </trkpt>
      <trkpt lat="49.82697" lon="2.28775">
        <ele>89.3</ele>
        <time>2023-04-05T14:06:20Z</time>
      </trkpt>
      <trkpt lat="49.82696" lon="2.28774">
        <ele>89.3</ele>
        <time>2023-04-05T14:06:21Z</time>
      </trkpt>
      <trkpt lat="49.82696" lon="2.28772">
        <ele>89.3</ele>
        <time>2023-04-05T14:06:22Z</time>
      </trkpt>
      <trkpt lat="49.82696" lon="2.2877">
        <ele>89.4</ele>
        <time>2023-04-05T14:06:23Z</time>
      </trkpt>
      <trkpt lat="49.82695" lon="2.28769">
        <ele>89.4</ele>
        <time>2023-04-05T14:06:24Z</time>
      </trkpt>
      <trkpt lat="49.82695" lon="2.28767">
        <ele>89.4</ele>
        <time>2023-04-05T14:06:25Z</time>
      </trkpt>
      <trkpt lat="49.82694" lon="2.28765">
        <ele>89.4</ele>
        <time>2023-04-05T14:06:27Z</time>
      </trkpt>
      <trkpt lat="49.82693" lon="2.28764">
        <ele>89.4</ele>
        <time>2023-04-05T14:06:28Z</time>
      </trkpt>
      <trkpt lat="49.82693" lon="2.28762">
        <ele>89.4</ele>
        <time>2023-04-05T14:06:29Z</time>
      </trkpt>
      <trkpt lat="49.82692" lon="2.28761">
        <ele>89.5</ele>
        <time>2023-04-05T14:06:30Z</time>
      </trkpt>
      <trkpt lat="49.82692" lon="2.28759">
        <ele>89.5</ele>
        <time>2023-04-05T14:06:31Z</time>
      </trkpt>
      <trkpt lat="49.82691" lon="2.28758">
        <ele>89.5</ele>
        <time>2023-04-05T14:06:32Z</time>
      </trkpt>
      <trkpt lat="49.82691" lon="2.28756">
        <ele>89.5</ele>
        <time>2023-04-05T14:06:33Z</time>
      </trkpt>
      <trkpt lat="49.8269" lon="2.28754">
        <ele>89.5</ele>
        <time>2023-04-05T14:06:34Z</time>
      </trkpt>
      <trkpt lat="49.8269" lon="2.28753">
        <ele>89.5</ele>
        <time>2023-04-05T14:06:35Z</time>
      </trkpt>
      <trkpt lat="49.82689" lon="2.28751">
        <ele>89.6</ele>
        <time>2023-04-05T14:06:37Z</time>
      </trkpt>
      <trkpt lat="49.82689" lon="2.28749">
        <ele>89.6</ele>
        <time>2023-04-05T14:06:38Z</time>
      </trkpt>
      <trkpt lat="49.82688" lon="2.28748">
        <ele>89.6</ele>
        <time>2023-04-05T14:06:39Z</time>
      </trkpt>
      <trkpt lat="49.82688" lon="2.28746">
        <ele>89.6</ele>
        <time>2023-04-05T14:06:40Z</time>
      </trkpt>
      <trkpt lat="49.82687" lon="2.28744">
        <ele>89.6</ele>
        <time>2023-04-05T14:06:41Z</time>
      </trkpt>
      <trkpt lat="49.82687" lon="2.28743">
        <ele>89.6</ele>
        <time>2023-04-05T14:06:42Z</time>
      </trkpt>
      <trkpt lat="49.82686" lon="2.28742">
        <ele>89.6</ele>
        <time>2023-04-05T14:06:43Z</time>
      </trkpt>
      <trkpt lat="49.82686" lon="2.2874">
        <ele>89.7</ele>
        <time>2023-04-05T14:06:44Z</time>
      </trkpt>
      <trkpt lat="49.82685" lon="2.28739">
        <ele>89.7</ele>
        <time>2023-04-05T14:06:46Z</time>
      </trkpt>
      <trkpt lat="49.82684" lon="2.28737">
        <ele>89.7</ele>
        <time>2023-04-05T14:06:47Z</time>
      </trkpt>
      <trkpt lat="49.82684" lon="2.28736">
        <ele>89.7</ele>
        <time>2023-04-05T14:06:48Z</time>
      </trkpt>
      <trkpt lat="49.82683" lon="2.28734">
        <ele>89.7</ele>
        <time>2023-04-05T14:06:49Z</time>
      </trkpt>
      <trkpt lat="49.82682" lon="2.28732">
        <ele>89.7</ele>
        <time>2023-04-05T14:06:50Z</time>
      </trkpt>
      <trkpt lat="49.82682" lon="2.2873">
        <ele>89.8</ele>
        <time>2023-04-05T14:06:51Z</time>
      </trkpt>
      <trkpt lat="49.82681" lon="2.28729">
        <ele>89.8</ele>
        <time>2023-04-05T14:06:52Z</time>
      </trkpt>
      <trkpt lat="49.82681" lon="2.28728">
        <ele>89.8</ele>
        <time>2023-04-05T14:06:53Z</time>
      </trkpt>
      <trkpt lat="49.82679" lon="2.28725">
        <ele>89.8</ele>
        <time>2023-04-05T14:06:55Z</time>
      </trkpt>
      <trkpt lat="49.82679" lon="2.28724">
        <ele>89.8</ele>
        <time>2023-04-05T14:06:56Z</time>
      </trkpt>
      <trkpt lat="49.82678" lon="2.28723">
        <ele>89.8</ele>
        <time>2023-04-05T14:06:57Z</time>
      </trkpt>
      <trkpt lat="49.82678" lon="2.28721">
        <ele>89.8</ele>
        <time>2023-04-05T14:06:58Z</time>
      </trkpt>
      <trkpt lat="49.82677" lon="2.2872">
        <ele>89.8</ele>
        <time>2023-04-05T14:06:59Z</time>
      </trkpt>
      <trkpt lat="49.82677" lon="2.28719">
        <ele>89.9</ele>
        <time>2023-04-05T14:07:00Z</time>
      </trkpt>
      <trkpt lat="49.82676" lon="2.28718">
        <ele>89.9</ele>
        <time>2023-04-05T14:07:01Z</time>
      </trkpt>
      <trkpt lat="49.82675" lon="2.28716">
        <ele>89.9</ele>
        <time>2023-04-05T14:07:02Z</time>
      </trkpt>
      <trkpt lat="49.82674" lon="2.28715">
        <ele>89.9</ele>
        <time>2023-04-05T14:07:04Z</time>
      </trkpt>
      <trkpt lat="49.82673" lon="2.28713">
        <ele>89.9</ele>
        <time>2023-04-05T14:07:05Z</time>
      </trkpt>
      <trkpt lat="49.82672" lon="2.28712">
        <ele>89.9</ele>
        <time>2023-04-05T14:07:06Z</time>
      </trkpt>
      <trkpt lat="49.82672" lon="2.28711">
        <ele>89.9</ele>
        <time>2023-04-05T14:07:07Z</time>
      </trkpt>
      <trkpt lat="49.82671" lon="2.28709">
        <ele>90</ele>
        <time>2023-04-05T14:07:08Z</time>
      </trkpt>
      <trkpt lat="49.8267" lon="2.28707">
        <ele>90</ele>
        <time>2023-04-05T14:07:09Z</time>
      </trkpt>
      <trkpt lat="49.82669" lon="2.28705">
        <ele>90</ele>
        <time>2023-04-05T14:07:10Z</time>
      </trkpt>
      <trkpt lat="49.82669" lon="2.28703">
        <ele>90</ele>
        <time>2023-04-05T14:07:11Z</time>
      </trkpt>
      <trkpt lat="49.82668" lon="2.28702">
        <ele>90</ele>
        <time>2023-04-05T14:07:12Z</time>
      </trkpt>
      <trkpt lat="49.82667" lon="2.28699">
        <ele>90.1</ele>
        <time>2023-04-05T14:07:14Z</time>
      </trkpt>
      <trkpt lat="49.82667" lon="2.28698">
        <ele>90.1</ele>
        <time>2023-04-05T14:07:15Z</time>
      </trkpt>
      <trkpt lat="49.82666" lon="2.28697">
        <ele>90.1</ele>
        <time>2023-04-05T14:07:16Z</time>
      </trkpt>
      <trkpt lat="49.82666" lon="2.28695">
        <ele>90.1</ele>
        <time>2023-04-05T14:07:17Z</time>
      </trkpt>
      <trkpt lat="49.82665" lon="2.28693">
        <ele>90.1</ele>
        <time>2023-04-05T14:07:18Z</time>
      </trkpt>
      <trkpt lat="49.82665" lon="2.28692">
        <ele>90.1</ele>
        <time>2023-04-05T14:07:19Z</time>
      </trkpt>
      <trkpt lat="49.82664" lon="2.2869">
        <ele>90.2</ele>
        <time>2023-04-05T14:07:21Z</time>
      </trkpt>
      <trkpt lat="49.82664" lon="2.28688">
        <ele>90.2</ele>
        <time>2023-04-05T14:07:22Z</time>
      </trkpt>
      <trkpt lat="49.82663" lon="2.28687">
        <ele>90.2</ele>
        <time>2023-04-05T14:07:23Z</time>
      </trkpt>
      <trkpt lat="49.82662" lon="2.28686">
        <ele>90.2</ele>
        <time>2023-04-05T14:07:24Z</time>
      </trkpt>
      <trkpt lat="49.82662" lon="2.28686">
        <ele>90.2</ele>
        <time>2023-04-05T14:07:25Z</time>
      </trkpt>
      <trkpt lat="49.82662" lon="2.28686">
        <ele>90.2</ele>
        <time>2023-04-05T14:07:27Z</time>
      </trkpt>
      <trkpt lat="49.82662" lon="2.28686">
        <ele>90.2</ele>
        <time>2023-04-05T14:07:28Z</time>
      </trkpt>
      <trkpt lat="49.82662" lon="2.28686">
        <ele>90.2</ele>
        <time>2023-04-05T14:07:29Z</time>
      </trkpt>
      <trkpt lat="49.82662" lon="2.28686">
        <ele>90.2</ele>
        <time>2023-04-05T14:07:31Z</time>
      </trkpt>
      <trkpt lat="49.82662" lon="2.28686">
        <ele>90.2</ele>
        <time>2023-04-05T14:07:32Z</time>
      </trkpt>
      <trkpt lat="49.82662" lon="2.28687">
        <ele>90.2</ele>
        <time>2023-04-05T14:07:33Z</time>
      </trkpt>
      <trkpt lat="49.82662" lon="2.28687">
        <ele>90.2</ele>
        <time>2023-04-05T14:07:35Z</time>
      </trkpt>
      <trkpt lat="49.82662" lon="2.28687">
        <ele>90.2</ele>
        <time>2023-04-05T14:07:37Z</time>
      </trkpt>
      <trkpt lat="49.82662" lon="2.28687">
        <ele>90.2</ele>
        <time>2023-04-05T14:07:38Z</time>
      </trkpt>
      <trkpt lat="49.82662" lon="2.28687">
        <ele>90.2</ele>
        <time>2023-04-05T14:07:39Z</time>
      </trkpt>
      <trkpt lat="49.82662" lon="2.28687">
        <ele>90.2</ele>
        <time>2023-04-05T14:07:41Z</time>
      </trkpt>
      <trkpt lat="49.82662" lon="2.28687">
        <ele>90.2</ele>
        <time>2023-04-05T14:07:42Z</time>
      </trkpt>
      <trkpt lat="49.82662" lon="2.28687">
        <ele>90.2</ele>
        <time>2023-04-05T14:07:43Z</time>
      </trkpt>
      <trkpt lat="49.82662" lon="2.28687">
        <ele>90.2</ele>
        <time>2023-04-05T14:07:45Z</time>
      </trkpt>
      <trkpt lat="49.82662" lon="2.28687">
        <ele>90.2</ele>
        <time>2023-04-05T14:07:46Z</time>
      </trkpt>
      <trkpt lat="49.82662" lon="2.28687">
        <ele>90.2</ele>
        <time>2023-04-05T14:07:47Z</time>
      </trkpt>
      <trkpt lat="49.82662" lon="2.28687">
        <ele>90.2</ele>
        <time>2023-04-05T14:07:48Z</time>
      </trkpt>
      <trkpt lat="49.82662" lon="2.28687">
        <ele>90.2</ele>
        <time>2023-04-05T14:07:49Z</time>
      </trkpt>
      <trkpt lat="49.82662" lon="2.28687">
        <ele>90.2</ele>
        <time>2023-04-05T14:07:50Z</time>
      </trkpt>
      <trkpt lat="49.82662" lon="2.28687">
        <ele>90.2</ele>
        <time>2023-04-05T14:07:51Z</time>
      </trkpt>
      <trkpt lat="49.82662" lon="2.28687">
        <ele>90.2</ele>
        <time>2023-04-05T14:07:52Z</time>
      </trkpt>
      <trkpt lat="49.82662" lon="2.28687">
        <ele>90.2</ele>
        <time>2023-04-05T14:07:53Z</time>
      </trkpt>
      <trkpt lat="49.82662" lon="2.28687">
        <ele>90.2</ele>
        <time>2023-04-05T14:07:54Z</time>
      </trkpt>
      <trkpt lat="49.82662" lon="2.28687">
        <ele>90.2</ele>
        <time>2023-04-05T14:07:55Z</time>
      </trkpt>
      <trkpt lat="49.82662" lon="2.28687">
        <ele>90.2</ele>
        <time>2023-04-05T14:07:56Z</time>
      </trkpt>
      <trkpt lat="49.82662" lon="2.28687">
        <ele>90.2</ele>
        <time>2023-04-05T14:07:57Z</time>
      </trkpt>
      <trkpt lat="49.82662" lon="2.28687">
        <ele>90.2</ele>
        <time>2023-04-05T14:07:58Z</time>
      </trkpt>
      <trkpt lat="49.82662" lon="2.28687">
        <ele>90.2</ele>
        <time>2023-04-05T14:07:59Z</time>
      </trkpt>
      <trkpt lat="49.82662" lon="2.28687">
        <ele>90.2</ele>
        <time>2023-04-05T14:08:00Z</time>
      </trkpt>
      <trkpt lat="49.82662" lon="2.28687">
        <ele>90.2</ele>
        <time>2023-04-05T14:08:01Z</time>
      </trkpt>
      <trkpt lat="49.82662" lon="2.28687">
        <ele>90.2</ele>
        <time>2023-04-05T14:08:02Z</time>
      </trkpt>
      <trkpt lat="49.82662" lon="2.28687">
        <ele>90.2</ele>
        <time>2023-04-05T14:08:03Z</time>
      </trkpt>
      <trkpt lat="49.82662" lon="2.28688">
        <ele>90.2</ele>
        <time>2023-04-05T14:08:04Z</time>
      </trkpt>
      <trkpt lat="49.82662" lon="2.28688">
        <ele>90.2</ele>
        <time>2023-04-05T14:08:05Z</time>
      </trkpt>
      <trkpt lat="49.82663" lon="2.28688">
        <ele>90.2</ele>
        <time>2023-04-05T14:08:06Z</time>
      </trkpt>
      <trkpt lat="49.82663" lon="2.28688">
        <ele>90.2</ele>
        <time>2023-04-05T14:08:07Z</time>
      </trkpt>
      <trkpt lat="49.82663" lon="2.28688">
        <ele>90.2</ele>
        <time>2023-04-05T14:08:08Z</time>
      </trkpt>
      <trkpt lat="49.82663" lon="2.28688">
        <ele>90.2</ele>
        <time>2023-04-05T14:08:09Z</time>
      </trkpt>
      <trkpt lat="49.82663" lon="2.28688">
        <ele>90.2</ele>
        <time>2023-04-05T14:08:10Z</time>
      </trkpt>
      <trkpt lat="49.82663" lon="2.28688">
        <ele>90.2</ele>
        <time>2023-04-05T14:08:11Z</time>
      </trkpt>
      <trkpt lat="49.82663" lon="2.28688">
        <ele>90.2</ele>
        <time>2023-04-05T14:08:12Z</time>
      </trkpt>
      <trkpt lat="49.82663" lon="2.28688">
        <ele>90.2</ele>
        <time>2023-04-05T14:08:13Z</time>
      </trkpt>
      <trkpt lat="49.82663" lon="2.28688">
        <ele>90.2</ele>
        <time>2023-04-05T14:08:14Z</time>
      </trkpt>
      <trkpt lat="49.82663" lon="2.28688">
        <ele>90.2</ele>
        <time>2023-04-05T14:08:15Z</time>
      </trkpt>
      <trkpt lat="49.82663" lon="2.28688">
        <ele>90.2</ele>
        <time>2023-04-05T14:08:16Z</time>
      </trkpt>
      <trkpt lat="49.82663" lon="2.28688">
        <ele>90.2</ele>
        <time>2023-04-05T14:08:17Z</time>
      </trkpt>
      <trkpt lat="49.82663" lon="2.28688">
        <ele>90.2</ele>
        <time>2023-04-05T14:08:18Z</time>
      </trkpt>
      <trkpt lat="49.82663" lon="2.28688">
        <ele>90.2</ele>
        <time>2023-04-05T14:08:19Z</time>
      </trkpt>
      <trkpt lat="49.82663" lon="2.28688">
        <ele>90.2</ele>
        <time>2023-04-05T14:08:20Z</time>
      </trkpt>
      <trkpt lat="49.82663" lon="2.28688">
        <ele>90.2</ele>
        <time>2023-04-05T14:08:21Z</time>
      </trkpt>
      <trkpt lat="49.82663" lon="2.28688">
        <ele>90.2</ele>
        <time>2023-04-05T14:08:22Z</time>
      </trkpt>
      <trkpt lat="49.82663" lon="2.28688">
        <ele>90.2</ele>
        <time>2023-04-05T14:08:23Z</time>
      </trkpt>
      <trkpt lat="49.82663" lon="2.28688">
        <ele>90.2</ele>
        <time>2023-04-05T14:08:24Z</time>
      </trkpt>
      <trkpt lat="49.82663" lon="2.28688">
        <ele>90.2</ele>
        <time>2023-04-05T14:08:25Z</time>
      </trkpt>
      <trkpt lat="49.82663" lon="2.28688">
        <ele>90.2</ele>
        <time>2023-04-05T14:08:26Z</time>
      </trkpt>
      <trkpt lat="49.82663" lon="2.28688">
        <ele>90.2</ele>
        <time>2023-04-05T14:08:27Z</time>
      </trkpt>
      <trkpt lat="49.82663" lon="2.28688">
        <ele>90.2</ele>
        <time>2023-04-05T14:08:28Z</time>
      </trkpt>
      <trkpt lat="49.82663" lon="2.28688">
        <ele>90.2</ele>
        <time>2023-04-05T14:08:29Z</time>
      </trkpt>
      <trkpt lat="49.82663" lon="2.28688">
        <ele>90.2</ele>
        <time>2023-04-05T14:08:30Z</time>
      </trkpt>
      <trkpt lat="49.82663" lon="2.28689">
        <ele>90.2</ele>
        <time>2023-04-05T14:08:31Z</time>
      </trkpt>
      <trkpt lat="49.82663" lon="2.28689">
        <ele>90.2</ele>
        <time>2023-04-05T14:08:32Z</time>
      </trkpt>
      <trkpt lat="49.82663" lon="2.28689">
        <ele>90.2</ele>
        <time>2023-04-05T14:08:33Z</time>
      </trkpt>
      <trkpt lat="49.82663" lon="2.28689">
        <ele>90.2</ele>
        <time>2023-04-05T14:08:34Z</time>
      </trkpt>
      <trkpt lat="49.82663" lon="2.28689">
        <ele>90.2</ele>
        <time>2023-04-05T14:08:35Z</time>
      </trkpt>
      <trkpt lat="49.82663" lon="2.28689">
        <ele>90.2</ele>
        <time>2023-04-05T14:08:36Z</time>
      </trkpt>
      <trkpt lat="49.82663" lon="2.28689">
        <ele>90.2</ele>
        <time>2023-04-05T14:08:37Z</time>
      </trkpt>
      <trkpt lat="49.82663" lon="2.28689">
        <ele>90.2</ele>
        <time>2023-04-05T14:08:38Z</time>
      </trkpt>
      <trkpt lat="49.82663" lon="2.28689">
        <ele>90.2</ele>
        <time>2023-04-05T14:08:39Z</time>
      </trkpt>
      <trkpt lat="49.82663" lon="2.28689">
        <ele>90.2</ele>
        <time>2023-04-05T14:08:40Z</time>
      </trkpt>
      <trkpt lat="49.82663" lon="2.28689">
        <ele>90.2</ele>
        <time>2023-04-05T14:08:41Z</time>
      </trkpt>
      <trkpt lat="49.82663" lon="2.28689">
        <ele>90.2</ele>
        <time>2023-04-05T14:08:42Z</time>
      </trkpt>
      <trkpt lat="49.82663" lon="2.28689">
        <ele>90.2</ele>
        <time>2023-04-05T14:08:43Z</time>
      </trkpt>
      <trkpt lat="49.82663" lon="2.28689">
        <ele>90.2</ele>
        <time>2023-04-05T14:08:44Z</time>
      </trkpt>
      <trkpt lat="49.82665" lon="2.28686">
        <ele>90.3</ele>
        <time>2023-04-05T14:08:45Z</time>
      </trkpt>
      <trkpt lat="49.82666" lon="2.28684">
        <ele>90.3</ele>
        <time>2023-04-05T14:08:46Z</time>
      </trkpt>
      <trkpt lat="49.82665" lon="2.28682">
        <ele>90.3</ele>
        <time>2023-04-05T14:08:47Z</time>
      </trkpt>
      <trkpt lat="49.82665" lon="2.2868">
        <ele>90.4</ele>
        <time>2023-04-05T14:08:48Z</time>
      </trkpt>
      <trkpt lat="49.82664" lon="2.28679">
        <ele>90.4</ele>
        <time>2023-04-05T14:08:49Z</time>
      </trkpt>
      <trkpt lat="49.82664" lon="2.28678">
        <ele>90.4</ele>
        <time>2023-04-05T14:08:50Z</time>
      </trkpt>
      <trkpt lat="49.82663" lon="2.28676">
        <ele>90.4</ele>
        <time>2023-04-05T14:08:51Z</time>
      </trkpt>
      <trkpt lat="49.82663" lon="2.28675">
        <ele>90.4</ele>
        <time>2023-04-05T14:08:52Z</time>
      </trkpt>
      <trkpt lat="49.82662" lon="2.28674">
        <ele>90.5</ele>
        <time>2023-04-05T14:08:53Z</time>
      </trkpt>
      <trkpt lat="49.82662" lon="2.28672">
        <ele>90.5</ele>
        <time>2023-04-05T14:08:54Z</time>
      </trkpt>
      <trkpt lat="49.82661" lon="2.2867">
        <ele>90.5</ele>
        <time>2023-04-05T14:08:55Z</time>
      </trkpt>
      <trkpt lat="49.82661" lon="2.28669">
        <ele>90.5</ele>
        <time>2023-04-05T14:08:56Z</time>
      </trkpt>
      <trkpt lat="49.8266" lon="2.28667">
        <ele>90.5</ele>
        <time>2023-04-05T14:08:57Z</time>
      </trkpt>
      <trkpt lat="49.8266" lon="2.28666">
        <ele>90.6</ele>
        <time>2023-04-05T14:08:58Z</time>
      </trkpt>
      <trkpt lat="49.82659" lon="2.28664">
        <ele>90.6</ele>
        <time>2023-04-05T14:08:59Z</time>
      </trkpt>
      <trkpt lat="49.82659" lon="2.28663">
        <ele>90.6</ele>
        <time>2023-04-05T14:09:00Z</time>
      </trkpt>
      <trkpt lat="49.82658" lon="2.28662">
        <ele>90.6</ele>
        <time>2023-04-05T14:09:01Z</time>
      </trkpt>
      <trkpt lat="49.82657" lon="2.2866">
        <ele>90.6</ele>
        <time>2023-04-05T14:09:02Z</time>
      </trkpt>
      <trkpt lat="49.82657" lon="2.28658">
        <ele>90.7</ele>
        <time>2023-04-05T14:09:03Z</time>
      </trkpt>
      <trkpt lat="49.82656" lon="2.28656">
        <ele>90.7</ele>
        <time>2023-04-05T14:09:04Z</time>
      </trkpt>
      <trkpt lat="49.82655" lon="2.28653">
        <ele>90.7</ele>
        <time>2023-04-05T14:09:05Z</time>
      </trkpt>
      <trkpt lat="49.82654" lon="2.2865">
        <ele>90.7</ele>
        <time>2023-04-05T14:09:06Z</time>
      </trkpt>
      <trkpt lat="49.82654" lon="2.28649">
        <ele>90.8</ele>
        <time>2023-04-05T14:09:07Z</time>
      </trkpt>
      <trkpt lat="49.82653" lon="2.28648">
        <ele>90.8</ele>
        <time>2023-04-05T14:09:08Z</time>
      </trkpt>
      <trkpt lat="49.82652" lon="2.28645">
        <ele>90.8</ele>
        <time>2023-04-05T14:09:10Z</time>
      </trkpt>
      <trkpt lat="49.82651" lon="2.28644">
        <ele>90.8</ele>
        <time>2023-04-05T14:09:11Z</time>
      </trkpt>
      <trkpt lat="49.82651" lon="2.28644">
        <ele>90.8</ele>
        <time>2023-04-05T14:09:12Z</time>
      </trkpt>
      <trkpt lat="49.8265" lon="2.28641">
        <ele>90.9</ele>
        <time>2023-04-05T14:09:13Z</time>
      </trkpt>
      <trkpt lat="49.82649" lon="2.28639">
        <ele>90.9</ele>
        <time>2023-04-05T14:09:14Z</time>
      </trkpt>
      <trkpt lat="49.82648" lon="2.28637">
        <ele>90.9</ele>
        <time>2023-04-05T14:09:15Z</time>
      </trkpt>
      <trkpt lat="49.82648" lon="2.28635">
        <ele>90.9</ele>
        <time>2023-04-05T14:09:17Z</time>
      </trkpt>
      <trkpt lat="49.82648" lon="2.28634">
        <ele>90.9</ele>
        <time>2023-04-05T14:09:18Z</time>
      </trkpt>
      <trkpt lat="49.82647" lon="2.28632">
        <ele>91</ele>
        <time>2023-04-05T14:09:19Z</time>
      </trkpt>
      <trkpt lat="49.82646" lon="2.2863">
        <ele>91</ele>
        <time>2023-04-05T14:09:20Z</time>
      </trkpt>
      <trkpt lat="49.82645" lon="2.28628">
        <ele>91</ele>
        <time>2023-04-05T14:09:21Z</time>
      </trkpt>
      <trkpt lat="49.82645" lon="2.28626">
        <ele>91</ele>
        <time>2023-04-05T14:09:22Z</time>
      </trkpt>
      <trkpt lat="49.82644" lon="2.28625">
        <ele>91</ele>
        <time>2023-04-05T14:09:23Z</time>
      </trkpt>
      <trkpt lat="49.82643" lon="2.28623">
        <ele>91.1</ele>
        <time>2023-04-05T14:09:24Z</time>
      </trkpt>
      <trkpt lat="49.82643" lon="2.28621">
        <ele>91.1</ele>
        <time>2023-04-05T14:09:25Z</time>
      </trkpt>
      <trkpt lat="49.82642" lon="2.28619">
        <ele>91.1</ele>
        <time>2023-04-05T14:09:26Z</time>
      </trkpt>
      <trkpt lat="49.82642" lon="2.28617">
        <ele>91.1</ele>
        <time>2023-04-05T14:09:28Z</time>
      </trkpt>
      <trkpt lat="49.82641" lon="2.28616">
        <ele>91.1</ele>
        <time>2023-04-05T14:09:29Z</time>
      </trkpt>
      <trkpt lat="49.82641" lon="2.28613">
        <ele>91.2</ele>
        <time>2023-04-05T14:09:30Z</time>
      </trkpt>
      <trkpt lat="49.8264" lon="2.28612">
        <ele>91.2</ele>
        <time>2023-04-05T14:09:31Z</time>
      </trkpt>
      <trkpt lat="49.8264" lon="2.2861">
        <ele>91.2</ele>
        <time>2023-04-05T14:09:32Z</time>
      </trkpt>
      <trkpt lat="49.82639" lon="2.28608">
        <ele>91.2</ele>
        <time>2023-04-05T14:09:33Z</time>
      </trkpt>
      <trkpt lat="49.82639" lon="2.28607">
        <ele>91.3</ele>
        <time>2023-04-05T14:09:34Z</time>
      </trkpt>
      <trkpt lat="49.82638" lon="2.28604">
        <ele>91.3</ele>
        <time>2023-04-05T14:09:35Z</time>
      </trkpt>
      <trkpt lat="49.82637" lon="2.28603">
        <ele>91.3</ele>
        <time>2023-04-05T14:09:36Z</time>
      </trkpt>
      <trkpt lat="49.82637" lon="2.28601">
        <ele>91.3</ele>
        <time>2023-04-05T14:09:37Z</time>
      </trkpt>
      <trkpt lat="49.82636" lon="2.286">
        <ele>91.3</ele>
        <time>2023-04-05T14:09:38Z</time>
      </trkpt>
      <trkpt lat="49.82636" lon="2.28598">
        <ele>91.4</ele>
        <time>2023-04-05T14:09:40Z</time>
      </trkpt>
      <trkpt lat="49.82635" lon="2.28597">
        <ele>91.4</ele>
        <time>2023-04-05T14:09:41Z</time>
      </trkpt>
      <trkpt lat="49.82634" lon="2.28594">
        <ele>91.4</ele>
        <time>2023-04-05T14:09:42Z</time>
      </trkpt>
      <trkpt lat="49.82634" lon="2.28593">
        <ele>91.4</ele>
        <time>2023-04-05T14:09:43Z</time>
      </trkpt>
      <trkpt lat="49.82634" lon="2.28591">
        <ele>91.4</ele>
        <time>2023-04-05T14:09:44Z</time>
      </trkpt>
      <trkpt lat="49.82632" lon="2.28588">
        <ele>91.5</ele>
        <time>2023-04-05T14:09:46Z</time>
      </trkpt>
      <trkpt lat="49.82632" lon="2.28587">
        <ele>91.5</ele>
        <time>2023-04-05T14:09:47Z</time>
      </trkpt>
      <trkpt lat="49.82632" lon="2.28586">
        <ele>91.5</ele>
        <time>2023-04-05T14:09:48Z</time>
      </trkpt>
      <trkpt lat="49.82631" lon="2.28584">
        <ele>91.5</ele>
        <time>2023-04-05T14:09:49Z</time>
      </trkpt>
      <trkpt lat="49.82631" lon="2.28583">
        <ele>91.5</ele>
        <time>2023-04-05T14:09:50Z</time>
      </trkpt>
      <trkpt lat="49.8263" lon="2.28581">
        <ele>91.5</ele>
        <time>2023-04-05T14:09:52Z</time>
      </trkpt>
      <trkpt lat="49.82629" lon="2.2858">
        <ele>91.5</ele>
        <time>2023-04-05T14:09:53Z</time>
      </trkpt>
      <trkpt lat="49.82629" lon="2.28577">
        <ele>91.6</ele>
        <time>2023-04-05T14:09:54Z</time>
      </trkpt>
      <trkpt lat="49.82628" lon="2.28575">
        <ele>91.6</ele>
        <time>2023-04-05T14:09:55Z</time>
      </trkpt>
      <trkpt lat="49.82628" lon="2.28574">
        <ele>91.6</ele>
        <time>2023-04-05T14:09:56Z</time>
      </trkpt>
      <trkpt lat="49.82627" lon="2.28572">
        <ele>91.6</ele>
        <time>2023-04-05T14:09:58Z</time>
      </trkpt>
      <trkpt lat="49.82627" lon="2.2857">
        <ele>91.6</ele>
        <time>2023-04-05T14:09:59Z</time>
      </trkpt>
      <trkpt lat="49.82626" lon="2.28568">
        <ele>91.6</ele>
        <time>2023-04-05T14:10:00Z</time>
      </trkpt>
      <trkpt lat="49.82625" lon="2.28567">
        <ele>91.6</ele>
        <time>2023-04-05T14:10:01Z</time>
      </trkpt>
      <trkpt lat="49.82625" lon="2.28565">
        <ele>91.6</ele>
        <time>2023-04-05T14:10:02Z</time>
      </trkpt>
      <trkpt lat="49.82624" lon="2.28564">
        <ele>91.6</ele>
        <time>2023-04-05T14:10:03Z</time>
      </trkpt>
      <trkpt lat="49.82624" lon="2.28562">
        <ele>91.6</ele>
        <time>2023-04-05T14:10:04Z</time>
      </trkpt>
      <trkpt lat="49.82623" lon="2.2856">
        <ele>91.7</ele>
        <time>2023-04-05T14:10:05Z</time>
      </trkpt>
      <trkpt lat="49.82623" lon="2.28559">
        <ele>91.7</ele>
        <time>2023-04-05T14:10:07Z</time>
      </trkpt>
      <trkpt lat="49.82622" lon="2.28556">
        <ele>91.7</ele>
        <time>2023-04-05T14:10:08Z</time>
      </trkpt>
      <trkpt lat="49.82622" lon="2.28555">
        <ele>91.7</ele>
        <time>2023-04-05T14:10:09Z</time>
      </trkpt>
      <trkpt lat="49.82621" lon="2.28553">
        <ele>91.7</ele>
        <time>2023-04-05T14:10:10Z</time>
      </trkpt>
      <trkpt lat="49.82621" lon="2.28551">
        <ele>91.7</ele>
        <time>2023-04-05T14:10:11Z</time>
      </trkpt>
      <trkpt lat="49.82621" lon="2.2855">
        <ele>91.7</ele>
        <time>2023-04-05T14:10:12Z</time>
      </trkpt>
      <trkpt lat="49.82621" lon="2.28549">
        <ele>91.7</ele>
        <time>2023-04-05T14:10:13Z</time>
      </trkpt>
      <trkpt lat="49.82621" lon="2.28548">
        <ele>91.7</ele>
        <time>2023-04-05T14:10:14Z</time>
      </trkpt>
      <trkpt lat="49.8262" lon="2.28544">
        <ele>91.7</ele>
        <time>2023-04-05T14:10:15Z</time>
      </trkpt>
      <trkpt lat="49.82619" lon="2.28543">
        <ele>91.7</ele>
        <time>2023-04-05T14:10:17Z</time>
      </trkpt>
      <trkpt lat="49.82618" lon="2.28542">
        <ele>91.7</ele>
        <time>2023-04-05T14:10:18Z</time>
      </trkpt>
      <trkpt lat="49.82617" lon="2.2854">
        <ele>91.7</ele>
        <time>2023-04-05T14:10:19Z</time>
      </trkpt>
      <trkpt lat="49.82616" lon="2.28538">
        <ele>91.7</ele>
        <time>2023-04-05T14:10:20Z</time>
      </trkpt>
      <trkpt lat="49.82616" lon="2.28537">
        <ele>91.7</ele>
        <time>2023-04-05T14:10:21Z</time>
      </trkpt>
      <trkpt lat="49.82615" lon="2.28535">
        <ele>91.7</ele>
        <time>2023-04-05T14:10:23Z</time>
      </trkpt>
      <trkpt lat="49.82614" lon="2.28534">
        <ele>91.7</ele>
        <time>2023-04-05T14:10:24Z</time>
      </trkpt>
      <trkpt lat="49.82613" lon="2.28533">
        <ele>91.7</ele>
        <time>2023-04-05T14:10:25Z</time>
      </trkpt>
      <trkpt lat="49.82612" lon="2.28532">
        <ele>91.6</ele>
        <time>2023-04-05T14:10:26Z</time>
      </trkpt>
      <trkpt lat="49.8261" lon="2.28529">
        <ele>91.6</ele>
        <time>2023-04-05T14:10:27Z</time>
      </trkpt>
      <trkpt lat="49.82609" lon="2.28528">
        <ele>91.6</ele>
        <time>2023-04-05T14:10:29Z</time>
      </trkpt>
      <trkpt lat="49.82608" lon="2.28527">
        <ele>91.6</ele>
        <time>2023-04-05T14:10:30Z</time>
      </trkpt>
      <trkpt lat="49.82607" lon="2.28526">
        <ele>91.6</ele>
        <time>2023-04-05T14:10:31Z</time>
      </trkpt>
      <trkpt lat="49.82606" lon="2.28525">
        <ele>91.6</ele>
        <time>2023-04-05T14:10:32Z</time>
      </trkpt>
      <trkpt lat="49.82605" lon="2.28524">
        <ele>91.6</ele>
        <time>2023-04-05T14:10:33Z</time>
      </trkpt>
      <trkpt lat="49.82604" lon="2.28523">
        <ele>91.6</ele>
        <time>2023-04-05T14:10:34Z</time>
      </trkpt>
      <trkpt lat="49.82602" lon="2.28522">
        <ele>91.5</ele>
        <time>2023-04-05T14:10:35Z</time>
      </trkpt>
      <trkpt lat="49.82601" lon="2.28521">
        <ele>91.5</ele>
        <time>2023-04-05T14:10:36Z</time>
      </trkpt>
      <trkpt lat="49.826" lon="2.28521">
        <ele>91.5</ele>
        <time>2023-04-05T14:10:38Z</time>
      </trkpt>
      <trkpt lat="49.82599" lon="2.2852">
        <ele>91.5</ele>
        <time>2023-04-05T14:10:40Z</time>
      </trkpt>
      <trkpt lat="49.82598" lon="2.28519">
        <ele>91.5</ele>
        <time>2023-04-05T14:10:41Z</time>
      </trkpt>
      <trkpt lat="49.82596" lon="2.28519">
        <ele>91.4</ele>
        <time>2023-04-05T14:10:42Z</time>
      </trkpt>
      <trkpt lat="49.82595" lon="2.28517">
        <ele>91.4</ele>
        <time>2023-04-05T14:10:43Z</time>
      </trkpt>
      <trkpt lat="49.82594" lon="2.28517">
        <ele>91.4</ele>
        <time>2023-04-05T14:10:44Z</time>
      </trkpt>
      <trkpt lat="49.82593" lon="2.28516">
        <ele>91.4</ele>
        <time>2023-04-05T14:10:45Z</time>
      </trkpt>
      <trkpt lat="49.82592" lon="2.28515">
        <ele>91.4</ele>
        <time>2023-04-05T14:10:46Z</time>
      </trkpt>
      <trkpt lat="49.82591" lon="2.28515">
        <ele>91.4</ele>
        <time>2023-04-05T14:10:47Z</time>
      </trkpt>
      <trkpt lat="49.8259" lon="2.28513">
        <ele>91.3</ele>
        <time>2023-04-05T14:10:48Z</time>
      </trkpt>
      <trkpt lat="49.82589" lon="2.28513">
        <ele>91.3</ele>
        <time>2023-04-05T14:10:49Z</time>
      </trkpt>
      <trkpt lat="49.82587" lon="2.28511">
        <ele>91.3</ele>
        <time>2023-04-05T14:10:51Z</time>
      </trkpt>
      <trkpt lat="49.82586" lon="2.2851">
        <ele>91.3</ele>
        <time>2023-04-05T14:10:52Z</time>
      </trkpt>
      <trkpt lat="49.82585" lon="2.28509">
        <ele>91.3</ele>
        <time>2023-04-05T14:10:53Z</time>
      </trkpt>
      <trkpt lat="49.82584" lon="2.28507">
        <ele>91.2</ele>
        <time>2023-04-05T14:10:54Z</time>
      </trkpt>
      <trkpt lat="49.82583" lon="2.28506">
        <ele>91.2</ele>
        <time>2023-04-05T14:10:55Z</time>
      </trkpt>
      <trkpt lat="49.82582" lon="2.28506">
        <ele>91.2</ele>
        <time>2023-04-05T14:10:56Z</time>
      </trkpt>
      <trkpt lat="49.8258" lon="2.28503">
        <ele>91.2</ele>
        <time>2023-04-05T14:10:57Z</time>
      </trkpt>
      <trkpt lat="49.82579" lon="2.28502">
        <ele>91.2</ele>
        <time>2023-04-05T14:10:59Z</time>
      </trkpt>
      <trkpt lat="49.82579" lon="2.28501">
        <ele>91.1</ele>
        <time>2023-04-05T14:11:00Z</time>
      </trkpt>
      <trkpt lat="49.82578" lon="2.285">
        <ele>91.1</ele>
        <time>2023-04-05T14:11:01Z</time>
      </trkpt>
      <trkpt lat="49.82577" lon="2.28499">
        <ele>91.1</ele>
        <time>2023-04-05T14:11:02Z</time>
      </trkpt>
      <trkpt lat="49.82576" lon="2.28497">
        <ele>91.1</ele>
        <time>2023-04-05T14:11:03Z</time>
      </trkpt>
      <trkpt lat="49.82575" lon="2.28496">
        <ele>91.1</ele>
        <time>2023-04-05T14:11:04Z</time>
      </trkpt>
      <trkpt lat="49.82574" lon="2.28495">
        <ele>91.1</ele>
        <time>2023-04-05T14:11:05Z</time>
      </trkpt>
      <trkpt lat="49.82573" lon="2.28494">
        <ele>91.1</ele>
        <time>2023-04-05T14:11:06Z</time>
      </trkpt>
      <trkpt lat="49.82572" lon="2.28493">
        <ele>91.1</ele>
        <time>2023-04-05T14:11:08Z</time>
      </trkpt>
      <trkpt lat="49.8257" lon="2.2849">
        <ele>91.1</ele>
        <time>2023-04-05T14:11:09Z</time>
      </trkpt>
      <trkpt lat="49.8257" lon="2.28489">
        <ele>91.1</ele>
        <time>2023-04-05T14:11:10Z</time>
      </trkpt>
      <trkpt lat="49.82569" lon="2.28488">
        <ele>91.1</ele>
        <time>2023-04-05T14:11:11Z</time>
      </trkpt>
      <trkpt lat="49.82568" lon="2.28487">
        <ele>91</ele>
        <time>2023-04-05T14:11:12Z</time>
      </trkpt>
      <trkpt lat="49.82567" lon="2.28485">
        <ele>91</ele>
        <time>2023-04-05T14:11:13Z</time>
      </trkpt>
      <trkpt lat="49.82566" lon="2.28483">
        <ele>91</ele>
        <time>2023-04-05T14:11:14Z</time>
      </trkpt>
      <trkpt lat="49.82565" lon="2.28482">
        <ele>91</ele>
        <time>2023-04-05T14:11:16Z</time>
      </trkpt>
      <trkpt lat="49.82565" lon="2.2848">
        <ele>91</ele>
        <time>2023-04-05T14:11:17Z</time>
      </trkpt>
      <trkpt lat="49.82564" lon="2.28479">
        <ele>91</ele>
        <time>2023-04-05T14:11:18Z</time>
      </trkpt>
      <trkpt lat="49.82563" lon="2.28477">
        <ele>91</ele>
        <time>2023-04-05T14:11:19Z</time>
      </trkpt>
      <trkpt lat="49.82562" lon="2.28476">
        <ele>91</ele>
        <time>2023-04-05T14:11:20Z</time>
      </trkpt>
      <trkpt lat="49.82562" lon="2.28475">
        <ele>91</ele>
        <time>2023-04-05T14:11:21Z</time>
      </trkpt>
      <trkpt lat="49.82561" lon="2.28473">
        <ele>91</ele>
        <time>2023-04-05T14:11:22Z</time>
      </trkpt>
      <trkpt lat="49.8256" lon="2.2847">
        <ele>91</ele>
        <time>2023-04-05T14:11:23Z</time>
      </trkpt>
      <trkpt lat="49.82559" lon="2.28468">
        <ele>91</ele>
        <time>2023-04-05T14:11:25Z</time>
      </trkpt>
      <trkpt lat="49.82559" lon="2.28467">
        <ele>91</ele>
        <time>2023-04-05T14:11:27Z</time>
      </trkpt>
      <trkpt lat="49.82558" lon="2.28465">
        <ele>91</ele>
        <time>2023-04-05T14:11:28Z</time>
      </trkpt>
      <trkpt lat="49.82558" lon="2.28463">
        <ele>90.9</ele>
        <time>2023-04-05T14:11:29Z</time>
      </trkpt>
      <trkpt lat="49.82557" lon="2.28462">
        <ele>90.9</ele>
        <time>2023-04-05T14:11:30Z</time>
      </trkpt>
      <trkpt lat="49.82556" lon="2.2846">
        <ele>90.9</ele>
        <time>2023-04-05T14:11:31Z</time>
      </trkpt>
      <trkpt lat="49.82556" lon="2.28459">
        <ele>90.9</ele>
        <time>2023-04-05T14:11:33Z</time>
      </trkpt>
      <trkpt lat="49.82555" lon="2.28458">
        <ele>90.9</ele>
        <time>2023-04-05T14:11:34Z</time>
      </trkpt>
      <trkpt lat="49.82555" lon="2.28457">
        <ele>90.9</ele>
        <time>2023-04-05T14:11:35Z</time>
      </trkpt>
      <trkpt lat="49.82555" lon="2.28455">
        <ele>90.9</ele>
        <time>2023-04-05T14:11:36Z</time>
      </trkpt>
      <trkpt lat="49.82554" lon="2.28454">
        <ele>90.9</ele>
        <time>2023-04-05T14:11:37Z</time>
      </trkpt>
      <trkpt lat="49.82553" lon="2.28452">
        <ele>90.9</ele>
        <time>2023-04-05T14:11:38Z</time>
      </trkpt>
      <trkpt lat="49.82552" lon="2.28449">
        <ele>90.9</ele>
        <time>2023-04-05T14:11:40Z</time>
      </trkpt>
      <trkpt lat="49.82552" lon="2.28448">
        <ele>90.9</ele>
        <time>2023-04-05T14:11:41Z</time>
      </trkpt>
      <trkpt lat="49.82552" lon="2.28446">
        <ele>90.9</ele>
        <time>2023-04-05T14:11:42Z</time>
      </trkpt>
      <trkpt lat="49.82551" lon="2.28445">
        <ele>90.9</ele>
        <time>2023-04-05T14:11:43Z</time>
      </trkpt>
      <trkpt lat="49.8255" lon="2.28442">
        <ele>90.9</ele>
        <time>2023-04-05T14:11:45Z</time>
      </trkpt>
      <trkpt lat="49.8255" lon="2.28441">
        <ele>90.9</ele>
        <time>2023-04-05T14:11:46Z</time>
      </trkpt>
      <trkpt lat="49.82549" lon="2.2844">
        <ele>90.9</ele>
        <time>2023-04-05T14:11:47Z</time>
      </trkpt>
      <trkpt lat="49.82548" lon="2.28439">
        <ele>90.9</ele>
        <time>2023-04-05T14:11:48Z</time>
      </trkpt>
      <trkpt lat="49.82548" lon="2.28437">
        <ele>90.9</ele>
        <time>2023-04-05T14:11:49Z</time>
      </trkpt>
      <trkpt lat="49.82547" lon="2.28436">
        <ele>91</ele>
        <time>2023-04-05T14:11:50Z</time>
      </trkpt>
      <trkpt lat="49.82547" lon="2.28434">
        <ele>91</ele>
        <time>2023-04-05T14:11:51Z</time>
      </trkpt>
      <trkpt lat="49.82546" lon="2.28433">
        <ele>91</ele>
        <time>2023-04-05T14:11:52Z</time>
      </trkpt>
      <trkpt lat="49.82545" lon="2.28432">
        <ele>91</ele>
        <time>2023-04-05T14:11:53Z</time>
      </trkpt>
      <trkpt lat="49.82545" lon="2.28431">
        <ele>91</ele>
        <time>2023-04-05T14:11:55Z</time>
      </trkpt>
      <trkpt lat="49.82545" lon="2.2843">
        <ele>91</ele>
        <time>2023-04-05T14:11:56Z</time>
      </trkpt>
      <trkpt lat="49.82544" lon="2.28429">
        <ele>91</ele>
        <time>2023-04-05T14:11:57Z</time>
      </trkpt>
      <trkpt lat="49.82544" lon="2.28429">
        <ele>91</ele>
        <time>2023-04-05T14:11:58Z</time>
      </trkpt>
      <trkpt lat="49.82544" lon="2.28427">
        <ele>91</ele>
        <time>2023-04-05T14:11:59Z</time>
      </trkpt>
      <trkpt lat="49.82543" lon="2.28426">
        <ele>91</ele>
        <time>2023-04-05T14:12:00Z</time>
      </trkpt>
      <trkpt lat="49.82543" lon="2.28424">
        <ele>91</ele>
        <time>2023-04-05T14:12:01Z</time>
      </trkpt>
      <trkpt lat="49.82542" lon="2.28423">
        <ele>91.1</ele>
        <time>2023-04-05T14:12:02Z</time>
      </trkpt>
      <trkpt lat="49.82542" lon="2.28422">
        <ele>91.1</ele>
        <time>2023-04-05T14:12:03Z</time>
      </trkpt>
      <trkpt lat="49.82541" lon="2.28421">
        <ele>91.1</ele>
        <time>2023-04-05T14:12:05Z</time>
      </trkpt>
      <trkpt lat="49.82541" lon="2.2842">
        <ele>91.1</ele>
        <time>2023-04-05T14:12:06Z</time>
      </trkpt>
      <trkpt lat="49.8254" lon="2.28419">
        <ele>91.1</ele>
        <time>2023-04-05T14:12:07Z</time>
      </trkpt>
      <trkpt lat="49.82539" lon="2.28418">
        <ele>91.1</ele>
        <time>2023-04-05T14:12:08Z</time>
      </trkpt>
      <trkpt lat="49.82538" lon="2.28416">
        <ele>91.2</ele>
        <time>2023-04-05T14:12:09Z</time>
      </trkpt>
      <trkpt lat="49.82537" lon="2.28415">
        <ele>91.2</ele>
        <time>2023-04-05T14:12:10Z</time>
      </trkpt>
      <trkpt lat="49.82536" lon="2.28413">
        <ele>91.2</ele>
        <time>2023-04-05T14:12:11Z</time>
      </trkpt>
      <trkpt lat="49.82535" lon="2.28411">
        <ele>91.2</ele>
        <time>2023-04-05T14:12:12Z</time>
      </trkpt>
      <trkpt lat="49.82534" lon="2.2841">
        <ele>91.2</ele>
        <time>2023-04-05T14:12:13Z</time>
      </trkpt>
      <trkpt lat="49.82534" lon="2.28408">
        <ele>91.3</ele>
        <time>2023-04-05T14:12:14Z</time>
      </trkpt>
      <trkpt lat="49.82533" lon="2.28406">
        <ele>91.3</ele>
        <time>2023-04-05T14:12:16Z</time>
      </trkpt>
      <trkpt lat="49.82532" lon="2.28405">
        <ele>91.3</ele>
        <time>2023-04-05T14:12:17Z</time>
      </trkpt>
      <trkpt lat="49.8253" lon="2.28403">
        <ele>91.3</ele>
        <time>2023-04-05T14:12:18Z</time>
      </trkpt>
      <trkpt lat="49.82529" lon="2.28401">
        <ele>91.4</ele>
        <time>2023-04-05T14:12:19Z</time>
      </trkpt>
      <trkpt lat="49.82528" lon="2.284">
        <ele>91.4</ele>
        <time>2023-04-05T14:12:20Z</time>
      </trkpt>
      <trkpt lat="49.82527" lon="2.28399">
        <ele>91.4</ele>
        <time>2023-04-05T14:12:21Z</time>
      </trkpt>
      <trkpt lat="49.82526" lon="2.28397">
        <ele>91.5</ele>
        <time>2023-04-05T14:12:22Z</time>
      </trkpt>
      <trkpt lat="49.82525" lon="2.28397">
        <ele>91.5</ele>
        <time>2023-04-05T14:12:23Z</time>
      </trkpt>
      <trkpt lat="49.82524" lon="2.28396">
        <ele>91.5</ele>
        <time>2023-04-05T14:12:25Z</time>
      </trkpt>
      <trkpt lat="49.82523" lon="2.28396">
        <ele>91.5</ele>
        <time>2023-04-05T14:12:26Z</time>
      </trkpt>
      <trkpt lat="49.82522" lon="2.28395">
        <ele>91.5</ele>
        <time>2023-04-05T14:12:27Z</time>
      </trkpt>
      <trkpt lat="49.82521" lon="2.28393">
        <ele>91.6</ele>
        <time>2023-04-05T14:12:28Z</time>
      </trkpt>
      <trkpt lat="49.8252" lon="2.28392">
        <ele>91.6</ele>
        <time>2023-04-05T14:12:29Z</time>
      </trkpt>
      <trkpt lat="49.82518" lon="2.2839">
        <ele>91.6</ele>
        <time>2023-04-05T14:12:30Z</time>
      </trkpt>
      <trkpt lat="49.82518" lon="2.28389">
        <ele>91.6</ele>
        <time>2023-04-05T14:12:31Z</time>
      </trkpt>
      <trkpt lat="49.82517" lon="2.28388">
        <ele>91.7</ele>
        <time>2023-04-05T14:12:32Z</time>
      </trkpt>
      <trkpt lat="49.82516" lon="2.28388">
        <ele>91.7</ele>
        <time>2023-04-05T14:12:33Z</time>
      </trkpt>
      <trkpt lat="49.82515" lon="2.28387">
        <ele>91.7</ele>
        <time>2023-04-05T14:12:35Z</time>
      </trkpt>
      <trkpt lat="49.82514" lon="2.28386">
        <ele>91.7</ele>
        <time>2023-04-05T14:12:36Z</time>
      </trkpt>
      <trkpt lat="49.82513" lon="2.28384">
        <ele>91.8</ele>
        <time>2023-04-05T14:12:37Z</time>
      </trkpt>
      <trkpt lat="49.82512" lon="2.28383">
        <ele>91.8</ele>
        <time>2023-04-05T14:12:38Z</time>
      </trkpt>
      <trkpt lat="49.82511" lon="2.28382">
        <ele>91.8</ele>
        <time>2023-04-05T14:12:39Z</time>
      </trkpt>
      <trkpt lat="49.82509" lon="2.28381">
        <ele>91.8</ele>
        <time>2023-04-05T14:12:41Z</time>
      </trkpt>
      <trkpt lat="49.82508" lon="2.2838">
        <ele>91.9</ele>
        <time>2023-04-05T14:12:42Z</time>
      </trkpt>
      <trkpt lat="49.82505" lon="2.28378">
        <ele>91.9</ele>
        <time>2023-04-05T14:12:43Z</time>
      </trkpt>
      <trkpt lat="49.82504" lon="2.28377">
        <ele>91.9</ele>
        <time>2023-04-05T14:12:44Z</time>
      </trkpt>
      <trkpt lat="49.82502" lon="2.28376">
        <ele>92</ele>
        <time>2023-04-05T14:12:45Z</time>
      </trkpt>
      <trkpt lat="49.82501" lon="2.28375">
        <ele>92</ele>
        <time>2023-04-05T14:12:46Z</time>
      </trkpt>
      <trkpt lat="49.82499" lon="2.28374">
        <ele>92</ele>
        <time>2023-04-05T14:12:47Z</time>
      </trkpt>
      <trkpt lat="49.82498" lon="2.28373">
        <ele>92</ele>
        <time>2023-04-05T14:12:48Z</time>
      </trkpt>
      <trkpt lat="49.82496" lon="2.28372">
        <ele>92</ele>
        <time>2023-04-05T14:12:49Z</time>
      </trkpt>
      <trkpt lat="49.82495" lon="2.28371">
        <ele>92</ele>
        <time>2023-04-05T14:12:50Z</time>
      </trkpt>
      <trkpt lat="49.82494" lon="2.2837">
        <ele>92.1</ele>
        <time>2023-04-05T14:12:52Z</time>
      </trkpt>
      <trkpt lat="49.82492" lon="2.28369">
        <ele>92.1</ele>
        <time>2023-04-05T14:12:53Z</time>
      </trkpt>
      <trkpt lat="49.82491" lon="2.28368">
        <ele>92.1</ele>
        <time>2023-04-05T14:12:54Z</time>
      </trkpt>
      <trkpt lat="49.8249" lon="2.28367">
        <ele>92.1</ele>
        <time>2023-04-05T14:12:55Z</time>
      </trkpt>
      <trkpt lat="49.82489" lon="2.28366">
        <ele>92.1</ele>
        <time>2023-04-05T14:12:56Z</time>
      </trkpt>
      <trkpt lat="49.82488" lon="2.28366">
        <ele>92.1</ele>
        <time>2023-04-05T14:12:57Z</time>
      </trkpt>
      <trkpt lat="49.82487" lon="2.28365">
        <ele>92.1</ele>
        <time>2023-04-05T14:12:58Z</time>
      </trkpt>
      <trkpt lat="49.82486" lon="2.28364">
        <ele>92.1</ele>
        <time>2023-04-05T14:12:59Z</time>
      </trkpt>
      <trkpt lat="49.82484" lon="2.28362">
        <ele>92.1</ele>
        <time>2023-04-05T14:13:00Z</time>
      </trkpt>
      <trkpt lat="49.82483" lon="2.28362">
        <ele>92.1</ele>
        <time>2023-04-05T14:13:02Z</time>
      </trkpt>
      <trkpt lat="49.82482" lon="2.28361">
        <ele>92.1</ele>
        <time>2023-04-05T14:13:03Z</time>
      </trkpt>
      <trkpt lat="49.82481" lon="2.2836">
        <ele>92</ele>
        <time>2023-04-05T14:13:04Z</time>
      </trkpt>
      <trkpt lat="49.8248" lon="2.28359">
        <ele>92</ele>
        <time>2023-04-05T14:13:05Z</time>
      </trkpt>
      <trkpt lat="49.82479" lon="2.28358">
        <ele>92</ele>
        <time>2023-04-05T14:13:06Z</time>
      </trkpt>
      <trkpt lat="49.82478" lon="2.28357">
        <ele>92</ele>
        <time>2023-04-05T14:13:07Z</time>
      </trkpt>
      <trkpt lat="49.82477" lon="2.28356">
        <ele>92</ele>
        <time>2023-04-05T14:13:08Z</time>
      </trkpt>
      <trkpt lat="49.82476" lon="2.28355">
        <ele>92</ele>
        <time>2023-04-05T14:13:10Z</time>
      </trkpt>
      <trkpt lat="49.82475" lon="2.28354">
        <ele>92</ele>
        <time>2023-04-05T14:13:11Z</time>
      </trkpt>
      <trkpt lat="49.82473" lon="2.28353">
        <ele>92</ele>
        <time>2023-04-05T14:13:12Z</time>
      </trkpt>
      <trkpt lat="49.82472" lon="2.28351">
        <ele>91.9</ele>
        <time>2023-04-05T14:13:13Z</time>
      </trkpt>
      <trkpt lat="49.82471" lon="2.28349">
        <ele>91.9</ele>
        <time>2023-04-05T14:13:14Z</time>
      </trkpt>
      <trkpt lat="49.8247" lon="2.28348">
        <ele>91.9</ele>
        <time>2023-04-05T14:13:15Z</time>
      </trkpt>
      <trkpt lat="49.82468" lon="2.28346">
        <ele>91.8</ele>
        <time>2023-04-05T14:13:16Z</time>
      </trkpt>
      <trkpt lat="49.82467" lon="2.28345">
        <ele>91.8</ele>
        <time>2023-04-05T14:13:17Z</time>
      </trkpt>
      <trkpt lat="49.82466" lon="2.28344">
        <ele>91.8</ele>
        <time>2023-04-05T14:13:19Z</time>
      </trkpt>
      <trkpt lat="49.82465" lon="2.28342">
        <ele>91.8</ele>
        <time>2023-04-05T14:13:20Z</time>
      </trkpt>
      <trkpt lat="49.82464" lon="2.28341">
        <ele>91.8</ele>
        <time>2023-04-05T14:13:21Z</time>
      </trkpt>
      <trkpt lat="49.82463" lon="2.28339">
        <ele>91.7</ele>
        <time>2023-04-05T14:13:22Z</time>
      </trkpt>
      <trkpt lat="49.82462" lon="2.28337">
        <ele>91.7</ele>
        <time>2023-04-05T14:13:23Z</time>
      </trkpt>
      <trkpt lat="49.8246" lon="2.28335">
        <ele>91.7</ele>
        <time>2023-04-05T14:13:24Z</time>
      </trkpt>
      <trkpt lat="49.8246" lon="2.28335">
        <ele>91.6</ele>
        <time>2023-04-05T14:13:25Z</time>
      </trkpt>
      <trkpt lat="49.82459" lon="2.28334">
        <ele>91.6</ele>
        <time>2023-04-05T14:13:26Z</time>
      </trkpt>
      <trkpt lat="49.82458" lon="2.28332">
        <ele>91.6</ele>
        <time>2023-04-05T14:13:27Z</time>
      </trkpt>
      <trkpt lat="49.82457" lon="2.28331">
        <ele>91.6</ele>
        <time>2023-04-05T14:13:28Z</time>
      </trkpt>
      <trkpt lat="49.82457" lon="2.2833">
        <ele>91.5</ele>
        <time>2023-04-05T14:13:30Z</time>
      </trkpt>
      <trkpt lat="49.82456" lon="2.28329">
        <ele>91.5</ele>
        <time>2023-04-05T14:13:31Z</time>
      </trkpt>
      <trkpt lat="49.82455" lon="2.28328">
        <ele>91.5</ele>
        <time>2023-04-05T14:13:32Z</time>
      </trkpt>
      <trkpt lat="49.82454" lon="2.28326">
        <ele>91.4</ele>
        <time>2023-04-05T14:13:33Z</time>
      </trkpt>
      <trkpt lat="49.82453" lon="2.28324">
        <ele>91.4</ele>
        <time>2023-04-05T14:13:34Z</time>
      </trkpt>
      <trkpt lat="49.82452" lon="2.28323">
        <ele>91.4</ele>
        <time>2023-04-05T14:13:35Z</time>
      </trkpt>
      <trkpt lat="49.82451" lon="2.28321">
        <ele>91.3</ele>
        <time>2023-04-05T14:13:36Z</time>
      </trkpt>
      <trkpt lat="49.82451" lon="2.28319">
        <ele>91.3</ele>
        <time>2023-04-05T14:13:37Z</time>
      </trkpt>
      <trkpt lat="49.8245" lon="2.28317">
        <ele>91.2</ele>
        <time>2023-04-05T14:13:38Z</time>
      </trkpt>
      <trkpt lat="49.82449" lon="2.28316">
        <ele>91.2</ele>
        <time>2023-04-05T14:13:40Z</time>
      </trkpt>
      <trkpt lat="49.82449" lon="2.28314">
        <ele>91.2</ele>
        <time>2023-04-05T14:13:41Z</time>
      </trkpt>
      <trkpt lat="49.82448" lon="2.28313">
        <ele>91.2</ele>
        <time>2023-04-05T14:13:42Z</time>
      </trkpt>
      <trkpt lat="49.82447" lon="2.28311">
        <ele>91.1</ele>
        <time>2023-04-05T14:13:43Z</time>
      </trkpt>
      <trkpt lat="49.82447" lon="2.2831">
        <ele>91.1</ele>
        <time>2023-04-05T14:13:44Z</time>
      </trkpt>
      <trkpt lat="49.82446" lon="2.28309">
        <ele>91.1</ele>
        <time>2023-04-05T14:13:45Z</time>
      </trkpt>
      <trkpt lat="49.82445" lon="2.28308">
        <ele>91</ele>
        <time>2023-04-05T14:13:46Z</time>
      </trkpt>
      <trkpt lat="49.82444" lon="2.28306">
        <ele>91</ele>
        <time>2023-04-05T14:13:47Z</time>
      </trkpt>
      <trkpt lat="49.82444" lon="2.28306">
        <ele>91</ele>
        <time>2023-04-05T14:13:49Z</time>
      </trkpt>
      <trkpt lat="49.82443" lon="2.28305">
        <ele>91</ele>
        <time>2023-04-05T14:13:50Z</time>
      </trkpt>
      <trkpt lat="49.82443" lon="2.28304">
        <ele>90.9</ele>
        <time>2023-04-05T14:13:51Z</time>
      </trkpt>
      <trkpt lat="49.82442" lon="2.28303">
        <ele>90.9</ele>
        <time>2023-04-05T14:13:52Z</time>
      </trkpt>
      <trkpt lat="49.8244" lon="2.283">
        <ele>90.9</ele>
        <time>2023-04-05T14:13:53Z</time>
      </trkpt>
      <trkpt lat="49.8244" lon="2.283">
        <ele>90.8</ele>
        <time>2023-04-05T14:13:54Z</time>
      </trkpt>
      <trkpt lat="49.82439" lon="2.28299">
        <ele>90.8</ele>
        <time>2023-04-05T14:13:55Z</time>
      </trkpt>
      <trkpt lat="49.82438" lon="2.28297">
        <ele>90.8</ele>
        <time>2023-04-05T14:13:56Z</time>
      </trkpt>
      <trkpt lat="49.82437" lon="2.28296">
        <ele>90.8</ele>
        <time>2023-04-05T14:13:57Z</time>
      </trkpt>
      <trkpt lat="49.82436" lon="2.28294">
        <ele>90.7</ele>
        <time>2023-04-05T14:13:59Z</time>
      </trkpt>
      <trkpt lat="49.82435" lon="2.28292">
        <ele>90.7</ele>
        <time>2023-04-05T14:14:00Z</time>
      </trkpt>
      <trkpt lat="49.82434" lon="2.2829">
        <ele>90.7</ele>
        <time>2023-04-05T14:14:01Z</time>
      </trkpt>
      <trkpt lat="49.82433" lon="2.28289">
        <ele>90.6</ele>
        <time>2023-04-05T14:14:02Z</time>
      </trkpt>
      <trkpt lat="49.82432" lon="2.28287">
        <ele>90.6</ele>
        <time>2023-04-05T14:14:03Z</time>
      </trkpt>
      <trkpt lat="49.82431" lon="2.28285">
        <ele>90.6</ele>
        <time>2023-04-05T14:14:04Z</time>
      </trkpt>
      <trkpt lat="49.8243" lon="2.28283">
        <ele>90.6</ele>
        <time>2023-04-05T14:14:06Z</time>
      </trkpt>
      <trkpt lat="49.82429" lon="2.28282">
        <ele>90.6</ele>
        <time>2023-04-05T14:14:07Z</time>
      </trkpt>
      <trkpt lat="49.82428" lon="2.28281">
        <ele>90.6</ele>
        <time>2023-04-05T14:14:08Z</time>
      </trkpt>
      <trkpt lat="49.82428" lon="2.2828">
        <ele>90.5</ele>
        <time>2023-04-05T14:14:09Z</time>
      </trkpt>
      <trkpt lat="49.82427" lon="2.28279">
        <ele>90.5</ele>
        <time>2023-04-05T14:14:10Z</time>
      </trkpt>
      <trkpt lat="49.82427" lon="2.28278">
        <ele>90.5</ele>
        <time>2023-04-05T14:14:11Z</time>
      </trkpt>
      <trkpt lat="49.82426" lon="2.28277">
        <ele>90.5</ele>
        <time>2023-04-05T14:14:13Z</time>
      </trkpt>
      <trkpt lat="49.82425" lon="2.28276">
        <ele>90.5</ele>
        <time>2023-04-05T14:14:14Z</time>
      </trkpt>
      <trkpt lat="49.82424" lon="2.28275">
        <ele>90.5</ele>
        <time>2023-04-05T14:14:15Z</time>
      </trkpt>
      <trkpt lat="49.82424" lon="2.28274">
        <ele>90.5</ele>
        <time>2023-04-05T14:14:16Z</time>
      </trkpt>
      <trkpt lat="49.82423" lon="2.28272">
        <ele>90.5</ele>
        <time>2023-04-05T14:14:17Z</time>
      </trkpt>
      <trkpt lat="49.82422" lon="2.2827">
        <ele>90.5</ele>
        <time>2023-04-05T14:14:18Z</time>
      </trkpt>
      <trkpt lat="49.82422" lon="2.2827">
        <ele>90.5</ele>
        <time>2023-04-05T14:14:19Z</time>
      </trkpt>
      <trkpt lat="49.82421" lon="2.28268">
        <ele>90.5</ele>
        <time>2023-04-05T14:14:20Z</time>
      </trkpt>
      <trkpt lat="49.82421" lon="2.28267">
        <ele>90.5</ele>
        <time>2023-04-05T14:14:21Z</time>
      </trkpt>
      <trkpt lat="49.8242" lon="2.28266">
        <ele>90.5</ele>
        <time>2023-04-05T14:14:22Z</time>
      </trkpt>
      <trkpt lat="49.82419" lon="2.28266">
        <ele>90.5</ele>
        <time>2023-04-05T14:14:23Z</time>
      </trkpt>
      <trkpt lat="49.82418" lon="2.28264">
        <ele>90.5</ele>
        <time>2023-04-05T14:14:25Z</time>
      </trkpt>
      <trkpt lat="49.82418" lon="2.28263">
        <ele>90.5</ele>
        <time>2023-04-05T14:14:26Z</time>
      </trkpt>
      <trkpt lat="49.82417" lon="2.28262">
        <ele>90.5</ele>
        <time>2023-04-05T14:14:27Z</time>
      </trkpt>
      <trkpt lat="49.82416" lon="2.28261">
        <ele>90.5</ele>
        <time>2023-04-05T14:14:28Z</time>
      </trkpt>
      <trkpt lat="49.82416" lon="2.28261">
        <ele>90.5</ele>
        <time>2023-04-05T14:14:29Z</time>
      </trkpt>
      <trkpt lat="49.82415" lon="2.2826">
        <ele>90.5</ele>
        <time>2023-04-05T14:14:31Z</time>
      </trkpt>
      <trkpt lat="49.82414" lon="2.2826">
        <ele>90.5</ele>
        <time>2023-04-05T14:14:32Z</time>
      </trkpt>
      <trkpt lat="49.82413" lon="2.2826">
        <ele>90.5</ele>
        <time>2023-04-05T14:14:34Z</time>
      </trkpt>
      <trkpt lat="49.82412" lon="2.28261">
        <ele>90.6</ele>
        <time>2023-04-05T14:14:35Z</time>
      </trkpt>
      <trkpt lat="49.8241" lon="2.28261">
        <ele>90.6</ele>
        <time>2023-04-05T14:14:37Z</time>
      </trkpt>
      <trkpt lat="49.82409" lon="2.28261">
        <ele>90.6</ele>
        <time>2023-04-05T14:14:38Z</time>
      </trkpt>
      <trkpt lat="49.82409" lon="2.28261">
        <ele>90.6</ele>
        <time>2023-04-05T14:14:39Z</time>
      </trkpt>
      <trkpt lat="49.82408" lon="2.2826">
        <ele>90.6</ele>
        <time>2023-04-05T14:14:40Z</time>
      </trkpt>
      <trkpt lat="49.82408" lon="2.2826">
        <ele>90.6</ele>
        <time>2023-04-05T14:14:42Z</time>
      </trkpt>
      <trkpt lat="49.82408" lon="2.2826">
        <ele>90.6</ele>
        <time>2023-04-05T14:14:43Z</time>
      </trkpt>
      <trkpt lat="49.82408" lon="2.28259">
        <ele>90.6</ele>
        <time>2023-04-05T14:14:45Z</time>
      </trkpt>
      <trkpt lat="49.82408" lon="2.28259">
        <ele>90.6</ele>
        <time>2023-04-05T14:14:47Z</time>
      </trkpt>
      <trkpt lat="49.82408" lon="2.28259">
        <ele>90.6</ele>
        <time>2023-04-05T14:14:48Z</time>
      </trkpt>
      <trkpt lat="49.82408" lon="2.28258">
        <ele>90.6</ele>
        <time>2023-04-05T14:14:50Z</time>
      </trkpt>
      <trkpt lat="49.82408" lon="2.28258">
        <ele>90.6</ele>
        <time>2023-04-05T14:14:51Z</time>
      </trkpt>
      <trkpt lat="49.82408" lon="2.28257">
        <ele>90.6</ele>
        <time>2023-04-05T14:14:53Z</time>
      </trkpt>
      <trkpt lat="49.82408" lon="2.28257">
        <ele>90.6</ele>
        <time>2023-04-05T14:14:54Z</time>
      </trkpt>
      <trkpt lat="49.82407" lon="2.28257">
        <ele>90.6</ele>
        <time>2023-04-05T14:14:56Z</time>
      </trkpt>
      <trkpt lat="49.82407" lon="2.28256">
        <ele>90.6</ele>
        <time>2023-04-05T14:14:57Z</time>
      </trkpt>
      <trkpt lat="49.82407" lon="2.28256">
        <ele>90.6</ele>
        <time>2023-04-05T14:14:58Z</time>
      </trkpt>
      <trkpt lat="49.82407" lon="2.28256">
        <ele>90.6</ele>
        <time>2023-04-05T14:15:00Z</time>
      </trkpt>
      <trkpt lat="49.82407" lon="2.28255">
        <ele>90.6</ele>
        <time>2023-04-05T14:15:01Z</time>
      </trkpt>
      <trkpt lat="49.82407" lon="2.28255">
        <ele>90.6</ele>
        <time>2023-04-05T14:15:02Z</time>
      </trkpt>
      <trkpt lat="49.82406" lon="2.28253">
        <ele>90.6</ele>
        <time>2023-04-05T14:15:03Z</time>
      </trkpt>
      <trkpt lat="49.82406" lon="2.28253">
        <ele>90.6</ele>
        <time>2023-04-05T14:15:04Z</time>
      </trkpt>
      <trkpt lat="49.82405" lon="2.28252">
        <ele>90.7</ele>
        <time>2023-04-05T14:15:06Z</time>
      </trkpt>
      <trkpt lat="49.82405" lon="2.28252">
        <ele>90.7</ele>
        <time>2023-04-05T14:15:07Z</time>
      </trkpt>
      <trkpt lat="49.82405" lon="2.28251">
        <ele>90.7</ele>
        <time>2023-04-05T14:15:08Z</time>
      </trkpt>
      <trkpt lat="49.82404" lon="2.28251">
        <ele>90.7</ele>
        <time>2023-04-05T14:15:09Z</time>
      </trkpt>
      <trkpt lat="49.82404" lon="2.28251">
        <ele>90.7</ele>
        <time>2023-04-05T14:15:10Z</time>
      </trkpt>
      <trkpt lat="49.82404" lon="2.28252">
        <ele>90.7</ele>
        <time>2023-04-05T14:15:12Z</time>
      </trkpt>
      <trkpt lat="49.82403" lon="2.28252">
        <ele>90.7</ele>
        <time>2023-04-05T14:15:14Z</time>
      </trkpt>
      <trkpt lat="49.82403" lon="2.28251">
        <ele>90.7</ele>
        <time>2023-04-05T14:15:15Z</time>
      </trkpt>
      <trkpt lat="49.82403" lon="2.2825">
        <ele>90.7</ele>
        <time>2023-04-05T14:15:16Z</time>
      </trkpt>
      <trkpt lat="49.82402" lon="2.2825">
        <ele>90.7</ele>
        <time>2023-04-05T14:15:17Z</time>
      </trkpt>
      <trkpt lat="49.82401" lon="2.28249">
        <ele>90.7</ele>
        <time>2023-04-05T14:15:18Z</time>
      </trkpt>
      <trkpt lat="49.82401" lon="2.28248">
        <ele>90.7</ele>
        <time>2023-04-05T14:15:19Z</time>
      </trkpt>
      <trkpt lat="49.824" lon="2.28246">
        <ele>90.8</ele>
        <time>2023-04-05T14:15:21Z</time>
      </trkpt>
      <trkpt lat="49.824" lon="2.28245">
        <ele>90.8</ele>
        <time>2023-04-05T14:15:22Z</time>
      </trkpt>
      <trkpt lat="49.82399" lon="2.28244">
        <ele>90.8</ele>
        <time>2023-04-05T14:15:23Z</time>
      </trkpt>
      <trkpt lat="49.824" lon="2.28241">
        <ele>90.8</ele>
        <time>2023-04-05T14:15:24Z</time>
      </trkpt>
      <trkpt lat="49.82401" lon="2.28239">
        <ele>90.8</ele>
        <time>2023-04-05T14:15:25Z</time>
      </trkpt>
      <trkpt lat="49.82401" lon="2.28236">
        <ele>90.9</ele>
        <time>2023-04-05T14:15:26Z</time>
      </trkpt>
      <trkpt lat="49.824" lon="2.28233">
        <ele>90.9</ele>
        <time>2023-04-05T14:15:27Z</time>
      </trkpt>
      <trkpt lat="49.824" lon="2.28232">
        <ele>90.9</ele>
        <time>2023-04-05T14:15:29Z</time>
      </trkpt>
      <trkpt lat="49.82399" lon="2.2823">
        <ele>90.9</ele>
        <time>2023-04-05T14:15:30Z</time>
      </trkpt>
      <trkpt lat="49.82399" lon="2.28228">
        <ele>90.9</ele>
        <time>2023-04-05T14:15:31Z</time>
      </trkpt>
      <trkpt lat="49.82398" lon="2.28227">
        <ele>91</ele>
        <time>2023-04-05T14:15:32Z</time>
      </trkpt>
      <trkpt lat="49.82397" lon="2.28225">
        <ele>91</ele>
        <time>2023-04-05T14:15:33Z</time>
      </trkpt>
      <trkpt lat="49.82397" lon="2.28224">
        <ele>91</ele>
        <time>2023-04-05T14:15:34Z</time>
      </trkpt>
      <trkpt lat="49.82397" lon="2.28223">
        <ele>91</ele>
        <time>2023-04-05T14:15:35Z</time>
      </trkpt>
      <trkpt lat="49.82396" lon="2.28222">
        <ele>91</ele>
        <time>2023-04-05T14:15:37Z</time>
      </trkpt>
      <trkpt lat="49.82396" lon="2.28221">
        <ele>91</ele>
        <time>2023-04-05T14:15:38Z</time>
      </trkpt>
      <trkpt lat="49.82396" lon="2.2822">
        <ele>91</ele>
        <time>2023-04-05T14:15:39Z</time>
      </trkpt>
      <trkpt lat="49.82395" lon="2.2822">
        <ele>91</ele>
        <time>2023-04-05T14:15:40Z</time>
      </trkpt>
      <trkpt lat="49.82395" lon="2.28219">
        <ele>91</ele>
        <time>2023-04-05T14:15:41Z</time>
      </trkpt>
      <trkpt lat="49.82395" lon="2.28219">
        <ele>91.1</ele>
        <time>2023-04-05T14:15:42Z</time>
      </trkpt>
      <trkpt lat="49.82394" lon="2.28218">
        <ele>91.1</ele>
        <time>2023-04-05T14:15:43Z</time>
      </trkpt>
      <trkpt lat="49.82394" lon="2.28218">
        <ele>91.1</ele>
        <time>2023-04-05T14:15:44Z</time>
      </trkpt>
      <trkpt lat="49.82394" lon="2.28217">
        <ele>91.1</ele>
        <time>2023-04-05T14:15:45Z</time>
      </trkpt>
      <trkpt lat="49.82394" lon="2.28217">
        <ele>91.1</ele>
        <time>2023-04-05T14:15:47Z</time>
      </trkpt>
      <trkpt lat="49.82394" lon="2.28216">
        <ele>91.1</ele>
        <time>2023-04-05T14:15:48Z</time>
      </trkpt>
      <trkpt lat="49.82394" lon="2.28215">
        <ele>91.1</ele>
        <time>2023-04-05T14:15:49Z</time>
      </trkpt>
      <trkpt lat="49.82394" lon="2.28215">
        <ele>91.1</ele>
        <time>2023-04-05T14:15:51Z</time>
      </trkpt>
      <trkpt lat="49.82394" lon="2.28216">
        <ele>91.1</ele>
        <time>2023-04-05T14:15:52Z</time>
      </trkpt>
      <trkpt lat="49.82394" lon="2.28216">
        <ele>91.1</ele>
        <time>2023-04-05T14:15:53Z</time>
      </trkpt>
      <trkpt lat="49.82394" lon="2.28215">
        <ele>91.1</ele>
        <time>2023-04-05T14:15:54Z</time>
      </trkpt>
      <trkpt lat="49.82395" lon="2.28215">
        <ele>91.1</ele>
        <time>2023-04-05T14:15:55Z</time>
      </trkpt>
      <trkpt lat="49.82395" lon="2.28215">
        <ele>91.1</ele>
        <time>2023-04-05T14:15:56Z</time>
      </trkpt>
      <trkpt lat="49.82396" lon="2.28218">
        <ele>91.1</ele>
        <time>2023-04-05T14:15:57Z</time>
      </trkpt>
      <trkpt lat="49.82396" lon="2.2822">
        <ele>91.2</ele>
        <time>2023-04-05T14:15:59Z</time>
      </trkpt>
      <trkpt lat="49.82396" lon="2.28222">
        <ele>91.2</ele>
        <time>2023-04-05T14:16:00Z</time>
      </trkpt>
      <trkpt lat="49.82396" lon="2.28221">
        <ele>91.2</ele>
        <time>2023-04-05T14:16:01Z</time>
      </trkpt>
      <trkpt lat="49.82396" lon="2.2822">
        <ele>91.2</ele>
        <time>2023-04-05T14:16:02Z</time>
      </trkpt>
      <trkpt lat="49.82396" lon="2.28219">
        <ele>91.2</ele>
        <time>2023-04-05T14:16:03Z</time>
      </trkpt>
      <trkpt lat="49.82396" lon="2.28218">
        <ele>91.2</ele>
        <time>2023-04-05T14:16:05Z</time>
      </trkpt>
      <trkpt lat="49.82396" lon="2.28218">
        <ele>91.2</ele>
        <time>2023-04-05T14:16:06Z</time>
      </trkpt>
      <trkpt lat="49.82396" lon="2.28217">
        <ele>91.2</ele>
        <time>2023-04-05T14:16:07Z</time>
      </trkpt>
      <trkpt lat="49.82397" lon="2.28217">
        <ele>91.2</ele>
        <time>2023-04-05T14:16:08Z</time>
      </trkpt>
      <trkpt lat="49.82397" lon="2.28216">
        <ele>91.2</ele>
        <time>2023-04-05T14:16:10Z</time>
      </trkpt>
      <trkpt lat="49.82396" lon="2.28215">
        <ele>91.2</ele>
        <time>2023-04-05T14:16:11Z</time>
      </trkpt>
      <trkpt lat="49.82395" lon="2.2821">
        <ele>91.3</ele>
        <time>2023-04-05T14:16:13Z</time>
      </trkpt>
      <trkpt lat="49.82394" lon="2.28208">
        <ele>91.3</ele>
        <time>2023-04-05T14:16:14Z</time>
      </trkpt>
      <trkpt lat="49.82392" lon="2.28204">
        <ele>91.4</ele>
        <time>2023-04-05T14:16:15Z</time>
      </trkpt>
      <trkpt lat="49.82389" lon="2.28198">
        <ele>91.4</ele>
        <time>2023-04-05T14:16:16Z</time>
      </trkpt>
      <trkpt lat="49.82387" lon="2.28193">
        <ele>91.5</ele>
        <time>2023-04-05T14:16:18Z</time>
      </trkpt>
      <trkpt lat="49.82384" lon="2.28188">
        <ele>91.7</ele>
        <time>2023-04-05T14:16:19Z</time>
      </trkpt>
      <trkpt lat="49.82384" lon="2.28186">
        <ele>91.7</ele>
        <time>2023-04-05T14:16:20Z</time>
      </trkpt>
      <trkpt lat="49.82382" lon="2.28182">
        <ele>91.8</ele>
        <time>2023-04-05T14:16:21Z</time>
      </trkpt>
      <trkpt lat="49.82381" lon="2.28182">
        <ele>91.8</ele>
        <time>2023-04-05T14:16:22Z</time>
      </trkpt>
      <trkpt lat="49.82381" lon="2.2818">
        <ele>91.9</ele>
        <time>2023-04-05T14:16:23Z</time>
      </trkpt>
      <trkpt lat="49.8238" lon="2.28179">
        <ele>91.9</ele>
        <time>2023-04-05T14:16:25Z</time>
      </trkpt>
      <trkpt lat="49.8238" lon="2.28178">
        <ele>92</ele>
        <time>2023-04-05T14:16:26Z</time>
      </trkpt>
      <trkpt lat="49.82379" lon="2.28176">
        <ele>92</ele>
        <time>2023-04-05T14:16:27Z</time>
      </trkpt>
      <trkpt lat="49.82379" lon="2.28175">
        <ele>92</ele>
        <time>2023-04-05T14:16:28Z</time>
      </trkpt>
      <trkpt lat="49.82378" lon="2.28174">
        <ele>92.1</ele>
        <time>2023-04-05T14:16:29Z</time>
      </trkpt>
      <trkpt lat="49.82378" lon="2.28173">
        <ele>92.1</ele>
        <time>2023-04-05T14:16:31Z</time>
      </trkpt>
      <trkpt lat="49.82377" lon="2.28173">
        <ele>92.1</ele>
        <time>2023-04-05T14:16:32Z</time>
      </trkpt>
      <trkpt lat="49.82378" lon="2.28172">
        <ele>92.2</ele>
        <time>2023-04-05T14:16:33Z</time>
      </trkpt>
      <trkpt lat="49.82378" lon="2.28171">
        <ele>92.2</ele>
        <time>2023-04-05T14:16:34Z</time>
      </trkpt>
      <trkpt lat="49.82378" lon="2.2817">
        <ele>92.2</ele>
        <time>2023-04-05T14:16:35Z</time>
      </trkpt>
      <trkpt lat="49.82378" lon="2.28171">
        <ele>92.2</ele>
        <time>2023-04-05T14:16:36Z</time>
      </trkpt>
      <trkpt lat="49.82378" lon="2.28171">
        <ele>92.2</ele>
        <time>2023-04-05T14:16:38Z</time>
      </trkpt>
      <trkpt lat="49.82378" lon="2.28171">
        <ele>92.2</ele>
        <time>2023-04-05T14:16:39Z</time>
      </trkpt>
      <trkpt lat="49.82378" lon="2.28172">
        <ele>92.3</ele>
        <time>2023-04-05T14:16:40Z</time>
      </trkpt>
      <trkpt lat="49.82378" lon="2.28172">
        <ele>92.3</ele>
        <time>2023-04-05T14:16:41Z</time>
      </trkpt>
      <trkpt lat="49.82378" lon="2.28172">
        <ele>92.3</ele>
        <time>2023-04-05T14:16:42Z</time>
      </trkpt>
      <trkpt lat="49.82378" lon="2.28172">
        <ele>92.3</ele>
        <time>2023-04-05T14:16:44Z</time>
      </trkpt>
      <trkpt lat="49.82378" lon="2.28172">
        <ele>92.3</ele>
        <time>2023-04-05T14:16:45Z</time>
      </trkpt>
      <trkpt lat="49.82377" lon="2.28172">
        <ele>92.3</ele>
        <time>2023-04-05T14:16:46Z</time>
      </trkpt>
      <trkpt lat="49.82377" lon="2.28172">
        <ele>92.4</ele>
        <time>2023-04-05T14:16:47Z</time>
      </trkpt>
      <trkpt lat="49.82377" lon="2.28171">
        <ele>92.4</ele>
        <time>2023-04-05T14:16:48Z</time>
      </trkpt>
      <trkpt lat="49.82377" lon="2.28171">
        <ele>92.4</ele>
        <time>2023-04-05T14:16:49Z</time>
      </trkpt>
      <trkpt lat="49.82377" lon="2.28171">
        <ele>92.4</ele>
        <time>2023-04-05T14:16:51Z</time>
      </trkpt>
      <trkpt lat="49.82377" lon="2.28172">
        <ele>92.5</ele>
        <time>2023-04-05T14:16:52Z</time>
      </trkpt>
      <trkpt lat="49.82377" lon="2.28171">
        <ele>92.5</ele>
        <time>2023-04-05T14:16:53Z</time>
      </trkpt>
      <trkpt lat="49.82377" lon="2.28171">
        <ele>92.5</ele>
        <time>2023-04-05T14:16:54Z</time>
      </trkpt>
      <trkpt lat="49.82377" lon="2.2817">
        <ele>92.5</ele>
        <time>2023-04-05T14:16:55Z</time>
      </trkpt>
      <trkpt lat="49.82377" lon="2.2817">
        <ele>92.5</ele>
        <time>2023-04-05T14:16:57Z</time>
      </trkpt>
      <trkpt lat="49.82376" lon="2.28169">
        <ele>92.6</ele>
        <time>2023-04-05T14:16:58Z</time>
      </trkpt>
      <trkpt lat="49.82376" lon="2.28167">
        <ele>92.6</ele>
        <time>2023-04-05T14:16:59Z</time>
      </trkpt>
      <trkpt lat="49.82376" lon="2.28166">
        <ele>92.7</ele>
        <time>2023-04-05T14:17:00Z</time>
      </trkpt>
      <trkpt lat="49.82375" lon="2.2816">
        <ele>92.9</ele>
        <time>2023-04-05T14:17:01Z</time>
      </trkpt>
      <trkpt lat="49.82375" lon="2.28157">
        <ele>93</ele>
        <time>2023-04-05T14:17:02Z</time>
      </trkpt>
      <trkpt lat="49.82373" lon="2.28151">
        <ele>93.3</ele>
        <time>2023-04-05T14:17:04Z</time>
      </trkpt>
      <trkpt lat="49.82373" lon="2.28148">
        <ele>93.3</ele>
        <time>2023-04-05T14:17:05Z</time>
      </trkpt>
      <trkpt lat="49.82372" lon="2.28146">
        <ele>93.4</ele>
        <time>2023-04-05T14:17:06Z</time>
      </trkpt>
      <trkpt lat="49.82371" lon="2.28141">
        <ele>93.6</ele>
        <time>2023-04-05T14:17:07Z</time>
      </trkpt>
      <trkpt lat="49.82371" lon="2.28139">
        <ele>93.6</ele>
        <time>2023-04-05T14:17:08Z</time>
      </trkpt>
      <trkpt lat="49.8237" lon="2.28137">
        <ele>93.7</ele>
        <time>2023-04-05T14:17:09Z</time>
      </trkpt>
      <trkpt lat="49.8237" lon="2.28136">
        <ele>93.8</ele>
        <time>2023-04-05T14:17:11Z</time>
      </trkpt>
      <trkpt lat="49.8237" lon="2.28135">
        <ele>93.8</ele>
        <time>2023-04-05T14:17:12Z</time>
      </trkpt>
      <trkpt lat="49.82369" lon="2.28133">
        <ele>93.9</ele>
        <time>2023-04-05T14:17:13Z</time>
      </trkpt>
      <trkpt lat="49.82369" lon="2.28131">
        <ele>93.9</ele>
        <time>2023-04-05T14:17:14Z</time>
      </trkpt>
      <trkpt lat="49.82369" lon="2.28129">
        <ele>94</ele>
        <time>2023-04-05T14:17:15Z</time>
      </trkpt>
      <trkpt lat="49.82369" lon="2.28128">
        <ele>94</ele>
        <time>2023-04-05T14:17:16Z</time>
      </trkpt>
      <trkpt lat="49.82369" lon="2.28127">
        <ele>94</ele>
        <time>2023-04-05T14:17:17Z</time>
      </trkpt>
      <trkpt lat="49.82369" lon="2.28127">
        <ele>94.1</ele>
        <time>2023-04-05T14:17:19Z</time>
      </trkpt>
      <trkpt lat="49.82369" lon="2.28127">
        <ele>94.1</ele>
        <time>2023-04-05T14:17:20Z</time>
      </trkpt>
      <trkpt lat="49.82369" lon="2.28126">
        <ele>94.1</ele>
        <time>2023-04-05T14:17:21Z</time>
      </trkpt>
      <trkpt lat="49.82368" lon="2.28125">
        <ele>94.1</ele>
        <time>2023-04-05T14:17:22Z</time>
      </trkpt>
      <trkpt lat="49.82368" lon="2.28121">
        <ele>94.2</ele>
        <time>2023-04-05T14:17:23Z</time>
      </trkpt>
      <trkpt lat="49.82367" lon="2.28117">
        <ele>94.4</ele>
        <time>2023-04-05T14:17:24Z</time>
      </trkpt>
      <trkpt lat="49.82366" lon="2.28112">
        <ele>94.5</ele>
        <time>2023-04-05T14:17:26Z</time>
      </trkpt>
      <trkpt lat="49.82365" lon="2.28108">
        <ele>94.6</ele>
        <time>2023-04-05T14:17:27Z</time>
      </trkpt>
      <trkpt lat="49.82364" lon="2.28104">
        <ele>94.7</ele>
        <time>2023-04-05T14:17:28Z</time>
      </trkpt>
      <trkpt lat="49.82364" lon="2.28099">
        <ele>94.8</ele>
        <time>2023-04-05T14:17:30Z</time>
      </trkpt>
      <trkpt lat="49.82362" lon="2.28089">
        <ele>95</ele>
        <time>2023-04-05T14:17:31Z</time>
      </trkpt>
      <trkpt lat="49.82361" lon="2.28083">
        <ele>95.2</ele>
        <time>2023-04-05T14:17:32Z</time>
      </trkpt>
      <trkpt lat="49.82361" lon="2.28081">
        <ele>95.2</ele>
        <time>2023-04-05T14:17:33Z</time>
      </trkpt>
      <trkpt lat="49.82361" lon="2.2808">
        <ele>95.2</ele>
        <time>2023-04-05T14:17:34Z</time>
      </trkpt>
      <trkpt lat="49.82361" lon="2.28079">
        <ele>95.3</ele>
        <time>2023-04-05T14:17:35Z</time>
      </trkpt>
      <trkpt lat="49.8236" lon="2.28075">
        <ele>95.4</ele>
        <time>2023-04-05T14:17:37Z</time>
      </trkpt>
      <trkpt lat="49.82359" lon="2.28073">
        <ele>95.4</ele>
        <time>2023-04-05T14:17:38Z</time>
      </trkpt>
      <trkpt lat="49.82358" lon="2.28069">
        <ele>95.5</ele>
        <time>2023-04-05T14:17:39Z</time>
      </trkpt>
      <trkpt lat="49.82358" lon="2.28067">
        <ele>95.5</ele>
        <time>2023-04-05T14:17:40Z</time>
      </trkpt>
      <trkpt lat="49.82357" lon="2.28062">
        <ele>95.6</ele>
        <time>2023-04-05T14:17:41Z</time>
      </trkpt>
      <trkpt lat="49.82356" lon="2.2806">
        <ele>95.7</ele>
        <time>2023-04-05T14:17:42Z</time>
      </trkpt>
      <trkpt lat="49.82356" lon="2.28056">
        <ele>95.8</ele>
        <time>2023-04-05T14:17:44Z</time>
      </trkpt>
      <trkpt lat="49.82355" lon="2.28055">
        <ele>95.8</ele>
        <time>2023-04-05T14:17:45Z</time>
      </trkpt>
      <trkpt lat="49.82354" lon="2.2805">
        <ele>95.9</ele>
        <time>2023-04-05T14:17:46Z</time>
      </trkpt>
      <trkpt lat="49.82353" lon="2.28047">
        <ele>96</ele>
        <time>2023-04-05T14:17:47Z</time>
      </trkpt>
      <trkpt lat="49.82352" lon="2.28043">
        <ele>96</ele>
        <time>2023-04-05T14:17:49Z</time>
      </trkpt>
      <trkpt lat="49.82352" lon="2.28041">
        <ele>96.1</ele>
        <time>2023-04-05T14:17:50Z</time>
      </trkpt>
      <trkpt lat="49.82351" lon="2.2804">
        <ele>96.1</ele>
        <time>2023-04-05T14:17:51Z</time>
      </trkpt>
      <trkpt lat="49.82351" lon="2.28039">
        <ele>96.1</ele>
        <time>2023-04-05T14:17:52Z</time>
      </trkpt>
      <trkpt lat="49.8235" lon="2.28038">
        <ele>96.1</ele>
        <time>2023-04-05T14:17:54Z</time>
      </trkpt>
      <trkpt lat="49.8235" lon="2.28037">
        <ele>96.1</ele>
        <time>2023-04-05T14:17:55Z</time>
      </trkpt>
      <trkpt lat="49.8235" lon="2.28037">
        <ele>96.1</ele>
        <time>2023-04-05T14:17:56Z</time>
      </trkpt>
      <trkpt lat="49.82349" lon="2.28036">
        <ele>96.2</ele>
        <time>2023-04-05T14:17:58Z</time>
      </trkpt>
      <trkpt lat="49.82348" lon="2.28037">
        <ele>96.2</ele>
        <time>2023-04-05T14:17:59Z</time>
      </trkpt>
      <trkpt lat="49.82348" lon="2.28038">
        <ele>96.2</ele>
        <time>2023-04-05T14:18:00Z</time>
      </trkpt>
      <trkpt lat="49.82349" lon="2.28039">
        <ele>96.2</ele>
        <time>2023-04-05T14:18:02Z</time>
      </trkpt>
      <trkpt lat="49.82349" lon="2.28039">
        <ele>96.2</ele>
        <time>2023-04-05T14:18:03Z</time>
      </trkpt>
      <trkpt lat="49.82349" lon="2.2804">
        <ele>96.2</ele>
        <time>2023-04-05T14:18:05Z</time>
      </trkpt>
      <trkpt lat="49.82349" lon="2.2804">
        <ele>96.2</ele>
        <time>2023-04-05T14:18:06Z</time>
      </trkpt>
      <trkpt lat="49.8235" lon="2.2804">
        <ele>96.2</ele>
        <time>2023-04-05T14:18:08Z</time>
      </trkpt>
      <trkpt lat="49.82351" lon="2.2804">
        <ele>96.3</ele>
        <time>2023-04-05T14:18:09Z</time>
      </trkpt>
      <trkpt lat="49.82351" lon="2.28041">
        <ele>96.3</ele>
        <time>2023-04-05T14:18:10Z</time>
      </trkpt>
      <trkpt lat="49.82351" lon="2.28041">
        <ele>96.3</ele>
        <time>2023-04-05T14:18:11Z</time>
      </trkpt>
      <trkpt lat="49.82351" lon="2.28041">
        <ele>96.3</ele>
        <time>2023-04-05T14:18:12Z</time>
      </trkpt>
      <trkpt lat="49.82351" lon="2.28041">
        <ele>96.3</ele>
        <time>2023-04-05T14:18:13Z</time>
      </trkpt>
      <trkpt lat="49.82352" lon="2.28041">
        <ele>96.3</ele>
        <time>2023-04-05T14:18:14Z</time>
      </trkpt>
      <trkpt lat="49.82352" lon="2.28041">
        <ele>96.3</ele>
        <time>2023-04-05T14:18:15Z</time>
      </trkpt>
      <trkpt lat="49.82352" lon="2.28041">
        <ele>96.3</ele>
        <time>2023-04-05T14:18:16Z</time>
      </trkpt>
      <trkpt lat="49.82351" lon="2.2804">
        <ele>96.3</ele>
        <time>2023-04-05T14:18:17Z</time>
      </trkpt>
      <trkpt lat="49.82351" lon="2.2804">
        <ele>96.3</ele>
        <time>2023-04-05T14:18:18Z</time>
      </trkpt>
      <trkpt lat="49.82351" lon="2.2804">
        <ele>96.3</ele>
        <time>2023-04-05T14:18:19Z</time>
      </trkpt>
      <trkpt lat="49.82351" lon="2.2804">
        <ele>96.3</ele>
        <time>2023-04-05T14:18:20Z</time>
      </trkpt>
      <trkpt lat="49.82351" lon="2.28039">
        <ele>96.3</ele>
        <time>2023-04-05T14:18:21Z</time>
      </trkpt>
      <trkpt lat="49.82351" lon="2.28039">
        <ele>96.3</ele>
        <time>2023-04-05T14:18:22Z</time>
      </trkpt>
      <trkpt lat="49.82351" lon="2.28038">
        <ele>96.3</ele>
        <time>2023-04-05T14:18:23Z</time>
      </trkpt>
      <trkpt lat="49.82351" lon="2.28037">
        <ele>96.3</ele>
        <time>2023-04-05T14:18:24Z</time>
      </trkpt>
      <trkpt lat="49.8235" lon="2.28036">
        <ele>96.3</ele>
        <time>2023-04-05T14:18:25Z</time>
      </trkpt>
      <trkpt lat="49.8235" lon="2.28035">
        <ele>96.3</ele>
        <time>2023-04-05T14:18:26Z</time>
      </trkpt>
      <trkpt lat="49.8235" lon="2.28034">
        <ele>96.4</ele>
        <time>2023-04-05T14:18:27Z</time>
      </trkpt>
      <trkpt lat="49.8235" lon="2.28033">
        <ele>96.4</ele>
        <time>2023-04-05T14:18:28Z</time>
      </trkpt>
      <trkpt lat="49.8235" lon="2.28032">
        <ele>96.4</ele>
        <time>2023-04-05T14:18:29Z</time>
      </trkpt>
      <trkpt lat="49.8235" lon="2.28032">
        <ele>96.4</ele>
        <time>2023-04-05T14:18:30Z</time>
      </trkpt>
      <trkpt lat="49.8235" lon="2.28031">
        <ele>96.4</ele>
        <time>2023-04-05T14:18:31Z</time>
      </trkpt>
      <trkpt lat="49.8235" lon="2.2803">
        <ele>96.4</ele>
        <time>2023-04-05T14:18:32Z</time>
      </trkpt>
      <trkpt lat="49.8235" lon="2.28029">
        <ele>96.4</ele>
        <time>2023-04-05T14:18:33Z</time>
      </trkpt>
      <trkpt lat="49.82349" lon="2.28027">
        <ele>96.4</ele>
        <time>2023-04-05T14:18:34Z</time>
      </trkpt>
      <trkpt lat="49.82349" lon="2.28026">
        <ele>96.4</ele>
        <time>2023-04-05T14:18:35Z</time>
      </trkpt>
      <trkpt lat="49.82348" lon="2.28024">
        <ele>96.4</ele>
        <time>2023-04-05T14:18:36Z</time>
      </trkpt>
      <trkpt lat="49.82348" lon="2.28022">
        <ele>96.4</ele>
        <time>2023-04-05T14:18:37Z</time>
      </trkpt>
      <trkpt lat="49.82347" lon="2.2802">
        <ele>96.4</ele>
        <time>2023-04-05T14:18:38Z</time>
      </trkpt>
      <trkpt lat="49.82346" lon="2.28015">
        <ele>96.4</ele>
        <time>2023-04-05T14:18:39Z</time>
      </trkpt>
      <trkpt lat="49.82346" lon="2.28013">
        <ele>96.4</ele>
        <time>2023-04-05T14:18:40Z</time>
      </trkpt>
      <trkpt lat="49.82344" lon="2.28008">
        <ele>96.3</ele>
        <time>2023-04-05T14:18:41Z</time>
      </trkpt>
      <trkpt lat="49.82344" lon="2.28006">
        <ele>96.3</ele>
        <time>2023-04-05T14:18:42Z</time>
      </trkpt>
      <trkpt lat="49.82343" lon="2.28003">
        <ele>96.3</ele>
        <time>2023-04-05T14:18:43Z</time>
      </trkpt>
      <trkpt lat="49.82343" lon="2.28002">
        <ele>96.3</ele>
        <time>2023-04-05T14:18:45Z</time>
      </trkpt>
      <trkpt lat="49.82342" lon="2.28">
        <ele>96.3</ele>
        <time>2023-04-05T14:18:46Z</time>
      </trkpt>
      <trkpt lat="49.82342" lon="2.27997">
        <ele>96.2</ele>
        <time>2023-04-05T14:18:47Z</time>
      </trkpt>
      <trkpt lat="49.82342" lon="2.27996">
        <ele>96.2</ele>
        <time>2023-04-05T14:18:48Z</time>
      </trkpt>
      <trkpt lat="49.82342" lon="2.27993">
        <ele>96.2</ele>
        <time>2023-04-05T14:18:49Z</time>
      </trkpt>
      <trkpt lat="49.8234" lon="2.27989">
        <ele>96.1</ele>
        <time>2023-04-05T14:18:50Z</time>
      </trkpt>
      <trkpt lat="49.82339" lon="2.27988">
        <ele>96</ele>
        <time>2023-04-05T14:18:52Z</time>
      </trkpt>
      <trkpt lat="49.82338" lon="2.27986">
        <ele>96</ele>
        <time>2023-04-05T14:18:53Z</time>
      </trkpt>
      <trkpt lat="49.82337" lon="2.27984">
        <ele>96</ele>
        <time>2023-04-05T14:18:54Z</time>
      </trkpt>
      <trkpt lat="49.82336" lon="2.27982">
        <ele>95.9</ele>
        <time>2023-04-05T14:18:55Z</time>
      </trkpt>
      <trkpt lat="49.82335" lon="2.27981">
        <ele>95.9</ele>
        <time>2023-04-05T14:18:56Z</time>
      </trkpt>
      <trkpt lat="49.82335" lon="2.27979">
        <ele>95.9</ele>
        <time>2023-04-05T14:18:57Z</time>
      </trkpt>
      <trkpt lat="49.82334" lon="2.27978">
        <ele>95.9</ele>
        <time>2023-04-05T14:18:58Z</time>
      </trkpt>
      <trkpt lat="49.82334" lon="2.27978">
        <ele>95.8</ele>
        <time>2023-04-05T14:18:59Z</time>
      </trkpt>
      <trkpt lat="49.82333" lon="2.27977">
        <ele>95.8</ele>
        <time>2023-04-05T14:19:00Z</time>
      </trkpt>
      <trkpt lat="49.82333" lon="2.27976">
        <ele>95.8</ele>
        <time>2023-04-05T14:19:02Z</time>
      </trkpt>
      <trkpt lat="49.82333" lon="2.27975">
        <ele>95.8</ele>
        <time>2023-04-05T14:19:03Z</time>
      </trkpt>
      <trkpt lat="49.82332" lon="2.27975">
        <ele>95.8</ele>
        <time>2023-04-05T14:19:04Z</time>
      </trkpt>
      <trkpt lat="49.82332" lon="2.27974">
        <ele>95.8</ele>
        <time>2023-04-05T14:19:05Z</time>
      </trkpt>
      <trkpt lat="49.82332" lon="2.27973">
        <ele>95.8</ele>
        <time>2023-04-05T14:19:06Z</time>
      </trkpt>
      <trkpt lat="49.82331" lon="2.27971">
        <ele>95.7</ele>
        <time>2023-04-05T14:19:07Z</time>
      </trkpt>
      <trkpt lat="49.8233" lon="2.2797">
        <ele>95.7</ele>
        <time>2023-04-05T14:19:08Z</time>
      </trkpt>
      <trkpt lat="49.8233" lon="2.27969">
        <ele>95.7</ele>
        <time>2023-04-05T14:19:09Z</time>
      </trkpt>
      <trkpt lat="49.82329" lon="2.27967">
        <ele>95.7</ele>
        <time>2023-04-05T14:19:11Z</time>
      </trkpt>
      <trkpt lat="49.82329" lon="2.27966">
        <ele>95.6</ele>
        <time>2023-04-05T14:19:12Z</time>
      </trkpt>
      <trkpt lat="49.82329" lon="2.27965">
        <ele>95.6</ele>
        <time>2023-04-05T14:19:13Z</time>
      </trkpt>
      <trkpt lat="49.82328" lon="2.27964">
        <ele>95.6</ele>
        <time>2023-04-05T14:19:14Z</time>
      </trkpt>
      <trkpt lat="49.82328" lon="2.27964">
        <ele>95.6</ele>
        <time>2023-04-05T14:19:15Z</time>
      </trkpt>
      <trkpt lat="49.82328" lon="2.27963">
        <ele>95.6</ele>
        <time>2023-04-05T14:19:17Z</time>
      </trkpt>
      <trkpt lat="49.82328" lon="2.27963">
        <ele>95.6</ele>
        <time>2023-04-05T14:19:18Z</time>
      </trkpt>
      <trkpt lat="49.82327" lon="2.27962">
        <ele>95.6</ele>
        <time>2023-04-05T14:19:19Z</time>
      </trkpt>
      <trkpt lat="49.82327" lon="2.2796">
        <ele>95.5</ele>
        <time>2023-04-05T14:19:20Z</time>
      </trkpt>
      <trkpt lat="49.82326" lon="2.27958">
        <ele>95.5</ele>
        <time>2023-04-05T14:19:21Z</time>
      </trkpt>
      <trkpt lat="49.82326" lon="2.27955">
        <ele>95.5</ele>
        <time>2023-04-05T14:19:22Z</time>
      </trkpt>
      <trkpt lat="49.82324" lon="2.27952">
        <ele>95.5</ele>
        <time>2023-04-05T14:19:23Z</time>
      </trkpt>
      <trkpt lat="49.82324" lon="2.2795">
        <ele>95.5</ele>
        <time>2023-04-05T14:19:24Z</time>
      </trkpt>
      <trkpt lat="49.82323" lon="2.27948">
        <ele>95.4</ele>
        <time>2023-04-05T14:19:25Z</time>
      </trkpt>
      <trkpt lat="49.82323" lon="2.27946">
        <ele>95.4</ele>
        <time>2023-04-05T14:19:26Z</time>
      </trkpt>
      <trkpt lat="49.82322" lon="2.27944">
        <ele>95.4</ele>
        <time>2023-04-05T14:19:28Z</time>
      </trkpt>
      <trkpt lat="49.82321" lon="2.27942">
        <ele>95.4</ele>
        <time>2023-04-05T14:19:29Z</time>
      </trkpt>
      <trkpt lat="49.8232" lon="2.2794">
        <ele>95.4</ele>
        <time>2023-04-05T14:19:30Z</time>
      </trkpt>
      <trkpt lat="49.8232" lon="2.27938">
        <ele>95.4</ele>
        <time>2023-04-05T14:19:31Z</time>
      </trkpt>
      <trkpt lat="49.82318" lon="2.27935">
        <ele>95.4</ele>
        <time>2023-04-05T14:19:32Z</time>
      </trkpt>
      <trkpt lat="49.82317" lon="2.27933">
        <ele>95.4</ele>
        <time>2023-04-05T14:19:33Z</time>
      </trkpt>
      <trkpt lat="49.82316" lon="2.27931">
        <ele>95.3</ele>
        <time>2023-04-05T14:19:34Z</time>
      </trkpt>
      <trkpt lat="49.82316" lon="2.27928">
        <ele>95.3</ele>
        <time>2023-04-05T14:19:36Z</time>
      </trkpt>
      <trkpt lat="49.82314" lon="2.27925">
        <ele>95.3</ele>
        <time>2023-04-05T14:19:37Z</time>
      </trkpt>
      <trkpt lat="49.82314" lon="2.27924">
        <ele>95.3</ele>
        <time>2023-04-05T14:19:38Z</time>
      </trkpt>
      <trkpt lat="49.82314" lon="2.27923">
        <ele>95.3</ele>
        <time>2023-04-05T14:19:39Z</time>
      </trkpt>
      <trkpt lat="49.82313" lon="2.27922">
        <ele>95.3</ele>
        <time>2023-04-05T14:19:40Z</time>
      </trkpt>
      <trkpt lat="49.82313" lon="2.2792">
        <ele>95.3</ele>
        <time>2023-04-05T14:19:41Z</time>
      </trkpt>
      <trkpt lat="49.82312" lon="2.27919">
        <ele>95.3</ele>
        <time>2023-04-05T14:19:42Z</time>
      </trkpt>
      <trkpt lat="49.82312" lon="2.27919">
        <ele>95.3</ele>
        <time>2023-04-05T14:19:43Z</time>
      </trkpt>
      <trkpt lat="49.82311" lon="2.27918">
        <ele>95.3</ele>
        <time>2023-04-05T14:19:45Z</time>
      </trkpt>
      <trkpt lat="49.8231" lon="2.27917">
        <ele>95.3</ele>
        <time>2023-04-05T14:19:46Z</time>
      </trkpt>
      <trkpt lat="49.82308" lon="2.27913">
        <ele>95.3</ele>
        <time>2023-04-05T14:19:47Z</time>
      </trkpt>
      <trkpt lat="49.82308" lon="2.27912">
        <ele>95.3</ele>
        <time>2023-04-05T14:19:48Z</time>
      </trkpt>
      <trkpt lat="49.82306" lon="2.2791">
        <ele>95.3</ele>
        <time>2023-04-05T14:19:49Z</time>
      </trkpt>
      <trkpt lat="49.82305" lon="2.27908">
        <ele>95.3</ele>
        <time>2023-04-05T14:19:50Z</time>
      </trkpt>
      <trkpt lat="49.82304" lon="2.27907">
        <ele>95.3</ele>
        <time>2023-04-05T14:19:52Z</time>
      </trkpt>
      <trkpt lat="49.82303" lon="2.27906">
        <ele>95.3</ele>
        <time>2023-04-05T14:19:53Z</time>
      </trkpt>
      <trkpt lat="49.82302" lon="2.27905">
        <ele>95.3</ele>
        <time>2023-04-05T14:19:54Z</time>
      </trkpt>
      <trkpt lat="49.82302" lon="2.27904">
        <ele>95.3</ele>
        <time>2023-04-05T14:19:55Z</time>
      </trkpt>
      <trkpt lat="49.82301" lon="2.27902">
        <ele>95.4</ele>
        <time>2023-04-05T14:19:56Z</time>
      </trkpt>
      <trkpt lat="49.823" lon="2.27901">
        <ele>95.4</ele>
        <time>2023-04-05T14:19:57Z</time>
      </trkpt>
      <trkpt lat="49.82299" lon="2.279">
        <ele>95.4</ele>
        <time>2023-04-05T14:19:58Z</time>
      </trkpt>
      <trkpt lat="49.82298" lon="2.27897">
        <ele>95.4</ele>
        <time>2023-04-05T14:20:00Z</time>
      </trkpt>
      <trkpt lat="49.82297" lon="2.27896">
        <ele>95.4</ele>
        <time>2023-04-05T14:20:02Z</time>
      </trkpt>
      <trkpt lat="49.82296" lon="2.27895">
        <ele>95.4</ele>
        <time>2023-04-05T14:20:03Z</time>
      </trkpt>
      <trkpt lat="49.82295" lon="2.27893">
        <ele>95.4</ele>
        <time>2023-04-05T14:20:04Z</time>
      </trkpt>
      <trkpt lat="49.82294" lon="2.27893">
        <ele>95.4</ele>
        <time>2023-04-05T14:20:06Z</time>
      </trkpt>
      <trkpt lat="49.82294" lon="2.27892">
        <ele>95.4</ele>
        <time>2023-04-05T14:20:07Z</time>
      </trkpt>
      <trkpt lat="49.82293" lon="2.27891">
        <ele>95.4</ele>
        <time>2023-04-05T14:20:08Z</time>
      </trkpt>
      <trkpt lat="49.82294" lon="2.2789">
        <ele>95.4</ele>
        <time>2023-04-05T14:20:09Z</time>
      </trkpt>
      <trkpt lat="49.82294" lon="2.27889">
        <ele>95.4</ele>
        <time>2023-04-05T14:20:11Z</time>
      </trkpt>
      <trkpt lat="49.82294" lon="2.2789">
        <ele>95.4</ele>
        <time>2023-04-05T14:20:12Z</time>
      </trkpt>
      <trkpt lat="49.82294" lon="2.27891">
        <ele>95.4</ele>
        <time>2023-04-05T14:20:13Z</time>
      </trkpt>
      <trkpt lat="49.82294" lon="2.2789">
        <ele>95.4</ele>
        <time>2023-04-05T14:20:15Z</time>
      </trkpt>
      <trkpt lat="49.82294" lon="2.2789">
        <ele>95.4</ele>
        <time>2023-04-05T14:20:16Z</time>
      </trkpt>
      <trkpt lat="49.82293" lon="2.27889">
        <ele>95.4</ele>
        <time>2023-04-05T14:20:18Z</time>
      </trkpt>
      <trkpt lat="49.82293" lon="2.27889">
        <ele>95.4</ele>
        <time>2023-04-05T14:20:19Z</time>
      </trkpt>
      <trkpt lat="49.82293" lon="2.27888">
        <ele>95.4</ele>
        <time>2023-04-05T14:20:20Z</time>
      </trkpt>
      <trkpt lat="49.82293" lon="2.27887">
        <ele>95.4</ele>
        <time>2023-04-05T14:20:22Z</time>
      </trkpt>
      <trkpt lat="49.82292" lon="2.27888">
        <ele>95.4</ele>
        <time>2023-04-05T14:20:24Z</time>
      </trkpt>
      <trkpt lat="49.82292" lon="2.27888">
        <ele>95.5</ele>
        <time>2023-04-05T14:20:25Z</time>
      </trkpt>
      <trkpt lat="49.82292" lon="2.27889">
        <ele>95.5</ele>
        <time>2023-04-05T14:20:27Z</time>
      </trkpt>
      <trkpt lat="49.82292" lon="2.27889">
        <ele>95.5</ele>
        <time>2023-04-05T14:20:28Z</time>
      </trkpt>
      <trkpt lat="49.82292" lon="2.2789">
        <ele>95.5</ele>
        <time>2023-04-05T14:20:29Z</time>
      </trkpt>
      <trkpt lat="49.82292" lon="2.27891">
        <ele>95.5</ele>
        <time>2023-04-05T14:20:30Z</time>
      </trkpt>
      <trkpt lat="49.82292" lon="2.27891">
        <ele>95.5</ele>
        <time>2023-04-05T14:20:31Z</time>
      </trkpt>
      <trkpt lat="49.82292" lon="2.2789">
        <ele>95.5</ele>
        <time>2023-04-05T14:20:32Z</time>
      </trkpt>
      <trkpt lat="49.82291" lon="2.2789">
        <ele>95.5</ele>
        <time>2023-04-05T14:20:34Z</time>
      </trkpt>
      <trkpt lat="49.82291" lon="2.27889">
        <ele>95.5</ele>
        <time>2023-04-05T14:20:35Z</time>
      </trkpt>
      <trkpt lat="49.82291" lon="2.27889">
        <ele>95.5</ele>
        <time>2023-04-05T14:20:36Z</time>
      </trkpt>
      <trkpt lat="49.8229" lon="2.27889">
        <ele>95.5</ele>
        <time>2023-04-05T14:20:37Z</time>
      </trkpt>
      <trkpt lat="49.8229" lon="2.27888">
        <ele>95.5</ele>
        <time>2023-04-05T14:20:38Z</time>
      </trkpt>
      <trkpt lat="49.82289" lon="2.27887">
        <ele>95.5</ele>
        <time>2023-04-05T14:20:39Z</time>
      </trkpt>
      <trkpt lat="49.82289" lon="2.27887">
        <ele>95.5</ele>
        <time>2023-04-05T14:20:40Z</time>
      </trkpt>
      <trkpt lat="49.82288" lon="2.27886">
        <ele>95.5</ele>
        <time>2023-04-05T14:20:42Z</time>
      </trkpt>
      <trkpt lat="49.82288" lon="2.27886">
        <ele>95.5</ele>
        <time>2023-04-05T14:20:43Z</time>
      </trkpt>
      <trkpt lat="49.82286" lon="2.27885">
        <ele>95.5</ele>
        <time>2023-04-05T14:20:44Z</time>
      </trkpt>
      <trkpt lat="49.82286" lon="2.27885">
        <ele>95.5</ele>
        <time>2023-04-05T14:20:45Z</time>
      </trkpt>
      <trkpt lat="49.82286" lon="2.27885">
        <ele>95.5</ele>
        <time>2023-04-05T14:20:46Z</time>
      </trkpt>
      <trkpt lat="49.82285" lon="2.27885">
        <ele>95.5</ele>
        <time>2023-04-05T14:20:47Z</time>
      </trkpt>
      <trkpt lat="49.82283" lon="2.27882">
        <ele>95.5</ele>
        <time>2023-04-05T14:20:48Z</time>
      </trkpt>
      <trkpt lat="49.82283" lon="2.27881">
        <ele>95.5</ele>
        <time>2023-04-05T14:20:49Z</time>
      </trkpt>
      <trkpt lat="49.82282" lon="2.27879">
        <ele>95.5</ele>
        <time>2023-04-05T14:20:50Z</time>
      </trkpt>
      <trkpt lat="49.8228" lon="2.27876">
        <ele>95.6</ele>
        <time>2023-04-05T14:20:52Z</time>
      </trkpt>
      <trkpt lat="49.82278" lon="2.27873">
        <ele>95.6</ele>
        <time>2023-04-05T14:20:53Z</time>
      </trkpt>
      <trkpt lat="49.82276" lon="2.27869">
        <ele>95.6</ele>
        <time>2023-04-05T14:20:54Z</time>
      </trkpt>
      <trkpt lat="49.82275" lon="2.27867">
        <ele>95.6</ele>
        <time>2023-04-05T14:20:55Z</time>
      </trkpt>
      <trkpt lat="49.82274" lon="2.27865">
        <ele>95.7</ele>
        <time>2023-04-05T14:20:56Z</time>
      </trkpt>
      <trkpt lat="49.82273" lon="2.27865">
        <ele>95.7</ele>
        <time>2023-04-05T14:20:57Z</time>
      </trkpt>
      <trkpt lat="49.82272" lon="2.27864">
        <ele>95.7</ele>
        <time>2023-04-05T14:20:58Z</time>
      </trkpt>
      <trkpt lat="49.82272" lon="2.27863">
        <ele>95.7</ele>
        <time>2023-04-05T14:20:59Z</time>
      </trkpt>
      <trkpt lat="49.82271" lon="2.27861">
        <ele>95.7</ele>
        <time>2023-04-05T14:21:01Z</time>
      </trkpt>
      <trkpt lat="49.8227" lon="2.2786">
        <ele>95.7</ele>
        <time>2023-04-05T14:21:02Z</time>
      </trkpt>
      <trkpt lat="49.8227" lon="2.27859">
        <ele>95.7</ele>
        <time>2023-04-05T14:21:03Z</time>
      </trkpt>
      <trkpt lat="49.8227" lon="2.27859">
        <ele>95.7</ele>
        <time>2023-04-05T14:21:04Z</time>
      </trkpt>
      <trkpt lat="49.8227" lon="2.27858">
        <ele>95.7</ele>
        <time>2023-04-05T14:21:05Z</time>
      </trkpt>
      <trkpt lat="49.82269" lon="2.27856">
        <ele>95.7</ele>
        <time>2023-04-05T14:21:06Z</time>
      </trkpt>
      <trkpt lat="49.82268" lon="2.27854">
        <ele>95.7</ele>
        <time>2023-04-05T14:21:08Z</time>
      </trkpt>
      <trkpt lat="49.82267" lon="2.27852">
        <ele>95.7</ele>
        <time>2023-04-05T14:21:09Z</time>
      </trkpt>
      <trkpt lat="49.82266" lon="2.2785">
        <ele>95.8</ele>
        <time>2023-04-05T14:21:10Z</time>
      </trkpt>
      <trkpt lat="49.82265" lon="2.27849">
        <ele>95.8</ele>
        <time>2023-04-05T14:21:11Z</time>
      </trkpt>
      <trkpt lat="49.82265" lon="2.27849">
        <ele>95.8</ele>
        <time>2023-04-05T14:21:12Z</time>
      </trkpt>
      <trkpt lat="49.82265" lon="2.27848">
        <ele>95.8</ele>
        <time>2023-04-05T14:21:13Z</time>
      </trkpt>
      <trkpt lat="49.82264" lon="2.27847">
        <ele>95.8</ele>
        <time>2023-04-05T14:21:14Z</time>
      </trkpt>
      <trkpt lat="49.82264" lon="2.27846">
        <ele>95.8</ele>
        <time>2023-04-05T14:21:16Z</time>
      </trkpt>
      <trkpt lat="49.82263" lon="2.27845">
        <ele>95.8</ele>
        <time>2023-04-05T14:21:17Z</time>
      </trkpt>
      <trkpt lat="49.82262" lon="2.27843">
        <ele>95.8</ele>
        <time>2023-04-05T14:21:18Z</time>
      </trkpt>
      <trkpt lat="49.82261" lon="2.27841">
        <ele>95.8</ele>
        <time>2023-04-05T14:21:19Z</time>
      </trkpt>
      <trkpt lat="49.8226" lon="2.27839">
        <ele>95.9</ele>
        <time>2023-04-05T14:21:20Z</time>
      </trkpt>
      <trkpt lat="49.82259" lon="2.27838">
        <ele>95.9</ele>
        <time>2023-04-05T14:21:21Z</time>
      </trkpt>
      <trkpt lat="49.82258" lon="2.27836">
        <ele>95.9</ele>
        <time>2023-04-05T14:21:22Z</time>
      </trkpt>
      <trkpt lat="49.82257" lon="2.27835">
        <ele>95.9</ele>
        <time>2023-04-05T14:21:23Z</time>
      </trkpt>
      <trkpt lat="49.82256" lon="2.27833">
        <ele>96</ele>
        <time>2023-04-05T14:21:25Z</time>
      </trkpt>
      <trkpt lat="49.82255" lon="2.27832">
        <ele>96</ele>
        <time>2023-04-05T14:21:26Z</time>
      </trkpt>
      <trkpt lat="49.82254" lon="2.2783">
        <ele>96</ele>
        <time>2023-04-05T14:21:27Z</time>
      </trkpt>
      <trkpt lat="49.82253" lon="2.27829">
        <ele>96</ele>
        <time>2023-04-05T14:21:28Z</time>
      </trkpt>
      <trkpt lat="49.82251" lon="2.27826">
        <ele>96.1</ele>
        <time>2023-04-05T14:21:29Z</time>
      </trkpt>
      <trkpt lat="49.82251" lon="2.27825">
        <ele>96.1</ele>
        <time>2023-04-05T14:21:31Z</time>
      </trkpt>
      <trkpt lat="49.8225" lon="2.27824">
        <ele>96.2</ele>
        <time>2023-04-05T14:21:32Z</time>
      </trkpt>
      <trkpt lat="49.82249" lon="2.27822">
        <ele>96.2</ele>
        <time>2023-04-05T14:21:33Z</time>
      </trkpt>
      <trkpt lat="49.82248" lon="2.27821">
        <ele>96.2</ele>
        <time>2023-04-05T14:21:34Z</time>
      </trkpt>
      <trkpt lat="49.82248" lon="2.2782">
        <ele>96.3</ele>
        <time>2023-04-05T14:21:35Z</time>
      </trkpt>
      <trkpt lat="49.82247" lon="2.27819">
        <ele>96.3</ele>
        <time>2023-04-05T14:21:37Z</time>
      </trkpt>
      <trkpt lat="49.82246" lon="2.27819">
        <ele>96.3</ele>
        <time>2023-04-05T14:21:38Z</time>
      </trkpt>
      <trkpt lat="49.82246" lon="2.27818">
        <ele>96.3</ele>
        <time>2023-04-05T14:21:39Z</time>
      </trkpt>
      <trkpt lat="49.82245" lon="2.27816">
        <ele>96.4</ele>
        <time>2023-04-05T14:21:40Z</time>
      </trkpt>
      <trkpt lat="49.82245" lon="2.27816">
        <ele>96.4</ele>
        <time>2023-04-05T14:21:41Z</time>
      </trkpt>
      <trkpt lat="49.82245" lon="2.27815">
        <ele>96.4</ele>
        <time>2023-04-05T14:21:43Z</time>
      </trkpt>
      <trkpt lat="49.82244" lon="2.27814">
        <ele>96.4</ele>
        <time>2023-04-05T14:21:44Z</time>
      </trkpt>
      <trkpt lat="49.82244" lon="2.27814">
        <ele>96.5</ele>
        <time>2023-04-05T14:21:45Z</time>
      </trkpt>
      <trkpt lat="49.82244" lon="2.27813">
        <ele>96.5</ele>
        <time>2023-04-05T14:21:46Z</time>
      </trkpt>
      <trkpt lat="49.82243" lon="2.27811">
        <ele>96.5</ele>
        <time>2023-04-05T14:21:47Z</time>
      </trkpt>
      <trkpt lat="49.82242" lon="2.27811">
        <ele>96.5</ele>
        <time>2023-04-05T14:21:48Z</time>
      </trkpt>
      <trkpt lat="49.82242" lon="2.2781">
        <ele>96.6</ele>
        <time>2023-04-05T14:21:49Z</time>
      </trkpt>
      <trkpt lat="49.82241" lon="2.27808">
        <ele>96.6</ele>
        <time>2023-04-05T14:21:50Z</time>
      </trkpt>
      <trkpt lat="49.82241" lon="2.27808">
        <ele>96.6</ele>
        <time>2023-04-05T14:21:52Z</time>
      </trkpt>
      <trkpt lat="49.8224" lon="2.27807">
        <ele>96.7</ele>
        <time>2023-04-05T14:21:53Z</time>
      </trkpt>
      <trkpt lat="49.8224" lon="2.27806">
        <ele>96.7</ele>
        <time>2023-04-05T14:21:54Z</time>
      </trkpt>
      <trkpt lat="49.82239" lon="2.27805">
        <ele>96.7</ele>
        <time>2023-04-05T14:21:55Z</time>
      </trkpt>
      <trkpt lat="49.82238" lon="2.27803">
        <ele>96.8</ele>
        <time>2023-04-05T14:21:56Z</time>
      </trkpt>
      <trkpt lat="49.82239" lon="2.27804">
        <ele>96.8</ele>
        <time>2023-04-05T14:21:57Z</time>
      </trkpt>
      <trkpt lat="49.82239" lon="2.27805">
        <ele>96.8</ele>
        <time>2023-04-05T14:21:58Z</time>
      </trkpt>
      <trkpt lat="49.82239" lon="2.27805">
        <ele>96.8</ele>
        <time>2023-04-05T14:21:59Z</time>
      </trkpt>
      <trkpt lat="49.82238" lon="2.27804">
        <ele>96.8</ele>
        <time>2023-04-05T14:22:01Z</time>
      </trkpt>
      <trkpt lat="49.82238" lon="2.27803">
        <ele>96.9</ele>
        <time>2023-04-05T14:22:02Z</time>
      </trkpt>
      <trkpt lat="49.82237" lon="2.27802">
        <ele>96.9</ele>
        <time>2023-04-05T14:22:03Z</time>
      </trkpt>
      <trkpt lat="49.82236" lon="2.27801">
        <ele>97</ele>
        <time>2023-04-05T14:22:04Z</time>
      </trkpt>
      <trkpt lat="49.82235" lon="2.27799">
        <ele>97</ele>
        <time>2023-04-05T14:22:05Z</time>
      </trkpt>
      <trkpt lat="49.82235" lon="2.27797">
        <ele>97.1</ele>
        <time>2023-04-05T14:22:06Z</time>
      </trkpt>
      <trkpt lat="49.82233" lon="2.27795">
        <ele>97.1</ele>
        <time>2023-04-05T14:22:07Z</time>
      </trkpt>
      <trkpt lat="49.82232" lon="2.27792">
        <ele>97.2</ele>
        <time>2023-04-05T14:22:09Z</time>
      </trkpt>
      <trkpt lat="49.82231" lon="2.27791">
        <ele>97.3</ele>
        <time>2023-04-05T14:22:10Z</time>
      </trkpt>
      <trkpt lat="49.82229" lon="2.27787">
        <ele>97.4</ele>
        <time>2023-04-05T14:22:11Z</time>
      </trkpt>
      <trkpt lat="49.82227" lon="2.27783">
        <ele>97.5</ele>
        <time>2023-04-05T14:22:12Z</time>
      </trkpt>
      <trkpt lat="49.82225" lon="2.2778">
        <ele>97.6</ele>
        <time>2023-04-05T14:22:13Z</time>
      </trkpt>
      <trkpt lat="49.82222" lon="2.27776">
        <ele>97.8</ele>
        <time>2023-04-05T14:22:14Z</time>
      </trkpt>
      <trkpt lat="49.82222" lon="2.27775">
        <ele>97.8</ele>
        <time>2023-04-05T14:22:15Z</time>
      </trkpt>
      <trkpt lat="49.8222" lon="2.27771">
        <ele>97.9</ele>
        <time>2023-04-05T14:22:17Z</time>
      </trkpt>
      <trkpt lat="49.82219" lon="2.27769">
        <ele>98</ele>
        <time>2023-04-05T14:22:18Z</time>
      </trkpt>
      <trkpt lat="49.82218" lon="2.27767">
        <ele>98</ele>
        <time>2023-04-05T14:22:19Z</time>
      </trkpt>
      <trkpt lat="49.82217" lon="2.27765">
        <ele>98.1</ele>
        <time>2023-04-05T14:22:20Z</time>
      </trkpt>
      <trkpt lat="49.82216" lon="2.27763">
        <ele>98.1</ele>
        <time>2023-04-05T14:22:21Z</time>
      </trkpt>
      <trkpt lat="49.82216" lon="2.27762">
        <ele>98.2</ele>
        <time>2023-04-05T14:22:22Z</time>
      </trkpt>
      <trkpt lat="49.82215" lon="2.2776">
        <ele>98.2</ele>
        <time>2023-04-05T14:22:23Z</time>
      </trkpt>
      <trkpt lat="49.82215" lon="2.27759">
        <ele>98.2</ele>
        <time>2023-04-05T14:22:25Z</time>
      </trkpt>
      <trkpt lat="49.82214" lon="2.27757">
        <ele>98.3</ele>
        <time>2023-04-05T14:22:26Z</time>
      </trkpt>
      <trkpt lat="49.82214" lon="2.27756">
        <ele>98.3</ele>
        <time>2023-04-05T14:22:27Z</time>
      </trkpt>
      <trkpt lat="49.82213" lon="2.27755">
        <ele>98.3</ele>
        <time>2023-04-05T14:22:28Z</time>
      </trkpt>
      <trkpt lat="49.82213" lon="2.27754">
        <ele>98.4</ele>
        <time>2023-04-05T14:22:30Z</time>
      </trkpt>
      <trkpt lat="49.82212" lon="2.27752">
        <ele>98.4</ele>
        <time>2023-04-05T14:22:31Z</time>
      </trkpt>
      <trkpt lat="49.82212" lon="2.27751">
        <ele>98.5</ele>
        <time>2023-04-05T14:22:32Z</time>
      </trkpt>
      <trkpt lat="49.82212" lon="2.27751">
        <ele>98.5</ele>
        <time>2023-04-05T14:22:33Z</time>
      </trkpt>
      <trkpt lat="49.82211" lon="2.2775">
        <ele>98.5</ele>
        <time>2023-04-05T14:22:34Z</time>
      </trkpt>
      <trkpt lat="49.82211" lon="2.27749">
        <ele>98.5</ele>
        <time>2023-04-05T14:22:35Z</time>
      </trkpt>
      <trkpt lat="49.82211" lon="2.27747">
        <ele>98.6</ele>
        <time>2023-04-05T14:22:36Z</time>
      </trkpt>
      <trkpt lat="49.82211" lon="2.27746">
        <ele>98.6</ele>
        <time>2023-04-05T14:22:37Z</time>
      </trkpt>
      <trkpt lat="49.8221" lon="2.27745">
        <ele>98.6</ele>
        <time>2023-04-05T14:22:39Z</time>
      </trkpt>
      <trkpt lat="49.8221" lon="2.27745">
        <ele>98.6</ele>
        <time>2023-04-05T14:22:40Z</time>
      </trkpt>
      <trkpt lat="49.82209" lon="2.27743">
        <ele>98.7</ele>
        <time>2023-04-05T14:22:41Z</time>
      </trkpt>
      <trkpt lat="49.82209" lon="2.27743">
        <ele>98.7</ele>
        <time>2023-04-05T14:22:42Z</time>
      </trkpt>
      <trkpt lat="49.82209" lon="2.27742">
        <ele>98.7</ele>
        <time>2023-04-05T14:22:43Z</time>
      </trkpt>
      <trkpt lat="49.82208" lon="2.2774">
        <ele>98.8</ele>
        <time>2023-04-05T14:22:44Z</time>
      </trkpt>
      <trkpt lat="49.82207" lon="2.27738">
        <ele>98.8</ele>
        <time>2023-04-05T14:22:45Z</time>
      </trkpt>
      <trkpt lat="49.82207" lon="2.27737">
        <ele>98.8</ele>
        <time>2023-04-05T14:22:46Z</time>
      </trkpt>
      <trkpt lat="49.82207" lon="2.27736">
        <ele>98.8</ele>
        <time>2023-04-05T14:22:48Z</time>
      </trkpt>
      <trkpt lat="49.82206" lon="2.27735">
        <ele>98.9</ele>
        <time>2023-04-05T14:22:50Z</time>
      </trkpt>
      <trkpt lat="49.82206" lon="2.27735">
        <ele>98.9</ele>
        <time>2023-04-05T14:22:51Z</time>
      </trkpt>
      <trkpt lat="49.82205" lon="2.27733">
        <ele>98.9</ele>
        <time>2023-04-05T14:22:52Z</time>
      </trkpt>
      <trkpt lat="49.82204" lon="2.27731">
        <ele>99</ele>
        <time>2023-04-05T14:22:53Z</time>
      </trkpt>
      <trkpt lat="49.82204" lon="2.2773">
        <ele>99</ele>
        <time>2023-04-05T14:22:54Z</time>
      </trkpt>
      <trkpt lat="49.82203" lon="2.27729">
        <ele>99.1</ele>
        <time>2023-04-05T14:22:55Z</time>
      </trkpt>
      <trkpt lat="49.82202" lon="2.27727">
        <ele>99.1</ele>
        <time>2023-04-05T14:22:57Z</time>
      </trkpt>
      <trkpt lat="49.82202" lon="2.27726">
        <ele>99.2</ele>
        <time>2023-04-05T14:22:58Z</time>
      </trkpt>
      <trkpt lat="49.82201" lon="2.27725">
        <ele>99.2</ele>
        <time>2023-04-05T14:22:59Z</time>
      </trkpt>
      <trkpt lat="49.822" lon="2.27724">
        <ele>99.2</ele>
        <time>2023-04-05T14:23:00Z</time>
      </trkpt>
      <trkpt lat="49.82198" lon="2.27718">
        <ele>99.4</ele>
        <time>2023-04-05T14:23:01Z</time>
      </trkpt>
      <trkpt lat="49.82198" lon="2.27716">
        <ele>99.5</ele>
        <time>2023-04-05T14:23:02Z</time>
      </trkpt>
      <trkpt lat="49.82196" lon="2.27712">
        <ele>99.6</ele>
        <time>2023-04-05T14:23:03Z</time>
      </trkpt>
      <trkpt lat="49.82195" lon="2.2771">
        <ele>99.6</ele>
        <time>2023-04-05T14:23:05Z</time>
      </trkpt>
      <trkpt lat="49.82194" lon="2.27708">
        <ele>99.7</ele>
        <time>2023-04-05T14:23:06Z</time>
      </trkpt>
      <trkpt lat="49.82194" lon="2.27706">
        <ele>99.7</ele>
        <time>2023-04-05T14:23:07Z</time>
      </trkpt>
      <trkpt lat="49.82193" lon="2.27704">
        <ele>99.8</ele>
        <time>2023-04-05T14:23:08Z</time>
      </trkpt>
      <trkpt lat="49.82192" lon="2.27703">
        <ele>99.9</ele>
        <time>2023-04-05T14:23:09Z</time>
      </trkpt>
      <trkpt lat="49.82191" lon="2.27701">
        <ele>99.9</ele>
        <time>2023-04-05T14:23:10Z</time>
      </trkpt>
      <trkpt lat="49.8219" lon="2.27699">
        <ele>100</ele>
        <time>2023-04-05T14:23:11Z</time>
      </trkpt>
      <trkpt lat="49.82189" lon="2.27697">
        <ele>100.1</ele>
        <time>2023-04-05T14:23:12Z</time>
      </trkpt>
      <trkpt lat="49.82187" lon="2.27696">
        <ele>100.1</ele>
        <time>2023-04-05T14:23:14Z</time>
      </trkpt>
      <trkpt lat="49.82187" lon="2.27694">
        <ele>100.2</ele>
        <time>2023-04-05T14:23:15Z</time>
      </trkpt>
      <trkpt lat="49.82185" lon="2.27692">
        <ele>100.2</ele>
        <time>2023-04-05T14:23:16Z</time>
      </trkpt>
      <trkpt lat="49.82184" lon="2.2769">
        <ele>100.3</ele>
        <time>2023-04-05T14:23:18Z</time>
      </trkpt>
      <trkpt lat="49.82182" lon="2.27687">
        <ele>100.4</ele>
        <time>2023-04-05T14:23:19Z</time>
      </trkpt>
      <trkpt lat="49.82181" lon="2.27686">
        <ele>100.4</ele>
        <time>2023-04-05T14:23:20Z</time>
      </trkpt>
      <trkpt lat="49.82181" lon="2.27684">
        <ele>100.5</ele>
        <time>2023-04-05T14:23:21Z</time>
      </trkpt>
      <trkpt lat="49.8218" lon="2.27683">
        <ele>100.5</ele>
        <time>2023-04-05T14:23:22Z</time>
      </trkpt>
      <trkpt lat="49.8218" lon="2.27681">
        <ele>100.6</ele>
        <time>2023-04-05T14:23:23Z</time>
      </trkpt>
      <trkpt lat="49.82179" lon="2.27679">
        <ele>100.6</ele>
        <time>2023-04-05T14:23:24Z</time>
      </trkpt>
      <trkpt lat="49.82178" lon="2.27677">
        <ele>100.7</ele>
        <time>2023-04-05T14:23:25Z</time>
      </trkpt>
      <trkpt lat="49.82177" lon="2.27675">
        <ele>100.7</ele>
        <time>2023-04-05T14:23:27Z</time>
      </trkpt>
      <trkpt lat="49.82176" lon="2.27673">
        <ele>100.8</ele>
        <time>2023-04-05T14:23:28Z</time>
      </trkpt>
      <trkpt lat="49.82175" lon="2.2767">
        <ele>100.8</ele>
        <time>2023-04-05T14:23:29Z</time>
      </trkpt>
      <trkpt lat="49.82174" lon="2.27669">
        <ele>100.9</ele>
        <time>2023-04-05T14:23:30Z</time>
      </trkpt>
      <trkpt lat="49.82173" lon="2.27666">
        <ele>100.9</ele>
        <time>2023-04-05T14:23:31Z</time>
      </trkpt>
      <trkpt lat="49.82173" lon="2.27665">
        <ele>101</ele>
        <time>2023-04-05T14:23:32Z</time>
      </trkpt>
      <trkpt lat="49.82172" lon="2.27664">
        <ele>101</ele>
        <time>2023-04-05T14:23:33Z</time>
      </trkpt>
      <trkpt lat="49.82171" lon="2.2766">
        <ele>101.1</ele>
        <time>2023-04-05T14:23:34Z</time>
      </trkpt>
      <trkpt lat="49.8217" lon="2.27658">
        <ele>101.1</ele>
        <time>2023-04-05T14:23:36Z</time>
      </trkpt>
      <trkpt lat="49.8217" lon="2.27656">
        <ele>101.1</ele>
        <time>2023-04-05T14:23:37Z</time>
      </trkpt>
      <trkpt lat="49.82169" lon="2.27655">
        <ele>101.2</ele>
        <time>2023-04-05T14:23:38Z</time>
      </trkpt>
      <trkpt lat="49.82169" lon="2.27653">
        <ele>101.2</ele>
        <time>2023-04-05T14:23:39Z</time>
      </trkpt>
      <trkpt lat="49.82168" lon="2.27652">
        <ele>101.2</ele>
        <time>2023-04-05T14:23:40Z</time>
      </trkpt>
      <trkpt lat="49.82168" lon="2.27651">
        <ele>101.3</ele>
        <time>2023-04-05T14:23:41Z</time>
      </trkpt>
      <trkpt lat="49.82167" lon="2.27649">
        <ele>101.3</ele>
        <time>2023-04-05T14:23:42Z</time>
      </trkpt>
      <trkpt lat="49.82167" lon="2.27648">
        <ele>101.3</ele>
        <time>2023-04-05T14:23:43Z</time>
      </trkpt>
      <trkpt lat="49.82166" lon="2.27645">
        <ele>101.4</ele>
        <time>2023-04-05T14:23:44Z</time>
      </trkpt>
      <trkpt lat="49.82165" lon="2.27644">
        <ele>101.4</ele>
        <time>2023-04-05T14:23:46Z</time>
      </trkpt>
      <trkpt lat="49.82165" lon="2.27643">
        <ele>101.4</ele>
        <time>2023-04-05T14:23:47Z</time>
      </trkpt>
      <trkpt lat="49.82164" lon="2.27641">
        <ele>101.5</ele>
        <time>2023-04-05T14:23:48Z</time>
      </trkpt>
      <trkpt lat="49.82164" lon="2.27639">
        <ele>101.5</ele>
        <time>2023-04-05T14:23:49Z</time>
      </trkpt>
      <trkpt lat="49.82163" lon="2.27638">
        <ele>101.5</ele>
        <time>2023-04-05T14:23:50Z</time>
      </trkpt>
      <trkpt lat="49.82163" lon="2.27636">
        <ele>101.6</ele>
        <time>2023-04-05T14:23:51Z</time>
      </trkpt>
      <trkpt lat="49.82163" lon="2.27635">
        <ele>101.6</ele>
        <time>2023-04-05T14:23:52Z</time>
      </trkpt>
      <trkpt lat="49.82162" lon="2.27633">
        <ele>101.6</ele>
        <time>2023-04-05T14:23:53Z</time>
      </trkpt>
      <trkpt lat="49.82161" lon="2.27631">
        <ele>101.7</ele>
        <time>2023-04-05T14:23:55Z</time>
      </trkpt>
      <trkpt lat="49.82161" lon="2.2763">
        <ele>101.7</ele>
        <time>2023-04-05T14:23:56Z</time>
      </trkpt>
      <trkpt lat="49.82161" lon="2.27628">
        <ele>101.7</ele>
        <time>2023-04-05T14:23:57Z</time>
      </trkpt>
      <trkpt lat="49.8216" lon="2.27626">
        <ele>101.8</ele>
        <time>2023-04-05T14:23:58Z</time>
      </trkpt>
      <trkpt lat="49.82159" lon="2.27624">
        <ele>101.8</ele>
        <time>2023-04-05T14:23:59Z</time>
      </trkpt>
      <trkpt lat="49.82159" lon="2.27623">
        <ele>101.8</ele>
        <time>2023-04-05T14:24:00Z</time>
      </trkpt>
      <trkpt lat="49.82158" lon="2.27622">
        <ele>101.8</ele>
        <time>2023-04-05T14:24:02Z</time>
      </trkpt>
      <trkpt lat="49.82158" lon="2.2762">
        <ele>101.9</ele>
        <time>2023-04-05T14:24:03Z</time>
      </trkpt>
      <trkpt lat="49.82156" lon="2.27619">
        <ele>101.9</ele>
        <time>2023-04-05T14:24:04Z</time>
      </trkpt>
      <trkpt lat="49.82156" lon="2.27618">
        <ele>101.9</ele>
        <time>2023-04-05T14:24:05Z</time>
      </trkpt>
      <trkpt lat="49.82155" lon="2.27618">
        <ele>102</ele>
        <time>2023-04-05T14:24:06Z</time>
      </trkpt>
      <trkpt lat="49.82154" lon="2.27618">
        <ele>102</ele>
        <time>2023-04-05T14:24:07Z</time>
      </trkpt>
      <trkpt lat="49.82153" lon="2.27617">
        <ele>102</ele>
        <time>2023-04-05T14:24:09Z</time>
      </trkpt>
      <trkpt lat="49.82151" lon="2.27616">
        <ele>102.1</ele>
        <time>2023-04-05T14:24:10Z</time>
      </trkpt>
      <trkpt lat="49.82151" lon="2.27615">
        <ele>102.1</ele>
        <time>2023-04-05T14:24:11Z</time>
      </trkpt>
      <trkpt lat="49.8215" lon="2.27614">
        <ele>102.1</ele>
        <time>2023-04-05T14:24:12Z</time>
      </trkpt>
      <trkpt lat="49.82149" lon="2.27612">
        <ele>102.2</ele>
        <time>2023-04-05T14:24:13Z</time>
      </trkpt>
      <trkpt lat="49.82148" lon="2.27611">
        <ele>102.2</ele>
        <time>2023-04-05T14:24:14Z</time>
      </trkpt>
      <trkpt lat="49.82148" lon="2.2761">
        <ele>102.2</ele>
        <time>2023-04-05T14:24:15Z</time>
      </trkpt>
      <trkpt lat="49.82148" lon="2.27609">
        <ele>102.2</ele>
        <time>2023-04-05T14:24:17Z</time>
      </trkpt>
      <trkpt lat="49.82147" lon="2.27608">
        <ele>102.2</ele>
        <time>2023-04-05T14:24:18Z</time>
      </trkpt>
      <trkpt lat="49.82147" lon="2.27606">
        <ele>102.3</ele>
        <time>2023-04-05T14:24:19Z</time>
      </trkpt>
      <trkpt lat="49.82146" lon="2.27603">
        <ele>102.3</ele>
        <time>2023-04-05T14:24:20Z</time>
      </trkpt>
      <trkpt lat="49.82146" lon="2.27602">
        <ele>102.3</ele>
        <time>2023-04-05T14:24:21Z</time>
      </trkpt>
      <trkpt lat="49.82145" lon="2.27601">
        <ele>102.4</ele>
        <time>2023-04-05T14:24:22Z</time>
      </trkpt>
      <trkpt lat="49.82145" lon="2.276">
        <ele>102.4</ele>
        <time>2023-04-05T14:24:24Z</time>
      </trkpt>
      <trkpt lat="49.82144" lon="2.27599">
        <ele>102.4</ele>
        <time>2023-04-05T14:24:25Z</time>
      </trkpt>
      <trkpt lat="49.82144" lon="2.27598">
        <ele>102.4</ele>
        <time>2023-04-05T14:24:26Z</time>
      </trkpt>
      <trkpt lat="49.82143" lon="2.27597">
        <ele>102.5</ele>
        <time>2023-04-05T14:24:27Z</time>
      </trkpt>
      <trkpt lat="49.82143" lon="2.27595">
        <ele>102.5</ele>
        <time>2023-04-05T14:24:28Z</time>
      </trkpt>
      <trkpt lat="49.82142" lon="2.27593">
        <ele>102.5</ele>
        <time>2023-04-05T14:24:29Z</time>
      </trkpt>
      <trkpt lat="49.82141" lon="2.2759">
        <ele>102.6</ele>
        <time>2023-04-05T14:24:30Z</time>
      </trkpt>
      <trkpt lat="49.8214" lon="2.27589">
        <ele>102.6</ele>
        <time>2023-04-05T14:24:32Z</time>
      </trkpt>
      <trkpt lat="49.8214" lon="2.27588">
        <ele>102.6</ele>
        <time>2023-04-05T14:24:33Z</time>
      </trkpt>
      <trkpt lat="49.82139" lon="2.27585">
        <ele>102.7</ele>
        <time>2023-04-05T14:24:34Z</time>
      </trkpt>
      <trkpt lat="49.82139" lon="2.27584">
        <ele>102.7</ele>
        <time>2023-04-05T14:24:35Z</time>
      </trkpt>
      <trkpt lat="49.82137" lon="2.27581">
        <ele>102.8</ele>
        <time>2023-04-05T14:24:36Z</time>
      </trkpt>
      <trkpt lat="49.82137" lon="2.2758">
        <ele>102.8</ele>
        <time>2023-04-05T14:24:37Z</time>
      </trkpt>
      <trkpt lat="49.82136" lon="2.27578">
        <ele>102.8</ele>
        <time>2023-04-05T14:24:39Z</time>
      </trkpt>
      <trkpt lat="49.82136" lon="2.27577">
        <ele>102.8</ele>
        <time>2023-04-05T14:24:40Z</time>
      </trkpt>
      <trkpt lat="49.82135" lon="2.27576">
        <ele>102.9</ele>
        <time>2023-04-05T14:24:41Z</time>
      </trkpt>
      <trkpt lat="49.82135" lon="2.27574">
        <ele>102.9</ele>
        <time>2023-04-05T14:24:42Z</time>
      </trkpt>
      <trkpt lat="49.82133" lon="2.27572">
        <ele>102.9</ele>
        <time>2023-04-05T14:24:43Z</time>
      </trkpt>
      <trkpt lat="49.82133" lon="2.27571">
        <ele>103</ele>
        <time>2023-04-05T14:24:45Z</time>
      </trkpt>
      <trkpt lat="49.82132" lon="2.2757">
        <ele>103</ele>
        <time>2023-04-05T14:24:46Z</time>
      </trkpt>
      <trkpt lat="49.82132" lon="2.27569">
        <ele>103</ele>
        <time>2023-04-05T14:24:47Z</time>
      </trkpt>
      <trkpt lat="49.82131" lon="2.27567">
        <ele>103</ele>
        <time>2023-04-05T14:24:48Z</time>
      </trkpt>
      <trkpt lat="49.8213" lon="2.27566">
        <ele>103.1</ele>
        <time>2023-04-05T14:24:49Z</time>
      </trkpt>
      <trkpt lat="49.8213" lon="2.27565">
        <ele>103.1</ele>
        <time>2023-04-05T14:24:50Z</time>
      </trkpt>
      <trkpt lat="49.82129" lon="2.27564">
        <ele>103.1</ele>
        <time>2023-04-05T14:24:52Z</time>
      </trkpt>
      <trkpt lat="49.82128" lon="2.27563">
        <ele>103.1</ele>
        <time>2023-04-05T14:24:53Z</time>
      </trkpt>
      <trkpt lat="49.82128" lon="2.27562">
        <ele>103.1</ele>
        <time>2023-04-05T14:24:54Z</time>
      </trkpt>
      <trkpt lat="49.82127" lon="2.27561">
        <ele>103.1</ele>
        <time>2023-04-05T14:24:55Z</time>
      </trkpt>
      <trkpt lat="49.82126" lon="2.2756">
        <ele>103.2</ele>
        <time>2023-04-05T14:24:56Z</time>
      </trkpt>
      <trkpt lat="49.82126" lon="2.2756">
        <ele>103.2</ele>
        <time>2023-04-05T14:24:57Z</time>
      </trkpt>
      <trkpt lat="49.82126" lon="2.27559">
        <ele>103.2</ele>
        <time>2023-04-05T14:24:59Z</time>
      </trkpt>
      <trkpt lat="49.82126" lon="2.27558">
        <ele>103.2</ele>
        <time>2023-04-05T14:25:00Z</time>
      </trkpt>
      <trkpt lat="49.82126" lon="2.27557">
        <ele>103.2</ele>
        <time>2023-04-05T14:25:01Z</time>
      </trkpt>
      <trkpt lat="49.82126" lon="2.27556">
        <ele>103.2</ele>
        <time>2023-04-05T14:25:02Z</time>
      </trkpt>
      <trkpt lat="49.82126" lon="2.27553">
        <ele>103.3</ele>
        <time>2023-04-05T14:25:04Z</time>
      </trkpt>
      <trkpt lat="49.82125" lon="2.27552">
        <ele>103.3</ele>
        <time>2023-04-05T14:25:06Z</time>
      </trkpt>
      <trkpt lat="49.82124" lon="2.27551">
        <ele>103.3</ele>
        <time>2023-04-05T14:25:08Z</time>
      </trkpt>
      <trkpt lat="49.82124" lon="2.2755">
        <ele>103.3</ele>
        <time>2023-04-05T14:25:09Z</time>
      </trkpt>
      <trkpt lat="49.82124" lon="2.2755">
        <ele>103.3</ele>
        <time>2023-04-05T14:25:10Z</time>
      </trkpt>
      <trkpt lat="49.82124" lon="2.2755">
        <ele>103.3</ele>
        <time>2023-04-05T14:25:12Z</time>
      </trkpt>
      <trkpt lat="49.82124" lon="2.27551">
        <ele>103.3</ele>
        <time>2023-04-05T14:25:13Z</time>
      </trkpt>
      <trkpt lat="49.82124" lon="2.27551">
        <ele>103.3</ele>
        <time>2023-04-05T14:25:15Z</time>
      </trkpt>
      <trkpt lat="49.82124" lon="2.27551">
        <ele>103.4</ele>
        <time>2023-04-05T14:25:16Z</time>
      </trkpt>
      <trkpt lat="49.82124" lon="2.27552">
        <ele>103.4</ele>
        <time>2023-04-05T14:25:18Z</time>
      </trkpt>
      <trkpt lat="49.82124" lon="2.27552">
        <ele>103.4</ele>
        <time>2023-04-05T14:25:19Z</time>
      </trkpt>
      <trkpt lat="49.82124" lon="2.27552">
        <ele>103.4</ele>
        <time>2023-04-05T14:25:20Z</time>
      </trkpt>
      <trkpt lat="49.82124" lon="2.27552">
        <ele>103.4</ele>
        <time>2023-04-05T14:25:22Z</time>
      </trkpt>
      <trkpt lat="49.82124" lon="2.27552">
        <ele>103.4</ele>
        <time>2023-04-05T14:25:23Z</time>
      </trkpt>
      <trkpt lat="49.82124" lon="2.27552">
        <ele>103.4</ele>
        <time>2023-04-05T14:25:24Z</time>
      </trkpt>
      <trkpt lat="49.82124" lon="2.27551">
        <ele>103.4</ele>
        <time>2023-04-05T14:25:25Z</time>
      </trkpt>
      <trkpt lat="49.82125" lon="2.2755">
        <ele>103.4</ele>
        <time>2023-04-05T14:25:26Z</time>
      </trkpt>
      <trkpt lat="49.82125" lon="2.27548">
        <ele>103.4</ele>
        <time>2023-04-05T14:25:27Z</time>
      </trkpt>
      <trkpt lat="49.82126" lon="2.27547">
        <ele>103.5</ele>
        <time>2023-04-05T14:25:28Z</time>
      </trkpt>
      <trkpt lat="49.82126" lon="2.27545">
        <ele>103.5</ele>
        <time>2023-04-05T14:25:30Z</time>
      </trkpt>
      <trkpt lat="49.82126" lon="2.27544">
        <ele>103.5</ele>
        <time>2023-04-05T14:25:31Z</time>
      </trkpt>
      <trkpt lat="49.82125" lon="2.27542">
        <ele>103.5</ele>
        <time>2023-04-05T14:25:32Z</time>
      </trkpt>
      <trkpt lat="49.82125" lon="2.27541">
        <ele>103.6</ele>
        <time>2023-04-05T14:25:34Z</time>
      </trkpt>
      <trkpt lat="49.82125" lon="2.2754">
        <ele>103.6</ele>
        <time>2023-04-05T14:25:35Z</time>
      </trkpt>
      <trkpt lat="49.82125" lon="2.27538">
        <ele>103.6</ele>
        <time>2023-04-05T14:25:36Z</time>
      </trkpt>
      <trkpt lat="49.82125" lon="2.27538">
        <ele>103.6</ele>
        <time>2023-04-05T14:25:37Z</time>
      </trkpt>
      <trkpt lat="49.82124" lon="2.27538">
        <ele>103.6</ele>
        <time>2023-04-05T14:25:38Z</time>
      </trkpt>
      <trkpt lat="49.82123" lon="2.27538">
        <ele>103.7</ele>
        <time>2023-04-05T14:25:39Z</time>
      </trkpt>
      <trkpt lat="49.82122" lon="2.27538">
        <ele>103.7</ele>
        <time>2023-04-05T14:25:41Z</time>
      </trkpt>
      <trkpt lat="49.82121" lon="2.27538">
        <ele>103.7</ele>
        <time>2023-04-05T14:25:42Z</time>
      </trkpt>
      <trkpt lat="49.8212" lon="2.27538">
        <ele>103.7</ele>
        <time>2023-04-05T14:25:43Z</time>
      </trkpt>
      <trkpt lat="49.8212" lon="2.27539">
        <ele>103.7</ele>
        <time>2023-04-05T14:25:44Z</time>
      </trkpt>
      <trkpt lat="49.82119" lon="2.2754">
        <ele>103.7</ele>
        <time>2023-04-05T14:25:46Z</time>
      </trkpt>
      <trkpt lat="49.82119" lon="2.27541">
        <ele>103.8</ele>
        <time>2023-04-05T14:25:47Z</time>
      </trkpt>
      <trkpt lat="49.8212" lon="2.27542">
        <ele>103.8</ele>
        <time>2023-04-05T14:25:48Z</time>
      </trkpt>
      <trkpt lat="49.8212" lon="2.27543">
        <ele>103.8</ele>
        <time>2023-04-05T14:25:50Z</time>
      </trkpt>
      <trkpt lat="49.8212" lon="2.27543">
        <ele>103.8</ele>
        <time>2023-04-05T14:25:51Z</time>
      </trkpt>
      <trkpt lat="49.82121" lon="2.27544">
        <ele>103.8</ele>
        <time>2023-04-05T14:25:53Z</time>
      </trkpt>
      <trkpt lat="49.82121" lon="2.27544">
        <ele>103.8</ele>
        <time>2023-04-05T14:25:54Z</time>
      </trkpt>
      <trkpt lat="49.82121" lon="2.27545">
        <ele>103.8</ele>
        <time>2023-04-05T14:25:55Z</time>
      </trkpt>
      <trkpt lat="49.82121" lon="2.27545">
        <ele>103.8</ele>
        <time>2023-04-05T14:25:57Z</time>
      </trkpt>
      <trkpt lat="49.82121" lon="2.27546">
        <ele>103.8</ele>
        <time>2023-04-05T14:25:58Z</time>
      </trkpt>
      <trkpt lat="49.82122" lon="2.27546">
        <ele>103.9</ele>
        <time>2023-04-05T14:26:00Z</time>
      </trkpt>
      <trkpt lat="49.82123" lon="2.27547">
        <ele>103.9</ele>
        <time>2023-04-05T14:26:01Z</time>
      </trkpt>
      <trkpt lat="49.82123" lon="2.27547">
        <ele>103.9</ele>
        <time>2023-04-05T14:26:02Z</time>
      </trkpt>
      <trkpt lat="49.82123" lon="2.27547">
        <ele>103.9</ele>
        <time>2023-04-05T14:26:03Z</time>
      </trkpt>
      <trkpt lat="49.82123" lon="2.27547">
        <ele>103.9</ele>
        <time>2023-04-05T14:26:04Z</time>
      </trkpt>
      <trkpt lat="49.82123" lon="2.27547">
        <ele>103.9</ele>
        <time>2023-04-05T14:26:05Z</time>
      </trkpt>
      <trkpt lat="49.82123" lon="2.27547">
        <ele>103.9</ele>
        <time>2023-04-05T14:26:06Z</time>
      </trkpt>
      <trkpt lat="49.82123" lon="2.27547">
        <ele>103.9</ele>
        <time>2023-04-05T14:26:07Z</time>
      </trkpt>
      <trkpt lat="49.82123" lon="2.27547">
        <ele>103.9</ele>
        <time>2023-04-05T14:26:08Z</time>
      </trkpt>
      <trkpt lat="49.82123" lon="2.27547">
        <ele>103.9</ele>
        <time>2023-04-05T14:26:09Z</time>
      </trkpt>
      <trkpt lat="49.82123" lon="2.27547">
        <ele>103.9</ele>
        <time>2023-04-05T14:26:10Z</time>
      </trkpt>
      <trkpt lat="49.82123" lon="2.27547">
        <ele>103.9</ele>
        <time>2023-04-05T14:26:11Z</time>
      </trkpt>
      <trkpt lat="49.82123" lon="2.27547">
        <ele>103.9</ele>
        <time>2023-04-05T14:26:12Z</time>
      </trkpt>
      <trkpt lat="49.82123" lon="2.27547">
        <ele>103.9</ele>
        <time>2023-04-05T14:26:13Z</time>
      </trkpt>
      <trkpt lat="49.82123" lon="2.27547">
        <ele>103.9</ele>
        <time>2023-04-05T14:26:14Z</time>
      </trkpt>
      <trkpt lat="49.82123" lon="2.27547">
        <ele>103.9</ele>
        <time>2023-04-05T14:26:15Z</time>
      </trkpt>
      <trkpt lat="49.82123" lon="2.27547">
        <ele>103.9</ele>
        <time>2023-04-05T14:26:16Z</time>
      </trkpt>
      <trkpt lat="49.82123" lon="2.27547">
        <ele>103.9</ele>
        <time>2023-04-05T14:26:17Z</time>
      </trkpt>
      <trkpt lat="49.82123" lon="2.27547">
        <ele>103.9</ele>
        <time>2023-04-05T14:26:18Z</time>
      </trkpt>
      <trkpt lat="49.82123" lon="2.27547">
        <ele>103.9</ele>
        <time>2023-04-05T14:26:19Z</time>
      </trkpt>
      <trkpt lat="49.82123" lon="2.27547">
        <ele>103.9</ele>
        <time>2023-04-05T14:26:20Z</time>
      </trkpt>
      <trkpt lat="49.82123" lon="2.27549">
        <ele>103.9</ele>
        <time>2023-04-05T14:26:21Z</time>
      </trkpt>
      <trkpt lat="49.82123" lon="2.27551">
        <ele>104</ele>
        <time>2023-04-05T14:26:22Z</time>
      </trkpt>
      <trkpt lat="49.82123" lon="2.27552">
        <ele>104</ele>
        <time>2023-04-05T14:26:23Z</time>
      </trkpt>
      <trkpt lat="49.82122" lon="2.27552">
        <ele>104</ele>
        <time>2023-04-05T14:26:24Z</time>
      </trkpt>
      <trkpt lat="49.82122" lon="2.27553">
        <ele>104</ele>
        <time>2023-04-05T14:26:25Z</time>
      </trkpt>
      <trkpt lat="49.82122" lon="2.27554">
        <ele>104</ele>
        <time>2023-04-05T14:26:26Z</time>
      </trkpt>
      <trkpt lat="49.82121" lon="2.27555">
        <ele>104</ele>
        <time>2023-04-05T14:26:28Z</time>
      </trkpt>
      <trkpt lat="49.8212" lon="2.27556">
        <ele>104</ele>
        <time>2023-04-05T14:26:29Z</time>
      </trkpt>
      <trkpt lat="49.8212" lon="2.27556">
        <ele>104</ele>
        <time>2023-04-05T14:26:30Z</time>
      </trkpt>
      <trkpt lat="49.82118" lon="2.27556">
        <ele>104.2</ele>
        <time>2023-04-05T14:26:31Z</time>
      </trkpt>
      <trkpt lat="49.82117" lon="2.27556">
        <ele>104.3</ele>
        <time>2023-04-05T14:26:32Z</time>
      </trkpt>
      <trkpt lat="49.82116" lon="2.27557">
        <ele>104.3</ele>
        <time>2023-04-05T14:26:33Z</time>
      </trkpt>
      <trkpt lat="49.82115" lon="2.27557">
        <ele>104.3</ele>
        <time>2023-04-05T14:26:34Z</time>
      </trkpt>
      <trkpt lat="49.82114" lon="2.27557">
        <ele>104.3</ele>
        <time>2023-04-05T14:26:35Z</time>
      </trkpt>
      <trkpt lat="49.82112" lon="2.27557">
        <ele>104.3</ele>
        <time>2023-04-05T14:26:36Z</time>
      </trkpt>
      <trkpt lat="49.82111" lon="2.27556">
        <ele>104.3</ele>
        <time>2023-04-05T14:26:38Z</time>
      </trkpt>
      <trkpt lat="49.82109" lon="2.27555">
        <ele>104.4</ele>
        <time>2023-04-05T14:26:39Z</time>
      </trkpt>
      <trkpt lat="49.82108" lon="2.27555">
        <ele>104.4</ele>
        <time>2023-04-05T14:26:40Z</time>
      </trkpt>
      <trkpt lat="49.82106" lon="2.27553">
        <ele>104.4</ele>
        <time>2023-04-05T14:26:42Z</time>
      </trkpt>
      <trkpt lat="49.82105" lon="2.27552">
        <ele>104.5</ele>
        <time>2023-04-05T14:26:43Z</time>
      </trkpt>
      <trkpt lat="49.82104" lon="2.27551">
        <ele>104.5</ele>
        <time>2023-04-05T14:26:44Z</time>
      </trkpt>
      <trkpt lat="49.82102" lon="2.27551">
        <ele>104.5</ele>
        <time>2023-04-05T14:26:45Z</time>
      </trkpt>
      <trkpt lat="49.82101" lon="2.2755">
        <ele>104.6</ele>
        <time>2023-04-05T14:26:47Z</time>
      </trkpt>
      <trkpt lat="49.821" lon="2.27549">
        <ele>104.6</ele>
        <time>2023-04-05T14:26:48Z</time>
      </trkpt>
      <trkpt lat="49.82099" lon="2.27549">
        <ele>104.6</ele>
        <time>2023-04-05T14:26:49Z</time>
      </trkpt>
      <trkpt lat="49.82098" lon="2.27549">
        <ele>104.6</ele>
        <time>2023-04-05T14:26:50Z</time>
      </trkpt>
      <trkpt lat="49.82097" lon="2.27548">
        <ele>104.7</ele>
        <time>2023-04-05T14:26:52Z</time>
      </trkpt>
      <trkpt lat="49.82096" lon="2.27547">
        <ele>104.7</ele>
        <time>2023-04-05T14:26:53Z</time>
      </trkpt>
      <trkpt lat="49.82095" lon="2.27547">
        <ele>104.7</ele>
        <time>2023-04-05T14:26:54Z</time>
      </trkpt>
      <trkpt lat="49.82093" lon="2.27546">
        <ele>104.8</ele>
        <time>2023-04-05T14:26:55Z</time>
      </trkpt>
      <trkpt lat="49.82092" lon="2.27546">
        <ele>104.8</ele>
        <time>2023-04-05T14:26:56Z</time>
      </trkpt>
      <trkpt lat="49.82091" lon="2.27546">
        <ele>104.8</ele>
        <time>2023-04-05T14:26:57Z</time>
      </trkpt>
      <trkpt lat="49.82089" lon="2.27545">
        <ele>104.8</ele>
        <time>2023-04-05T14:26:59Z</time>
      </trkpt>
      <trkpt lat="49.82088" lon="2.27544">
        <ele>104.9</ele>
        <time>2023-04-05T14:27:00Z</time>
      </trkpt>
      <trkpt lat="49.82087" lon="2.27544">
        <ele>104.9</ele>
        <time>2023-04-05T14:27:01Z</time>
      </trkpt>
      <trkpt lat="49.82085" lon="2.27543">
        <ele>104.9</ele>
        <time>2023-04-05T14:27:02Z</time>
      </trkpt>
      <trkpt lat="49.82084" lon="2.27542">
        <ele>105</ele>
        <time>2023-04-05T14:27:03Z</time>
      </trkpt>
      <trkpt lat="49.82082" lon="2.27542">
        <ele>105</ele>
        <time>2023-04-05T14:27:05Z</time>
      </trkpt>
      <trkpt lat="49.82081" lon="2.27541">
        <ele>105</ele>
        <time>2023-04-05T14:27:07Z</time>
      </trkpt>
      <trkpt lat="49.8208" lon="2.27541">
        <ele>105.1</ele>
        <time>2023-04-05T14:27:08Z</time>
      </trkpt>
      <trkpt lat="49.82078" lon="2.27541">
        <ele>105.1</ele>
        <time>2023-04-05T14:27:09Z</time>
      </trkpt>
      <trkpt lat="49.82077" lon="2.27541">
        <ele>105.1</ele>
        <time>2023-04-05T14:27:10Z</time>
      </trkpt>
      <trkpt lat="49.82076" lon="2.27541">
        <ele>105.1</ele>
        <time>2023-04-05T14:27:12Z</time>
      </trkpt>
      <trkpt lat="49.82075" lon="2.27541">
        <ele>105.2</ele>
        <time>2023-04-05T14:27:13Z</time>
      </trkpt>
      <trkpt lat="49.82074" lon="2.27541">
        <ele>105.2</ele>
        <time>2023-04-05T14:27:14Z</time>
      </trkpt>
      <trkpt lat="49.82074" lon="2.27542">
        <ele>105.2</ele>
        <time>2023-04-05T14:27:15Z</time>
      </trkpt>
      <trkpt lat="49.82072" lon="2.27542">
        <ele>105.2</ele>
        <time>2023-04-05T14:27:16Z</time>
      </trkpt>
      <trkpt lat="49.82072" lon="2.27542">
        <ele>105.2</ele>
        <time>2023-04-05T14:27:18Z</time>
      </trkpt>
      <trkpt lat="49.82071" lon="2.27542">
        <ele>105.3</ele>
        <time>2023-04-05T14:27:19Z</time>
      </trkpt>
      <trkpt lat="49.8207" lon="2.27542">
        <ele>105.3</ele>
        <time>2023-04-05T14:27:20Z</time>
      </trkpt>
      <trkpt lat="49.82069" lon="2.27542">
        <ele>105.3</ele>
        <time>2023-04-05T14:27:21Z</time>
      </trkpt>
      <trkpt lat="49.82068" lon="2.27542">
        <ele>105.3</ele>
        <time>2023-04-05T14:27:22Z</time>
      </trkpt>
      <trkpt lat="49.82067" lon="2.27543">
        <ele>105.3</ele>
        <time>2023-04-05T14:27:23Z</time>
      </trkpt>
      <trkpt lat="49.82066" lon="2.27543">
        <ele>105.4</ele>
        <time>2023-04-05T14:27:25Z</time>
      </trkpt>
      <trkpt lat="49.82066" lon="2.27543">
        <ele>105.4</ele>
        <time>2023-04-05T14:27:26Z</time>
      </trkpt>
      <trkpt lat="49.82064" lon="2.27544">
        <ele>105.4</ele>
        <time>2023-04-05T14:27:27Z</time>
      </trkpt>
      <trkpt lat="49.82063" lon="2.27544">
        <ele>105.4</ele>
        <time>2023-04-05T14:27:28Z</time>
      </trkpt>
      <trkpt lat="49.82062" lon="2.27544">
        <ele>105.4</ele>
        <time>2023-04-05T14:27:29Z</time>
      </trkpt>
      <trkpt lat="49.82061" lon="2.27545">
        <ele>105.5</ele>
        <time>2023-04-05T14:27:30Z</time>
      </trkpt>
      <trkpt lat="49.8206" lon="2.27544">
        <ele>105.5</ele>
        <time>2023-04-05T14:27:31Z</time>
      </trkpt>
      <trkpt lat="49.82058" lon="2.27545">
        <ele>105.5</ele>
        <time>2023-04-05T14:27:32Z</time>
      </trkpt>
      <trkpt lat="49.82057" lon="2.27545">
        <ele>105.6</ele>
        <time>2023-04-05T14:27:33Z</time>
      </trkpt>
      <trkpt lat="49.82056" lon="2.27546">
        <ele>105.6</ele>
        <time>2023-04-05T14:27:35Z</time>
      </trkpt>
      <trkpt lat="49.82054" lon="2.27546">
        <ele>105.6</ele>
        <time>2023-04-05T14:27:36Z</time>
      </trkpt>
      <trkpt lat="49.82053" lon="2.27547">
        <ele>105.7</ele>
        <time>2023-04-05T14:27:37Z</time>
      </trkpt>
      <trkpt lat="49.82051" lon="2.27548">
        <ele>105.7</ele>
        <time>2023-04-05T14:27:38Z</time>
      </trkpt>
      <trkpt lat="49.8205" lon="2.27548">
        <ele>105.7</ele>
        <time>2023-04-05T14:27:40Z</time>
      </trkpt>
      <trkpt lat="49.82048" lon="2.2755">
        <ele>105.8</ele>
        <time>2023-04-05T14:27:41Z</time>
      </trkpt>
      <trkpt lat="49.82047" lon="2.2755">
        <ele>105.8</ele>
        <time>2023-04-05T14:27:42Z</time>
      </trkpt>
      <trkpt lat="49.82047" lon="2.2755">
        <ele>105.8</ele>
        <time>2023-04-05T14:27:43Z</time>
      </trkpt>
      <trkpt lat="49.82045" lon="2.27551">
        <ele>105.8</ele>
        <time>2023-04-05T14:27:44Z</time>
      </trkpt>
      <trkpt lat="49.82044" lon="2.27552">
        <ele>105.9</ele>
        <time>2023-04-05T14:27:45Z</time>
      </trkpt>
      <trkpt lat="49.82042" lon="2.27554">
        <ele>105.9</ele>
        <time>2023-04-05T14:27:46Z</time>
      </trkpt>
      <trkpt lat="49.82041" lon="2.27555">
        <ele>105.9</ele>
        <time>2023-04-05T14:27:48Z</time>
      </trkpt>
      <trkpt lat="49.8204" lon="2.27555">
        <ele>105.9</ele>
        <time>2023-04-05T14:27:49Z</time>
      </trkpt>
      <trkpt lat="49.82039" lon="2.27556">
        <ele>106</ele>
        <time>2023-04-05T14:27:50Z</time>
      </trkpt>
      <trkpt lat="49.82038" lon="2.27557">
        <ele>106</ele>
        <time>2023-04-05T14:27:51Z</time>
      </trkpt>
      <trkpt lat="49.82037" lon="2.27557">
        <ele>106</ele>
        <time>2023-04-05T14:27:52Z</time>
      </trkpt>
      <trkpt lat="49.82036" lon="2.27559">
        <ele>106</ele>
        <time>2023-04-05T14:27:53Z</time>
      </trkpt>
      <trkpt lat="49.82035" lon="2.27559">
        <ele>106.1</ele>
        <time>2023-04-05T14:27:55Z</time>
      </trkpt>
      <trkpt lat="49.82034" lon="2.2756">
        <ele>106.1</ele>
        <time>2023-04-05T14:27:56Z</time>
      </trkpt>
      <trkpt lat="49.82033" lon="2.27561">
        <ele>106.1</ele>
        <time>2023-04-05T14:27:57Z</time>
      </trkpt>
      <trkpt lat="49.82032" lon="2.27562">
        <ele>106.1</ele>
        <time>2023-04-05T14:27:58Z</time>
      </trkpt>
      <trkpt lat="49.82031" lon="2.27564">
        <ele>106.1</ele>
        <time>2023-04-05T14:27:59Z</time>
      </trkpt>
      <trkpt lat="49.8203" lon="2.27565">
        <ele>106.2</ele>
        <time>2023-04-05T14:28:00Z</time>
      </trkpt>
      <trkpt lat="49.82029" lon="2.27565">
        <ele>106.2</ele>
        <time>2023-04-05T14:28:02Z</time>
      </trkpt>
      <trkpt lat="49.82029" lon="2.27566">
        <ele>106.2</ele>
        <time>2023-04-05T14:28:03Z</time>
      </trkpt>
      <trkpt lat="49.82028" lon="2.27567">
        <ele>106.2</ele>
        <time>2023-04-05T14:28:04Z</time>
      </trkpt>
      <trkpt lat="49.82027" lon="2.27568">
        <ele>106.2</ele>
        <time>2023-04-05T14:28:05Z</time>
      </trkpt>
      <trkpt lat="49.82027" lon="2.27568">
        <ele>106.2</ele>
        <time>2023-04-05T14:28:06Z</time>
      </trkpt>
      <trkpt lat="49.82026" lon="2.27569">
        <ele>106.2</ele>
        <time>2023-04-05T14:28:07Z</time>
      </trkpt>
      <trkpt lat="49.82024" lon="2.2757">
        <ele>106.3</ele>
        <time>2023-04-05T14:28:08Z</time>
      </trkpt>
      <trkpt lat="49.82023" lon="2.27571">
        <ele>106.3</ele>
        <time>2023-04-05T14:28:10Z</time>
      </trkpt>
      <trkpt lat="49.82021" lon="2.27571">
        <ele>106.3</ele>
        <time>2023-04-05T14:28:11Z</time>
      </trkpt>
      <trkpt lat="49.8202" lon="2.27572">
        <ele>106.3</ele>
        <time>2023-04-05T14:28:12Z</time>
      </trkpt>
      <trkpt lat="49.82019" lon="2.27572">
        <ele>106.3</ele>
        <time>2023-04-05T14:28:13Z</time>
      </trkpt>
      <trkpt lat="49.82018" lon="2.27573">
        <ele>106.4</ele>
        <time>2023-04-05T14:28:14Z</time>
      </trkpt>
      <trkpt lat="49.82016" lon="2.27574">
        <ele>106.4</ele>
        <time>2023-04-05T14:28:15Z</time>
      </trkpt>
      <trkpt lat="49.82013" lon="2.27575">
        <ele>106.4</ele>
        <time>2023-04-05T14:28:16Z</time>
      </trkpt>
      <trkpt lat="49.82012" lon="2.27576">
        <ele>106.5</ele>
        <time>2023-04-05T14:28:18Z</time>
      </trkpt>
      <trkpt lat="49.82011" lon="2.27577">
        <ele>106.5</ele>
        <time>2023-04-05T14:28:19Z</time>
      </trkpt>
      <trkpt lat="49.8201" lon="2.27577">
        <ele>106.5</ele>
        <time>2023-04-05T14:28:20Z</time>
      </trkpt>
      <trkpt lat="49.82009" lon="2.27578">
        <ele>106.5</ele>
        <time>2023-04-05T14:28:21Z</time>
      </trkpt>
      <trkpt lat="49.82008" lon="2.27579">
        <ele>106.5</ele>
        <time>2023-04-05T14:28:22Z</time>
      </trkpt>
      <trkpt lat="49.82007" lon="2.2758">
        <ele>106.5</ele>
        <time>2023-04-05T14:28:23Z</time>
      </trkpt>
      <trkpt lat="49.82006" lon="2.27581">
        <ele>106.6</ele>
        <time>2023-04-05T14:28:24Z</time>
      </trkpt>
      <trkpt lat="49.82004" lon="2.27582">
        <ele>106.6</ele>
        <time>2023-04-05T14:28:25Z</time>
      </trkpt>
      <trkpt lat="49.82003" lon="2.27583">
        <ele>106.6</ele>
        <time>2023-04-05T14:28:27Z</time>
      </trkpt>
      <trkpt lat="49.82002" lon="2.27583">
        <ele>106.6</ele>
        <time>2023-04-05T14:28:28Z</time>
      </trkpt>
      <trkpt lat="49.82001" lon="2.27584">
        <ele>106.6</ele>
        <time>2023-04-05T14:28:29Z</time>
      </trkpt>
      <trkpt lat="49.82" lon="2.27585">
        <ele>106.7</ele>
        <time>2023-04-05T14:28:30Z</time>
      </trkpt>
      <trkpt lat="49.81999" lon="2.27586">
        <ele>106.7</ele>
        <time>2023-04-05T14:28:31Z</time>
      </trkpt>
      <trkpt lat="49.81997" lon="2.27588">
        <ele>106.7</ele>
        <time>2023-04-05T14:28:33Z</time>
      </trkpt>
      <trkpt lat="49.81996" lon="2.27588">
        <ele>106.7</ele>
        <time>2023-04-05T14:28:34Z</time>
      </trkpt>
      <trkpt lat="49.81995" lon="2.27589">
        <ele>106.8</ele>
        <time>2023-04-05T14:28:35Z</time>
      </trkpt>
      <trkpt lat="49.81993" lon="2.2759">
        <ele>106.8</ele>
        <time>2023-04-05T14:28:37Z</time>
      </trkpt>
      <trkpt lat="49.81993" lon="2.2759">
        <ele>106.8</ele>
        <time>2023-04-05T14:28:38Z</time>
      </trkpt>
      <trkpt lat="49.81992" lon="2.27591">
        <ele>106.8</ele>
        <time>2023-04-05T14:28:39Z</time>
      </trkpt>
      <trkpt lat="49.81991" lon="2.27592">
        <ele>106.8</ele>
        <time>2023-04-05T14:28:40Z</time>
      </trkpt>
      <trkpt lat="49.8199" lon="2.27593">
        <ele>106.8</ele>
        <time>2023-04-05T14:28:41Z</time>
      </trkpt>
      <trkpt lat="49.81989" lon="2.27594">
        <ele>106.8</ele>
        <time>2023-04-05T14:28:42Z</time>
      </trkpt>
      <trkpt lat="49.81987" lon="2.27595">
        <ele>106.9</ele>
        <time>2023-04-05T14:28:43Z</time>
      </trkpt>
      <trkpt lat="49.81986" lon="2.27596">
        <ele>106.9</ele>
        <time>2023-04-05T14:28:45Z</time>
      </trkpt>
      <trkpt lat="49.81985" lon="2.27596">
        <ele>106.9</ele>
        <time>2023-04-05T14:28:46Z</time>
      </trkpt>
      <trkpt lat="49.81984" lon="2.27596">
        <ele>106.9</ele>
        <time>2023-04-05T14:28:47Z</time>
      </trkpt>
      <trkpt lat="49.81983" lon="2.27597">
        <ele>106.9</ele>
        <time>2023-04-05T14:28:48Z</time>
      </trkpt>
      <trkpt lat="49.81981" lon="2.27598">
        <ele>106.9</ele>
        <time>2023-04-05T14:28:49Z</time>
      </trkpt>
      <trkpt lat="49.8198" lon="2.27598">
        <ele>106.9</ele>
        <time>2023-04-05T14:28:50Z</time>
      </trkpt>
      <trkpt lat="49.81978" lon="2.27599">
        <ele>106.9</ele>
        <time>2023-04-05T14:28:51Z</time>
      </trkpt>
      <trkpt lat="49.81977" lon="2.276">
        <ele>106.9</ele>
        <time>2023-04-05T14:28:52Z</time>
      </trkpt>
      <trkpt lat="49.81975" lon="2.27601">
        <ele>107</ele>
        <time>2023-04-05T14:28:53Z</time>
      </trkpt>
      <trkpt lat="49.81974" lon="2.27601">
        <ele>107</ele>
        <time>2023-04-05T14:28:55Z</time>
      </trkpt>
      <trkpt lat="49.81973" lon="2.27602">
        <ele>107</ele>
        <time>2023-04-05T14:28:56Z</time>
      </trkpt>
      <trkpt lat="49.81972" lon="2.27603">
        <ele>107</ele>
        <time>2023-04-05T14:28:57Z</time>
      </trkpt>
      <trkpt lat="49.81971" lon="2.27603">
        <ele>107</ele>
        <time>2023-04-05T14:28:58Z</time>
      </trkpt>
      <trkpt lat="49.81969" lon="2.27604">
        <ele>107</ele>
        <time>2023-04-05T14:28:59Z</time>
      </trkpt>
      <trkpt lat="49.81968" lon="2.27604">
        <ele>107</ele>
        <time>2023-04-05T14:29:00Z</time>
      </trkpt>
      <trkpt lat="49.81967" lon="2.27605">
        <ele>107</ele>
        <time>2023-04-05T14:29:01Z</time>
      </trkpt>
      <trkpt lat="49.81966" lon="2.27605">
        <ele>107</ele>
        <time>2023-04-05T14:29:02Z</time>
      </trkpt>
      <trkpt lat="49.81964" lon="2.27606">
        <ele>107</ele>
        <time>2023-04-05T14:29:03Z</time>
      </trkpt>
      <trkpt lat="49.81962" lon="2.27607">
        <ele>107.1</ele>
        <time>2023-04-05T14:29:04Z</time>
      </trkpt>
      <trkpt lat="49.81961" lon="2.27608">
        <ele>107.1</ele>
        <time>2023-04-05T14:29:05Z</time>
      </trkpt>
      <trkpt lat="49.81961" lon="2.27608">
        <ele>107.1</ele>
        <time>2023-04-05T14:29:06Z</time>
      </trkpt>
      <trkpt lat="49.8196" lon="2.27609">
        <ele>107.1</ele>
        <time>2023-04-05T14:29:08Z</time>
      </trkpt>
      <trkpt lat="49.81959" lon="2.27609">
        <ele>107.1</ele>
        <time>2023-04-05T14:29:09Z</time>
      </trkpt>
      <trkpt lat="49.81958" lon="2.27609">
        <ele>107.1</ele>
        <time>2023-04-05T14:29:10Z</time>
      </trkpt>
      <trkpt lat="49.81957" lon="2.2761">
        <ele>107.1</ele>
        <time>2023-04-05T14:29:11Z</time>
      </trkpt>
      <trkpt lat="49.81955" lon="2.2761">
        <ele>107.1</ele>
        <time>2023-04-05T14:29:12Z</time>
      </trkpt>
      <trkpt lat="49.81954" lon="2.27611">
        <ele>107.1</ele>
        <time>2023-04-05T14:29:13Z</time>
      </trkpt>
      <trkpt lat="49.81953" lon="2.27611">
        <ele>107.1</ele>
        <time>2023-04-05T14:29:14Z</time>
      </trkpt>
      <trkpt lat="49.81952" lon="2.27611">
        <ele>107.1</ele>
        <time>2023-04-05T14:29:15Z</time>
      </trkpt>
      <trkpt lat="49.81951" lon="2.27612">
        <ele>107.1</ele>
        <time>2023-04-05T14:29:16Z</time>
      </trkpt>
      <trkpt lat="49.8195" lon="2.27613">
        <ele>107.1</ele>
        <time>2023-04-05T14:29:18Z</time>
      </trkpt>
      <trkpt lat="49.81949" lon="2.27613">
        <ele>107.1</ele>
        <time>2023-04-05T14:29:19Z</time>
      </trkpt>
      <trkpt lat="49.81948" lon="2.27614">
        <ele>107.1</ele>
        <time>2023-04-05T14:29:20Z</time>
      </trkpt>
      <trkpt lat="49.81946" lon="2.27615">
        <ele>107.1</ele>
        <time>2023-04-05T14:29:21Z</time>
      </trkpt>
      <trkpt lat="49.81945" lon="2.27616">
        <ele>107.1</ele>
        <time>2023-04-05T14:29:22Z</time>
      </trkpt>
      <trkpt lat="49.81945" lon="2.27616">
        <ele>107.1</ele>
        <time>2023-04-05T14:29:23Z</time>
      </trkpt>
      <trkpt lat="49.81943" lon="2.27618">
        <ele>107.1</ele>
        <time>2023-04-05T14:29:24Z</time>
      </trkpt>
      <trkpt lat="49.81942" lon="2.27619">
        <ele>107.1</ele>
        <time>2023-04-05T14:29:25Z</time>
      </trkpt>
      <trkpt lat="49.81941" lon="2.27619">
        <ele>107.1</ele>
        <time>2023-04-05T14:29:26Z</time>
      </trkpt>
      <trkpt lat="49.8194" lon="2.2762">
        <ele>107.1</ele>
        <time>2023-04-05T14:29:28Z</time>
      </trkpt>
      <trkpt lat="49.81939" lon="2.27621">
        <ele>107</ele>
        <time>2023-04-05T14:29:29Z</time>
      </trkpt>
      <trkpt lat="49.81938" lon="2.27623">
        <ele>107</ele>
        <time>2023-04-05T14:29:30Z</time>
      </trkpt>
      <trkpt lat="49.81937" lon="2.27624">
        <ele>107</ele>
        <time>2023-04-05T14:29:31Z</time>
      </trkpt>
      <trkpt lat="49.81937" lon="2.27625">
        <ele>107</ele>
        <time>2023-04-05T14:29:33Z</time>
      </trkpt>
      <trkpt lat="49.81936" lon="2.27626">
        <ele>107</ele>
        <time>2023-04-05T14:29:34Z</time>
      </trkpt>
      <trkpt lat="49.81935" lon="2.27627">
        <ele>107</ele>
        <time>2023-04-05T14:29:35Z</time>
      </trkpt>
      <trkpt lat="49.81934" lon="2.27629">
        <ele>107</ele>
        <time>2023-04-05T14:29:36Z</time>
      </trkpt>
      <trkpt lat="49.81933" lon="2.27631">
        <ele>107</ele>
        <time>2023-04-05T14:29:38Z</time>
      </trkpt>
      <trkpt lat="49.81933" lon="2.27632">
        <ele>107</ele>
        <time>2023-04-05T14:29:39Z</time>
      </trkpt>
      <trkpt lat="49.81933" lon="2.27633">
        <ele>106.9</ele>
        <time>2023-04-05T14:29:40Z</time>
      </trkpt>
      <trkpt lat="49.81933" lon="2.27635">
        <ele>106.9</ele>
        <time>2023-04-05T14:29:42Z</time>
      </trkpt>
      <trkpt lat="49.81932" lon="2.27636">
        <ele>106.9</ele>
        <time>2023-04-05T14:29:43Z</time>
      </trkpt>
      <trkpt lat="49.81932" lon="2.27637">
        <ele>106.9</ele>
        <time>2023-04-05T14:29:44Z</time>
      </trkpt>
      <trkpt lat="49.81931" lon="2.27637">
        <ele>106.9</ele>
        <time>2023-04-05T14:29:45Z</time>
      </trkpt>
      <trkpt lat="49.81929" lon="2.2764">
        <ele>106.9</ele>
        <time>2023-04-05T14:29:46Z</time>
      </trkpt>
      <trkpt lat="49.81928" lon="2.27641">
        <ele>106.9</ele>
        <time>2023-04-05T14:29:48Z</time>
      </trkpt>
      <trkpt lat="49.81927" lon="2.27641">
        <ele>106.9</ele>
        <time>2023-04-05T14:29:49Z</time>
      </trkpt>
      <trkpt lat="49.81926" lon="2.27642">
        <ele>106.9</ele>
        <time>2023-04-05T14:29:51Z</time>
      </trkpt>
      <trkpt lat="49.81925" lon="2.27643">
        <ele>106.8</ele>
        <time>2023-04-05T14:29:52Z</time>
      </trkpt>
      <trkpt lat="49.81924" lon="2.27644">
        <ele>106.8</ele>
        <time>2023-04-05T14:29:53Z</time>
      </trkpt>
      <trkpt lat="49.81923" lon="2.27645">
        <ele>106.8</ele>
        <time>2023-04-05T14:29:54Z</time>
      </trkpt>
      <trkpt lat="49.81922" lon="2.27646">
        <ele>106.8</ele>
        <time>2023-04-05T14:29:55Z</time>
      </trkpt>
      <trkpt lat="49.8192" lon="2.27647">
        <ele>106.8</ele>
        <time>2023-04-05T14:29:57Z</time>
      </trkpt>
      <trkpt lat="49.81919" lon="2.27648">
        <ele>106.8</ele>
        <time>2023-04-05T14:29:58Z</time>
      </trkpt>
      <trkpt lat="49.81918" lon="2.27649">
        <ele>106.8</ele>
        <time>2023-04-05T14:29:59Z</time>
      </trkpt>
      <trkpt lat="49.81917" lon="2.2765">
        <ele>106.8</ele>
        <time>2023-04-05T14:30:00Z</time>
      </trkpt>
      <trkpt lat="49.81915" lon="2.27652">
        <ele>106.7</ele>
        <time>2023-04-05T14:30:01Z</time>
      </trkpt>
      <trkpt lat="49.81915" lon="2.27653">
        <ele>106.7</ele>
        <time>2023-04-05T14:30:02Z</time>
      </trkpt>
      <trkpt lat="49.81914" lon="2.27653">
        <ele>106.7</ele>
        <time>2023-04-05T14:30:03Z</time>
      </trkpt>
      <trkpt lat="49.81913" lon="2.27654">
        <ele>106.7</ele>
        <time>2023-04-05T14:30:04Z</time>
      </trkpt>
      <trkpt lat="49.81912" lon="2.27655">
        <ele>106.7</ele>
        <time>2023-04-05T14:30:06Z</time>
      </trkpt>
      <trkpt lat="49.81911" lon="2.27656">
        <ele>106.7</ele>
        <time>2023-04-05T14:30:07Z</time>
      </trkpt>
      <trkpt lat="49.81911" lon="2.27658">
        <ele>106.7</ele>
        <time>2023-04-05T14:30:08Z</time>
      </trkpt>
      <trkpt lat="49.8191" lon="2.27659">
        <ele>106.6</ele>
        <time>2023-04-05T14:30:09Z</time>
      </trkpt>
      <trkpt lat="49.81909" lon="2.2766">
        <ele>106.6</ele>
        <time>2023-04-05T14:30:10Z</time>
      </trkpt>
      <trkpt lat="49.81908" lon="2.27662">
        <ele>106.6</ele>
        <time>2023-04-05T14:30:11Z</time>
      </trkpt>
      <trkpt lat="49.81907" lon="2.27663">
        <ele>106.6</ele>
        <time>2023-04-05T14:30:12Z</time>
      </trkpt>
      <trkpt lat="49.81907" lon="2.27665">
        <ele>106.6</ele>
        <time>2023-04-05T14:30:14Z</time>
      </trkpt>
      <trkpt lat="49.81906" lon="2.27668">
        <ele>106.6</ele>
        <time>2023-04-05T14:30:15Z</time>
      </trkpt>
      <trkpt lat="49.81906" lon="2.27669">
        <ele>106.5</ele>
        <time>2023-04-05T14:30:16Z</time>
      </trkpt>
      <trkpt lat="49.81905" lon="2.2767">
        <ele>106.5</ele>
        <time>2023-04-05T14:30:17Z</time>
      </trkpt>
      <trkpt lat="49.81905" lon="2.27672">
        <ele>106.5</ele>
        <time>2023-04-05T14:30:18Z</time>
      </trkpt>
      <trkpt lat="49.81904" lon="2.27673">
        <ele>106.5</ele>
        <time>2023-04-05T14:30:19Z</time>
      </trkpt>
      <trkpt lat="49.81904" lon="2.27675">
        <ele>106.5</ele>
        <time>2023-04-05T14:30:20Z</time>
      </trkpt>
      <trkpt lat="49.81903" lon="2.27676">
        <ele>106.5</ele>
        <time>2023-04-05T14:30:21Z</time>
      </trkpt>
      <trkpt lat="49.81902" lon="2.27677">
        <ele>106.5</ele>
        <time>2023-04-05T14:30:23Z</time>
      </trkpt>
      <trkpt lat="49.81901" lon="2.27678">
        <ele>106.4</ele>
        <time>2023-04-05T14:30:24Z</time>
      </trkpt>
      <trkpt lat="49.819" lon="2.27679">
        <ele>106.4</ele>
        <time>2023-04-05T14:30:25Z</time>
      </trkpt>
      <trkpt lat="49.819" lon="2.2768">
        <ele>106.4</ele>
        <time>2023-04-05T14:30:26Z</time>
      </trkpt>
      <trkpt lat="49.81899" lon="2.27682">
        <ele>106.4</ele>
        <time>2023-04-05T14:30:27Z</time>
      </trkpt>
      <trkpt lat="49.81898" lon="2.27683">
        <ele>106.4</ele>
        <time>2023-04-05T14:30:28Z</time>
      </trkpt>
      <trkpt lat="49.81897" lon="2.27684">
        <ele>106.4</ele>
        <time>2023-04-05T14:30:29Z</time>
      </trkpt>
      <trkpt lat="49.81896" lon="2.27685">
        <ele>106.3</ele>
        <time>2023-04-05T14:30:30Z</time>
      </trkpt>
      <trkpt lat="49.81895" lon="2.27687">
        <ele>106.3</ele>
        <time>2023-04-05T14:30:32Z</time>
      </trkpt>
      <trkpt lat="49.81894" lon="2.27688">
        <ele>106.3</ele>
        <time>2023-04-05T14:30:33Z</time>
      </trkpt>
      <trkpt lat="49.81893" lon="2.2769">
        <ele>106.3</ele>
        <time>2023-04-05T14:30:34Z</time>
      </trkpt>
      <trkpt lat="49.81892" lon="2.27691">
        <ele>106.3</ele>
        <time>2023-04-05T14:30:35Z</time>
      </trkpt>
      <trkpt lat="49.81891" lon="2.27694">
        <ele>106.2</ele>
        <time>2023-04-05T14:30:36Z</time>
      </trkpt>
      <trkpt lat="49.81891" lon="2.27695">
        <ele>106.2</ele>
        <time>2023-04-05T14:30:37Z</time>
      </trkpt>
      <trkpt lat="49.8189" lon="2.27696">
        <ele>106.2</ele>
        <time>2023-04-05T14:30:38Z</time>
      </trkpt>
      <trkpt lat="49.81889" lon="2.27697">
        <ele>106.2</ele>
        <time>2023-04-05T14:30:39Z</time>
      </trkpt>
      <trkpt lat="49.81888" lon="2.27699">
        <ele>106.2</ele>
        <time>2023-04-05T14:30:40Z</time>
      </trkpt>
      <trkpt lat="49.81886" lon="2.27702">
        <ele>106.1</ele>
        <time>2023-04-05T14:30:41Z</time>
      </trkpt>
      <trkpt lat="49.81886" lon="2.27704">
        <ele>106.1</ele>
        <time>2023-04-05T14:30:43Z</time>
      </trkpt>
      <trkpt lat="49.81885" lon="2.27705">
        <ele>106.1</ele>
        <time>2023-04-05T14:30:44Z</time>
      </trkpt>
      <trkpt lat="49.81885" lon="2.27706">
        <ele>106.1</ele>
        <time>2023-04-05T14:30:45Z</time>
      </trkpt>
      <trkpt lat="49.81884" lon="2.27707">
        <ele>106.1</ele>
        <time>2023-04-05T14:30:46Z</time>
      </trkpt>
      <trkpt lat="49.81883" lon="2.27709">
        <ele>106.1</ele>
        <time>2023-04-05T14:30:47Z</time>
      </trkpt>
      <trkpt lat="49.81883" lon="2.2771">
        <ele>106</ele>
        <time>2023-04-05T14:30:48Z</time>
      </trkpt>
      <trkpt lat="49.81882" lon="2.27711">
        <ele>106</ele>
        <time>2023-04-05T14:30:49Z</time>
      </trkpt>
      <trkpt lat="49.81882" lon="2.27713">
        <ele>106</ele>
        <time>2023-04-05T14:30:51Z</time>
      </trkpt>
      <trkpt lat="49.81881" lon="2.27714">
        <ele>106</ele>
        <time>2023-04-05T14:30:52Z</time>
      </trkpt>
      <trkpt lat="49.8188" lon="2.27715">
        <ele>106</ele>
        <time>2023-04-05T14:30:53Z</time>
      </trkpt>
      <trkpt lat="49.81879" lon="2.27716">
        <ele>106</ele>
        <time>2023-04-05T14:30:54Z</time>
      </trkpt>
      <trkpt lat="49.81879" lon="2.27718">
        <ele>106</ele>
        <time>2023-04-05T14:30:55Z</time>
      </trkpt>
      <trkpt lat="49.81878" lon="2.27719">
        <ele>106</ele>
        <time>2023-04-05T14:30:56Z</time>
      </trkpt>
      <trkpt lat="49.81876" lon="2.27721">
        <ele>106</ele>
        <time>2023-04-05T14:30:57Z</time>
      </trkpt>
      <trkpt lat="49.81876" lon="2.27722">
        <ele>106</ele>
        <time>2023-04-05T14:30:58Z</time>
      </trkpt>
      <trkpt lat="49.81875" lon="2.27723">
        <ele>106</ele>
        <time>2023-04-05T14:30:59Z</time>
      </trkpt>
      <trkpt lat="49.81874" lon="2.27725">
        <ele>105.9</ele>
        <time>2023-04-05T14:31:01Z</time>
      </trkpt>
      <trkpt lat="49.81873" lon="2.27726">
        <ele>105.9</ele>
        <time>2023-04-05T14:31:02Z</time>
      </trkpt>
      <trkpt lat="49.81872" lon="2.27727">
        <ele>105.9</ele>
        <time>2023-04-05T14:31:03Z</time>
      </trkpt>
      <trkpt lat="49.8187" lon="2.27729">
        <ele>105.9</ele>
        <time>2023-04-05T14:31:04Z</time>
      </trkpt>
      <trkpt lat="49.8187" lon="2.27729">
        <ele>105.9</ele>
        <time>2023-04-05T14:31:05Z</time>
      </trkpt>
      <trkpt lat="49.81869" lon="2.2773">
        <ele>105.9</ele>
        <time>2023-04-05T14:31:06Z</time>
      </trkpt>
      <trkpt lat="49.81867" lon="2.27729">
        <ele>105.9</ele>
        <time>2023-04-05T14:31:08Z</time>
      </trkpt>
      <trkpt lat="49.81866" lon="2.27729">
        <ele>105.9</ele>
        <time>2023-04-05T14:31:09Z</time>
      </trkpt>
      <trkpt lat="49.81865" lon="2.27728">
        <ele>105.9</ele>
        <time>2023-04-05T14:31:10Z</time>
      </trkpt>
      <trkpt lat="49.81863" lon="2.27728">
        <ele>105.9</ele>
        <time>2023-04-05T14:31:11Z</time>
      </trkpt>
      <trkpt lat="49.81862" lon="2.27728">
        <ele>106</ele>
        <time>2023-04-05T14:31:12Z</time>
      </trkpt>
      <trkpt lat="49.8186" lon="2.27727">
        <ele>106</ele>
        <time>2023-04-05T14:31:13Z</time>
      </trkpt>
      <trkpt lat="49.81859" lon="2.27727">
        <ele>106</ele>
        <time>2023-04-05T14:31:15Z</time>
      </trkpt>
      <trkpt lat="49.81858" lon="2.27726">
        <ele>106</ele>
        <time>2023-04-05T14:31:16Z</time>
      </trkpt>
      <trkpt lat="49.81857" lon="2.27725">
        <ele>106</ele>
        <time>2023-04-05T14:31:17Z</time>
      </trkpt>
      <trkpt lat="49.81855" lon="2.27725">
        <ele>106</ele>
        <time>2023-04-05T14:31:18Z</time>
      </trkpt>
      <trkpt lat="49.81854" lon="2.27725">
        <ele>106</ele>
        <time>2023-04-05T14:31:19Z</time>
      </trkpt>
      <trkpt lat="49.81853" lon="2.27725">
        <ele>106</ele>
        <time>2023-04-05T14:31:20Z</time>
      </trkpt>
      <trkpt lat="49.81851" lon="2.27724">
        <ele>106</ele>
        <time>2023-04-05T14:31:21Z</time>
      </trkpt>
      <trkpt lat="49.8185" lon="2.27724">
        <ele>106</ele>
        <time>2023-04-05T14:31:22Z</time>
      </trkpt>
      <trkpt lat="49.81848" lon="2.27724">
        <ele>106.1</ele>
        <time>2023-04-05T14:31:23Z</time>
      </trkpt>
      <trkpt lat="49.81847" lon="2.27723">
        <ele>106.1</ele>
        <time>2023-04-05T14:31:25Z</time>
      </trkpt>
      <trkpt lat="49.81846" lon="2.27723">
        <ele>106.1</ele>
        <time>2023-04-05T14:31:26Z</time>
      </trkpt>
      <trkpt lat="49.81844" lon="2.27723">
        <ele>106.1</ele>
        <time>2023-04-05T14:31:27Z</time>
      </trkpt>
      <trkpt lat="49.81843" lon="2.27723">
        <ele>106.1</ele>
        <time>2023-04-05T14:31:28Z</time>
      </trkpt>
      <trkpt lat="49.81842" lon="2.27723">
        <ele>106.1</ele>
        <time>2023-04-05T14:31:29Z</time>
      </trkpt>
      <trkpt lat="49.81841" lon="2.27723">
        <ele>106.1</ele>
        <time>2023-04-05T14:31:30Z</time>
      </trkpt>
      <trkpt lat="49.8184" lon="2.27722">
        <ele>106.1</ele>
        <time>2023-04-05T14:31:31Z</time>
      </trkpt>
      <trkpt lat="49.81838" lon="2.27722">
        <ele>106.2</ele>
        <time>2023-04-05T14:31:32Z</time>
      </trkpt>
      <trkpt lat="49.81837" lon="2.27722">
        <ele>106.2</ele>
        <time>2023-04-05T14:31:33Z</time>
      </trkpt>
      <trkpt lat="49.81836" lon="2.27722">
        <ele>106.2</ele>
        <time>2023-04-05T14:31:35Z</time>
      </trkpt>
      <trkpt lat="49.81835" lon="2.27722">
        <ele>106.2</ele>
        <time>2023-04-05T14:31:36Z</time>
      </trkpt>
      <trkpt lat="49.81834" lon="2.27723">
        <ele>106.2</ele>
        <time>2023-04-05T14:31:37Z</time>
      </trkpt>
      <trkpt lat="49.81832" lon="2.27725">
        <ele>106.2</ele>
        <time>2023-04-05T14:31:38Z</time>
      </trkpt>
      <trkpt lat="49.81831" lon="2.27726">
        <ele>106.3</ele>
        <time>2023-04-05T14:31:39Z</time>
      </trkpt>
      <trkpt lat="49.8183" lon="2.27726">
        <ele>106.3</ele>
        <time>2023-04-05T14:31:40Z</time>
      </trkpt>
      <trkpt lat="49.81828" lon="2.27727">
        <ele>106.3</ele>
        <time>2023-04-05T14:31:41Z</time>
      </trkpt>
      <trkpt lat="49.81827" lon="2.27727">
        <ele>106.3</ele>
        <time>2023-04-05T14:31:42Z</time>
      </trkpt>
      <trkpt lat="49.81827" lon="2.27727">
        <ele>106.3</ele>
        <time>2023-04-05T14:31:43Z</time>
      </trkpt>
      <trkpt lat="49.81824" lon="2.27727">
        <ele>106.3</ele>
        <time>2023-04-05T14:31:45Z</time>
      </trkpt>
      <trkpt lat="49.81824" lon="2.27727">
        <ele>106.4</ele>
        <time>2023-04-05T14:31:46Z</time>
      </trkpt>
      <trkpt lat="49.81823" lon="2.27727">
        <ele>106.4</ele>
        <time>2023-04-05T14:31:47Z</time>
      </trkpt>
      <trkpt lat="49.81822" lon="2.27726">
        <ele>106.4</ele>
        <time>2023-04-05T14:31:48Z</time>
      </trkpt>
      <trkpt lat="49.8182" lon="2.27726">
        <ele>106.4</ele>
        <time>2023-04-05T14:31:49Z</time>
      </trkpt>
      <trkpt lat="49.81819" lon="2.27725">
        <ele>106.4</ele>
        <time>2023-04-05T14:31:51Z</time>
      </trkpt>
      <trkpt lat="49.81818" lon="2.27724">
        <ele>106.4</ele>
        <time>2023-04-05T14:31:52Z</time>
      </trkpt>
      <trkpt lat="49.81816" lon="2.27723">
        <ele>106.5</ele>
        <time>2023-04-05T14:31:53Z</time>
      </trkpt>
      <trkpt lat="49.81815" lon="2.27723">
        <ele>106.5</ele>
        <time>2023-04-05T14:31:54Z</time>
      </trkpt>
      <trkpt lat="49.81814" lon="2.27722">
        <ele>106.5</ele>
        <time>2023-04-05T14:31:55Z</time>
      </trkpt>
      <trkpt lat="49.81813" lon="2.27722">
        <ele>106.5</ele>
        <time>2023-04-05T14:31:56Z</time>
      </trkpt>
      <trkpt lat="49.81811" lon="2.27721">
        <ele>106.5</ele>
        <time>2023-04-05T14:31:57Z</time>
      </trkpt>
      <trkpt lat="49.81811" lon="2.2772">
        <ele>106.6</ele>
        <time>2023-04-05T14:31:58Z</time>
      </trkpt>
      <trkpt lat="49.81809" lon="2.2772">
        <ele>106.6</ele>
        <time>2023-04-05T14:31:59Z</time>
      </trkpt>
      <trkpt lat="49.81808" lon="2.27719">
        <ele>106.6</ele>
        <time>2023-04-05T14:32:00Z</time>
      </trkpt>
      <trkpt lat="49.81807" lon="2.27719">
        <ele>106.6</ele>
        <time>2023-04-05T14:32:02Z</time>
      </trkpt>
      <trkpt lat="49.81805" lon="2.27719">
        <ele>106.7</ele>
        <time>2023-04-05T14:32:03Z</time>
      </trkpt>
      <trkpt lat="49.81803" lon="2.27719">
        <ele>106.7</ele>
        <time>2023-04-05T14:32:04Z</time>
      </trkpt>
      <trkpt lat="49.81801" lon="2.27718">
        <ele>106.7</ele>
        <time>2023-04-05T14:32:05Z</time>
      </trkpt>
      <trkpt lat="49.818" lon="2.27718">
        <ele>106.7</ele>
        <time>2023-04-05T14:32:07Z</time>
      </trkpt>
      <trkpt lat="49.81799" lon="2.27718">
        <ele>106.8</ele>
        <time>2023-04-05T14:32:08Z</time>
      </trkpt>
      <trkpt lat="49.81799" lon="2.27718">
        <ele>106.8</ele>
        <time>2023-04-05T14:32:09Z</time>
      </trkpt>
      <trkpt lat="49.81797" lon="2.27717">
        <ele>106.8</ele>
        <time>2023-04-05T14:32:10Z</time>
      </trkpt>
      <trkpt lat="49.81796" lon="2.27717">
        <ele>106.8</ele>
        <time>2023-04-05T14:32:11Z</time>
      </trkpt>
      <trkpt lat="49.81794" lon="2.27716">
        <ele>106.8</ele>
        <time>2023-04-05T14:32:12Z</time>
      </trkpt>
      <trkpt lat="49.81793" lon="2.27716">
        <ele>106.9</ele>
        <time>2023-04-05T14:32:13Z</time>
      </trkpt>
      <trkpt lat="49.81793" lon="2.27716">
        <ele>106.9</ele>
        <time>2023-04-05T14:32:14Z</time>
      </trkpt>
      <trkpt lat="49.81792" lon="2.27715">
        <ele>106.9</ele>
        <time>2023-04-05T14:32:15Z</time>
      </trkpt>
      <trkpt lat="49.8179" lon="2.27715">
        <ele>106.9</ele>
        <time>2023-04-05T14:32:17Z</time>
      </trkpt>
      <trkpt lat="49.81789" lon="2.27715">
        <ele>106.9</ele>
        <time>2023-04-05T14:32:18Z</time>
      </trkpt>
      <trkpt lat="49.81788" lon="2.27715">
        <ele>106.9</ele>
        <time>2023-04-05T14:32:19Z</time>
      </trkpt>
      <trkpt lat="49.81787" lon="2.27715">
        <ele>107</ele>
        <time>2023-04-05T14:32:20Z</time>
      </trkpt>
      <trkpt lat="49.81786" lon="2.27715">
        <ele>107</ele>
        <time>2023-04-05T14:32:21Z</time>
      </trkpt>
      <trkpt lat="49.81785" lon="2.27714">
        <ele>107</ele>
        <time>2023-04-05T14:32:23Z</time>
      </trkpt>
      <trkpt lat="49.81784" lon="2.27714">
        <ele>107</ele>
        <time>2023-04-05T14:32:24Z</time>
      </trkpt>
      <trkpt lat="49.81782" lon="2.27714">
        <ele>107</ele>
        <time>2023-04-05T14:32:25Z</time>
      </trkpt>
      <trkpt lat="49.81781" lon="2.27713">
        <ele>107</ele>
        <time>2023-04-05T14:32:26Z</time>
      </trkpt>
      <trkpt lat="49.8178" lon="2.27713">
        <ele>107.1</ele>
        <time>2023-04-05T14:32:27Z</time>
      </trkpt>
      <trkpt lat="49.81779" lon="2.27713">
        <ele>107.1</ele>
        <time>2023-04-05T14:32:28Z</time>
      </trkpt>
      <trkpt lat="49.81778" lon="2.27712">
        <ele>107.1</ele>
        <time>2023-04-05T14:32:29Z</time>
      </trkpt>
      <trkpt lat="49.81777" lon="2.27712">
        <ele>107.1</ele>
        <time>2023-04-05T14:32:30Z</time>
      </trkpt>
      <trkpt lat="49.81776" lon="2.27711">
        <ele>107.1</ele>
        <time>2023-04-05T14:32:31Z</time>
      </trkpt>
      <trkpt lat="49.81775" lon="2.2771">
        <ele>107.1</ele>
        <time>2023-04-05T14:32:33Z</time>
      </trkpt>
      <trkpt lat="49.81774" lon="2.27709">
        <ele>107.1</ele>
        <time>2023-04-05T14:32:34Z</time>
      </trkpt>
      <trkpt lat="49.81772" lon="2.27709">
        <ele>107.2</ele>
        <time>2023-04-05T14:32:35Z</time>
      </trkpt>
      <trkpt lat="49.8177" lon="2.27708">
        <ele>107.2</ele>
        <time>2023-04-05T14:32:36Z</time>
      </trkpt>
      <trkpt lat="49.81769" lon="2.27707">
        <ele>107.2</ele>
        <time>2023-04-05T14:32:38Z</time>
      </trkpt>
      <trkpt lat="49.81768" lon="2.27707">
        <ele>107.2</ele>
        <time>2023-04-05T14:32:39Z</time>
      </trkpt>
      <trkpt lat="49.81767" lon="2.27706">
        <ele>107.2</ele>
        <time>2023-04-05T14:32:40Z</time>
      </trkpt>
      <trkpt lat="49.81766" lon="2.27706">
        <ele>107.3</ele>
        <time>2023-04-05T14:32:41Z</time>
      </trkpt>
      <trkpt lat="49.81765" lon="2.27705">
        <ele>107.3</ele>
        <time>2023-04-05T14:32:42Z</time>
      </trkpt>
      <trkpt lat="49.81763" lon="2.27704">
        <ele>107.3</ele>
        <time>2023-04-05T14:32:43Z</time>
      </trkpt>
      <trkpt lat="49.81763" lon="2.27703">
        <ele>107.3</ele>
        <time>2023-04-05T14:32:44Z</time>
      </trkpt>
      <trkpt lat="49.81762" lon="2.27703">
        <ele>107.3</ele>
        <time>2023-04-05T14:32:45Z</time>
      </trkpt>
      <trkpt lat="49.81761" lon="2.27702">
        <ele>107.4</ele>
        <time>2023-04-05T14:32:46Z</time>
      </trkpt>
      <trkpt lat="49.81759" lon="2.27701">
        <ele>107.4</ele>
        <time>2023-04-05T14:32:47Z</time>
      </trkpt>
      <trkpt lat="49.81758" lon="2.277">
        <ele>107.4</ele>
        <time>2023-04-05T14:32:49Z</time>
      </trkpt>
      <trkpt lat="49.81757" lon="2.277">
        <ele>107.4</ele>
        <time>2023-04-05T14:32:50Z</time>
      </trkpt>
      <trkpt lat="49.81756" lon="2.27699">
        <ele>107.4</ele>
        <time>2023-04-05T14:32:51Z</time>
      </trkpt>
      <trkpt lat="49.81754" lon="2.27699">
        <ele>107.5</ele>
        <time>2023-04-05T14:32:52Z</time>
      </trkpt>
      <trkpt lat="49.81754" lon="2.27699">
        <ele>107.5</ele>
        <time>2023-04-05T14:32:53Z</time>
      </trkpt>
      <trkpt lat="49.81753" lon="2.27698">
        <ele>107.5</ele>
        <time>2023-04-05T14:32:54Z</time>
      </trkpt>
      <trkpt lat="49.81752" lon="2.27697">
        <ele>107.5</ele>
        <time>2023-04-05T14:32:56Z</time>
      </trkpt>
      <trkpt lat="49.81751" lon="2.27697">
        <ele>107.5</ele>
        <time>2023-04-05T14:32:57Z</time>
      </trkpt>
      <trkpt lat="49.8175" lon="2.27696">
        <ele>107.5</ele>
        <time>2023-04-05T14:32:58Z</time>
      </trkpt>
      <trkpt lat="49.81749" lon="2.27695">
        <ele>107.5</ele>
        <time>2023-04-05T14:32:59Z</time>
      </trkpt>
      <trkpt lat="49.81748" lon="2.27695">
        <ele>107.6</ele>
        <time>2023-04-05T14:33:00Z</time>
      </trkpt>
      <trkpt lat="49.81747" lon="2.27694">
        <ele>107.6</ele>
        <time>2023-04-05T14:33:01Z</time>
      </trkpt>
      <trkpt lat="49.81746" lon="2.27694">
        <ele>107.6</ele>
        <time>2023-04-05T14:33:02Z</time>
      </trkpt>
      <trkpt lat="49.81745" lon="2.27693">
        <ele>107.6</ele>
        <time>2023-04-05T14:33:03Z</time>
      </trkpt>
      <trkpt lat="49.81744" lon="2.27692">
        <ele>107.6</ele>
        <time>2023-04-05T14:33:04Z</time>
      </trkpt>
      <trkpt lat="49.81743" lon="2.27692">
        <ele>107.6</ele>
        <time>2023-04-05T14:33:05Z</time>
      </trkpt>
      <trkpt lat="49.81742" lon="2.27691">
        <ele>107.7</ele>
        <time>2023-04-05T14:33:06Z</time>
      </trkpt>
      <trkpt lat="49.8174" lon="2.2769">
        <ele>107.7</ele>
        <time>2023-04-05T14:33:08Z</time>
      </trkpt>
      <trkpt lat="49.8174" lon="2.2769">
        <ele>107.7</ele>
        <time>2023-04-05T14:33:09Z</time>
      </trkpt>
      <trkpt lat="49.81739" lon="2.2769">
        <ele>107.7</ele>
        <time>2023-04-05T14:33:10Z</time>
      </trkpt>
      <trkpt lat="49.81737" lon="2.27689">
        <ele>107.7</ele>
        <time>2023-04-05T14:33:11Z</time>
      </trkpt>
      <trkpt lat="49.81736" lon="2.27689">
        <ele>107.7</ele>
        <time>2023-04-05T14:33:12Z</time>
      </trkpt>
      <trkpt lat="49.81735" lon="2.27689">
        <ele>107.8</ele>
        <time>2023-04-05T14:33:13Z</time>
      </trkpt>
      <trkpt lat="49.81735" lon="2.27689">
        <ele>107.8</ele>
        <time>2023-04-05T14:33:14Z</time>
      </trkpt>
      <trkpt lat="49.81733" lon="2.27688">
        <ele>107.8</ele>
        <time>2023-04-05T14:33:15Z</time>
      </trkpt>
      <trkpt lat="49.81732" lon="2.27688">
        <ele>107.8</ele>
        <time>2023-04-05T14:33:16Z</time>
      </trkpt>
      <trkpt lat="49.81731" lon="2.27688">
        <ele>107.8</ele>
        <time>2023-04-05T14:33:17Z</time>
      </trkpt>
      <trkpt lat="49.8173" lon="2.27687">
        <ele>107.8</ele>
        <time>2023-04-05T14:33:19Z</time>
      </trkpt>
      <trkpt lat="49.81729" lon="2.27686">
        <ele>107.9</ele>
        <time>2023-04-05T14:33:20Z</time>
      </trkpt>
      <trkpt lat="49.81728" lon="2.27686">
        <ele>107.9</ele>
        <time>2023-04-05T14:33:21Z</time>
      </trkpt>
      <trkpt lat="49.81727" lon="2.27685">
        <ele>107.9</ele>
        <time>2023-04-05T14:33:22Z</time>
      </trkpt>
      <trkpt lat="49.81725" lon="2.27684">
        <ele>107.9</ele>
        <time>2023-04-05T14:33:23Z</time>
      </trkpt>
      <trkpt lat="49.81724" lon="2.27684">
        <ele>107.9</ele>
        <time>2023-04-05T14:33:24Z</time>
      </trkpt>
      <trkpt lat="49.81723" lon="2.27683">
        <ele>107.9</ele>
        <time>2023-04-05T14:33:25Z</time>
      </trkpt>
      <trkpt lat="49.81722" lon="2.27683">
        <ele>108</ele>
        <time>2023-04-05T14:33:26Z</time>
      </trkpt>
      <trkpt lat="49.8172" lon="2.27681">
        <ele>108</ele>
        <time>2023-04-05T14:33:27Z</time>
      </trkpt>
      <trkpt lat="49.81719" lon="2.2768">
        <ele>108</ele>
        <time>2023-04-05T14:33:29Z</time>
      </trkpt>
      <trkpt lat="49.81719" lon="2.2768">
        <ele>108</ele>
        <time>2023-04-05T14:33:30Z</time>
      </trkpt>
      <trkpt lat="49.81716" lon="2.27679">
        <ele>108.1</ele>
        <time>2023-04-05T14:33:31Z</time>
      </trkpt>
      <trkpt lat="49.81715" lon="2.27678">
        <ele>108.1</ele>
        <time>2023-04-05T14:33:32Z</time>
      </trkpt>
      <trkpt lat="49.81714" lon="2.27677">
        <ele>108.1</ele>
        <time>2023-04-05T14:33:33Z</time>
      </trkpt>
      <trkpt lat="49.81713" lon="2.27677">
        <ele>108.1</ele>
        <time>2023-04-05T14:33:35Z</time>
      </trkpt>
      <trkpt lat="49.81712" lon="2.27676">
        <ele>108.1</ele>
        <time>2023-04-05T14:33:36Z</time>
      </trkpt>
      <trkpt lat="49.81711" lon="2.27676">
        <ele>108.1</ele>
        <time>2023-04-05T14:33:37Z</time>
      </trkpt>
      <trkpt lat="49.81709" lon="2.27675">
        <ele>108.2</ele>
        <time>2023-04-05T14:33:38Z</time>
      </trkpt>
      <trkpt lat="49.81708" lon="2.27675">
        <ele>108.2</ele>
        <time>2023-04-05T14:33:39Z</time>
      </trkpt>
      <trkpt lat="49.81707" lon="2.27675">
        <ele>108.2</ele>
        <time>2023-04-05T14:33:40Z</time>
      </trkpt>
      <trkpt lat="49.81705" lon="2.27674">
        <ele>108.3</ele>
        <time>2023-04-05T14:33:41Z</time>
      </trkpt>
      <trkpt lat="49.81704" lon="2.27674">
        <ele>108.3</ele>
        <time>2023-04-05T14:33:42Z</time>
      </trkpt>
      <trkpt lat="49.81704" lon="2.27673">
        <ele>108.3</ele>
        <time>2023-04-05T14:33:43Z</time>
      </trkpt>
      <trkpt lat="49.81702" lon="2.27673">
        <ele>108.3</ele>
        <time>2023-04-05T14:33:45Z</time>
      </trkpt>
      <trkpt lat="49.81701" lon="2.27672">
        <ele>108.3</ele>
        <time>2023-04-05T14:33:46Z</time>
      </trkpt>
      <trkpt lat="49.817" lon="2.27672">
        <ele>108.4</ele>
        <time>2023-04-05T14:33:47Z</time>
      </trkpt>
      <trkpt lat="49.81699" lon="2.27671">
        <ele>108.4</ele>
        <time>2023-04-05T14:33:48Z</time>
      </trkpt>
      <trkpt lat="49.81698" lon="2.27671">
        <ele>108.4</ele>
        <time>2023-04-05T14:33:49Z</time>
      </trkpt>
      <trkpt lat="49.81696" lon="2.27671">
        <ele>108.5</ele>
        <time>2023-04-05T14:33:50Z</time>
      </trkpt>
      <trkpt lat="49.81695" lon="2.2767">
        <ele>108.5</ele>
        <time>2023-04-05T14:33:51Z</time>
      </trkpt>
      <trkpt lat="49.81694" lon="2.2767">
        <ele>108.5</ele>
        <time>2023-04-05T14:33:52Z</time>
      </trkpt>
      <trkpt lat="49.81693" lon="2.2767">
        <ele>108.5</ele>
        <time>2023-04-05T14:33:53Z</time>
      </trkpt>
      <trkpt lat="49.81692" lon="2.2767">
        <ele>108.5</ele>
        <time>2023-04-05T14:33:55Z</time>
      </trkpt>
      <trkpt lat="49.81691" lon="2.2767">
        <ele>108.6</ele>
        <time>2023-04-05T14:33:56Z</time>
      </trkpt>
      <trkpt lat="49.81689" lon="2.27669">
        <ele>108.6</ele>
        <time>2023-04-05T14:33:57Z</time>
      </trkpt>
      <trkpt lat="49.81688" lon="2.27669">
        <ele>108.6</ele>
        <time>2023-04-05T14:33:58Z</time>
      </trkpt>
      <trkpt lat="49.81687" lon="2.27669">
        <ele>108.6</ele>
        <time>2023-04-05T14:33:59Z</time>
      </trkpt>
      <trkpt lat="49.81685" lon="2.27669">
        <ele>108.7</ele>
        <time>2023-04-05T14:34:00Z</time>
      </trkpt>
      <trkpt lat="49.81684" lon="2.27668">
        <ele>108.7</ele>
        <time>2023-04-05T14:34:01Z</time>
      </trkpt>
      <trkpt lat="49.81683" lon="2.27668">
        <ele>108.7</ele>
        <time>2023-04-05T14:34:02Z</time>
      </trkpt>
      <trkpt lat="49.81681" lon="2.27668">
        <ele>108.8</ele>
        <time>2023-04-05T14:34:03Z</time>
      </trkpt>
      <trkpt lat="49.8168" lon="2.27668">
        <ele>108.8</ele>
        <time>2023-04-05T14:34:05Z</time>
      </trkpt>
      <trkpt lat="49.8168" lon="2.27667">
        <ele>108.8</ele>
        <time>2023-04-05T14:34:06Z</time>
      </trkpt>
      <trkpt lat="49.81679" lon="2.27667">
        <ele>108.8</ele>
        <time>2023-04-05T14:34:07Z</time>
      </trkpt>
      <trkpt lat="49.81677" lon="2.27667">
        <ele>108.9</ele>
        <time>2023-04-05T14:34:08Z</time>
      </trkpt>
      <trkpt lat="49.81676" lon="2.27667">
        <ele>108.9</ele>
        <time>2023-04-05T14:34:09Z</time>
      </trkpt>
      <trkpt lat="49.81675" lon="2.27667">
        <ele>108.9</ele>
        <time>2023-04-05T14:34:10Z</time>
      </trkpt>
      <trkpt lat="49.81673" lon="2.27667">
        <ele>108.9</ele>
        <time>2023-04-05T14:34:11Z</time>
      </trkpt>
      <trkpt lat="49.81673" lon="2.27666">
        <ele>108.9</ele>
        <time>2023-04-05T14:34:13Z</time>
      </trkpt>
      <trkpt lat="49.81671" lon="2.27666">
        <ele>109</ele>
        <time>2023-04-05T14:34:14Z</time>
      </trkpt>
      <trkpt lat="49.8167" lon="2.27665">
        <ele>109</ele>
        <time>2023-04-05T14:34:15Z</time>
      </trkpt>
      <trkpt lat="49.81668" lon="2.27664">
        <ele>109.1</ele>
        <time>2023-04-05T14:34:16Z</time>
      </trkpt>
      <trkpt lat="49.81667" lon="2.27664">
        <ele>109.1</ele>
        <time>2023-04-05T14:34:17Z</time>
      </trkpt>
      <trkpt lat="49.81666" lon="2.27663">
        <ele>109.1</ele>
        <time>2023-04-05T14:34:18Z</time>
      </trkpt>
      <trkpt lat="49.81665" lon="2.27662">
        <ele>109.1</ele>
        <time>2023-04-05T14:34:20Z</time>
      </trkpt>
      <trkpt lat="49.81664" lon="2.27661">
        <ele>109.1</ele>
        <time>2023-04-05T14:34:21Z</time>
      </trkpt>
      <trkpt lat="49.81663" lon="2.2766">
        <ele>109.2</ele>
        <time>2023-04-05T14:34:22Z</time>
      </trkpt>
      <trkpt lat="49.81662" lon="2.27659">
        <ele>109.2</ele>
        <time>2023-04-05T14:34:23Z</time>
      </trkpt>
      <trkpt lat="49.81661" lon="2.27658">
        <ele>109.2</ele>
        <time>2023-04-05T14:34:24Z</time>
      </trkpt>
      <trkpt lat="49.8166" lon="2.27658">
        <ele>109.2</ele>
        <time>2023-04-05T14:34:25Z</time>
      </trkpt>
      <trkpt lat="49.81659" lon="2.27658">
        <ele>109.3</ele>
        <time>2023-04-05T14:34:27Z</time>
      </trkpt>
      <trkpt lat="49.81659" lon="2.27658">
        <ele>109.3</ele>
        <time>2023-04-05T14:34:28Z</time>
      </trkpt>
      <trkpt lat="49.81657" lon="2.27658">
        <ele>109.3</ele>
        <time>2023-04-05T14:34:29Z</time>
      </trkpt>
      <trkpt lat="49.81656" lon="2.27658">
        <ele>109.3</ele>
        <time>2023-04-05T14:34:30Z</time>
      </trkpt>
      <trkpt lat="49.81655" lon="2.27658">
        <ele>109.3</ele>
        <time>2023-04-05T14:34:31Z</time>
      </trkpt>
      <trkpt lat="49.81654" lon="2.27657">
        <ele>109.4</ele>
        <time>2023-04-05T14:34:32Z</time>
      </trkpt>
      <trkpt lat="49.81653" lon="2.27657">
        <ele>109.4</ele>
        <time>2023-04-05T14:34:33Z</time>
      </trkpt>
      <trkpt lat="49.81652" lon="2.27656">
        <ele>109.4</ele>
        <time>2023-04-05T14:34:34Z</time>
      </trkpt>
      <trkpt lat="49.81651" lon="2.27656">
        <ele>109.4</ele>
        <time>2023-04-05T14:34:36Z</time>
      </trkpt>
      <trkpt lat="49.8165" lon="2.27656">
        <ele>109.5</ele>
        <time>2023-04-05T14:34:37Z</time>
      </trkpt>
      <trkpt lat="49.81649" lon="2.27655">
        <ele>109.5</ele>
        <time>2023-04-05T14:34:38Z</time>
      </trkpt>
      <trkpt lat="49.81648" lon="2.27655">
        <ele>109.5</ele>
        <time>2023-04-05T14:34:39Z</time>
      </trkpt>
      <trkpt lat="49.81647" lon="2.27654">
        <ele>109.5</ele>
        <time>2023-04-05T14:34:40Z</time>
      </trkpt>
      <trkpt lat="49.81646" lon="2.27653">
        <ele>109.6</ele>
        <time>2023-04-05T14:34:41Z</time>
      </trkpt>
      <trkpt lat="49.81645" lon="2.27653">
        <ele>109.6</ele>
        <time>2023-04-05T14:34:42Z</time>
      </trkpt>
      <trkpt lat="49.81644" lon="2.27653">
        <ele>109.6</ele>
        <time>2023-04-05T14:34:44Z</time>
      </trkpt>
      <trkpt lat="49.81643" lon="2.27653">
        <ele>109.6</ele>
        <time>2023-04-05T14:34:45Z</time>
      </trkpt>
      <trkpt lat="49.81642" lon="2.27653">
        <ele>109.7</ele>
        <time>2023-04-05T14:34:46Z</time>
      </trkpt>
      <trkpt lat="49.81641" lon="2.27653">
        <ele>109.7</ele>
        <time>2023-04-05T14:34:47Z</time>
      </trkpt>
      <trkpt lat="49.81639" lon="2.27653">
        <ele>109.7</ele>
        <time>2023-04-05T14:34:48Z</time>
      </trkpt>
      <trkpt lat="49.81638" lon="2.27653">
        <ele>109.8</ele>
        <time>2023-04-05T14:34:49Z</time>
      </trkpt>
      <trkpt lat="49.81637" lon="2.27653">
        <ele>109.8</ele>
        <time>2023-04-05T14:34:50Z</time>
      </trkpt>
      <trkpt lat="49.81636" lon="2.27653">
        <ele>109.8</ele>
        <time>2023-04-05T14:34:51Z</time>
      </trkpt>
      <trkpt lat="49.81635" lon="2.27653">
        <ele>109.9</ele>
        <time>2023-04-05T14:34:53Z</time>
      </trkpt>
      <trkpt lat="49.81634" lon="2.27653">
        <ele>109.9</ele>
        <time>2023-04-05T14:34:54Z</time>
      </trkpt>
      <trkpt lat="49.81632" lon="2.27653">
        <ele>109.9</ele>
        <time>2023-04-05T14:34:55Z</time>
      </trkpt>
      <trkpt lat="49.81631" lon="2.27652">
        <ele>110</ele>
        <time>2023-04-05T14:34:56Z</time>
      </trkpt>
      <trkpt lat="49.8163" lon="2.27652">
        <ele>110</ele>
        <time>2023-04-05T14:34:57Z</time>
      </trkpt>
      <trkpt lat="49.81628" lon="2.27652">
        <ele>110</ele>
        <time>2023-04-05T14:34:58Z</time>
      </trkpt>
      <trkpt lat="49.81627" lon="2.27652">
        <ele>110.1</ele>
        <time>2023-04-05T14:34:59Z</time>
      </trkpt>
      <trkpt lat="49.81626" lon="2.27652">
        <ele>110.1</ele>
        <time>2023-04-05T14:35:00Z</time>
      </trkpt>
      <trkpt lat="49.81625" lon="2.27652">
        <ele>110.1</ele>
        <time>2023-04-05T14:35:02Z</time>
      </trkpt>
      <trkpt lat="49.81623" lon="2.27652">
        <ele>110.2</ele>
        <time>2023-04-05T14:35:03Z</time>
      </trkpt>
      <trkpt lat="49.81622" lon="2.27652">
        <ele>110.2</ele>
        <time>2023-04-05T14:35:04Z</time>
      </trkpt>
      <trkpt lat="49.81621" lon="2.27652">
        <ele>110.2</ele>
        <time>2023-04-05T14:35:05Z</time>
      </trkpt>
      <trkpt lat="49.8162" lon="2.27652">
        <ele>110.2</ele>
        <time>2023-04-05T14:35:06Z</time>
      </trkpt>
      <trkpt lat="49.81619" lon="2.27652">
        <ele>110.3</ele>
        <time>2023-04-05T14:35:07Z</time>
      </trkpt>
      <trkpt lat="49.81618" lon="2.27652">
        <ele>110.3</ele>
        <time>2023-04-05T14:35:08Z</time>
      </trkpt>
      <trkpt lat="49.81617" lon="2.27652">
        <ele>110.3</ele>
        <time>2023-04-05T14:35:09Z</time>
      </trkpt>
      <trkpt lat="49.81616" lon="2.27652">
        <ele>110.4</ele>
        <time>2023-04-05T14:35:11Z</time>
      </trkpt>
      <trkpt lat="49.81615" lon="2.27652">
        <ele>110.4</ele>
        <time>2023-04-05T14:35:12Z</time>
      </trkpt>
      <trkpt lat="49.81614" lon="2.27652">
        <ele>110.4</ele>
        <time>2023-04-05T14:35:13Z</time>
      </trkpt>
      <trkpt lat="49.81613" lon="2.27652">
        <ele>110.4</ele>
        <time>2023-04-05T14:35:14Z</time>
      </trkpt>
      <trkpt lat="49.81612" lon="2.27652">
        <ele>110.5</ele>
        <time>2023-04-05T14:35:15Z</time>
      </trkpt>
      <trkpt lat="49.81611" lon="2.27651">
        <ele>110.5</ele>
        <time>2023-04-05T14:35:16Z</time>
      </trkpt>
      <trkpt lat="49.81609" lon="2.27651">
        <ele>110.5</ele>
        <time>2023-04-05T14:35:17Z</time>
      </trkpt>
      <trkpt lat="49.81608" lon="2.27651">
        <ele>110.6</ele>
        <time>2023-04-05T14:35:19Z</time>
      </trkpt>
      <trkpt lat="49.81607" lon="2.2765">
        <ele>110.6</ele>
        <time>2023-04-05T14:35:20Z</time>
      </trkpt>
      <trkpt lat="49.81606" lon="2.27649">
        <ele>110.6</ele>
        <time>2023-04-05T14:35:21Z</time>
      </trkpt>
      <trkpt lat="49.81605" lon="2.27649">
        <ele>110.6</ele>
        <time>2023-04-05T14:35:22Z</time>
      </trkpt>
      <trkpt lat="49.81604" lon="2.27649">
        <ele>110.7</ele>
        <time>2023-04-05T14:35:23Z</time>
      </trkpt>
      <trkpt lat="49.81603" lon="2.27648">
        <ele>110.7</ele>
        <time>2023-04-05T14:35:24Z</time>
      </trkpt>
      <trkpt lat="49.81602" lon="2.27648">
        <ele>110.7</ele>
        <time>2023-04-05T14:35:25Z</time>
      </trkpt>
      <trkpt lat="49.816" lon="2.27646">
        <ele>110.8</ele>
        <time>2023-04-05T14:35:26Z</time>
      </trkpt>
      <trkpt lat="49.81599" lon="2.27646">
        <ele>110.8</ele>
        <time>2023-04-05T14:35:27Z</time>
      </trkpt>
      <trkpt lat="49.81598" lon="2.27645">
        <ele>110.8</ele>
        <time>2023-04-05T14:35:29Z</time>
      </trkpt>
      <trkpt lat="49.81597" lon="2.27645">
        <ele>110.8</ele>
        <time>2023-04-05T14:35:30Z</time>
      </trkpt>
      <trkpt lat="49.81596" lon="2.27644">
        <ele>110.8</ele>
        <time>2023-04-05T14:35:31Z</time>
      </trkpt>
      <trkpt lat="49.81595" lon="2.27644">
        <ele>110.9</ele>
        <time>2023-04-05T14:35:32Z</time>
      </trkpt>
      <trkpt lat="49.81593" lon="2.27643">
        <ele>110.9</ele>
        <time>2023-04-05T14:35:33Z</time>
      </trkpt>
      <trkpt lat="49.81592" lon="2.27643">
        <ele>110.9</ele>
        <time>2023-04-05T14:35:34Z</time>
      </trkpt>
      <trkpt lat="49.81591" lon="2.27643">
        <ele>111</ele>
        <time>2023-04-05T14:35:35Z</time>
      </trkpt>
      <trkpt lat="49.8159" lon="2.27642">
        <ele>111</ele>
        <time>2023-04-05T14:35:36Z</time>
      </trkpt>
      <trkpt lat="49.81589" lon="2.27642">
        <ele>111</ele>
        <time>2023-04-05T14:35:38Z</time>
      </trkpt>
      <trkpt lat="49.81588" lon="2.27642">
        <ele>111</ele>
        <time>2023-04-05T14:35:39Z</time>
      </trkpt>
      <trkpt lat="49.81586" lon="2.27642">
        <ele>111.1</ele>
        <time>2023-04-05T14:35:40Z</time>
      </trkpt>
      <trkpt lat="49.81585" lon="2.27642">
        <ele>111.1</ele>
        <time>2023-04-05T14:35:41Z</time>
      </trkpt>
      <trkpt lat="49.81584" lon="2.27641">
        <ele>111.1</ele>
        <time>2023-04-05T14:35:42Z</time>
      </trkpt>
      <trkpt lat="49.81582" lon="2.27641">
        <ele>111.1</ele>
        <time>2023-04-05T14:35:43Z</time>
      </trkpt>
      <trkpt lat="49.81581" lon="2.2764">
        <ele>111.1</ele>
        <time>2023-04-05T14:35:44Z</time>
      </trkpt>
      <trkpt lat="49.8158" lon="2.2764">
        <ele>111.2</ele>
        <time>2023-04-05T14:35:45Z</time>
      </trkpt>
      <trkpt lat="49.81579" lon="2.27639">
        <ele>111.2</ele>
        <time>2023-04-05T14:35:47Z</time>
      </trkpt>
      <trkpt lat="49.81578" lon="2.27639">
        <ele>111.2</ele>
        <time>2023-04-05T14:35:48Z</time>
      </trkpt>
      <trkpt lat="49.81576" lon="2.27639">
        <ele>111.2</ele>
        <time>2023-04-05T14:35:49Z</time>
      </trkpt>
      <trkpt lat="49.81574" lon="2.27639">
        <ele>111.3</ele>
        <time>2023-04-05T14:35:50Z</time>
      </trkpt>
      <trkpt lat="49.81573" lon="2.27639">
        <ele>111.3</ele>
        <time>2023-04-05T14:35:51Z</time>
      </trkpt>
      <trkpt lat="49.81571" lon="2.27638">
        <ele>111.3</ele>
        <time>2023-04-05T14:35:53Z</time>
      </trkpt>
      <trkpt lat="49.8157" lon="2.27638">
        <ele>111.3</ele>
        <time>2023-04-05T14:35:54Z</time>
      </trkpt>
      <trkpt lat="49.81568" lon="2.27637">
        <ele>111.3</ele>
        <time>2023-04-05T14:35:55Z</time>
      </trkpt>
      <trkpt lat="49.81567" lon="2.27636">
        <ele>111.4</ele>
        <time>2023-04-05T14:35:56Z</time>
      </trkpt>
      <trkpt lat="49.81566" lon="2.27635">
        <ele>111.4</ele>
        <time>2023-04-05T14:35:57Z</time>
      </trkpt>
      <trkpt lat="49.81564" lon="2.27635">
        <ele>111.4</ele>
        <time>2023-04-05T14:35:58Z</time>
      </trkpt>
      <trkpt lat="49.81563" lon="2.27634">
        <ele>111.4</ele>
        <time>2023-04-05T14:35:59Z</time>
      </trkpt>
      <trkpt lat="49.81562" lon="2.27634">
        <ele>111.5</ele>
        <time>2023-04-05T14:36:00Z</time>
      </trkpt>
      <trkpt lat="49.8156" lon="2.27634">
        <ele>111.5</ele>
        <time>2023-04-05T14:36:01Z</time>
      </trkpt>
      <trkpt lat="49.81559" lon="2.27633">
        <ele>111.5</ele>
        <time>2023-04-05T14:36:03Z</time>
      </trkpt>
      <trkpt lat="49.81557" lon="2.27632">
        <ele>111.5</ele>
        <time>2023-04-05T14:36:04Z</time>
      </trkpt>
      <trkpt lat="49.81556" lon="2.27632">
        <ele>111.5</ele>
        <time>2023-04-05T14:36:05Z</time>
      </trkpt>
      <trkpt lat="49.81555" lon="2.27632">
        <ele>111.6</ele>
        <time>2023-04-05T14:36:06Z</time>
      </trkpt>
      <trkpt lat="49.81553" lon="2.27632">
        <ele>111.6</ele>
        <time>2023-04-05T14:36:07Z</time>
      </trkpt>
      <trkpt lat="49.81552" lon="2.27631">
        <ele>111.6</ele>
        <time>2023-04-05T14:36:08Z</time>
      </trkpt>
      <trkpt lat="49.81551" lon="2.27631">
        <ele>111.6</ele>
        <time>2023-04-05T14:36:09Z</time>
      </trkpt>
      <trkpt lat="49.81549" lon="2.27631">
        <ele>111.7</ele>
        <time>2023-04-05T14:36:10Z</time>
      </trkpt>
      <trkpt lat="49.81549" lon="2.2763">
        <ele>111.7</ele>
        <time>2023-04-05T14:36:12Z</time>
      </trkpt>
      <trkpt lat="49.81548" lon="2.2763">
        <ele>111.7</ele>
        <time>2023-04-05T14:36:13Z</time>
      </trkpt>
      <trkpt lat="49.81546" lon="2.2763">
        <ele>111.7</ele>
        <time>2023-04-05T14:36:14Z</time>
      </trkpt>
      <trkpt lat="49.81545" lon="2.27629">
        <ele>111.8</ele>
        <time>2023-04-05T14:36:15Z</time>
      </trkpt>
      <trkpt lat="49.81544" lon="2.27629">
        <ele>111.8</ele>
        <time>2023-04-05T14:36:16Z</time>
      </trkpt>
      <trkpt lat="49.81543" lon="2.27628">
        <ele>111.8</ele>
        <time>2023-04-05T14:36:18Z</time>
      </trkpt>
      <trkpt lat="49.81542" lon="2.27628">
        <ele>111.8</ele>
        <time>2023-04-05T14:36:19Z</time>
      </trkpt>
      <trkpt lat="49.8154" lon="2.27628">
        <ele>111.8</ele>
        <time>2023-04-05T14:36:20Z</time>
      </trkpt>
      <trkpt lat="49.81539" lon="2.27627">
        <ele>111.9</ele>
        <time>2023-04-05T14:36:21Z</time>
      </trkpt>
      <trkpt lat="49.81538" lon="2.27627">
        <ele>111.9</ele>
        <time>2023-04-05T14:36:22Z</time>
      </trkpt>
      <trkpt lat="49.81537" lon="2.27627">
        <ele>111.9</ele>
        <time>2023-04-05T14:36:23Z</time>
      </trkpt>
      <trkpt lat="49.81535" lon="2.27626">
        <ele>112</ele>
        <time>2023-04-05T14:36:24Z</time>
      </trkpt>
      <trkpt lat="49.81534" lon="2.27626">
        <ele>112</ele>
        <time>2023-04-05T14:36:25Z</time>
      </trkpt>
      <trkpt lat="49.81533" lon="2.27626">
        <ele>112</ele>
        <time>2023-04-05T14:36:27Z</time>
      </trkpt>
      <trkpt lat="49.81533" lon="2.27625">
        <ele>112</ele>
        <time>2023-04-05T14:36:28Z</time>
      </trkpt>
      <trkpt lat="49.81532" lon="2.27625">
        <ele>112</ele>
        <time>2023-04-05T14:36:29Z</time>
      </trkpt>
      <trkpt lat="49.81531" lon="2.27624">
        <ele>112</ele>
        <time>2023-04-05T14:36:30Z</time>
      </trkpt>
      <trkpt lat="49.8153" lon="2.27624">
        <ele>112.1</ele>
        <time>2023-04-05T14:36:31Z</time>
      </trkpt>
      <trkpt lat="49.81529" lon="2.27624">
        <ele>112.1</ele>
        <time>2023-04-05T14:36:32Z</time>
      </trkpt>
      <trkpt lat="49.81528" lon="2.27624">
        <ele>112.1</ele>
        <time>2023-04-05T14:36:33Z</time>
      </trkpt>
      <trkpt lat="49.81526" lon="2.27623">
        <ele>112.1</ele>
        <time>2023-04-05T14:36:34Z</time>
      </trkpt>
      <trkpt lat="49.81525" lon="2.27623">
        <ele>112.1</ele>
        <time>2023-04-05T14:36:35Z</time>
      </trkpt>
      <trkpt lat="49.81524" lon="2.27623">
        <ele>112.2</ele>
        <time>2023-04-05T14:36:36Z</time>
      </trkpt>
      <trkpt lat="49.81523" lon="2.27622">
        <ele>112.2</ele>
        <time>2023-04-05T14:36:37Z</time>
      </trkpt>
      <trkpt lat="49.81521" lon="2.27622">
        <ele>112.2</ele>
        <time>2023-04-05T14:36:39Z</time>
      </trkpt>
      <trkpt lat="49.8152" lon="2.27622">
        <ele>112.2</ele>
        <time>2023-04-05T14:36:40Z</time>
      </trkpt>
      <trkpt lat="49.81519" lon="2.27622">
        <ele>112.2</ele>
        <time>2023-04-05T14:36:41Z</time>
      </trkpt>
      <trkpt lat="49.81518" lon="2.27622">
        <ele>112.3</ele>
        <time>2023-04-05T14:36:42Z</time>
      </trkpt>
      <trkpt lat="49.81516" lon="2.27621">
        <ele>112.3</ele>
        <time>2023-04-05T14:36:43Z</time>
      </trkpt>
      <trkpt lat="49.81515" lon="2.27621">
        <ele>112.3</ele>
        <time>2023-04-05T14:36:45Z</time>
      </trkpt>
      <trkpt lat="49.81513" lon="2.2762">
        <ele>112.3</ele>
        <time>2023-04-05T14:36:46Z</time>
      </trkpt>
      <trkpt lat="49.81512" lon="2.2762">
        <ele>112.3</ele>
        <time>2023-04-05T14:36:47Z</time>
      </trkpt>
      <trkpt lat="49.81511" lon="2.2762">
        <ele>112.4</ele>
        <time>2023-04-05T14:36:48Z</time>
      </trkpt>
      <trkpt lat="49.8151" lon="2.27619">
        <ele>112.4</ele>
        <time>2023-04-05T14:36:49Z</time>
      </trkpt>
      <trkpt lat="49.81508" lon="2.27619">
        <ele>112.4</ele>
        <time>2023-04-05T14:36:50Z</time>
      </trkpt>
      <trkpt lat="49.81507" lon="2.27618">
        <ele>112.4</ele>
        <time>2023-04-05T14:36:51Z</time>
      </trkpt>
      <trkpt lat="49.81506" lon="2.27618">
        <ele>112.4</ele>
        <time>2023-04-05T14:36:52Z</time>
      </trkpt>
      <trkpt lat="49.81505" lon="2.27617">
        <ele>112.5</ele>
        <time>2023-04-05T14:36:54Z</time>
      </trkpt>
      <trkpt lat="49.81504" lon="2.27616">
        <ele>112.5</ele>
        <time>2023-04-05T14:36:55Z</time>
      </trkpt>
      <trkpt lat="49.81502" lon="2.27616">
        <ele>112.5</ele>
        <time>2023-04-05T14:36:56Z</time>
      </trkpt>
      <trkpt lat="49.815" lon="2.27615">
        <ele>112.5</ele>
        <time>2023-04-05T14:36:57Z</time>
      </trkpt>
      <trkpt lat="49.81499" lon="2.27615">
        <ele>112.6</ele>
        <time>2023-04-05T14:36:58Z</time>
      </trkpt>
      <trkpt lat="49.81498" lon="2.27615">
        <ele>112.6</ele>
        <time>2023-04-05T14:36:59Z</time>
      </trkpt>
      <trkpt lat="49.81497" lon="2.27614">
        <ele>112.6</ele>
        <time>2023-04-05T14:37:01Z</time>
      </trkpt>
      <trkpt lat="49.81496" lon="2.27613">
        <ele>112.6</ele>
        <time>2023-04-05T14:37:02Z</time>
      </trkpt>
      <trkpt lat="49.81495" lon="2.27613">
        <ele>112.6</ele>
        <time>2023-04-05T14:37:03Z</time>
      </trkpt>
      <trkpt lat="49.81493" lon="2.27612">
        <ele>112.7</ele>
        <time>2023-04-05T14:37:04Z</time>
      </trkpt>
      <trkpt lat="49.81492" lon="2.27611">
        <ele>112.7</ele>
        <time>2023-04-05T14:37:05Z</time>
      </trkpt>
      <trkpt lat="49.81491" lon="2.27611">
        <ele>112.7</ele>
        <time>2023-04-05T14:37:06Z</time>
      </trkpt>
      <trkpt lat="49.81489" lon="2.2761">
        <ele>112.7</ele>
        <time>2023-04-05T14:37:07Z</time>
      </trkpt>
      <trkpt lat="49.81488" lon="2.2761">
        <ele>112.8</ele>
        <time>2023-04-05T14:37:08Z</time>
      </trkpt>
      <trkpt lat="49.81487" lon="2.2761">
        <ele>112.8</ele>
        <time>2023-04-05T14:37:09Z</time>
      </trkpt>
      <trkpt lat="49.81486" lon="2.2761">
        <ele>112.8</ele>
        <time>2023-04-05T14:37:11Z</time>
      </trkpt>
      <trkpt lat="49.81485" lon="2.2761">
        <ele>112.8</ele>
        <time>2023-04-05T14:37:12Z</time>
      </trkpt>
      <trkpt lat="49.81484" lon="2.2761">
        <ele>112.9</ele>
        <time>2023-04-05T14:37:13Z</time>
      </trkpt>
      <trkpt lat="49.81483" lon="2.2761">
        <ele>112.9</ele>
        <time>2023-04-05T14:37:14Z</time>
      </trkpt>
      <trkpt lat="49.81481" lon="2.2761">
        <ele>112.9</ele>
        <time>2023-04-05T14:37:15Z</time>
      </trkpt>
      <trkpt lat="49.8148" lon="2.2761">
        <ele>113</ele>
        <time>2023-04-05T14:37:16Z</time>
      </trkpt>
      <trkpt lat="49.81479" lon="2.27609">
        <ele>113</ele>
        <time>2023-04-05T14:37:17Z</time>
      </trkpt>
      <trkpt lat="49.81477" lon="2.27609">
        <ele>113</ele>
        <time>2023-04-05T14:37:18Z</time>
      </trkpt>
      <trkpt lat="49.81476" lon="2.27608">
        <ele>113.1</ele>
        <time>2023-04-05T14:37:19Z</time>
      </trkpt>
      <trkpt lat="49.81474" lon="2.27608">
        <ele>113.1</ele>
        <time>2023-04-05T14:37:20Z</time>
      </trkpt>
      <trkpt lat="49.81473" lon="2.27607">
        <ele>113.1</ele>
        <time>2023-04-05T14:37:22Z</time>
      </trkpt>
      <trkpt lat="49.81472" lon="2.27607">
        <ele>113.1</ele>
        <time>2023-04-05T14:37:23Z</time>
      </trkpt>
      <trkpt lat="49.8147" lon="2.27607">
        <ele>113.2</ele>
        <time>2023-04-05T14:37:24Z</time>
      </trkpt>
      <trkpt lat="49.81469" lon="2.27607">
        <ele>113.2</ele>
        <time>2023-04-05T14:37:25Z</time>
      </trkpt>
      <trkpt lat="49.81469" lon="2.27607">
        <ele>113.2</ele>
        <time>2023-04-05T14:37:26Z</time>
      </trkpt>
      <trkpt lat="49.81466" lon="2.27607">
        <ele>113.3</ele>
        <time>2023-04-05T14:37:27Z</time>
      </trkpt>
      <trkpt lat="49.81465" lon="2.27606">
        <ele>113.3</ele>
        <time>2023-04-05T14:37:28Z</time>
      </trkpt>
      <trkpt lat="49.81464" lon="2.27606">
        <ele>113.3</ele>
        <time>2023-04-05T14:37:29Z</time>
      </trkpt>
      <trkpt lat="49.81463" lon="2.27605">
        <ele>113.3</ele>
        <time>2023-04-05T14:37:30Z</time>
      </trkpt>
      <trkpt lat="49.81462" lon="2.27605">
        <ele>113.4</ele>
        <time>2023-04-05T14:37:31Z</time>
      </trkpt>
      <trkpt lat="49.81461" lon="2.27604">
        <ele>113.4</ele>
        <time>2023-04-05T14:37:33Z</time>
      </trkpt>
      <trkpt lat="49.81461" lon="2.27603">
        <ele>113.4</ele>
        <time>2023-04-05T14:37:34Z</time>
      </trkpt>
      <trkpt lat="49.8146" lon="2.27602">
        <ele>113.4</ele>
        <time>2023-04-05T14:37:35Z</time>
      </trkpt>
      <trkpt lat="49.81459" lon="2.27601">
        <ele>113.5</ele>
        <time>2023-04-05T14:37:36Z</time>
      </trkpt>
      <trkpt lat="49.81457" lon="2.276">
        <ele>113.5</ele>
        <time>2023-04-05T14:37:37Z</time>
      </trkpt>
      <trkpt lat="49.81456" lon="2.276">
        <ele>113.5</ele>
        <time>2023-04-05T14:37:38Z</time>
      </trkpt>
      <trkpt lat="49.81454" lon="2.27599">
        <ele>113.6</ele>
        <time>2023-04-05T14:37:39Z</time>
      </trkpt>
      <trkpt lat="49.81453" lon="2.27598">
        <ele>113.6</ele>
        <time>2023-04-05T14:37:40Z</time>
      </trkpt>
      <trkpt lat="49.81451" lon="2.27598">
        <ele>113.6</ele>
        <time>2023-04-05T14:37:41Z</time>
      </trkpt>
      <trkpt lat="49.81451" lon="2.27598">
        <ele>113.6</ele>
        <time>2023-04-05T14:37:43Z</time>
      </trkpt>
      <trkpt lat="49.8145" lon="2.27598">
        <ele>113.7</ele>
        <time>2023-04-05T14:37:44Z</time>
      </trkpt>
      <trkpt lat="49.81448" lon="2.27597">
        <ele>113.7</ele>
        <time>2023-04-05T14:37:45Z</time>
      </trkpt>
      <trkpt lat="49.81447" lon="2.27597">
        <ele>113.7</ele>
        <time>2023-04-05T14:37:46Z</time>
      </trkpt>
      <trkpt lat="49.81446" lon="2.27597">
        <ele>113.8</ele>
        <time>2023-04-05T14:37:47Z</time>
      </trkpt>
      <trkpt lat="49.81445" lon="2.27596">
        <ele>113.8</ele>
        <time>2023-04-05T14:37:48Z</time>
      </trkpt>
      <trkpt lat="49.81443" lon="2.27596">
        <ele>113.8</ele>
        <time>2023-04-05T14:37:50Z</time>
      </trkpt>
      <trkpt lat="49.81441" lon="2.27594">
        <ele>113.9</ele>
        <time>2023-04-05T14:37:51Z</time>
      </trkpt>
      <trkpt lat="49.81441" lon="2.27594">
        <ele>113.9</ele>
        <time>2023-04-05T14:37:52Z</time>
      </trkpt>
      <trkpt lat="49.8144" lon="2.27593">
        <ele>113.9</ele>
        <time>2023-04-05T14:37:53Z</time>
      </trkpt>
      <trkpt lat="49.81438" lon="2.27592">
        <ele>114</ele>
        <time>2023-04-05T14:37:54Z</time>
      </trkpt>
      <trkpt lat="49.81437" lon="2.27591">
        <ele>114</ele>
        <time>2023-04-05T14:37:55Z</time>
      </trkpt>
      <trkpt lat="49.81437" lon="2.2759">
        <ele>114.1</ele>
        <time>2023-04-05T14:37:56Z</time>
      </trkpt>
      <trkpt lat="49.81436" lon="2.2759">
        <ele>114.1</ele>
        <time>2023-04-05T14:37:57Z</time>
      </trkpt>
      <trkpt lat="49.81435" lon="2.27589">
        <ele>114.1</ele>
        <time>2023-04-05T14:37:58Z</time>
      </trkpt>
      <trkpt lat="49.81434" lon="2.27587">
        <ele>114.2</ele>
        <time>2023-04-05T14:38:00Z</time>
      </trkpt>
      <trkpt lat="49.81433" lon="2.27586">
        <ele>114.2</ele>
        <time>2023-04-05T14:38:01Z</time>
      </trkpt>
      <trkpt lat="49.81431" lon="2.27585">
        <ele>114.3</ele>
        <time>2023-04-05T14:38:02Z</time>
      </trkpt>
      <trkpt lat="49.8143" lon="2.27584">
        <ele>114.3</ele>
        <time>2023-04-05T14:38:03Z</time>
      </trkpt>
      <trkpt lat="49.81429" lon="2.27583">
        <ele>114.3</ele>
        <time>2023-04-05T14:38:04Z</time>
      </trkpt>
      <trkpt lat="49.81429" lon="2.27582">
        <ele>114.3</ele>
        <time>2023-04-05T14:38:05Z</time>
      </trkpt>
      <trkpt lat="49.81428" lon="2.27581">
        <ele>114.3</ele>
        <time>2023-04-05T14:38:06Z</time>
      </trkpt>
      <trkpt lat="49.81427" lon="2.27581">
        <ele>114.3</ele>
        <time>2023-04-05T14:38:07Z</time>
      </trkpt>
      <trkpt lat="49.81425" lon="2.2758">
        <ele>114.3</ele>
        <time>2023-04-05T14:38:08Z</time>
      </trkpt>
      <trkpt lat="49.81424" lon="2.27579">
        <ele>114.3</ele>
        <time>2023-04-05T14:38:09Z</time>
      </trkpt>
      <trkpt lat="49.81423" lon="2.27578">
        <ele>114.3</ele>
        <time>2023-04-05T14:38:11Z</time>
      </trkpt>
      <trkpt lat="49.81422" lon="2.27578">
        <ele>114.4</ele>
        <time>2023-04-05T14:38:12Z</time>
      </trkpt>
      <trkpt lat="49.8142" lon="2.27577">
        <ele>114.4</ele>
        <time>2023-04-05T14:38:13Z</time>
      </trkpt>
      <trkpt lat="49.81419" lon="2.27576">
        <ele>114.4</ele>
        <time>2023-04-05T14:38:15Z</time>
      </trkpt>
      <trkpt lat="49.81418" lon="2.27575">
        <ele>114.4</ele>
        <time>2023-04-05T14:38:16Z</time>
      </trkpt>
      <trkpt lat="49.81417" lon="2.27575">
        <ele>114.4</ele>
        <time>2023-04-05T14:38:17Z</time>
      </trkpt>
      <trkpt lat="49.81416" lon="2.27574">
        <ele>114.4</ele>
        <time>2023-04-05T14:38:18Z</time>
      </trkpt>
      <trkpt lat="49.81415" lon="2.27573">
        <ele>114.4</ele>
        <time>2023-04-05T14:38:19Z</time>
      </trkpt>
      <trkpt lat="49.81414" lon="2.27572">
        <ele>114.4</ele>
        <time>2023-04-05T14:38:20Z</time>
      </trkpt>
      <trkpt lat="49.81413" lon="2.27572">
        <ele>114.4</ele>
        <time>2023-04-05T14:38:21Z</time>
      </trkpt>
      <trkpt lat="49.81412" lon="2.27572">
        <ele>114.5</ele>
        <time>2023-04-05T14:38:22Z</time>
      </trkpt>
      <trkpt lat="49.8141" lon="2.27572">
        <ele>114.5</ele>
        <time>2023-04-05T14:38:23Z</time>
      </trkpt>
      <trkpt lat="49.81409" lon="2.27571">
        <ele>114.5</ele>
        <time>2023-04-05T14:38:25Z</time>
      </trkpt>
      <trkpt lat="49.81409" lon="2.27571">
        <ele>114.5</ele>
        <time>2023-04-05T14:38:26Z</time>
      </trkpt>
      <trkpt lat="49.81408" lon="2.2757">
        <ele>114.5</ele>
        <time>2023-04-05T14:38:27Z</time>
      </trkpt>
      <trkpt lat="49.81407" lon="2.2757">
        <ele>114.5</ele>
        <time>2023-04-05T14:38:28Z</time>
      </trkpt>
      <trkpt lat="49.81405" lon="2.27568">
        <ele>114.5</ele>
        <time>2023-04-05T14:38:29Z</time>
      </trkpt>
      <trkpt lat="49.81404" lon="2.27567">
        <ele>114.6</ele>
        <time>2023-04-05T14:38:30Z</time>
      </trkpt>
      <trkpt lat="49.81403" lon="2.27567">
        <ele>114.6</ele>
        <time>2023-04-05T14:38:31Z</time>
      </trkpt>
      <trkpt lat="49.81402" lon="2.27566">
        <ele>114.6</ele>
        <time>2023-04-05T14:38:32Z</time>
      </trkpt>
      <trkpt lat="49.81401" lon="2.27565">
        <ele>114.6</ele>
        <time>2023-04-05T14:38:34Z</time>
      </trkpt>
      <trkpt lat="49.814" lon="2.27564">
        <ele>114.6</ele>
        <time>2023-04-05T14:38:35Z</time>
      </trkpt>
      <trkpt lat="49.81399" lon="2.27563">
        <ele>114.6</ele>
        <time>2023-04-05T14:38:36Z</time>
      </trkpt>
      <trkpt lat="49.81397" lon="2.27562">
        <ele>114.7</ele>
        <time>2023-04-05T14:38:37Z</time>
      </trkpt>
      <trkpt lat="49.81396" lon="2.27562">
        <ele>114.7</ele>
        <time>2023-04-05T14:38:38Z</time>
      </trkpt>
      <trkpt lat="49.81396" lon="2.27561">
        <ele>114.7</ele>
        <time>2023-04-05T14:38:39Z</time>
      </trkpt>
      <trkpt lat="49.81394" lon="2.27561">
        <ele>114.7</ele>
        <time>2023-04-05T14:38:40Z</time>
      </trkpt>
      <trkpt lat="49.81393" lon="2.2756">
        <ele>114.8</ele>
        <time>2023-04-05T14:38:41Z</time>
      </trkpt>
      <trkpt lat="49.81392" lon="2.2756">
        <ele>114.8</ele>
        <time>2023-04-05T14:38:42Z</time>
      </trkpt>
      <trkpt lat="49.81391" lon="2.27559">
        <ele>114.8</ele>
        <time>2023-04-05T14:38:44Z</time>
      </trkpt>
      <trkpt lat="49.8139" lon="2.27559">
        <ele>114.8</ele>
        <time>2023-04-05T14:38:45Z</time>
      </trkpt>
      <trkpt lat="49.81389" lon="2.27558">
        <ele>114.8</ele>
        <time>2023-04-05T14:38:46Z</time>
      </trkpt>
      <trkpt lat="49.81387" lon="2.27557">
        <ele>114.9</ele>
        <time>2023-04-05T14:38:47Z</time>
      </trkpt>
      <trkpt lat="49.81386" lon="2.27557">
        <ele>114.9</ele>
        <time>2023-04-05T14:38:48Z</time>
      </trkpt>
      <trkpt lat="49.81385" lon="2.27556">
        <ele>114.9</ele>
        <time>2023-04-05T14:38:49Z</time>
      </trkpt>
      <trkpt lat="49.81384" lon="2.27555">
        <ele>114.9</ele>
        <time>2023-04-05T14:38:50Z</time>
      </trkpt>
      <trkpt lat="49.81383" lon="2.27554">
        <ele>115</ele>
        <time>2023-04-05T14:38:51Z</time>
      </trkpt>
      <trkpt lat="49.81382" lon="2.27553">
        <ele>115</ele>
        <time>2023-04-05T14:38:53Z</time>
      </trkpt>
      <trkpt lat="49.81381" lon="2.27553">
        <ele>115</ele>
        <time>2023-04-05T14:38:54Z</time>
      </trkpt>
      <trkpt lat="49.81379" lon="2.27552">
        <ele>115</ele>
        <time>2023-04-05T14:38:55Z</time>
      </trkpt>
      <trkpt lat="49.81378" lon="2.27551">
        <ele>115</ele>
        <time>2023-04-05T14:38:56Z</time>
      </trkpt>
      <trkpt lat="49.81377" lon="2.27551">
        <ele>115.1</ele>
        <time>2023-04-05T14:38:57Z</time>
      </trkpt>
      <trkpt lat="49.81376" lon="2.2755">
        <ele>115.1</ele>
        <time>2023-04-05T14:38:58Z</time>
      </trkpt>
      <trkpt lat="49.81374" lon="2.27549">
        <ele>115.1</ele>
        <time>2023-04-05T14:38:59Z</time>
      </trkpt>
      <trkpt lat="49.81373" lon="2.27548">
        <ele>115.1</ele>
        <time>2023-04-05T14:39:00Z</time>
      </trkpt>
      <trkpt lat="49.81372" lon="2.27548">
        <ele>115.1</ele>
        <time>2023-04-05T14:39:02Z</time>
      </trkpt>
      <trkpt lat="49.81371" lon="2.27547">
        <ele>115.2</ele>
        <time>2023-04-05T14:39:03Z</time>
      </trkpt>
      <trkpt lat="49.8137" lon="2.27547">
        <ele>115.2</ele>
        <time>2023-04-05T14:39:04Z</time>
      </trkpt>
      <trkpt lat="49.81368" lon="2.27546">
        <ele>115.2</ele>
        <time>2023-04-05T14:39:05Z</time>
      </trkpt>
      <trkpt lat="49.81367" lon="2.27545">
        <ele>115.2</ele>
        <time>2023-04-05T14:39:06Z</time>
      </trkpt>
      <trkpt lat="49.81365" lon="2.27543">
        <ele>115.3</ele>
        <time>2023-04-05T14:39:07Z</time>
      </trkpt>
      <trkpt lat="49.81364" lon="2.27542">
        <ele>115.3</ele>
        <time>2023-04-05T14:39:08Z</time>
      </trkpt>
      <trkpt lat="49.81364" lon="2.27542">
        <ele>115.3</ele>
        <time>2023-04-05T14:39:09Z</time>
      </trkpt>
      <trkpt lat="49.81362" lon="2.2754">
        <ele>115.3</ele>
        <time>2023-04-05T14:39:11Z</time>
      </trkpt>
      <trkpt lat="49.81361" lon="2.27539">
        <ele>115.3</ele>
        <time>2023-04-05T14:39:12Z</time>
      </trkpt>
      <trkpt lat="49.8136" lon="2.27538">
        <ele>115.3</ele>
        <time>2023-04-05T14:39:13Z</time>
      </trkpt>
      <trkpt lat="49.81359" lon="2.27537">
        <ele>115.4</ele>
        <time>2023-04-05T14:39:14Z</time>
      </trkpt>
      <trkpt lat="49.81358" lon="2.27536">
        <ele>115.4</ele>
        <time>2023-04-05T14:39:15Z</time>
      </trkpt>
      <trkpt lat="49.81357" lon="2.27535">
        <ele>115.4</ele>
        <time>2023-04-05T14:39:16Z</time>
      </trkpt>
      <trkpt lat="49.81356" lon="2.27534">
        <ele>115.4</ele>
        <time>2023-04-05T14:39:18Z</time>
      </trkpt>
      <trkpt lat="49.81356" lon="2.27533">
        <ele>115.4</ele>
        <time>2023-04-05T14:39:19Z</time>
      </trkpt>
      <trkpt lat="49.81355" lon="2.27532">
        <ele>115.4</ele>
        <time>2023-04-05T14:39:20Z</time>
      </trkpt>
      <trkpt lat="49.81353" lon="2.2753">
        <ele>115.5</ele>
        <time>2023-04-05T14:39:21Z</time>
      </trkpt>
      <trkpt lat="49.81352" lon="2.27529">
        <ele>115.5</ele>
        <time>2023-04-05T14:39:22Z</time>
      </trkpt>
      <trkpt lat="49.81352" lon="2.27529">
        <ele>115.5</ele>
        <time>2023-04-05T14:39:23Z</time>
      </trkpt>
      <trkpt lat="49.8135" lon="2.27527">
        <ele>115.5</ele>
        <time>2023-04-05T14:39:24Z</time>
      </trkpt>
      <trkpt lat="49.8135" lon="2.27527">
        <ele>115.5</ele>
        <time>2023-04-05T14:39:26Z</time>
      </trkpt>
      <trkpt lat="49.81349" lon="2.27526">
        <ele>115.5</ele>
        <time>2023-04-05T14:39:27Z</time>
      </trkpt>
      <trkpt lat="49.81348" lon="2.27525">
        <ele>115.6</ele>
        <time>2023-04-05T14:39:28Z</time>
      </trkpt>
      <trkpt lat="49.81347" lon="2.27525">
        <ele>115.6</ele>
        <time>2023-04-05T14:39:29Z</time>
      </trkpt>
      <trkpt lat="49.81346" lon="2.27525">
        <ele>115.6</ele>
        <time>2023-04-05T14:39:30Z</time>
      </trkpt>
      <trkpt lat="49.81345" lon="2.27524">
        <ele>115.6</ele>
        <time>2023-04-05T14:39:31Z</time>
      </trkpt>
      <trkpt lat="49.81344" lon="2.27524">
        <ele>115.6</ele>
        <time>2023-04-05T14:39:32Z</time>
      </trkpt>
      <trkpt lat="49.81343" lon="2.27523">
        <ele>115.6</ele>
        <time>2023-04-05T14:39:34Z</time>
      </trkpt>
      <trkpt lat="49.81342" lon="2.27522">
        <ele>115.7</ele>
        <time>2023-04-05T14:39:35Z</time>
      </trkpt>
      <trkpt lat="49.81341" lon="2.27522">
        <ele>115.7</ele>
        <time>2023-04-05T14:39:36Z</time>
      </trkpt>
      <trkpt lat="49.8134" lon="2.27521">
        <ele>115.7</ele>
        <time>2023-04-05T14:39:37Z</time>
      </trkpt>
      <trkpt lat="49.81339" lon="2.27521">
        <ele>115.7</ele>
        <time>2023-04-05T14:39:38Z</time>
      </trkpt>
      <trkpt lat="49.81338" lon="2.2752">
        <ele>115.7</ele>
        <time>2023-04-05T14:39:39Z</time>
      </trkpt>
      <trkpt lat="49.81337" lon="2.2752">
        <ele>115.7</ele>
        <time>2023-04-05T14:39:40Z</time>
      </trkpt>
      <trkpt lat="49.81335" lon="2.27519">
        <ele>115.8</ele>
        <time>2023-04-05T14:39:42Z</time>
      </trkpt>
      <trkpt lat="49.81333" lon="2.27517">
        <ele>115.8</ele>
        <time>2023-04-05T14:39:43Z</time>
      </trkpt>
      <trkpt lat="49.81332" lon="2.27517">
        <ele>115.8</ele>
        <time>2023-04-05T14:39:44Z</time>
      </trkpt>
      <trkpt lat="49.81332" lon="2.27516">
        <ele>115.8</ele>
        <time>2023-04-05T14:39:45Z</time>
      </trkpt>
      <trkpt lat="49.8133" lon="2.27516">
        <ele>115.8</ele>
        <time>2023-04-05T14:39:46Z</time>
      </trkpt>
      <trkpt lat="49.81329" lon="2.27515">
        <ele>115.8</ele>
        <time>2023-04-05T14:39:47Z</time>
      </trkpt>
      <trkpt lat="49.81328" lon="2.27514">
        <ele>115.9</ele>
        <time>2023-04-05T14:39:48Z</time>
      </trkpt>
      <trkpt lat="49.81327" lon="2.27513">
        <ele>115.9</ele>
        <time>2023-04-05T14:39:50Z</time>
      </trkpt>
      <trkpt lat="49.81326" lon="2.27512">
        <ele>115.9</ele>
        <time>2023-04-05T14:39:51Z</time>
      </trkpt>
      <trkpt lat="49.81324" lon="2.27511">
        <ele>115.9</ele>
        <time>2023-04-05T14:39:52Z</time>
      </trkpt>
      <trkpt lat="49.81323" lon="2.2751">
        <ele>115.9</ele>
        <time>2023-04-05T14:39:53Z</time>
      </trkpt>
      <trkpt lat="49.81322" lon="2.27509">
        <ele>115.9</ele>
        <time>2023-04-05T14:39:54Z</time>
      </trkpt>
      <trkpt lat="49.8132" lon="2.27507">
        <ele>115.9</ele>
        <time>2023-04-05T14:39:55Z</time>
      </trkpt>
      <trkpt lat="49.8132" lon="2.27507">
        <ele>116</ele>
        <time>2023-04-05T14:39:56Z</time>
      </trkpt>
      <trkpt lat="49.81319" lon="2.27506">
        <ele>116</ele>
        <time>2023-04-05T14:39:57Z</time>
      </trkpt>
      <trkpt lat="49.81318" lon="2.27505">
        <ele>116</ele>
        <time>2023-04-05T14:39:59Z</time>
      </trkpt>
      <trkpt lat="49.81317" lon="2.27504">
        <ele>116</ele>
        <time>2023-04-05T14:40:00Z</time>
      </trkpt>
      <trkpt lat="49.81316" lon="2.27503">
        <ele>116</ele>
        <time>2023-04-05T14:40:01Z</time>
      </trkpt>
      <trkpt lat="49.81315" lon="2.27502">
        <ele>116</ele>
        <time>2023-04-05T14:40:02Z</time>
      </trkpt>
      <trkpt lat="49.81314" lon="2.27502">
        <ele>116</ele>
        <time>2023-04-05T14:40:03Z</time>
      </trkpt>
      <trkpt lat="49.81313" lon="2.27501">
        <ele>116</ele>
        <time>2023-04-05T14:40:04Z</time>
      </trkpt>
      <trkpt lat="49.81312" lon="2.27501">
        <ele>116.1</ele>
        <time>2023-04-05T14:40:05Z</time>
      </trkpt>
      <trkpt lat="49.8131" lon="2.27501">
        <ele>116.1</ele>
        <time>2023-04-05T14:40:07Z</time>
      </trkpt>
      <trkpt lat="49.81309" lon="2.27501">
        <ele>116.1</ele>
        <time>2023-04-05T14:40:08Z</time>
      </trkpt>
      <trkpt lat="49.81309" lon="2.27501">
        <ele>116.1</ele>
        <time>2023-04-05T14:40:09Z</time>
      </trkpt>
      <trkpt lat="49.81308" lon="2.275">
        <ele>116.1</ele>
        <time>2023-04-05T14:40:10Z</time>
      </trkpt>
      <trkpt lat="49.81307" lon="2.275">
        <ele>116.1</ele>
        <time>2023-04-05T14:40:11Z</time>
      </trkpt>
      <trkpt lat="49.81306" lon="2.27499">
        <ele>116.1</ele>
        <time>2023-04-05T14:40:12Z</time>
      </trkpt>
      <trkpt lat="49.81305" lon="2.27499">
        <ele>116.1</ele>
        <time>2023-04-05T14:40:13Z</time>
      </trkpt>
      <trkpt lat="49.81304" lon="2.27498">
        <ele>116.2</ele>
        <time>2023-04-05T14:40:14Z</time>
      </trkpt>
      <trkpt lat="49.81302" lon="2.27497">
        <ele>116.2</ele>
        <time>2023-04-05T14:40:16Z</time>
      </trkpt>
      <trkpt lat="49.81301" lon="2.27497">
        <ele>116.2</ele>
        <time>2023-04-05T14:40:17Z</time>
      </trkpt>
      <trkpt lat="49.813" lon="2.27496">
        <ele>116.2</ele>
        <time>2023-04-05T14:40:18Z</time>
      </trkpt>
      <trkpt lat="49.81298" lon="2.27495">
        <ele>116.2</ele>
        <time>2023-04-05T14:40:19Z</time>
      </trkpt>
      <trkpt lat="49.81297" lon="2.27494">
        <ele>116.2</ele>
        <time>2023-04-05T14:40:20Z</time>
      </trkpt>
      <trkpt lat="49.81296" lon="2.27494">
        <ele>116.3</ele>
        <time>2023-04-05T14:40:21Z</time>
      </trkpt>
      <trkpt lat="49.81295" lon="2.27493">
        <ele>116.3</ele>
        <time>2023-04-05T14:40:22Z</time>
      </trkpt>
      <trkpt lat="49.81294" lon="2.27492">
        <ele>116.3</ele>
        <time>2023-04-05T14:40:23Z</time>
      </trkpt>
      <trkpt lat="49.81292" lon="2.27491">
        <ele>116.3</ele>
        <time>2023-04-05T14:40:25Z</time>
      </trkpt>
      <trkpt lat="49.81291" lon="2.2749">
        <ele>116.3</ele>
        <time>2023-04-05T14:40:26Z</time>
      </trkpt>
      <trkpt lat="49.8129" lon="2.2749">
        <ele>116.3</ele>
        <time>2023-04-05T14:40:27Z</time>
      </trkpt>
      <trkpt lat="49.81289" lon="2.27489">
        <ele>116.4</ele>
        <time>2023-04-05T14:40:28Z</time>
      </trkpt>
      <trkpt lat="49.81288" lon="2.27488">
        <ele>116.4</ele>
        <time>2023-04-05T14:40:29Z</time>
      </trkpt>
      <trkpt lat="49.81287" lon="2.27487">
        <ele>116.4</ele>
        <time>2023-04-05T14:40:30Z</time>
      </trkpt>
      <trkpt lat="49.81285" lon="2.27486">
        <ele>116.4</ele>
        <time>2023-04-05T14:40:31Z</time>
      </trkpt>
      <trkpt lat="49.81283" lon="2.27485">
        <ele>116.5</ele>
        <time>2023-04-05T14:40:33Z</time>
      </trkpt>
      <trkpt lat="49.81283" lon="2.27484">
        <ele>116.5</ele>
        <time>2023-04-05T14:40:34Z</time>
      </trkpt>
      <trkpt lat="49.81282" lon="2.27484">
        <ele>116.5</ele>
        <time>2023-04-05T14:40:35Z</time>
      </trkpt>
      <trkpt lat="49.8128" lon="2.27483">
        <ele>116.5</ele>
        <time>2023-04-05T14:40:36Z</time>
      </trkpt>
      <trkpt lat="49.81279" lon="2.27482">
        <ele>116.6</ele>
        <time>2023-04-05T14:40:37Z</time>
      </trkpt>
      <trkpt lat="49.81278" lon="2.27482">
        <ele>116.6</ele>
        <time>2023-04-05T14:40:38Z</time>
      </trkpt>
      <trkpt lat="49.81277" lon="2.27481">
        <ele>116.6</ele>
        <time>2023-04-05T14:40:39Z</time>
      </trkpt>
      <trkpt lat="49.81276" lon="2.27481">
        <ele>116.6</ele>
        <time>2023-04-05T14:40:41Z</time>
      </trkpt>
      <trkpt lat="49.81275" lon="2.2748">
        <ele>116.6</ele>
        <time>2023-04-05T14:40:42Z</time>
      </trkpt>
      <trkpt lat="49.81273" lon="2.27479">
        <ele>116.7</ele>
        <time>2023-04-05T14:40:43Z</time>
      </trkpt>
      <trkpt lat="49.81272" lon="2.27478">
        <ele>116.7</ele>
        <time>2023-04-05T14:40:44Z</time>
      </trkpt>
      <trkpt lat="49.81271" lon="2.27478">
        <ele>116.7</ele>
        <time>2023-04-05T14:40:45Z</time>
      </trkpt>
      <trkpt lat="49.81269" lon="2.27477">
        <ele>116.8</ele>
        <time>2023-04-05T14:40:46Z</time>
      </trkpt>
      <trkpt lat="49.81268" lon="2.27476">
        <ele>116.8</ele>
        <time>2023-04-05T14:40:47Z</time>
      </trkpt>
      <trkpt lat="49.81267" lon="2.27476">
        <ele>116.8</ele>
        <time>2023-04-05T14:40:48Z</time>
      </trkpt>
      <trkpt lat="49.81266" lon="2.27475">
        <ele>116.8</ele>
        <time>2023-04-05T14:40:49Z</time>
      </trkpt>
      <trkpt lat="49.81264" lon="2.27475">
        <ele>116.8</ele>
        <time>2023-04-05T14:40:51Z</time>
      </trkpt>
      <trkpt lat="49.81263" lon="2.27474">
        <ele>116.9</ele>
        <time>2023-04-05T14:40:52Z</time>
      </trkpt>
      <trkpt lat="49.81261" lon="2.27473">
        <ele>116.9</ele>
        <time>2023-04-05T14:40:53Z</time>
      </trkpt>
      <trkpt lat="49.81259" lon="2.27473">
        <ele>116.9</ele>
        <time>2023-04-05T14:40:54Z</time>
      </trkpt>
      <trkpt lat="49.81258" lon="2.27472">
        <ele>116.9</ele>
        <time>2023-04-05T14:40:55Z</time>
      </trkpt>
      <trkpt lat="49.81258" lon="2.27472">
        <ele>117</ele>
        <time>2023-04-05T14:40:56Z</time>
      </trkpt>
      <trkpt lat="49.81256" lon="2.27472">
        <ele>117</ele>
        <time>2023-04-05T14:40:57Z</time>
      </trkpt>
      <trkpt lat="49.81256" lon="2.2747">
        <ele>117</ele>
        <time>2023-04-05T14:40:58Z</time>
      </trkpt>
      <trkpt lat="49.81255" lon="2.27468">
        <ele>117</ele>
        <time>2023-04-05T14:41:00Z</time>
      </trkpt>
      <trkpt lat="49.81254" lon="2.27468">
        <ele>117</ele>
        <time>2023-04-05T14:41:01Z</time>
      </trkpt>
      <trkpt lat="49.81253" lon="2.27467">
        <ele>117.1</ele>
        <time>2023-04-05T14:41:02Z</time>
      </trkpt>
      <trkpt lat="49.81252" lon="2.27466">
        <ele>117.1</ele>
        <time>2023-04-05T14:41:03Z</time>
      </trkpt>
      <trkpt lat="49.8125" lon="2.27466">
        <ele>117.1</ele>
        <time>2023-04-05T14:41:04Z</time>
      </trkpt>
      <trkpt lat="49.81249" lon="2.27465">
        <ele>117.1</ele>
        <time>2023-04-05T14:41:05Z</time>
      </trkpt>
      <trkpt lat="49.81248" lon="2.27465">
        <ele>117.1</ele>
        <time>2023-04-05T14:41:06Z</time>
      </trkpt>
      <trkpt lat="49.81245" lon="2.27465">
        <ele>117.2</ele>
        <time>2023-04-05T14:41:08Z</time>
      </trkpt>
      <trkpt lat="49.81245" lon="2.27465">
        <ele>117.2</ele>
        <time>2023-04-05T14:41:09Z</time>
      </trkpt>
      <trkpt lat="49.81244" lon="2.27466">
        <ele>117.2</ele>
        <time>2023-04-05T14:41:10Z</time>
      </trkpt>
      <trkpt lat="49.81242" lon="2.27465">
        <ele>117.2</ele>
        <time>2023-04-05T14:41:11Z</time>
      </trkpt>
      <trkpt lat="49.81241" lon="2.27465">
        <ele>117.2</ele>
        <time>2023-04-05T14:41:12Z</time>
      </trkpt>
      <trkpt lat="49.8124" lon="2.27464">
        <ele>117.2</ele>
        <time>2023-04-05T14:41:13Z</time>
      </trkpt>
      <trkpt lat="49.81239" lon="2.27463">
        <ele>117.2</ele>
        <time>2023-04-05T14:41:15Z</time>
      </trkpt>
      <trkpt lat="49.81239" lon="2.27462">
        <ele>117.2</ele>
        <time>2023-04-05T14:41:16Z</time>
      </trkpt>
      <trkpt lat="49.81238" lon="2.27462">
        <ele>117.2</ele>
        <time>2023-04-05T14:41:17Z</time>
      </trkpt>
      <trkpt lat="49.81237" lon="2.27461">
        <ele>117.3</ele>
        <time>2023-04-05T14:41:18Z</time>
      </trkpt>
      <trkpt lat="49.81236" lon="2.27461">
        <ele>117.3</ele>
        <time>2023-04-05T14:41:19Z</time>
      </trkpt>
      <trkpt lat="49.81235" lon="2.2746">
        <ele>117.3</ele>
        <time>2023-04-05T14:41:20Z</time>
      </trkpt>
      <trkpt lat="49.81233" lon="2.2746">
        <ele>117.3</ele>
        <time>2023-04-05T14:41:21Z</time>
      </trkpt>
      <trkpt lat="49.81232" lon="2.2746">
        <ele>117.3</ele>
        <time>2023-04-05T14:41:22Z</time>
      </trkpt>
      <trkpt lat="49.81231" lon="2.27459">
        <ele>117.3</ele>
        <time>2023-04-05T14:41:24Z</time>
      </trkpt>
      <trkpt lat="49.8123" lon="2.27459">
        <ele>117.3</ele>
        <time>2023-04-05T14:41:25Z</time>
      </trkpt>
      <trkpt lat="49.81229" lon="2.27458">
        <ele>117.3</ele>
        <time>2023-04-05T14:41:26Z</time>
      </trkpt>
      <trkpt lat="49.81228" lon="2.27457">
        <ele>117.3</ele>
        <time>2023-04-05T14:41:27Z</time>
      </trkpt>
      <trkpt lat="49.81227" lon="2.27457">
        <ele>117.3</ele>
        <time>2023-04-05T14:41:28Z</time>
      </trkpt>
      <trkpt lat="49.81226" lon="2.27456">
        <ele>117.3</ele>
        <time>2023-04-05T14:41:29Z</time>
      </trkpt>
      <trkpt lat="49.81225" lon="2.27456">
        <ele>117.3</ele>
        <time>2023-04-05T14:41:30Z</time>
      </trkpt>
      <trkpt lat="49.81224" lon="2.27456">
        <ele>117.3</ele>
        <time>2023-04-05T14:41:32Z</time>
      </trkpt>
      <trkpt lat="49.81222" lon="2.27455">
        <ele>117.3</ele>
        <time>2023-04-05T14:41:33Z</time>
      </trkpt>
      <trkpt lat="49.81222" lon="2.27455">
        <ele>117.3</ele>
        <time>2023-04-05T14:41:34Z</time>
      </trkpt>
      <trkpt lat="49.8122" lon="2.27455">
        <ele>117.3</ele>
        <time>2023-04-05T14:41:35Z</time>
      </trkpt>
      <trkpt lat="49.81218" lon="2.27454">
        <ele>117.3</ele>
        <time>2023-04-05T14:41:36Z</time>
      </trkpt>
      <trkpt lat="49.81217" lon="2.27454">
        <ele>117.3</ele>
        <time>2023-04-05T14:41:37Z</time>
      </trkpt>
      <trkpt lat="49.81216" lon="2.27454">
        <ele>117.3</ele>
        <time>2023-04-05T14:41:38Z</time>
      </trkpt>
      <trkpt lat="49.81215" lon="2.27454">
        <ele>117.3</ele>
        <time>2023-04-05T14:41:40Z</time>
      </trkpt>
      <trkpt lat="49.81214" lon="2.27454">
        <ele>117.3</ele>
        <time>2023-04-05T14:41:41Z</time>
      </trkpt>
      <trkpt lat="49.81213" lon="2.27453">
        <ele>117.3</ele>
        <time>2023-04-05T14:41:42Z</time>
      </trkpt>
      <trkpt lat="49.81211" lon="2.27453">
        <ele>117.3</ele>
        <time>2023-04-05T14:41:43Z</time>
      </trkpt>
      <trkpt lat="49.8121" lon="2.27453">
        <ele>117.3</ele>
        <time>2023-04-05T14:41:44Z</time>
      </trkpt>
      <trkpt lat="49.81209" lon="2.27452">
        <ele>117.3</ele>
        <time>2023-04-05T14:41:45Z</time>
      </trkpt>
      <trkpt lat="49.81208" lon="2.27452">
        <ele>117.3</ele>
        <time>2023-04-05T14:41:46Z</time>
      </trkpt>
      <trkpt lat="49.81207" lon="2.27451">
        <ele>117.3</ele>
        <time>2023-04-05T14:41:48Z</time>
      </trkpt>
      <trkpt lat="49.81206" lon="2.27451">
        <ele>117.3</ele>
        <time>2023-04-05T14:41:49Z</time>
      </trkpt>
      <trkpt lat="49.81204" lon="2.2745">
        <ele>117.3</ele>
        <time>2023-04-05T14:41:50Z</time>
      </trkpt>
      <trkpt lat="49.81203" lon="2.2745">
        <ele>117.3</ele>
        <time>2023-04-05T14:41:51Z</time>
      </trkpt>
      <trkpt lat="49.81202" lon="2.27449">
        <ele>117.3</ele>
        <time>2023-04-05T14:41:52Z</time>
      </trkpt>
      <trkpt lat="49.812" lon="2.27448">
        <ele>117.3</ele>
        <time>2023-04-05T14:41:53Z</time>
      </trkpt>
      <trkpt lat="49.81198" lon="2.27448">
        <ele>117.2</ele>
        <time>2023-04-05T14:41:54Z</time>
      </trkpt>
      <trkpt lat="49.81197" lon="2.27447">
        <ele>117.2</ele>
        <time>2023-04-05T14:41:55Z</time>
      </trkpt>
      <trkpt lat="49.81196" lon="2.27447">
        <ele>117.2</ele>
        <time>2023-04-05T14:41:57Z</time>
      </trkpt>
      <trkpt lat="49.81195" lon="2.27447">
        <ele>117.2</ele>
        <time>2023-04-05T14:41:58Z</time>
      </trkpt>
      <trkpt lat="49.81194" lon="2.27446">
        <ele>117.2</ele>
        <time>2023-04-05T14:41:59Z</time>
      </trkpt>
      <trkpt lat="49.81193" lon="2.27446">
        <ele>117.2</ele>
        <time>2023-04-05T14:42:00Z</time>
      </trkpt>
      <trkpt lat="49.81191" lon="2.27445">
        <ele>117.2</ele>
        <time>2023-04-05T14:42:01Z</time>
      </trkpt>
      <trkpt lat="49.8119" lon="2.27445">
        <ele>117.2</ele>
        <time>2023-04-05T14:42:02Z</time>
      </trkpt>
      <trkpt lat="49.8119" lon="2.27445">
        <ele>117.2</ele>
        <time>2023-04-05T14:42:03Z</time>
      </trkpt>
      <trkpt lat="49.81188" lon="2.27445">
        <ele>117.2</ele>
        <time>2023-04-05T14:42:04Z</time>
      </trkpt>
      <trkpt lat="49.81187" lon="2.27444">
        <ele>117.2</ele>
        <time>2023-04-05T14:42:06Z</time>
      </trkpt>
      <trkpt lat="49.81187" lon="2.27444">
        <ele>117.2</ele>
        <time>2023-04-05T14:42:07Z</time>
      </trkpt>
      <trkpt lat="49.81186" lon="2.27444">
        <ele>117.2</ele>
        <time>2023-04-05T14:42:08Z</time>
      </trkpt>
      <trkpt lat="49.81185" lon="2.27443">
        <ele>117.2</ele>
        <time>2023-04-05T14:42:09Z</time>
      </trkpt>
      <trkpt lat="49.81184" lon="2.27443">
        <ele>117.2</ele>
        <time>2023-04-05T14:42:10Z</time>
      </trkpt>
      <trkpt lat="49.81182" lon="2.27442">
        <ele>117.2</ele>
        <time>2023-04-05T14:42:11Z</time>
      </trkpt>
      <trkpt lat="49.81181" lon="2.27442">
        <ele>117.2</ele>
        <time>2023-04-05T14:42:12Z</time>
      </trkpt>
      <trkpt lat="49.8118" lon="2.27442">
        <ele>117.2</ele>
        <time>2023-04-05T14:42:13Z</time>
      </trkpt>
      <trkpt lat="49.81179" lon="2.27442">
        <ele>117.2</ele>
        <time>2023-04-05T14:42:14Z</time>
      </trkpt>
      <trkpt lat="49.81178" lon="2.27441">
        <ele>117.2</ele>
        <time>2023-04-05T14:42:16Z</time>
      </trkpt>
      <trkpt lat="49.81177" lon="2.27441">
        <ele>117.2</ele>
        <time>2023-04-05T14:42:17Z</time>
      </trkpt>
      <trkpt lat="49.81176" lon="2.27441">
        <ele>117.2</ele>
        <time>2023-04-05T14:42:18Z</time>
      </trkpt>
      <trkpt lat="49.81175" lon="2.2744">
        <ele>117.2</ele>
        <time>2023-04-05T14:42:19Z</time>
      </trkpt>
      <trkpt lat="49.81174" lon="2.27439">
        <ele>117.1</ele>
        <time>2023-04-05T14:42:20Z</time>
      </trkpt>
      <trkpt lat="49.81172" lon="2.27438">
        <ele>117.1</ele>
        <time>2023-04-05T14:42:21Z</time>
      </trkpt>
      <trkpt lat="49.81171" lon="2.27438">
        <ele>117.1</ele>
        <time>2023-04-05T14:42:22Z</time>
      </trkpt>
      <trkpt lat="49.81171" lon="2.27438">
        <ele>117.1</ele>
        <time>2023-04-05T14:42:23Z</time>
      </trkpt>
      <trkpt lat="49.81168" lon="2.27437">
        <ele>117.1</ele>
        <time>2023-04-05T14:42:25Z</time>
      </trkpt>
      <trkpt lat="49.81168" lon="2.27437">
        <ele>117.1</ele>
        <time>2023-04-05T14:42:26Z</time>
      </trkpt>
      <trkpt lat="49.81167" lon="2.27436">
        <ele>117.1</ele>
        <time>2023-04-05T14:42:27Z</time>
      </trkpt>
      <trkpt lat="49.81164" lon="2.27435">
        <ele>117.1</ele>
        <time>2023-04-05T14:42:28Z</time>
      </trkpt>
      <trkpt lat="49.81164" lon="2.27435">
        <ele>117.1</ele>
        <time>2023-04-05T14:42:29Z</time>
      </trkpt>
      <trkpt lat="49.81162" lon="2.27435">
        <ele>117.1</ele>
        <time>2023-04-05T14:42:31Z</time>
      </trkpt>
      <trkpt lat="49.81162" lon="2.27435">
        <ele>117.1</ele>
        <time>2023-04-05T14:42:32Z</time>
      </trkpt>
      <trkpt lat="49.8116" lon="2.27435">
        <ele>117.1</ele>
        <time>2023-04-05T14:42:33Z</time>
      </trkpt>
      <trkpt lat="49.81159" lon="2.27434">
        <ele>117.1</ele>
        <time>2023-04-05T14:42:34Z</time>
      </trkpt>
      <trkpt lat="49.81158" lon="2.27434">
        <ele>117.1</ele>
        <time>2023-04-05T14:42:35Z</time>
      </trkpt>
      <trkpt lat="49.81156" lon="2.27434">
        <ele>117.1</ele>
        <time>2023-04-05T14:42:36Z</time>
      </trkpt>
      <trkpt lat="49.81155" lon="2.27433">
        <ele>117.1</ele>
        <time>2023-04-05T14:42:38Z</time>
      </trkpt>
      <trkpt lat="49.81154" lon="2.27433">
        <ele>117.1</ele>
        <time>2023-04-05T14:42:39Z</time>
      </trkpt>
      <trkpt lat="49.81153" lon="2.27433">
        <ele>117</ele>
        <time>2023-04-05T14:42:40Z</time>
      </trkpt>
      <trkpt lat="49.81152" lon="2.27433">
        <ele>117</ele>
        <time>2023-04-05T14:42:41Z</time>
      </trkpt>
      <trkpt lat="49.81151" lon="2.27433">
        <ele>117</ele>
        <time>2023-04-05T14:42:42Z</time>
      </trkpt>
      <trkpt lat="49.81149" lon="2.27432">
        <ele>117</ele>
        <time>2023-04-05T14:42:43Z</time>
      </trkpt>
      <trkpt lat="49.81149" lon="2.27431">
        <ele>117</ele>
        <time>2023-04-05T14:42:45Z</time>
      </trkpt>
      <trkpt lat="49.81149" lon="2.27429">
        <ele>117</ele>
        <time>2023-04-05T14:42:46Z</time>
      </trkpt>
      <trkpt lat="49.81149" lon="2.27428">
        <ele>117</ele>
        <time>2023-04-05T14:42:47Z</time>
      </trkpt>
      <trkpt lat="49.81148" lon="2.27426">
        <ele>117</ele>
        <time>2023-04-05T14:42:48Z</time>
      </trkpt>
      <trkpt lat="49.81148" lon="2.27424">
        <ele>117</ele>
        <time>2023-04-05T14:42:49Z</time>
      </trkpt>
      <trkpt lat="49.81147" lon="2.27421">
        <ele>117</ele>
        <time>2023-04-05T14:42:51Z</time>
      </trkpt>
      <trkpt lat="49.81147" lon="2.2742">
        <ele>117</ele>
        <time>2023-04-05T14:42:52Z</time>
      </trkpt>
      <trkpt lat="49.81147" lon="2.27418">
        <ele>117</ele>
        <time>2023-04-05T14:42:53Z</time>
      </trkpt>
      <trkpt lat="49.81148" lon="2.27416">
        <ele>117</ele>
        <time>2023-04-05T14:42:54Z</time>
      </trkpt>
      <trkpt lat="49.81148" lon="2.27414">
        <ele>117</ele>
        <time>2023-04-05T14:42:56Z</time>
      </trkpt>
      <trkpt lat="49.81148" lon="2.27412">
        <ele>117</ele>
        <time>2023-04-05T14:42:57Z</time>
      </trkpt>
      <trkpt lat="49.81149" lon="2.27411">
        <ele>116.9</ele>
        <time>2023-04-05T14:42:58Z</time>
      </trkpt>
      <trkpt lat="49.81149" lon="2.27409">
        <ele>116.9</ele>
        <time>2023-04-05T14:43:00Z</time>
      </trkpt>
      <trkpt lat="49.81149" lon="2.27408">
        <ele>116.9</ele>
        <time>2023-04-05T14:43:01Z</time>
      </trkpt>
      <trkpt lat="49.81149" lon="2.27407">
        <ele>116.9</ele>
        <time>2023-04-05T14:43:02Z</time>
      </trkpt>
      <trkpt lat="49.8115" lon="2.27407">
        <ele>116.9</ele>
        <time>2023-04-05T14:43:03Z</time>
      </trkpt>
      <trkpt lat="49.81152" lon="2.27407">
        <ele>116.9</ele>
        <time>2023-04-05T14:43:05Z</time>
      </trkpt>
      <trkpt lat="49.81152" lon="2.27408">
        <ele>116.9</ele>
        <time>2023-04-05T14:43:06Z</time>
      </trkpt>
      <trkpt lat="49.81153" lon="2.27409">
        <ele>116.9</ele>
        <time>2023-04-05T14:43:08Z</time>
      </trkpt>
      <trkpt lat="49.81153" lon="2.2741">
        <ele>116.9</ele>
        <time>2023-04-05T14:43:09Z</time>
      </trkpt>
      <trkpt lat="49.81152" lon="2.27411">
        <ele>116.9</ele>
        <time>2023-04-05T14:43:11Z</time>
      </trkpt>
      <trkpt lat="49.81152" lon="2.27411">
        <ele>116.9</ele>
        <time>2023-04-05T14:43:12Z</time>
      </trkpt>
      <trkpt lat="49.81151" lon="2.27412">
        <ele>116.9</ele>
        <time>2023-04-05T14:43:13Z</time>
      </trkpt>
      <trkpt lat="49.81151" lon="2.27412">
        <ele>116.9</ele>
        <time>2023-04-05T14:43:15Z</time>
      </trkpt>
      <trkpt lat="49.81151" lon="2.27412">
        <ele>116.9</ele>
        <time>2023-04-05T14:43:17Z</time>
      </trkpt>
      <trkpt lat="49.81151" lon="2.27412">
        <ele>116.9</ele>
        <time>2023-04-05T14:43:18Z</time>
      </trkpt>
      <trkpt lat="49.81151" lon="2.27412">
        <ele>116.9</ele>
        <time>2023-04-05T14:43:19Z</time>
      </trkpt>
      <trkpt lat="49.81151" lon="2.27411">
        <ele>116.9</ele>
        <time>2023-04-05T14:43:21Z</time>
      </trkpt>
      <trkpt lat="49.81151" lon="2.27411">
        <ele>116.9</ele>
        <time>2023-04-05T14:43:22Z</time>
      </trkpt>
      <trkpt lat="49.81151" lon="2.27411">
        <ele>116.9</ele>
        <time>2023-04-05T14:43:23Z</time>
      </trkpt>
      <trkpt lat="49.81151" lon="2.27411">
        <ele>116.9</ele>
        <time>2023-04-05T14:43:24Z</time>
      </trkpt>
      <trkpt lat="49.81151" lon="2.27411">
        <ele>116.9</ele>
        <time>2023-04-05T14:43:25Z</time>
      </trkpt>
      <trkpt lat="49.81151" lon="2.27411">
        <ele>116.9</ele>
        <time>2023-04-05T14:43:26Z</time>
      </trkpt>
      <trkpt lat="49.81151" lon="2.27411">
        <ele>116.9</ele>
        <time>2023-04-05T14:43:27Z</time>
      </trkpt>
      <trkpt lat="49.81151" lon="2.27411">
        <ele>116.9</ele>
        <time>2023-04-05T14:43:28Z</time>
      </trkpt>
      <trkpt lat="49.81151" lon="2.27411">
        <ele>116.9</ele>
        <time>2023-04-05T14:43:29Z</time>
      </trkpt>
      <trkpt lat="49.81151" lon="2.27411">
        <ele>116.9</ele>
        <time>2023-04-05T14:43:30Z</time>
      </trkpt>
      <trkpt lat="49.81151" lon="2.27411">
        <ele>116.9</ele>
        <time>2023-04-05T14:43:31Z</time>
      </trkpt>
      <trkpt lat="49.81151" lon="2.27411">
        <ele>116.9</ele>
        <time>2023-04-05T14:43:32Z</time>
      </trkpt>
      <trkpt lat="49.81151" lon="2.27411">
        <ele>116.9</ele>
        <time>2023-04-05T14:43:33Z</time>
      </trkpt>
      <trkpt lat="49.81151" lon="2.27411">
        <ele>116.9</ele>
        <time>2023-04-05T14:43:34Z</time>
      </trkpt>
      <trkpt lat="49.81151" lon="2.27411">
        <ele>116.9</ele>
        <time>2023-04-05T14:43:35Z</time>
      </trkpt>
      <trkpt lat="49.81151" lon="2.27411">
        <ele>116.9</ele>
        <time>2023-04-05T14:43:36Z</time>
      </trkpt>
      <trkpt lat="49.81151" lon="2.27411">
        <ele>116.9</ele>
        <time>2023-04-05T14:43:37Z</time>
      </trkpt>
      <trkpt lat="49.81151" lon="2.27411">
        <ele>116.9</ele>
        <time>2023-04-05T14:43:38Z</time>
      </trkpt>
      <trkpt lat="49.81151" lon="2.27411">
        <ele>116.9</ele>
        <time>2023-04-05T14:43:39Z</time>
      </trkpt>
      <trkpt lat="49.81151" lon="2.27411">
        <ele>116.9</ele>
        <time>2023-04-05T14:43:40Z</time>
      </trkpt>
      <trkpt lat="49.81151" lon="2.27411">
        <ele>116.9</ele>
        <time>2023-04-05T14:43:41Z</time>
      </trkpt>
      <trkpt lat="49.81151" lon="2.27411">
        <ele>116.9</ele>
        <time>2023-04-05T14:43:42Z</time>
      </trkpt>
      <trkpt lat="49.81151" lon="2.27411">
        <ele>116.9</ele>
        <time>2023-04-05T14:43:43Z</time>
      </trkpt>
      <trkpt lat="49.81151" lon="2.27411">
        <ele>116.9</ele>
        <time>2023-04-05T14:43:44Z</time>
      </trkpt>
      <trkpt lat="49.81151" lon="2.27411">
        <ele>116.9</ele>
        <time>2023-04-05T14:43:45Z</time>
      </trkpt>
      <trkpt lat="49.81151" lon="2.27411">
        <ele>116.9</ele>
        <time>2023-04-05T14:43:46Z</time>
      </trkpt>
      <trkpt lat="49.81151" lon="2.27411">
        <ele>116.9</ele>
        <time>2023-04-05T14:43:47Z</time>
      </trkpt>
      <trkpt lat="49.81151" lon="2.27411">
        <ele>116.9</ele>
        <time>2023-04-05T14:43:48Z</time>
      </trkpt>
      <trkpt lat="49.81151" lon="2.27411">
        <ele>116.9</ele>
        <time>2023-04-05T14:43:49Z</time>
      </trkpt>
      <trkpt lat="49.81151" lon="2.27414">
        <ele>116.9</ele>
        <time>2023-04-05T14:43:50Z</time>
      </trkpt>
      <trkpt lat="49.81151" lon="2.27415">
        <ele>116.9</ele>
        <time>2023-04-05T14:43:51Z</time>
      </trkpt>
      <trkpt lat="49.8115" lon="2.27415">
        <ele>116.9</ele>
        <time>2023-04-05T14:43:52Z</time>
      </trkpt>
      <trkpt lat="49.8115" lon="2.27416">
        <ele>116.9</ele>
        <time>2023-04-05T14:43:53Z</time>
      </trkpt>
      <trkpt lat="49.8115" lon="2.27416">
        <ele>116.9</ele>
        <time>2023-04-05T14:43:54Z</time>
      </trkpt>
      <trkpt lat="49.8115" lon="2.27416">
        <ele>116.9</ele>
        <time>2023-04-05T14:43:55Z</time>
      </trkpt>
      <trkpt lat="49.8115" lon="2.27416">
        <ele>116.9</ele>
        <time>2023-04-05T14:43:56Z</time>
      </trkpt>
      <trkpt lat="49.8115" lon="2.27416">
        <ele>116.9</ele>
        <time>2023-04-05T14:43:57Z</time>
      </trkpt>
      <trkpt lat="49.8115" lon="2.27416">
        <ele>116.9</ele>
        <time>2023-04-05T14:43:58Z</time>
      </trkpt>
      <trkpt lat="49.8115" lon="2.27416">
        <ele>116.9</ele>
        <time>2023-04-05T14:43:59Z</time>
      </trkpt>
      <trkpt lat="49.8115" lon="2.27416">
        <ele>116.9</ele>
        <time>2023-04-05T14:44:00Z</time>
      </trkpt>
      <trkpt lat="49.8115" lon="2.27416">
        <ele>116.9</ele>
        <time>2023-04-05T14:44:01Z</time>
      </trkpt>
      <trkpt lat="49.8115" lon="2.27417">
        <ele>116.9</ele>
        <time>2023-04-05T14:44:02Z</time>
      </trkpt>
      <trkpt lat="49.8115" lon="2.27417">
        <ele>116.9</ele>
        <time>2023-04-05T14:44:03Z</time>
      </trkpt>
      <trkpt lat="49.8115" lon="2.27417">
        <ele>116.9</ele>
        <time>2023-04-05T14:44:04Z</time>
      </trkpt>
      <trkpt lat="49.8115" lon="2.27417">
        <ele>116.9</ele>
        <time>2023-04-05T14:44:05Z</time>
      </trkpt>
      <trkpt lat="49.8115" lon="2.27417">
        <ele>116.9</ele>
        <time>2023-04-05T14:44:06Z</time>
      </trkpt>
      <trkpt lat="49.8115" lon="2.27417">
        <ele>116.9</ele>
        <time>2023-04-05T14:44:07Z</time>
      </trkpt>
      <trkpt lat="49.8115" lon="2.27417">
        <ele>116.9</ele>
        <time>2023-04-05T14:44:08Z</time>
      </trkpt>
      <trkpt lat="49.8115" lon="2.27417">
        <ele>116.9</ele>
        <time>2023-04-05T14:44:09Z</time>
      </trkpt>
      <trkpt lat="49.8115" lon="2.27417">
        <ele>116.9</ele>
        <time>2023-04-05T14:44:10Z</time>
      </trkpt>
      <trkpt lat="49.8115" lon="2.27417">
        <ele>116.9</ele>
        <time>2023-04-05T14:44:11Z</time>
      </trkpt>
      <trkpt lat="49.8115" lon="2.27417">
        <ele>116.9</ele>
        <time>2023-04-05T14:44:12Z</time>
      </trkpt>
      <trkpt lat="49.8115" lon="2.27417">
        <ele>116.9</ele>
        <time>2023-04-05T14:44:13Z</time>
      </trkpt>
      <trkpt lat="49.8115" lon="2.27417">
        <ele>116.9</ele>
        <time>2023-04-05T14:44:14Z</time>
      </trkpt>
      <trkpt lat="49.8115" lon="2.27417">
        <ele>116.9</ele>
        <time>2023-04-05T14:44:15Z</time>
      </trkpt>
      <trkpt lat="49.8115" lon="2.27417">
        <ele>116.9</ele>
        <time>2023-04-05T14:44:16Z</time>
      </trkpt>
      <trkpt lat="49.8115" lon="2.27417">
        <ele>116.9</ele>
        <time>2023-04-05T14:44:17Z</time>
      </trkpt>
      <trkpt lat="49.8115" lon="2.27417">
        <ele>116.9</ele>
        <time>2023-04-05T14:44:18Z</time>
      </trkpt>
      <trkpt lat="49.8115" lon="2.27417">
        <ele>116.9</ele>
        <time>2023-04-05T14:44:19Z</time>
      </trkpt>
      <trkpt lat="49.8115" lon="2.27417">
        <ele>116.9</ele>
        <time>2023-04-05T14:44:20Z</time>
      </trkpt>
      <trkpt lat="49.8115" lon="2.27417">
        <ele>116.9</ele>
        <time>2023-04-05T14:44:21Z</time>
      </trkpt>
      <trkpt lat="49.8115" lon="2.27417">
        <ele>116.9</ele>
        <time>2023-04-05T14:44:22Z</time>
      </trkpt>
      <trkpt lat="49.8115" lon="2.27417">
        <ele>116.9</ele>
        <time>2023-04-05T14:44:23Z</time>
      </trkpt>
      <trkpt lat="49.8115" lon="2.27417">
        <ele>116.9</ele>
        <time>2023-04-05T14:44:24Z</time>
      </trkpt>
      <trkpt lat="49.8115" lon="2.27417">
        <ele>116.9</ele>
        <time>2023-04-05T14:44:25Z</time>
      </trkpt>
      <trkpt lat="49.8115" lon="2.27417">
        <ele>116.9</ele>
        <time>2023-04-05T14:44:26Z</time>
      </trkpt>
      <trkpt lat="49.8115" lon="2.27417">
        <ele>116.9</ele>
        <time>2023-04-05T14:44:27Z</time>
      </trkpt>
      <trkpt lat="49.8115" lon="2.27417">
        <ele>116.9</ele>
        <time>2023-04-05T14:44:28Z</time>
      </trkpt>
      <trkpt lat="49.8115" lon="2.27417">
        <ele>116.9</ele>
        <time>2023-04-05T14:44:29Z</time>
      </trkpt>
      <trkpt lat="49.8115" lon="2.27417">
        <ele>116.9</ele>
        <time>2023-04-05T14:44:30Z</time>
      </trkpt>
      <trkpt lat="49.8115" lon="2.27417">
        <ele>116.9</ele>
        <time>2023-04-05T14:44:31Z</time>
      </trkpt>
      <trkpt lat="49.8115" lon="2.27417">
        <ele>116.9</ele>
        <time>2023-04-05T14:44:32Z</time>
      </trkpt>
      <trkpt lat="49.8115" lon="2.27418">
        <ele>116.8</ele>
        <time>2023-04-05T14:44:33Z</time>
      </trkpt>
      <trkpt lat="49.8115" lon="2.27418">
        <ele>116.8</ele>
        <time>2023-04-05T14:44:34Z</time>
      </trkpt>
      <trkpt lat="49.8115" lon="2.27418">
        <ele>116.8</ele>
        <time>2023-04-05T14:44:35Z</time>
      </trkpt>
      <trkpt lat="49.8115" lon="2.27418">
        <ele>116.8</ele>
        <time>2023-04-05T14:44:36Z</time>
      </trkpt>
      <trkpt lat="49.8115" lon="2.27418">
        <ele>116.8</ele>
        <time>2023-04-05T14:44:37Z</time>
      </trkpt>
      <trkpt lat="49.8115" lon="2.27418">
        <ele>116.8</ele>
        <time>2023-04-05T14:44:38Z</time>
      </trkpt>
      <trkpt lat="49.8115" lon="2.27418">
        <ele>116.8</ele>
        <time>2023-04-05T14:44:39Z</time>
      </trkpt>
      <trkpt lat="49.8115" lon="2.27418">
        <ele>116.8</ele>
        <time>2023-04-05T14:44:40Z</time>
      </trkpt>
      <trkpt lat="49.8115" lon="2.27418">
        <ele>116.8</ele>
        <time>2023-04-05T14:44:41Z</time>
      </trkpt>
      <trkpt lat="49.8115" lon="2.27418">
        <ele>116.8</ele>
        <time>2023-04-05T14:44:42Z</time>
      </trkpt>
      <trkpt lat="49.8115" lon="2.27418">
        <ele>116.8</ele>
        <time>2023-04-05T14:44:43Z</time>
      </trkpt>
      <trkpt lat="49.8115" lon="2.27418">
        <ele>116.8</ele>
        <time>2023-04-05T14:44:44Z</time>
      </trkpt>
      <trkpt lat="49.8115" lon="2.27418">
        <ele>116.8</ele>
        <time>2023-04-05T14:44:45Z</time>
      </trkpt>
      <trkpt lat="49.8115" lon="2.27418">
        <ele>116.8</ele>
        <time>2023-04-05T14:44:46Z</time>
      </trkpt>
      <trkpt lat="49.8115" lon="2.27418">
        <ele>116.8</ele>
        <time>2023-04-05T14:44:47Z</time>
      </trkpt>
      <trkpt lat="49.8115" lon="2.27418">
        <ele>116.8</ele>
        <time>2023-04-05T14:44:48Z</time>
      </trkpt>
      <trkpt lat="49.8115" lon="2.27418">
        <ele>116.8</ele>
        <time>2023-04-05T14:44:49Z</time>
      </trkpt>
      <trkpt lat="49.8115" lon="2.27418">
        <ele>116.8</ele>
        <time>2023-04-05T14:44:50Z</time>
      </trkpt>
      <trkpt lat="49.8115" lon="2.27418">
        <ele>116.8</ele>
        <time>2023-04-05T14:44:51Z</time>
      </trkpt>
      <trkpt lat="49.8115" lon="2.27418">
        <ele>116.8</ele>
        <time>2023-04-05T14:44:52Z</time>
      </trkpt>
      <trkpt lat="49.8115" lon="2.27418">
        <ele>116.8</ele>
        <time>2023-04-05T14:44:53Z</time>
      </trkpt>
      <trkpt lat="49.8115" lon="2.27418">
        <ele>116.8</ele>
        <time>2023-04-05T14:44:54Z</time>
      </trkpt>
      <trkpt lat="49.8115" lon="2.27417">
        <ele>116.8</ele>
        <time>2023-04-05T14:44:55Z</time>
      </trkpt>
      <trkpt lat="49.8115" lon="2.27417">
        <ele>116.8</ele>
        <time>2023-04-05T14:44:56Z</time>
      </trkpt>
      <trkpt lat="49.81151" lon="2.27417">
        <ele>116.8</ele>
        <time>2023-04-05T14:44:57Z</time>
      </trkpt>
      <trkpt lat="49.81151" lon="2.27417">
        <ele>116.8</ele>
        <time>2023-04-05T14:44:58Z</time>
      </trkpt>
      <trkpt lat="49.8115" lon="2.27419">
        <ele>116.8</ele>
        <time>2023-04-05T14:45:00Z</time>
      </trkpt>
      <trkpt lat="49.8115" lon="2.27419">
        <ele>116.8</ele>
        <time>2023-04-05T14:45:01Z</time>
      </trkpt>
      <trkpt lat="49.8115" lon="2.2742">
        <ele>116.8</ele>
        <time>2023-04-05T14:45:03Z</time>
      </trkpt>
      <trkpt lat="49.8115" lon="2.2742">
        <ele>116.8</ele>
        <time>2023-04-05T14:45:04Z</time>
      </trkpt>
      <trkpt lat="49.8115" lon="2.27419">
        <ele>116.8</ele>
        <time>2023-04-05T14:45:06Z</time>
      </trkpt>
      <trkpt lat="49.8115" lon="2.27419">
        <ele>116.8</ele>
        <time>2023-04-05T14:45:07Z</time>
      </trkpt>
      <trkpt lat="49.8115" lon="2.27418">
        <ele>116.8</ele>
        <time>2023-04-05T14:45:08Z</time>
      </trkpt>
      <trkpt lat="49.8115" lon="2.27418">
        <ele>116.8</ele>
        <time>2023-04-05T14:45:10Z</time>
      </trkpt>
      <trkpt lat="49.8115" lon="2.27419">
        <ele>116.8</ele>
        <time>2023-04-05T14:45:11Z</time>
      </trkpt>
      <trkpt lat="49.8115" lon="2.27418">
        <ele>116.8</ele>
        <time>2023-04-05T14:45:13Z</time>
      </trkpt>
      <trkpt lat="49.8115" lon="2.27418">
        <ele>116.8</ele>
        <time>2023-04-05T14:45:14Z</time>
      </trkpt>
      <trkpt lat="49.8115" lon="2.27418">
        <ele>116.8</ele>
        <time>2023-04-05T14:45:15Z</time>
      </trkpt>
      <trkpt lat="49.8115" lon="2.27417">
        <ele>116.8</ele>
        <time>2023-04-05T14:45:16Z</time>
      </trkpt>
      <trkpt lat="49.8115" lon="2.27417">
        <ele>116.8</ele>
        <time>2023-04-05T14:45:17Z</time>
      </trkpt>
      <trkpt lat="49.8115" lon="2.27417">
        <ele>116.8</ele>
        <time>2023-04-05T14:45:18Z</time>
      </trkpt>
      <trkpt lat="49.8115" lon="2.27417">
        <ele>116.8</ele>
        <time>2023-04-05T14:45:19Z</time>
      </trkpt>
      <trkpt lat="49.8115" lon="2.27417">
        <ele>116.8</ele>
        <time>2023-04-05T14:45:20Z</time>
      </trkpt>
      <trkpt lat="49.8115" lon="2.27417">
        <ele>116.8</ele>
        <time>2023-04-05T14:45:21Z</time>
      </trkpt>
      <trkpt lat="49.8115" lon="2.27417">
        <ele>116.8</ele>
        <time>2023-04-05T14:45:22Z</time>
      </trkpt>
      <trkpt lat="49.8115" lon="2.27417">
        <ele>116.8</ele>
        <time>2023-04-05T14:45:23Z</time>
      </trkpt>
      <trkpt lat="49.8115" lon="2.27417">
        <ele>116.8</ele>
        <time>2023-04-05T14:45:24Z</time>
      </trkpt>
      <trkpt lat="49.8115" lon="2.27417">
        <ele>116.8</ele>
        <time>2023-04-05T14:45:25Z</time>
      </trkpt>
      <trkpt lat="49.8115" lon="2.27417">
        <ele>116.8</ele>
        <time>2023-04-05T14:45:26Z</time>
      </trkpt>
      <trkpt lat="49.8115" lon="2.27417">
        <ele>116.8</ele>
        <time>2023-04-05T14:45:27Z</time>
      </trkpt>
      <trkpt lat="49.8115" lon="2.27417">
        <ele>116.8</ele>
        <time>2023-04-05T14:45:28Z</time>
      </trkpt>
      <trkpt lat="49.8115" lon="2.27417">
        <ele>116.8</ele>
        <time>2023-04-05T14:45:29Z</time>
      </trkpt>
      <trkpt lat="49.8115" lon="2.27417">
        <ele>116.8</ele>
        <time>2023-04-05T14:45:30Z</time>
      </trkpt>
      <trkpt lat="49.8115" lon="2.27417">
        <ele>116.8</ele>
        <time>2023-04-05T14:45:31Z</time>
      </trkpt>
      <trkpt lat="49.8115" lon="2.27417">
        <ele>116.8</ele>
        <time>2023-04-05T14:45:32Z</time>
      </trkpt>
      <trkpt lat="49.8115" lon="2.27417">
        <ele>116.8</ele>
        <time>2023-04-05T14:45:33Z</time>
      </trkpt>
      <trkpt lat="49.8115" lon="2.27417">
        <ele>116.8</ele>
        <time>2023-04-05T14:45:34Z</time>
      </trkpt>
      <trkpt lat="49.8115" lon="2.27417">
        <ele>116.8</ele>
        <time>2023-04-05T14:45:35Z</time>
      </trkpt>
      <trkpt lat="49.8115" lon="2.27417">
        <ele>116.8</ele>
        <time>2023-04-05T14:45:36Z</time>
      </trkpt>
      <trkpt lat="49.8115" lon="2.27417">
        <ele>116.8</ele>
        <time>2023-04-05T14:45:37Z</time>
      </trkpt>
      <trkpt lat="49.8115" lon="2.27417">
        <ele>116.8</ele>
        <time>2023-04-05T14:45:38Z</time>
      </trkpt>
      <trkpt lat="49.8115" lon="2.27417">
        <ele>116.8</ele>
        <time>2023-04-05T14:45:39Z</time>
      </trkpt>
      <trkpt lat="49.8115" lon="2.27417">
        <ele>116.8</ele>
        <time>2023-04-05T14:45:40Z</time>
      </trkpt>
      <trkpt lat="49.8115" lon="2.27417">
        <ele>116.8</ele>
        <time>2023-04-05T14:45:41Z</time>
      </trkpt>
      <trkpt lat="49.8115" lon="2.27417">
        <ele>116.8</ele>
        <time>2023-04-05T14:45:42Z</time>
      </trkpt>
      <trkpt lat="49.8115" lon="2.27417">
        <ele>116.8</ele>
        <time>2023-04-05T14:45:43Z</time>
      </trkpt>
      <trkpt lat="49.81151" lon="2.27419">
        <ele>116.8</ele>
        <time>2023-04-05T14:45:44Z</time>
      </trkpt>
      <trkpt lat="49.81151" lon="2.27421">
        <ele>116.8</ele>
        <time>2023-04-05T14:45:45Z</time>
      </trkpt>
      <trkpt lat="49.81151" lon="2.27421">
        <ele>116.8</ele>
        <time>2023-04-05T14:45:46Z</time>
      </trkpt>
      <trkpt lat="49.81151" lon="2.27421">
        <ele>116.8</ele>
        <time>2023-04-05T14:45:47Z</time>
      </trkpt>
      <trkpt lat="49.81151" lon="2.27421">
        <ele>116.8</ele>
        <time>2023-04-05T14:45:48Z</time>
      </trkpt>
      <trkpt lat="49.81151" lon="2.27421">
        <ele>116.8</ele>
        <time>2023-04-05T14:45:49Z</time>
      </trkpt>
      <trkpt lat="49.81151" lon="2.27421">
        <ele>116.8</ele>
        <time>2023-04-05T14:45:50Z</time>
      </trkpt>
      <trkpt lat="49.81151" lon="2.27421">
        <ele>116.8</ele>
        <time>2023-04-05T14:45:51Z</time>
      </trkpt>
      <trkpt lat="49.81151" lon="2.27421">
        <ele>116.8</ele>
        <time>2023-04-05T14:45:52Z</time>
      </trkpt>
      <trkpt lat="49.81151" lon="2.27421">
        <ele>116.8</ele>
        <time>2023-04-05T14:45:53Z</time>
      </trkpt>
      <trkpt lat="49.81151" lon="2.27421">
        <ele>116.8</ele>
        <time>2023-04-05T14:45:54Z</time>
      </trkpt>
      <trkpt lat="49.81151" lon="2.27421">
        <ele>116.8</ele>
        <time>2023-04-05T14:45:55Z</time>
      </trkpt>
      <trkpt lat="49.81151" lon="2.27421">
        <ele>116.8</ele>
        <time>2023-04-05T14:45:56Z</time>
      </trkpt>
      <trkpt lat="49.81151" lon="2.27421">
        <ele>116.8</ele>
        <time>2023-04-05T14:45:57Z</time>
      </trkpt>
      <trkpt lat="49.81151" lon="2.27421">
        <ele>116.8</ele>
        <time>2023-04-05T14:45:58Z</time>
      </trkpt>
      <trkpt lat="49.81151" lon="2.27421">
        <ele>116.8</ele>
        <time>2023-04-05T14:45:59Z</time>
      </trkpt>
      <trkpt lat="49.81151" lon="2.27421">
        <ele>116.8</ele>
        <time>2023-04-05T14:46:00Z</time>
      </trkpt>
      <trkpt lat="49.81151" lon="2.27421">
        <ele>116.8</ele>
        <time>2023-04-05T14:46:01Z</time>
      </trkpt>
      <trkpt lat="49.81151" lon="2.27421">
        <ele>116.8</ele>
        <time>2023-04-05T14:46:02Z</time>
      </trkpt>
      <trkpt lat="49.81151" lon="2.27421">
        <ele>116.8</ele>
        <time>2023-04-05T14:46:03Z</time>
      </trkpt>
      <trkpt lat="49.81151" lon="2.27421">
        <ele>116.8</ele>
        <time>2023-04-05T14:46:04Z</time>
      </trkpt>
      <trkpt lat="49.81151" lon="2.27421">
        <ele>116.8</ele>
        <time>2023-04-05T14:46:05Z</time>
      </trkpt>
      <trkpt lat="49.81151" lon="2.27421">
        <ele>116.8</ele>
        <time>2023-04-05T14:46:06Z</time>
      </trkpt>
      <trkpt lat="49.81151" lon="2.27421">
        <ele>116.8</ele>
        <time>2023-04-05T14:46:07Z</time>
      </trkpt>
      <trkpt lat="49.81151" lon="2.27421">
        <ele>116.8</ele>
        <time>2023-04-05T14:46:08Z</time>
      </trkpt>
      <trkpt lat="49.81151" lon="2.27421">
        <ele>116.8</ele>
        <time>2023-04-05T14:46:09Z</time>
      </trkpt>
      <trkpt lat="49.81151" lon="2.27421">
        <ele>116.8</ele>
        <time>2023-04-05T14:46:10Z</time>
      </trkpt>
      <trkpt lat="49.81151" lon="2.27421">
        <ele>116.8</ele>
        <time>2023-04-05T14:46:11Z</time>
      </trkpt>
      <trkpt lat="49.81151" lon="2.27421">
        <ele>116.8</ele>
        <time>2023-04-05T14:46:12Z</time>
      </trkpt>
      <trkpt lat="49.81151" lon="2.27421">
        <ele>116.8</ele>
        <time>2023-04-05T14:46:13Z</time>
      </trkpt>
      <trkpt lat="49.81151" lon="2.27421">
        <ele>116.8</ele>
        <time>2023-04-05T14:46:14Z</time>
      </trkpt>
      <trkpt lat="49.81151" lon="2.27421">
        <ele>116.8</ele>
        <time>2023-04-05T14:46:15Z</time>
      </trkpt>
      <trkpt lat="49.81151" lon="2.27421">
        <ele>116.8</ele>
        <time>2023-04-05T14:46:16Z</time>
      </trkpt>
      <trkpt lat="49.81151" lon="2.27421">
        <ele>116.8</ele>
        <time>2023-04-05T14:46:17Z</time>
      </trkpt>
      <trkpt lat="49.81151" lon="2.27421">
        <ele>116.8</ele>
        <time>2023-04-05T14:46:18Z</time>
      </trkpt>
      <trkpt lat="49.81151" lon="2.27421">
        <ele>116.8</ele>
        <time>2023-04-05T14:46:19Z</time>
      </trkpt>
      <trkpt lat="49.81151" lon="2.27421">
        <ele>116.8</ele>
        <time>2023-04-05T14:46:20Z</time>
      </trkpt>
      <trkpt lat="49.81151" lon="2.27421">
        <ele>116.8</ele>
        <time>2023-04-05T14:46:21Z</time>
      </trkpt>
      <trkpt lat="49.81151" lon="2.27421">
        <ele>116.8</ele>
        <time>2023-04-05T14:46:22Z</time>
      </trkpt>
      <trkpt lat="49.81151" lon="2.27421">
        <ele>116.8</ele>
        <time>2023-04-05T14:46:23Z</time>
      </trkpt>
      <trkpt lat="49.81151" lon="2.27421">
        <ele>116.8</ele>
        <time>2023-04-05T14:46:24Z</time>
      </trkpt>
      <trkpt lat="49.81151" lon="2.27421">
        <ele>116.8</ele>
        <time>2023-04-05T14:46:25Z</time>
      </trkpt>
      <trkpt lat="49.81151" lon="2.27421">
        <ele>116.8</ele>
        <time>2023-04-05T14:46:26Z</time>
      </trkpt>
      <trkpt lat="49.81151" lon="2.27421">
        <ele>116.8</ele>
        <time>2023-04-05T14:46:27Z</time>
      </trkpt>
      <trkpt lat="49.81151" lon="2.27421">
        <ele>116.8</ele>
        <time>2023-04-05T14:46:28Z</time>
      </trkpt>
      <trkpt lat="49.81151" lon="2.27421">
        <ele>116.8</ele>
        <time>2023-04-05T14:46:29Z</time>
      </trkpt>
      <trkpt lat="49.81151" lon="2.27421">
        <ele>116.8</ele>
        <time>2023-04-05T14:46:30Z</time>
      </trkpt>
      <trkpt lat="49.81151" lon="2.27421">
        <ele>116.8</ele>
        <time>2023-04-05T14:46:31Z</time>
      </trkpt>
      <trkpt lat="49.81151" lon="2.27421">
        <ele>116.8</ele>
        <time>2023-04-05T14:46:32Z</time>
      </trkpt>
      <trkpt lat="49.81151" lon="2.27421">
        <ele>116.8</ele>
        <time>2023-04-05T14:46:33Z</time>
      </trkpt>
      <trkpt lat="49.81151" lon="2.27421">
        <ele>116.8</ele>
        <time>2023-04-05T14:46:34Z</time>
      </trkpt>
      <trkpt lat="49.81151" lon="2.27421">
        <ele>116.8</ele>
        <time>2023-04-05T14:46:35Z</time>
      </trkpt>
      <trkpt lat="49.81151" lon="2.27421">
        <ele>116.8</ele>
        <time>2023-04-05T14:46:36Z</time>
      </trkpt>
      <trkpt lat="49.81151" lon="2.27421">
        <ele>116.8</ele>
        <time>2023-04-05T14:46:37Z</time>
      </trkpt>
      <trkpt lat="49.81151" lon="2.27421">
        <ele>116.8</ele>
        <time>2023-04-05T14:46:38Z</time>
      </trkpt>
      <trkpt lat="49.81151" lon="2.27421">
        <ele>116.8</ele>
        <time>2023-04-05T14:46:39Z</time>
      </trkpt>
      <trkpt lat="49.81151" lon="2.27421">
        <ele>116.8</ele>
        <time>2023-04-05T14:46:40Z</time>
      </trkpt>
      <trkpt lat="49.81151" lon="2.27421">
        <ele>116.8</ele>
        <time>2023-04-05T14:46:41Z</time>
      </trkpt>
      <trkpt lat="49.81151" lon="2.27421">
        <ele>116.8</ele>
        <time>2023-04-05T14:46:42Z</time>
      </trkpt>
      <trkpt lat="49.81151" lon="2.27421">
        <ele>116.8</ele>
        <time>2023-04-05T14:46:43Z</time>
      </trkpt>
      <trkpt lat="49.81151" lon="2.27421">
        <ele>116.8</ele>
        <time>2023-04-05T14:46:44Z</time>
      </trkpt>
      <trkpt lat="49.81151" lon="2.27421">
        <ele>116.8</ele>
        <time>2023-04-05T14:46:45Z</time>
      </trkpt>
      <trkpt lat="49.81151" lon="2.27421">
        <ele>116.8</ele>
        <time>2023-04-05T14:46:46Z</time>
      </trkpt>
      <trkpt lat="49.81151" lon="2.27421">
        <ele>116.8</ele>
        <time>2023-04-05T14:46:47Z</time>
      </trkpt>
      <trkpt lat="49.81151" lon="2.27421">
        <ele>116.8</ele>
        <time>2023-04-05T14:46:48Z</time>
      </trkpt>
      <trkpt lat="49.81151" lon="2.27421">
        <ele>116.8</ele>
        <time>2023-04-05T14:46:49Z</time>
      </trkpt>
      <trkpt lat="49.81151" lon="2.27421">
        <ele>116.8</ele>
        <time>2023-04-05T14:46:50Z</time>
      </trkpt>
      <trkpt lat="49.81152" lon="2.27421">
        <ele>116.8</ele>
        <time>2023-04-05T14:46:51Z</time>
      </trkpt>
      <trkpt lat="49.81152" lon="2.2742">
        <ele>116.8</ele>
        <time>2023-04-05T14:46:53Z</time>
      </trkpt>
      <trkpt lat="49.81152" lon="2.2742">
        <ele>116.8</ele>
        <time>2023-04-05T14:46:54Z</time>
      </trkpt>
      <trkpt lat="49.81152" lon="2.2742">
        <ele>116.8</ele>
        <time>2023-04-05T14:46:56Z</time>
      </trkpt>
      <trkpt lat="49.81152" lon="2.2742">
        <ele>116.8</ele>
        <time>2023-04-05T14:46:57Z</time>
      </trkpt>
      <trkpt lat="49.81152" lon="2.2742">
        <ele>116.8</ele>
        <time>2023-04-05T14:46:59Z</time>
      </trkpt>
      <trkpt lat="49.81152" lon="2.27421">
        <ele>116.8</ele>
        <time>2023-04-05T14:47:00Z</time>
      </trkpt>
      <trkpt lat="49.81152" lon="2.27421">
        <ele>116.8</ele>
        <time>2023-04-05T14:47:02Z</time>
      </trkpt>
      <trkpt lat="49.81152" lon="2.27421">
        <ele>116.8</ele>
        <time>2023-04-05T14:47:03Z</time>
      </trkpt>
      <trkpt lat="49.81152" lon="2.27421">
        <ele>116.8</ele>
        <time>2023-04-05T14:47:04Z</time>
      </trkpt>
      <trkpt lat="49.81152" lon="2.27421">
        <ele>116.8</ele>
        <time>2023-04-05T14:47:06Z</time>
      </trkpt>
      <trkpt lat="49.81152" lon="2.27421">
        <ele>116.8</ele>
        <time>2023-04-05T14:47:07Z</time>
      </trkpt>
      <trkpt lat="49.81152" lon="2.27421">
        <ele>116.8</ele>
        <time>2023-04-05T14:47:09Z</time>
      </trkpt>
      <trkpt lat="49.81152" lon="2.27421">
        <ele>116.8</ele>
        <time>2023-04-05T14:47:10Z</time>
      </trkpt>
      <trkpt lat="49.81152" lon="2.27421">
        <ele>116.8</ele>
        <time>2023-04-05T14:47:12Z</time>
      </trkpt>
      <trkpt lat="49.81152" lon="2.27421">
        <ele>116.8</ele>
        <time>2023-04-05T14:47:13Z</time>
      </trkpt>
      <trkpt lat="49.81151" lon="2.27421">
        <ele>116.8</ele>
        <time>2023-04-05T14:47:14Z</time>
      </trkpt>
      <trkpt lat="49.81151" lon="2.27421">
        <ele>116.8</ele>
        <time>2023-04-05T14:47:15Z</time>
      </trkpt>
      <trkpt lat="49.81151" lon="2.27421">
        <ele>116.8</ele>
        <time>2023-04-05T14:47:16Z</time>
      </trkpt>
      <trkpt lat="49.81151" lon="2.27421">
        <ele>116.8</ele>
        <time>2023-04-05T14:47:17Z</time>
      </trkpt>
      <trkpt lat="49.81151" lon="2.27421">
        <ele>116.8</ele>
        <time>2023-04-05T14:47:18Z</time>
      </trkpt>
      <trkpt lat="49.81151" lon="2.27421">
        <ele>116.8</ele>
        <time>2023-04-05T14:47:19Z</time>
      </trkpt>
      <trkpt lat="49.81151" lon="2.27421">
        <ele>116.8</ele>
        <time>2023-04-05T14:47:20Z</time>
      </trkpt>
      <trkpt lat="49.81151" lon="2.27421">
        <ele>116.8</ele>
        <time>2023-04-05T14:47:21Z</time>
      </trkpt>
      <trkpt lat="49.81151" lon="2.27421">
        <ele>116.8</ele>
        <time>2023-04-05T14:47:22Z</time>
      </trkpt>
      <trkpt lat="49.81151" lon="2.27421">
        <ele>116.8</ele>
        <time>2023-04-05T14:47:23Z</time>
      </trkpt>
      <trkpt lat="49.81151" lon="2.27421">
        <ele>116.8</ele>
        <time>2023-04-05T14:47:24Z</time>
      </trkpt>
      <trkpt lat="49.81151" lon="2.27421">
        <ele>116.8</ele>
        <time>2023-04-05T14:47:25Z</time>
      </trkpt>
      <trkpt lat="49.81151" lon="2.27421">
        <ele>116.8</ele>
        <time>2023-04-05T14:47:26Z</time>
      </trkpt>
      <trkpt lat="49.81151" lon="2.27421">
        <ele>116.8</ele>
        <time>2023-04-05T14:47:27Z</time>
      </trkpt>
      <trkpt lat="49.81151" lon="2.27421">
        <ele>116.8</ele>
        <time>2023-04-05T14:47:28Z</time>
      </trkpt>
      <trkpt lat="49.81152" lon="2.27422">
        <ele>116.8</ele>
        <time>2023-04-05T14:47:29Z</time>
      </trkpt>
      <trkpt lat="49.81152" lon="2.27422">
        <ele>116.7</ele>
        <time>2023-04-05T14:47:31Z</time>
      </trkpt>
      <trkpt lat="49.81152" lon="2.27422">
        <ele>116.7</ele>
        <time>2023-04-05T14:47:32Z</time>
      </trkpt>
      <trkpt lat="49.81153" lon="2.27422">
        <ele>116.7</ele>
        <time>2023-04-05T14:47:33Z</time>
      </trkpt>
      <trkpt lat="49.81152" lon="2.27421">
        <ele>116.7</ele>
        <time>2023-04-05T14:47:34Z</time>
      </trkpt>
      <trkpt lat="49.81153" lon="2.27421">
        <ele>116.7</ele>
        <time>2023-04-05T14:47:36Z</time>
      </trkpt>
      <trkpt lat="49.81152" lon="2.27421">
        <ele>116.7</ele>
        <time>2023-04-05T14:47:38Z</time>
      </trkpt>
      <trkpt lat="49.81152" lon="2.27421">
        <ele>116.7</ele>
        <time>2023-04-05T14:47:39Z</time>
      </trkpt>
      <trkpt lat="49.81152" lon="2.2742">
        <ele>116.7</ele>
        <time>2023-04-05T14:47:40Z</time>
      </trkpt>
      <trkpt lat="49.81151" lon="2.2742">
        <ele>116.7</ele>
        <time>2023-04-05T14:47:42Z</time>
      </trkpt>
      <trkpt lat="49.81151" lon="2.2742">
        <ele>116.7</ele>
        <time>2023-04-05T14:47:43Z</time>
      </trkpt>
      <trkpt lat="49.81151" lon="2.2742">
        <ele>116.7</ele>
        <time>2023-04-05T14:47:45Z</time>
      </trkpt>
      <trkpt lat="49.81151" lon="2.2742">
        <ele>116.7</ele>
        <time>2023-04-05T14:47:46Z</time>
      </trkpt>
      <trkpt lat="49.81151" lon="2.2742">
        <ele>116.7</ele>
        <time>2023-04-05T14:47:48Z</time>
      </trkpt>
      <trkpt lat="49.81151" lon="2.2742">
        <ele>116.7</ele>
        <time>2023-04-05T14:47:49Z</time>
      </trkpt>
      <trkpt lat="49.81151" lon="2.2742">
        <ele>116.7</ele>
        <time>2023-04-05T14:47:50Z</time>
      </trkpt>
      <trkpt lat="49.81151" lon="2.2742">
        <ele>116.7</ele>
        <time>2023-04-05T14:47:51Z</time>
      </trkpt>
      <trkpt lat="49.81151" lon="2.2742">
        <ele>116.7</ele>
        <time>2023-04-05T14:47:52Z</time>
      </trkpt>
      <trkpt lat="49.81151" lon="2.27421">
        <ele>116.7</ele>
        <time>2023-04-05T14:47:53Z</time>
      </trkpt>
    </trkseg>
  </trk>
</gpx>